<?xml version='1.0' encoding='UTF-8'?><gpx version="1.1" creator="JPX - https://github.com/jenetics/jpx" xmlns="http://www.topografix.com/GPX/1/1"><trk><trkseg><trkpt lat="44.84022483692105" lon="3.1891866693058764"><ele>1138.0</ele><time>2026-04-04T19:43:11.999Z</time></trkpt><trkpt lat="44.84020862654279" lon="3.189288998521661"><ele>1138.0</ele><time>2026-04-04T19:57:45Z</time></trkpt><trkpt lat="44.840141411395074" lon="3.189317972692435"><ele>1138.0</ele><time>2026-04-04T20:08:34.015Z</time></trkpt><trkpt lat="44.84023539855486" lon="3.1892385694314274"><ele>1138.0</ele><time>2026-04-04T20:14:28.999Z</time></trkpt><trkpt lat="44.840248905171805" lon="3.189106295201489"><ele>1138.0</ele><time>2026-04-05T05:03:31.999Z</time></trkpt><trkpt lat="44.84018220976699" lon="3.189108417347293"><ele>1138.0</ele><time>2026-04-05T05:03:40.998Z</time></trkpt><trkpt lat="44.840159769359474" lon="3.1892071043181756"><ele>1138.0</ele><time>2026-04-05T05:03:52Z</time></trkpt><trkpt lat="44.840307873791126" lon="3.1891963639255034"><ele>1138.0</ele><time>2026-04-05T06:06:54.999Z</time></trkpt><trkpt lat="44.840234557053584" lon="3.189199144329051"><ele>1138.0</ele><time>2026-04-05T06:10:47.998Z</time></trkpt><trkpt lat="44.840247114397144" lon="3.189108692230174"><ele>1138.0</ele><time>2026-04-05T06:11:51.999Z</time></trkpt><trkpt lat="44.84015534606616" lon="3.188954829444382"><ele>1138.0</ele><time>2026-04-05T06:12:05Z</time></trkpt><trkpt lat="44.84017704283199" lon="3.1890647901526967"><ele>1138.0</ele><time>2026-04-05T06:12:11Z</time></trkpt><trkpt lat="44.84011275374314" lon="3.189172407934999"><ele>1138.0</ele><time>2026-04-05T06:12:14Z</time></trkpt><trkpt lat="44.84019748846814" lon="3.189284273327274"><ele>1138.0</ele><time>2026-04-05T06:13:12Z</time></trkpt><trkpt lat="44.84027414069738" lon="3.1893080183186706"><ele>1138.0</ele><time>2026-04-05T06:13:17Z</time></trkpt><trkpt lat="44.8403380906694" lon="3.189334209433084"><ele>1138.0</ele><time>2026-04-05T06:13:22Z</time></trkpt><trkpt lat="44.840168194167504" lon="3.189355415339072"><ele>1138.0000000000002</ele><time>2026-04-05T06:14:12Z</time></trkpt><trkpt lat="44.84014695798637" lon="3.1892312915263905"><ele>1138.0</ele><time>2026-04-05T06:25:40Z</time></trkpt><trkpt lat="44.84023260991314" lon="3.1892308925459405"><ele>1138.0</ele><time>2026-04-05T06:35:09.999Z</time></trkpt><trkpt lat="44.84016397013841" lon="3.189221624408136"><ele>1138.0</ele><time>2026-04-05T06:44:23.999Z</time></trkpt><trkpt lat="44.840161512984295" lon="3.1893132179168124"><ele>1138.0</ele><time>2026-04-05T06:45:09Z</time></trkpt><trkpt lat="44.840210399922114" lon="3.1893726026655616"><ele>1138.0000000000002</ele><time>2026-04-05T06:45:15Z</time></trkpt><trkpt lat="44.84018870837362" lon="3.189457386696583"><ele>1138.0</ele><time>2026-04-05T06:45:26Z</time></trkpt><trkpt lat="44.84024860230552" lon="3.189523703752516"><ele>1138.0</ele><time>2026-04-05T06:45:33Z</time></trkpt><trkpt lat="44.84016635428427" lon="3.1894937399604233"><ele>1138.0</ele><time>2026-04-05T07:31:55.999Z</time></trkpt><trkpt lat="44.84011650725604" lon="3.1894223295860518"><ele>1138.0</ele><time>2026-04-05T07:31:58.999Z</time></trkpt><trkpt lat="44.840045973981624" lon="3.1893481327494357"><ele>1138.0</ele><time>2026-04-05T07:32:01.999Z</time></trkpt><trkpt lat="44.8399897222782" lon="3.189263200487169"><ele>1138.0</ele><time>2026-04-05T07:32:04.999Z</time></trkpt><trkpt lat="44.83992955862009" lon="3.1892135154568266"><ele>1138.0</ele><time>2026-04-05T07:32:06.999Z</time></trkpt><trkpt lat="44.83985881055409" lon="3.189266100081407"><ele>1137.3333333333333</ele><time>2026-04-05T07:32:10.999Z</time></trkpt><trkpt lat="44.83980474999752" lon="3.189325954009217"><ele>1136.6666666666665</ele><time>2026-04-05T07:32:12.998Z</time></trkpt><trkpt lat="44.83972064670069" lon="3.1894064072043666"><ele>1136.0</ele><time>2026-04-05T07:32:14.998Z</time></trkpt><trkpt lat="44.83966220545311" lon="3.1895032117805986"><ele>1135.3333333333333</ele><time>2026-04-05T07:32:16.998Z</time></trkpt><trkpt lat="44.83959985736535" lon="3.1895898809150367"><ele>1134.6666666666667</ele><time>2026-04-05T07:32:19.998Z</time></trkpt><trkpt lat="44.83955207116742" lon="3.1896583109769185"><ele>1134.0</ele><time>2026-04-05T07:32:21.998Z</time></trkpt><trkpt lat="44.83950886983619" lon="3.189746469347727"><ele>1131.8</ele><time>2026-04-05T07:32:23.998Z</time></trkpt><trkpt lat="44.83946078752705" lon="3.189845968617411"><ele>1129.6000000000001</ele><time>2026-04-05T07:32:25.998Z</time></trkpt><trkpt lat="44.839422107522" lon="3.1899640252539667"><ele>1127.4</ele><time>2026-04-05T07:32:27.998Z</time></trkpt><trkpt lat="44.83939563083434" lon="3.1900955202091397"><ele>1125.2</ele><time>2026-04-05T07:32:29.998Z</time></trkpt><trkpt lat="44.83935589574364" lon="3.190194251038096"><ele>1123.0</ele><time>2026-04-05T07:32:31.998Z</time></trkpt><trkpt lat="44.83929580634631" lon="3.190297320347943"><ele>1122.8333333333333</ele><time>2026-04-05T07:32:34.998Z</time></trkpt><trkpt lat="44.83923215527346" lon="3.1903882102214234"><ele>1122.6666666666665</ele><time>2026-04-05T07:32:37.998Z</time></trkpt><trkpt lat="44.83922038453756" lon="3.1904835172519346"><ele>1122.5</ele><time>2026-04-05T07:32:41Z</time></trkpt><trkpt lat="44.83924672313598" lon="3.19056601201658"><ele>1122.3333333333333</ele><time>2026-04-05T07:33:16.999Z</time></trkpt><trkpt lat="44.83922250957009" lon="3.190673113847224"><ele>1122.1666666666667</ele><time>2026-04-05T07:33:27.999Z</time></trkpt><trkpt lat="44.83917603717776" lon="3.190734295968033"><ele>1122.0</ele><time>2026-04-05T07:33:30.999Z</time></trkpt><trkpt lat="44.83907116177023" lon="3.190755718438076"><ele>1121.0</ele><time>2026-04-05T07:33:32.999Z</time></trkpt><trkpt lat="44.83900747351412" lon="3.190749843735323"><ele>1120.0</ele><time>2026-04-05T07:33:33.999Z</time></trkpt><trkpt lat="44.83894230812973" lon="3.1907606435177476"><ele>1119.0</ele><time>2026-04-05T07:33:34.999Z</time></trkpt><trkpt lat="44.838880857764295" lon="3.1907921317821057"><ele>1118.0</ele><time>2026-04-05T07:33:35.999Z</time></trkpt><trkpt lat="44.83880844795182" lon="3.1908420093493723"><ele>1117.0</ele><time>2026-04-05T07:33:36.999Z</time></trkpt><trkpt lat="44.83871438321532" lon="3.1908838538253512"><ele>1116.0</ele><time>2026-04-05T07:33:37.999Z</time></trkpt><trkpt lat="44.83862318757101" lon="3.1909661357448997"><ele>1116.0</ele><time>2026-04-05T07:33:38.999Z</time></trkpt><trkpt lat="44.8385204554559" lon="3.191060247849182"><ele>1116.0</ele><time>2026-04-05T07:33:39.999Z</time></trkpt><trkpt lat="44.838408692279344" lon="3.1911658885747496"><ele>1116.0</ele><time>2026-04-05T07:33:40.999Z</time></trkpt><trkpt lat="44.83829901161859" lon="3.191276491061001"><ele>1116.0</ele><time>2026-04-05T07:33:41.999Z</time></trkpt><trkpt lat="44.83820339320258" lon="3.191404911576412"><ele>1114.8</ele><time>2026-04-05T07:33:42.999Z</time></trkpt><trkpt lat="44.838126082944015" lon="3.191512586376362"><ele>1113.6</ele><time>2026-04-05T07:33:43.999Z</time></trkpt><trkpt lat="44.838049501065825" lon="3.191615937199624"><ele>1112.4</ele><time>2026-04-05T07:33:44.999Z</time></trkpt><trkpt lat="44.837966744489044" lon="3.1917112940116685"><ele>1111.2</ele><time>2026-04-05T07:33:45.999Z</time></trkpt><trkpt lat="44.83787788802584" lon="3.1918171325921265"><ele>1110.0</ele><time>2026-04-05T07:33:46.999Z</time></trkpt><trkpt lat="44.83777913268832" lon="3.1919421487186477"><ele>1110.0</ele><time>2026-04-05T07:33:47.999Z</time></trkpt><trkpt lat="44.8376679663932" lon="3.1921078061812205"><ele>1110.0</ele><time>2026-04-05T07:33:48.999Z</time></trkpt><trkpt lat="44.8375433488384" lon="3.1922106874459026"><ele>1110.0</ele><time>2026-04-05T07:33:49.999Z</time></trkpt><trkpt lat="44.83744141182281" lon="3.1923143859455307"><ele>1110.0</ele><time>2026-04-05T07:33:50.999Z</time></trkpt><trkpt lat="44.83735499484093" lon="3.192398231576643"><ele>1109.0</ele><time>2026-04-05T07:33:51.999Z</time></trkpt><trkpt lat="44.83727327958003" lon="3.192477779211488"><ele>1108.0</ele><time>2026-04-05T07:33:52.999Z</time></trkpt><trkpt lat="44.837204177507815" lon="3.1925433443880116"><ele>1107.0</ele><time>2026-04-05T07:33:53.999Z</time></trkpt><trkpt lat="44.83715027840269" lon="3.1925965522396247"><ele>1106.0</ele><time>2026-04-05T07:33:54.999Z</time></trkpt><trkpt lat="44.837118834692774" lon="3.1926845629236498"><ele>1105.0</ele><time>2026-04-05T07:33:55.999Z</time></trkpt><trkpt lat="44.837134580586415" lon="3.1928227460356298"><ele>1104.0</ele><time>2026-04-05T07:33:56.999Z</time></trkpt><trkpt lat="44.83722248088121" lon="3.192948752802971"><ele>1104.0</ele><time>2026-04-05T07:33:57.999Z</time></trkpt><trkpt lat="44.837295815193016" lon="3.193103698328917"><ele>1104.0</ele><time>2026-04-05T07:33:58.999Z</time></trkpt><trkpt lat="44.83732222752803" lon="3.1932781921217166"><ele>1104.0</ele><time>2026-04-05T07:33:59.999Z</time></trkpt><trkpt lat="44.837337628242985" lon="3.193413943369956"><ele>1104.0</ele><time>2026-04-05T07:34:00.999Z</time></trkpt><trkpt lat="44.83731246548357" lon="3.193569189567837"><ele>1102.75</ele><time>2026-04-05T07:34:01.999Z</time></trkpt><trkpt lat="44.83728606376575" lon="3.1937660126718357"><ele>1101.5</ele><time>2026-04-05T07:34:02.999Z</time></trkpt><trkpt lat="44.83726312155178" lon="3.193975231169693"><ele>1100.25</ele><time>2026-04-05T07:34:03.999Z</time></trkpt><trkpt lat="44.837251435712915" lon="3.1941583636991133"><ele>1099.0</ele><time>2026-04-05T07:34:04.999Z</time></trkpt><trkpt lat="44.83722285302321" lon="3.194316886062315"><ele>1098.25</ele><time>2026-04-05T07:34:05.999Z</time></trkpt><trkpt lat="44.837201550220946" lon="3.194477969233538"><ele>1097.5</ele><time>2026-04-05T07:34:06.999Z</time></trkpt><trkpt lat="44.83717603307208" lon="3.194634289524297"><ele>1096.75</ele><time>2026-04-05T07:34:07.999Z</time></trkpt><trkpt lat="44.837144435067884" lon="3.194791083323913"><ele>1096.0</ele><time>2026-04-05T07:34:08.999Z</time></trkpt><trkpt lat="44.83712949187977" lon="3.1949545776532386"><ele>1094.5</ele><time>2026-04-05T07:34:09.999Z</time></trkpt><trkpt lat="44.837096722993735" lon="3.195119210074912"><ele>1093.0</ele><time>2026-04-05T07:34:10.999Z</time></trkpt><trkpt lat="44.83706685722092" lon="3.1952961378391045"><ele>1091.5</ele><time>2026-04-05T07:34:11.999Z</time></trkpt><trkpt lat="44.837058491453085" lon="3.19549350931126"><ele>1090.0</ele><time>2026-04-05T07:34:12.999Z</time></trkpt><trkpt lat="44.83703006624147" lon="3.1956593865369722"><ele>1087.75</ele><time>2026-04-05T07:34:13.999Z</time></trkpt><trkpt lat="44.836978998112684" lon="3.1957820685589837"><ele>1085.5</ele><time>2026-04-05T07:34:14.998Z</time></trkpt><trkpt lat="44.83689982547169" lon="3.195879774400315"><ele>1083.25</ele><time>2026-04-05T07:34:15.998Z</time></trkpt><trkpt lat="44.836791461946206" lon="3.1959993623062504"><ele>1081.0</ele><time>2026-04-05T07:34:16.998Z</time></trkpt><trkpt lat="44.83669518454016" lon="3.1961359056221763"><ele>1081.0</ele><time>2026-04-05T07:34:17.998Z</time></trkpt><trkpt lat="44.8366052508902" lon="3.1962094384279363"><ele>1081.0</ele><time>2026-04-05T07:34:18.998Z</time></trkpt><trkpt lat="44.83651261654176" lon="3.196313944927911"><ele>1081.0</ele><time>2026-04-05T07:34:19.998Z</time></trkpt><trkpt lat="44.83640113673839" lon="3.1964600169345396"><ele>1081.0</ele><time>2026-04-05T07:34:20.998Z</time></trkpt><trkpt lat="44.83629698236821" lon="3.196530719358344"><ele>1081.0</ele><time>2026-04-05T07:34:21.998Z</time></trkpt><trkpt lat="44.836225743092214" lon="3.1965820048867166"><ele>1081.0</ele><time>2026-04-05T07:34:22.998Z</time></trkpt><trkpt lat="44.836157544724244" lon="3.19665352059614"><ele>1081.0</ele><time>2026-04-05T07:34:23.998Z</time></trkpt><trkpt lat="44.836073706468405" lon="3.1967261035009362"><ele>1081.0</ele><time>2026-04-05T07:34:24.998Z</time></trkpt><trkpt lat="44.83597917258803" lon="3.196795084315769"><ele>1081.0</ele><time>2026-04-05T07:34:25.998Z</time></trkpt><trkpt lat="44.83588492683354" lon="3.1968754490337647"><ele>1081.0</ele><time>2026-04-05T07:34:26.998Z</time></trkpt><trkpt lat="44.83579874949291" lon="3.196979276106498"><ele>1081.0</ele><time>2026-04-05T07:34:27.998Z</time></trkpt><trkpt lat="44.83571112676566" lon="3.197091776078827"><ele>1081.0</ele><time>2026-04-05T07:34:28.998Z</time></trkpt><trkpt lat="44.83560002360015" lon="3.1971877554358334"><ele>1081.0</ele><time>2026-04-05T07:34:29.998Z</time></trkpt><trkpt lat="44.83546968452187" lon="3.1972978601185154"><ele>1081.0</ele><time>2026-04-05T07:34:30.998Z</time></trkpt><trkpt lat="44.835327763817936" lon="3.197373752614325"><ele>1081.0</ele><time>2026-04-05T07:34:31.998Z</time></trkpt><trkpt lat="44.83522827304456" lon="3.19743507803255"><ele>1081.0</ele><time>2026-04-05T07:34:32.998Z</time></trkpt><trkpt lat="44.83515561998758" lon="3.1975388600425"><ele>1081.0</ele><time>2026-04-05T07:34:33.998Z</time></trkpt><trkpt lat="44.83508971721459" lon="3.1976651303135295"><ele>1080.25</ele><time>2026-04-05T07:34:34.998Z</time></trkpt><trkpt lat="44.83502922543543" lon="3.197822676157873"><ele>1079.5</ele><time>2026-04-05T07:34:35.998Z</time></trkpt><trkpt lat="44.83496883162847" lon="3.197977789228649"><ele>1078.75</ele><time>2026-04-05T07:34:36.998Z</time></trkpt><trkpt lat="44.83490017612936" lon="3.19810481831743"><ele>1078.0</ele><time>2026-04-05T07:34:37.998Z</time></trkpt><trkpt lat="44.834817780788704" lon="3.198220336795648"><ele>1076.25</ele><time>2026-04-05T07:34:38.998Z</time></trkpt><trkpt lat="44.834729870062574" lon="3.198331903227228"><ele>1074.5</ele><time>2026-04-05T07:34:39.998Z</time></trkpt><trkpt lat="44.83462635435131" lon="3.198416919482582"><ele>1072.75</ele><time>2026-04-05T07:34:40.998Z</time></trkpt><trkpt lat="44.83453834515715" lon="3.198530453057508"><ele>1071.0</ele><time>2026-04-05T07:34:41.998Z</time></trkpt><trkpt lat="44.834443821904316" lon="3.1986448788118764"><ele>1071.0</ele><time>2026-04-05T07:34:42.998Z</time></trkpt><trkpt lat="44.83433852191987" lon="3.1987622556836603"><ele>1071.0</ele><time>2026-04-05T07:34:43.998Z</time></trkpt><trkpt lat="44.834228587566656" lon="3.1988745260511924"><ele>1071.0</ele><time>2026-04-05T07:34:45Z</time></trkpt><trkpt lat="44.83411784952419" lon="3.198971226065407"><ele>1071.0</ele><time>2026-04-05T07:34:46Z</time></trkpt><trkpt lat="44.83400607312239" lon="3.1990647718064755"><ele>1069.25</ele><time>2026-04-05T07:34:47Z</time></trkpt><trkpt lat="44.83390047204369" lon="3.1991794078631908"><ele>1067.5</ele><time>2026-04-05T07:34:48Z</time></trkpt><trkpt lat="44.83378716804824" lon="3.199274083079038"><ele>1065.75</ele><time>2026-04-05T07:34:49Z</time></trkpt><trkpt lat="44.83367017613668" lon="3.1993959933855693"><ele>1064.0</ele><time>2026-04-05T07:34:50Z</time></trkpt><trkpt lat="44.8335693122681" lon="3.1995769562003766"><ele>1064.0</ele><time>2026-04-05T07:34:51Z</time></trkpt><trkpt lat="44.83345715525252" lon="3.1997418747661976"><ele>1064.0</ele><time>2026-04-05T07:34:52Z</time></trkpt><trkpt lat="44.833350311373415" lon="3.1999169414162543"><ele>1064.0</ele><time>2026-04-05T07:34:53Z</time></trkpt><trkpt lat="44.83325708977085" lon="3.2001165226440587"><ele>1062.3333333333335</ele><time>2026-04-05T07:34:54Z</time></trkpt><trkpt lat="44.83319164450328" lon="3.2003196154873588"><ele>1060.6666666666667</ele><time>2026-04-05T07:34:55Z</time></trkpt><trkpt lat="44.83312360634964" lon="3.200522719819053"><ele>1059.0</ele><time>2026-04-05T07:34:56Z</time></trkpt><trkpt lat="44.83305005109793" lon="3.2007229049263497"><ele>1058.2</ele><time>2026-04-05T07:34:57Z</time></trkpt><trkpt lat="44.83297105660793" lon="3.2008784072705168"><ele>1057.4</ele><time>2026-04-05T07:34:58Z</time></trkpt><trkpt lat="44.83292355648589" lon="3.2010366993815644"><ele>1056.6</ele><time>2026-04-05T07:34:59Z</time></trkpt><trkpt lat="44.83287660498604" lon="3.201153527701473"><ele>1055.8</ele><time>2026-04-05T07:35:00Z</time></trkpt><trkpt lat="44.8328359373548" lon="3.2012550710842507"><ele>1055.0</ele><time>2026-04-05T07:35:01Z</time></trkpt><trkpt lat="44.83278952849418" lon="3.2013198005522963"><ele>1055.5</ele><time>2026-04-05T07:35:02Z</time></trkpt><trkpt lat="44.83288338757058" lon="3.2015430461305474"><ele>1056.0</ele><time>2026-04-05T07:35:03.999Z</time></trkpt><trkpt lat="44.832940638260055" lon="3.2016697242231906"><ele>1056.5</ele><time>2026-04-05T07:35:04.999Z</time></trkpt><trkpt lat="44.83299293364212" lon="3.201807314755044"><ele>1057.0</ele><time>2026-04-05T07:35:05.999Z</time></trkpt><trkpt lat="44.83302892368973" lon="3.2019626041398688"><ele>1057.0</ele><time>2026-04-05T07:35:06.999Z</time></trkpt><trkpt lat="44.83305190507791" lon="3.2021312308434347"><ele>1057.0</ele><time>2026-04-05T07:35:07.999Z</time></trkpt><trkpt lat="44.83303623804144" lon="3.202308616167941"><ele>1057.0</ele><time>2026-04-05T07:35:08.999Z</time></trkpt><trkpt lat="44.83302782141509" lon="3.2024879594165148"><ele>1057.0</ele><time>2026-04-05T07:35:09.999Z</time></trkpt><trkpt lat="44.833008968626494" lon="3.202673779342921"><ele>1058.6666666666665</ele><time>2026-04-05T07:35:10.999Z</time></trkpt><trkpt lat="44.83298236563123" lon="3.202873468550226"><ele>1060.3333333333333</ele><time>2026-04-05T07:35:11.999Z</time></trkpt><trkpt lat="44.83293863926809" lon="3.203104543622626"><ele>1062.0</ele><time>2026-04-05T07:35:12.999Z</time></trkpt><trkpt lat="44.8329045122094" lon="3.2033250471538355"><ele>1063.3333333333333</ele><time>2026-04-05T07:35:13.999Z</time></trkpt><trkpt lat="44.832904258541205" lon="3.203470392913115"><ele>1064.6666666666667</ele><time>2026-04-05T07:35:14.999Z</time></trkpt><trkpt lat="44.83290532794975" lon="3.203562402390454"><ele>1066.0</ele><time>2026-04-05T07:35:16.999Z</time></trkpt><trkpt lat="44.83295698088618" lon="3.203505537082767"><ele>1067.3333333333335</ele><time>2026-04-05T07:35:36.999Z</time></trkpt><trkpt lat="44.8330566113083" lon="3.203479282327677"><ele>1068.6666666666667</ele><time>2026-04-05T07:35:38.999Z</time></trkpt><trkpt lat="44.83310043062375" lon="3.203414466392573"><ele>1070.0</ele><time>2026-04-05T07:35:39.999Z</time></trkpt><trkpt lat="44.83315725638106" lon="3.2033376323055114"><ele>1070.0</ele><time>2026-04-05T07:35:40.999Z</time></trkpt><trkpt lat="44.833246781510034" lon="3.203314186099251"><ele>1070.0</ele><time>2026-04-05T07:35:41.999Z</time></trkpt><trkpt lat="44.83334582809319" lon="3.203283818823894"><ele>1070.0</ele><time>2026-04-05T07:35:42.999Z</time></trkpt><trkpt lat="44.83346951070704" lon="3.203276247218766"><ele>1070.0</ele><time>2026-04-05T07:35:43.999Z</time></trkpt><trkpt lat="44.83356582324404" lon="3.203296903517252"><ele>1070.0</ele><time>2026-04-05T07:35:44.999Z</time></trkpt><trkpt lat="44.833695891894095" lon="3.203316972119084"><ele>1073.0</ele><time>2026-04-05T07:35:45.999Z</time></trkpt><trkpt lat="44.83386167064672" lon="3.2033845016126934"><ele>1076.0</ele><time>2026-04-05T07:35:46.999Z</time></trkpt><trkpt lat="44.83404081101941" lon="3.203418665296051"><ele>1079.0</ele><time>2026-04-05T07:35:47.999Z</time></trkpt><trkpt lat="44.83418867346989" lon="3.20344956069195"><ele>1081.25</ele><time>2026-04-05T07:35:48.999Z</time></trkpt><trkpt lat="44.83430534599962" lon="3.203483681360774"><ele>1083.5</ele><time>2026-04-05T07:35:49.999Z</time></trkpt><trkpt lat="44.83441714013543" lon="3.203499494825457"><ele>1085.75</ele><time>2026-04-05T07:35:50.999Z</time></trkpt><trkpt lat="44.83456011659717" lon="3.2034714142456284"><ele>1088.0</ele><time>2026-04-05T07:35:51.999Z</time></trkpt><trkpt lat="44.83470902804988" lon="3.2034165408006885"><ele>1088.0</ele><time>2026-04-05T07:35:52.999Z</time></trkpt><trkpt lat="44.834809187615555" lon="3.2033515000824333"><ele>1088.0</ele><time>2026-04-05T07:35:53.999Z</time></trkpt><trkpt lat="44.834855126107385" lon="3.2032717800894845"><ele>1088.0</ele><time>2026-04-05T07:35:54.999Z</time></trkpt><trkpt lat="44.83488646226466" lon="3.203126897226705"><ele>1088.0</ele><time>2026-04-05T07:35:55.999Z</time></trkpt><trkpt lat="44.83491685008451" lon="3.2029000823980147"><ele>1085.8</ele><time>2026-04-05T07:35:56.999Z</time></trkpt><trkpt lat="44.83491956422821" lon="3.2027232803958023"><ele>1083.6</ele><time>2026-04-05T07:35:57.999Z</time></trkpt><trkpt lat="44.834969370376086" lon="3.202639301664655"><ele>1081.4</ele><time>2026-04-05T07:35:58.999Z</time></trkpt><trkpt lat="44.835047164156265" lon="3.202571065427901"><ele>1079.2</ele><time>2026-04-05T07:35:59.999Z</time></trkpt><trkpt lat="44.83516716984092" lon="3.2024812890617738"><ele>1077.0</ele><time>2026-04-05T07:36:00.999Z</time></trkpt><trkpt lat="44.83531966468981" lon="3.202389543720361"><ele>1077.0</ele><time>2026-04-05T07:36:01.999Z</time></trkpt><trkpt lat="44.835437959170875" lon="3.202344668322834"><ele>1077.0</ele><time>2026-04-05T07:36:02.999Z</time></trkpt><trkpt lat="44.83556175667849" lon="3.2023374458188045"><ele>1077.0</ele><time>2026-04-05T07:36:03.999Z</time></trkpt><trkpt lat="44.8357050115372" lon="3.202356496197968"><ele>1077.0</ele><time>2026-04-05T07:36:04.999Z</time></trkpt><trkpt lat="44.8358650736334" lon="3.202404140867076"><ele>1079.0</ele><time>2026-04-05T07:36:05.999Z</time></trkpt><trkpt lat="44.83602690956368" lon="3.202438921512423"><ele>1081.0</ele><time>2026-04-05T07:36:06.999Z</time></trkpt><trkpt lat="44.836204683831994" lon="3.202419241070272"><ele>1083.0</ele><time>2026-04-05T07:36:07.999Z</time></trkpt><trkpt lat="44.83636873210527" lon="3.2023380010904474"><ele>1085.0</ele><time>2026-04-05T07:36:08.999Z</time></trkpt><trkpt lat="44.83650547101135" lon="3.2022307636674046"><ele>1087.0</ele><time>2026-04-05T07:36:09.999Z</time></trkpt><trkpt lat="44.83662751234145" lon="3.2021390929609823"><ele>1089.0</ele><time>2026-04-05T07:36:10.999Z</time></trkpt><trkpt lat="44.83674781710274" lon="3.202065303577988"><ele>1091.0</ele><time>2026-04-05T07:36:11.999Z</time></trkpt><trkpt lat="44.83687749438613" lon="3.2020235054064163"><ele>1091.0</ele><time>2026-04-05T07:36:12.999Z</time></trkpt><trkpt lat="44.8370374705727" lon="3.2020175625880603"><ele>1091.0</ele><time>2026-04-05T07:36:13.999Z</time></trkpt><trkpt lat="44.837207570447326" lon="3.202003998348343"><ele>1091.0</ele><time>2026-04-05T07:36:14.998Z</time></trkpt><trkpt lat="44.83733489075939" lon="3.201968445209349"><ele>1091.0</ele><time>2026-04-05T07:36:15.998Z</time></trkpt><trkpt lat="44.83739665158467" lon="3.2019423586202493"><ele>1091.0</ele><time>2026-04-05T07:36:16.998Z</time></trkpt><trkpt lat="44.83738686644077" lon="3.2020896564989223"><ele>1091.0</ele><time>2026-04-05T07:36:19.998Z</time></trkpt><trkpt lat="44.837322587392656" lon="3.2021256225309473"><ele>1091.0</ele><time>2026-04-05T07:36:24.998Z</time></trkpt><trkpt lat="44.837230012794315" lon="3.202219038552886"><ele>1091.0</ele><time>2026-04-05T07:36:33.998Z</time></trkpt><trkpt lat="44.837177505706414" lon="3.2023285363467595"><ele>1091.0</ele><time>2026-04-05T07:36:34.998Z</time></trkpt><trkpt lat="44.83712669099985" lon="3.2023833982421457"><ele>1092.5</ele><time>2026-04-05T07:36:35.998Z</time></trkpt><trkpt lat="44.83704553027069" lon="3.2024096736786425"><ele>1094.0</ele><time>2026-04-05T07:36:36.998Z</time></trkpt><trkpt lat="44.836956178817225" lon="3.202462068909543"><ele>1095.5</ele><time>2026-04-05T07:36:37.998Z</time></trkpt><trkpt lat="44.83685707131757" lon="3.20264863430324"><ele>1097.0</ele><time>2026-04-05T07:36:39.998Z</time></trkpt><trkpt lat="44.83681059454603" lon="3.2027986518883407"><ele>1097.0</ele><time>2026-04-05T07:36:40.998Z</time></trkpt><trkpt lat="44.83681400466305" lon="3.2029196474558046"><ele>1097.0</ele><time>2026-04-05T07:36:41.998Z</time></trkpt><trkpt lat="44.83682597925594" lon="3.2030304003239807"><ele>1097.0</ele><time>2026-04-05T07:36:42.998Z</time></trkpt><trkpt lat="44.83683973899559" lon="3.2031264531414907"><ele>1097.0</ele><time>2026-04-05T07:36:43.998Z</time></trkpt><trkpt lat="44.83679135130401" lon="3.2032921766732994"><ele>1097.0</ele><time>2026-04-05T07:36:45.998Z</time></trkpt><trkpt lat="44.83674071767482" lon="3.2033953469584424"><ele>1096.8</ele><time>2026-04-05T07:36:46.998Z</time></trkpt><trkpt lat="44.83667036634707" lon="3.203464259586995"><ele>1096.6</ele><time>2026-04-05T07:36:47.998Z</time></trkpt><trkpt lat="44.836580787848646" lon="3.2035119288240006"><ele>1096.3999999999999</ele><time>2026-04-05T07:36:48.998Z</time></trkpt><trkpt lat="44.83646918580055" lon="3.2035550729757523"><ele>1096.2</ele><time>2026-04-05T07:36:49.998Z</time></trkpt><trkpt lat="44.836361977227696" lon="3.2036156189518348"><ele>1096.0</ele><time>2026-04-05T07:36:50.999Z</time></trkpt><trkpt lat="44.83625441430577" lon="3.2037334299147733"><ele>1096.0</ele><time>2026-04-05T07:36:51.999Z</time></trkpt><trkpt lat="44.8361263884039" lon="3.2038868650494003"><ele>1096.0</ele><time>2026-04-05T07:36:52.999Z</time></trkpt><trkpt lat="44.83603440495761" lon="3.2039696630901044"><ele>1096.0</ele><time>2026-04-05T07:36:53.999Z</time></trkpt><trkpt lat="44.835953512335294" lon="3.2040580047597373"><ele>1096.0</ele><time>2026-04-05T07:36:54.999Z</time></trkpt><trkpt lat="44.8358574882028" lon="3.2041403988007477"><ele>1098.0</ele><time>2026-04-05T07:36:55.999Z</time></trkpt><trkpt lat="44.835771053240144" lon="3.2041867293698694"><ele>1100.0</ele><time>2026-04-05T07:36:56.999Z</time></trkpt><trkpt lat="44.835680238220675" lon="3.2042171159972472"><ele>1102.0</ele><time>2026-04-05T07:36:57.999Z</time></trkpt><trkpt lat="44.83559002230687" lon="3.2042801514329566"><ele>1104.0</ele><time>2026-04-05T07:36:58.999Z</time></trkpt><trkpt lat="44.8354915723745" lon="3.204348777663259"><ele>1106.0</ele><time>2026-04-05T07:36:59.999Z</time></trkpt><trkpt lat="44.83536750685456" lon="3.2044158550386292"><ele>1106.0</ele><time>2026-04-05T07:37:00.999Z</time></trkpt><trkpt lat="44.835258050112806" lon="3.2044741220433055"><ele>1106.0</ele><time>2026-04-05T07:37:01.999Z</time></trkpt><trkpt lat="44.83515246463791" lon="3.20457013307016"><ele>1106.0</ele><time>2026-04-05T07:37:02.999Z</time></trkpt><trkpt lat="44.83503520500578" lon="3.204668228154929"><ele>1106.0</ele><time>2026-04-05T07:37:03.999Z</time></trkpt><trkpt lat="44.83495428543031" lon="3.204752795045421"><ele>1107.6666666666667</ele><time>2026-04-05T07:37:04.999Z</time></trkpt><trkpt lat="44.83489615958498" lon="3.2048438414838225"><ele>1109.3333333333335</ele><time>2026-04-05T07:37:05.999Z</time></trkpt><trkpt lat="44.83482793755688" lon="3.204906624152883"><ele>1111.0</ele><time>2026-04-05T07:37:06.999Z</time></trkpt><trkpt lat="44.8347623028028" lon="3.204921009959203"><ele>1112.6666666666667</ele><time>2026-04-05T07:37:07.999Z</time></trkpt><trkpt lat="44.83471416747691" lon="3.2049911587178763"><ele>1114.3333333333333</ele><time>2026-04-05T07:37:08.999Z</time></trkpt><trkpt lat="44.83467251174592" lon="3.2051054705530655"><ele>1116.0</ele><time>2026-04-05T07:37:09.999Z</time></trkpt><trkpt lat="44.834627006842375" lon="3.205220573812333"><ele>1116.0</ele><time>2026-04-05T07:37:10.999Z</time></trkpt><trkpt lat="44.8345949537554" lon="3.2053358409750614"><ele>1116.0</ele><time>2026-04-05T07:37:11.999Z</time></trkpt><trkpt lat="44.83454512129095" lon="3.205476694205115"><ele>1116.0</ele><time>2026-04-05T07:37:12.999Z</time></trkpt><trkpt lat="44.834469414112064" lon="3.20559031182152"><ele>1116.0</ele><time>2026-04-05T07:37:13.999Z</time></trkpt><trkpt lat="44.8343967031006" lon="3.205644481403598"><ele>1116.0</ele><time>2026-04-05T07:37:14.999Z</time></trkpt><trkpt lat="44.834343697522165" lon="3.205768439678795"><ele>1115.0</ele><time>2026-04-05T07:37:15.999Z</time></trkpt><trkpt lat="44.834317572846864" lon="3.205913676785634"><ele>1114.0</ele><time>2026-04-05T07:37:16.999Z</time></trkpt><trkpt lat="44.834301830291935" lon="3.2060200967166512"><ele>1113.0</ele><time>2026-04-05T07:37:17.999Z</time></trkpt><trkpt lat="44.83439129298804" lon="3.2059746713366337"><ele>1112.0</ele><time>2026-04-05T07:37:21.999Z</time></trkpt><trkpt lat="44.83445392092201" lon="3.2059008372234725"><ele>1111.0</ele><time>2026-04-05T07:37:22.999Z</time></trkpt><trkpt lat="44.834532538028974" lon="3.205818310523019"><ele>1113.2857142857142</ele><time>2026-04-05T07:37:23.999Z</time></trkpt><trkpt lat="44.83453160414262" lon="3.2059073658471116"><ele>1115.5714285714287</ele><time>2026-04-05T07:37:27.999Z</time></trkpt><trkpt lat="44.834508953154426" lon="3.2059945951420636"><ele>1117.857142857143</ele><time>2026-04-05T07:37:29.999Z</time></trkpt><trkpt lat="44.83456556416138" lon="3.206066883949216"><ele>1120.142857142857</ele><time>2026-04-05T07:37:32.999Z</time></trkpt><trkpt lat="44.83463477295978" lon="3.2060296741841716"><ele>1122.4285714285716</ele><time>2026-04-05T07:37:36.999Z</time></trkpt><trkpt lat="44.83468470349809" lon="3.2059520400499824"><ele>1124.7142857142858</ele><time>2026-04-05T07:37:40.999Z</time></trkpt><trkpt lat="44.834690471844766" lon="3.2058190045581725"><ele>1127.0</ele><time>2026-04-05T07:37:43.999Z</time></trkpt><trkpt lat="44.83467861622888" lon="3.2057302840623922"><ele>1126.0</ele><time>2026-04-05T07:37:44.999Z</time></trkpt><trkpt lat="44.8347187686382" lon="3.205648146027791"><ele>1125.0</ele><time>2026-04-05T07:37:46.999Z</time></trkpt><trkpt lat="44.83474867685066" lon="3.2055694427395562"><ele>1124.0</ele><time>2026-04-05T07:37:48.999Z</time></trkpt><trkpt lat="44.834813365633565" lon="3.205510519100337"><ele>1123.0</ele><time>2026-04-05T07:37:49.999Z</time></trkpt><trkpt lat="44.83491815668012" lon="3.2054364325390363"><ele>1122.0</ele><time>2026-04-05T07:37:50.999Z</time></trkpt><trkpt lat="44.8350239123792" lon="3.2053612530610884"><ele>1121.0</ele><time>2026-04-05T07:37:51.999Z</time></trkpt><trkpt lat="44.83513753737788" lon="3.205320473814744"><ele>1121.0</ele><time>2026-04-05T07:37:52.999Z</time></trkpt><trkpt lat="44.835275033045605" lon="3.205269861697956"><ele>1121.0</ele><time>2026-04-05T07:37:53.999Z</time></trkpt><trkpt lat="44.83543481915855" lon="3.205190464817713"><ele>1121.0</ele><time>2026-04-05T07:37:54.999Z</time></trkpt><trkpt lat="44.8355675260621" lon="3.2051455202033696"><ele>1121.0</ele><time>2026-04-05T07:37:55.999Z</time></trkpt><trkpt lat="44.83568792734089" lon="3.2051527142862004"><ele>1121.0</ele><time>2026-04-05T07:37:56.999Z</time></trkpt><trkpt lat="44.835820108217526" lon="3.205175011576885"><ele>1121.0</ele><time>2026-04-05T07:37:57.999Z</time></trkpt><trkpt lat="44.83592666826654" lon="3.2051573020060347"><ele>1121.0</ele><time>2026-04-05T07:37:58.999Z</time></trkpt><trkpt lat="44.83605876589693" lon="3.205077660668327"><ele>1121.0</ele><time>2026-04-05T07:37:59.999Z</time></trkpt><trkpt lat="44.836203712769496" lon="3.2049762977399796"><ele>1122.6</ele><time>2026-04-05T07:38:00.999Z</time></trkpt><trkpt lat="44.83630688226514" lon="3.204909527927939"><ele>1124.1999999999998</ele><time>2026-04-05T07:38:01.999Z</time></trkpt><trkpt lat="44.836394242005575" lon="3.204857164051403"><ele>1125.8000000000002</ele><time>2026-04-05T07:38:02.999Z</time></trkpt><trkpt lat="44.83647573294489" lon="3.204820257238288"><ele>1127.4</ele><time>2026-04-05T07:38:04Z</time></trkpt><trkpt lat="44.836550829269946" lon="3.204803463624056"><ele>1129.0</ele><time>2026-04-05T07:38:05Z</time></trkpt><trkpt lat="44.83665019152528" lon="3.20478706465327"><ele>1127.6000000000001</ele><time>2026-04-05T07:38:06Z</time></trkpt><trkpt lat="44.836758916105374" lon="3.2047510696994967"><ele>1126.2</ele><time>2026-04-05T07:38:07Z</time></trkpt><trkpt lat="44.836869184041184" lon="3.204724096788079"><ele>1124.8000000000002</ele><time>2026-04-05T07:38:08Z</time></trkpt><trkpt lat="44.83697672510723" lon="3.204695333526694"><ele>1123.4</ele><time>2026-04-05T07:38:09Z</time></trkpt><trkpt lat="44.83708337468861" lon="3.2046705999994156"><ele>1122.0</ele><time>2026-04-05T07:38:10Z</time></trkpt><trkpt lat="44.83718668056502" lon="3.2046312780729367"><ele>1122.0</ele><time>2026-04-05T07:38:10.999Z</time></trkpt><trkpt lat="44.837286535720615" lon="3.2046080080379986"><ele>1122.0</ele><time>2026-04-05T07:38:11.999Z</time></trkpt><trkpt lat="44.83739431402331" lon="3.2046010756275973"><ele>1122.0</ele><time>2026-04-05T07:38:12.999Z</time></trkpt><trkpt lat="44.83751055663748" lon="3.204563022965063"><ele>1122.0</ele><time>2026-04-05T07:38:13.999Z</time></trkpt><trkpt lat="44.83761860503549" lon="3.2045115490593807"><ele>1122.0</ele><time>2026-04-05T07:38:14.999Z</time></trkpt><trkpt lat="44.83776017427578" lon="3.2044601568601805"><ele>1123.25</ele><time>2026-04-05T07:38:15.999Z</time></trkpt><trkpt lat="44.83791048926847" lon="3.204445513376786"><ele>1124.5</ele><time>2026-04-05T07:38:16.999Z</time></trkpt><trkpt lat="44.83804170380106" lon="3.2044589564177617"><ele>1125.75</ele><time>2026-04-05T07:38:17.999Z</time></trkpt><trkpt lat="44.838147347041215" lon="3.2045069297505573"><ele>1127.0</ele><time>2026-04-05T07:38:18.999Z</time></trkpt><trkpt lat="44.83823567444544" lon="3.2045270214549806"><ele>1127.0</ele><time>2026-04-05T07:38:19.999Z</time></trkpt><trkpt lat="44.838366995350576" lon="3.2044667120101265"><ele>1127.0</ele><time>2026-04-05T07:38:20.999Z</time></trkpt><trkpt lat="44.838478118360165" lon="3.2044681729965427"><ele>1127.0</ele><time>2026-04-05T07:38:21.999Z</time></trkpt><trkpt lat="44.83854417302388" lon="3.20449823653977"><ele>1127.0</ele><time>2026-04-05T07:38:22.999Z</time></trkpt><trkpt lat="44.83858936443285" lon="3.2043879556449713"><ele>1127.0</ele><time>2026-04-05T07:38:24.999Z</time></trkpt><trkpt lat="44.83859220426761" lon="3.2042909778728315"><ele>1128.8</ele><time>2026-04-05T07:38:25.999Z</time></trkpt><trkpt lat="44.83860822755085" lon="3.2041792619448515"><ele>1130.6</ele><time>2026-04-05T07:38:26.999Z</time></trkpt><trkpt lat="44.83864798720165" lon="3.2040287001604635"><ele>1132.3999999999999</ele><time>2026-04-05T07:38:27.999Z</time></trkpt><trkpt lat="44.83867662868461" lon="3.2039263532070823"><ele>1134.2</ele><time>2026-04-05T07:38:28.999Z</time></trkpt><trkpt lat="44.838570666447325" lon="3.2037965572984186"><ele>1136.0</ele><time>2026-04-05T07:38:30.999Z</time></trkpt><trkpt lat="44.83851043599766" lon="3.2036713212081356"><ele>1136.1666666666667</ele><time>2026-04-05T07:38:31.999Z</time></trkpt><trkpt lat="44.83846948685235" lon="3.2035697305047677"><ele>1136.3333333333335</ele><time>2026-04-05T07:38:32.999Z</time></trkpt><trkpt lat="44.83844058150486" lon="3.203456740676694"><ele>1136.5</ele><time>2026-04-05T07:38:33.999Z</time></trkpt><trkpt lat="44.83842596418042" lon="3.203342242744779"><ele>1136.6666666666667</ele><time>2026-04-05T07:38:34.999Z</time></trkpt><trkpt lat="44.83842780381911" lon="3.203212514892687"><ele>1136.8333333333333</ele><time>2026-04-05T07:38:35.999Z</time></trkpt><trkpt lat="44.83843917283747" lon="3.2030961512885217"><ele>1137.0</ele><time>2026-04-05T07:38:36.999Z</time></trkpt><trkpt lat="44.83845703890005" lon="3.202992182041841"><ele>1136.1666666666667</ele><time>2026-04-05T07:38:37.999Z</time></trkpt><trkpt lat="44.838493180169806" lon="3.202874689402599"><ele>1135.3333333333333</ele><time>2026-04-05T07:38:38.999Z</time></trkpt><trkpt lat="44.838529315876116" lon="3.202771657024092"><ele>1134.5</ele><time>2026-04-05T07:38:39.999Z</time></trkpt><trkpt lat="44.838584729360036" lon="3.2026848524208953"><ele>1133.6666666666665</ele><time>2026-04-05T07:38:40.999Z</time></trkpt><trkpt lat="44.838634743353786" lon="3.2025962208881973"><ele>1132.8333333333333</ele><time>2026-04-05T07:38:41.999Z</time></trkpt><trkpt lat="44.838695735442" lon="3.202516416417169"><ele>1132.0</ele><time>2026-04-05T07:38:42.999Z</time></trkpt><trkpt lat="44.838761408921535" lon="3.2024479008230124"><ele>1132.0</ele><time>2026-04-05T07:38:43.999Z</time></trkpt><trkpt lat="44.83883336922196" lon="3.2023785483020295"><ele>1132.0</ele><time>2026-04-05T07:38:44.999Z</time></trkpt><trkpt lat="44.83890541058987" lon="3.202275005444868"><ele>1132.0</ele><time>2026-04-05T07:38:45.999Z</time></trkpt><trkpt lat="44.83900087843837" lon="3.2020980312657086"><ele>1132.0</ele><time>2026-04-05T07:38:46.999Z</time></trkpt><trkpt lat="44.83906635585011" lon="3.2019964516917874"><ele>1132.0</ele><time>2026-04-05T07:38:47.999Z</time></trkpt><trkpt lat="44.83915527328432" lon="3.2020403619819646"><ele>1131.25</ele><time>2026-04-05T07:38:48.999Z</time></trkpt><trkpt lat="44.83924856888514" lon="3.201957344022706"><ele>1130.5</ele><time>2026-04-05T07:38:49.999Z</time></trkpt><trkpt lat="44.83936710641791" lon="3.2018396826981914"><ele>1129.75</ele><time>2026-04-05T07:38:50.999Z</time></trkpt><trkpt lat="44.83947644184528" lon="3.2017327825005544"><ele>1129.0</ele><time>2026-04-05T07:38:51.999Z</time></trkpt><trkpt lat="44.83957490275601" lon="3.2016365490685623"><ele>1129.0</ele><time>2026-04-05T07:38:52.999Z</time></trkpt><trkpt lat="44.83966497658254" lon="3.2015289889069947"><ele>1129.0</ele><time>2026-04-05T07:38:53.999Z</time></trkpt><trkpt lat="44.83975731172626" lon="3.201425961884075"><ele>1129.0</ele><time>2026-04-05T07:38:54.999Z</time></trkpt><trkpt lat="44.83986721121587" lon="3.2013053698880047"><ele>1129.0</ele><time>2026-04-05T07:38:55.999Z</time></trkpt><trkpt lat="44.839986543387205" lon="3.201193717370908"><ele>1127.8</ele><time>2026-04-05T07:38:57Z</time></trkpt><trkpt lat="44.84008638849778" lon="3.2010935836388175"><ele>1126.6000000000001</ele><time>2026-04-05T07:38:58Z</time></trkpt><trkpt lat="44.840169904739284" lon="3.2009943209359943"><ele>1125.4</ele><time>2026-04-05T07:38:59Z</time></trkpt><trkpt lat="44.840217806628495" lon="3.2009137856006893"><ele>1124.2</ele><time>2026-04-05T07:39:00Z</time></trkpt><trkpt lat="44.84026905597429" lon="3.200827978282555"><ele>1123.0</ele><time>2026-04-05T07:39:01Z</time></trkpt><trkpt lat="44.840396610940275" lon="3.2007323035180235"><ele>1123.0</ele><time>2026-04-05T07:39:03Z</time></trkpt><trkpt lat="44.84051344598404" lon="3.2007141420611425"><ele>1123.0</ele><time>2026-04-05T07:39:04Z</time></trkpt><trkpt lat="44.84062893345402" lon="3.2006930342436086"><ele>1123.0</ele><time>2026-04-05T07:39:05Z</time></trkpt><trkpt lat="44.84073804205075" lon="3.2006580849817508"><ele>1123.0</ele><time>2026-04-05T07:39:06Z</time></trkpt><trkpt lat="44.84080543013105" lon="3.200657964168382"><ele>1123.0</ele><time>2026-04-05T07:39:07Z</time></trkpt><trkpt lat="44.84089452574022" lon="3.2006520275228896"><ele>1121.0</ele><time>2026-04-05T07:39:09Z</time></trkpt><trkpt lat="44.840982249017856" lon="3.2006121107384593"><ele>1119.0</ele><time>2026-04-05T07:39:11Z</time></trkpt><trkpt lat="44.84107131153633" lon="3.200589678963086"><ele>1117.0</ele><time>2026-04-05T07:39:13Z</time></trkpt><trkpt lat="44.84117423156539" lon="3.200623608382608"><ele>1115.0</ele><time>2026-04-05T07:39:15Z</time></trkpt><trkpt lat="44.841261682069224" lon="3.2006457503128"><ele>1113.0</ele><time>2026-04-05T07:39:17Z</time></trkpt><trkpt lat="44.84134453956172" lon="3.2006183752564286"><ele>1113.0</ele><time>2026-04-05T07:39:19Z</time></trkpt><trkpt lat="44.84136560313845" lon="3.200497541491027"><ele>1113.0</ele><time>2026-04-05T07:39:22Z</time></trkpt><trkpt lat="44.84138576872417" lon="3.200409621675739"><ele>1113.0</ele><time>2026-04-05T07:39:27Z</time></trkpt><trkpt lat="44.84143617075674" lon="3.2003407756115307"><ele>1113.0</ele><time>2026-04-05T07:39:38Z</time></trkpt><trkpt lat="44.84144591525966" lon="3.2002334977774045"><ele>1113.0</ele><time>2026-04-05T07:39:42Z</time></trkpt><trkpt lat="44.84141087667217" lon="3.2001385675395877"><ele>1113.0</ele><time>2026-04-05T07:39:46Z</time></trkpt><trkpt lat="44.8414219453246" lon="3.19998935326849"><ele>1113.0</ele><time>2026-04-05T07:39:48Z</time></trkpt><trkpt lat="44.84139963164177" lon="3.1999019857916196"><ele>1113.0</ele><time>2026-04-05T07:39:51Z</time></trkpt><trkpt lat="44.84135288066519" lon="3.199792272608752"><ele>1113.0</ele><time>2026-04-05T07:39:54Z</time></trkpt><trkpt lat="44.84129162930469" lon="3.1997544804443763"><ele>1113.0</ele><time>2026-04-05T07:39:55Z</time></trkpt><trkpt lat="44.84122707016636" lon="3.199734427215343"><ele>1113.0</ele><time>2026-04-05T07:39:56Z</time></trkpt><trkpt lat="44.84116196267417" lon="3.1997204675867024"><ele>1113.0</ele><time>2026-04-05T07:39:57Z</time></trkpt><trkpt lat="44.84111878401622" lon="3.199587058517351"><ele>1110.2</ele><time>2026-04-05T07:40:00Z</time></trkpt><trkpt lat="44.84102380562954" lon="3.199530288850192"><ele>1107.4</ele><time>2026-04-05T07:40:02Z</time></trkpt><trkpt lat="44.840942468626956" lon="3.1994388279905834"><ele>1104.6000000000001</ele><time>2026-04-05T07:40:04Z</time></trkpt><trkpt lat="44.84082913846698" lon="3.1994054093701707"><ele>1101.8</ele><time>2026-04-05T07:40:05.999Z</time></trkpt><trkpt lat="44.84079316245425" lon="3.1993042664231797"><ele>1099.0</ele><time>2026-04-05T07:40:06.999Z</time></trkpt><trkpt lat="44.84070060953394" lon="3.199252805516104"><ele>1098.1666666666665</ele><time>2026-04-05T07:40:08.999Z</time></trkpt><trkpt lat="44.84060314061197" lon="3.1992138909279006"><ele>1097.3333333333333</ele><time>2026-04-05T07:40:10.999Z</time></trkpt><trkpt lat="44.84050121696756" lon="3.1992324582470992"><ele>1096.5</ele><time>2026-04-05T07:40:12.999Z</time></trkpt><trkpt lat="44.84044058114451" lon="3.199273188158044"><ele>1095.6666666666667</ele><time>2026-04-05T07:40:13.999Z</time></trkpt><trkpt lat="44.84037779551546" lon="3.1993152005657617"><ele>1094.8333333333335</ele><time>2026-04-05T07:40:14.999Z</time></trkpt><trkpt lat="44.8402973000237" lon="3.199353183263727"><ele>1094.0</ele><time>2026-04-05T07:40:15.999Z</time></trkpt><trkpt lat="44.840201821246325" lon="3.199389517828789"><ele>1092.0</ele><time>2026-04-05T07:40:16.999Z</time></trkpt><trkpt lat="44.84008876523321" lon="3.199421896582295"><ele>1090.0</ele><time>2026-04-05T07:40:17.999Z</time></trkpt><trkpt lat="44.83997323197152" lon="3.199472335289429"><ele>1088.0</ele><time>2026-04-05T07:40:18.999Z</time></trkpt><trkpt lat="44.83984502315645" lon="3.199517947311359"><ele>1086.0</ele><time>2026-04-05T07:40:19.999Z</time></trkpt><trkpt lat="44.839712449858965" lon="3.1995560259376967"><ele>1086.0</ele><time>2026-04-05T07:40:20.999Z</time></trkpt><trkpt lat="44.839577317540844" lon="3.19957077238629"><ele>1086.0</ele><time>2026-04-05T07:40:21.999Z</time></trkpt><trkpt lat="44.83944109053495" lon="3.199599324380347"><ele>1086.0</ele><time>2026-04-05T07:40:22.999Z</time></trkpt><trkpt lat="44.839327500762614" lon="3.1996737891349425"><ele>1086.0</ele><time>2026-04-05T07:40:23.999Z</time></trkpt><trkpt lat="44.839211489699146" lon="3.1997712957325737"><ele>1087.0</ele><time>2026-04-05T07:40:24.999Z</time></trkpt><trkpt lat="44.83909146042797" lon="3.1998752471720966"><ele>1088.0</ele><time>2026-04-05T07:40:25.999Z</time></trkpt><trkpt lat="44.83897491997731" lon="3.199984848487681"><ele>1089.0</ele><time>2026-04-05T07:40:26.999Z</time></trkpt><trkpt lat="44.83886762590886" lon="3.2001020275444283"><ele>1090.0</ele><time>2026-04-05T07:40:27.999Z</time></trkpt><trkpt lat="44.838775395835015" lon="3.2002206222451024"><ele>1090.0</ele><time>2026-04-05T07:40:28.999Z</time></trkpt><trkpt lat="44.83870935246105" lon="3.2003377992392883"><ele>1090.0</ele><time>2026-04-05T07:40:29.999Z</time></trkpt><trkpt lat="44.838662053642615" lon="3.2004188319125677"><ele>1090.0</ele><time>2026-04-05T07:40:30.999Z</time></trkpt><trkpt lat="44.83861421616631" lon="3.2004804161028244"><ele>1090.0</ele><time>2026-04-05T07:40:31.999Z</time></trkpt><trkpt lat="44.83854237693649" lon="3.200551281893885"><ele>1090.0</ele><time>2026-04-05T07:40:33.999Z</time></trkpt><trkpt lat="44.83847507952782" lon="3.2006259512256023"><ele>1090.0</ele><time>2026-04-05T07:40:35.999Z</time></trkpt><trkpt lat="44.83841430879566" lon="3.2007004405857047"><ele>1090.0</ele><time>2026-04-05T07:40:40.999Z</time></trkpt><trkpt lat="44.838365063707926" lon="3.2007579996841997"><ele>1090.0</ele><time>2026-04-05T07:40:42.999Z</time></trkpt><trkpt lat="44.83844177519752" lon="3.2007217828157795"><ele>1090.0</ele><time>2026-04-05T07:40:46.999Z</time></trkpt><trkpt lat="44.83849922374645" lon="3.200595824416307"><ele>1090.0</ele><time>2026-04-05T07:40:48.999Z</time></trkpt><trkpt lat="44.838562180694296" lon="3.200528612488761"><ele>1090.0</ele><time>2026-04-05T07:40:50.999Z</time></trkpt><trkpt lat="44.83866434451703" lon="3.2003760711546736"><ele>1090.0</ele><time>2026-04-05T07:40:52.999Z</time></trkpt><trkpt lat="44.83874626128703" lon="3.2002619363248472"><ele>1090.0</ele><time>2026-04-05T07:40:53.999Z</time></trkpt><trkpt lat="44.83884089387058" lon="3.200143066241975"><ele>1090.0</ele><time>2026-04-05T07:40:54.999Z</time></trkpt><trkpt lat="44.83893862675193" lon="3.2000147834885064"><ele>1090.0</ele><time>2026-04-05T07:40:55.999Z</time></trkpt><trkpt lat="44.83904571909953" lon="3.1998976845756295"><ele>1089.2</ele><time>2026-04-05T07:40:56.999Z</time></trkpt><trkpt lat="44.83914514075824" lon="3.199804076184991"><ele>1088.4</ele><time>2026-04-05T07:40:57.999Z</time></trkpt><trkpt lat="44.839225637613616" lon="3.1997379542625217"><ele>1087.6</ele><time>2026-04-05T07:40:58.999Z</time></trkpt><trkpt lat="44.83928809045456" lon="3.199679274212206"><ele>1086.8</ele><time>2026-04-05T07:40:59.999Z</time></trkpt><trkpt lat="44.83935200462693" lon="3.199641858203618"><ele>1086.0</ele><time>2026-04-05T07:41:00.999Z</time></trkpt><trkpt lat="44.839433189963856" lon="3.199574132553219"><ele>1086.0</ele><time>2026-04-05T07:41:03Z</time></trkpt><trkpt lat="44.839504857699666" lon="3.1995777888458408"><ele>1086.0</ele><time>2026-04-05T07:41:05Z</time></trkpt><trkpt lat="44.83959600015942" lon="3.199916777271826"><ele>1086.0</ele><time>2026-04-05T07:41:09Z</time></trkpt><trkpt lat="44.83963098330614" lon="3.1999989467146346"><ele>1086.0</ele><time>2026-04-05T07:41:10Z</time></trkpt><trkpt lat="44.83966762600194" lon="3.2000795093353505"><ele>1088.5</ele><time>2026-04-05T07:41:11Z</time></trkpt><trkpt lat="44.83972762162256" lon="3.200111627694078"><ele>1091.0</ele><time>2026-04-05T07:41:12Z</time></trkpt><trkpt lat="44.839771326232444" lon="3.2001944385512604"><ele>1093.5</ele><time>2026-04-05T07:41:14Z</time></trkpt><trkpt lat="44.839746875507416" lon="3.200287587846936"><ele>1096.0</ele><time>2026-04-05T07:41:16Z</time></trkpt><trkpt lat="44.83975402071923" lon="3.200412368934895"><ele>1098.5</ele><time>2026-04-05T07:41:18Z</time></trkpt><trkpt lat="44.83982458679127" lon="3.2004814569330162"><ele>1101.0</ele><time>2026-04-05T07:41:21Z</time></trkpt><trkpt lat="44.83991176001421" lon="3.20054062427741"><ele>1101.0</ele><time>2026-04-05T07:41:23Z</time></trkpt><trkpt lat="44.84000434170402" lon="3.200596136925423"><ele>1101.0</ele><time>2026-04-05T07:41:25Z</time></trkpt><trkpt lat="44.840091070212765" lon="3.2006340755819003"><ele>1101.0</ele><time>2026-04-05T07:41:27Z</time></trkpt><trkpt lat="44.840148992939675" lon="3.200677643145064"><ele>1101.0</ele><time>2026-04-05T07:41:28Z</time></trkpt><trkpt lat="44.840216169692305" lon="3.2006864111816973"><ele>1101.0</ele><time>2026-04-05T07:41:30Z</time></trkpt><trkpt lat="44.84035251684607" lon="3.2006224136499464"><ele>1102.6</ele><time>2026-04-05T07:41:32Z</time></trkpt><trkpt lat="44.84045537506703" lon="3.20059263623134"><ele>1104.1999999999998</ele><time>2026-04-05T07:41:33Z</time></trkpt><trkpt lat="44.840570237340174" lon="3.2005715954994933"><ele>1105.8000000000002</ele><time>2026-04-05T07:41:34Z</time></trkpt><trkpt lat="44.840668148511874" lon="3.200547462730677"><ele>1107.4</ele><time>2026-04-05T07:41:35Z</time></trkpt><trkpt lat="44.84076270302664" lon="3.2005678496613164"><ele>1109.0</ele><time>2026-04-05T07:41:36Z</time></trkpt><trkpt lat="44.84086068349291" lon="3.20057305315293"><ele>1109.6666666666667</ele><time>2026-04-05T07:41:37Z</time></trkpt><trkpt lat="44.840979628771336" lon="3.2005572578259143"><ele>1110.3333333333335</ele><time>2026-04-05T07:41:38Z</time></trkpt><trkpt lat="44.84106697063932" lon="3.2005256562583617"><ele>1111.0</ele><time>2026-04-05T07:41:39Z</time></trkpt><trkpt lat="44.841146444636735" lon="3.2005195012211023"><ele>1111.6666666666667</ele><time>2026-04-05T07:41:40Z</time></trkpt><trkpt lat="44.841219201206776" lon="3.2005416365740618"><ele>1112.3333333333333</ele><time>2026-04-05T07:41:41Z</time></trkpt><trkpt lat="44.841288228280355" lon="3.2005841996205966"><ele>1113.0</ele><time>2026-04-05T07:41:42Z</time></trkpt><trkpt lat="44.841376878830665" lon="3.2005888063125276"><ele>1113.0</ele><time>2026-04-05T07:41:43Z</time></trkpt><trkpt lat="44.84147264456913" lon="3.200604458946475"><ele>1113.0</ele><time>2026-04-05T07:41:44Z</time></trkpt><trkpt lat="44.84153866240214" lon="3.2006431510463202"><ele>1113.0</ele><time>2026-04-05T07:41:45Z</time></trkpt><trkpt lat="44.84161432104769" lon="3.200690616515502"><ele>1113.0</ele><time>2026-04-05T07:41:46Z</time></trkpt><trkpt lat="44.8416993206638" lon="3.200701490336161"><ele>1113.0</ele><time>2026-04-05T07:41:47Z</time></trkpt><trkpt lat="44.84180277134883" lon="3.2007016657496403"><ele>1113.0</ele><time>2026-04-05T07:41:48Z</time></trkpt><trkpt lat="44.84191682365806" lon="3.200676990756296"><ele>1114.4</ele><time>2026-04-05T07:41:49Z</time></trkpt><trkpt lat="44.84202869800595" lon="3.2006746065388763"><ele>1115.8</ele><time>2026-04-05T07:41:50Z</time></trkpt><trkpt lat="44.84215376085516" lon="3.200695129029657"><ele>1117.2</ele><time>2026-04-05T07:41:51Z</time></trkpt><trkpt lat="44.8422533549258" lon="3.2007092160975605"><ele>1118.6</ele><time>2026-04-05T07:41:52Z</time></trkpt><trkpt lat="44.84233810777053" lon="3.20072163191568"><ele>1120.0</ele><time>2026-04-05T07:41:53Z</time></trkpt><trkpt lat="44.84239849807068" lon="3.200750512976572"><ele>1120.0</ele><time>2026-04-05T07:41:54Z</time></trkpt><trkpt lat="44.842453457835646" lon="3.200812469570973"><ele>1120.0</ele><time>2026-04-05T07:41:55Z</time></trkpt><trkpt lat="44.84250992144533" lon="3.2008567836525366"><ele>1120.0</ele><time>2026-04-05T07:41:56Z</time></trkpt><trkpt lat="44.84255842316947" lon="3.2010097740767334"><ele>1120.0</ele><time>2026-04-05T07:41:57Z</time></trkpt><trkpt lat="44.842629640782015" lon="3.201097641347444"><ele>1120.0</ele><time>2026-04-05T07:41:58Z</time></trkpt><trkpt lat="44.84269930385517" lon="3.201211455219614"><ele>1119.4</ele><time>2026-04-05T07:41:59Z</time></trkpt><trkpt lat="44.842762936894495" lon="3.201352850017794"><ele>1118.8</ele><time>2026-04-05T07:42:00Z</time></trkpt><trkpt lat="44.842824110940256" lon="3.20148560019232"><ele>1118.2</ele><time>2026-04-05T07:42:01Z</time></trkpt><trkpt lat="44.842881973000516" lon="3.2016016579971662"><ele>1117.6</ele><time>2026-04-05T07:42:02Z</time></trkpt><trkpt lat="44.842949082290815" lon="3.2017130583015683"><ele>1117.0</ele><time>2026-04-05T07:42:03Z</time></trkpt><trkpt lat="44.84301101558657" lon="3.2018189657554528"><ele>1117.0</ele><time>2026-04-05T07:42:03.999Z</time></trkpt><trkpt lat="44.84307084781783" lon="3.2019415213597644"><ele>1117.0</ele><time>2026-04-05T07:42:04.999Z</time></trkpt><trkpt lat="44.84313409842558" lon="3.2020635384546905"><ele>1117.0</ele><time>2026-04-05T07:42:05.999Z</time></trkpt><trkpt lat="44.843174078514664" lon="3.2021972112756756"><ele>1117.0</ele><time>2026-04-05T07:42:06.999Z</time></trkpt><trkpt lat="44.84321966339417" lon="3.202329279511809"><ele>1117.0</ele><time>2026-04-05T07:42:07.999Z</time></trkpt><trkpt lat="44.843265645247214" lon="3.202466820502804"><ele>1118.2</ele><time>2026-04-05T07:42:08.999Z</time></trkpt><trkpt lat="44.84330717770851" lon="3.2026066918180347"><ele>1119.4</ele><time>2026-04-05T07:42:09.999Z</time></trkpt><trkpt lat="44.84333782552226" lon="3.2027520443911612"><ele>1120.6</ele><time>2026-04-05T07:42:10.999Z</time></trkpt><trkpt lat="44.8433689369655" lon="3.2028945485957756"><ele>1121.8</ele><time>2026-04-05T07:42:11.999Z</time></trkpt><trkpt lat="44.84340710877024" lon="3.203019523743893"><ele>1123.0</ele><time>2026-04-05T07:42:12.999Z</time></trkpt><trkpt lat="44.84344881652805" lon="3.2031248791250877"><ele>1121.8</ele><time>2026-04-05T07:42:13.999Z</time></trkpt><trkpt lat="44.84349970826948" lon="3.2032345802355624"><ele>1120.6</ele><time>2026-04-05T07:42:14.999Z</time></trkpt><trkpt lat="44.84353727148746" lon="3.203323151587081"><ele>1119.4</ele><time>2026-04-05T07:42:15.999Z</time></trkpt><trkpt lat="44.8435866943596" lon="3.203431997195114"><ele>1118.2</ele><time>2026-04-05T07:42:16.999Z</time></trkpt><trkpt lat="44.84364779730377" lon="3.2035599618553414"><ele>1117.0</ele><time>2026-04-05T07:42:17.999Z</time></trkpt><trkpt lat="44.84370301617314" lon="3.2036951619293608"><ele>1117.0</ele><time>2026-04-05T07:42:18.999Z</time></trkpt><trkpt lat="44.84374921458534" lon="3.2038318736231632"><ele>1117.0</ele><time>2026-04-05T07:42:19.999Z</time></trkpt><trkpt lat="44.84379906908303" lon="3.203971355608211"><ele>1117.0</ele><time>2026-04-05T07:42:20.999Z</time></trkpt><trkpt lat="44.843870330182234" lon="3.204088009367746"><ele>1117.0</ele><time>2026-04-05T07:42:21.999Z</time></trkpt><trkpt lat="44.84396554713915" lon="3.204198232140286"><ele>1117.8</ele><time>2026-04-05T07:42:22.999Z</time></trkpt><trkpt lat="44.844056071155215" lon="3.2042826587871276"><ele>1118.6</ele><time>2026-04-05T07:42:23.999Z</time></trkpt><trkpt lat="44.84412865910547" lon="3.2043565897059745"><ele>1119.3999999999999</ele><time>2026-04-05T07:42:24.999Z</time></trkpt><trkpt lat="44.84417778256563" lon="3.2044175809912834"><ele>1120.2</ele><time>2026-04-05T07:42:25.999Z</time></trkpt><trkpt lat="44.844225714280554" lon="3.2044976963511114"><ele>1121.0</ele><time>2026-04-05T07:42:26.999Z</time></trkpt><trkpt lat="44.84431175601878" lon="3.2046609555335266"><ele>1121.0</ele><time>2026-04-05T07:42:28.999Z</time></trkpt><trkpt lat="44.84437489722021" lon="3.204750760482268"><ele>1121.0</ele><time>2026-04-05T07:42:29.999Z</time></trkpt><trkpt lat="44.84443789458632" lon="3.204828461944532"><ele>1121.0</ele><time>2026-04-05T07:42:30.999Z</time></trkpt><trkpt lat="44.844494474788206" lon="3.204894382761739"><ele>1121.0</ele><time>2026-04-05T07:42:31.999Z</time></trkpt><trkpt lat="44.844551289441455" lon="3.2050203659006637"><ele>1121.0</ele><time>2026-04-05T07:42:33.999Z</time></trkpt><trkpt lat="44.84456734315331" lon="3.2051203024931447"><ele>1121.0</ele><time>2026-04-05T07:42:35.999Z</time></trkpt><trkpt lat="44.844618412076144" lon="3.2052212245873974"><ele>1121.0</ele><time>2026-04-05T07:42:38.999Z</time></trkpt><trkpt lat="44.8446961028314" lon="3.205211113814988"><ele>1121.0</ele><time>2026-04-05T07:42:41.999Z</time></trkpt><trkpt lat="44.84476706327491" lon="3.20504794157136"><ele>1121.0</ele><time>2026-04-05T07:42:43.999Z</time></trkpt><trkpt lat="44.84481402025007" lon="3.2049408563057655"><ele>1121.0</ele><time>2026-04-05T07:42:44.999Z</time></trkpt><trkpt lat="44.84487704144477" lon="3.204813153205344"><ele>1121.0</ele><time>2026-04-05T07:42:45.999Z</time></trkpt><trkpt lat="44.84494947124598" lon="3.204663633876382"><ele>1121.0</ele><time>2026-04-05T07:42:46.999Z</time></trkpt><trkpt lat="44.84503017980888" lon="3.2044855249242197"><ele>1121.0</ele><time>2026-04-05T07:42:47.999Z</time></trkpt><trkpt lat="44.84509628330344" lon="3.2043430091242304"><ele>1121.0</ele><time>2026-04-05T07:42:48.999Z</time></trkpt><trkpt lat="44.84515048833345" lon="3.20423422808252"><ele>1121.0</ele><time>2026-04-05T07:42:49.999Z</time></trkpt><trkpt lat="44.8451977959276" lon="3.2041425356685607"><ele>1121.0</ele><time>2026-04-05T07:42:50.999Z</time></trkpt><trkpt lat="44.845256357522636" lon="3.2040473854865725"><ele>1121.2</ele><time>2026-04-05T07:42:51.999Z</time></trkpt><trkpt lat="44.845334907993454" lon="3.2039615022859835"><ele>1121.3999999999999</ele><time>2026-04-05T07:42:52.999Z</time></trkpt><trkpt lat="44.84540674083335" lon="3.2039095885866367"><ele>1121.6</ele><time>2026-04-05T07:42:53.999Z</time></trkpt><trkpt lat="44.84550168754742" lon="3.203998408592945"><ele>1121.8</ele><time>2026-04-05T07:42:54.999Z</time></trkpt><trkpt lat="44.845590297577154" lon="3.2040448233142165"><ele>1122.0</ele><time>2026-04-05T07:42:55.999Z</time></trkpt><trkpt lat="44.84570235703871" lon="3.204114768960228"><ele>1122.0</ele><time>2026-04-05T07:42:56.999Z</time></trkpt><trkpt lat="44.84584852887953" lon="3.2041478335482707"><ele>1122.0</ele><time>2026-04-05T07:42:57.999Z</time></trkpt><trkpt lat="44.84599116948136" lon="3.2041665993347914"><ele>1122.0</ele><time>2026-04-05T07:42:58.999Z</time></trkpt><trkpt lat="44.84613950201658" lon="3.204204519856732"><ele>1122.0</ele><time>2026-04-05T07:42:59.999Z</time></trkpt><trkpt lat="44.846256282719146" lon="3.204216314340661"><ele>1124.0</ele><time>2026-04-05T07:43:00.999Z</time></trkpt><trkpt lat="44.84636924323688" lon="3.2042109509656944"><ele>1126.0</ele><time>2026-04-05T07:43:01.999Z</time></trkpt><trkpt lat="44.84647918484694" lon="3.2041687771686553"><ele>1128.0</ele><time>2026-04-05T07:43:02.999Z</time></trkpt><trkpt lat="44.84659770580204" lon="3.204098969659611"><ele>1130.0</ele><time>2026-04-05T07:43:03.999Z</time></trkpt><trkpt lat="44.84671456605854" lon="3.2040272885316394"><ele>1130.6666666666667</ele><time>2026-04-05T07:43:04.999Z</time></trkpt><trkpt lat="44.84685216989019" lon="3.2040077025483313"><ele>1131.3333333333333</ele><time>2026-04-05T07:43:05.999Z</time></trkpt><trkpt lat="44.84701226964129" lon="3.203951717832603"><ele>1132.0</ele><time>2026-04-05T07:43:06.999Z</time></trkpt><trkpt lat="44.847182534255765" lon="3.203883104861785"><ele>1132.0</ele><time>2026-04-05T07:43:07.999Z</time></trkpt><trkpt lat="44.84734779910975" lon="3.2037898480874714"><ele>1132.0</ele><time>2026-04-05T07:43:09Z</time></trkpt><trkpt lat="44.84752932294343" lon="3.203692952347831"><ele>1132.0</ele><time>2026-04-05T07:43:10Z</time></trkpt><trkpt lat="44.84771044708306" lon="3.203601069597637"><ele>1132.75</ele><time>2026-04-05T07:43:11Z</time></trkpt><trkpt lat="44.84784497840084" lon="3.203531724488819"><ele>1133.5</ele><time>2026-04-05T07:43:12Z</time></trkpt><trkpt lat="44.847956350719805" lon="3.2034861377258306"><ele>1134.25</ele><time>2026-04-05T07:43:13Z</time></trkpt><trkpt lat="44.84805923807987" lon="3.203448431438148"><ele>1135.0</ele><time>2026-04-05T07:43:14Z</time></trkpt><trkpt lat="44.84815245911757" lon="3.2034087972915986"><ele>1135.0</ele><time>2026-04-05T07:43:15Z</time></trkpt><trkpt lat="44.84824631745381" lon="3.203362116713996"><ele>1135.0</ele><time>2026-04-05T07:43:16Z</time></trkpt><trkpt lat="44.848333972619905" lon="3.203327608306721"><ele>1135.0</ele><time>2026-04-05T07:43:17Z</time></trkpt><trkpt lat="44.84842468858132" lon="3.203292781036809"><ele>1135.0</ele><time>2026-04-05T07:43:18Z</time></trkpt><trkpt lat="44.84850483348436" lon="3.203267624993885"><ele>1135.0</ele><time>2026-04-05T07:43:19Z</time></trkpt><trkpt lat="44.848584651098164" lon="3.203248604252556"><ele>1135.0</ele><time>2026-04-05T07:43:20Z</time></trkpt><trkpt lat="44.84867783880588" lon="3.203220344529866"><ele>1135.3333333333333</ele><time>2026-04-05T07:43:21Z</time></trkpt><trkpt lat="44.84877078685761" lon="3.2031691178359325"><ele>1135.6666666666665</ele><time>2026-04-05T07:43:22Z</time></trkpt><trkpt lat="44.84884296442951" lon="3.2030978188722776"><ele>1136.0</ele><time>2026-04-05T07:43:23Z</time></trkpt><trkpt lat="44.848926515154915" lon="3.2030438598685773"><ele>1136.3333333333333</ele><time>2026-04-05T07:43:24Z</time></trkpt><trkpt lat="44.84900343810533" lon="3.203008630077901"><ele>1136.6666666666667</ele><time>2026-04-05T07:43:25Z</time></trkpt><trkpt lat="44.84908157605611" lon="3.2029615163644434"><ele>1137.0</ele><time>2026-04-05T07:43:26Z</time></trkpt><trkpt lat="44.84916876070357" lon="3.2029253399616757"><ele>1137.5</ele><time>2026-04-05T07:43:27Z</time></trkpt><trkpt lat="44.849254399787576" lon="3.202903865879069"><ele>1138.0</ele><time>2026-04-05T07:43:28Z</time></trkpt><trkpt lat="44.84932080533725" lon="3.2028759572593892"><ele>1138.5</ele><time>2026-04-05T07:43:29Z</time></trkpt><trkpt lat="44.849387032521236" lon="3.202824957723915"><ele>1139.0</ele><time>2026-04-05T07:43:30Z</time></trkpt><trkpt lat="44.84946315356189" lon="3.2027674055397073"><ele>1139.5</ele><time>2026-04-05T07:43:31Z</time></trkpt><trkpt lat="44.84952507285456" lon="3.202713466233231"><ele>1140.0</ele><time>2026-04-05T07:43:32Z</time></trkpt><trkpt lat="44.84957736586868" lon="3.2025921716708234"><ele>1140.0</ele><time>2026-04-05T07:43:34Z</time></trkpt><trkpt lat="44.849550486253065" lon="3.202492624671279"><ele>1140.0</ele><time>2026-04-05T07:43:35Z</time></trkpt><trkpt lat="44.84950564139252" lon="3.2023880019482744"><ele>1140.0</ele><time>2026-04-05T07:43:36Z</time></trkpt><trkpt lat="44.849464124249614" lon="3.2022889380483734"><ele>1140.0</ele><time>2026-04-05T07:43:37Z</time></trkpt><trkpt lat="44.84945118714922" lon="3.2021611095923452"><ele>1140.0</ele><time>2026-04-05T07:43:38Z</time></trkpt><trkpt lat="44.84943619715833" lon="3.2020248334680415"><ele>1140.0</ele><time>2026-04-05T07:43:39Z</time></trkpt><trkpt lat="44.849418624036275" lon="3.201904220265451"><ele>1140.8</ele><time>2026-04-05T07:43:40Z</time></trkpt><trkpt lat="44.84939919515162" lon="3.2017620353846046"><ele>1141.6</ele><time>2026-04-05T07:43:41Z</time></trkpt><trkpt lat="44.84936843000182" lon="3.2016721927652907"><ele>1142.4</ele><time>2026-04-05T07:43:42Z</time></trkpt><trkpt lat="44.84929666698201" lon="3.2015776048571225"><ele>1143.2</ele><time>2026-04-05T07:43:43Z</time></trkpt><trkpt lat="44.849212725247135" lon="3.2014583717459937"><ele>1144.0</ele><time>2026-04-05T07:43:44Z</time></trkpt><trkpt lat="44.8491383259152" lon="3.201307013118261"><ele>1144.2</ele><time>2026-04-05T07:43:45Z</time></trkpt><trkpt lat="44.849083595290416" lon="3.201173870146242"><ele>1144.4</ele><time>2026-04-05T07:43:46Z</time></trkpt><trkpt lat="44.84905344440159" lon="3.2010862462580305"><ele>1144.6</ele><time>2026-04-05T07:43:47Z</time></trkpt><trkpt lat="44.84904391835079" lon="3.2009929599405083"><ele>1144.8</ele><time>2026-04-05T07:43:48Z</time></trkpt><trkpt lat="44.84904661167906" lon="3.200849432466395"><ele>1145.0</ele><time>2026-04-05T07:43:49Z</time></trkpt><trkpt lat="44.84904866906351" lon="3.20065633350978"><ele>1144.0</ele><time>2026-04-05T07:43:50Z</time></trkpt><trkpt lat="44.84906311129361" lon="3.200502975344872"><ele>1143.0</ele><time>2026-04-05T07:43:51Z</time></trkpt><trkpt lat="44.84906249153252" lon="3.200353965997597"><ele>1142.0</ele><time>2026-04-05T07:43:52Z</time></trkpt><trkpt lat="44.84903857999246" lon="3.200163809255359"><ele>1141.0</ele><time>2026-04-05T07:43:53Z</time></trkpt><trkpt lat="44.849022472869834" lon="3.2000047840613717"><ele>1141.0</ele><time>2026-04-05T07:43:54Z</time></trkpt><trkpt lat="44.84904393130395" lon="3.199882995541832"><ele>1141.0</ele><time>2026-04-05T07:43:55Z</time></trkpt><trkpt lat="44.849087411530185" lon="3.199753202274563"><ele>1141.0</ele><time>2026-04-05T07:43:56Z</time></trkpt><trkpt lat="44.849149394213796" lon="3.1996176641159626"><ele>1141.0</ele><time>2026-04-05T07:43:57Z</time></trkpt><trkpt lat="44.84919701606976" lon="3.1995224157563147"><ele>1141.0</ele><time>2026-04-05T07:43:58Z</time></trkpt><trkpt lat="44.84928873131511" lon="3.1994835655961467"><ele>1140.6</ele><time>2026-04-05T07:44:00Z</time></trkpt><trkpt lat="44.849368657321484" lon="3.199527824359183"><ele>1140.1999999999998</ele><time>2026-04-05T07:44:01Z</time></trkpt><trkpt lat="44.849446164869065" lon="3.199592987857641"><ele>1139.8000000000002</ele><time>2026-04-05T07:44:02Z</time></trkpt><trkpt lat="44.84956779658325" lon="3.1996237109236225"><ele>1139.4</ele><time>2026-04-05T07:44:03Z</time></trkpt><trkpt lat="44.84968694032951" lon="3.1996625949904947"><ele>1139.0</ele><time>2026-04-05T07:44:04Z</time></trkpt><trkpt lat="44.84981917681526" lon="3.1997128158520503"><ele>1139.0</ele><time>2026-04-05T07:44:05Z</time></trkpt><trkpt lat="44.84990762160955" lon="3.199733714632156"><ele>1139.0</ele><time>2026-04-05T07:44:06Z</time></trkpt><trkpt lat="44.8500045194184" lon="3.1997152297324782"><ele>1139.0</ele><time>2026-04-05T07:44:07Z</time></trkpt><trkpt lat="44.85007612572884" lon="3.199675048617995"><ele>1139.0</ele><time>2026-04-05T07:44:08Z</time></trkpt><trkpt lat="44.85011642721582" lon="3.1995915612345045"><ele>1139.0</ele><time>2026-04-05T07:44:09Z</time></trkpt><trkpt lat="44.85015357097036" lon="3.199434945869938"><ele>1139.75</ele><time>2026-04-05T07:44:09.999Z</time></trkpt><trkpt lat="44.85018917956984" lon="3.1992706649033558"><ele>1140.5</ele><time>2026-04-05T07:44:10.999Z</time></trkpt><trkpt lat="44.85022875472153" lon="3.1991213164545464"><ele>1141.25</ele><time>2026-04-05T07:44:11.999Z</time></trkpt><trkpt lat="44.85026504766297" lon="3.1989676026884983"><ele>1142.0</ele><time>2026-04-05T07:44:12.999Z</time></trkpt><trkpt lat="44.8502883444004" lon="3.19881129681658"><ele>1142.6</ele><time>2026-04-05T07:44:13.999Z</time></trkpt><trkpt lat="44.85031697042969" lon="3.1986707723964525"><ele>1143.2</ele><time>2026-04-05T07:44:14.999Z</time></trkpt><trkpt lat="44.8503524907095" lon="3.198526297674443"><ele>1143.8</ele><time>2026-04-05T07:44:15.999Z</time></trkpt><trkpt lat="44.85038611310335" lon="3.1983787307585003"><ele>1144.4</ele><time>2026-04-05T07:44:16.999Z</time></trkpt><trkpt lat="44.850411472904284" lon="3.1982430650578864"><ele>1145.0</ele><time>2026-04-05T07:44:17.999Z</time></trkpt><trkpt lat="44.85044107255534" lon="3.1981000222575293"><ele>1145.1666666666667</ele><time>2026-04-05T07:44:19.999Z</time></trkpt><trkpt lat="44.850502018786734" lon="3.19802759933911"><ele>1145.3333333333335</ele><time>2026-04-05T07:44:21.999Z</time></trkpt><trkpt lat="44.85047710047884" lon="3.197906745007558"><ele>1145.5</ele><time>2026-04-05T07:44:34.999Z</time></trkpt><trkpt lat="44.85040135163854" lon="3.1977818929758257"><ele>1145.6666666666667</ele><time>2026-04-05T07:44:36.999Z</time></trkpt><trkpt lat="44.85034812948304" lon="3.1977066542451964"><ele>1145.8333333333333</ele><time>2026-04-05T07:44:37.999Z</time></trkpt><trkpt lat="44.85029397703786" lon="3.1976294208474116"><ele>1146.0</ele><time>2026-04-05T07:44:38.999Z</time></trkpt><trkpt lat="44.85024382783324" lon="3.1975496018683147"><ele>1146.0</ele><time>2026-04-05T07:44:39.999Z</time></trkpt><trkpt lat="44.85018899129711" lon="3.1974609836521455"><ele>1146.0</ele><time>2026-04-05T07:44:40.999Z</time></trkpt><trkpt lat="44.85012917089431" lon="3.1973490359784833"><ele>1146.0</ele><time>2026-04-05T07:44:41.999Z</time></trkpt><trkpt lat="44.850069434588114" lon="3.1972463081467613"><ele>1146.0</ele><time>2026-04-05T07:44:42.999Z</time></trkpt><trkpt lat="44.84999804832813" lon="3.1971650253779513"><ele>1146.0</ele><time>2026-04-05T07:44:43.999Z</time></trkpt><trkpt lat="44.84992295968372" lon="3.197062690564577"><ele>1145.1666666666667</ele><time>2026-04-05T07:44:44.999Z</time></trkpt><trkpt lat="44.849877220286174" lon="3.1969695748752356"><ele>1144.3333333333333</ele><time>2026-04-05T07:44:45.999Z</time></trkpt><trkpt lat="44.84984362875945" lon="3.1968563935048437"><ele>1143.5</ele><time>2026-04-05T07:44:46.999Z</time></trkpt><trkpt lat="44.84983505615436" lon="3.196742812427459"><ele>1142.6666666666665</ele><time>2026-04-05T07:44:47.999Z</time></trkpt><trkpt lat="44.8498409749305" lon="3.1966191975179608"><ele>1141.8333333333333</ele><time>2026-04-05T07:44:48.999Z</time></trkpt><trkpt lat="44.84986906076978" lon="3.1964793559963107"><ele>1141.0</ele><time>2026-04-05T07:44:49.999Z</time></trkpt><trkpt lat="44.849890777921466" lon="3.1963428080779885"><ele>1143.0</ele><time>2026-04-05T07:44:50.999Z</time></trkpt><trkpt lat="44.84992062769931" lon="3.196204028072617"><ele>1145.0</ele><time>2026-04-05T07:44:51.999Z</time></trkpt><trkpt lat="44.849945826099244" lon="3.196095204437599"><ele>1147.0</ele><time>2026-04-05T07:44:52.999Z</time></trkpt><trkpt lat="44.84996729426219" lon="3.1959669807202817"><ele>1149.0</ele><time>2026-04-05T07:44:53.999Z</time></trkpt><trkpt lat="44.85000234123574" lon="3.1958307102418693"><ele>1151.0</ele><time>2026-04-05T07:44:54.999Z</time></trkpt><trkpt lat="44.850028118028355" lon="3.19569498782278"><ele>1151.1666666666667</ele><time>2026-04-05T07:44:55.999Z</time></trkpt><trkpt lat="44.85005725612259" lon="3.195569227739491"><ele>1151.3333333333335</ele><time>2026-04-05T07:44:56.999Z</time></trkpt><trkpt lat="44.850076097867834" lon="3.1954571196389496"><ele>1151.5</ele><time>2026-04-05T07:44:57.999Z</time></trkpt><trkpt lat="44.85009680882064" lon="3.195338376216041"><ele>1151.6666666666667</ele><time>2026-04-05T07:44:58.999Z</time></trkpt><trkpt lat="44.850113011151386" lon="3.195220323175941"><ele>1151.8333333333333</ele><time>2026-04-05T07:44:59.999Z</time></trkpt><trkpt lat="44.8501246321234" lon="3.1951271420121796"><ele>1152.0</ele><time>2026-04-05T07:45:00.999Z</time></trkpt><trkpt lat="44.85019213238585" lon="3.19506434145625"><ele>1153.75</ele><time>2026-04-05T07:45:02.999Z</time></trkpt><trkpt lat="44.85027054644739" lon="3.195145990764119"><ele>1155.5</ele><time>2026-04-05T07:45:04.999Z</time></trkpt><trkpt lat="44.850321742689786" lon="3.195265891285657"><ele>1157.25</ele><time>2026-04-05T07:45:05.999Z</time></trkpt><trkpt lat="44.85038510908035" lon="3.1954161338499945"><ele>1159.0</ele><time>2026-04-05T07:45:06.999Z</time></trkpt><trkpt lat="44.85044876644999" lon="3.1955773915515584"><ele>1159.0</ele><time>2026-04-05T07:45:07.999Z</time></trkpt><trkpt lat="44.85051187022725" lon="3.1957142437636747"><ele>1159.0</ele><time>2026-04-05T07:45:08.999Z</time></trkpt><trkpt lat="44.850569552433825" lon="3.195833357335818"><ele>1159.0</ele><time>2026-04-05T07:45:09.999Z</time></trkpt><trkpt lat="44.85063886305702" lon="3.195961049768579"><ele>1159.0</ele><time>2026-04-05T07:45:10.999Z</time></trkpt><trkpt lat="44.850709708197336" lon="3.1960854199249003"><ele>1159.0</ele><time>2026-04-05T07:45:11.999Z</time></trkpt><trkpt lat="44.850782993061415" lon="3.196204365277792"><ele>1159.0</ele><time>2026-04-05T07:45:12.999Z</time></trkpt><trkpt lat="44.85086356840638" lon="3.196325023824939"><ele>1159.0</ele><time>2026-04-05T07:45:13.999Z</time></trkpt><trkpt lat="44.85095064626692" lon="3.196457643540897"><ele>1159.0</ele><time>2026-04-05T07:45:15Z</time></trkpt><trkpt lat="44.85104058194451" lon="3.1965868845893364"><ele>1159.0</ele><time>2026-04-05T07:45:16Z</time></trkpt><trkpt lat="44.85112542851417" lon="3.1967054261421133"><ele>1159.25</ele><time>2026-04-05T07:45:17Z</time></trkpt><trkpt lat="44.851213557843614" lon="3.1968296912948015"><ele>1159.5</ele><time>2026-04-05T07:45:18Z</time></trkpt><trkpt lat="44.851296906509965" lon="3.196967982777164"><ele>1159.75</ele><time>2026-04-05T07:45:19Z</time></trkpt><trkpt lat="44.85136946524984" lon="3.197078456197268"><ele>1160.0</ele><time>2026-04-05T07:45:20Z</time></trkpt><trkpt lat="44.85145430542633" lon="3.1971919847309502"><ele>1160.0</ele><time>2026-04-05T07:45:21Z</time></trkpt><trkpt lat="44.85152446318331" lon="3.1973086784802174"><ele>1160.0</ele><time>2026-04-05T07:45:22Z</time></trkpt><trkpt lat="44.851593949034864" lon="3.197417822098095"><ele>1160.0</ele><time>2026-04-05T07:45:23Z</time></trkpt><trkpt lat="44.851669207852034" lon="3.197521028220474"><ele>1160.0</ele><time>2026-04-05T07:45:24Z</time></trkpt><trkpt lat="44.85174629477539" lon="3.1976314391768996"><ele>1160.0</ele><time>2026-04-05T07:45:25Z</time></trkpt><trkpt lat="44.85181653404532" lon="3.197758210227957"><ele>1159.0</ele><time>2026-04-05T07:45:26Z</time></trkpt><trkpt lat="44.85188208717827" lon="3.197861486993034"><ele>1158.0</ele><time>2026-04-05T07:45:27Z</time></trkpt><trkpt lat="44.85193897563894" lon="3.1979601861059783"><ele>1157.0</ele><time>2026-04-05T07:45:28Z</time></trkpt><trkpt lat="44.851988002345685" lon="3.1980673093682213"><ele>1156.0</ele><time>2026-04-05T07:45:29Z</time></trkpt><trkpt lat="44.852041529724794" lon="3.198163658063136"><ele>1155.0</ele><time>2026-04-05T07:45:30Z</time></trkpt><trkpt lat="44.85208668874105" lon="3.198252530628064"><ele>1154.0</ele><time>2026-04-05T07:45:31Z</time></trkpt><trkpt lat="44.852143061895134" lon="3.198336163864892"><ele>1153.0</ele><time>2026-04-05T07:45:32Z</time></trkpt><trkpt lat="44.8521977379509" lon="3.198450093899028"><ele>1152.0</ele><time>2026-04-05T07:45:33Z</time></trkpt><trkpt lat="44.85224046359434" lon="3.19856852834455"><ele>1151.0</ele><time>2026-04-05T07:45:34Z</time></trkpt><trkpt lat="44.85228463618277" lon="3.1986693172066825"><ele>1150.0</ele><time>2026-04-05T07:45:35Z</time></trkpt><trkpt lat="44.85232763458491" lon="3.198758741088401"><ele>1149.0</ele><time>2026-04-05T07:45:36Z</time></trkpt><trkpt lat="44.85239669444028" lon="3.1987651657279876"><ele>1148.0</ele><time>2026-04-05T07:45:38Z</time></trkpt><trkpt lat="44.85239979607952" lon="3.198582207705215"><ele>1148.0</ele><time>2026-04-05T07:45:40Z</time></trkpt><trkpt lat="44.85236859699274" lon="3.1984138545678222"><ele>1148.0</ele><time>2026-04-05T07:45:41Z</time></trkpt><trkpt lat="44.85236221574466" lon="3.198196505216094"><ele>1148.0</ele><time>2026-04-05T07:45:42Z</time></trkpt><trkpt lat="44.85237215923492" lon="3.1979901011031244"><ele>1148.0</ele><time>2026-04-05T07:45:43Z</time></trkpt><trkpt lat="44.85237839107384" lon="3.197841603043026"><ele>1149.2</ele><time>2026-04-05T07:45:44Z</time></trkpt><trkpt lat="44.85235409539708" lon="3.197713370832369"><ele>1150.4</ele><time>2026-04-05T07:45:45Z</time></trkpt><trkpt lat="44.8523481797935" lon="3.1975433954499386"><ele>1151.6000000000001</ele><time>2026-04-05T07:45:46Z</time></trkpt><trkpt lat="44.852329360834545" lon="3.1973903222954405"><ele>1152.8</ele><time>2026-04-05T07:45:47Z</time></trkpt><trkpt lat="44.85231671449567" lon="3.1972611962900337"><ele>1154.0</ele><time>2026-04-05T07:45:48Z</time></trkpt><trkpt lat="44.85230148569193" lon="3.197019680123584"><ele>1156.0</ele><time>2026-04-05T07:45:49Z</time></trkpt><trkpt lat="44.852285286612734" lon="3.1968571896176825"><ele>1158.0</ele><time>2026-04-05T07:45:50Z</time></trkpt><trkpt lat="44.852262398907286" lon="3.1966646316477667"><ele>1160.0</ele><time>2026-04-05T07:45:51Z</time></trkpt><trkpt lat="44.85225529002753" lon="3.1965095547722386"><ele>1162.0</ele><time>2026-04-05T07:45:52Z</time></trkpt><trkpt lat="44.85225293821756" lon="3.196359426380217"><ele>1163.1666666666665</ele><time>2026-04-05T07:45:53Z</time></trkpt><trkpt lat="44.85225188793699" lon="3.1962347525106427"><ele>1164.3333333333333</ele><time>2026-04-05T07:45:54Z</time></trkpt><trkpt lat="44.8522557661748" lon="3.1961407936262147"><ele>1165.5</ele><time>2026-04-05T07:45:56Z</time></trkpt><trkpt lat="44.85231596845001" lon="3.196093824413671"><ele>1166.6666666666667</ele><time>2026-04-05T07:45:59Z</time></trkpt><trkpt lat="44.85223228158646" lon="3.196130350166735"><ele>1167.8333333333335</ele><time>2026-04-05T07:46:05Z</time></trkpt><trkpt lat="44.85215013394734" lon="3.196133907740104"><ele>1169.0</ele><time>2026-04-05T07:46:07Z</time></trkpt><trkpt lat="44.852087514766914" lon="3.196089157708896"><ele>1169.0</ele><time>2026-04-05T07:46:08Z</time></trkpt><trkpt lat="44.852027218526494" lon="3.196030001875348"><ele>1169.0</ele><time>2026-04-05T07:46:09Z</time></trkpt><trkpt lat="44.85195476843605" lon="3.195964670599971"><ele>1169.0</ele><time>2026-04-05T07:46:10Z</time></trkpt><trkpt lat="44.851896160910435" lon="3.195847774230893"><ele>1169.0</ele><time>2026-04-05T07:46:12Z</time></trkpt><trkpt lat="44.85182236935879" lon="3.195798760741948"><ele>1169.0</ele><time>2026-04-05T07:46:14Z</time></trkpt><trkpt lat="44.85171000259221" lon="3.1957063435305546"><ele>1168.3333333333335</ele><time>2026-04-05T07:46:16Z</time></trkpt><trkpt lat="44.85163615500153" lon="3.195642887034077"><ele>1167.6666666666667</ele><time>2026-04-05T07:46:17Z</time></trkpt><trkpt lat="44.85157384773931" lon="3.1955552748560674"><ele>1167.0</ele><time>2026-04-05T07:46:17.999Z</time></trkpt><trkpt lat="44.85152665631035" lon="3.195488856801071"><ele>1166.3333333333333</ele><time>2026-04-05T07:46:18.999Z</time></trkpt><trkpt lat="44.85153192943756" lon="3.1953727951141886"><ele>1165.6666666666665</ele><time>2026-04-05T07:46:22.999Z</time></trkpt><trkpt lat="44.85150661948521" lon="3.1952900250517633"><ele>1165.0</ele><time>2026-04-05T07:46:24.999Z</time></trkpt><trkpt lat="44.85151460105996" lon="3.1951913935600973"><ele>1165.0</ele><time>2026-04-05T07:46:27.999Z</time></trkpt><trkpt lat="44.85148715387819" lon="3.1951066963194923"><ele>1165.0</ele><time>2026-04-05T07:46:31.999Z</time></trkpt><trkpt lat="44.85143868912301" lon="3.1949944803566575"><ele>1165.0</ele><time>2026-04-05T07:46:47.999Z</time></trkpt><trkpt lat="44.85137817598706" lon="3.1948978227813796"><ele>1165.0</ele><time>2026-04-05T07:46:49.999Z</time></trkpt><trkpt lat="44.851351810189556" lon="3.1949947573235873"><ele>1165.0</ele><time>2026-04-05T07:46:52.999Z</time></trkpt><trkpt lat="44.85135667117893" lon="3.1950848762649073"><ele>1165.0</ele><time>2026-04-05T07:47:03.999Z</time></trkpt><trkpt lat="44.85139161100453" lon="3.1951766481282573"><ele>1164.9999999999998</ele><time>2026-04-05T07:47:52Z</time></trkpt><trkpt lat="44.851460138348905" lon="3.195117260969653"><ele>1165.0</ele><time>2026-04-05T07:47:55Z</time></trkpt><trkpt lat="44.85151968386429" lon="3.1951578216923715"><ele>1165.0</ele><time>2026-04-05T07:48:52.999Z</time></trkpt><trkpt lat="44.85149536271653" lon="3.195266178397274"><ele>1165.0</ele><time>2026-04-05T07:48:55.999Z</time></trkpt><trkpt lat="44.85151163979062" lon="3.195372275227048"><ele>1165.0</ele><time>2026-04-05T07:48:58.999Z</time></trkpt><trkpt lat="44.85149512469448" lon="3.195459400869455"><ele>1164.9999999999998</ele><time>2026-04-05T07:49:00.999Z</time></trkpt><trkpt lat="44.85157207208205" lon="3.1954931405631934"><ele>1165.0</ele><time>2026-04-05T07:49:03.999Z</time></trkpt><trkpt lat="44.85165563067187" lon="3.1956151847476146"><ele>1165.2</ele><time>2026-04-05T07:49:05.999Z</time></trkpt><trkpt lat="44.851729515257" lon="3.1957106557653328"><ele>1165.4</ele><time>2026-04-05T07:49:07.999Z</time></trkpt><trkpt lat="44.85180070184072" lon="3.1957630439658793"><ele>1165.6</ele><time>2026-04-05T07:49:08.999Z</time></trkpt><trkpt lat="44.85188335115776" lon="3.1958395674960407"><ele>1165.8</ele><time>2026-04-05T07:49:09.999Z</time></trkpt><trkpt lat="44.85195396152844" lon="3.1959197492050544"><ele>1166.0</ele><time>2026-04-05T07:49:10.999Z</time></trkpt><trkpt lat="44.85201557446192" lon="3.1960013994035266"><ele>1166.5</ele><time>2026-04-05T07:49:11.999Z</time></trkpt><trkpt lat="44.8520739375667" lon="3.196084794517507"><ele>1167.0</ele><time>2026-04-05T07:49:12.999Z</time></trkpt><trkpt lat="44.852148726632706" lon="3.1961236691873336"><ele>1167.5</ele><time>2026-04-05T07:49:13.999Z</time></trkpt><trkpt lat="44.852216067905744" lon="3.1961523485944627"><ele>1168.0</ele><time>2026-04-05T07:49:17.999Z</time></trkpt><trkpt lat="44.85225742397035" lon="3.1962312045311037"><ele>1168.5</ele><time>2026-04-05T07:49:21.999Z</time></trkpt><trkpt lat="44.85226380542211" lon="3.196376135585812"><ele>1169.0</ele><time>2026-04-05T07:49:23.999Z</time></trkpt><trkpt lat="44.85225189343172" lon="3.1964738484902684"><ele>1168.0</ele><time>2026-04-05T07:49:24.999Z</time></trkpt><trkpt lat="44.85225529169665" lon="3.1965744061043986"><ele>1167.0</ele><time>2026-04-05T07:49:25.999Z</time></trkpt><trkpt lat="44.85225843292403" lon="3.196673793751494"><ele>1166.0</ele><time>2026-04-05T07:49:27Z</time></trkpt><trkpt lat="44.85226680314459" lon="3.196775014713968"><ele>1165.0</ele><time>2026-04-05T07:49:28Z</time></trkpt><trkpt lat="44.85227872717854" lon="3.1968866516070937"><ele>1164.0</ele><time>2026-04-05T07:49:29Z</time></trkpt><trkpt lat="44.85228863922255" lon="3.196986706914405"><ele>1163.0</ele><time>2026-04-05T07:49:30Z</time></trkpt><trkpt lat="44.852300658495324" lon="3.197093378544392"><ele>1162.0</ele><time>2026-04-05T07:49:31Z</time></trkpt><trkpt lat="44.85230422231346" lon="3.1972949271228766"><ele>1160.4</ele><time>2026-04-05T07:49:33Z</time></trkpt><trkpt lat="44.85232255656191" lon="3.19742827317281"><ele>1158.8000000000002</ele><time>2026-04-05T07:49:34Z</time></trkpt><trkpt lat="44.85233810763669" lon="3.19758767440675"><ele>1157.2</ele><time>2026-04-05T07:49:35Z</time></trkpt><trkpt lat="44.8523527786351" lon="3.1977203209484784"><ele>1155.6000000000001</ele><time>2026-04-05T07:49:36Z</time></trkpt><trkpt lat="44.852368048649375" lon="3.1978432683438376"><ele>1154.0</ele><time>2026-04-05T07:49:37Z</time></trkpt><trkpt lat="44.85238133118103" lon="3.1979658603963186"><ele>1154.0</ele><time>2026-04-05T07:49:38Z</time></trkpt><trkpt lat="44.85238671457164" lon="3.1981437280903733"><ele>1154.0</ele><time>2026-04-05T07:49:39Z</time></trkpt><trkpt lat="44.85238946681419" lon="3.1983322588661838"><ele>1154.0</ele><time>2026-04-05T07:49:40Z</time></trkpt><trkpt lat="44.852391314345276" lon="3.198493371361328"><ele>1154.0</ele><time>2026-04-05T07:49:41Z</time></trkpt><trkpt lat="44.85239677149602" lon="3.198607128069733"><ele>1153.0</ele><time>2026-04-05T07:49:42Z</time></trkpt><trkpt lat="44.85241535741871" lon="3.198745746447736"><ele>1152.0</ele><time>2026-04-05T07:49:44Z</time></trkpt><trkpt lat="44.852428470546656" lon="3.19885846421077"><ele>1151.0</ele><time>2026-04-05T07:50:00Z</time></trkpt><trkpt lat="44.85247882405388" lon="3.1989215739864485"><ele>1150.0</ele><time>2026-04-05T07:50:01Z</time></trkpt><trkpt lat="44.85255525493372" lon="3.198943393411662"><ele>1149.0</ele><time>2026-04-05T07:50:02Z</time></trkpt><trkpt lat="44.85264898065556" lon="3.1989616140526365"><ele>1148.0</ele><time>2026-04-05T07:50:03Z</time></trkpt><trkpt lat="44.85275728160367" lon="3.198943747982098"><ele>1147.6</ele><time>2026-04-05T07:50:04Z</time></trkpt><trkpt lat="44.85287859708819" lon="3.1989327638145717"><ele>1147.1999999999998</ele><time>2026-04-05T07:50:05Z</time></trkpt><trkpt lat="44.85298895149053" lon="3.1989133634434657"><ele>1146.8</ele><time>2026-04-05T07:50:06Z</time></trkpt><trkpt lat="44.85308075015752" lon="3.1988913289707397"><ele>1146.3999999999999</ele><time>2026-04-05T07:50:07Z</time></trkpt><trkpt lat="44.85317121053122" lon="3.1988759328910046"><ele>1146.0</ele><time>2026-04-05T07:50:08Z</time></trkpt><trkpt lat="44.85325175270592" lon="3.198861835447326"><ele>1146.0</ele><time>2026-04-05T07:50:09Z</time></trkpt><trkpt lat="44.853347890640165" lon="3.198859081082524"><ele>1146.0</ele><time>2026-04-05T07:50:10Z</time></trkpt><trkpt lat="44.853454699568644" lon="3.198883698959518"><ele>1146.0</ele><time>2026-04-05T07:50:11Z</time></trkpt><trkpt lat="44.853565659188746" lon="3.1989236290944514"><ele>1146.0</ele><time>2026-04-05T07:50:12Z</time></trkpt><trkpt lat="44.85369044350912" lon="3.1989594558352135"><ele>1146.0</ele><time>2026-04-05T07:50:13Z</time></trkpt><trkpt lat="44.853824626665094" lon="3.1990010480672324"><ele>1142.0</ele><time>2026-04-05T07:50:14Z</time></trkpt><trkpt lat="44.853948248664366" lon="3.1990609271841977"><ele>1138.0</ele><time>2026-04-05T07:50:15Z</time></trkpt><trkpt lat="44.8540583960931" lon="3.199094479277014"><ele>1134.0</ele><time>2026-04-05T07:50:16Z</time></trkpt><trkpt lat="44.8541736488645" lon="3.199110993898042"><ele>1130.0</ele><time>2026-04-05T07:50:17Z</time></trkpt><trkpt lat="44.8542783389587" lon="3.1991149760891386"><ele>1130.0</ele><time>2026-04-05T07:50:18Z</time></trkpt><trkpt lat="44.854388274496394" lon="3.1991259567405863"><ele>1130.0</ele><time>2026-04-05T07:50:19Z</time></trkpt><trkpt lat="44.85450402451539" lon="3.1991398123876715"><ele>1130.0</ele><time>2026-04-05T07:50:20Z</time></trkpt><trkpt lat="44.85462579449876" lon="3.199164048881416"><ele>1130.0</ele><time>2026-04-05T07:50:21Z</time></trkpt><trkpt lat="44.85473987108541" lon="3.1991859654168575"><ele>1130.0</ele><time>2026-04-05T07:50:22Z</time></trkpt><trkpt lat="44.85484250968083" lon="3.199221828448883"><ele>1130.0</ele><time>2026-04-05T07:50:23Z</time></trkpt><trkpt lat="44.854944637971755" lon="3.1992476534033423"><ele>1130.0</ele><time>2026-04-05T07:50:24Z</time></trkpt><trkpt lat="44.8550270641443" lon="3.1992670633506655"><ele>1130.0</ele><time>2026-04-05T07:50:25Z</time></trkpt><trkpt lat="44.85511721772678" lon="3.199257723325707"><ele>1130.0</ele><time>2026-04-05T07:50:26Z</time></trkpt><trkpt lat="44.855207835673255" lon="3.1992344470438145"><ele>1128.2</ele><time>2026-04-05T07:50:27Z</time></trkpt><trkpt lat="44.85530213476505" lon="3.1992070624593207"><ele>1126.4</ele><time>2026-04-05T07:50:28Z</time></trkpt><trkpt lat="44.855402824690195" lon="3.19917819872751"><ele>1124.6</ele><time>2026-04-05T07:50:29Z</time></trkpt><trkpt lat="44.855489805766744" lon="3.199157328300105"><ele>1122.8</ele><time>2026-04-05T07:50:30Z</time></trkpt><trkpt lat="44.855569207033454" lon="3.1991375359140877"><ele>1121.0</ele><time>2026-04-05T07:50:31Z</time></trkpt><trkpt lat="44.855651670558196" lon="3.199111102096912"><ele>1121.0</ele><time>2026-04-05T07:50:32Z</time></trkpt><trkpt lat="44.85574273306215" lon="3.199083063644237"><ele>1121.0</ele><time>2026-04-05T07:50:33Z</time></trkpt><trkpt lat="44.85584041076032" lon="3.1990465665673877"><ele>1121.0</ele><time>2026-04-05T07:50:34Z</time></trkpt><trkpt lat="44.85594380455693" lon="3.1990161637861885"><ele>1121.0</ele><time>2026-04-05T07:50:35Z</time></trkpt><trkpt lat="44.85603184318647" lon="3.1989946894957035"><ele>1121.0</ele><time>2026-04-05T07:50:36Z</time></trkpt><trkpt lat="44.8561187191538" lon="3.198961292100558"><ele>1120.0</ele><time>2026-04-05T07:50:37Z</time></trkpt><trkpt lat="44.85618378340886" lon="3.198916362684358"><ele>1119.0</ele><time>2026-04-05T07:50:38Z</time></trkpt><trkpt lat="44.85624786350354" lon="3.1988665516262156"><ele>1118.0</ele><time>2026-04-05T07:50:39Z</time></trkpt><trkpt lat="44.85630901956238" lon="3.198826804789026"><ele>1117.0</ele><time>2026-04-05T07:50:40Z</time></trkpt><trkpt lat="44.85638338242621" lon="3.1988147635746915"><ele>1116.0</ele><time>2026-04-05T07:50:42Z</time></trkpt><trkpt lat="44.85646889048986" lon="3.1988674704312636"><ele>1115.0</ele><time>2026-04-05T07:50:54.999Z</time></trkpt><trkpt lat="44.85654318700135" lon="3.1989079459380365"><ele>1115.0</ele><time>2026-04-05T07:50:56.999Z</time></trkpt><trkpt lat="44.85661255441697" lon="3.198865332361068"><ele>1115.0</ele><time>2026-04-05T07:50:58.999Z</time></trkpt><trkpt lat="44.85667234525691" lon="3.198811976513436"><ele>1115.0</ele><time>2026-04-05T07:51:01.999Z</time></trkpt><trkpt lat="44.85673943799854" lon="3.1987704731797293"><ele>1115.0</ele><time>2026-04-05T07:51:03.999Z</time></trkpt><trkpt lat="44.856808244404924" lon="3.1987256837167486"><ele>1115.0</ele><time>2026-04-05T07:51:06.999Z</time></trkpt><trkpt lat="44.85687664007323" lon="3.198666829738573"><ele>1115.0</ele><time>2026-04-05T07:51:49Z</time></trkpt><trkpt lat="44.8569550947495" lon="3.1985821768967826"><ele>1114.75</ele><time>2026-04-05T07:51:50Z</time></trkpt><trkpt lat="44.85704409448713" lon="3.198478833842144"><ele>1114.5</ele><time>2026-04-05T07:51:51Z</time></trkpt><trkpt lat="44.85715127955255" lon="3.198371086878117"><ele>1114.25</ele><time>2026-04-05T07:51:52Z</time></trkpt><trkpt lat="44.85724891203996" lon="3.198281757914981"><ele>1114.0</ele><time>2026-04-05T07:51:53Z</time></trkpt><trkpt lat="44.8573465645374" lon="3.198205718502688"><ele>1112.6000000000001</ele><time>2026-04-05T07:51:54Z</time></trkpt><trkpt lat="44.85744314785417" lon="3.1981423095700015"><ele>1111.2</ele><time>2026-04-05T07:51:55Z</time></trkpt><trkpt lat="44.85754541875482" lon="3.1980562221369073"><ele>1109.8000000000002</ele><time>2026-04-05T07:51:56Z</time></trkpt><trkpt lat="44.857629041992844" lon="3.1979644009320416"><ele>1108.4</ele><time>2026-04-05T07:51:57Z</time></trkpt><trkpt lat="44.857708053212946" lon="3.197873962687539"><ele>1107.0</ele><time>2026-04-05T07:51:58Z</time></trkpt><trkpt lat="44.857801561209016" lon="3.1977999916163977"><ele>1105.8</ele><time>2026-04-05T07:51:59Z</time></trkpt><trkpt lat="44.85788922604623" lon="3.1977227886221455"><ele>1104.6</ele><time>2026-04-05T07:52:00Z</time></trkpt><trkpt lat="44.85798663281343" lon="3.197650470582086"><ele>1103.3999999999999</ele><time>2026-04-05T07:52:01Z</time></trkpt><trkpt lat="44.858081579052275" lon="3.1975733364914767"><ele>1102.2</ele><time>2026-04-05T07:52:02Z</time></trkpt><trkpt lat="44.85817271779707" lon="3.1975071861963094"><ele>1101.0</ele><time>2026-04-05T07:52:03Z</time></trkpt><trkpt lat="44.85826886962183" lon="3.1974486860638094"><ele>1101.0</ele><time>2026-04-05T07:52:04Z</time></trkpt><trkpt lat="44.85835436297476" lon="3.1973959195144417"><ele>1101.0</ele><time>2026-04-05T07:52:05Z</time></trkpt><trkpt lat="44.85844694752324" lon="3.1973417777204123"><ele>1101.0</ele><time>2026-04-05T07:52:06Z</time></trkpt><trkpt lat="44.85854882387853" lon="3.1972792491755806"><ele>1101.0</ele><time>2026-04-05T07:52:07Z</time></trkpt><trkpt lat="44.85865403650677" lon="3.197223540565872"><ele>1101.0</ele><time>2026-04-05T07:52:08Z</time></trkpt><trkpt lat="44.858741104857934" lon="3.197176254200759"><ele>1099.8</ele><time>2026-04-05T07:52:09Z</time></trkpt><trkpt lat="44.85881763564495" lon="3.1971037460678997"><ele>1098.6</ele><time>2026-04-05T07:52:10Z</time></trkpt><trkpt lat="44.85887516403138" lon="3.1969932769520892"><ele>1097.4</ele><time>2026-04-05T07:52:11Z</time></trkpt><trkpt lat="44.85894438393261" lon="3.1968904114669425"><ele>1096.2</ele><time>2026-04-05T07:52:12Z</time></trkpt><trkpt lat="44.85904304844122" lon="3.196814950791366"><ele>1095.0</ele><time>2026-04-05T07:52:13Z</time></trkpt><trkpt lat="44.859141425305445" lon="3.1967333738223744"><ele>1095.0</ele><time>2026-04-05T07:52:14Z</time></trkpt><trkpt lat="44.85923992160446" lon="3.1966324045332275"><ele>1095.0</ele><time>2026-04-05T07:52:15Z</time></trkpt><trkpt lat="44.85933111741426" lon="3.196537369429146"><ele>1095.0</ele><time>2026-04-05T07:52:16Z</time></trkpt><trkpt lat="44.85942228647247" lon="3.1964443194567833"><ele>1095.0</ele><time>2026-04-05T07:52:17Z</time></trkpt><trkpt lat="44.859506384790905" lon="3.1963665871177906"><ele>1095.0</ele><time>2026-04-05T07:52:18Z</time></trkpt><trkpt lat="44.85959842273916" lon="3.196294608946974"><ele>1093.0</ele><time>2026-04-05T07:52:19Z</time></trkpt><trkpt lat="44.85969165316832" lon="3.1962284702089323"><ele>1091.0</ele><time>2026-04-05T07:52:20Z</time></trkpt><trkpt lat="44.8597928049185" lon="3.196148623219674"><ele>1089.0</ele><time>2026-04-05T07:52:21Z</time></trkpt><trkpt lat="44.85988109661834" lon="3.196072682401028"><ele>1087.0</ele><time>2026-04-05T07:52:22Z</time></trkpt><trkpt lat="44.85995731286153" lon="3.196006544472806"><ele>1085.0</ele><time>2026-04-05T07:52:23Z</time></trkpt><trkpt lat="44.86002473605813" lon="3.195941174234925"><ele>1085.0</ele><time>2026-04-05T07:52:24Z</time></trkpt><trkpt lat="44.860098377698215" lon="3.1958511207688924"><ele>1085.0</ele><time>2026-04-05T07:52:25Z</time></trkpt><trkpt lat="44.86018102147981" lon="3.1957502255437316"><ele>1085.0</ele><time>2026-04-05T07:52:26Z</time></trkpt><trkpt lat="44.86028113810527" lon="3.195633792426956"><ele>1085.0</ele><time>2026-04-05T07:52:27Z</time></trkpt><trkpt lat="44.860389375784166" lon="3.195521803601811"><ele>1083.75</ele><time>2026-04-05T07:52:28Z</time></trkpt><trkpt lat="44.860512165292505" lon="3.1954239591584326"><ele>1082.5</ele><time>2026-04-05T07:52:29Z</time></trkpt><trkpt lat="44.860658731515116" lon="3.195368561491687"><ele>1081.25</ele><time>2026-04-05T07:52:30Z</time></trkpt><trkpt lat="44.86080674399773" lon="3.1953534183155496"><ele>1080.0</ele><time>2026-04-05T07:52:31Z</time></trkpt><trkpt lat="44.86096807884739" lon="3.195340808655498"><ele>1079.0</ele><time>2026-04-05T07:52:32Z</time></trkpt><trkpt lat="44.86113114551336" lon="3.195333243821196"><ele>1078.0</ele><time>2026-04-05T07:52:33Z</time></trkpt><trkpt lat="44.86128553760842" lon="3.195327471628232"><ele>1077.0</ele><time>2026-04-05T07:52:34Z</time></trkpt><trkpt lat="44.86141451629969" lon="3.195311139436265"><ele>1076.0</ele><time>2026-04-05T07:52:35Z</time></trkpt><trkpt lat="44.861538832728016" lon="3.1953001655408513"><ele>1076.0</ele><time>2026-04-05T07:52:36Z</time></trkpt><trkpt lat="44.86164918713649" lon="3.1952989601300845"><ele>1076.0</ele><time>2026-04-05T07:52:37Z</time></trkpt><trkpt lat="44.861752306437374" lon="3.195301232937522"><ele>1076.0</ele><time>2026-04-05T07:52:38Z</time></trkpt><trkpt lat="44.8618538358766" lon="3.195332409671254"><ele>1076.0</ele><time>2026-04-05T07:52:39Z</time></trkpt><trkpt lat="44.861967877298675" lon="3.195314119609419"><ele>1076.0</ele><time>2026-04-05T07:52:40Z</time></trkpt><trkpt lat="44.86209886252776" lon="3.195328393495349"><ele>1076.0</ele><time>2026-04-05T07:52:41Z</time></trkpt><trkpt lat="44.862237706594655" lon="3.195333459624984"><ele>1076.0</ele><time>2026-04-05T07:52:42Z</time></trkpt><trkpt lat="44.862385157827966" lon="3.1953396482266063"><ele>1076.0</ele><time>2026-04-05T07:52:43Z</time></trkpt><trkpt lat="44.86252906321254" lon="3.1953432186689037"><ele>1076.0</ele><time>2026-04-05T07:52:44Z</time></trkpt><trkpt lat="44.862677658291105" lon="3.1953545351670414"><ele>1077.3999999999999</ele><time>2026-04-05T07:52:45Z</time></trkpt><trkpt lat="44.862805999728494" lon="3.195347671100546"><ele>1078.8</ele><time>2026-04-05T07:52:46Z</time></trkpt><trkpt lat="44.86292403605555" lon="3.195340416426961"><ele>1080.1999999999998</ele><time>2026-04-05T07:52:47Z</time></trkpt><trkpt lat="44.86302244905893" lon="3.1953200043356875"><ele>1081.6</ele><time>2026-04-05T07:52:48Z</time></trkpt><trkpt lat="44.863096554360986" lon="3.1952852060633896"><ele>1083.0</ele><time>2026-04-05T07:52:49Z</time></trkpt><trkpt lat="44.86314816368076" lon="3.195232850059962"><ele>1083.0</ele><time>2026-04-05T07:52:50Z</time></trkpt><trkpt lat="44.86318435014353" lon="3.1950323419064612"><ele>1083.0</ele><time>2026-04-05T07:52:52Z</time></trkpt><trkpt lat="44.86319427637698" lon="3.1948963652715077"><ele>1083.0</ele><time>2026-04-05T07:52:52.999Z</time></trkpt><trkpt lat="44.86321329088911" lon="3.1947398414703025"><ele>1083.0</ele><time>2026-04-05T07:52:53.999Z</time></trkpt><trkpt lat="44.863226283226986" lon="3.1945595575911203"><ele>1082.75</ele><time>2026-04-05T07:52:54.999Z</time></trkpt><trkpt lat="44.86325511188165" lon="3.194364129950025"><ele>1082.5</ele><time>2026-04-05T07:52:55.999Z</time></trkpt><trkpt lat="44.86328252878454" lon="3.194188201956685"><ele>1082.25</ele><time>2026-04-05T07:52:56.999Z</time></trkpt><trkpt lat="44.86333477576513" lon="3.1940450526944"><ele>1082.0</ele><time>2026-04-05T07:52:57.999Z</time></trkpt><trkpt lat="44.863405444655506" lon="3.19385980710784"><ele>1084.6666666666667</ele><time>2026-04-05T07:52:58.999Z</time></trkpt><trkpt lat="44.8634785003516" lon="3.193676910010299"><ele>1087.3333333333333</ele><time>2026-04-05T07:52:59.999Z</time></trkpt><trkpt lat="44.863550181561976" lon="3.19347458753351"><ele>1090.0</ele><time>2026-04-05T07:53:00.999Z</time></trkpt><trkpt lat="44.863648953920375" lon="3.1932696164364067"><ele>1089.0</ele><time>2026-04-05T07:53:01.999Z</time></trkpt><trkpt lat="44.86372806688597" lon="3.1930715855632643"><ele>1088.0</ele><time>2026-04-05T07:53:02.999Z</time></trkpt><trkpt lat="44.863796039581125" lon="3.1928877054858895"><ele>1087.0</ele><time>2026-04-05T07:53:03.999Z</time></trkpt><trkpt lat="44.86384731979844" lon="3.192689825125401"><ele>1087.0</ele><time>2026-04-05T07:53:04.999Z</time></trkpt><trkpt lat="44.863891053848505" lon="3.1924739186416917"><ele>1087.0</ele><time>2026-04-05T07:53:05.999Z</time></trkpt><trkpt lat="44.86396017392832" lon="3.192265168455375"><ele>1087.0</ele><time>2026-04-05T07:53:06.999Z</time></trkpt><trkpt lat="44.86401926339547" lon="3.192085953871558"><ele>1085.75</ele><time>2026-04-05T07:53:07.999Z</time></trkpt><trkpt lat="44.864086216033336" lon="3.1918960800030245"><ele>1084.5</ele><time>2026-04-05T07:53:08.999Z</time></trkpt><trkpt lat="44.864160464850464" lon="3.1917021779499346"><ele>1083.25</ele><time>2026-04-05T07:53:09.999Z</time></trkpt><trkpt lat="44.86423134964735" lon="3.191530639774337"><ele>1082.0</ele><time>2026-04-05T07:53:10.999Z</time></trkpt><trkpt lat="44.86429707408583" lon="3.1913728422151446"><ele>1082.0</ele><time>2026-04-05T07:53:11.999Z</time></trkpt><trkpt lat="44.86436808442891" lon="3.191210142719191"><ele>1082.0</ele><time>2026-04-05T07:53:12.999Z</time></trkpt><trkpt lat="44.86443741157583" lon="3.1910618016688286"><ele>1082.0</ele><time>2026-04-05T07:53:13.999Z</time></trkpt><trkpt lat="44.86450515858367" lon="3.1909311356026273"><ele>1082.0</ele><time>2026-04-05T07:53:14.999Z</time></trkpt><trkpt lat="44.86458867054828" lon="3.1908166594215794"><ele>1082.0</ele><time>2026-04-05T07:53:15.999Z</time></trkpt><trkpt lat="44.86468891612295" lon="3.1907116838998406"><ele>1082.0</ele><time>2026-04-05T07:53:16.999Z</time></trkpt><trkpt lat="44.86480788380896" lon="3.190606018001511"><ele>1082.0</ele><time>2026-04-05T07:53:17.999Z</time></trkpt><trkpt lat="44.86493551040394" lon="3.19052350638278"><ele>1082.0</ele><time>2026-04-05T07:53:18.999Z</time></trkpt><trkpt lat="44.86509243721841" lon="3.1904597446765264"><ele>1079.3333333333335</ele><time>2026-04-05T07:53:19.999Z</time></trkpt><trkpt lat="44.865264738890055" lon="3.190386148788966"><ele>1076.6666666666667</ele><time>2026-04-05T07:53:20.999Z</time></trkpt><trkpt lat="44.86540837428801" lon="3.1902750274149283"><ele>1074.0</ele><time>2026-04-05T07:53:21.999Z</time></trkpt><trkpt lat="44.86551763452797" lon="3.1901703252064477"><ele>1074.0</ele><time>2026-04-05T07:53:22.999Z</time></trkpt><trkpt lat="44.86560215974795" lon="3.1900353176858944"><ele>1074.0</ele><time>2026-04-05T07:53:23.999Z</time></trkpt><trkpt lat="44.865676851535554" lon="3.189847702462928"><ele>1074.0</ele><time>2026-04-05T07:53:24.999Z</time></trkpt><trkpt lat="44.86577906002192" lon="3.18966592146047"><ele>1074.0</ele><time>2026-04-05T07:53:25.999Z</time></trkpt><trkpt lat="44.86587140701338" lon="3.189541777053297"><ele>1074.25</ele><time>2026-04-05T07:53:26.999Z</time></trkpt><trkpt lat="44.865951633012116" lon="3.189418588075528"><ele>1074.5</ele><time>2026-04-05T07:53:27.999Z</time></trkpt><trkpt lat="44.8660128006766" lon="3.189342912886828"><ele>1074.75</ele><time>2026-04-05T07:53:28.999Z</time></trkpt><trkpt lat="44.86601890432465" lon="3.1891457029134425"><ele>1075.0</ele><time>2026-04-05T07:53:30.999Z</time></trkpt><trkpt lat="44.86600007795772" lon="3.1889776005136814"><ele>1073.5</ele><time>2026-04-05T07:53:31.999Z</time></trkpt><trkpt lat="44.86598634636705" lon="3.188791878413558"><ele>1072.0</ele><time>2026-04-05T07:53:32.999Z</time></trkpt><trkpt lat="44.86598802237153" lon="3.18862868790362"><ele>1070.5</ele><time>2026-04-05T07:53:33.999Z</time></trkpt><trkpt lat="44.866016551445604" lon="3.188478989636267"><ele>1069.0</ele><time>2026-04-05T07:53:34.999Z</time></trkpt><trkpt lat="44.866058424873536" lon="3.1883100918533627"><ele>1067.4</ele><time>2026-04-05T07:53:35.999Z</time></trkpt><trkpt lat="44.866104579326596" lon="3.188148761495533"><ele>1065.8000000000002</ele><time>2026-04-05T07:53:36.999Z</time></trkpt><trkpt lat="44.86616103942741" lon="3.188031787255826"><ele>1064.1999999999998</ele><time>2026-04-05T07:53:37.999Z</time></trkpt><trkpt lat="44.866243104819475" lon="3.187934900391472"><ele>1062.6</ele><time>2026-04-05T07:53:39Z</time></trkpt><trkpt lat="44.86628752364601" lon="3.187816097373198"><ele>1061.0</ele><time>2026-04-05T07:53:40Z</time></trkpt><trkpt lat="44.866344456457675" lon="3.187699210975294"><ele>1061.0</ele><time>2026-04-05T07:53:41Z</time></trkpt><trkpt lat="44.86641600978867" lon="3.187547919631397"><ele>1061.0</ele><time>2026-04-05T07:53:42Z</time></trkpt><trkpt lat="44.86645450397209" lon="3.1873649899609546"><ele>1061.0</ele><time>2026-04-05T07:53:43Z</time></trkpt><trkpt lat="44.86652304050377" lon="3.187211876944295"><ele>1061.0</ele><time>2026-04-05T07:53:44Z</time></trkpt><trkpt lat="44.86658300684647" lon="3.187051091237118"><ele>1058.75</ele><time>2026-04-05T07:53:45Z</time></trkpt><trkpt lat="44.86664250769554" lon="3.1869016122192315"><ele>1056.5</ele><time>2026-04-05T07:53:46Z</time></trkpt><trkpt lat="44.866688959580316" lon="3.186760852961489"><ele>1054.25</ele><time>2026-04-05T07:53:47Z</time></trkpt><trkpt lat="44.86671367541762" lon="3.1866065066513842"><ele>1052.0</ele><time>2026-04-05T07:53:48Z</time></trkpt><trkpt lat="44.866725981208546" lon="3.1864564026147"><ele>1051.1666666666667</ele><time>2026-04-05T07:53:49Z</time></trkpt><trkpt lat="44.86674749121059" lon="3.186340597970431"><ele>1050.3333333333335</ele><time>2026-04-05T07:53:50Z</time></trkpt><trkpt lat="44.86679836872436" lon="3.186278278341817"><ele>1049.5</ele><time>2026-04-05T07:53:51Z</time></trkpt><trkpt lat="44.86687053314583" lon="3.1862482572966693"><ele>1048.6666666666667</ele><time>2026-04-05T07:53:52Z</time></trkpt><trkpt lat="44.866939550912846" lon="3.186241242670613"><ele>1047.8333333333333</ele><time>2026-04-05T07:53:53Z</time></trkpt><trkpt lat="44.86702896866757" lon="3.1861822290201065"><ele>1047.0</ele><time>2026-04-05T07:53:55Z</time></trkpt><trkpt lat="44.86698390591653" lon="3.1860973386994424"><ele>1047.0</ele><time>2026-04-05T07:53:57Z</time></trkpt><trkpt lat="44.866852044906786" lon="3.186007953424022"><ele>1047.0</ele><time>2026-04-05T07:53:59Z</time></trkpt><trkpt lat="44.86675368133382" lon="3.185966380205789"><ele>1047.0</ele><time>2026-04-05T07:54:00Z</time></trkpt><trkpt lat="44.86664400651978" lon="3.185923162252785"><ele>1047.0</ele><time>2026-04-05T07:54:01Z</time></trkpt><trkpt lat="44.86652985950279" lon="3.185876203635237"><ele>1046.5</ele><time>2026-04-05T07:54:02Z</time></trkpt><trkpt lat="44.86641589494355" lon="3.1858219244095043"><ele>1046.0</ele><time>2026-04-05T07:54:03Z</time></trkpt><trkpt lat="44.86630172227043" lon="3.185759211859601"><ele>1045.5</ele><time>2026-04-05T07:54:04Z</time></trkpt><trkpt lat="44.866194669449165" lon="3.185689344462118"><ele>1045.0</ele><time>2026-04-05T07:54:05Z</time></trkpt><trkpt lat="44.866101655570894" lon="3.1855944563864025"><ele>1044.4</ele><time>2026-04-05T07:54:06Z</time></trkpt><trkpt lat="44.86605624295412" lon="3.1854684537438076"><ele>1043.8</ele><time>2026-04-05T07:54:07Z</time></trkpt><trkpt lat="44.86604539828726" lon="3.185319697627928"><ele>1043.2</ele><time>2026-04-05T07:54:08Z</time></trkpt><trkpt lat="44.8660458514647" lon="3.1851635572673667"><ele>1042.6</ele><time>2026-04-05T07:54:09Z</time></trkpt><trkpt lat="44.86603332923973" lon="3.185003476139478"><ele>1042.0</ele><time>2026-04-05T07:54:10Z</time></trkpt><trkpt lat="44.865996239525245" lon="3.1848363768507117"><ele>1042.0</ele><time>2026-04-05T07:54:11Z</time></trkpt><trkpt lat="44.865948099843514" lon="3.184662618303141"><ele>1042.0</ele><time>2026-04-05T07:54:12Z</time></trkpt><trkpt lat="44.86590373722689" lon="3.184482551852768"><ele>1042.0</ele><time>2026-04-05T07:54:13Z</time></trkpt><trkpt lat="44.86586627204707" lon="3.1843029708387918"><ele>1042.0</ele><time>2026-04-05T07:54:14Z</time></trkpt><trkpt lat="44.865831824061985" lon="3.184143793523019"><ele>1043.5</ele><time>2026-04-05T07:54:15Z</time></trkpt><trkpt lat="44.865792956591754" lon="3.1840300315787102"><ele>1045.0</ele><time>2026-04-05T07:54:16Z</time></trkpt><trkpt lat="44.86573795055333" lon="3.1839409814272956"><ele>1046.5</ele><time>2026-04-05T07:54:17Z</time></trkpt><trkpt lat="44.86566705652366" lon="3.1838774877384517"><ele>1048.0</ele><time>2026-04-05T07:54:18Z</time></trkpt><trkpt lat="44.86559570138083" lon="3.1838543127058343"><ele>1049.5</ele><time>2026-04-05T07:54:19Z</time></trkpt><trkpt lat="44.865491914238504" lon="3.18386171233913"><ele>1051.0</ele><time>2026-04-05T07:54:21Z</time></trkpt><trkpt lat="44.865404759101814" lon="3.183978052000482"><ele>1051.0</ele><time>2026-04-05T07:54:24Z</time></trkpt><trkpt lat="44.86532457740054" lon="3.1840826079559332"><ele>1051.0</ele><time>2026-04-05T07:54:26Z</time></trkpt><trkpt lat="44.865267490761994" lon="3.1840354657875847"><ele>1051.0</ele><time>2026-04-05T07:54:27Z</time></trkpt><trkpt lat="44.865147703067365" lon="3.1839843276933744"><ele>1051.0</ele><time>2026-04-05T07:54:29Z</time></trkpt><trkpt lat="44.86508481051421" lon="3.1839254968092408"><ele>1051.0</ele><time>2026-04-05T07:54:30Z</time></trkpt><trkpt lat="44.8650227710959" lon="3.1838944244390506"><ele>1051.0</ele><time>2026-04-05T07:54:31Z</time></trkpt><trkpt lat="44.86498212225531" lon="3.1838264103215352"><ele>1050.6666666666665</ele><time>2026-04-05T07:54:32Z</time></trkpt><trkpt lat="44.864924072961976" lon="3.1837709151638904"><ele>1050.3333333333333</ele><time>2026-04-05T07:54:33Z</time></trkpt><trkpt lat="44.86485399636384" lon="3.1837127689497104"><ele>1050.0</ele><time>2026-04-05T07:54:34Z</time></trkpt><trkpt lat="44.86478616647792" lon="3.1836502545615817"><ele>1049.6666666666667</ele><time>2026-04-05T07:54:35Z</time></trkpt><trkpt lat="44.864719274793984" lon="3.1835965056218325"><ele>1049.3333333333335</ele><time>2026-04-05T07:54:36Z</time></trkpt><trkpt lat="44.864651944944285" lon="3.183545522899012"><ele>1049.0</ele><time>2026-04-05T07:54:37Z</time></trkpt><trkpt lat="44.86458725507125" lon="3.18350055056467"><ele>1049.0</ele><time>2026-04-05T07:54:38Z</time></trkpt><trkpt lat="44.86435755811966" lon="3.183777666791932"><ele>1049.0</ele><time>2026-04-05T07:54:39Z</time></trkpt><trkpt lat="44.864252660863265" lon="3.1837535224625433"><ele>1049.0</ele><time>2026-04-05T07:54:40Z</time></trkpt><trkpt lat="44.86413072286246" lon="3.183727457627407"><ele>1045.5</ele><time>2026-04-05T07:54:41Z</time></trkpt><trkpt lat="44.86399141333027" lon="3.183689514718495"><ele>1042.0</ele><time>2026-04-05T07:54:42Z</time></trkpt><trkpt lat="44.8638528219488" lon="3.183647598512648"><ele>1038.5</ele><time>2026-04-05T07:54:43Z</time></trkpt><trkpt lat="44.86370362932164" lon="3.1836182487235747"><ele>1035.0</ele><time>2026-04-05T07:54:44Z</time></trkpt><trkpt lat="44.8635347621309" lon="3.183599933541765"><ele>1033.25</ele><time>2026-04-05T07:54:45Z</time></trkpt><trkpt lat="44.86339130010323" lon="3.183556254428499"><ele>1031.5</ele><time>2026-04-05T07:54:46Z</time></trkpt><trkpt lat="44.86328278076273" lon="3.1835393435079364"><ele>1029.75</ele><time>2026-04-05T07:54:47Z</time></trkpt><trkpt lat="44.86319453270942" lon="3.1835851867143434"><ele>1028.0</ele><time>2026-04-05T07:54:48Z</time></trkpt><trkpt lat="44.86309880726028" lon="3.1836440701818884"><ele>1028.0</ele><time>2026-04-05T07:54:49Z</time></trkpt><trkpt lat="44.86302637486351" lon="3.183626555013726"><ele>1028.0</ele><time>2026-04-05T07:54:50Z</time></trkpt><trkpt lat="44.86296830355132" lon="3.183544627974866"><ele>1028.0</ele><time>2026-04-05T07:54:51Z</time></trkpt><trkpt lat="44.86290235392782" lon="3.1834136450408552"><ele>1028.0</ele><time>2026-04-05T07:54:52Z</time></trkpt><trkpt lat="44.86284392736419" lon="3.1832282067899946"><ele>1028.0</ele><time>2026-04-05T07:54:53Z</time></trkpt><trkpt lat="44.862803988836056" lon="3.183016596237187"><ele>1027.8</ele><time>2026-04-05T07:54:54Z</time></trkpt><trkpt lat="44.86279722598695" lon="3.1828774168975924"><ele>1027.6</ele><time>2026-04-05T07:54:55Z</time></trkpt><trkpt lat="44.86272470753457" lon="3.1827782835004608"><ele>1027.4</ele><time>2026-04-05T07:54:57Z</time></trkpt><trkpt lat="44.86264619714549" lon="3.182750325807175"><ele>1027.2</ele><time>2026-04-05T07:54:58Z</time></trkpt><trkpt lat="44.86253290341272" lon="3.1826798982262674"><ele>1027.0</ele><time>2026-04-05T07:54:59Z</time></trkpt><trkpt lat="44.862397466044044" lon="3.1825674902900385"><ele>1028.5</ele><time>2026-04-05T07:55:00Z</time></trkpt><trkpt lat="44.86224692801242" lon="3.1824408015192085"><ele>1030.0</ele><time>2026-04-05T07:55:01Z</time></trkpt><trkpt lat="44.86214381303697" lon="3.182336305938875"><ele>1031.5</ele><time>2026-04-05T07:55:02Z</time></trkpt><trkpt lat="44.86207723191508" lon="3.182216054422604"><ele>1033.0</ele><time>2026-04-05T07:55:03Z</time></trkpt><trkpt lat="44.86195239814267" lon="3.1820323098552072"><ele>1033.0</ele><time>2026-04-05T07:55:04Z</time></trkpt><trkpt lat="44.86183591397703" lon="3.1818236145452357"><ele>1033.0</ele><time>2026-04-05T07:55:04.999Z</time></trkpt><trkpt lat="44.86175419848295" lon="3.1816598142402777"><ele>1033.0</ele><time>2026-04-05T07:55:05.999Z</time></trkpt><trkpt lat="44.86168526238084" lon="3.181529914837406"><ele>1033.0</ele><time>2026-04-05T07:55:06.999Z</time></trkpt><trkpt lat="44.86159287551708" lon="3.1813601121756294"><ele>1036.0</ele><time>2026-04-05T07:55:07.999Z</time></trkpt><trkpt lat="44.86153793110108" lon="3.181232614710503"><ele>1039.0</ele><time>2026-04-05T07:55:08.999Z</time></trkpt><trkpt lat="44.86148798430137" lon="3.1810567704757076"><ele>1042.0</ele><time>2026-04-05T07:55:09.999Z</time></trkpt><trkpt lat="44.8614223967449" lon="3.180831617352023"><ele>1045.0</ele><time>2026-04-05T07:55:10.999Z</time></trkpt><trkpt lat="44.86136377882965" lon="3.1806322499189985"><ele>1046.0</ele><time>2026-04-05T07:55:11.999Z</time></trkpt><trkpt lat="44.861310398736926" lon="3.1804236864552387"><ele>1047.0</ele><time>2026-04-05T07:55:12.999Z</time></trkpt><trkpt lat="44.861241667643036" lon="3.1802149664516564"><ele>1048.0</ele><time>2026-04-05T07:55:13.999Z</time></trkpt><trkpt lat="44.86115976306892" lon="3.180009824492446"><ele>1048.0</ele><time>2026-04-05T07:55:14.999Z</time></trkpt><trkpt lat="44.86107123433563" lon="3.1797700319267777"><ele>1048.0</ele><time>2026-04-05T07:55:15.999Z</time></trkpt><trkpt lat="44.860997466843564" lon="3.179590349591757"><ele>1048.0</ele><time>2026-04-05T07:55:16.999Z</time></trkpt><trkpt lat="44.86091540686035" lon="3.1794015706427734"><ele>1049.6666666666665</ele><time>2026-04-05T07:55:17.999Z</time></trkpt><trkpt lat="44.86086033574523" lon="3.179194558976189"><ele>1051.3333333333333</ele><time>2026-04-05T07:55:18.999Z</time></trkpt><trkpt lat="44.860811790514276" lon="3.1789786496002854"><ele>1053.0</ele><time>2026-04-05T07:55:19.999Z</time></trkpt><trkpt lat="44.860730278872644" lon="3.1787778517315792"><ele>1053.0</ele><time>2026-04-05T07:55:20.999Z</time></trkpt><trkpt lat="44.86064018213234" lon="3.1786011376541965"><ele>1053.0</ele><time>2026-04-05T07:55:21.999Z</time></trkpt><trkpt lat="44.86056334915997" lon="3.178402375705278"><ele>1053.0</ele><time>2026-04-05T07:55:22.999Z</time></trkpt><trkpt lat="44.8604980039126" lon="3.1782030279643303"><ele>1053.25</ele><time>2026-04-05T07:55:23.999Z</time></trkpt><trkpt lat="44.860446473988745" lon="3.178029365831564"><ele>1053.5</ele><time>2026-04-05T07:55:24.999Z</time></trkpt><trkpt lat="44.86041795316933" lon="3.177859553219485"><ele>1053.75</ele><time>2026-04-05T07:55:25.999Z</time></trkpt><trkpt lat="44.86040691889379" lon="3.1776996835929"><ele>1054.0</ele><time>2026-04-05T07:55:26.999Z</time></trkpt><trkpt lat="44.86039809061081" lon="3.177558578214999"><ele>1054.0</ele><time>2026-04-05T07:55:27.999Z</time></trkpt><trkpt lat="44.86038509461133" lon="3.1774222992660546"><ele>1054.0</ele><time>2026-04-05T07:55:28.999Z</time></trkpt><trkpt lat="44.86038666558889" lon="3.177303088029144"><ele>1054.0</ele><time>2026-04-05T07:55:29.999Z</time></trkpt><trkpt lat="44.860377650510245" lon="3.1771742213564926"><ele>1054.0</ele><time>2026-04-05T07:55:30.999Z</time></trkpt><trkpt lat="44.86047848061616" lon="3.17711849335514"><ele>1054.0</ele><time>2026-04-05T07:55:32.999Z</time></trkpt><trkpt lat="44.86054831268069" lon="3.1770298455230894"><ele>1055.2</ele><time>2026-04-05T07:55:33.999Z</time></trkpt><trkpt lat="44.860641070599385" lon="3.176902915369037"><ele>1056.4</ele><time>2026-04-05T07:55:34.999Z</time></trkpt><trkpt lat="44.86064838172707" lon="3.176789215537272"><ele>1057.6</ele><time>2026-04-05T07:55:35.999Z</time></trkpt><trkpt lat="44.860633605011444" lon="3.176653014371356"><ele>1058.8</ele><time>2026-04-05T07:55:36.999Z</time></trkpt><trkpt lat="44.86061472958752" lon="3.176493580628689"><ele>1060.0</ele><time>2026-04-05T07:55:37.999Z</time></trkpt><trkpt lat="44.86060144059853" lon="3.1763266326122808"><ele>1060.0</ele><time>2026-04-05T07:55:38.999Z</time></trkpt><trkpt lat="44.86059607251486" lon="3.1762110735357134"><ele>1060.0</ele><time>2026-04-05T07:55:39.999Z</time></trkpt><trkpt lat="44.8606590858" lon="3.1760887704384606"><ele>1060.0</ele><time>2026-04-05T07:55:41.999Z</time></trkpt><trkpt lat="44.86072979188398" lon="3.1760470167002834"><ele>1060.0</ele><time>2026-04-05T07:55:42.999Z</time></trkpt><trkpt lat="44.860815102222496" lon="3.1760204960739085"><ele>1060.0</ele><time>2026-04-05T07:55:43.999Z</time></trkpt><trkpt lat="44.86090756251556" lon="3.175990387406838"><ele>1060.0</ele><time>2026-04-05T07:55:45Z</time></trkpt><trkpt lat="44.86099273823806" lon="3.1759431008961783"><ele>1060.0</ele><time>2026-04-05T07:55:46Z</time></trkpt><trkpt lat="44.861085961980514" lon="3.175870620526772"><ele>1060.0</ele><time>2026-04-05T07:55:47Z</time></trkpt><trkpt lat="44.86118692819053" lon="3.1757912202097316"><ele>1060.0</ele><time>2026-04-05T07:55:48Z</time></trkpt><trkpt lat="44.86129629488728" lon="3.1757103611841395"><ele>1060.0</ele><time>2026-04-05T07:55:49Z</time></trkpt><trkpt lat="44.8614108195788" lon="3.1756294381442713"><ele>1059.5</ele><time>2026-04-05T07:55:50Z</time></trkpt><trkpt lat="44.86152123274579" lon="3.175547250745154"><ele>1059.0</ele><time>2026-04-05T07:55:51Z</time></trkpt><trkpt lat="44.861629062076354" lon="3.1754632710746966"><ele>1058.5</ele><time>2026-04-05T07:55:52Z</time></trkpt><trkpt lat="44.86173948380155" lon="3.175377304834671"><ele>1058.0</ele><time>2026-04-05T07:55:53Z</time></trkpt><trkpt lat="44.86185919059043" lon="3.1753037077156"><ele>1058.0</ele><time>2026-04-05T07:55:54Z</time></trkpt><trkpt lat="44.86198387618453" lon="3.1752201355990057"><ele>1058.0</ele><time>2026-04-05T07:55:55Z</time></trkpt><trkpt lat="44.86210718185387" lon="3.175140419638497"><ele>1058.0</ele><time>2026-04-05T07:55:56Z</time></trkpt><trkpt lat="44.86221834884401" lon="3.175073306070702"><ele>1058.0</ele><time>2026-04-05T07:55:57Z</time></trkpt><trkpt lat="44.86231932900816" lon="3.175020111533554"><ele>1058.0</ele><time>2026-04-05T07:55:58Z</time></trkpt><trkpt lat="44.86241106648586" lon="3.174968649506871"><ele>1058.0</ele><time>2026-04-05T07:55:59Z</time></trkpt><trkpt lat="44.86248619040601" lon="3.1749002718542045"><ele>1058.0</ele><time>2026-04-05T07:56:00Z</time></trkpt><trkpt lat="44.8625455119967" lon="3.1748017304296323"><ele>1058.0</ele><time>2026-04-05T07:56:01Z</time></trkpt><trkpt lat="44.862584450149775" lon="3.1746641130288777"><ele>1058.0</ele><time>2026-04-05T07:56:02Z</time></trkpt><trkpt lat="44.862623394898975" lon="3.1744806797028016"><ele>1056.0</ele><time>2026-04-05T07:56:03Z</time></trkpt><trkpt lat="44.86270048961731" lon="3.174304239127863"><ele>1054.0</ele><time>2026-04-05T07:56:04Z</time></trkpt><trkpt lat="44.86277910518847" lon="3.174077341843376"><ele>1052.0</ele><time>2026-04-05T07:56:05Z</time></trkpt><trkpt lat="44.86285797563215" lon="3.1738917708911347"><ele>1051.0</ele><time>2026-04-05T07:56:06Z</time></trkpt><trkpt lat="44.862905784630044" lon="3.1737489373930394"><ele>1050.0</ele><time>2026-04-05T07:56:07Z</time></trkpt><trkpt lat="44.86296875483033" lon="3.1736431429367795"><ele>1049.0</ele><time>2026-04-05T07:56:08Z</time></trkpt><trkpt lat="44.86310050078939" lon="3.17362498438526"><ele>1048.0</ele><time>2026-04-05T07:56:09Z</time></trkpt><trkpt lat="44.863243911290695" lon="3.1735847336273215"><ele>1048.0</ele><time>2026-04-05T07:56:10Z</time></trkpt><trkpt lat="44.863413084580365" lon="3.1735151084053204"><ele>1048.0</ele><time>2026-04-05T07:56:11Z</time></trkpt><trkpt lat="44.863585912011565" lon="3.173462623608511"><ele>1048.0</ele><time>2026-04-05T07:56:12Z</time></trkpt><trkpt lat="44.86372112912928" lon="3.1733880419177116"><ele>1049.0</ele><time>2026-04-05T07:56:13Z</time></trkpt><trkpt lat="44.86384086192422" lon="3.173284650472856"><ele>1050.0</ele><time>2026-04-05T07:56:14Z</time></trkpt><trkpt lat="44.86394922077139" lon="3.1731361403788263"><ele>1051.0</ele><time>2026-04-05T07:56:15Z</time></trkpt><trkpt lat="44.86408281704171" lon="3.1729305257742855"><ele>1051.0</ele><time>2026-04-05T07:56:16Z</time></trkpt><trkpt lat="44.864233674691846" lon="3.1727320173466396"><ele>1051.0</ele><time>2026-04-05T07:56:17Z</time></trkpt><trkpt lat="44.86436187925434" lon="3.172599243273543"><ele>1051.0</ele><time>2026-04-05T07:56:18Z</time></trkpt><trkpt lat="44.86448550356297" lon="3.172513777355644"><ele>1049.3333333333333</ele><time>2026-04-05T07:56:19Z</time></trkpt><trkpt lat="44.86462812789971" lon="3.1725290910255888"><ele>1047.6666666666667</ele><time>2026-04-05T07:56:20Z</time></trkpt><trkpt lat="44.86480715088976" lon="3.1725235105083223"><ele>1046.0</ele><time>2026-04-05T07:56:21Z</time></trkpt><trkpt lat="44.86500806815944" lon="3.172509956025261"><ele>1042.5</ele><time>2026-04-05T07:56:22Z</time></trkpt><trkpt lat="44.8652288184043" lon="3.1724575556619548"><ele>1039.0</ele><time>2026-04-05T07:56:23Z</time></trkpt><trkpt lat="44.86546042214666" lon="3.1723700756207727"><ele>1045.5</ele><time>2026-04-05T07:56:24Z</time></trkpt><trkpt lat="44.86569316255722" lon="3.1722714380182615"><ele>1052.0</ele><time>2026-04-05T07:56:25Z</time></trkpt><trkpt lat="44.86589822810939" lon="3.1721761707071834"><ele>1049.0</ele><time>2026-04-05T07:56:26Z</time></trkpt><trkpt lat="44.86609776330713" lon="3.1721067305421045"><ele>1046.0</ele><time>2026-04-05T07:56:27Z</time></trkpt><trkpt lat="44.8662748311335" lon="3.1719771550066036"><ele>1043.0</ele><time>2026-04-05T07:56:28Z</time></trkpt><trkpt lat="44.86646159599211" lon="3.171845606356252"><ele>1043.0</ele><time>2026-04-05T07:56:29Z</time></trkpt><trkpt lat="44.86665864004533" lon="3.171693951964599"><ele>1043.0</ele><time>2026-04-05T07:56:30Z</time></trkpt><trkpt lat="44.86686840873435" lon="3.1716521345098583"><ele>1043.0</ele><time>2026-04-05T07:56:31Z</time></trkpt><trkpt lat="44.86702798693179" lon="3.171522978991255"><ele>1043.0</ele><time>2026-04-05T07:56:32Z</time></trkpt><trkpt lat="44.86716891014385" lon="3.171434188616202"><ele>1043.0</ele><time>2026-04-05T07:56:33Z</time></trkpt><trkpt lat="44.867277790992034" lon="3.1713399397925777"><ele>1043.0</ele><time>2026-04-05T07:56:34Z</time></trkpt><trkpt lat="44.867361314273396" lon="3.171223273708665"><ele>1043.0</ele><time>2026-04-05T07:56:35Z</time></trkpt><trkpt lat="44.86743468995399" lon="3.1710804077247996"><ele>1043.0</ele><time>2026-04-05T07:56:36Z</time></trkpt><trkpt lat="44.8674742276264" lon="3.170877706347591"><ele>1043.0</ele><time>2026-04-05T07:56:37Z</time></trkpt><trkpt lat="44.86752651357648" lon="3.1706532971658614"><ele>1043.0</ele><time>2026-04-05T07:56:38Z</time></trkpt><trkpt lat="44.86756299800799" lon="3.170435645388143"><ele>1041.8</ele><time>2026-04-05T07:56:39Z</time></trkpt><trkpt lat="44.86764260032707" lon="3.1703150095777692"><ele>1040.6</ele><time>2026-04-05T07:56:40Z</time></trkpt><trkpt lat="44.86769505589044" lon="3.1701854947878365"><ele>1039.4</ele><time>2026-04-05T07:56:41Z</time></trkpt><trkpt lat="44.86776745579604" lon="3.1700700227281597"><ele>1038.2</ele><time>2026-04-05T07:56:42Z</time></trkpt><trkpt lat="44.8678469610649" lon="3.1699872136271603"><ele>1037.0</ele><time>2026-04-05T07:56:43Z</time></trkpt><trkpt lat="44.86791224805061" lon="3.169902768575616"><ele>1037.6666666666667</ele><time>2026-04-05T07:56:44Z</time></trkpt><trkpt lat="44.86795859207907" lon="3.1698122881808746"><ele>1038.3333333333335</ele><time>2026-04-05T07:56:45Z</time></trkpt><trkpt lat="44.86802043390938" lon="3.169762835557502"><ele>1039.0</ele><time>2026-04-05T07:56:46Z</time></trkpt><trkpt lat="44.868067933705504" lon="3.169701397389903"><ele>1039.6666666666667</ele><time>2026-04-05T07:56:47Z</time></trkpt><trkpt lat="44.86814128259819" lon="3.169617974028619"><ele>1040.3333333333333</ele><time>2026-04-05T07:56:49Z</time></trkpt><trkpt lat="44.86822108548953" lon="3.1695450441039577"><ele>1041.0</ele><time>2026-04-05T07:56:51Z</time></trkpt><trkpt lat="44.8682827283876" lon="3.169507042376638"><ele>1041.0</ele><time>2026-04-05T07:56:52Z</time></trkpt><trkpt lat="44.86836081597373" lon="3.16950678815436"><ele>1041.0</ele><time>2026-04-05T07:56:53Z</time></trkpt><trkpt lat="44.86842393025387" lon="3.1694049369924846"><ele>1041.0</ele><time>2026-04-05T07:56:54Z</time></trkpt><trkpt lat="44.86849437441845" lon="3.169353500670762"><ele>1041.0</ele><time>2026-04-05T07:56:55Z</time></trkpt><trkpt lat="44.86855429028009" lon="3.1693059845791702"><ele>1041.0</ele><time>2026-04-05T07:56:56Z</time></trkpt><trkpt lat="44.86864148672103" lon="3.1692308423543105"><ele>1041.0</ele><time>2026-04-05T07:56:58Z</time></trkpt><trkpt lat="44.86871858630152" lon="3.1691462595365048"><ele>1040.0</ele><time>2026-04-05T07:57:00Z</time></trkpt><trkpt lat="44.8687127430311" lon="3.1690374692933414"><ele>1039.0</ele><time>2026-04-05T07:57:01Z</time></trkpt><trkpt lat="44.86870983876971" lon="3.168936245877183"><ele>1038.0</ele><time>2026-04-05T07:57:02Z</time></trkpt><trkpt lat="44.86871596141135" lon="3.168842615816108"><ele>1037.0</ele><time>2026-04-05T07:57:03Z</time></trkpt><trkpt lat="44.86879699064239" lon="3.1687060107714617"><ele>1036.0</ele><time>2026-04-05T07:57:04.999Z</time></trkpt><trkpt lat="44.868838360960474" lon="3.1686390158044055"><ele>1035.0</ele><time>2026-04-05T07:57:05.999Z</time></trkpt><trkpt lat="44.8688710872775" lon="3.1685423097209737"><ele>1034.5</ele><time>2026-04-05T07:57:06.999Z</time></trkpt><trkpt lat="44.86885668052964" lon="3.168437019370093"><ele>1034.0</ele><time>2026-04-05T07:57:07.999Z</time></trkpt><trkpt lat="44.86881977688789" lon="3.1683601623320623"><ele>1033.5</ele><time>2026-04-05T07:57:08.999Z</time></trkpt><trkpt lat="44.86878661478697" lon="3.168259367059962"><ele>1033.0</ele><time>2026-04-05T07:57:09.999Z</time></trkpt><trkpt lat="44.86873748264418" lon="3.1681486267734495"><ele>1032.5</ele><time>2026-04-05T07:57:10.999Z</time></trkpt><trkpt lat="44.8686812006713" lon="3.1680217711190743"><ele>1032.0</ele><time>2026-04-05T07:57:11.999Z</time></trkpt><trkpt lat="44.86862792655826" lon="3.1678911840154353"><ele>1030.25</ele><time>2026-04-05T07:57:12.999Z</time></trkpt><trkpt lat="44.86857689530001" lon="3.1677544797346715"><ele>1028.5</ele><time>2026-04-05T07:57:13.999Z</time></trkpt><trkpt lat="44.868605825496445" lon="3.16758690404032"><ele>1026.75</ele><time>2026-04-05T07:57:14.999Z</time></trkpt><trkpt lat="44.868582260106734" lon="3.1673997014382023"><ele>1025.0</ele><time>2026-04-05T07:57:15.999Z</time></trkpt><trkpt lat="44.86856716625058" lon="3.1672178444629933"><ele>1023.25</ele><time>2026-04-05T07:57:16.999Z</time></trkpt><trkpt lat="44.868532854617776" lon="3.1670754612030563"><ele>1021.5</ele><time>2026-04-05T07:57:17.999Z</time></trkpt><trkpt lat="44.868476931697124" lon="3.1669115398909398"><ele>1019.75</ele><time>2026-04-05T07:57:18.999Z</time></trkpt><trkpt lat="44.868470819862175" lon="3.1667330136970886"><ele>1018.0</ele><time>2026-04-05T07:57:19.999Z</time></trkpt><trkpt lat="44.86848158182077" lon="3.1665743502497428"><ele>1017.0</ele><time>2026-04-05T07:57:20.999Z</time></trkpt><trkpt lat="44.86848669900914" lon="3.1663893310060462"><ele>1016.0</ele><time>2026-04-05T07:57:21.999Z</time></trkpt><trkpt lat="44.86848992274225" lon="3.166183838899068"><ele>1015.0</ele><time>2026-04-05T07:57:22.999Z</time></trkpt><trkpt lat="44.86849473339554" lon="3.16601120967588"><ele>1014.0</ele><time>2026-04-05T07:57:23.999Z</time></trkpt><trkpt lat="44.86853834131617" lon="3.1658564416134083"><ele>1011.6666666666667</ele><time>2026-04-05T07:57:24.999Z</time></trkpt><trkpt lat="44.86857992488218" lon="3.165634506823642"><ele>1009.3333333333334</ele><time>2026-04-05T07:57:25.999Z</time></trkpt><trkpt lat="44.86861040819723" lon="3.165409475807085"><ele>1007.0</ele><time>2026-04-05T07:57:26.999Z</time></trkpt><trkpt lat="44.868649506919716" lon="3.165177369889136"><ele>1007.0</ele><time>2026-04-05T07:57:27.999Z</time></trkpt><trkpt lat="44.86869526757946" lon="3.164961580446753"><ele>1007.0</ele><time>2026-04-05T07:57:28.999Z</time></trkpt><trkpt lat="44.868746040547244" lon="3.164726442778619"><ele>1007.0</ele><time>2026-04-05T07:57:29.999Z</time></trkpt><trkpt lat="44.8687919838461" lon="3.1644917441876563"><ele>1006.6666666666667</ele><time>2026-04-05T07:57:30.999Z</time></trkpt><trkpt lat="44.86884425028384" lon="3.1642664873772333"><ele>1006.3333333333333</ele><time>2026-04-05T07:57:31.999Z</time></trkpt><trkpt lat="44.86888545501141" lon="3.1640748656447055"><ele>1006.0</ele><time>2026-04-05T07:57:32.999Z</time></trkpt><trkpt lat="44.868918834148545" lon="3.163883271364084"><ele>1004.75</ele><time>2026-04-05T07:57:33.999Z</time></trkpt><trkpt lat="44.86895091149989" lon="3.163706593967453"><ele>1003.5</ele><time>2026-04-05T07:57:34.999Z</time></trkpt><trkpt lat="44.8689734524131" lon="3.163545723047903"><ele>1002.25</ele><time>2026-04-05T07:57:35.999Z</time></trkpt><trkpt lat="44.86899460681113" lon="3.1633851773417305"><ele>1001.0</ele><time>2026-04-05T07:57:36.999Z</time></trkpt><trkpt lat="44.86901073082214" lon="3.163249439362745"><ele>1000.0</ele><time>2026-04-05T07:57:37.999Z</time></trkpt><trkpt lat="44.869018615836666" lon="3.163156124370618"><ele>998.9999999999999</ele><time>2026-04-05T07:57:38.999Z</time></trkpt><trkpt lat="44.86905792584989" lon="3.163025822081998"><ele>997.9999999999999</ele><time>2026-04-05T07:57:40.999Z</time></trkpt><trkpt lat="44.869140281128416" lon="3.1628479941479797"><ele>997.0</ele><time>2026-04-05T07:57:42.999Z</time></trkpt><trkpt lat="44.869188667046615" lon="3.16269401532191"><ele>996.0</ele><time>2026-04-05T07:57:43.999Z</time></trkpt><trkpt lat="44.86921241277192" lon="3.1624989769905514"><ele>995.3333333333333</ele><time>2026-04-05T07:57:44.999Z</time></trkpt><trkpt lat="44.86924329627357" lon="3.1622806732522326"><ele>994.6666666666666</ele><time>2026-04-05T07:57:45.999Z</time></trkpt><trkpt lat="44.8692908766814" lon="3.1620570602527156"><ele>994.0</ele><time>2026-04-05T07:57:46.999Z</time></trkpt><trkpt lat="44.86935864127097" lon="3.161848566946038"><ele>994.0</ele><time>2026-04-05T07:57:47.999Z</time></trkpt><trkpt lat="44.86944662091514" lon="3.1616676646732067"><ele>994.0</ele><time>2026-04-05T07:57:48.999Z</time></trkpt><trkpt lat="44.86955627056863" lon="3.1615074862123214"><ele>994.0</ele><time>2026-04-05T07:57:49.999Z</time></trkpt><trkpt lat="44.8696725511793" lon="3.1613850229838274"><ele>996.25</ele><time>2026-04-05T07:57:51Z</time></trkpt><trkpt lat="44.869792779249316" lon="3.161317595339534"><ele>998.5</ele><time>2026-04-05T07:57:52Z</time></trkpt><trkpt lat="44.869929256259844" lon="3.161348787513819"><ele>1000.75</ele><time>2026-04-05T07:57:53Z</time></trkpt><trkpt lat="44.87006496406935" lon="3.1613125308033725"><ele>1003.0</ele><time>2026-04-05T07:57:54Z</time></trkpt><trkpt lat="44.87017499687666" lon="3.161288197813707"><ele>1003.0</ele><time>2026-04-05T07:57:55Z</time></trkpt><trkpt lat="44.87025568687593" lon="3.1612354191241065"><ele>1003.0</ele><time>2026-04-05T07:57:56Z</time></trkpt><trkpt lat="44.87031637198883" lon="3.1611811355378387"><ele>1003.0</ele><time>2026-04-05T07:57:57Z</time></trkpt><trkpt lat="44.87041124885655" lon="3.1611089875213643"><ele>1003.0</ele><time>2026-04-05T07:57:59Z</time></trkpt><trkpt lat="44.87052286459887" lon="3.16104167445962"><ele>1003.0</ele><time>2026-04-05T07:58:01Z</time></trkpt><trkpt lat="44.87061116167849" lon="3.16097706566737"><ele>1003.0</ele><time>2026-04-05T07:58:02Z</time></trkpt><trkpt lat="44.870687590255535" lon="3.1608977063470296"><ele>1003.0</ele><time>2026-04-05T07:58:03Z</time></trkpt><trkpt lat="44.87075111274928" lon="3.1608292735806023"><ele>1003.0</ele><time>2026-04-05T07:58:04Z</time></trkpt><trkpt lat="44.87083754872328" lon="3.1607302659233008"><ele>1003.0</ele><time>2026-04-05T07:58:05Z</time></trkpt><trkpt lat="44.870923072115666" lon="3.160622993071957"><ele>1003.0</ele><time>2026-04-05T07:58:06Z</time></trkpt><trkpt lat="44.8709907103863" lon="3.16053504510562"><ele>1003.0</ele><time>2026-04-05T07:58:07Z</time></trkpt><trkpt lat="44.87104672815136" lon="3.1604703005203194"><ele>1003.0</ele><time>2026-04-05T07:58:08Z</time></trkpt><trkpt lat="44.8711114547084" lon="3.1603730257849674"><ele>1003.0</ele><time>2026-04-05T07:58:09Z</time></trkpt><trkpt lat="44.87119461435064" lon="3.160267047031896"><ele>1003.0</ele><time>2026-04-05T07:58:11Z</time></trkpt><trkpt lat="44.8709541773115" lon="3.159445698247868"><ele>1005.4999999999999</ele><time>2026-04-05T07:58:12Z</time></trkpt><trkpt lat="44.87098103358166" lon="3.159326875184904"><ele>1008.0</ele><time>2026-04-05T07:58:13Z</time></trkpt><trkpt lat="44.87098405368328" lon="3.159224536199413"><ele>1010.5</ele><time>2026-04-05T07:58:15Z</time></trkpt><trkpt lat="44.87091174859922" lon="3.1592142812195485"><ele>1013.0</ele><time>2026-04-05T07:58:18Z</time></trkpt><trkpt lat="44.87079773140979" lon="3.159207032908512"><ele>1015.4999999999999</ele><time>2026-04-05T07:58:20Z</time></trkpt><trkpt lat="44.87082602204714" lon="3.1590968617898567"><ele>1018.0</ele><time>2026-04-05T07:58:22Z</time></trkpt><trkpt lat="44.87094607619601" lon="3.159003027882287"><ele>1020.2</ele><time>2026-04-05T07:58:24Z</time></trkpt><trkpt lat="44.871008405366226" lon="3.1589279175408187"><ele>1022.4</ele><time>2026-04-05T07:58:25Z</time></trkpt><trkpt lat="44.8710663421861" lon="3.158835205879215"><ele>1024.6000000000001</ele><time>2026-04-05T07:58:26Z</time></trkpt><trkpt lat="44.871116309886816" lon="3.158715405963121"><ele>1026.8</ele><time>2026-04-05T07:58:27Z</time></trkpt><trkpt lat="44.871164327658235" lon="3.1585952954189387"><ele>1029.0</ele><time>2026-04-05T07:58:28Z</time></trkpt><trkpt lat="44.87122620868086" lon="3.1584872931900114"><ele>1029.0</ele><time>2026-04-05T07:58:29Z</time></trkpt><trkpt lat="44.87129778262081" lon="3.1583994971261213"><ele>1029.0</ele><time>2026-04-05T07:58:30Z</time></trkpt><trkpt lat="44.87136181622256" lon="3.158354845011304"><ele>1029.0</ele><time>2026-04-05T07:58:31Z</time></trkpt><trkpt lat="44.871440530484406" lon="3.1583344767721275"><ele>1029.0</ele><time>2026-04-05T07:58:32Z</time></trkpt><trkpt lat="44.871541897798394" lon="3.1583249809419813"><ele>1029.0</ele><time>2026-04-05T07:58:33Z</time></trkpt><trkpt lat="44.87166151030819" lon="3.158322883510486"><ele>1029.25</ele><time>2026-04-05T07:58:34Z</time></trkpt><trkpt lat="44.87179636403941" lon="3.1583034650065174"><ele>1029.5</ele><time>2026-04-05T07:58:35Z</time></trkpt><trkpt lat="44.87193119815281" lon="3.158255648955802"><ele>1029.75</ele><time>2026-04-05T07:58:36Z</time></trkpt><trkpt lat="44.87205591608484" lon="3.1581712961408526"><ele>1030.0</ele><time>2026-04-05T07:58:37Z</time></trkpt><trkpt lat="44.872194018060405" lon="3.1580870093539968"><ele>1030.0</ele><time>2026-04-05T07:58:38Z</time></trkpt><trkpt lat="44.87233342223946" lon="3.158017526450706"><ele>1030.0</ele><time>2026-04-05T07:58:39Z</time></trkpt><trkpt lat="44.872480153407054" lon="3.1579341930608815"><ele>1030.0</ele><time>2026-04-05T07:58:40Z</time></trkpt><trkpt lat="44.87262242458907" lon="3.157824419425134"><ele>1031.0</ele><time>2026-04-05T07:58:41Z</time></trkpt><trkpt lat="44.87275444130937" lon="3.15767855859281"><ele>1032.0</ele><time>2026-04-05T07:58:42Z</time></trkpt><trkpt lat="44.87288982223308" lon="3.1575110382286837"><ele>1033.0</ele><time>2026-04-05T07:58:43Z</time></trkpt><trkpt lat="44.87303561579229" lon="3.1573206612662803"><ele>1033.6666666666665</ele><time>2026-04-05T07:58:44Z</time></trkpt><trkpt lat="44.87315062811088" lon="3.157095902599591"><ele>1034.3333333333333</ele><time>2026-04-05T07:58:45Z</time></trkpt><trkpt lat="44.87323071990536" lon="3.156868735947406"><ele>1035.0</ele><time>2026-04-05T07:58:46Z</time></trkpt><trkpt lat="44.873291679941005" lon="3.1565933314816665"><ele>1034.6666666666667</ele><time>2026-04-05T07:58:47Z</time></trkpt><trkpt lat="44.87333597616519" lon="3.1563197979478717"><ele>1034.3333333333335</ele><time>2026-04-05T07:58:48Z</time></trkpt><trkpt lat="44.87338400760586" lon="3.1560957688489264"><ele>1034.0</ele><time>2026-04-05T07:58:49Z</time></trkpt><trkpt lat="44.873470546329955" lon="3.155918705406532"><ele>1035.0</ele><time>2026-04-05T07:58:50Z</time></trkpt><trkpt lat="44.87356272682294" lon="3.155772257883783"><ele>1036.0</ele><time>2026-04-05T07:58:51Z</time></trkpt><trkpt lat="44.87369552147259" lon="3.1556077781939247"><ele>1037.0</ele><time>2026-04-05T07:58:52Z</time></trkpt><trkpt lat="44.87385014374273" lon="3.1554535209326464"><ele>1037.0</ele><time>2026-04-05T07:58:53Z</time></trkpt><trkpt lat="44.874020171728496" lon="3.155287308777522"><ele>1037.0</ele><time>2026-04-05T07:58:54Z</time></trkpt><trkpt lat="44.8741749358547" lon="3.155182194951656"><ele>1037.0</ele><time>2026-04-05T07:58:55Z</time></trkpt><trkpt lat="44.87432004663574" lon="3.155096155541137"><ele>1037.6666666666667</ele><time>2026-04-05T07:58:56Z</time></trkpt><trkpt lat="44.8744679059117" lon="3.1550070746396197"><ele>1038.3333333333333</ele><time>2026-04-05T07:58:57Z</time></trkpt><trkpt lat="44.87460956085654" lon="3.1549204587007957"><ele>1039.0</ele><time>2026-04-05T07:58:58Z</time></trkpt><trkpt lat="44.874752383092414" lon="3.1548324439736777"><ele>1039.75</ele><time>2026-04-05T07:58:58.999Z</time></trkpt><trkpt lat="44.87488604889791" lon="3.1547370528141743"><ele>1040.5</ele><time>2026-04-05T07:58:59.999Z</time></trkpt><trkpt lat="44.875006395554955" lon="3.154629006359435"><ele>1041.25</ele><time>2026-04-05T07:59:00.999Z</time></trkpt><trkpt lat="44.87512827100226" lon="3.1545105567142153"><ele>1042.0</ele><time>2026-04-05T07:59:01.999Z</time></trkpt><trkpt lat="44.87525760334744" lon="3.1543974625888622"><ele>1042.0</ele><time>2026-04-05T07:59:02.999Z</time></trkpt><trkpt lat="44.87540016969932" lon="3.154316077810245"><ele>1042.0</ele><time>2026-04-05T07:59:03.999Z</time></trkpt><trkpt lat="44.87552295111974" lon="3.154205880456841"><ele>1042.0</ele><time>2026-04-05T07:59:04.999Z</time></trkpt><trkpt lat="44.87565651215521" lon="3.1541125198309814"><ele>1042.0</ele><time>2026-04-05T07:59:05.999Z</time></trkpt><trkpt lat="44.875796291312064" lon="3.154014001442017"><ele>1042.0</ele><time>2026-04-05T07:59:06.999Z</time></trkpt><trkpt lat="44.875931811356736" lon="3.15391754000193"><ele>1042.0</ele><time>2026-04-05T07:59:07.999Z</time></trkpt><trkpt lat="44.87606184853835" lon="3.153835387847636"><ele>1042.0</ele><time>2026-04-05T07:59:08.999Z</time></trkpt><trkpt lat="44.87618591591885" lon="3.1537628758294387"><ele>1042.0</ele><time>2026-04-05T07:59:09.999Z</time></trkpt><trkpt lat="44.87632399454478" lon="3.15366982748974"><ele>1041.25</ele><time>2026-04-05T07:59:10.999Z</time></trkpt><trkpt lat="44.87644378803565" lon="3.153570541028133"><ele>1040.5</ele><time>2026-04-05T07:59:11.999Z</time></trkpt><trkpt lat="44.876562781787705" lon="3.153452697072216"><ele>1039.75</ele><time>2026-04-05T07:59:12.999Z</time></trkpt><trkpt lat="44.87670060705694" lon="3.153384179853025"><ele>1039.0</ele><time>2026-04-05T07:59:13.999Z</time></trkpt><trkpt lat="44.876830733606376" lon="3.153321964936731"><ele>1039.0</ele><time>2026-04-05T07:59:14.999Z</time></trkpt><trkpt lat="44.87697358773719" lon="3.1532696436401535"><ele>1039.0</ele><time>2026-04-05T07:59:15.999Z</time></trkpt><trkpt lat="44.877117844776464" lon="3.153216094306756"><ele>1039.0</ele><time>2026-04-05T07:59:16.999Z</time></trkpt><trkpt lat="44.87726332171543" lon="3.1531630491514866"><ele>1039.0</ele><time>2026-04-05T07:59:17.999Z</time></trkpt><trkpt lat="44.87740575287899" lon="3.153113645915669"><ele>1038.6666666666665</ele><time>2026-04-05T07:59:18.999Z</time></trkpt><trkpt lat="44.877562600332844" lon="3.1530582396170783"><ele>1038.3333333333333</ele><time>2026-04-05T07:59:19.999Z</time></trkpt><trkpt lat="44.87769952044813" lon="3.1529793758464466"><ele>1038.0</ele><time>2026-04-05T07:59:20.999Z</time></trkpt><trkpt lat="44.87785222449416" lon="3.152907680258601"><ele>1039.6666666666667</ele><time>2026-04-05T07:59:21.999Z</time></trkpt><trkpt lat="44.87799342385077" lon="3.1528129320940192"><ele>1041.3333333333335</ele><time>2026-04-05T07:59:22.999Z</time></trkpt><trkpt lat="44.87813314983414" lon="3.1527037947123384"><ele>1043.0</ele><time>2026-04-05T07:59:23.999Z</time></trkpt><trkpt lat="44.87828865241688" lon="3.152664721240335"><ele>1042.6666666666667</ele><time>2026-04-05T07:59:24.999Z</time></trkpt><trkpt lat="44.87844680420474" lon="3.152612512815952"><ele>1042.3333333333333</ele><time>2026-04-05T07:59:25.999Z</time></trkpt><trkpt lat="44.87859855687472" lon="3.1525437848316256"><ele>1042.0</ele><time>2026-04-05T07:59:26.999Z</time></trkpt><trkpt lat="44.878760193817506" lon="3.152495220600392"><ele>1042.0</ele><time>2026-04-05T07:59:27.999Z</time></trkpt><trkpt lat="44.87892103417526" lon="3.1524426589205774"><ele>1042.0</ele><time>2026-04-05T07:59:28.999Z</time></trkpt><trkpt lat="44.87908337575856" lon="3.1523850286547734"><ele>1042.0</ele><time>2026-04-05T07:59:29.999Z</time></trkpt><trkpt lat="44.87924210763518" lon="3.1523262424191136"><ele>1043.0</ele><time>2026-04-05T07:59:30.999Z</time></trkpt><trkpt lat="44.87940762999017" lon="3.1522598271823647"><ele>1044.0</ele><time>2026-04-05T07:59:31.999Z</time></trkpt><trkpt lat="44.87956469086214" lon="3.1521873552298363"><ele>1045.0</ele><time>2026-04-05T07:59:32.999Z</time></trkpt><trkpt lat="44.879726607903386" lon="3.152100051724652"><ele>1045.0</ele><time>2026-04-05T07:59:33.999Z</time></trkpt><trkpt lat="44.87988041116114" lon="3.152038403062367"><ele>1045.0</ele><time>2026-04-05T07:59:34.999Z</time></trkpt><trkpt lat="44.88003963188559" lon="3.151941915618989"><ele>1045.0</ele><time>2026-04-05T07:59:35.999Z</time></trkpt><trkpt lat="44.880163146727725" lon="3.1518523021464775"><ele>1044.0</ele><time>2026-04-05T07:59:36.999Z</time></trkpt><trkpt lat="44.88026934787542" lon="3.1517339081344518"><ele>1043.0</ele><time>2026-04-05T07:59:37.999Z</time></trkpt><trkpt lat="44.880379728372176" lon="3.1516220595615465"><ele>1042.0</ele><time>2026-04-05T07:59:38.999Z</time></trkpt><trkpt lat="44.88047698652805" lon="3.1514961914014266"><ele>1041.0</ele><time>2026-04-05T07:59:39.999Z</time></trkpt><trkpt lat="44.880543681035554" lon="3.151375611669675"><ele>1040.75</ele><time>2026-04-05T07:59:40.999Z</time></trkpt><trkpt lat="44.88057496614448" lon="3.1512346924642824"><ele>1040.5</ele><time>2026-04-05T07:59:41.999Z</time></trkpt><trkpt lat="44.88057266802355" lon="3.1510596326752385"><ele>1040.25</ele><time>2026-04-05T07:59:42.999Z</time></trkpt><trkpt lat="44.88051677730952" lon="3.1508593933230795"><ele>1040.0</ele><time>2026-04-05T07:59:43.999Z</time></trkpt><trkpt lat="44.88048402156337" lon="3.150612815026119"><ele>1040.6666666666667</ele><time>2026-04-05T07:59:44.999Z</time></trkpt><trkpt lat="44.880452437399164" lon="3.150374419283016"><ele>1041.3333333333333</ele><time>2026-04-05T07:59:45.999Z</time></trkpt><trkpt lat="44.880411385874794" lon="3.150149544251568"><ele>1042.0</ele><time>2026-04-05T07:59:46.999Z</time></trkpt><trkpt lat="44.88037427343914" lon="3.1498685183072777"><ele>1042.3333333333333</ele><time>2026-04-05T07:59:47.999Z</time></trkpt><trkpt lat="44.88032207027801" lon="3.149630327207442"><ele>1042.6666666666667</ele><time>2026-04-05T07:59:48.999Z</time></trkpt><trkpt lat="44.880266539459726" lon="3.149436923020539"><ele>1043.0</ele><time>2026-04-05T07:59:49.999Z</time></trkpt><trkpt lat="44.88026598247447" lon="3.1492434098620397"><ele>1043.0</ele><time>2026-04-05T07:59:50.999Z</time></trkpt><trkpt lat="44.88030383863816" lon="3.149044949450792"><ele>1043.0</ele><time>2026-04-05T07:59:51.999Z</time></trkpt><trkpt lat="44.88035837509461" lon="3.1488105708958862"><ele>1043.0</ele><time>2026-04-05T07:59:52.999Z</time></trkpt><trkpt lat="44.88043810622384" lon="3.148556427087224"><ele>1041.6666666666667</ele><time>2026-04-05T07:59:53.999Z</time></trkpt><trkpt lat="44.880527330847585" lon="3.148275872455729"><ele>1040.3333333333333</ele><time>2026-04-05T07:59:54.999Z</time></trkpt><trkpt lat="44.88061618949713" lon="3.147995413303004"><ele>1039.0</ele><time>2026-04-05T07:59:55.999Z</time></trkpt><trkpt lat="44.88068510802367" lon="3.1477264591959795"><ele>1039.0</ele><time>2026-04-05T07:59:57Z</time></trkpt><trkpt lat="44.88075538592725" lon="3.1475176414740473"><ele>1039.0</ele><time>2026-04-05T07:59:58Z</time></trkpt><trkpt lat="44.88082162060542" lon="3.1473235440934677"><ele>1039.0</ele><time>2026-04-05T07:59:59Z</time></trkpt><trkpt lat="44.88088857758239" lon="3.1471198302964147"><ele>1038.75</ele><time>2026-04-05T08:00:00Z</time></trkpt><trkpt lat="44.880952436468064" lon="3.1469291168785682"><ele>1038.5</ele><time>2026-04-05T08:00:01Z</time></trkpt><trkpt lat="44.88103732512915" lon="3.146799474433975"><ele>1038.25</ele><time>2026-04-05T08:00:02Z</time></trkpt><trkpt lat="44.88114147062394" lon="3.1467235069609583"><ele>1038.0</ele><time>2026-04-05T08:00:03Z</time></trkpt><trkpt lat="44.88124750512327" lon="3.1466212977047032"><ele>1036.75</ele><time>2026-04-05T08:00:04Z</time></trkpt><trkpt lat="44.88134119094773" lon="3.146516523507989"><ele>1035.5</ele><time>2026-04-05T08:00:05Z</time></trkpt><trkpt lat="44.881370710135926" lon="3.1463506714230727"><ele>1034.25</ele><time>2026-04-05T08:00:06Z</time></trkpt><trkpt lat="44.88143224426784" lon="3.146172255695433"><ele>1033.0</ele><time>2026-04-05T08:00:07Z</time></trkpt><trkpt lat="44.881457609474445" lon="3.145974019294064"><ele>1033.0</ele><time>2026-04-05T08:00:08Z</time></trkpt><trkpt lat="44.88148543081089" lon="3.1458111794675223"><ele>1033.0</ele><time>2026-04-05T08:00:09Z</time></trkpt><trkpt lat="44.88153370535026" lon="3.14566434426937"><ele>1033.0</ele><time>2026-04-05T08:00:10Z</time></trkpt><trkpt lat="44.881578595086786" lon="3.145520892161348"><ele>1033.0</ele><time>2026-04-05T08:00:11Z</time></trkpt><trkpt lat="44.88162088838263" lon="3.145386777046394"><ele>1033.0</ele><time>2026-04-05T08:00:12Z</time></trkpt><trkpt lat="44.88166162350786" lon="3.1452576030843558"><ele>1031.6</ele><time>2026-04-05T08:00:13Z</time></trkpt><trkpt lat="44.88169959599678" lon="3.1451371892362068"><ele>1030.1999999999998</ele><time>2026-04-05T08:00:14Z</time></trkpt><trkpt lat="44.88174268409768" lon="3.145000553937768"><ele>1028.8</ele><time>2026-04-05T08:00:15Z</time></trkpt><trkpt lat="44.881775699473195" lon="3.144856729016095"><ele>1027.3999999999999</ele><time>2026-04-05T08:00:16Z</time></trkpt><trkpt lat="44.88182553091602" lon="3.144695564428968"><ele>1026.0</ele><time>2026-04-05T08:00:17Z</time></trkpt><trkpt lat="44.881883058080746" lon="3.144525257197637"><ele>1023.25</ele><time>2026-04-05T08:00:18Z</time></trkpt><trkpt lat="44.88191638316899" lon="3.144320278395743"><ele>1020.5</ele><time>2026-04-05T08:00:19Z</time></trkpt><trkpt lat="44.881935603637324" lon="3.144108871056014"><ele>1017.75</ele><time>2026-04-05T08:00:20Z</time></trkpt><trkpt lat="44.88195370362576" lon="3.143911002754651"><ele>1015.0</ele><time>2026-04-05T08:00:21Z</time></trkpt><trkpt lat="44.88197569291412" lon="3.143732553692996"><ele>1013.0</ele><time>2026-04-05T08:00:22Z</time></trkpt><trkpt lat="44.88199785153821" lon="3.143574776594283"><ele>1011.0</ele><time>2026-04-05T08:00:23Z</time></trkpt><trkpt lat="44.882019425671785" lon="3.143423617841228"><ele>1009.0</ele><time>2026-04-05T08:00:24Z</time></trkpt><trkpt lat="44.88204283387288" lon="3.1432866849739676"><ele>1007.0</ele><time>2026-04-05T08:00:25Z</time></trkpt><trkpt lat="44.88206814942241" lon="3.143159025227354"><ele>1005.0</ele><time>2026-04-05T08:00:26Z</time></trkpt><trkpt lat="44.8820995710774" lon="3.1430396316422233"><ele>1002.8</ele><time>2026-04-05T08:00:27Z</time></trkpt><trkpt lat="44.88214757627037" lon="3.1429369018901783"><ele>1000.6</ele><time>2026-04-05T08:00:28Z</time></trkpt><trkpt lat="44.88221341477576" lon="3.142849603186079"><ele>998.4000000000001</ele><time>2026-04-05T08:00:29Z</time></trkpt><trkpt lat="44.882300056396495" lon="3.1427759517141145"><ele>996.2</ele><time>2026-04-05T08:00:30Z</time></trkpt><trkpt lat="44.88238998889877" lon="3.142741307959375"><ele>994.0</ele><time>2026-04-05T08:00:31Z</time></trkpt><trkpt lat="44.88248601709289" lon="3.1426967239657904"><ele>993.9999999999999</ele><time>2026-04-05T08:00:32Z</time></trkpt><trkpt lat="44.8825545492245" lon="3.1426353196155885"><ele>994.0</ele><time>2026-04-05T08:00:33Z</time></trkpt><trkpt lat="44.88261137467557" lon="3.1425912495214026"><ele>994.0</ele><time>2026-04-05T08:00:34Z</time></trkpt><trkpt lat="44.882612651039445" lon="3.1424693028244497"><ele>994.0</ele><time>2026-04-05T08:00:35Z</time></trkpt><trkpt lat="44.8825896020756" lon="3.1423479235609784"><ele>993.9999999999999</ele><time>2026-04-05T08:00:36Z</time></trkpt><trkpt lat="44.88259753662891" lon="3.1422320700043413"><ele>994.0</ele><time>2026-04-05T08:00:37Z</time></trkpt><trkpt lat="44.88262107166775" lon="3.1421313657890457"><ele>992.2</ele><time>2026-04-05T08:00:38Z</time></trkpt><trkpt lat="44.88267336480844" lon="3.1420603748357077"><ele>990.4000000000001</ele><time>2026-04-05T08:00:39Z</time></trkpt><trkpt lat="44.882710494091064" lon="3.1419853883963524"><ele>988.6</ele><time>2026-04-05T08:00:40Z</time></trkpt><trkpt lat="44.88267807377113" lon="3.141819897113772"><ele>986.8</ele><time>2026-04-05T08:00:43Z</time></trkpt><trkpt lat="44.8826107094281" lon="3.141729802328585"><ele>985.0</ele><time>2026-04-05T08:00:44Z</time></trkpt><trkpt lat="44.88256072187527" lon="3.141598636363892"><ele>983.4999999999999</ele><time>2026-04-05T08:00:45Z</time></trkpt><trkpt lat="44.88250131321351" lon="3.1414717819633937"><ele>982.0</ele><time>2026-04-05T08:00:46Z</time></trkpt><trkpt lat="44.88243962486402" lon="3.1413680172614287"><ele>980.5</ele><time>2026-04-05T08:00:47Z</time></trkpt><trkpt lat="44.88240138078984" lon="3.141257894059396"><ele>979.0</ele><time>2026-04-05T08:00:48Z</time></trkpt><trkpt lat="44.88236733219241" lon="3.141157023917081"><ele>977.4999999999999</ele><time>2026-04-05T08:00:49Z</time></trkpt><trkpt lat="44.88236106115941" lon="3.1410475396815687"><ele>976.0</ele><time>2026-04-05T08:00:50Z</time></trkpt><trkpt lat="44.882349498609095" lon="3.1409370367641727"><ele>976.0</ele><time>2026-04-05T08:00:51Z</time></trkpt><trkpt lat="44.88239887431593" lon="3.140821133243796"><ele>975.9999999999999</ele><time>2026-04-05T08:00:52Z</time></trkpt><trkpt lat="44.88239088915708" lon="3.1407117791483343"><ele>975.9999999999999</ele><time>2026-04-05T08:00:52.999Z</time></trkpt><trkpt lat="44.88239096677097" lon="3.1406192605839034"><ele>976.0</ele><time>2026-04-05T08:00:53.999Z</time></trkpt><trkpt lat="44.8823589162789" lon="3.140485048946452"><ele>976.0</ele><time>2026-04-05T08:00:55.999Z</time></trkpt><trkpt lat="44.88230350870395" lon="3.1403340429417157"><ele>975.0</ele><time>2026-04-05T08:00:57.999Z</time></trkpt><trkpt lat="44.88220130265536" lon="3.140315119608088"><ele>973.9999999999999</ele><time>2026-04-05T08:00:58.999Z</time></trkpt><trkpt lat="44.88212242743607" lon="3.140266428436348"><ele>972.9999999999999</ele><time>2026-04-05T08:00:59.999Z</time></trkpt><trkpt lat="44.88203726417771" lon="3.140217556913572"><ele>972.0</ele><time>2026-04-05T08:01:00.999Z</time></trkpt><trkpt lat="44.88195176760897" lon="3.1401599251953036"><ele>971.0</ele><time>2026-04-05T08:01:01.999Z</time></trkpt><trkpt lat="44.881886680150146" lon="3.1400503635896744"><ele>971.0000000000001</ele><time>2026-04-05T08:01:02.999Z</time></trkpt><trkpt lat="44.88180272940887" lon="3.139974740323474"><ele>971.0</ele><time>2026-04-05T08:01:03.999Z</time></trkpt><trkpt lat="44.88172997069774" lon="3.139898601494006"><ele>971.0</ele><time>2026-04-05T08:01:04.999Z</time></trkpt><trkpt lat="44.881658034541914" lon="3.1398439329845567"><ele>971.0</ele><time>2026-04-05T08:01:05.999Z</time></trkpt><trkpt lat="44.88158472670718" lon="3.1398116988991256"><ele>971.0000000000001</ele><time>2026-04-05T08:01:06.999Z</time></trkpt><trkpt lat="44.88150787754983" lon="3.139765754978173"><ele>971.0</ele><time>2026-04-05T08:01:07.999Z</time></trkpt><trkpt lat="44.88142233003733" lon="3.139743011660786"><ele>970.1999999999999</ele><time>2026-04-05T08:01:08.999Z</time></trkpt><trkpt lat="44.88133630644868" lon="3.1397099688316557"><ele>969.3999999999999</ele><time>2026-04-05T08:01:09.999Z</time></trkpt><trkpt lat="44.881264407409994" lon="3.139643833871547"><ele>968.6</ele><time>2026-04-05T08:01:10.999Z</time></trkpt><trkpt lat="44.88118836460781" lon="3.1395511339836015"><ele>967.8</ele><time>2026-04-05T08:01:11.999Z</time></trkpt><trkpt lat="44.88114823509917" lon="3.139419722441014"><ele>967.0</ele><time>2026-04-05T08:01:12.999Z</time></trkpt><trkpt lat="44.88113948578802" lon="3.1392788732062558"><ele>967.0</ele><time>2026-04-05T08:01:13.999Z</time></trkpt><trkpt lat="44.88115449857751" lon="3.1391400079827454"><ele>967.0</ele><time>2026-04-05T08:01:14.999Z</time></trkpt><trkpt lat="44.881189634789486" lon="3.1390021817125136"><ele>967.0</ele><time>2026-04-05T08:01:15.999Z</time></trkpt><trkpt lat="44.88123135739909" lon="3.1388691960061137"><ele>967.0</ele><time>2026-04-05T08:01:16.999Z</time></trkpt><trkpt lat="44.88128772049858" lon="3.1387416406058137"><ele>967.0</ele><time>2026-04-05T08:01:17.999Z</time></trkpt><trkpt lat="44.88137058973652" lon="3.1386441638680402"><ele>967.75</ele><time>2026-04-05T08:01:18.999Z</time></trkpt><trkpt lat="44.88147384782384" lon="3.1385845091298434"><ele>968.5</ele><time>2026-04-05T08:01:19.999Z</time></trkpt><trkpt lat="44.88158229966063" lon="3.138552511175872"><ele>969.25</ele><time>2026-04-05T08:01:20.999Z</time></trkpt><trkpt lat="44.88170284699712" lon="3.1385214873124654"><ele>970.0</ele><time>2026-04-05T08:01:21.999Z</time></trkpt><trkpt lat="44.88182886141728" lon="3.1384807615110333"><ele>970.0</ele><time>2026-04-05T08:01:22.999Z</time></trkpt><trkpt lat="44.881911816388445" lon="3.138425635802673"><ele>970.0</ele><time>2026-04-05T08:01:23.999Z</time></trkpt><trkpt lat="44.881942942046386" lon="3.13833374993877"><ele>970.0</ele><time>2026-04-05T08:01:24.999Z</time></trkpt><trkpt lat="44.88204040333112" lon="3.1383321643569304"><ele>970.0</ele><time>2026-04-05T08:01:25.999Z</time></trkpt><trkpt lat="44.88216705206607" lon="3.1382713191714564"><ele>970.0</ele><time>2026-04-05T08:01:27.999Z</time></trkpt><trkpt lat="44.88225555996923" lon="3.1382482737507673"><ele>970.0</ele><time>2026-04-05T08:01:28.999Z</time></trkpt><trkpt lat="44.882358404490624" lon="3.138228816412638"><ele>970.0</ele><time>2026-04-05T08:01:29.999Z</time></trkpt><trkpt lat="44.88246720365003" lon="3.1382073947401765"><ele>970.0</ele><time>2026-04-05T08:01:30.999Z</time></trkpt><trkpt lat="44.88257341833827" lon="3.1381824904655717"><ele>970.0</ele><time>2026-04-05T08:01:31.999Z</time></trkpt><trkpt lat="44.88267878115027" lon="3.1381530673822033"><ele>970.0</ele><time>2026-04-05T08:01:32.999Z</time></trkpt><trkpt lat="44.88278094431717" lon="3.1381182910912635"><ele>971.8</ele><time>2026-04-05T08:01:33.999Z</time></trkpt><trkpt lat="44.88288094819092" lon="3.1380827178971256"><ele>973.6</ele><time>2026-04-05T08:01:34.999Z</time></trkpt><trkpt lat="44.88296968830513" lon="3.138029163694533"><ele>975.4000000000001</ele><time>2026-04-05T08:01:35.999Z</time></trkpt><trkpt lat="44.88304527798366" lon="3.137944360416001"><ele>977.2</ele><time>2026-04-05T08:01:36.999Z</time></trkpt><trkpt lat="44.88311363440534" lon="3.1378420633161075"><ele>979.0</ele><time>2026-04-05T08:01:37.999Z</time></trkpt><trkpt lat="44.88318128408753" lon="3.1377338798134264"><ele>979.0</ele><time>2026-04-05T08:01:38.999Z</time></trkpt><trkpt lat="44.883259370412176" lon="3.137638258416613"><ele>979.0000000000001</ele><time>2026-04-05T08:01:39.999Z</time></trkpt><trkpt lat="44.88334901999975" lon="3.137562596856675"><ele>979.0000000000001</ele><time>2026-04-05T08:01:40.999Z</time></trkpt><trkpt lat="44.883435264738736" lon="3.1374732334065767"><ele>979.0</ele><time>2026-04-05T08:01:41.999Z</time></trkpt><trkpt lat="44.88353007936189" lon="3.137412683672975"><ele>979.0</ele><time>2026-04-05T08:01:42.999Z</time></trkpt><trkpt lat="44.88357471004449" lon="3.137245621524657"><ele>979.5</ele><time>2026-04-05T08:01:43.999Z</time></trkpt><trkpt lat="44.8836346265365" lon="3.1371025416755085"><ele>980.0</ele><time>2026-04-05T08:01:44.999Z</time></trkpt><trkpt lat="44.883696558893" lon="3.1369618560257804"><ele>980.5</ele><time>2026-04-05T08:01:45.999Z</time></trkpt><trkpt lat="44.88375791926522" lon="3.1368207321207557"><ele>981.0</ele><time>2026-04-05T08:01:46.999Z</time></trkpt><trkpt lat="44.88381533561103" lon="3.136680026423702"><ele>980.5</ele><time>2026-04-05T08:01:47.999Z</time></trkpt><trkpt lat="44.88387869543707" lon="3.136538032971285"><ele>980.0</ele><time>2026-04-05T08:01:48.999Z</time></trkpt><trkpt lat="44.88393647527688" lon="3.1364107507466454"><ele>979.5</ele><time>2026-04-05T08:01:49.999Z</time></trkpt><trkpt lat="44.88399930399934" lon="3.136278990288969"><ele>979.0</ele><time>2026-04-05T08:01:50.999Z</time></trkpt><trkpt lat="44.88406572724533" lon="3.136144857918443"><ele>979.0</ele><time>2026-04-05T08:01:51.999Z</time></trkpt><trkpt lat="44.88412239071967" lon="3.1360133598772233"><ele>979.0000000000001</ele><time>2026-04-05T08:01:52.999Z</time></trkpt><trkpt lat="44.88416300316048" lon="3.1358765505415658"><ele>979.0000000000001</ele><time>2026-04-05T08:01:53.999Z</time></trkpt><trkpt lat="44.884193056812784" lon="3.1357206440731935"><ele>979.0</ele><time>2026-04-05T08:01:54.999Z</time></trkpt><trkpt lat="44.88422692100087" lon="3.1355782460316597"><ele>979.0</ele><time>2026-04-05T08:01:55.999Z</time></trkpt><trkpt lat="44.884274176616515" lon="3.1354209195822147"><ele>977.0</ele><time>2026-04-05T08:01:56.999Z</time></trkpt><trkpt lat="44.884325471005745" lon="3.1352578465100707"><ele>975.0000000000001</ele><time>2026-04-05T08:01:57.999Z</time></trkpt><trkpt lat="44.88436332408284" lon="3.135134567544896"><ele>973.0000000000001</ele><time>2026-04-05T08:01:58.999Z</time></trkpt><trkpt lat="44.8844202210484" lon="3.135037603129554"><ele>971.0</ele><time>2026-04-05T08:01:59.999Z</time></trkpt><trkpt lat="44.88450115835013" lon="3.134974469134716"><ele>969.0</ele><time>2026-04-05T08:02:00.999Z</time></trkpt><trkpt lat="44.88459949344867" lon="3.1349245446096066"><ele>966.5</ele><time>2026-04-05T08:02:01.999Z</time></trkpt><trkpt lat="44.884712120652836" lon="3.1348676788991425"><ele>964.0</ele><time>2026-04-05T08:02:03Z</time></trkpt><trkpt lat="44.884817626961436" lon="3.1347942833149496"><ele>961.5</ele><time>2026-04-05T08:02:04Z</time></trkpt><trkpt lat="44.88492471458061" lon="3.134708134342583"><ele>959.0</ele><time>2026-04-05T08:02:05Z</time></trkpt><trkpt lat="44.88500749954736" lon="3.1346162934820407"><ele>959.75</ele><time>2026-04-05T08:02:06Z</time></trkpt><trkpt lat="44.88510810125947" lon="3.134477869545355"><ele>960.5</ele><time>2026-04-05T08:02:07Z</time></trkpt><trkpt lat="44.885191130772384" lon="3.134341114129311"><ele>961.25</ele><time>2026-04-05T08:02:08Z</time></trkpt><trkpt lat="44.88524773009156" lon="3.134203934879015"><ele>962.0</ele><time>2026-04-05T08:02:09Z</time></trkpt><trkpt lat="44.88531990097656" lon="3.1340775034586033"><ele>958.5</ele><time>2026-04-05T08:02:10Z</time></trkpt><trkpt lat="44.88542146912576" lon="3.1339901038153277"><ele>955.0</ele><time>2026-04-05T08:02:11Z</time></trkpt><trkpt lat="44.885528771807444" lon="3.1338944948655465"><ele>951.5</ele><time>2026-04-05T08:02:12Z</time></trkpt><trkpt lat="44.88561861446506" lon="3.1337770578646182"><ele>948.0</ele><time>2026-04-05T08:02:13Z</time></trkpt><trkpt lat="44.88569241037022" lon="3.1336248943214464"><ele>948.0</ele><time>2026-04-05T08:02:14Z</time></trkpt><trkpt lat="44.8857691189142" lon="3.1334924021375192"><ele>948.0</ele><time>2026-04-05T08:02:15Z</time></trkpt><trkpt lat="44.88585228622811" lon="3.1333724197630657"><ele>948.0</ele><time>2026-04-05T08:02:16Z</time></trkpt><trkpt lat="44.88592942807315" lon="3.133251002732359"><ele>948.0</ele><time>2026-04-05T08:02:17Z</time></trkpt><trkpt lat="44.88601089673761" lon="3.1331324847744075"><ele>945.5</ele><time>2026-04-05T08:02:18Z</time></trkpt><trkpt lat="44.88608428792406" lon="3.1330218051307823"><ele>943.0</ele><time>2026-04-05T08:02:19Z</time></trkpt><trkpt lat="44.88616543059238" lon="3.1329081592997468"><ele>940.5</ele><time>2026-04-05T08:02:20Z</time></trkpt><trkpt lat="44.88625611744456" lon="3.1328119865649446"><ele>938.0</ele><time>2026-04-05T08:02:21Z</time></trkpt><trkpt lat="44.88636752273456" lon="3.1327185865116616"><ele>938.0</ele><time>2026-04-05T08:02:22Z</time></trkpt><trkpt lat="44.8864559231737" lon="3.1326448057654135"><ele>938.0</ele><time>2026-04-05T08:02:23Z</time></trkpt><trkpt lat="44.88653378071436" lon="3.132602940645934"><ele>938.0</ele><time>2026-04-05T08:02:24Z</time></trkpt><trkpt lat="44.88663215626455" lon="3.1325811145292204"><ele>938.0</ele><time>2026-04-05T08:02:25Z</time></trkpt><trkpt lat="44.88675398353293" lon="3.1325650373800404"><ele>938.0</ele><time>2026-04-05T08:02:26Z</time></trkpt><trkpt lat="44.886889235099126" lon="3.1325224379632925"><ele>934.75</ele><time>2026-04-05T08:02:27Z</time></trkpt><trkpt lat="44.887006642315356" lon="3.1324723320984194"><ele>931.5</ele><time>2026-04-05T08:02:28Z</time></trkpt><trkpt lat="44.88711811926073" lon="3.132446092511659"><ele>928.25</ele><time>2026-04-05T08:02:29Z</time></trkpt><trkpt lat="44.88723241922886" lon="3.132435799334628"><ele>925.0</ele><time>2026-04-05T08:02:30Z</time></trkpt><trkpt lat="44.88735221886374" lon="3.132448964390272"><ele>925.0</ele><time>2026-04-05T08:02:31Z</time></trkpt><trkpt lat="44.887494982611415" lon="3.1324712176954366"><ele>925.0</ele><time>2026-04-05T08:02:32Z</time></trkpt><trkpt lat="44.887612137970216" lon="3.132489768804129"><ele>925.0</ele><time>2026-04-05T08:02:33Z</time></trkpt><trkpt lat="44.88771727240383" lon="3.1324938878042703"><ele>925.0</ele><time>2026-04-05T08:02:34Z</time></trkpt><trkpt lat="44.88782883617612" lon="3.1324852414749413"><ele>923.25</ele><time>2026-04-05T08:02:35Z</time></trkpt><trkpt lat="44.88795408341145" lon="3.132460027181779"><ele>921.5</ele><time>2026-04-05T08:02:36Z</time></trkpt><trkpt lat="44.888062319930896" lon="3.132425442190774"><ele>919.75</ele><time>2026-04-05T08:02:37Z</time></trkpt><trkpt lat="44.88818058376798" lon="3.1323751599724163"><ele>918.0</ele><time>2026-04-05T08:02:38Z</time></trkpt><trkpt lat="44.88832127776977" lon="3.1323044557734656"><ele>913.2</ele><time>2026-04-05T08:02:39Z</time></trkpt><trkpt lat="44.88843876409305" lon="3.1322108878307984"><ele>908.4</ele><time>2026-04-05T08:02:40Z</time></trkpt><trkpt lat="44.888530482310316" lon="3.1321397939872844"><ele>903.6000000000001</ele><time>2026-04-05T08:02:41Z</time></trkpt><trkpt lat="44.88861455418805" lon="3.1320787233283034"><ele>898.8000000000001</ele><time>2026-04-05T08:02:42Z</time></trkpt><trkpt lat="44.88869345398073" lon="3.132003573467327"><ele>894.0</ele><time>2026-04-05T08:02:43Z</time></trkpt><trkpt lat="44.88879941684313" lon="3.131920758541702"><ele>894.0</ele><time>2026-04-05T08:02:44Z</time></trkpt><trkpt lat="44.88891597380807" lon="3.1318591341032933"><ele>894.0000000000001</ele><time>2026-04-05T08:02:44.999Z</time></trkpt><trkpt lat="44.88902391237583" lon="3.1317940527722943"><ele>894.0000000000001</ele><time>2026-04-05T08:02:45.999Z</time></trkpt><trkpt lat="44.889116457929525" lon="3.1317409016628046"><ele>894.0</ele><time>2026-04-05T08:02:46.999Z</time></trkpt><trkpt lat="44.88921857731873" lon="3.1317198326646873"><ele>894.0</ele><time>2026-04-05T08:02:47.999Z</time></trkpt><trkpt lat="44.88934488135653" lon="3.1317046882301196"><ele>891.0</ele><time>2026-04-05T08:02:48.999Z</time></trkpt><trkpt lat="44.8894659602183" lon="3.1316993944404516"><ele>888.0</ele><time>2026-04-05T08:02:49.999Z</time></trkpt><trkpt lat="44.88957366305114" lon="3.131717445526315"><ele>885.0</ele><time>2026-04-05T08:02:50.999Z</time></trkpt><trkpt lat="44.88969906632208" lon="3.1317516654229003"><ele>882.0</ele><time>2026-04-05T08:02:51.999Z</time></trkpt><trkpt lat="44.889830470506205" lon="3.1318006430322316"><ele>882.0</ele><time>2026-04-05T08:02:52.999Z</time></trkpt><trkpt lat="44.889953157977814" lon="3.1318414393166565"><ele>882.0</ele><time>2026-04-05T08:02:53.999Z</time></trkpt><trkpt lat="44.89006382645618" lon="3.1318447708699613"><ele>882.0</ele><time>2026-04-05T08:02:54.999Z</time></trkpt><trkpt lat="44.89016473042351" lon="3.131806136131157"><ele>882.0</ele><time>2026-04-05T08:02:55.999Z</time></trkpt><trkpt lat="44.890252418317665" lon="3.1317254414292632"><ele>882.0</ele><time>2026-04-05T08:02:56.999Z</time></trkpt><trkpt lat="44.890347483305305" lon="3.1316132165832467"><ele>880.0</ele><time>2026-04-05T08:02:57.999Z</time></trkpt><trkpt lat="44.890448987260164" lon="3.131485812309489"><ele>878.0</ele><time>2026-04-05T08:02:58.999Z</time></trkpt><trkpt lat="44.89054132473765" lon="3.1313810302537735"><ele>876.0</ele><time>2026-04-05T08:02:59.999Z</time></trkpt><trkpt lat="44.890611022719504" lon="3.1313073719313853"><ele>874.0</ele><time>2026-04-05T08:03:00.999Z</time></trkpt><trkpt lat="44.890671005921654" lon="3.131237880063442"><ele>872.0</ele><time>2026-04-05T08:03:01.999Z</time></trkpt><trkpt lat="44.89072432292925" lon="3.13114820557342"><ele>872.0000000000001</ele><time>2026-04-05T08:03:02.999Z</time></trkpt><trkpt lat="44.890763941035765" lon="3.131040611745419"><ele>872.0</ele><time>2026-04-05T08:03:03.999Z</time></trkpt><trkpt lat="44.89080000316878" lon="3.1309169566062383"><ele>872.0</ele><time>2026-04-05T08:03:04.999Z</time></trkpt><trkpt lat="44.8908380080708" lon="3.1307982307961835"><ele>872.0</ele><time>2026-04-05T08:03:05.999Z</time></trkpt><trkpt lat="44.89088306222126" lon="3.130702859568902"><ele>872.0000000000001</ele><time>2026-04-05T08:03:06.999Z</time></trkpt><trkpt lat="44.89093490177683" lon="3.130600575055168"><ele>872.0</ele><time>2026-04-05T08:03:07.999Z</time></trkpt><trkpt lat="44.89099365555854" lon="3.1305210412258124"><ele>870.8</ele><time>2026-04-05T08:03:08.999Z</time></trkpt><trkpt lat="44.891060699660855" lon="3.1304588873719243"><ele>869.6</ele><time>2026-04-05T08:03:09.999Z</time></trkpt><trkpt lat="44.891137551389434" lon="3.130409541862811"><ele>868.3999999999999</ele><time>2026-04-05T08:03:10.999Z</time></trkpt><trkpt lat="44.89121904018975" lon="3.13035690163955"><ele>867.1999999999999</ele><time>2026-04-05T08:03:11.999Z</time></trkpt><trkpt lat="44.891310283937116" lon="3.130287054121894"><ele>866.0</ele><time>2026-04-05T08:03:12.999Z</time></trkpt><trkpt lat="44.89138977021529" lon="3.1302134620001167"><ele>866.0</ele><time>2026-04-05T08:03:13.999Z</time></trkpt><trkpt lat="44.89147234635255" lon="3.1301249468275336"><ele>865.9999999999999</ele><time>2026-04-05T08:03:14.999Z</time></trkpt><trkpt lat="44.891536529466165" lon="3.1300271075219452"><ele>865.9999999999999</ele><time>2026-04-05T08:03:15.999Z</time></trkpt><trkpt lat="44.891593210822336" lon="3.12992613525833"><ele>866.0</ele><time>2026-04-05T08:03:16.999Z</time></trkpt><trkpt lat="44.8916624028795" lon="3.129818304202793"><ele>866.0</ele><time>2026-04-05T08:03:17.999Z</time></trkpt><trkpt lat="44.89172732014717" lon="3.1297174193868718"><ele>862.4</ele><time>2026-04-05T08:03:18.999Z</time></trkpt><trkpt lat="44.89178852241109" lon="3.129636336245369"><ele>858.8</ele><time>2026-04-05T08:03:19.999Z</time></trkpt><trkpt lat="44.89185372478276" lon="3.129554711630657"><ele>855.1999999999999</ele><time>2026-04-05T08:03:20.999Z</time></trkpt><trkpt lat="44.89192270369455" lon="3.129466691392046"><ele>851.5999999999999</ele><time>2026-04-05T08:03:21.999Z</time></trkpt><trkpt lat="44.89200901351487" lon="3.129377361986073"><ele>848.0</ele><time>2026-04-05T08:03:22.999Z</time></trkpt><trkpt lat="44.892093763103844" lon="3.129312879290166"><ele>848.0</ele><time>2026-04-05T08:03:23.999Z</time></trkpt><trkpt lat="44.892180092927774" lon="3.1292790090873694"><ele>848.0</ele><time>2026-04-05T08:03:24.999Z</time></trkpt><trkpt lat="44.892275854862305" lon="3.129236561668787"><ele>848.0</ele><time>2026-04-05T08:03:25.999Z</time></trkpt><trkpt lat="44.89236332511742" lon="3.129165439724395"><ele>848.0</ele><time>2026-04-05T08:03:26.999Z</time></trkpt><trkpt lat="44.892465372887834" lon="3.129099258368417"><ele>848.0</ele><time>2026-04-05T08:03:27.999Z</time></trkpt><trkpt lat="44.892575431240545" lon="3.129043929833734"><ele>847.2</ele><time>2026-04-05T08:03:28.999Z</time></trkpt><trkpt lat="44.89267825230654" lon="3.12897473509344"><ele>846.4</ele><time>2026-04-05T08:03:29.999Z</time></trkpt><trkpt lat="44.89278966646103" lon="3.1288980211405963"><ele>845.6</ele><time>2026-04-05T08:03:30.999Z</time></trkpt><trkpt lat="44.89289067597144" lon="3.128851978153195"><ele>844.8000000000001</ele><time>2026-04-05T08:03:31.999Z</time></trkpt><trkpt lat="44.89297917315342" lon="3.128797348724166"><ele>844.0</ele><time>2026-04-05T08:03:32.999Z</time></trkpt><trkpt lat="44.893067804887814" lon="3.1287208401162414"><ele>844.0</ele><time>2026-04-05T08:03:33.999Z</time></trkpt><trkpt lat="44.89314194259866" lon="3.1286103736252184"><ele>844.0</ele><time>2026-04-05T08:03:34.999Z</time></trkpt><trkpt lat="44.89322083770419" lon="3.128477127459137"><ele>844.0</ele><time>2026-04-05T08:03:35.999Z</time></trkpt><trkpt lat="44.893300079476596" lon="3.128348226917238"><ele>844.0</ele><time>2026-04-05T08:03:36.999Z</time></trkpt><trkpt lat="44.893372063457036" lon="3.1282229631363347"><ele>840.6</ele><time>2026-04-05T08:03:37.999Z</time></trkpt><trkpt lat="44.89343169265492" lon="3.1280974797935532"><ele>837.2</ele><time>2026-04-05T08:03:38.999Z</time></trkpt><trkpt lat="44.89348743026155" lon="3.127971573976022"><ele>833.8000000000001</ele><time>2026-04-05T08:03:39.999Z</time></trkpt><trkpt lat="44.89354732816674" lon="3.1278586938569846"><ele>830.4000000000001</ele><time>2026-04-05T08:03:40.999Z</time></trkpt><trkpt lat="44.89360213976462" lon="3.1277663974281062"><ele>827.0</ele><time>2026-04-05T08:03:41.999Z</time></trkpt><trkpt lat="44.89365125868542" lon="3.1276628502239747"><ele>827.0</ele><time>2026-04-05T08:03:42.999Z</time></trkpt><trkpt lat="44.893675760294386" lon="3.127555924083864"><ele>827.0</ele><time>2026-04-05T08:03:43.999Z</time></trkpt><trkpt lat="44.89370369471316" lon="3.1274562199409046"><ele>827.0</ele><time>2026-04-05T08:03:44.999Z</time></trkpt><trkpt lat="44.893729198880635" lon="3.1273596548739566"><ele>827.0</ele><time>2026-04-05T08:03:45.999Z</time></trkpt><trkpt lat="44.89371801773307" lon="3.127172275098449"><ele>827.0</ele><time>2026-04-05T08:03:47.999Z</time></trkpt><trkpt lat="44.89372256066472" lon="3.1270469435775996"><ele>828.0</ele><time>2026-04-05T08:03:48.999Z</time></trkpt><trkpt lat="44.89374884935919" lon="3.126918877107229"><ele>829.0</ele><time>2026-04-05T08:03:49.999Z</time></trkpt><trkpt lat="44.893791188887" lon="3.1268071887552855"><ele>830.0</ele><time>2026-04-05T08:03:50.999Z</time></trkpt><trkpt lat="44.89383481832098" lon="3.126695737890703"><ele>831.0</ele><time>2026-04-05T08:03:51.999Z</time></trkpt><trkpt lat="44.893884040254996" lon="3.1266023054179946"><ele>832.0</ele><time>2026-04-05T08:03:52.999Z</time></trkpt><trkpt lat="44.89394145495128" lon="3.1264987068193455"><ele>829.3333333333333</ele><time>2026-04-05T08:03:53.999Z</time></trkpt><trkpt lat="44.89400087039864" lon="3.1264144119639368"><ele>826.6666666666666</ele><time>2026-04-05T08:03:54.999Z</time></trkpt><trkpt lat="44.89405833587866" lon="3.1263185944597467"><ele>824.0</ele><time>2026-04-05T08:03:55.999Z</time></trkpt><trkpt lat="44.89412158643634" lon="3.126227313411264"><ele>821.3333333333333</ele><time>2026-04-05T08:03:56.999Z</time></trkpt><trkpt lat="44.894183462164925" lon="3.1261255190722017"><ele>818.6666666666666</ele><time>2026-04-05T08:03:57.999Z</time></trkpt><trkpt lat="44.894228807957866" lon="3.1260438388173415"><ele>816.0</ele><time>2026-04-05T08:03:58.999Z</time></trkpt><trkpt lat="44.89427971639364" lon="3.125969499433181"><ele>816.0</ele><time>2026-04-05T08:03:59.999Z</time></trkpt><trkpt lat="44.894332181696186" lon="3.1258827912729195"><ele>816.0</ele><time>2026-04-05T08:04:00.999Z</time></trkpt><trkpt lat="44.89438333022278" lon="3.125799005204037"><ele>816.0</ele><time>2026-04-05T08:04:01.999Z</time></trkpt><trkpt lat="44.8944472947301" lon="3.125729130252802"><ele>816.0</ele><time>2026-04-05T08:04:02.999Z</time></trkpt><trkpt lat="44.89453617205411" lon="3.1256775667331516"><ele>816.0</ele><time>2026-04-05T08:04:03.998Z</time></trkpt><trkpt lat="44.89463705559731" lon="3.1256371225349606"><ele>816.0</ele><time>2026-04-05T08:04:04.998Z</time></trkpt><trkpt lat="44.894739698941144" lon="3.1256054050429247"><ele>812.5</ele><time>2026-04-05T08:04:05.998Z</time></trkpt><trkpt lat="44.89482181758473" lon="3.125590683382927"><ele>809.0</ele><time>2026-04-05T08:04:06.998Z</time></trkpt><trkpt lat="44.894891258115464" lon="3.1255719575708474"><ele>805.5</ele><time>2026-04-05T08:04:07.998Z</time></trkpt><trkpt lat="44.89495537551286" lon="3.125541934816228"><ele>802.0</ele><time>2026-04-05T08:04:09Z</time></trkpt><trkpt lat="44.89501973630131" lon="3.1255382426382874"><ele>798.5</ele><time>2026-04-05T08:04:10Z</time></trkpt><trkpt lat="44.8951321313722" lon="3.125566589944732"><ele>795.0</ele><time>2026-04-05T08:04:12Z</time></trkpt><trkpt lat="44.89522323571059" lon="3.1256258480427626"><ele>792.6666666666666</ele><time>2026-04-05T08:04:14Z</time></trkpt><trkpt lat="44.895303829161385" lon="3.1257339246032467"><ele>790.3333333333333</ele><time>2026-04-05T08:04:16Z</time></trkpt><trkpt lat="44.895359625023005" lon="3.1258162769750353"><ele>788.0</ele><time>2026-04-05T08:04:18Z</time></trkpt><trkpt lat="44.8954218813082" lon="3.1259098029468144"><ele>785.6666666666666</ele><time>2026-04-05T08:04:21Z</time></trkpt><trkpt lat="44.89546761487961" lon="3.125981046918793"><ele>783.3333333333333</ele><time>2026-04-05T08:04:23Z</time></trkpt><trkpt lat="44.89553786725329" lon="3.1260264113218907"><ele>781.0</ele><time>2026-04-05T08:06:28.999Z</time></trkpt><trkpt lat="44.895544225996545" lon="3.126115054498862"><ele>781.0</ele><time>2026-04-05T08:06:33.999Z</time></trkpt><trkpt lat="44.89553136906876" lon="3.126206192904934"><ele>781.0</ele><time>2026-04-05T08:06:35.999Z</time></trkpt><trkpt lat="44.8954828615442" lon="3.1263423997646203"><ele>781.0</ele><time>2026-04-05T08:06:37.999Z</time></trkpt><trkpt lat="44.895419647951904" lon="3.1264716167771165"><ele>781.0</ele><time>2026-04-05T08:06:39.999Z</time></trkpt><trkpt lat="44.895367747939495" lon="3.1266221895741952"><ele>781.0</ele><time>2026-04-05T08:06:41.999Z</time></trkpt><trkpt lat="44.89531212549821" lon="3.126779019110728"><ele>779.1666666666666</ele><time>2026-04-05T08:06:43.999Z</time></trkpt><trkpt lat="44.89526796235847" lon="3.126890384635337"><ele>777.3333333333333</ele><time>2026-04-05T08:06:44.999Z</time></trkpt><trkpt lat="44.89522947996415" lon="3.126978685754313"><ele>775.5</ele><time>2026-04-05T08:06:45.999Z</time></trkpt><trkpt lat="44.895187762704026" lon="3.127047440862042"><ele>773.6666666666667</ele><time>2026-04-05T08:06:46.999Z</time></trkpt><trkpt lat="44.895114082333926" lon="3.127152324896353"><ele>771.8333333333334</ele><time>2026-04-05T08:06:48.999Z</time></trkpt><trkpt lat="44.89507372494483" lon="3.127230746123146"><ele>770.0</ele><time>2026-04-05T08:06:49.999Z</time></trkpt><trkpt lat="44.89502880821387" lon="3.127314646043789"><ele>772.5000000000001</ele><time>2026-04-05T08:06:50.999Z</time></trkpt><trkpt lat="44.89500350408758" lon="3.12740288524383"><ele>775.0</ele><time>2026-04-05T08:06:51.999Z</time></trkpt><trkpt lat="44.89497895205972" lon="3.1274984512029667"><ele>777.5</ele><time>2026-04-05T08:06:52.999Z</time></trkpt><trkpt lat="44.89494364293654" lon="3.127579546972713"><ele>780.0</ele><time>2026-04-05T08:06:53.999Z</time></trkpt><trkpt lat="44.89490374893014" lon="3.127659765875852"><ele>782.5000000000001</ele><time>2026-04-05T08:06:54.999Z</time></trkpt><trkpt lat="44.89484782971341" lon="3.127791141306294"><ele>785.0</ele><time>2026-04-05T08:06:56.999Z</time></trkpt><trkpt lat="44.89480152563912" lon="3.1278648157554363"><ele>785.0</ele><time>2026-04-05T08:06:58.999Z</time></trkpt><trkpt lat="44.89479106347246" lon="3.127959693509909"><ele>785.0</ele><time>2026-04-05T08:07:02.999Z</time></trkpt><trkpt lat="44.894780730501225" lon="3.1280608529910205"><ele>785.0</ele><time>2026-04-05T08:07:06.999Z</time></trkpt><trkpt lat="44.894767342188835" lon="3.128174691011978"><ele>785.0</ele><time>2026-04-05T08:07:18.999Z</time></trkpt><trkpt lat="44.89474731612221" lon="3.1282681722190095"><ele>785.0</ele><time>2026-04-05T08:07:30.999Z</time></trkpt><trkpt lat="44.89472464346742" lon="3.1283525506217025"><ele>785.0</ele><time>2026-04-05T08:07:44.999Z</time></trkpt><trkpt lat="44.89474236820739" lon="3.1284506958639247"><ele>785.0</ele><time>2026-04-05T08:07:52.998Z</time></trkpt><trkpt lat="44.89470345643669" lon="3.1285441308380664"><ele>783.0</ele><time>2026-04-05T08:08:46.999Z</time></trkpt><trkpt lat="44.89466996112728" lon="3.128632689152888"><ele>781.0</ele><time>2026-04-05T08:09:03Z</time></trkpt><trkpt lat="44.89467562985687" lon="3.12874895205244"><ele>779.0</ele><time>2026-04-05T08:09:07Z</time></trkpt><trkpt lat="44.89466804413542" lon="3.1288535747906145"><ele>777.0</ele><time>2026-04-05T08:09:10Z</time></trkpt><trkpt lat="44.89466237909666" lon="3.1289499152031777"><ele>775.0</ele><time>2026-04-05T08:09:13Z</time></trkpt><trkpt lat="44.89465096654525" lon="3.129054473914878"><ele>773.0</ele><time>2026-04-05T08:09:16Z</time></trkpt><trkpt lat="44.89463082499531" lon="3.129158087927548"><ele>771.0</ele><time>2026-04-05T08:09:20Z</time></trkpt><trkpt lat="44.894632371317876" lon="3.129250817293046"><ele>771.0</ele><time>2026-04-05T08:09:24Z</time></trkpt><trkpt lat="44.89463023699516" lon="3.129342700016543"><ele>771.0</ele><time>2026-04-05T08:10:21.999Z</time></trkpt><trkpt lat="44.894644536474445" lon="3.129436311843677"><ele>771.0</ele><time>2026-04-05T08:10:34Z</time></trkpt><trkpt lat="44.894654138585324" lon="3.1295257323024885"><ele>771.0</ele><time>2026-04-05T08:10:51Z</time></trkpt><trkpt lat="44.894751864183725" lon="3.1295427687951385"><ele>771.0</ele><time>2026-04-05T08:11:16Z</time></trkpt><trkpt lat="44.89477934267063" lon="3.129445738999565"><ele>771.0</ele><time>2026-04-05T08:14:21.999Z</time></trkpt><trkpt lat="44.89475352123776" lon="3.1295444965202166"><ele>771.0</ele><time>2026-04-05T08:15:05Z</time></trkpt><trkpt lat="44.89473460919629" lon="3.12963240168515"><ele>771.0</ele><time>2026-04-05T08:15:08Z</time></trkpt><trkpt lat="44.89466275264034" lon="3.1297096164532863"><ele>771.0</ele><time>2026-04-05T08:15:11Z</time></trkpt><trkpt lat="44.894591223745245" lon="3.129774613961236"><ele>771.0</ele><time>2026-04-05T08:15:13Z</time></trkpt><trkpt lat="44.89455893344277" lon="3.1298707550505385"><ele>771.0</ele><time>2026-04-05T08:15:15Z</time></trkpt><trkpt lat="44.89451442646458" lon="3.1299896010667183"><ele>771.0</ele><time>2026-04-05T08:15:17Z</time></trkpt><trkpt lat="44.89448721541425" lon="3.130113635194048"><ele>771.0</ele><time>2026-04-05T08:15:19Z</time></trkpt><trkpt lat="44.89439361761209" lon="3.130199509671999"><ele>772.0</ele><time>2026-04-05T08:15:21Z</time></trkpt><trkpt lat="44.8943192432279" lon="3.1303194378939687"><ele>773.0</ele><time>2026-04-05T08:15:23Z</time></trkpt><trkpt lat="44.89422328661422" lon="3.130394166794771"><ele>774.0</ele><time>2026-04-05T08:15:25Z</time></trkpt><trkpt lat="44.89416731456644" lon="3.1304834146342855"><ele>775.0</ele><time>2026-04-05T08:15:28Z</time></trkpt><trkpt lat="44.89410344424491" lon="3.1305901749741385"><ele>776.0</ele><time>2026-04-05T08:15:30Z</time></trkpt><trkpt lat="44.89406534252162" lon="3.1306961680739"><ele>776.4</ele><time>2026-04-05T08:15:32Z</time></trkpt><trkpt lat="44.89401810096131" lon="3.130817305476171"><ele>776.8</ele><time>2026-04-05T08:15:34Z</time></trkpt><trkpt lat="44.8939772801465" lon="3.1309029689577788"><ele>777.1999999999999</ele><time>2026-04-05T08:15:36Z</time></trkpt><trkpt lat="44.89391158185959" lon="3.131004296650738"><ele>777.5999999999999</ele><time>2026-04-05T08:15:38Z</time></trkpt><trkpt lat="44.89384750039866" lon="3.1311301015532904"><ele>778.0</ele><time>2026-04-05T08:15:40Z</time></trkpt><trkpt lat="44.89381202792707" lon="3.131271448040406"><ele>777.9999999999999</ele><time>2026-04-05T08:15:43Z</time></trkpt><trkpt lat="44.893801896042476" lon="3.1313611500922502"><ele>778.0</ele><time>2026-04-05T08:15:44Z</time></trkpt><trkpt lat="44.89380223134276" lon="3.131497135617973"><ele>778.0</ele><time>2026-04-05T08:15:46Z</time></trkpt><trkpt lat="44.89383515534531" lon="3.131645776356349"><ele>778.0</ele><time>2026-04-05T08:15:48Z</time></trkpt><trkpt lat="44.893828118505" lon="3.131742527716691"><ele>777.9999999999999</ele><time>2026-04-05T08:15:50Z</time></trkpt><trkpt lat="44.89382265490409" lon="3.1318616914124453"><ele>778.0</ele><time>2026-04-05T08:15:52Z</time></trkpt><trkpt lat="44.89381618976504" lon="3.131983995588545"><ele>779.4999999999999</ele><time>2026-04-05T08:15:55Z</time></trkpt><trkpt lat="44.89378692617555" lon="3.132080493277311"><ele>781.0</ele><time>2026-04-05T08:15:58Z</time></trkpt><trkpt lat="44.893765891099825" lon="3.132181286117626"><ele>782.5</ele><time>2026-04-05T08:16:01Z</time></trkpt><trkpt lat="44.89369597275739" lon="3.1322732197052394"><ele>784.0</ele><time>2026-04-05T08:16:02.999Z</time></trkpt><trkpt lat="44.893630997817596" lon="3.1323593813808657"><ele>785.4999999999999</ele><time>2026-04-05T08:16:05.999Z</time></trkpt><trkpt lat="44.8935656013678" lon="3.1324178900791924"><ele>787.0</ele><time>2026-04-05T08:16:07.999Z</time></trkpt><trkpt lat="44.893486586033546" lon="3.1324888522820373"><ele>786.4000000000001</ele><time>2026-04-05T08:16:09.999Z</time></trkpt><trkpt lat="44.89337492307164" lon="3.1324986339770367"><ele>785.8000000000001</ele><time>2026-04-05T08:16:11.999Z</time></trkpt><trkpt lat="44.893296301487354" lon="3.1325479410404444"><ele>785.2</ele><time>2026-04-05T08:16:13.999Z</time></trkpt><trkpt lat="44.893224290238315" lon="3.132629646917563"><ele>784.6</ele><time>2026-04-05T08:16:15.999Z</time></trkpt><trkpt lat="44.89319446070785" lon="3.1327598245506607"><ele>784.0</ele><time>2026-04-05T08:16:17.999Z</time></trkpt><trkpt lat="44.893167986678385" lon="3.132843997740407"><ele>784.0</ele><time>2026-04-05T08:16:18.999Z</time></trkpt><trkpt lat="44.8930921029915" lon="3.132963606963605"><ele>784.0</ele><time>2026-04-05T08:16:20.999Z</time></trkpt><trkpt lat="44.893007513652655" lon="3.1330871638349156"><ele>784.0</ele><time>2026-04-05T08:16:22.999Z</time></trkpt><trkpt lat="44.892932462820276" lon="3.133199820635997"><ele>784.0</ele><time>2026-04-05T08:16:24.999Z</time></trkpt><trkpt lat="44.89286148645936" lon="3.133285717062494"><ele>784.0</ele><time>2026-04-05T08:16:26.999Z</time></trkpt><trkpt lat="44.8928108768977" lon="3.13335318074222"><ele>784.0</ele><time>2026-04-05T08:16:35.999Z</time></trkpt><trkpt lat="44.892760809895705" lon="3.1334479077752904"><ele>784.0</ele><time>2026-04-05T08:16:37.999Z</time></trkpt><trkpt lat="44.892773875130096" lon="3.13355278796578"><ele>784.0</ele><time>2026-04-05T08:16:39.999Z</time></trkpt><trkpt lat="44.89283911453824" lon="3.133565847104751"><ele>784.0</ele><time>2026-04-05T08:16:47Z</time></trkpt><trkpt lat="44.892848580196514" lon="3.133467214897857"><ele>784.0</ele><time>2026-04-05T08:16:53Z</time></trkpt><trkpt lat="44.892857804547" lon="3.133371803667284"><ele>784.0</ele><time>2026-04-05T08:16:56Z</time></trkpt><trkpt lat="44.8928546989386" lon="3.133255848533314"><ele>784.0</ele><time>2026-04-05T08:17:00Z</time></trkpt><trkpt lat="44.892861071313206" lon="3.1331561334601283"><ele>785.4999999999999</ele><time>2026-04-05T08:17:03Z</time></trkpt><trkpt lat="44.89282656575865" lon="3.1332366237036506"><ele>787.0</ele><time>2026-04-05T08:19:18Z</time></trkpt><trkpt lat="44.892761342585594" lon="3.1333274600160173"><ele>788.5</ele><time>2026-04-05T08:19:22Z</time></trkpt><trkpt lat="44.89274316012193" lon="3.1334158019873186"><ele>790.0</ele><time>2026-04-05T08:19:25Z</time></trkpt><trkpt lat="44.8927559829295" lon="3.1335535478001297"><ele>791.4999999999999</ele><time>2026-04-05T08:19:28Z</time></trkpt><trkpt lat="44.89276478556975" lon="3.133677809394497"><ele>793.0</ele><time>2026-04-05T08:19:30Z</time></trkpt><trkpt lat="44.89278264778082" lon="3.1337812609507933"><ele>792.9999999999999</ele><time>2026-04-05T08:19:32Z</time></trkpt><trkpt lat="44.892791533428756" lon="3.1338693461383174"><ele>793.0</ele><time>2026-04-05T08:19:35Z</time></trkpt><trkpt lat="44.89281220940881" lon="3.133955689326462"><ele>793.0</ele><time>2026-04-05T08:20:00.999Z</time></trkpt><trkpt lat="44.892848220737925" lon="3.1340487342946703"><ele>793.0</ele><time>2026-04-05T08:20:02.999Z</time></trkpt><trkpt lat="44.89278483090356" lon="3.1341763106621796"><ele>792.9999999999999</ele><time>2026-04-05T08:20:06.999Z</time></trkpt><trkpt lat="44.89286246090589" lon="3.1342115373085546"><ele>793.0</ele><time>2026-04-05T08:20:15.999Z</time></trkpt><trkpt lat="44.89293975203086" lon="3.1342205468976445"><ele>795.9999999999999</ele><time>2026-04-05T08:20:18.999Z</time></trkpt><trkpt lat="44.89300092074552" lon="3.134256837477355"><ele>799.0</ele><time>2026-04-05T08:20:19.999Z</time></trkpt><trkpt lat="44.89305589270102" lon="3.1343169582404533"><ele>802.0</ele><time>2026-04-05T08:20:20.999Z</time></trkpt><trkpt lat="44.89309398879408" lon="3.1343941601575747"><ele>805.0</ele><time>2026-04-05T08:20:21.999Z</time></trkpt><trkpt lat="44.89312114112814" lon="3.1344933925228107"><ele>807.9999999999999</ele><time>2026-04-05T08:20:22.999Z</time></trkpt><trkpt lat="44.893169807580485" lon="3.134649272954181"><ele>811.0</ele><time>2026-04-05T08:20:24.999Z</time></trkpt><trkpt lat="44.8932229782646" lon="3.134811899371291"><ele>814.5999999999999</ele><time>2026-04-05T08:20:26.999Z</time></trkpt><trkpt lat="44.89325473684545" lon="3.1349811444969022"><ele>818.2</ele><time>2026-04-05T08:20:28.999Z</time></trkpt><trkpt lat="44.893277978214144" lon="3.135080913025615"><ele>821.8</ele><time>2026-04-05T08:20:29.999Z</time></trkpt><trkpt lat="44.89331523863037" lon="3.1352046638858706"><ele>825.4000000000001</ele><time>2026-04-05T08:20:30.999Z</time></trkpt><trkpt lat="44.89335573471293" lon="3.1353291566982513"><ele>829.0</ele><time>2026-04-05T08:20:31.999Z</time></trkpt><trkpt lat="44.89339735973158" lon="3.135440857456837"><ele>830.8000000000001</ele><time>2026-04-05T08:20:32.999Z</time></trkpt><trkpt lat="44.89343244592745" lon="3.1355176127026874"><ele>832.6</ele><time>2026-04-05T08:20:33.999Z</time></trkpt><trkpt lat="44.89349326994236" lon="3.1356541558596414"><ele>834.4</ele><time>2026-04-05T08:20:35.999Z</time></trkpt><trkpt lat="44.89353971353459" lon="3.135757068506879"><ele>836.2</ele><time>2026-04-05T08:20:36.999Z</time></trkpt><trkpt lat="44.89358631138669" lon="3.1358462709310464"><ele>838.0</ele><time>2026-04-05T08:20:37.999Z</time></trkpt><trkpt lat="44.89368166876243" lon="3.1356358545369893"><ele>838.0</ele><time>2026-04-05T08:20:41.999Z</time></trkpt><trkpt lat="44.89368908732766" lon="3.1355268774237306"><ele>838.0</ele><time>2026-04-05T08:20:42.999Z</time></trkpt><trkpt lat="44.893711514925606" lon="3.135396394855741"><ele>838.0</ele><time>2026-04-05T08:20:43.999Z</time></trkpt><trkpt lat="44.89374669747856" lon="3.1352536185267748"><ele>838.0</ele><time>2026-04-05T08:20:44.999Z</time></trkpt><trkpt lat="44.893778456711374" lon="3.1350948699686225"><ele>838.0</ele><time>2026-04-05T08:20:45.999Z</time></trkpt><trkpt lat="44.893806598840364" lon="3.134940638329199"><ele>834.2</ele><time>2026-04-05T08:20:46.999Z</time></trkpt><trkpt lat="44.89383502024632" lon="3.134843395003123"><ele>830.4</ele><time>2026-04-05T08:20:47.999Z</time></trkpt><trkpt lat="44.89391970579747" lon="3.1347535064439196"><ele>826.6</ele><time>2026-04-05T08:20:49.999Z</time></trkpt><trkpt lat="44.89399687563321" lon="3.134710453546095"><ele>822.8000000000001</ele><time>2026-04-05T08:20:50.999Z</time></trkpt><trkpt lat="44.89408367693944" lon="3.1346789233813106"><ele>819.0</ele><time>2026-04-05T08:20:51.999Z</time></trkpt><trkpt lat="44.89418827160649" lon="3.134682733099463"><ele>823.0</ele><time>2026-04-05T08:20:52.999Z</time></trkpt><trkpt lat="44.89430032203988" lon="3.1347005784647073"><ele>827.0</ele><time>2026-04-05T08:20:53.999Z</time></trkpt><trkpt lat="44.894423623223226" lon="3.134702236718062"><ele>831.0</ele><time>2026-04-05T08:20:54.999Z</time></trkpt><trkpt lat="44.89454485036887" lon="3.134683214210563"><ele>835.0</ele><time>2026-04-05T08:20:55.999Z</time></trkpt><trkpt lat="44.89466119667242" lon="3.134645109581833"><ele>835.0</ele><time>2026-04-05T08:20:57Z</time></trkpt><trkpt lat="44.89474927073317" lon="3.1346396317361074"><ele>835.0</ele><time>2026-04-05T08:20:58Z</time></trkpt><trkpt lat="44.89481922501793" lon="3.134656892159212"><ele>835.0</ele><time>2026-04-05T08:20:59Z</time></trkpt><trkpt lat="44.89489389905792" lon="3.1346962769094353"><ele>835.0</ele><time>2026-04-05T08:21:00Z</time></trkpt><trkpt lat="44.89498140187417" lon="3.1347945834611135"><ele>835.0</ele><time>2026-04-05T08:21:01Z</time></trkpt><trkpt lat="44.89506050390928" lon="3.134888832940613"><ele>835.0</ele><time>2026-04-05T08:21:02Z</time></trkpt><trkpt lat="44.895122312512164" lon="3.1349138480977903"><ele>835.0</ele><time>2026-04-05T08:21:03Z</time></trkpt><trkpt lat="44.895184246811844" lon="3.1348489612420822"><ele>835.0</ele><time>2026-04-05T08:21:05Z</time></trkpt><trkpt lat="44.89514697961061" lon="3.1347544101118623"><ele>835.0</ele><time>2026-04-05T08:21:06Z</time></trkpt><trkpt lat="44.895105177622" lon="3.134622130175629"><ele>835.0</ele><time>2026-04-05T08:21:07Z</time></trkpt><trkpt lat="44.895073224914704" lon="3.1344250613817857"><ele>835.0</ele><time>2026-04-05T08:21:08Z</time></trkpt><trkpt lat="44.895045285237714" lon="3.1342417814608474"><ele>835.0</ele><time>2026-04-05T08:21:09Z</time></trkpt><trkpt lat="44.895015190856405" lon="3.1340793938157483"><ele>835.0</ele><time>2026-04-05T08:21:10Z</time></trkpt><trkpt lat="44.894971891033954" lon="3.133932902542249"><ele>835.0</ele><time>2026-04-05T08:21:11Z</time></trkpt><trkpt lat="44.894939630710745" lon="3.133815719948613"><ele>834.25</ele><time>2026-04-05T08:21:12Z</time></trkpt><trkpt lat="44.89491293938347" lon="3.133681701076486"><ele>833.5</ele><time>2026-04-05T08:21:13Z</time></trkpt><trkpt lat="44.8949140476563" lon="3.133521233311855"><ele>832.75</ele><time>2026-04-05T08:21:14Z</time></trkpt><trkpt lat="44.89491948463025" lon="3.133338090125264"><ele>832.0</ele><time>2026-04-05T08:21:15Z</time></trkpt><trkpt lat="44.894924555308286" lon="3.1331730787013568"><ele>831.4000000000001</ele><time>2026-04-05T08:21:16Z</time></trkpt><trkpt lat="44.89492325869639" lon="3.1330474236690304"><ele>830.8000000000001</ele><time>2026-04-05T08:21:17Z</time></trkpt><trkpt lat="44.894875476511615" lon="3.132947593732228"><ele>830.2</ele><time>2026-04-05T08:21:18Z</time></trkpt><trkpt lat="44.89481156474246" lon="3.1328436168930067"><ele>829.6</ele><time>2026-04-05T08:21:19Z</time></trkpt><trkpt lat="44.894778344721" lon="3.1327146989965127"><ele>829.0</ele><time>2026-04-05T08:21:20Z</time></trkpt><trkpt lat="44.894766326327094" lon="3.132573050353743"><ele>828.9999999999999</ele><time>2026-04-05T08:21:21Z</time></trkpt><trkpt lat="44.89476420867507" lon="3.1324343083678223"><ele>829.0</ele><time>2026-04-05T08:21:22Z</time></trkpt><trkpt lat="44.89479298894086" lon="3.1323441189054706"><ele>829.0</ele><time>2026-04-05T08:21:23Z</time></trkpt><trkpt lat="44.89482938220071" lon="3.132270754044609"><ele>829.0</ele><time>2026-04-05T08:21:26Z</time></trkpt><trkpt lat="44.89491966896538" lon="3.132234920424926"><ele>828.9999999999999</ele><time>2026-04-05T08:21:55Z</time></trkpt><trkpt lat="44.894959865589236" lon="3.1321459780749543"><ele>829.0</ele><time>2026-04-05T08:21:56.999Z</time></trkpt><trkpt lat="44.89502668836869" lon="3.131954375872464"><ele>830.0</ele><time>2026-04-05T08:23:07Z</time></trkpt><trkpt lat="44.89508047117568" lon="3.131831116035554"><ele>831.0</ele><time>2026-04-05T08:23:09Z</time></trkpt><trkpt lat="44.895148395942556" lon="3.131691156007971"><ele>832.0</ele><time>2026-04-05T08:23:11Z</time></trkpt><trkpt lat="44.895199628176144" lon="3.131637108274861"><ele>833.0</ele><time>2026-04-05T08:23:12Z</time></trkpt><trkpt lat="44.89527173367891" lon="3.131635609702835"><ele>834.0</ele><time>2026-04-05T08:23:13Z</time></trkpt><trkpt lat="44.89539524671984" lon="3.1316022505243155"><ele>834.0</ele><time>2026-04-05T08:23:15Z</time></trkpt><trkpt lat="44.89545705916979" lon="3.1315635276238387"><ele>834.0</ele><time>2026-04-05T08:23:16Z</time></trkpt><trkpt lat="44.89552535534568" lon="3.131545111839375"><ele>834.0</ele><time>2026-04-05T08:23:17Z</time></trkpt><trkpt lat="44.8955938740627" lon="3.1315803746091984"><ele>834.0</ele><time>2026-04-05T08:23:18Z</time></trkpt><trkpt lat="44.89566908337907" lon="3.1316613863344602"><ele>834.0</ele><time>2026-04-05T08:23:20Z</time></trkpt><trkpt lat="44.895657355844385" lon="3.131830023176637"><ele>834.0</ele><time>2026-04-05T08:23:22Z</time></trkpt><trkpt lat="44.895659011723474" lon="3.1319292434457595"><ele>834.0</ele><time>2026-04-05T08:23:23Z</time></trkpt><trkpt lat="44.895663226933124" lon="3.1320439965676132"><ele>834.0</ele><time>2026-04-05T08:23:24Z</time></trkpt><trkpt lat="44.89566977137036" lon="3.132171893517493"><ele>834.0</ele><time>2026-04-05T08:23:25Z</time></trkpt><trkpt lat="44.89567927107946" lon="3.1322995112736107"><ele>834.0</ele><time>2026-04-05T08:23:26Z</time></trkpt><trkpt lat="44.89568514111424" lon="3.1324285233649434"><ele>834.0</ele><time>2026-04-05T08:23:27Z</time></trkpt><trkpt lat="44.89568393174268" lon="3.1325639929811704"><ele>835.6</ele><time>2026-04-05T08:23:28Z</time></trkpt><trkpt lat="44.89568039295241" lon="3.1327023607287416"><ele>837.2</ele><time>2026-04-05T08:23:29Z</time></trkpt><trkpt lat="44.895676425603554" lon="3.1328513464296477"><ele>838.8000000000001</ele><time>2026-04-05T08:23:30Z</time></trkpt><trkpt lat="44.89567245835274" lon="3.133003106928806"><ele>840.4000000000001</ele><time>2026-04-05T08:23:31Z</time></trkpt><trkpt lat="44.895669455002306" lon="3.1331529096307817"><ele>842.0</ele><time>2026-04-05T08:23:32Z</time></trkpt><trkpt lat="44.89568070963203" lon="3.1332639262906308"><ele>843.6666666666667</ele><time>2026-04-05T08:23:33Z</time></trkpt><trkpt lat="44.89571787970674" lon="3.133348710177385"><ele>845.3333333333334</ele><time>2026-04-05T08:23:34Z</time></trkpt><trkpt lat="44.89582481116657" lon="3.1334058320183917"><ele>847.0</ele><time>2026-04-05T08:23:36Z</time></trkpt><trkpt lat="44.89590740539751" lon="3.1333668285003364"><ele>848.6666666666667</ele><time>2026-04-05T08:23:37Z</time></trkpt><trkpt lat="44.89597597468131" lon="3.1333484277881523"><ele>850.3333333333334</ele><time>2026-04-05T08:23:38Z</time></trkpt><trkpt lat="44.896044052911954" lon="3.133352958692046"><ele>852.0</ele><time>2026-04-05T08:23:39Z</time></trkpt><trkpt lat="44.896114043315045" lon="3.1333401339359477"><ele>854.1666666666666</ele><time>2026-04-05T08:23:40Z</time></trkpt><trkpt lat="44.896184960045375" lon="3.1333038723232782"><ele>856.3333333333333</ele><time>2026-04-05T08:23:41Z</time></trkpt><trkpt lat="44.89625257425416" lon="3.1332960562302827"><ele>858.5</ele><time>2026-04-05T08:23:42Z</time></trkpt><trkpt lat="44.89631552840385" lon="3.133302878316528"><ele>860.6666666666666</ele><time>2026-04-05T08:23:43Z</time></trkpt><trkpt lat="44.89641683523445" lon="3.13327544573268"><ele>862.8333333333333</ele><time>2026-04-05T08:23:45Z</time></trkpt><trkpt lat="44.89650862601814" lon="3.133251924225571"><ele>865.0</ele><time>2026-04-05T08:23:47Z</time></trkpt><trkpt lat="44.89662390720666" lon="3.133231741999529"><ele>863.6</ele><time>2026-04-05T08:23:49Z</time></trkpt><trkpt lat="44.89669336276422" lon="3.1332058348122462"><ele>862.2</ele><time>2026-04-05T08:23:50Z</time></trkpt><trkpt lat="44.89677729290322" lon="3.133203217377285"><ele>860.8</ele><time>2026-04-05T08:23:51Z</time></trkpt><trkpt lat="44.89687613852978" lon="3.133214538072306"><ele>859.4</ele><time>2026-04-05T08:23:52Z</time></trkpt><trkpt lat="44.89698702103721" lon="3.133188721716431"><ele>858.0</ele><time>2026-04-05T08:23:53Z</time></trkpt><trkpt lat="44.89710243212712" lon="3.133198970182487"><ele>858.0</ele><time>2026-04-05T08:23:54Z</time></trkpt><trkpt lat="44.89721131055329" lon="3.133156721391958"><ele>858.0</ele><time>2026-04-05T08:23:55Z</time></trkpt><trkpt lat="44.89731632598837" lon="3.133136497925853"><ele>858.0</ele><time>2026-04-05T08:23:55.999Z</time></trkpt><trkpt lat="44.897424426121425" lon="3.1331154526950784"><ele>858.0</ele><time>2026-04-05T08:23:56.999Z</time></trkpt><trkpt lat="44.89753172252335" lon="3.1331105608997953"><ele>858.0</ele><time>2026-04-05T08:23:57.999Z</time></trkpt><trkpt lat="44.89762945303039" lon="3.1330840060395935"><ele>861.5999999999999</ele><time>2026-04-05T08:23:58.999Z</time></trkpt><trkpt lat="44.89770695598611" lon="3.1330354716292708"><ele>865.1999999999999</ele><time>2026-04-05T08:23:59.999Z</time></trkpt><trkpt lat="44.89777324674627" lon="3.1330151962515673"><ele>868.8</ele><time>2026-04-05T08:24:00.999Z</time></trkpt><trkpt lat="44.897868015247354" lon="3.1329378800892447"><ele>872.4</ele><time>2026-04-05T08:24:02.999Z</time></trkpt><trkpt lat="44.897938134906845" lon="3.1328210382908814"><ele>876.0</ele><time>2026-04-05T08:24:04.999Z</time></trkpt><trkpt lat="44.898000269026625" lon="3.1327418289237867"><ele>876.0</ele><time>2026-04-05T08:24:06.999Z</time></trkpt><trkpt lat="44.89804595116484" lon="3.132672704850635"><ele>876.0</ele><time>2026-04-05T08:24:08.999Z</time></trkpt><trkpt lat="44.898100579902966" lon="3.1325928958070977"><ele>876.0</ele><time>2026-04-05T08:24:10.999Z</time></trkpt><trkpt lat="44.898151897889406" lon="3.132526448547613"><ele>876.0</ele><time>2026-04-05T08:24:12.999Z</time></trkpt><trkpt lat="44.898200736908905" lon="3.1324682005673403"><ele>876.0</ele><time>2026-04-05T08:24:14.999Z</time></trkpt><trkpt lat="44.89825615921961" lon="3.1324100926169436"><ele>876.0</ele><time>2026-04-05T08:24:16.999Z</time></trkpt><trkpt lat="44.89832181370715" lon="3.1323496333651946"><ele>876.0</ele><time>2026-04-05T08:24:18.999Z</time></trkpt><trkpt lat="44.89839626474176" lon="3.1322883461540734"><ele>875.6666666666666</ele><time>2026-04-05T08:24:20.999Z</time></trkpt><trkpt lat="44.89846950762147" lon="3.132236427688017"><ele>875.3333333333333</ele><time>2026-04-05T08:24:22.999Z</time></trkpt><trkpt lat="44.898548872239914" lon="3.1321923744649895"><ele>875.0</ele><time>2026-04-05T08:24:24.999Z</time></trkpt><trkpt lat="44.89862518447826" lon="3.1321600828223386"><ele>874.6666666666666</ele><time>2026-04-05T08:24:26.999Z</time></trkpt><trkpt lat="44.898707187354034" lon="3.132143153222106"><ele>874.3333333333333</ele><time>2026-04-05T08:24:28.999Z</time></trkpt><trkpt lat="44.89880663820589" lon="3.1321490279618005"><ele>874.0</ele><time>2026-04-05T08:24:30.999Z</time></trkpt><trkpt lat="44.89891570399009" lon="3.1321765603529017"><ele>874.0</ele><time>2026-04-05T08:24:32.999Z</time></trkpt><trkpt lat="44.89901594919367" lon="3.1322354204334975"><ele>874.0000000000001</ele><time>2026-04-05T08:24:34.999Z</time></trkpt><trkpt lat="44.89908692912167" lon="3.1323521236279337"><ele>874.0000000000001</ele><time>2026-04-05T08:24:36.999Z</time></trkpt><trkpt lat="44.89906636256482" lon="3.1324953794583563"><ele>874.0</ele><time>2026-04-05T08:24:38.999Z</time></trkpt><trkpt lat="44.89899703687928" lon="3.1326278728663044"><ele>874.0</ele><time>2026-04-05T08:24:40.999Z</time></trkpt><trkpt lat="44.89895126894131" lon="3.1327071896976952"><ele>876.6</ele><time>2026-04-05T08:24:41.999Z</time></trkpt><trkpt lat="44.898900292259405" lon="3.1328011461558836"><ele>879.2</ele><time>2026-04-05T08:24:42.999Z</time></trkpt><trkpt lat="44.89886468630382" lon="3.1329317042518587"><ele>881.8000000000001</ele><time>2026-04-05T08:24:43.999Z</time></trkpt><trkpt lat="44.89880884047884" lon="3.1330643177850606"><ele>884.4000000000001</ele><time>2026-04-05T08:24:44.999Z</time></trkpt><trkpt lat="44.89874671311145" lon="3.1332114274831055"><ele>887.0</ele><time>2026-04-05T08:24:45.999Z</time></trkpt><trkpt lat="44.898681452398286" lon="3.1333612323736"><ele>887.0</ele><time>2026-04-05T08:24:46.999Z</time></trkpt><trkpt lat="44.898613630943544" lon="3.1335234841461146"><ele>887.0</ele><time>2026-04-05T08:24:47.999Z</time></trkpt><trkpt lat="44.89854249248876" lon="3.133696745050379"><ele>887.0</ele><time>2026-04-05T08:24:48.999Z</time></trkpt><trkpt lat="44.89847247718968" lon="3.1338713259974695"><ele>887.0</ele><time>2026-04-05T08:24:49.999Z</time></trkpt><trkpt lat="44.8984085490146" lon="3.13401119051711"><ele>889.6</ele><time>2026-04-05T08:24:50.999Z</time></trkpt><trkpt lat="44.898371251089394" lon="3.1341457931780545"><ele>892.2</ele><time>2026-04-05T08:24:51.999Z</time></trkpt><trkpt lat="44.898358466188895" lon="3.134250234488855"><ele>894.8</ele><time>2026-04-05T08:24:52.999Z</time></trkpt><trkpt lat="44.89841399614153" lon="3.1344166981161017"><ele>897.4</ele><time>2026-04-05T08:24:54.999Z</time></trkpt><trkpt lat="44.89851618042257" lon="3.134448389129967"><ele>900.0</ele><time>2026-04-05T08:24:55.999Z</time></trkpt><trkpt lat="44.89857305405005" lon="3.134545452057583"><ele>901.2</ele><time>2026-04-05T08:24:56.999Z</time></trkpt><trkpt lat="44.89862885006745" lon="3.134657060004726"><ele>902.4</ele><time>2026-04-05T08:24:57.999Z</time></trkpt><trkpt lat="44.898659251863116" lon="3.134787802530107"><ele>903.5999999999999</ele><time>2026-04-05T08:24:58.999Z</time></trkpt><trkpt lat="44.89866475874156" lon="3.134929191559512"><ele>904.8</ele><time>2026-04-05T08:24:59.999Z</time></trkpt><trkpt lat="44.898649745155865" lon="3.135072976609794"><ele>906.0</ele><time>2026-04-05T08:25:00.999Z</time></trkpt><trkpt lat="44.89859296427749" lon="3.1351809984462884"><ele>907.1999999999999</ele><time>2026-04-05T08:25:01.999Z</time></trkpt><trkpt lat="44.898519744236346" lon="3.135267214111848"><ele>908.3999999999999</ele><time>2026-04-05T08:25:02.999Z</time></trkpt><trkpt lat="44.8984539907158" lon="3.1353243064782728"><ele>909.6</ele><time>2026-04-05T08:25:03.999Z</time></trkpt><trkpt lat="44.89837211392953" lon="3.1353935066727137"><ele>910.8</ele><time>2026-04-05T08:25:05.999Z</time></trkpt><trkpt lat="44.89848512803699" lon="3.135525710620223"><ele>912.0</ele><time>2026-04-05T08:25:10Z</time></trkpt><trkpt lat="44.89855037768919" lon="3.1355459515059767"><ele>912.2</ele><time>2026-04-05T08:25:12Z</time></trkpt><trkpt lat="44.89864922994694" lon="3.1355132787381734"><ele>912.4000000000001</ele><time>2026-04-05T08:25:14Z</time></trkpt><trkpt lat="44.898739408949915" lon="3.1354558461998634"><ele>912.5999999999999</ele><time>2026-04-05T08:25:16Z</time></trkpt><trkpt lat="44.89879569578371" lon="3.1353694215498193"><ele>912.8</ele><time>2026-04-05T08:25:17Z</time></trkpt><trkpt lat="44.898863778196954" lon="3.135289124710468"><ele>913.0</ele><time>2026-04-05T08:25:19Z</time></trkpt><trkpt lat="44.898942971526324" lon="3.135250133804916"><ele>912.9999999999999</ele><time>2026-04-05T08:25:21Z</time></trkpt><trkpt lat="44.899004865092984" lon="3.135277205932741"><ele>913.0</ele><time>2026-04-05T08:25:23Z</time></trkpt><trkpt lat="44.89905538654666" lon="3.1353398289090166"><ele>912.9999999999999</ele><time>2026-04-05T08:25:25Z</time></trkpt><trkpt lat="44.89910497405641" lon="3.135405564141302"><ele>912.9999999999999</ele><time>2026-04-05T08:25:28Z</time></trkpt><trkpt lat="44.899155546435125" lon="3.13548059461799"><ele>913.0</ele><time>2026-04-05T08:25:30Z</time></trkpt><trkpt lat="44.89920463321735" lon="3.135538450115435"><ele>912.9999999999999</ele><time>2026-04-05T08:25:33Z</time></trkpt><trkpt lat="44.89925264942986" lon="3.135616263081166"><ele>912.9999999999999</ele><time>2026-04-05T08:25:36Z</time></trkpt><trkpt lat="44.899298378244374" lon="3.135726209210543"><ele>909.25</ele><time>2026-04-05T08:25:39Z</time></trkpt><trkpt lat="44.89933429096155" lon="3.135799973581717"><ele>905.5</ele><time>2026-04-05T08:25:41Z</time></trkpt><trkpt lat="44.899505166180646" lon="3.135986536447467"><ele>901.75</ele><time>2026-04-05T08:26:07.999Z</time></trkpt><trkpt lat="44.899563052493605" lon="3.136044979160171"><ele>898.0</ele><time>2026-04-05T08:26:08.999Z</time></trkpt><trkpt lat="44.899649012032114" lon="3.1361463017924875"><ele>897.9999999999999</ele><time>2026-04-05T08:26:10.999Z</time></trkpt><trkpt lat="44.89971295731507" lon="3.136184565513151"><ele>898.0</ele><time>2026-04-05T08:26:11.999Z</time></trkpt><trkpt lat="44.89976953247391" lon="3.136233137602438"><ele>898.0</ele><time>2026-04-05T08:26:13.999Z</time></trkpt><trkpt lat="44.89981863473229" lon="3.136290358991724"><ele>898.0</ele><time>2026-04-05T08:26:15.999Z</time></trkpt><trkpt lat="44.899871754937585" lon="3.13634153477752"><ele>897.9999999999999</ele><time>2026-04-05T08:26:23.999Z</time></trkpt><trkpt lat="44.89995619021593" lon="3.136395276287383"><ele>898.0</ele><time>2026-04-05T08:26:27.999Z</time></trkpt><trkpt lat="44.900051602738145" lon="3.136460822513746"><ele>894.6666666666666</ele><time>2026-04-05T08:26:29.999Z</time></trkpt><trkpt lat="44.900134582594454" lon="3.1365469536987693"><ele>891.3333333333333</ele><time>2026-04-05T08:26:31.999Z</time></trkpt><trkpt lat="44.90019599838664" lon="3.1366122838734225"><ele>888.0</ele><time>2026-04-05T08:26:33.999Z</time></trkpt><trkpt lat="44.90025939611992" lon="3.13669576597902"><ele>884.6666666666667</ele><time>2026-04-05T08:26:35.999Z</time></trkpt><trkpt lat="44.90027076732979" lon="3.1368114273204513"><ele>881.3333333333334</ele><time>2026-04-05T08:26:37.999Z</time></trkpt><trkpt lat="44.9002873499841" lon="3.136914280504059"><ele>878.0</ele><time>2026-04-05T08:26:39.999Z</time></trkpt><trkpt lat="44.90032413831793" lon="3.1369935881198914"><ele>878.0</ele><time>2026-04-05T08:26:41.999Z</time></trkpt><trkpt lat="44.9003429001033" lon="3.1371282142428387"><ele>878.0</ele><time>2026-04-05T08:26:43.999Z</time></trkpt><trkpt lat="44.90034428746297" lon="3.137259502456769"><ele>878.0</ele><time>2026-04-05T08:26:45.999Z</time></trkpt><trkpt lat="44.90036311614935" lon="3.13737809643621"><ele>878.0</ele><time>2026-04-05T08:26:47.999Z</time></trkpt><trkpt lat="44.9003467912135" lon="3.1375370825299975"><ele>878.0</ele><time>2026-04-05T08:26:49.999Z</time></trkpt><trkpt lat="44.90034238803863" lon="3.1376322572865756"><ele>878.1666666666667</ele><time>2026-04-05T08:26:50.999Z</time></trkpt><trkpt lat="44.9003436537055" lon="3.13774091036352"><ele>878.3333333333334</ele><time>2026-04-05T08:26:51.999Z</time></trkpt><trkpt lat="44.90034186279569" lon="3.1378386272752636"><ele>878.5</ele><time>2026-04-05T08:26:52.999Z</time></trkpt><trkpt lat="44.90032107441449" lon="3.1379317438780876"><ele>878.6666666666667</ele><time>2026-04-05T08:26:53.999Z</time></trkpt><trkpt lat="44.900314106541074" lon="3.138048547077869"><ele>878.8333333333334</ele><time>2026-04-05T08:26:54.999Z</time></trkpt><trkpt lat="44.90031548830301" lon="3.1381501280277133"><ele>879.0</ele><time>2026-04-05T08:26:55.999Z</time></trkpt><trkpt lat="44.90032020696964" lon="3.138263169064901"><ele>879.0</ele><time>2026-04-05T08:26:56.999Z</time></trkpt><trkpt lat="44.90032963342579" lon="3.138361138822036"><ele>879.0</ele><time>2026-04-05T08:26:57.999Z</time></trkpt><trkpt lat="44.90032690862012" lon="3.138462335469383"><ele>879.0</ele><time>2026-04-05T08:26:58.999Z</time></trkpt><trkpt lat="44.90031386714592" lon="3.138578199079492"><ele>879.0</ele><time>2026-04-05T08:26:59.999Z</time></trkpt><trkpt lat="44.90031158500095" lon="3.1386804626742375"><ele>879.0</ele><time>2026-04-05T08:27:00.999Z</time></trkpt><trkpt lat="44.900307797772825" lon="3.138814354540623"><ele>879.0</ele><time>2026-04-05T08:27:02.999Z</time></trkpt><trkpt lat="44.90029392624454" lon="3.1389036356546867"><ele>879.0</ele><time>2026-04-05T08:27:05.999Z</time></trkpt><trkpt lat="44.90024728724678" lon="3.1390112367729035"><ele>879.0</ele><time>2026-04-05T08:27:07.999Z</time></trkpt><trkpt lat="44.90019542804274" lon="3.139073038930023"><ele>879.0</ele><time>2026-04-05T08:27:09.999Z</time></trkpt><trkpt lat="44.90017591413279" lon="3.139219226058021"><ele>879.0</ele><time>2026-04-05T08:27:11.999Z</time></trkpt><trkpt lat="44.900143566033215" lon="3.139375581040409"><ele>879.0</ele><time>2026-04-05T08:27:14Z</time></trkpt><trkpt lat="44.90010748342392" lon="3.139450964719532"><ele>879.0</ele><time>2026-04-05T08:27:15Z</time></trkpt><trkpt lat="44.90009236695733" lon="3.1395519915783083"><ele>879.2857142857143</ele><time>2026-04-05T08:27:17Z</time></trkpt><trkpt lat="44.90009758659426" lon="3.13965152885513"><ele>879.5714285714287</ele><time>2026-04-05T08:27:19Z</time></trkpt><trkpt lat="44.90010895355596" lon="3.13975881945374"><ele>879.8571428571429</ele><time>2026-04-05T08:27:21Z</time></trkpt><trkpt lat="44.90011039831975" lon="3.1398645066467923"><ele>880.1428571428571</ele><time>2026-04-05T08:27:23Z</time></trkpt><trkpt lat="44.90008947931721" lon="3.1399501281829973"><ele>880.4285714285714</ele><time>2026-04-05T08:27:25Z</time></trkpt><trkpt lat="44.90002545454442" lon="3.1399633833917684"><ele>880.7142857142857</ele><time>2026-04-05T08:27:27Z</time></trkpt><trkpt lat="44.899998949304496" lon="3.140072381178355"><ele>881.0</ele><time>2026-04-05T08:27:30Z</time></trkpt><trkpt lat="44.899983559785476" lon="3.140160951722071"><ele>887.6666666666667</ele><time>2026-04-05T08:27:32Z</time></trkpt><trkpt lat="44.89998470860768" lon="3.1402805544532977"><ele>894.3333333333334</ele><time>2026-04-05T08:27:35Z</time></trkpt><trkpt lat="44.89998755193228" lon="3.1403822516378384"><ele>901.0</ele><time>2026-04-05T08:27:38Z</time></trkpt><trkpt lat="44.89993607666071" lon="3.140470772737738"><ele>907.6666666666667</ele><time>2026-04-05T08:27:41Z</time></trkpt><trkpt lat="44.899925677290334" lon="3.1405930155988044"><ele>914.3333333333334</ele><time>2026-04-05T08:27:45Z</time></trkpt><trkpt lat="44.899846307499466" lon="3.140686407567804"><ele>921.0</ele><time>2026-04-05T08:27:47Z</time></trkpt><trkpt lat="44.899765525363335" lon="3.140746197768221"><ele>922.3333333333334</ele><time>2026-04-05T08:27:49Z</time></trkpt><trkpt lat="44.89969916423011" lon="3.140786874461351"><ele>923.6666666666667</ele><time>2026-04-05T08:27:50Z</time></trkpt><trkpt lat="44.89963096545616" lon="3.140808247242821"><ele>925.0</ele><time>2026-04-05T08:27:51Z</time></trkpt><trkpt lat="44.89958083601506" lon="3.140870013975118"><ele>926.3333333333334</ele><time>2026-04-05T08:27:51.999Z</time></trkpt><trkpt lat="44.89950970309997" lon="3.1410168339452267"><ele>927.6666666666667</ele><time>2026-04-05T08:27:53.999Z</time></trkpt><trkpt lat="44.89947408574852" lon="3.1410947617253315"><ele>929.0</ele><time>2026-04-05T08:27:54.999Z</time></trkpt><trkpt lat="44.899368602533215" lon="3.1411462589873014"><ele>929.0000000000001</ele><time>2026-04-05T08:27:56.999Z</time></trkpt><trkpt lat="44.89926327116841" lon="3.141157332027708"><ele>929.0</ele><time>2026-04-05T08:27:58.999Z</time></trkpt><trkpt lat="44.89919939147477" lon="3.141148937219335"><ele>929.0</ele><time>2026-04-05T08:28:00.999Z</time></trkpt><trkpt lat="44.899175551541475" lon="3.1410445503956024"><ele>929.0</ele><time>2026-04-05T08:28:02.999Z</time></trkpt><trkpt lat="44.89916131356673" lon="3.1409552352583776"><ele>929.0000000000001</ele><time>2026-04-05T08:28:03.999Z</time></trkpt><trkpt lat="44.89912573992208" lon="3.1408267235432112"><ele>929.0</ele><time>2026-04-05T08:28:05.999Z</time></trkpt><trkpt lat="44.899057452290755" lon="3.1407846490623945"><ele>931.8333333333334</ele><time>2026-04-05T08:28:07.999Z</time></trkpt><trkpt lat="44.8989719816836" lon="3.140812582218582"><ele>934.6666666666667</ele><time>2026-04-05T08:28:09.999Z</time></trkpt><trkpt lat="44.89888015910056" lon="3.140763050494276"><ele>937.5</ele><time>2026-04-05T08:28:11.999Z</time></trkpt><trkpt lat="44.89879847777534" lon="3.1407888750328707"><ele>940.3333333333333</ele><time>2026-04-05T08:28:12.999Z</time></trkpt><trkpt lat="44.89871019899388" lon="3.1407998335182286"><ele>943.1666666666666</ele><time>2026-04-05T08:28:13.999Z</time></trkpt><trkpt lat="44.89864714065005" lon="3.1408030155018216"><ele>946.0</ele><time>2026-04-05T08:28:14.999Z</time></trkpt><trkpt lat="44.89857591189319" lon="3.140806575918248"><ele>945.9999999999999</ele><time>2026-04-05T08:28:15.999Z</time></trkpt><trkpt lat="44.898490273114966" lon="3.1408493458637627"><ele>946.0</ele><time>2026-04-05T08:28:17.999Z</time></trkpt><trkpt lat="44.8983868521776" lon="3.1408690301891014"><ele>946.0</ele><time>2026-04-05T08:28:20.999Z</time></trkpt><trkpt lat="44.89832351205182" lon="3.140882634192761"><ele>946.0</ele><time>2026-04-05T08:28:29.999Z</time></trkpt><trkpt lat="44.89826026095092" lon="3.1408885814536904"><ele>945.9999999999999</ele><time>2026-04-05T08:28:31.999Z</time></trkpt><trkpt lat="44.89815485659799" lon="3.1409287208272985"><ele>946.0</ele><time>2026-04-05T08:28:33.999Z</time></trkpt><trkpt lat="44.89804851447858" lon="3.140988522790654"><ele>947.8333333333333</ele><time>2026-04-05T08:28:35.999Z</time></trkpt><trkpt lat="44.89799960528599" lon="3.1410732777350003"><ele>949.6666666666666</ele><time>2026-04-05T08:28:37.999Z</time></trkpt><trkpt lat="44.89793607662003" lon="3.1411248694371556"><ele>951.5</ele><time>2026-04-05T08:28:39.999Z</time></trkpt><trkpt lat="44.89786682337878" lon="3.141158858034865"><ele>953.3333333333333</ele><time>2026-04-05T08:28:41.999Z</time></trkpt><trkpt lat="44.89777836747732" lon="3.1411669728673903"><ele>955.1666666666666</ele><time>2026-04-05T08:28:43.999Z</time></trkpt><trkpt lat="44.89770543172942" lon="3.141185810343616"><ele>957.0</ele><time>2026-04-05T08:28:44.999Z</time></trkpt><trkpt lat="44.89761794321311" lon="3.141220690700074"><ele>957.0</ele><time>2026-04-05T08:28:46.999Z</time></trkpt><trkpt lat="44.897520796604425" lon="3.141332740842396"><ele>957.0</ele><time>2026-04-05T08:28:48.999Z</time></trkpt><trkpt lat="44.89743989716382" lon="3.141339816767061"><ele>957.0</ele><time>2026-04-05T08:28:50.999Z</time></trkpt><trkpt lat="44.897355625404785" lon="3.141372270241066"><ele>957.0</ele><time>2026-04-05T08:28:52.999Z</time></trkpt><trkpt lat="44.897289729887596" lon="3.1414360960899277"><ele>957.0</ele><time>2026-04-05T08:28:53.999Z</time></trkpt><trkpt lat="44.89722316817868" lon="3.141478803636151"><ele>957.0</ele><time>2026-04-05T08:28:54.999Z</time></trkpt><trkpt lat="44.89712198945048" lon="3.1415609624691614"><ele>957.0</ele><time>2026-04-05T08:28:56.999Z</time></trkpt><trkpt lat="44.896994711747304" lon="3.1416204464136857"><ele>957.0</ele><time>2026-04-05T08:28:58.999Z</time></trkpt><trkpt lat="44.896920723118065" lon="3.141674245410074"><ele>957.0</ele><time>2026-04-05T08:29:00.999Z</time></trkpt><trkpt lat="44.89686940626015" lon="3.1417695462610147"><ele>957.0</ele><time>2026-04-05T08:29:02.999Z</time></trkpt><trkpt lat="44.89681555562938" lon="3.1418795931010663"><ele>957.0</ele><time>2026-04-05T08:29:04.999Z</time></trkpt><trkpt lat="44.896770717638034" lon="3.142029577048288"><ele>957.0</ele><time>2026-04-05T08:29:06.999Z</time></trkpt><trkpt lat="44.8967027706024" lon="3.14215532527763"><ele>957.0</ele><time>2026-04-05T08:29:08.999Z</time></trkpt><trkpt lat="44.89666194072743" lon="3.1422530756643225"><ele>957.0</ele><time>2026-04-05T08:29:09.999Z</time></trkpt><trkpt lat="44.896606116023115" lon="3.142326081068471"><ele>957.0</ele><time>2026-04-05T08:29:10.999Z</time></trkpt><trkpt lat="44.89654869449757" lon="3.142401856061341"><ele>957.0</ele><time>2026-04-05T08:29:11.999Z</time></trkpt><trkpt lat="44.89649446603943" lon="3.1424851648791257"><ele>957.0</ele><time>2026-04-05T08:29:12.998Z</time></trkpt><trkpt lat="44.89643163350406" lon="3.14255707013049"><ele>957.0</ele><time>2026-04-05T08:29:13.998Z</time></trkpt><trkpt lat="44.89638439962375" lon="3.142617068460398"><ele>957.0</ele><time>2026-04-05T08:29:14.998Z</time></trkpt><trkpt lat="44.89632636603379" lon="3.142713338129237"><ele>957.0</ele><time>2026-04-05T08:29:16.998Z</time></trkpt><trkpt lat="44.896265903670525" lon="3.1427719493151893"><ele>957.0</ele><time>2026-04-05T08:29:18.998Z</time></trkpt><trkpt lat="44.89621215425492" lon="3.1428754259998084"><ele>957.0</ele><time>2026-04-05T08:29:21Z</time></trkpt><trkpt lat="44.896148262949595" lon="3.1429277258246877"><ele>957.0</ele><time>2026-04-05T08:29:23Z</time></trkpt><trkpt lat="44.89608311605488" lon="3.142997876846748"><ele>957.0</ele><time>2026-04-05T08:29:25Z</time></trkpt><trkpt lat="44.89602561501526" lon="3.143095881657637"><ele>957.0</ele><time>2026-04-05T08:29:28Z</time></trkpt><trkpt lat="44.8959927574115" lon="3.1431845707712345"><ele>957.0</ele><time>2026-04-05T08:29:30Z</time></trkpt><trkpt lat="44.89601420704831" lon="3.14328156499892"><ele>957.0</ele><time>2026-04-05T08:29:33Z</time></trkpt><trkpt lat="44.89611076254196" lon="3.1432838020192806"><ele>957.0</ele><time>2026-04-05T08:30:10.999Z</time></trkpt><trkpt lat="44.896166518234345" lon="3.1431993728832106"><ele>957.0</ele><time>2026-04-05T08:30:36.999Z</time></trkpt><trkpt lat="44.89608140306757" lon="3.1431670918494357"><ele>957.0</ele><time>2026-04-05T08:31:30Z</time></trkpt><trkpt lat="44.896001990024374" lon="3.1430897391877437"><ele>957.0</ele><time>2026-04-05T08:31:33Z</time></trkpt><trkpt lat="44.89595176021955" lon="3.1429870938903144"><ele>957.0</ele><time>2026-04-05T08:31:35Z</time></trkpt><trkpt lat="44.895900621152364" lon="3.142894179858536"><ele>957.0</ele><time>2026-04-05T08:31:38Z</time></trkpt><trkpt lat="44.895844998698216" lon="3.142823896329329"><ele>957.0</ele><time>2026-04-05T08:31:40Z</time></trkpt><trkpt lat="44.89579138809672" lon="3.1427617767920735"><ele>957.0</ele><time>2026-04-05T08:31:42Z</time></trkpt><trkpt lat="44.89587284640416" lon="3.1428137373591376"><ele>957.0</ele><time>2026-04-05T08:33:35Z</time></trkpt><trkpt lat="44.895925269504474" lon="3.1428672761263754"><ele>957.0</ele><time>2026-04-05T08:33:39Z</time></trkpt><trkpt lat="44.89597134730215" lon="3.1429835268496"><ele>957.0</ele><time>2026-04-05T08:33:42Z</time></trkpt><trkpt lat="44.89602807924479" lon="3.1430606150067804"><ele>957.0</ele><time>2026-04-05T08:33:45Z</time></trkpt><trkpt lat="44.89609098685162" lon="3.143133946238909"><ele>957.0</ele><time>2026-04-05T08:33:48Z</time></trkpt><trkpt lat="44.89609430910477" lon="3.1432233636902533"><ele>957.0</ele><time>2026-04-05T08:33:54Z</time></trkpt><trkpt lat="44.89603586328539" lon="3.1433029963071393"><ele>958.0</ele><time>2026-04-05T08:34:10.999Z</time></trkpt><trkpt lat="44.895936770195206" lon="3.1432563886427345"><ele>959.0</ele><time>2026-04-05T08:34:13.999Z</time></trkpt><trkpt lat="44.89587866684736" lon="3.1432190076908473"><ele>960.0</ele><time>2026-04-05T08:34:14.999Z</time></trkpt><trkpt lat="44.89580023077786" lon="3.1431459313486716"><ele>961.0</ele><time>2026-04-05T08:34:16.999Z</time></trkpt><trkpt lat="44.89572627285787" lon="3.143109866933648"><ele>962.0</ele><time>2026-04-05T08:34:18.999Z</time></trkpt><trkpt lat="44.89580110939835" lon="3.1431597593768754"><ele>963.0</ele><time>2026-04-05T08:34:58.999Z</time></trkpt><trkpt lat="44.89589071416904" lon="3.143236471507494"><ele>962.0</ele><time>2026-04-05T08:35:00.999Z</time></trkpt><trkpt lat="44.89596891356422" lon="3.1432550991810873"><ele>961.0</ele><time>2026-04-05T08:35:02.999Z</time></trkpt><trkpt lat="44.89603049187391" lon="3.143202785090294"><ele>960.0</ele><time>2026-04-05T08:35:21.998Z</time></trkpt><trkpt lat="44.89610156548303" lon="3.143144810379437"><ele>959.0</ele><time>2026-04-05T08:35:26.998Z</time></trkpt><trkpt lat="44.8960233333481" lon="3.1430785294726435"><ele>958.0</ele><time>2026-04-05T08:38:35Z</time></trkpt><trkpt lat="44.89597920684238" lon="3.143010833516928"><ele>957.0</ele><time>2026-04-05T08:38:37Z</time></trkpt><trkpt lat="44.89593862645036" lon="3.1429255944605994"><ele>957.0</ele><time>2026-04-05T08:38:40Z</time></trkpt><trkpt lat="44.89587073952286" lon="3.142849856407585"><ele>957.0000000000001</ele><time>2026-04-05T08:38:43Z</time></trkpt><trkpt lat="44.89583653296699" lon="3.142773180398595"><ele>957.0</ele><time>2026-04-05T08:38:45Z</time></trkpt><trkpt lat="44.89577630488576" lon="3.142746022870481"><ele>957.0</ele><time>2026-04-05T08:38:49Z</time></trkpt><trkpt lat="44.89585812177959" lon="3.1427559277301147"><ele>957.0000000000001</ele><time>2026-04-05T08:38:57Z</time></trkpt><trkpt lat="44.89590452017122" lon="3.1428331853461096"><ele>957.0</ele><time>2026-04-05T08:39:00Z</time></trkpt><trkpt lat="44.895942448790265" lon="3.14292040900593"><ele>957.0</ele><time>2026-04-05T08:39:03Z</time></trkpt><trkpt lat="44.895998697067334" lon="3.1430122066424158"><ele>957.0</ele><time>2026-04-05T08:39:05Z</time></trkpt><trkpt lat="44.8960510299383" lon="3.1430620201369663"><ele>957.0</ele><time>2026-04-05T08:39:08Z</time></trkpt><trkpt lat="44.89608893763663" lon="3.1431539407123523"><ele>957.0</ele><time>2026-04-05T08:39:11Z</time></trkpt><trkpt lat="44.89622923115233" lon="3.1432161866798327"><ele>957.0</ele><time>2026-04-05T08:39:47.999Z</time></trkpt><trkpt lat="44.89634007833799" lon="3.143178762113082"><ele>957.0</ele><time>2026-04-05T08:39:50.001Z</time></trkpt><trkpt lat="44.89644128948322" lon="3.143118939472546"><ele>957.0</ele><time>2026-04-05T08:39:52.001Z</time></trkpt><trkpt lat="44.89655155871764" lon="3.1430620579146415"><ele>957.0</ele><time>2026-04-05T08:39:54Z</time></trkpt><trkpt lat="44.89664780257111" lon="3.1430246267697703"><ele>957.0</ele><time>2026-04-05T08:39:56Z</time></trkpt><trkpt lat="44.896714495046304" lon="3.1429465596617483"><ele>957.0</ele><time>2026-04-05T08:39:58Z</time></trkpt><trkpt lat="44.89677231963154" lon="3.142908541884834"><ele>957.0</ele><time>2026-04-05T08:40:01Z</time></trkpt><trkpt lat="44.89684352797313" lon="3.142925088640831"><ele>957.0</ele><time>2026-04-05T08:40:06Z</time></trkpt><trkpt lat="44.896931437905145" lon="3.1429052897952507"><ele>952.3333333333334</ele><time>2026-04-05T08:40:15Z</time></trkpt><trkpt lat="44.89699191595843" lon="3.1429563694794864"><ele>947.6666666666667</ele><time>2026-04-05T08:40:28Z</time></trkpt><trkpt lat="44.897025629602624" lon="3.143035967133524"><ele>943.0</ele><time>2026-04-05T08:40:43Z</time></trkpt><trkpt lat="44.89717767733185" lon="3.143062346106065"><ele>938.3333333333334</ele><time>2026-04-05T08:41:02Z</time></trkpt><trkpt lat="44.897242859228925" lon="3.1430637863805715"><ele>933.6666666666667</ele><time>2026-04-05T08:41:09Z</time></trkpt><trkpt lat="44.897311805764176" lon="3.143022126711971"><ele>929.0</ele><time>2026-04-05T08:41:12Z</time></trkpt><trkpt lat="44.89738733024245" lon="3.1430567662435682"><ele>929.0000000000001</ele><time>2026-04-05T08:41:16Z</time></trkpt><trkpt lat="44.89745298840295" lon="3.1430019719131574"><ele>929.0</ele><time>2026-04-05T08:41:21.999Z</time></trkpt><trkpt lat="44.89748684411251" lon="3.1429129098316366"><ele>929.0</ele><time>2026-04-05T08:41:23.999Z</time></trkpt><trkpt lat="44.89755534416358" lon="3.142839059983853"><ele>929.0</ele><time>2026-04-05T08:41:25.999Z</time></trkpt><trkpt lat="44.89763498735274" lon="3.142808933452472"><ele>929.0000000000001</ele><time>2026-04-05T08:41:28.999Z</time></trkpt><trkpt lat="44.89771604986305" lon="3.1427742501131126"><ele>929.0</ele><time>2026-04-05T08:41:30.999Z</time></trkpt><trkpt lat="44.897782281945666" lon="3.1427406528127464"><ele>924.0000000000001</ele><time>2026-04-05T08:41:34.999Z</time></trkpt><trkpt lat="44.897869037894324" lon="3.1427307727365017"><ele>919.0</ele><time>2026-04-05T08:43:05Z</time></trkpt><trkpt lat="44.897930504585396" lon="3.142689650303743"><ele>914.0</ele><time>2026-04-05T08:43:13Z</time></trkpt><trkpt lat="44.89784876072272" lon="3.1427429903590056"><ele>909.0</ele><time>2026-04-05T08:45:33.999Z</time></trkpt><trkpt lat="44.89777654194363" lon="3.1427799763470854"><ele>904.0000000000001</ele><time>2026-04-05T08:45:35.999Z</time></trkpt><trkpt lat="44.8977017259779" lon="3.142813781049714"><ele>899.0</ele><time>2026-04-05T08:45:37.999Z</time></trkpt><trkpt lat="44.89762931756178" lon="3.1428681617865957"><ele>899.0</ele><time>2026-04-05T08:45:39.999Z</time></trkpt><trkpt lat="44.897571796222486" lon="3.142907832263125"><ele>899.0000000000001</ele><time>2026-04-05T08:45:40.999Z</time></trkpt><trkpt lat="44.897535851586284" lon="3.1429866585663477"><ele>899.0000000000001</ele><time>2026-04-05T08:45:43.999Z</time></trkpt><trkpt lat="44.89764565149816" lon="3.1429674477704075"><ele>899.0</ele><time>2026-04-05T08:45:59.999Z</time></trkpt><trkpt lat="44.89777812447626" lon="3.1429716592323533"><ele>899.0</ele><time>2026-04-05T08:46:47Z</time></trkpt><trkpt lat="44.897708921270855" lon="3.1430193196588867"><ele>898.9999999999999</ele><time>2026-04-05T08:47:46.999Z</time></trkpt><trkpt lat="44.897663943798776" lon="3.1430992370007202"><ele>899.0</ele><time>2026-04-05T08:47:48.999Z</time></trkpt><trkpt lat="44.89761229509389" lon="3.1431685099756517"><ele>898.9999999999999</ele><time>2026-04-05T08:47:50.999Z</time></trkpt><trkpt lat="44.897550988508854" lon="3.1432131264420433"><ele>898.9999999999999</ele><time>2026-04-05T08:47:52.999Z</time></trkpt><trkpt lat="44.89748754872075" lon="3.143206578316517"><ele>899.0</ele><time>2026-04-05T08:47:54.999Z</time></trkpt><trkpt lat="44.89740942622479" lon="3.1431739099459155"><ele>898.9999999999999</ele><time>2026-04-05T08:47:57.999Z</time></trkpt><trkpt lat="44.89734793174324" lon="3.143229563867044"><ele>898.9999999999999</ele><time>2026-04-05T08:47:59.999Z</time></trkpt><trkpt lat="44.897292535424114" lon="3.14329166181287"><ele>899.8000000000001</ele><time>2026-04-05T08:48:01.999Z</time></trkpt><trkpt lat="44.89721864029009" lon="3.143370995638252"><ele>900.6000000000001</ele><time>2026-04-05T08:48:03.999Z</time></trkpt><trkpt lat="44.89717699961329" lon="3.143456481897467"><ele>901.4</ele><time>2026-04-05T08:48:05.999Z</time></trkpt><trkpt lat="44.89710383504014" lon="3.1435745801914603"><ele>902.2</ele><time>2026-04-05T08:48:09.999Z</time></trkpt><trkpt lat="44.8970382398499" lon="3.143680094611305"><ele>903.0</ele><time>2026-04-05T08:48:11.999Z</time></trkpt><trkpt lat="44.896985273246145" lon="3.143766334288823"><ele>903.0</ele><time>2026-04-05T08:48:14Z</time></trkpt><trkpt lat="44.89691619546734" lon="3.143834441065596"><ele>903.0</ele><time>2026-04-05T08:48:16Z</time></trkpt><trkpt lat="44.896868508760924" lon="3.1439027429861137"><ele>903.0</ele><time>2026-04-05T08:48:18Z</time></trkpt><trkpt lat="44.896797539057665" lon="3.1439246090806265"><ele>903.0</ele><time>2026-04-05T08:48:20Z</time></trkpt><trkpt lat="44.89673440654118" lon="3.1439698862899976"><ele>903.0</ele><time>2026-04-05T08:49:17.999Z</time></trkpt><trkpt lat="44.89675318675346" lon="3.144055479781802"><ele>903.0</ele><time>2026-04-05T08:49:33.999Z</time></trkpt><trkpt lat="44.89674944877292" lon="3.144153652683357"><ele>903.0</ele><time>2026-04-05T08:49:47.999Z</time></trkpt><trkpt lat="44.896691818231645" lon="3.144194454561065"><ele>904.5</ele><time>2026-04-05T08:49:51.999Z</time></trkpt><trkpt lat="44.89666572044629" lon="3.144296479924073"><ele>906.0</ele><time>2026-04-05T08:49:58.999Z</time></trkpt><trkpt lat="44.89663111525772" lon="3.1444020800210257"><ele>907.5</ele><time>2026-04-05T08:50:02.999Z</time></trkpt><trkpt lat="44.8966098711575" lon="3.1445219873819865"><ele>909.0</ele><time>2026-04-05T08:50:05.999Z</time></trkpt><trkpt lat="44.89657910194186" lon="3.1446148490585917"><ele>910.5</ele><time>2026-04-05T08:50:07.999Z</time></trkpt><trkpt lat="44.89652182947838" lon="3.144656353609334"><ele>912.0</ele><time>2026-04-05T08:50:09.999Z</time></trkpt><trkpt lat="44.896464683830985" lon="3.1447133423252374"><ele>912.0</ele><time>2026-04-05T08:50:12.999Z</time></trkpt><trkpt lat="44.896402243517166" lon="3.1447535458627107"><ele>912.0</ele><time>2026-04-05T08:50:15.999Z</time></trkpt><trkpt lat="44.89632455041398" lon="3.144827951630721"><ele>912.0</ele><time>2026-04-05T08:50:18.999Z</time></trkpt><trkpt lat="44.89627580245601" lon="3.1448981268200678"><ele>912.0</ele><time>2026-04-05T08:50:22Z</time></trkpt><trkpt lat="44.89626879180613" lon="3.1450189007607987"><ele>912.0</ele><time>2026-04-05T08:50:25Z</time></trkpt><trkpt lat="44.89625353517396" lon="3.1451513446092862"><ele>912.0</ele><time>2026-04-05T08:50:28Z</time></trkpt><trkpt lat="44.89620734806735" lon="3.1452341869416136"><ele>906.8333333333334</ele><time>2026-04-05T08:50:31Z</time></trkpt><trkpt lat="44.896183358843466" lon="3.145326472278428"><ele>901.6666666666667</ele><time>2026-04-05T08:50:44Z</time></trkpt><trkpt lat="44.896173616490735" lon="3.1454498916925644"><ele>896.5</ele><time>2026-04-05T08:50:54Z</time></trkpt><trkpt lat="44.89617737920164" lon="3.145584012890214"><ele>891.3333333333334</ele><time>2026-04-05T08:50:57Z</time></trkpt><trkpt lat="44.89618142042914" lon="3.1456741220397597"><ele>886.1666666666667</ele><time>2026-04-05T08:51:00Z</time></trkpt><trkpt lat="44.89614803278214" lon="3.1458106851112553"><ele>881.0</ele><time>2026-04-05T08:51:03Z</time></trkpt><trkpt lat="44.89614446850452" lon="3.1459264890678953"><ele>875.0</ele><time>2026-04-05T08:51:05Z</time></trkpt><trkpt lat="44.89614473416522" lon="3.1461001242949416"><ele>868.9999999999999</ele><time>2026-04-05T08:51:07Z</time></trkpt><trkpt lat="44.89615507187784" lon="3.146238610957158"><ele>863.0</ele><time>2026-04-05T08:51:09Z</time></trkpt><trkpt lat="44.896153386021254" lon="3.1463416749314312"><ele>857.0</ele><time>2026-04-05T08:51:11Z</time></trkpt><trkpt lat="44.89616967113295" lon="3.146466306244031"><ele>851.0</ele><time>2026-04-05T08:51:13Z</time></trkpt><trkpt lat="44.89618872163253" lon="3.1465921096185543"><ele>845.8333333333334</ele><time>2026-04-05T08:51:15Z</time></trkpt><trkpt lat="44.89619197756224" lon="3.146695677645961"><ele>840.6666666666667</ele><time>2026-04-05T08:51:16.999Z</time></trkpt><trkpt lat="44.89619068622173" lon="3.146817848996659"><ele>835.5</ele><time>2026-04-05T08:51:19.999Z</time></trkpt><trkpt lat="44.89626061448275" lon="3.1468282681927344"><ele>830.3333333333333</ele><time>2026-04-05T08:51:24.999Z</time></trkpt><trkpt lat="44.896319766415836" lon="3.146794856558487"><ele>825.1666666666666</ele><time>2026-04-05T08:51:27.999Z</time></trkpt><trkpt lat="44.89639434142172" lon="3.146738865282834"><ele>820.0</ele><time>2026-04-05T08:51:31.999Z</time></trkpt><trkpt lat="44.89646276548574" lon="3.1466944421334384"><ele>819.9999999999999</ele><time>2026-04-05T08:51:35.999Z</time></trkpt><trkpt lat="44.89652702128421" lon="3.146592379965796"><ele>820.0</ele><time>2026-04-05T08:51:38.999Z</time></trkpt><trkpt lat="44.89657358984773" lon="3.1465041055804064"><ele>820.0</ele><time>2026-04-05T08:51:44.999Z</time></trkpt><trkpt lat="44.896678606784405" lon="3.146633837002468"><ele>820.0</ele><time>2026-04-05T08:52:00.999Z</time></trkpt><trkpt lat="44.89671818989831" lon="3.14671601414996"><ele>819.9999999999999</ele><time>2026-04-05T08:52:11.999Z</time></trkpt><trkpt lat="44.896749015659886" lon="3.146795416063549"><ele>820.0</ele><time>2026-04-05T08:52:14.999Z</time></trkpt><trkpt lat="44.89673894221529" lon="3.1468928219069423"><ele>819.9999999999999</ele><time>2026-04-05T08:52:18.999Z</time></trkpt><trkpt lat="44.89672139000471" lon="3.1470175248004497"><ele>820.0</ele><time>2026-04-05T08:52:22.999Z</time></trkpt><trkpt lat="44.89671508806446" lon="3.1471296137363667"><ele>820.0</ele><time>2026-04-05T08:52:27Z</time></trkpt><trkpt lat="44.89670029578769" lon="3.147218097293704"><ele>820.0</ele><time>2026-04-05T08:52:30Z</time></trkpt><trkpt lat="44.896671866725995" lon="3.1473138837026506"><ele>819.9999999999999</ele><time>2026-04-05T08:52:33Z</time></trkpt><trkpt lat="44.89663611665947" lon="3.147400968770222"><ele>820.0</ele><time>2026-04-05T08:52:37Z</time></trkpt><trkpt lat="44.89657886935782" lon="3.1474686831337846"><ele>816.6</ele><time>2026-04-05T08:52:42Z</time></trkpt><trkpt lat="44.89652308430201" lon="3.147542369489739"><ele>813.2</ele><time>2026-04-05T08:53:07Z</time></trkpt><trkpt lat="44.89647357885899" lon="3.147604195677678"><ele>809.8</ele><time>2026-04-05T08:53:16Z</time></trkpt><trkpt lat="44.89648175576477" lon="3.1476945393644016"><ele>806.4</ele><time>2026-04-05T08:53:19.999Z</time></trkpt><trkpt lat="44.89642598846593" lon="3.1479440276652615"><ele>803.0</ele><time>2026-04-05T09:12:56.999Z</time></trkpt><trkpt lat="44.89634265504781" lon="3.1479603760297796"><ele>803.0000000000001</ele><time>2026-04-05T09:12:59.999Z</time></trkpt><trkpt lat="44.89630084683572" lon="3.1480603764565593"><ele>803.0</ele><time>2026-04-05T09:13:01.999Z</time></trkpt><trkpt lat="44.896252546369" lon="3.1481780142979208"><ele>803.0</ele><time>2026-04-05T09:13:03.999Z</time></trkpt><trkpt lat="44.896202239970705" lon="3.148299120339059"><ele>803.0</ele><time>2026-04-05T09:13:05.999Z</time></trkpt><trkpt lat="44.89616286818002" lon="3.148375888377108"><ele>803.0000000000001</ele><time>2026-04-05T09:13:07.999Z</time></trkpt><trkpt lat="44.89623887405877" lon="3.1483311111112484"><ele>803.0</ele><time>2026-04-05T09:13:11.999Z</time></trkpt><trkpt lat="44.8963224043849" lon="3.148257352253164"><ele>803.0000000000001</ele><time>2026-04-05T09:13:14.999Z</time></trkpt><trkpt lat="44.89639821147518" lon="3.148220072761763"><ele>803.0</ele><time>2026-04-05T09:13:16.999Z</time></trkpt><trkpt lat="44.89647398822496" lon="3.1482018077002443"><ele>803.0</ele><time>2026-04-05T09:13:18.999Z</time></trkpt><trkpt lat="44.89655551414117" lon="3.148193665136388"><ele>803.0</ele><time>2026-04-05T09:13:20.999Z</time></trkpt><trkpt lat="44.896635490476804" lon="3.1481813396645943"><ele>803.0000000000001</ele><time>2026-04-05T09:13:22.999Z</time></trkpt><trkpt lat="44.89664388450119" lon="3.148269604753631"><ele>803.0</ele><time>2026-04-05T09:13:34Z</time></trkpt><trkpt lat="44.8965898415733" lon="3.1483282676621256"><ele>805.5999999999999</ele><time>2026-04-05T09:13:36Z</time></trkpt><trkpt lat="44.89652152050358" lon="3.1484417870467833"><ele>808.1999999999999</ele><time>2026-04-05T09:13:38Z</time></trkpt><trkpt lat="44.89643747716221" lon="3.1485645074547066"><ele>810.8</ele><time>2026-04-05T09:13:40Z</time></trkpt><trkpt lat="44.89639849137194" lon="3.1486361503379636"><ele>813.4</ele><time>2026-04-05T09:13:41Z</time></trkpt><trkpt lat="44.89631855670435" lon="3.1487524489566097"><ele>816.0</ele><time>2026-04-05T09:13:43Z</time></trkpt><trkpt lat="44.896278377711994" lon="3.148843425267029"><ele>816.0</ele><time>2026-04-05T09:13:45Z</time></trkpt><trkpt lat="44.89628380973146" lon="3.1489705820417733"><ele>816.0</ele><time>2026-04-05T09:14:30Z</time></trkpt><trkpt lat="44.89632661082613" lon="3.148898023361099"><ele>816.0</ele><time>2026-04-05T09:14:34Z</time></trkpt><trkpt lat="44.89641677811412" lon="3.1488723564219705"><ele>816.0</ele><time>2026-04-05T09:14:35.999Z</time></trkpt><trkpt lat="44.896520599158116" lon="3.148855703525378"><ele>816.0</ele><time>2026-04-05T09:14:37.999Z</time></trkpt><trkpt lat="44.89662170222773" lon="3.1488123623386266"><ele>816.0</ele><time>2026-04-05T09:14:39.999Z</time></trkpt><trkpt lat="44.89671423891133" lon="3.148771077419263"><ele>816.0</ele><time>2026-04-05T09:14:41.999Z</time></trkpt><trkpt lat="44.896836324543465" lon="3.1487410165464746"><ele>816.0</ele><time>2026-04-05T09:14:43.999Z</time></trkpt><trkpt lat="44.89692201492274" lon="3.1487341422115875"><ele>816.0</ele><time>2026-04-05T09:14:45.999Z</time></trkpt><trkpt lat="44.897005376006774" lon="3.148724670206004"><ele>816.0</ele><time>2026-04-05T09:14:47.999Z</time></trkpt><trkpt lat="44.89706723427691" lon="3.1486814194725126"><ele>822.8</ele><time>2026-04-05T09:14:48.999Z</time></trkpt><trkpt lat="44.89718086230017" lon="3.1486304479974185"><ele>829.5999999999999</ele><time>2026-04-05T09:14:50.999Z</time></trkpt><trkpt lat="44.89728650737286" lon="3.148599555659411"><ele>836.4</ele><time>2026-04-05T09:14:52.999Z</time></trkpt><trkpt lat="44.89738268184245" lon="3.148563687620187"><ele>843.2</ele><time>2026-04-05T09:14:55.999Z</time></trkpt><trkpt lat="44.89747118632302" lon="3.148541828063429"><ele>850.0</ele><time>2026-04-05T09:14:57.999Z</time></trkpt><trkpt lat="44.897548801861795" lon="3.148525083933502"><ele>852.4285714285714</ele><time>2026-04-05T09:14:59.999Z</time></trkpt><trkpt lat="44.89762344179715" lon="3.148506477312441"><ele>854.8571428571429</ele><time>2026-04-05T09:15:01.999Z</time></trkpt><trkpt lat="44.89766722433171" lon="3.1484337498142025"><ele>857.2857142857142</ele><time>2026-04-05T09:15:03.999Z</time></trkpt><trkpt lat="44.89761484779466" lon="3.1483535683279573"><ele>859.7142857142858</ele><time>2026-04-05T09:15:05.999Z</time></trkpt><trkpt lat="44.89761419440787" lon="3.1482605564005617"><ele>862.1428571428572</ele><time>2026-04-05T09:15:07.999Z</time></trkpt><trkpt lat="44.8976797784883" lon="3.1482199925794805"><ele>864.5714285714286</ele><time>2026-04-05T09:15:09.999Z</time></trkpt><trkpt lat="44.89776268583464" lon="3.148176819496004"><ele>867.0</ele><time>2026-04-05T09:15:11.999Z</time></trkpt><trkpt lat="44.89783225010261" lon="3.1481807912063835"><ele>867.0</ele><time>2026-04-05T09:15:13.999Z</time></trkpt><trkpt lat="44.897896203457194" lon="3.1481529731532976"><ele>867.0</ele><time>2026-04-05T09:15:15.999Z</time></trkpt><trkpt lat="44.89798500796744" lon="3.1481037799055955"><ele>867.0</ele><time>2026-04-05T09:15:17.999Z</time></trkpt><trkpt lat="44.89806063262154" lon="3.148090774764237"><ele>867.0</ele><time>2026-04-05T09:15:18.999Z</time></trkpt><trkpt lat="44.898121186256816" lon="3.148005075026225"><ele>867.0</ele><time>2026-04-05T09:15:20.999Z</time></trkpt><trkpt lat="44.898212850803105" lon="3.1478923361851776"><ele>867.0</ele><time>2026-04-05T09:15:22.999Z</time></trkpt><trkpt lat="44.89827097644818" lon="3.1477731100561566"><ele>867.0</ele><time>2026-04-05T09:15:24.999Z</time></trkpt><trkpt lat="44.89830741947594" lon="3.147866022684626"><ele>867.0</ele><time>2026-04-05T09:15:28.999Z</time></trkpt><trkpt lat="44.89826862754923" lon="3.147982078552734"><ele>867.0</ele><time>2026-04-05T09:15:30.999Z</time></trkpt><trkpt lat="44.89825596386033" lon="3.14810342425844"><ele>867.0</ele><time>2026-04-05T09:15:33Z</time></trkpt><trkpt lat="44.89823161015863" lon="3.1482079549643434"><ele>867.0</ele><time>2026-04-05T09:15:35Z</time></trkpt><trkpt lat="44.89823588028471" lon="3.1482997060001083"><ele>867.0</ele><time>2026-04-05T09:15:38Z</time></trkpt><trkpt lat="44.898291910609146" lon="3.1482332290621957"><ele>867.0</ele><time>2026-04-05T09:15:40Z</time></trkpt><trkpt lat="44.89833518962642" lon="3.148117632296245"><ele>867.0</ele><time>2026-04-05T09:15:42Z</time></trkpt><trkpt lat="44.89837790353776" lon="3.1480327033458577"><ele>867.0</ele><time>2026-04-05T09:15:44Z</time></trkpt><trkpt lat="44.898422093627985" lon="3.147946431257455"><ele>867.0</ele><time>2026-04-05T09:15:46Z</time></trkpt><trkpt lat="44.898480928709034" lon="3.1478355704134815"><ele>867.0</ele><time>2026-04-05T09:15:49Z</time></trkpt><trkpt lat="44.898529031581965" lon="3.1477117547397806"><ele>867.0</ele><time>2026-04-05T09:15:52Z</time></trkpt><trkpt lat="44.8985685486949" lon="3.147641931642402"><ele>872.5</ele><time>2026-04-05T09:15:54Z</time></trkpt><trkpt lat="44.89861972015027" lon="3.1475823522282376"><ele>878.0</ele><time>2026-04-05T09:15:56Z</time></trkpt><trkpt lat="44.89868227264087" lon="3.147597534051387"><ele>883.5</ele><time>2026-04-05T09:16:00Z</time></trkpt><trkpt lat="44.89864726787581" lon="3.1477192214358745"><ele>889.0</ele><time>2026-04-05T09:16:03Z</time></trkpt><trkpt lat="44.898648649845434" lon="3.1478248466608316"><ele>894.5</ele><time>2026-04-05T09:16:05Z</time></trkpt><trkpt lat="44.89865840661453" lon="3.147938111083576"><ele>900.0</ele><time>2026-04-05T09:16:07Z</time></trkpt><trkpt lat="44.89865439946502" lon="3.148041439084206"><ele>900.0</ele><time>2026-04-05T09:16:09Z</time></trkpt><trkpt lat="44.898651880349114" lon="3.1481680188210133"><ele>900.0</ele><time>2026-04-05T09:16:11Z</time></trkpt><trkpt lat="44.89865668197604" lon="3.1482904074060545"><ele>900.0</ele><time>2026-04-05T09:16:13Z</time></trkpt><trkpt lat="44.89864089216829" lon="3.1483977081572534"><ele>900.0</ele><time>2026-04-05T09:16:15Z</time></trkpt><trkpt lat="44.8986483016646" lon="3.1485312934597225"><ele>900.0</ele><time>2026-04-05T09:16:17Z</time></trkpt><trkpt lat="44.89860112999166" lon="3.148646287073658"><ele>900.0</ele><time>2026-04-05T09:16:19Z</time></trkpt><trkpt lat="44.898615055947154" lon="3.148744426160646"><ele>902.6666666666666</ele><time>2026-04-05T09:16:21Z</time></trkpt><trkpt lat="44.89867587746172" lon="3.1486649715144925"><ele>905.3333333333333</ele><time>2026-04-05T09:16:23Z</time></trkpt><trkpt lat="44.89873131926747" lon="3.148564922429909"><ele>908.0</ele><time>2026-04-05T09:16:25Z</time></trkpt><trkpt lat="44.898801996356816" lon="3.148513240803083"><ele>910.6666666666666</ele><time>2026-04-05T09:16:27Z</time></trkpt><trkpt lat="44.898874460936256" lon="3.1484957563770393"><ele>913.3333333333333</ele><time>2026-04-05T09:16:29Z</time></trkpt><trkpt lat="44.898950796259804" lon="3.1485499254922638"><ele>916.0</ele><time>2026-04-05T09:16:33Z</time></trkpt><trkpt lat="44.89905250684573" lon="3.1485804677654268"><ele>916.0</ele><time>2026-04-05T09:16:35Z</time></trkpt><trkpt lat="44.899154830292524" lon="3.1486611510356175"><ele>915.9999999999999</ele><time>2026-04-05T09:16:36.999Z</time></trkpt><trkpt lat="44.89921654881383" lon="3.148716558206224"><ele>915.9999999999999</ele><time>2026-04-05T09:16:37.999Z</time></trkpt><trkpt lat="44.89927121851355" lon="3.1488101874585346"><ele>916.0</ele><time>2026-04-05T09:16:38.999Z</time></trkpt><trkpt lat="44.89934756940354" lon="3.1488706049434056"><ele>916.0</ele><time>2026-04-05T09:16:39.999Z</time></trkpt><trkpt lat="44.899432212228305" lon="3.1489679801926376"><ele>915.3333333333333</ele><time>2026-04-05T09:16:41.999Z</time></trkpt><trkpt lat="44.89949466405897" lon="3.1489863764605146"><ele>914.6666666666666</ele><time>2026-04-05T09:16:42.999Z</time></trkpt><trkpt lat="44.89957790704877" lon="3.149011057879851"><ele>914.0</ele><time>2026-04-05T09:16:43.999Z</time></trkpt><trkpt lat="44.89965348826434" lon="3.149054461208003"><ele>913.3333333333333</ele><time>2026-04-05T09:16:44.999Z</time></trkpt><trkpt lat="44.89973361190397" lon="3.1490801499633885"><ele>912.6666666666666</ele><time>2026-04-05T09:16:45.999Z</time></trkpt><trkpt lat="44.89982886259047" lon="3.1490945260950642"><ele>912.0</ele><time>2026-04-05T09:16:46.999Z</time></trkpt><trkpt lat="44.89991339209538" lon="3.149102207581058"><ele>916.1666666666666</ele><time>2026-04-05T09:16:47.999Z</time></trkpt><trkpt lat="44.900004659549936" lon="3.1491120289788523"><ele>920.3333333333333</ele><time>2026-04-05T09:16:48.999Z</time></trkpt><trkpt lat="44.900097309337795" lon="3.1491349319045496"><ele>924.5</ele><time>2026-04-05T09:16:49.999Z</time></trkpt><trkpt lat="44.90015516967828" lon="3.1491794752463322"><ele>928.6666666666666</ele><time>2026-04-05T09:16:50.999Z</time></trkpt><trkpt lat="44.9002204118532" lon="3.1491956917338078"><ele>932.8333333333333</ele><time>2026-04-05T09:16:51.999Z</time></trkpt><trkpt lat="44.90031431462224" lon="3.149220173485879"><ele>937.0</ele><time>2026-04-05T09:16:53.999Z</time></trkpt><trkpt lat="44.90042149763213" lon="3.1492528848255614"><ele>937.0</ele><time>2026-04-05T09:16:55.999Z</time></trkpt><trkpt lat="44.9005144461909" lon="3.1492905777996656"><ele>937.0</ele><time>2026-04-05T09:16:57.999Z</time></trkpt><trkpt lat="44.90060920025878" lon="3.14931710797758"><ele>937.0</ele><time>2026-04-05T09:16:59.999Z</time></trkpt><trkpt lat="44.90067735509387" lon="3.149338033718022"><ele>937.0</ele><time>2026-04-05T09:17:01.999Z</time></trkpt><trkpt lat="44.90078485085109" lon="3.1494012113399386"><ele>937.0</ele><time>2026-04-05T09:17:03.999Z</time></trkpt><trkpt lat="44.90085046983528" lon="3.1494375195932753"><ele>936.9999999999999</ele><time>2026-04-05T09:17:04.999Z</time></trkpt><trkpt lat="44.90090937671039" lon="3.149474247302875"><ele>937.0</ele><time>2026-04-05T09:17:05.999Z</time></trkpt><trkpt lat="44.90102709220772" lon="3.149484594564441"><ele>937.0</ele><time>2026-04-05T09:17:07.999Z</time></trkpt><trkpt lat="44.90110453831206" lon="3.149490709360644"><ele>937.0</ele><time>2026-04-05T09:17:08.999Z</time></trkpt><trkpt lat="44.90117659136657" lon="3.1494834654683914"><ele>936.9999999999999</ele><time>2026-04-05T09:17:09.999Z</time></trkpt><trkpt lat="44.90124052938745" lon="3.149468988826625"><ele>937.0</ele><time>2026-04-05T09:17:21.999Z</time></trkpt><trkpt lat="44.901311269347595" lon="3.1494666619450165"><ele>937.8333333333333</ele><time>2026-04-05T09:17:23.999Z</time></trkpt><trkpt lat="44.90128685305996" lon="3.14956093715071"><ele>938.6666666666666</ele><time>2026-04-05T09:17:26.999Z</time></trkpt><trkpt lat="44.90121315160339" lon="3.1496165517196832"><ele>939.5</ele><time>2026-04-05T09:17:28.999Z</time></trkpt><trkpt lat="44.9011323452389" lon="3.1497092240245252"><ele>940.3333333333333</ele><time>2026-04-05T09:17:30.999Z</time></trkpt><trkpt lat="44.901064951635966" lon="3.149791047670354"><ele>941.1666666666666</ele><time>2026-04-05T09:17:32.999Z</time></trkpt><trkpt lat="44.900977890261515" lon="3.1498053084381703"><ele>942.0</ele><time>2026-04-05T09:17:34.999Z</time></trkpt><trkpt lat="44.901074370123524" lon="3.149817235036841"><ele>942.0</ele><time>2026-04-05T09:17:38Z</time></trkpt><trkpt lat="44.90115045284315" lon="3.149830501590631"><ele>942.0</ele><time>2026-04-05T09:17:40Z</time></trkpt><trkpt lat="44.90119180293192" lon="3.1499218332851657"><ele>942.0</ele><time>2026-04-05T09:17:42Z</time></trkpt><trkpt lat="44.901239343913076" lon="3.149994747404104"><ele>942.0</ele><time>2026-04-05T09:17:43Z</time></trkpt><trkpt lat="44.90130647724923" lon="3.1500656032456225"><ele>942.0</ele><time>2026-04-05T09:17:44Z</time></trkpt><trkpt lat="44.90138475574196" lon="3.1501483788499103"><ele>942.0</ele><time>2026-04-05T09:17:45Z</time></trkpt><trkpt lat="44.90143896982669" lon="3.1502043934194646"><ele>947.4000000000001</ele><time>2026-04-05T09:17:46Z</time></trkpt><trkpt lat="44.90151281535786" lon="3.150256033750321"><ele>952.8000000000001</ele><time>2026-04-05T09:17:48Z</time></trkpt><trkpt lat="44.90157348185335" lon="3.1503048185353895"><ele>958.2</ele><time>2026-04-05T09:17:50Z</time></trkpt><trkpt lat="44.90163413633452" lon="3.150342859260732"><ele>963.6</ele><time>2026-04-05T09:17:52Z</time></trkpt><trkpt lat="44.90178374165283" lon="3.1504521575017534"><ele>969.0</ele><time>2026-04-05T09:17:53Z</time></trkpt><trkpt lat="44.90184499641084" lon="3.150475774548777"><ele>969.0</ele><time>2026-04-05T09:17:54Z</time></trkpt><trkpt lat="44.9019023901135" lon="3.1505230962215793"><ele>969.0000000000001</ele><time>2026-04-05T09:17:55Z</time></trkpt><trkpt lat="44.90195598062572" lon="3.1506152189905574"><ele>969.0000000000001</ele><time>2026-04-05T09:17:57Z</time></trkpt><trkpt lat="44.901963284480594" lon="3.1507557115016898"><ele>969.0</ele><time>2026-04-05T09:17:59Z</time></trkpt><trkpt lat="44.90201056990294" lon="3.1508384434275087"><ele>969.0</ele><time>2026-04-05T09:18:01Z</time></trkpt><trkpt lat="44.902191743102556" lon="3.150914817713172"><ele>972.1666666666666</ele><time>2026-04-05T09:18:03Z</time></trkpt><trkpt lat="44.902284403908475" lon="3.150965679732843"><ele>975.3333333333333</ele><time>2026-04-05T09:18:04Z</time></trkpt><trkpt lat="44.90236438885111" lon="3.1509716715054834"><ele>978.5</ele><time>2026-04-05T09:18:05Z</time></trkpt><trkpt lat="44.90242716184611" lon="3.1509873853168022"><ele>981.6666666666666</ele><time>2026-04-05T09:18:06Z</time></trkpt><trkpt lat="44.90251825232416" lon="3.151024753815747"><ele>984.8333333333333</ele><time>2026-04-05T09:18:09Z</time></trkpt><trkpt lat="44.90256305763554" lon="3.151092960422787"><ele>988.0</ele><time>2026-04-05T09:18:19Z</time></trkpt><trkpt lat="44.902618485495516" lon="3.151160810759201"><ele>987.9999999999999</ele><time>2026-04-05T09:18:22Z</time></trkpt><trkpt lat="44.902675510921824" lon="3.1512046918469943"><ele>988.0</ele><time>2026-04-05T09:18:24Z</time></trkpt><trkpt lat="44.90274929871971" lon="3.151283025601887"><ele>988.0</ele><time>2026-04-05T09:18:26Z</time></trkpt><trkpt lat="44.902803451777935" lon="3.1513324604436397"><ele>988.0</ele><time>2026-04-05T09:18:27Z</time></trkpt><trkpt lat="44.902864751529954" lon="3.1513902944069003"><ele>987.9999999999999</ele><time>2026-04-05T09:18:28Z</time></trkpt><trkpt lat="44.902932655141136" lon="3.1514565892984043"><ele>988.0</ele><time>2026-04-05T09:18:29Z</time></trkpt><trkpt lat="44.90301121297551" lon="3.1515339090798777"><ele>991.4</ele><time>2026-04-05T09:18:30Z</time></trkpt><trkpt lat="44.90310787016802" lon="3.1516190996505187"><ele>994.8</ele><time>2026-04-05T09:18:31Z</time></trkpt><trkpt lat="44.903204487126004" lon="3.151692765529781"><ele>998.2</ele><time>2026-04-05T09:18:32Z</time></trkpt><trkpt lat="44.903303985613526" lon="3.1517512578227103"><ele>1001.6</ele><time>2026-04-05T09:18:33Z</time></trkpt><trkpt lat="44.903403075728434" lon="3.1517958624822313"><ele>1005.0</ele><time>2026-04-05T09:18:34Z</time></trkpt><trkpt lat="44.903504402720124" lon="3.1518219516776687"><ele>1005.0</ele><time>2026-04-05T09:18:34.999Z</time></trkpt><trkpt lat="44.903606993622496" lon="3.1518450632374155"><ele>1005.0</ele><time>2026-04-05T09:18:35.999Z</time></trkpt><trkpt lat="44.90370465045686" lon="3.1518698045178457"><ele>1005.0</ele><time>2026-04-05T09:18:36.999Z</time></trkpt><trkpt lat="44.903776395743066" lon="3.151889677419526"><ele>1005.0</ele><time>2026-04-05T09:18:37.999Z</time></trkpt><trkpt lat="44.903897577350484" lon="3.1519228441258718"><ele>1005.0</ele><time>2026-04-05T09:18:39.999Z</time></trkpt><trkpt lat="44.90399778182374" lon="3.1519450770303057"><ele>1005.0</ele><time>2026-04-05T09:18:40.999Z</time></trkpt><trkpt lat="44.904127236314224" lon="3.1519731785530976"><ele>1005.0</ele><time>2026-04-05T09:18:41.999Z</time></trkpt><trkpt lat="44.90427474775616" lon="3.151997794276203"><ele>1005.0</ele><time>2026-04-05T09:18:42.999Z</time></trkpt><trkpt lat="44.90441165551021" lon="3.1520637184994156"><ele>1005.0</ele><time>2026-04-05T09:18:43.999Z</time></trkpt><trkpt lat="44.904529011810396" lon="3.152144863156448"><ele>1003.8</ele><time>2026-04-05T09:18:44.999Z</time></trkpt><trkpt lat="44.90463847837032" lon="3.152233101531367"><ele>1002.6</ele><time>2026-04-05T09:18:45.999Z</time></trkpt><trkpt lat="44.90473965822732" lon="3.1523044680674572"><ele>1001.4000000000001</ele><time>2026-04-05T09:18:46.999Z</time></trkpt><trkpt lat="44.9048230419751" lon="3.1523944929374026"><ele>1000.2</ele><time>2026-04-05T09:18:47.999Z</time></trkpt><trkpt lat="44.904878454125814" lon="3.1524936492096822"><ele>999.0</ele><time>2026-04-05T09:18:48.999Z</time></trkpt><trkpt lat="44.904925406115694" lon="3.1525715383640494"><ele>1000.6666666666666</ele><time>2026-04-05T09:18:49.999Z</time></trkpt><trkpt lat="44.90497285942264" lon="3.1526303290785735"><ele>1002.3333333333333</ele><time>2026-04-05T09:18:50.999Z</time></trkpt><trkpt lat="44.90502408005252" lon="3.152786291376749"><ele>1004.0</ele><time>2026-04-05T09:18:52.999Z</time></trkpt><trkpt lat="44.90504103839941" lon="3.1529214835646107"><ele>1005.6666666666666</ele><time>2026-04-05T09:18:54.999Z</time></trkpt><trkpt lat="44.9050604234665" lon="3.153024406257639"><ele>1007.3333333333333</ele><time>2026-04-05T09:18:56.999Z</time></trkpt><trkpt lat="44.90507977758844" lon="3.1531297112210783"><ele>1009.0</ele><time>2026-04-05T09:18:58.999Z</time></trkpt><trkpt lat="44.90509879093212" lon="3.153239814619882"><ele>1009.6666666666666</ele><time>2026-04-05T09:19:00.999Z</time></trkpt><trkpt lat="44.90504071945056" lon="3.153172427669278"><ele>1010.3333333333333</ele><time>2026-04-05T09:19:07.999Z</time></trkpt><trkpt lat="44.90503428369935" lon="3.1530740401853836"><ele>1011.0</ele><time>2026-04-05T09:19:09.999Z</time></trkpt><trkpt lat="44.90499993020696" lon="3.1529542301806983"><ele>1011.6666666666667</ele><time>2026-04-05T09:19:12.999Z</time></trkpt><trkpt lat="44.90496979682984" lon="3.152872198204223"><ele>1012.3333333333334</ele><time>2026-04-05T09:19:14.999Z</time></trkpt><trkpt lat="44.904851010067105" lon="3.1528804853217807"><ele>1013.0</ele><time>2026-04-05T09:19:17.999Z</time></trkpt><trkpt lat="44.90474781072808" lon="3.1528908618146407"><ele>1013.0000000000001</ele><time>2026-04-05T09:19:19.999Z</time></trkpt><trkpt lat="44.90465760907886" lon="3.1528999946751743"><ele>1013.0</ele><time>2026-04-05T09:19:21.999Z</time></trkpt><trkpt lat="44.904575913722454" lon="3.1529290247904447"><ele>1013.0</ele><time>2026-04-05T09:19:23.999Z</time></trkpt><trkpt lat="44.904501093172954" lon="3.1530002826880965"><ele>1013.0</ele><time>2026-04-05T09:19:25.999Z</time></trkpt><trkpt lat="44.904413797109946" lon="3.1530922717386107"><ele>1013.0000000000001</ele><time>2026-04-05T09:19:27.999Z</time></trkpt><trkpt lat="44.90436489552946" lon="3.1531591034827646"><ele>1013.0</ele><time>2026-04-05T09:19:30.999Z</time></trkpt><trkpt lat="44.90430098209137" lon="3.1532796540753902"><ele>1015.0</ele><time>2026-04-05T09:27:11.999Z</time></trkpt><trkpt lat="44.904215042870604" lon="3.1532567630637"><ele>1017.0</ele><time>2026-04-05T09:27:13.999Z</time></trkpt><trkpt lat="44.90413372122525" lon="3.1532151695131687"><ele>1019.0</ele><time>2026-04-05T09:27:15.999Z</time></trkpt><trkpt lat="44.90401096630076" lon="3.1532110981307393"><ele>1021.0</ele><time>2026-04-05T09:27:17.999Z</time></trkpt><trkpt lat="44.90390205132267" lon="3.1531959815703003"><ele>1023.0</ele><time>2026-04-05T09:27:19.999Z</time></trkpt><trkpt lat="44.90383636519282" lon="3.1531731211316005"><ele>1023.0</ele><time>2026-04-05T09:27:20.999Z</time></trkpt><trkpt lat="44.903774311382314" lon="3.153136012047126"><ele>1023.0</ele><time>2026-04-05T09:27:21.999Z</time></trkpt><trkpt lat="44.90371326736029" lon="3.1530851338179633"><ele>1023.0</ele><time>2026-04-05T09:27:22.999Z</time></trkpt><trkpt lat="44.90365219026047" lon="3.1530528544349523"><ele>1023.0</ele><time>2026-04-05T09:27:23.999Z</time></trkpt><trkpt lat="44.90358836831602" lon="3.1530347589301693"><ele>1023.0</ele><time>2026-04-05T09:27:24.999Z</time></trkpt><trkpt lat="44.90352480526745" lon="3.1530376210712143"><ele>1023.0</ele><time>2026-04-05T09:27:25.999Z</time></trkpt><trkpt lat="44.90346094251394" lon="3.1530427050066105"><ele>1023.0</ele><time>2026-04-05T09:27:26.999Z</time></trkpt><trkpt lat="44.90337290397452" lon="3.1530486961774637"><ele>1024.0</ele><time>2026-04-05T09:27:28.999Z</time></trkpt><trkpt lat="44.90328980575682" lon="3.1530397720675545"><ele>1025.0</ele><time>2026-04-05T09:27:30.999Z</time></trkpt><trkpt lat="44.903197438049965" lon="3.1530367666186887"><ele>1026.0</ele><time>2026-04-05T09:27:32.999Z</time></trkpt><trkpt lat="44.90313052162567" lon="3.153034839828829"><ele>1027.0</ele><time>2026-04-05T09:27:33.999Z</time></trkpt><trkpt lat="44.903018145973704" lon="3.152991618522463"><ele>1028.0</ele><time>2026-04-05T09:27:35.999Z</time></trkpt><trkpt lat="44.90292131935111" lon="3.152953743191885"><ele>1028.0</ele><time>2026-04-05T09:27:37.999Z</time></trkpt><trkpt lat="44.902840982950174" lon="3.1529047469095706"><ele>1028.0</ele><time>2026-04-05T09:27:39.999Z</time></trkpt><trkpt lat="44.902740631004576" lon="3.15283072291706"><ele>1028.0</ele><time>2026-04-05T09:27:41.999Z</time></trkpt><trkpt lat="44.90267697080176" lon="3.1527934910046955"><ele>1028.0</ele><time>2026-04-05T09:27:42.999Z</time></trkpt><trkpt lat="44.902612173388555" lon="3.152741869561388"><ele>1028.0</ele><time>2026-04-05T09:27:43.999Z</time></trkpt><trkpt lat="44.90256330273627" lon="3.152684108658139"><ele>1028.0</ele><time>2026-04-05T09:27:44.999Z</time></trkpt><trkpt lat="44.902508139860316" lon="3.1525427447294168"><ele>1029.2</ele><time>2026-04-05T09:27:46.998Z</time></trkpt><trkpt lat="44.902411337563954" lon="3.152467196890108"><ele>1030.4</ele><time>2026-04-05T09:27:48.998Z</time></trkpt><trkpt lat="44.90234640803248" lon="3.1524809291269125"><ele>1031.6000000000001</ele><time>2026-04-05T09:27:49.998Z</time></trkpt><trkpt lat="44.90225442668777" lon="3.1525503704864115"><ele>1032.8</ele><time>2026-04-05T09:27:51.998Z</time></trkpt><trkpt lat="44.90216620420974" lon="3.152609983273871"><ele>1034.0</ele><time>2026-04-05T09:27:52.998Z</time></trkpt><trkpt lat="44.90209531452088" lon="3.152652882943299"><ele>1034.0</ele><time>2026-04-05T09:27:54.998Z</time></trkpt><trkpt lat="44.90200870879433" lon="3.152566495873895"><ele>1034.0</ele><time>2026-04-05T09:27:56.998Z</time></trkpt><trkpt lat="44.901958020628555" lon="3.1524445427987273"><ele>1034.0</ele><time>2026-04-05T09:27:58.998Z</time></trkpt><trkpt lat="44.90205805502474" lon="3.152404562262968"><ele>1034.0</ele><time>2026-04-05T09:27:59.998Z</time></trkpt><trkpt lat="44.90205760238368" lon="3.1522517458001067"><ele>1034.0</ele><time>2026-04-05T09:28:01.998Z</time></trkpt><trkpt lat="44.90204456457055" lon="3.1521334260760523"><ele>1031.6666666666667</ele><time>2026-04-05T09:28:02.998Z</time></trkpt><trkpt lat="44.90201537518753" lon="3.1520513231063223"><ele>1029.3333333333335</ele><time>2026-04-05T09:28:03.998Z</time></trkpt><trkpt lat="44.90194314561017" lon="3.15202453847645"><ele>1027.0</ele><time>2026-04-05T09:28:05.998Z</time></trkpt><trkpt lat="44.90187778513209" lon="3.1520344631982042"><ele>1024.6666666666667</ele><time>2026-04-05T09:28:06.998Z</time></trkpt><trkpt lat="44.901770086470464" lon="3.1520453976088025"><ele>1022.3333333333334</ele><time>2026-04-05T09:28:08Z</time></trkpt><trkpt lat="44.90167466435" lon="3.152048968011994"><ele>1020.0</ele><time>2026-04-05T09:28:09Z</time></trkpt><trkpt lat="44.90160427016504" lon="3.152019622569917"><ele>1020.0</ele><time>2026-04-05T09:28:10Z</time></trkpt><trkpt lat="44.90154211805677" lon="3.151976746920677"><ele>1020.0</ele><time>2026-04-05T09:28:11Z</time></trkpt><trkpt lat="44.90145275098397" lon="3.1518900519798048"><ele>1020.0</ele><time>2026-04-05T09:28:12Z</time></trkpt><trkpt lat="44.901370186321145" lon="3.1517816930456783"><ele>1020.0</ele><time>2026-04-05T09:28:13Z</time></trkpt><trkpt lat="44.90132044665725" lon="3.151687196623801"><ele>1020.0</ele><time>2026-04-05T09:28:14Z</time></trkpt><trkpt lat="44.901272222685925" lon="3.1516204215789787"><ele>1020.0</ele><time>2026-04-05T09:28:15Z</time></trkpt><trkpt lat="44.90114868802345" lon="3.1516213982109074"><ele>1020.0</ele><time>2026-04-05T09:28:17Z</time></trkpt><trkpt lat="44.901088250109915" lon="3.1516573100678764"><ele>1020.0</ele><time>2026-04-05T09:28:18Z</time></trkpt><trkpt lat="44.90099325177708" lon="3.1517398481466166"><ele>1020.0</ele><time>2026-04-05T09:28:19Z</time></trkpt><trkpt lat="44.90088405975833" lon="3.1517154241083465"><ele>1020.0</ele><time>2026-04-05T09:28:21Z</time></trkpt><trkpt lat="44.90081340602677" lon="3.1517392589416384"><ele>1020.0</ele><time>2026-04-05T09:28:22Z</time></trkpt><trkpt lat="44.90074714073168" lon="3.1517427936394937"><ele>1020.0</ele><time>2026-04-05T09:28:23Z</time></trkpt><trkpt lat="44.90066215328987" lon="3.151740162725923"><ele>1020.6666666666666</ele><time>2026-04-05T09:28:24Z</time></trkpt><trkpt lat="44.900559261046844" lon="3.15173237167336"><ele>1021.3333333333333</ele><time>2026-04-05T09:28:25Z</time></trkpt><trkpt lat="44.90044969914624" lon="3.1517333475702287"><ele>1022.0</ele><time>2026-04-05T09:28:26Z</time></trkpt><trkpt lat="44.90036198474457" lon="3.1517301398888713"><ele>1022.6666666666666</ele><time>2026-04-05T09:28:27Z</time></trkpt><trkpt lat="44.90029642947095" lon="3.151735946595699"><ele>1023.3333333333333</ele><time>2026-04-05T09:28:28Z</time></trkpt><trkpt lat="44.90021711932919" lon="3.1517473371427593"><ele>1024.0</ele><time>2026-04-05T09:28:29Z</time></trkpt><trkpt lat="44.90014483424917" lon="3.1517883677081406"><ele>1023.5714285714286</ele><time>2026-04-05T09:28:30Z</time></trkpt><trkpt lat="44.9000797878372" lon="3.151833206195362"><ele>1023.1428571428571</ele><time>2026-04-05T09:28:31Z</time></trkpt><trkpt lat="44.90000784445128" lon="3.1518785339395357"><ele>1022.7142857142857</ele><time>2026-04-05T09:28:32Z</time></trkpt><trkpt lat="44.899937823282684" lon="3.1519089664418227"><ele>1022.2857142857142</ele><time>2026-04-05T09:28:33Z</time></trkpt><trkpt lat="44.89987272558716" lon="3.151929007586334"><ele>1021.8571428571429</ele><time>2026-04-05T09:28:34Z</time></trkpt><trkpt lat="44.899810713426405" lon="3.1519520664959315"><ele>1021.4285714285713</ele><time>2026-04-05T09:28:34.999Z</time></trkpt><trkpt lat="44.89973826688555" lon="3.1519893783224346"><ele>1021.0</ele><time>2026-04-05T09:28:35.999Z</time></trkpt><trkpt lat="44.89966547303312" lon="3.1520275371607966"><ele>1021.0</ele><time>2026-04-05T09:28:36.999Z</time></trkpt><trkpt lat="44.899593138316256" lon="3.152069626204556"><ele>1020.9999999999999</ele><time>2026-04-05T09:28:38.999Z</time></trkpt><trkpt lat="44.899462931874524" lon="3.1521306557902533"><ele>1020.9999999999999</ele><time>2026-04-05T09:28:40.999Z</time></trkpt><trkpt lat="44.89937838063011" lon="3.1521758851573884"><ele>1021.0</ele><time>2026-04-05T09:28:41.999Z</time></trkpt><trkpt lat="44.899300385853195" lon="3.1522154683998274"><ele>1021.0</ele><time>2026-04-05T09:28:42.999Z</time></trkpt><trkpt lat="44.899213180181434" lon="3.152262941635633"><ele>1022.5999999999999</ele><time>2026-04-05T09:28:43.999Z</time></trkpt><trkpt lat="44.899127145704135" lon="3.152312890226101"><ele>1024.1999999999998</ele><time>2026-04-05T09:28:44.999Z</time></trkpt><trkpt lat="44.89903967500874" lon="3.1523339798452925"><ele>1025.8000000000002</ele><time>2026-04-05T09:28:45.999Z</time></trkpt><trkpt lat="44.898947401192565" lon="3.1523392868786053"><ele>1027.4</ele><time>2026-04-05T09:28:46.999Z</time></trkpt><trkpt lat="44.89885025724528" lon="3.15237186952354"><ele>1029.0</ele><time>2026-04-05T09:28:47.999Z</time></trkpt><trkpt lat="44.89874138665886" lon="3.1524955378088815"><ele>1029.0</ele><time>2026-04-05T09:28:49.999Z</time></trkpt><trkpt lat="44.89869520563911" lon="3.152563278089634"><ele>1029.0</ele><time>2026-04-05T09:28:50.999Z</time></trkpt><trkpt lat="44.89864061107013" lon="3.152667296554314"><ele>1029.0</ele><time>2026-04-05T09:28:51.999Z</time></trkpt><trkpt lat="44.898578302904035" lon="3.152743974288133"><ele>1029.0</ele><time>2026-04-05T09:28:52.999Z</time></trkpt><trkpt lat="44.89850117152413" lon="3.152804961364167"><ele>1029.0</ele><time>2026-04-05T09:28:53.999Z</time></trkpt><trkpt lat="44.89843573176933" lon="3.1528564249303668"><ele>1029.0</ele><time>2026-04-05T09:28:54.999Z</time></trkpt><trkpt lat="44.89836712224895" lon="3.1529170383281424"><ele>1029.8333333333333</ele><time>2026-04-05T09:28:55.999Z</time></trkpt><trkpt lat="44.89830360170016" lon="3.1529996595311465"><ele>1030.6666666666667</ele><time>2026-04-05T09:28:56.999Z</time></trkpt><trkpt lat="44.89824526044998" lon="3.15309595079391"><ele>1031.5</ele><time>2026-04-05T09:28:57.999Z</time></trkpt><trkpt lat="44.89820346822307" lon="3.153200758460698"><ele>1032.3333333333335</ele><time>2026-04-05T09:28:58.999Z</time></trkpt><trkpt lat="44.89815862707708" lon="3.153300710763138"><ele>1033.1666666666667</ele><time>2026-04-05T09:28:59.999Z</time></trkpt><trkpt lat="44.898105180852085" lon="3.153386624298732"><ele>1034.0</ele><time>2026-04-05T09:29:00.999Z</time></trkpt><trkpt lat="44.89801309733096" lon="3.153476931941539"><ele>1034.0</ele><time>2026-04-05T09:29:01.999Z</time></trkpt><trkpt lat="44.89795729124772" lon="3.153582411081755"><ele>1034.0</ele><time>2026-04-05T09:29:02.999Z</time></trkpt><trkpt lat="44.897893529299346" lon="3.1537079930472838"><ele>1034.0</ele><time>2026-04-05T09:29:03.999Z</time></trkpt><trkpt lat="44.897845748045135" lon="3.153835720055686"><ele>1034.0</ele><time>2026-04-05T09:29:04.999Z</time></trkpt><trkpt lat="44.8978039394311" lon="3.153972161786136"><ele>1034.0</ele><time>2026-04-05T09:29:05.999Z</time></trkpt><trkpt lat="44.89777687465192" lon="3.154080381814863"><ele>1036.0</ele><time>2026-04-05T09:29:06.999Z</time></trkpt><trkpt lat="44.89775869889513" lon="3.1541873829431903"><ele>1038.0</ele><time>2026-04-05T09:29:07.999Z</time></trkpt><trkpt lat="44.89775880413735" lon="3.1543041733355555"><ele>1040.0</ele><time>2026-04-05T09:29:08.999Z</time></trkpt><trkpt lat="44.89776514947915" lon="3.154415480669809"><ele>1042.0</ele><time>2026-04-05T09:29:09.999Z</time></trkpt><trkpt lat="44.897772193153834" lon="3.1545379339283803"><ele>1044.0</ele><time>2026-04-05T09:29:10.999Z</time></trkpt><trkpt lat="44.89778520248358" lon="3.1546831929224344"><ele>1046.0</ele><time>2026-04-05T09:29:11.999Z</time></trkpt><trkpt lat="44.89782295434294" lon="3.1548284389546373"><ele>1045.8</ele><time>2026-04-05T09:29:12.999Z</time></trkpt><trkpt lat="44.897853592863285" lon="3.1549587741198146"><ele>1045.6</ele><time>2026-04-05T09:29:13.999Z</time></trkpt><trkpt lat="44.89787847745947" lon="3.1550901756405647"><ele>1045.4</ele><time>2026-04-05T09:29:14.999Z</time></trkpt><trkpt lat="44.89789327412842" lon="3.155228715473256"><ele>1045.2</ele><time>2026-04-05T09:29:15.999Z</time></trkpt><trkpt lat="44.89791269945874" lon="3.1553463161014226"><ele>1045.0</ele><time>2026-04-05T09:29:16.999Z</time></trkpt><trkpt lat="44.89794359329333" lon="3.155471488847468"><ele>1045.0</ele><time>2026-04-05T09:29:17.999Z</time></trkpt><trkpt lat="44.89797371596121" lon="3.1555842807850176"><ele>1045.0</ele><time>2026-04-05T09:29:18.999Z</time></trkpt><trkpt lat="44.89800758019025" lon="3.1557108570260635"><ele>1045.0</ele><time>2026-04-05T09:29:19.999Z</time></trkpt><trkpt lat="44.89802926788703" lon="3.1558131351789367"><ele>1045.0</ele><time>2026-04-05T09:29:20.999Z</time></trkpt><trkpt lat="44.89804498983961" lon="3.155900200365321"><ele>1045.0</ele><time>2026-04-05T09:29:21.999Z</time></trkpt><trkpt lat="44.89808221697119" lon="3.156051526260988"><ele>1045.0</ele><time>2026-04-05T09:29:23.999Z</time></trkpt><trkpt lat="44.8980742186249" lon="3.1561410395688343"><ele>1044.4</ele><time>2026-04-05T09:29:24.999Z</time></trkpt><trkpt lat="44.89804345835993" lon="3.156338686878582"><ele>1043.8</ele><time>2026-04-05T09:29:26.999Z</time></trkpt><trkpt lat="44.89804197685205" lon="3.1564839037433656"><ele>1043.2</ele><time>2026-04-05T09:29:27.999Z</time></trkpt><trkpt lat="44.89806130131431" lon="3.156599498436303"><ele>1042.6</ele><time>2026-04-05T09:29:28.999Z</time></trkpt><trkpt lat="44.89809473265384" lon="3.1567113354105745"><ele>1042.0</ele><time>2026-04-05T09:29:29.999Z</time></trkpt><trkpt lat="44.89813093074129" lon="3.15682273603521"><ele>1041.0</ele><time>2026-04-05T09:29:30.999Z</time></trkpt><trkpt lat="44.89815913812316" lon="3.156926636222894"><ele>1040.0</ele><time>2026-04-05T09:29:31.999Z</time></trkpt><trkpt lat="44.89819607286989" lon="3.1570178070315356"><ele>1039.0</ele><time>2026-04-05T09:29:32.999Z</time></trkpt><trkpt lat="44.89823960811185" lon="3.15714221806397"><ele>1038.0</ele><time>2026-04-05T09:29:33.999Z</time></trkpt><trkpt lat="44.89826714810714" lon="3.157248312086574"><ele>1037.0</ele><time>2026-04-05T09:29:34.999Z</time></trkpt><trkpt lat="44.898299163150355" lon="3.1573647764857036"><ele>1036.0</ele><time>2026-04-05T09:29:35.999Z</time></trkpt><trkpt lat="44.89832647422495" lon="3.1574577900950143"><ele>1036.0</ele><time>2026-04-05T09:29:36.999Z</time></trkpt><trkpt lat="44.89835750806595" lon="3.1575503019353195"><ele>1036.0</ele><time>2026-04-05T09:29:37.999Z</time></trkpt><trkpt lat="44.898399221809655" lon="3.15762733170947"><ele>1036.0</ele><time>2026-04-05T09:29:40.999Z</time></trkpt><trkpt lat="44.898448678217505" lon="3.1577449375557607"><ele>1036.0</ele><time>2026-04-05T09:29:44.999Z</time></trkpt><trkpt lat="44.89849717877957" lon="3.1578420378566503"><ele>1036.0</ele><time>2026-04-05T09:29:46.998Z</time></trkpt><trkpt lat="44.898547028161815" lon="3.1579233495034598"><ele>1036.0</ele><time>2026-04-05T09:29:50.998Z</time></trkpt><trkpt lat="44.89858441654885" lon="3.1580082400216694"><ele>1036.0</ele><time>2026-04-05T09:29:52.998Z</time></trkpt><trkpt lat="44.89861246892928" lon="3.1581088175805334"><ele>1036.0</ele><time>2026-04-05T09:29:54.998Z</time></trkpt><trkpt lat="44.898683307343404" lon="3.158237314420929"><ele>1036.0</ele><time>2026-04-05T09:29:56.998Z</time></trkpt><trkpt lat="44.89873079989462" lon="3.158319328133404"><ele>1036.0</ele><time>2026-04-05T09:29:57.998Z</time></trkpt><trkpt lat="44.89878891382512" lon="3.158434718229314"><ele>1036.0</ele><time>2026-04-05T09:29:58.998Z</time></trkpt><trkpt lat="44.89884431578807" lon="3.1585683603945136"><ele>1033.3999999999999</ele><time>2026-04-05T09:29:59.998Z</time></trkpt><trkpt lat="44.89890839813872" lon="3.158685960541555"><ele>1030.8</ele><time>2026-04-05T09:30:00.998Z</time></trkpt><trkpt lat="44.89898495785383" lon="3.1588053804172773"><ele>1028.1999999999998</ele><time>2026-04-05T09:30:01.998Z</time></trkpt><trkpt lat="44.899056375222436" lon="3.1589220158649196"><ele>1025.6</ele><time>2026-04-05T09:30:02.998Z</time></trkpt><trkpt lat="44.89912928751352" lon="3.1590344788650344"><ele>1023.0</ele><time>2026-04-05T09:30:03.998Z</time></trkpt><trkpt lat="44.89919919612106" lon="3.1591413026017654"><ele>1021.5999999999999</ele><time>2026-04-05T09:30:04.998Z</time></trkpt><trkpt lat="44.89927473018878" lon="3.1592644259060356"><ele>1020.1999999999999</ele><time>2026-04-05T09:30:05.998Z</time></trkpt><trkpt lat="44.89934243598281" lon="3.1593779838947076"><ele>1018.8</ele><time>2026-04-05T09:30:06.998Z</time></trkpt><trkpt lat="44.89941025562213" lon="3.159481479197707"><ele>1017.4</ele><time>2026-04-05T09:30:07.998Z</time></trkpt><trkpt lat="44.899469990623736" lon="3.159562407874846"><ele>1016.0</ele><time>2026-04-05T09:30:08.998Z</time></trkpt><trkpt lat="44.899519238830685" lon="3.1596321209266445"><ele>1016.0</ele><time>2026-04-05T09:30:09.998Z</time></trkpt><trkpt lat="44.89961343331659" lon="3.1597469107274643"><ele>1015.9999999999999</ele><time>2026-04-05T09:30:11.998Z</time></trkpt><trkpt lat="44.899659213894104" lon="3.1598675847336257"><ele>1015.9999999999999</ele><time>2026-04-05T09:30:14Z</time></trkpt><trkpt lat="44.89963737084476" lon="3.1599543270910915"><ele>1016.0</ele><time>2026-04-05T09:30:16Z</time></trkpt><trkpt lat="44.89970681626919" lon="3.1600755494962782"><ele>1016.0</ele><time>2026-04-05T09:30:18Z</time></trkpt><trkpt lat="44.89979066871626" lon="3.160140485989833"><ele>1015.1999999999999</ele><time>2026-04-05T09:30:19Z</time></trkpt><trkpt lat="44.899875812422714" lon="3.1602073351030655"><ele>1014.3999999999999</ele><time>2026-04-05T09:30:20Z</time></trkpt><trkpt lat="44.89991274597053" lon="3.1602929353570923"><ele>1013.6</ele><time>2026-04-05T09:30:21Z</time></trkpt><trkpt lat="44.89992099465418" lon="3.1604144859360273"><ele>1012.8</ele><time>2026-04-05T09:30:22Z</time></trkpt><trkpt lat="44.899915247426655" lon="3.1605482543479915"><ele>1012.0</ele><time>2026-04-05T09:30:23Z</time></trkpt><trkpt lat="44.89989327236242" lon="3.160702194204301"><ele>1010.9999999999999</ele><time>2026-04-05T09:30:24Z</time></trkpt><trkpt lat="44.899871926918074" lon="3.1608270464354007"><ele>1010.0</ele><time>2026-04-05T09:30:25Z</time></trkpt><trkpt lat="44.899878163651685" lon="3.1609427716398226"><ele>1009.0</ele><time>2026-04-05T09:30:26Z</time></trkpt><trkpt lat="44.89992309340579" lon="3.1610374711623757"><ele>1008.0</ele><time>2026-04-05T09:30:27Z</time></trkpt><trkpt lat="44.89998898553813" lon="3.1610996581522786"><ele>1006.9999999999999</ele><time>2026-04-05T09:30:28Z</time></trkpt><trkpt lat="44.90006980213641" lon="3.1611686110074375"><ele>1006.0</ele><time>2026-04-05T09:30:29Z</time></trkpt><trkpt lat="44.900153060720065" lon="3.161251633968049"><ele>1005.3333333333333</ele><time>2026-04-05T09:30:30Z</time></trkpt><trkpt lat="44.9001894168898" lon="3.1613449106614095"><ele>1004.6666666666666</ele><time>2026-04-05T09:30:31Z</time></trkpt><trkpt lat="44.90020344556049" lon="3.1614597176907897"><ele>1004.0</ele><time>2026-04-05T09:30:32Z</time></trkpt><trkpt lat="44.90020663855975" lon="3.161579887038923"><ele>1003.3333333333333</ele><time>2026-04-05T09:30:33Z</time></trkpt><trkpt lat="44.90019943387708" lon="3.1617084827886344"><ele>1002.6666666666666</ele><time>2026-04-05T09:30:34Z</time></trkpt><trkpt lat="44.90018264173317" lon="3.1618549475875253"><ele>1002.0</ele><time>2026-04-05T09:30:35Z</time></trkpt><trkpt lat="44.90017091953212" lon="3.1620136336656315"><ele>1002.0</ele><time>2026-04-05T09:30:36Z</time></trkpt><trkpt lat="44.900158824072705" lon="3.162187359539421"><ele>1002.0</ele><time>2026-04-05T09:30:36.999Z</time></trkpt><trkpt lat="44.90014232978896" lon="3.162360446371076"><ele>1002.0</ele><time>2026-04-05T09:30:37.999Z</time></trkpt><trkpt lat="44.900122997200285" lon="3.1625402347406735"><ele>1002.0</ele><time>2026-04-05T09:30:38.999Z</time></trkpt><trkpt lat="44.90009643300559" lon="3.1627201993330414"><ele>1003.25</ele><time>2026-04-05T09:30:39.999Z</time></trkpt><trkpt lat="44.900047053942735" lon="3.162869954017151"><ele>1004.5</ele><time>2026-04-05T09:30:40.999Z</time></trkpt><trkpt lat="44.899978535505696" lon="3.162994902271941"><ele>1005.75</ele><time>2026-04-05T09:30:41.999Z</time></trkpt><trkpt lat="44.8998959451002" lon="3.1631119150836535"><ele>1007.0</ele><time>2026-04-05T09:30:42.999Z</time></trkpt><trkpt lat="44.899823504947946" lon="3.1632171289648885"><ele>1007.0</ele><time>2026-04-05T09:30:43.999Z</time></trkpt><trkpt lat="44.8997902538917" lon="3.163337507211036"><ele>1007.0</ele><time>2026-04-05T09:30:44.999Z</time></trkpt><trkpt lat="44.89980106114399" lon="3.163485181870602"><ele>1007.0</ele><time>2026-04-05T09:30:45.999Z</time></trkpt><trkpt lat="44.89984155027642" lon="3.1636583899699353"><ele>1007.0</ele><time>2026-04-05T09:30:46.999Z</time></trkpt><trkpt lat="44.89985673629959" lon="3.163866340170268"><ele>1006.25</ele><time>2026-04-05T09:30:47.999Z</time></trkpt><trkpt lat="44.8998552237739" lon="3.164047000395219"><ele>1005.5</ele><time>2026-04-05T09:30:48.999Z</time></trkpt><trkpt lat="44.89985486505018" lon="3.1642377736356884"><ele>1004.75</ele><time>2026-04-05T09:30:49.999Z</time></trkpt><trkpt lat="44.89985715598607" lon="3.1644304676804893"><ele>1004.0</ele><time>2026-04-05T09:30:50.999Z</time></trkpt><trkpt lat="44.89985644788364" lon="3.164627069013622"><ele>1004.0</ele><time>2026-04-05T09:30:51.999Z</time></trkpt><trkpt lat="44.89985256297979" lon="3.164820026396455"><ele>1004.0</ele><time>2026-04-05T09:30:52.999Z</time></trkpt><trkpt lat="44.89985066786715" lon="3.1650136509180555"><ele>1004.0</ele><time>2026-04-05T09:30:53.999Z</time></trkpt><trkpt lat="44.89984659403258" lon="3.1652101382099564"><ele>1004.0</ele><time>2026-04-05T09:30:54.999Z</time></trkpt><trkpt lat="44.899841894863926" lon="3.1654072413664895"><ele>1002.75</ele><time>2026-04-05T09:30:55.999Z</time></trkpt><trkpt lat="44.899840474725146" lon="3.1655738900533725"><ele>1001.5</ele><time>2026-04-05T09:30:56.999Z</time></trkpt><trkpt lat="44.89985845291727" lon="3.1657115184202524"><ele>1000.25</ele><time>2026-04-05T09:30:57.999Z</time></trkpt><trkpt lat="44.89990916187149" lon="3.1658471649571944"><ele>999.0</ele><time>2026-04-05T09:30:58.999Z</time></trkpt><trkpt lat="44.89998664135887" lon="3.1659871853993464"><ele>998.25</ele><time>2026-04-05T09:30:59.999Z</time></trkpt><trkpt lat="44.900067189375605" lon="3.166134552135922"><ele>997.5</ele><time>2026-04-05T09:31:00.999Z</time></trkpt><trkpt lat="44.90014488992844" lon="3.1662894374357435"><ele>996.75</ele><time>2026-04-05T09:31:01.999Z</time></trkpt><trkpt lat="44.900217744435146" lon="3.166450161690746"><ele>996.0</ele><time>2026-04-05T09:31:02.999Z</time></trkpt><trkpt lat="44.90029298317256" lon="3.1666086100256234"><ele>995.0</ele><time>2026-04-05T09:31:03.999Z</time></trkpt><trkpt lat="44.900367490993055" lon="3.1667623742274977"><ele>994.0</ele><time>2026-04-05T09:31:04.999Z</time></trkpt><trkpt lat="44.90045040267148" lon="3.1668989515127475"><ele>993.0</ele><time>2026-04-05T09:31:05.999Z</time></trkpt><trkpt lat="44.90053702878351" lon="3.167032059565423"><ele>992.0</ele><time>2026-04-05T09:31:06.999Z</time></trkpt><trkpt lat="44.90062128853445" lon="3.1671642645554017"><ele>992.0</ele><time>2026-04-05T09:31:07.999Z</time></trkpt><trkpt lat="44.90070209541403" lon="3.1673027435803043"><ele>992.0</ele><time>2026-04-05T09:31:08.999Z</time></trkpt><trkpt lat="44.900784621881265" lon="3.1674472179475766"><ele>992.0</ele><time>2026-04-05T09:31:09.999Z</time></trkpt><trkpt lat="44.900866903029836" lon="3.167591929436251"><ele>992.0</ele><time>2026-04-05T09:31:10.999Z</time></trkpt><trkpt lat="44.90095004653346" lon="3.1677474131090135"><ele>993.25</ele><time>2026-04-05T09:31:11.999Z</time></trkpt><trkpt lat="44.90103073668758" lon="3.1678995233832516"><ele>994.5</ele><time>2026-04-05T09:31:12.999Z</time></trkpt><trkpt lat="44.90110837221393" lon="3.168066814239777"><ele>995.75</ele><time>2026-04-05T09:31:13.999Z</time></trkpt><trkpt lat="44.90118055181354" lon="3.168219027650045"><ele>997.0</ele><time>2026-04-05T09:31:14.999Z</time></trkpt><trkpt lat="44.901218277975275" lon="3.1683759301015626"><ele>997.0</ele><time>2026-04-05T09:31:15.999Z</time></trkpt><trkpt lat="44.90128060719529" lon="3.1685233170945475"><ele>997.0</ele><time>2026-04-05T09:31:16.999Z</time></trkpt><trkpt lat="44.90133086017416" lon="3.1686766097141046"><ele>997.0</ele><time>2026-04-05T09:31:17.999Z</time></trkpt><trkpt lat="44.90141065416646" lon="3.168817026036352"><ele>997.0</ele><time>2026-04-05T09:31:18.999Z</time></trkpt><trkpt lat="44.90149143780593" lon="3.1689623938084477"><ele>996.0</ele><time>2026-04-05T09:31:19.999Z</time></trkpt><trkpt lat="44.90157677820276" lon="3.16910464518905"><ele>995.0</ele><time>2026-04-05T09:31:20.999Z</time></trkpt><trkpt lat="44.901659153845586" lon="3.1692642387735606"><ele>994.0</ele><time>2026-04-05T09:31:21.999Z</time></trkpt><trkpt lat="44.901751935850044" lon="3.1693889128420114"><ele>993.0</ele><time>2026-04-05T09:31:22.999Z</time></trkpt><trkpt lat="44.90182470629825" lon="3.169513562406782"><ele>992.25</ele><time>2026-04-05T09:31:23.999Z</time></trkpt><trkpt lat="44.901866719512" lon="3.1696626554172522"><ele>991.5</ele><time>2026-04-05T09:31:24.999Z</time></trkpt><trkpt lat="44.90189976879794" lon="3.1698252846376747"><ele>990.75</ele><time>2026-04-05T09:31:25.999Z</time></trkpt><trkpt lat="44.901937262809504" lon="3.1699998736191635"><ele>990.0</ele><time>2026-04-05T09:31:26.999Z</time></trkpt><trkpt lat="44.90199352920445" lon="3.170156582968422"><ele>988.75</ele><time>2026-04-05T09:31:27.999Z</time></trkpt><trkpt lat="44.902053676772645" lon="3.170314448028063"><ele>987.5</ele><time>2026-04-05T09:31:28.999Z</time></trkpt><trkpt lat="44.90212051977958" lon="3.17048156428228"><ele>986.25</ele><time>2026-04-05T09:31:29.999Z</time></trkpt><trkpt lat="44.902180634804196" lon="3.1706490656696515"><ele>985.0</ele><time>2026-04-05T09:31:30.999Z</time></trkpt><trkpt lat="44.902249466931636" lon="3.1708082786070033"><ele>984.75</ele><time>2026-04-05T09:31:31.999Z</time></trkpt><trkpt lat="44.902333486970846" lon="3.170944306203262"><ele>984.5</ele><time>2026-04-05T09:31:32.999Z</time></trkpt><trkpt lat="44.90242365751492" lon="3.1710785394731795"><ele>984.25</ele><time>2026-04-05T09:31:33.999Z</time></trkpt><trkpt lat="44.902524355147975" lon="3.171199119951596"><ele>984.0</ele><time>2026-04-05T09:31:34.999Z</time></trkpt><trkpt lat="44.90262426021432" lon="3.1713029653653932"><ele>984.75</ele><time>2026-04-05T09:31:35.999Z</time></trkpt><trkpt lat="44.902712467617995" lon="3.1714355483578798"><ele>985.5</ele><time>2026-04-05T09:31:36.999Z</time></trkpt><trkpt lat="44.9028163272779" lon="3.1715415764708674"><ele>986.25</ele><time>2026-04-05T09:31:37.999Z</time></trkpt><trkpt lat="44.90289250622282" lon="3.1716720550000828"><ele>987.0</ele><time>2026-04-05T09:31:38.999Z</time></trkpt><trkpt lat="44.90293612511339" lon="3.1718278110541034"><ele>988.75</ele><time>2026-04-05T09:31:39.999Z</time></trkpt><trkpt lat="44.90301637933986" lon="3.1719465107004647"><ele>990.5</ele><time>2026-04-05T09:31:40.999Z</time></trkpt><trkpt lat="44.90309520940843" lon="3.172073865131123"><ele>992.25</ele><time>2026-04-05T09:31:41.999Z</time></trkpt><trkpt lat="44.90320041119437" lon="3.1721639417850285"><ele>994.0</ele><time>2026-04-05T09:31:42.999Z</time></trkpt><trkpt lat="44.90330349881064" lon="3.17224604161119"><ele>994.0</ele><time>2026-04-05T09:31:43.999Z</time></trkpt><trkpt lat="44.90340528177655" lon="3.1723314714326794"><ele>994.0</ele><time>2026-04-05T09:31:44.999Z</time></trkpt><trkpt lat="44.903494859634314" lon="3.1724483896733733"><ele>994.0</ele><time>2026-04-05T09:31:45.999Z</time></trkpt><trkpt lat="44.90359264782731" lon="3.1725544775719077"><ele>994.0</ele><time>2026-04-05T09:31:46.999Z</time></trkpt><trkpt lat="44.9036745558013" lon="3.172655998707588"><ele>994.1666666666666</ele><time>2026-04-05T09:31:47.999Z</time></trkpt><trkpt lat="44.90374289632827" lon="3.17275125409336"><ele>994.3333333333333</ele><time>2026-04-05T09:31:48.998Z</time></trkpt><trkpt lat="44.90379419793075" lon="3.1728044271947673"><ele>994.5</ele><time>2026-04-05T09:31:49.998Z</time></trkpt><trkpt lat="44.90381775116215" lon="3.1728916817729482"><ele>994.6666666666667</ele><time>2026-04-05T09:31:50.998Z</time></trkpt><trkpt lat="44.90375039051014" lon="3.173008630931367"><ele>994.8333333333334</ele><time>2026-04-05T09:31:52.998Z</time></trkpt><trkpt lat="44.903688402425104" lon="3.1730688653423176"><ele>995.0</ele><time>2026-04-05T09:31:53.998Z</time></trkpt><trkpt lat="44.903615908996336" lon="3.173134307468053"><ele>995.0</ele><time>2026-04-05T09:31:54.998Z</time></trkpt><trkpt lat="44.9035410885026" lon="3.173198760858679"><ele>995.0</ele><time>2026-04-05T09:31:55.998Z</time></trkpt><trkpt lat="44.903456765400435" lon="3.1732873683476295"><ele>995.0</ele><time>2026-04-05T09:31:56.998Z</time></trkpt><trkpt lat="44.903370578057775" lon="3.173375165875976"><ele>995.0</ele><time>2026-04-05T09:31:57.998Z</time></trkpt><trkpt lat="44.90326489113259" lon="3.1734440336800844"><ele>995.0</ele><time>2026-04-05T09:31:58.998Z</time></trkpt><trkpt lat="44.90316791128929" lon="3.1735595633896265"><ele>995.75</ele><time>2026-04-05T09:31:59.998Z</time></trkpt><trkpt lat="44.90305214066293" lon="3.1736539675857363"><ele>996.5</ele><time>2026-04-05T09:32:00.998Z</time></trkpt><trkpt lat="44.90296324670799" lon="3.1737583297516125"><ele>997.25</ele><time>2026-04-05T09:32:01.998Z</time></trkpt><trkpt lat="44.90290375081558" lon="3.173864590075982"><ele>998.0</ele><time>2026-04-05T09:32:02.998Z</time></trkpt><trkpt lat="44.90290747543982" lon="3.1740405016793667"><ele>998.75</ele><time>2026-04-05T09:32:03.998Z</time></trkpt><trkpt lat="44.90291089414492" lon="3.174226751603245"><ele>999.5</ele><time>2026-04-05T09:32:04.998Z</time></trkpt><trkpt lat="44.90288632492152" lon="3.17441423670379"><ele>1000.25</ele><time>2026-04-05T09:32:05.998Z</time></trkpt><trkpt lat="44.902870562248424" lon="3.1745920891449977"><ele>1001.0</ele><time>2026-04-05T09:32:06.998Z</time></trkpt><trkpt lat="44.90281982129809" lon="3.17473684229986"><ele>1000.75</ele><time>2026-04-05T09:32:07.998Z</time></trkpt><trkpt lat="44.90276221747969" lon="3.174878613444042"><ele>1000.5</ele><time>2026-04-05T09:32:08.998Z</time></trkpt><trkpt lat="44.90270881256946" lon="3.1750206749425693"><ele>1000.25</ele><time>2026-04-05T09:32:09.998Z</time></trkpt><trkpt lat="44.90265366376471" lon="3.1751775871205603"><ele>1000.0</ele><time>2026-04-05T09:32:10.998Z</time></trkpt><trkpt lat="44.90261366745301" lon="3.1753469723750456"><ele>1001.5</ele><time>2026-04-05T09:32:11.998Z</time></trkpt><trkpt lat="44.902579034745884" lon="3.175523132670008"><ele>1003.0</ele><time>2026-04-05T09:32:12.998Z</time></trkpt><trkpt lat="44.902540464096425" lon="3.175677079359505"><ele>1004.5</ele><time>2026-04-05T09:32:13.998Z</time></trkpt><trkpt lat="44.9025021272165" lon="3.1758247620635047"><ele>1006.0</ele><time>2026-04-05T09:32:14.998Z</time></trkpt><trkpt lat="44.90246561916938" lon="3.1759601867875507"><ele>1006.0</ele><time>2026-04-05T09:32:15.998Z</time></trkpt><trkpt lat="44.90242504448979" lon="3.1760982632933863"><ele>1005.9999999999999</ele><time>2026-04-05T09:32:16.998Z</time></trkpt><trkpt lat="44.90238487848474" lon="3.1762383496124493"><ele>1005.9999999999999</ele><time>2026-04-05T09:32:17.998Z</time></trkpt><trkpt lat="44.902350689805836" lon="3.1763792432134483"><ele>1006.0</ele><time>2026-04-05T09:32:18.998Z</time></trkpt><trkpt lat="44.902314396950096" lon="3.1765146735781675"><ele>1006.0</ele><time>2026-04-05T09:32:20Z</time></trkpt><trkpt lat="44.902280260305616" lon="3.176630167976686"><ele>1005.4999999999999</ele><time>2026-04-05T09:32:21Z</time></trkpt><trkpt lat="44.90224616423535" lon="3.176727139959674"><ele>1005.0</ele><time>2026-04-05T09:32:22Z</time></trkpt><trkpt lat="44.902212586894805" lon="3.176813031318811"><ele>1004.5</ele><time>2026-04-05T09:32:23Z</time></trkpt><trkpt lat="44.90215731667188" lon="3.1769594803773025"><ele>1004.0</ele><time>2026-04-05T09:32:25Z</time></trkpt><trkpt lat="44.90211321014836" lon="3.1770510181968246"><ele>1003.4999999999999</ele><time>2026-04-05T09:32:27Z</time></trkpt><trkpt lat="44.9020873827901" lon="3.1771348791473475"><ele>1003.0</ele><time>2026-04-05T09:32:30Z</time></trkpt><trkpt lat="44.90204057810221" lon="3.1772241240114227"><ele>1002.9999999999999</ele><time>2026-04-05T09:32:33Z</time></trkpt><trkpt lat="44.9019979027717" lon="3.177310834152836"><ele>1003.0</ele><time>2026-04-05T09:32:35Z</time></trkpt><trkpt lat="44.9019369792009" lon="3.177391597038111"><ele>1003.0</ele><time>2026-04-05T09:32:36.999Z</time></trkpt><trkpt lat="44.90188266405549" lon="3.177499506138166"><ele>1003.0</ele><time>2026-04-05T09:32:38.999Z</time></trkpt><trkpt lat="44.90188629735991" lon="3.1775948532839307"><ele>1002.9999999999999</ele><time>2026-04-05T09:32:39.999Z</time></trkpt><trkpt lat="44.90182446120768" lon="3.1777274901713883"><ele>1003.0</ele><time>2026-04-05T09:32:41.999Z</time></trkpt><trkpt lat="44.90184241456936" lon="3.1778263179451147"><ele>1003.1666666666666</ele><time>2026-04-05T09:32:42.999Z</time></trkpt><trkpt lat="44.901851915467574" lon="3.1779235715284337"><ele>1003.3333333333333</ele><time>2026-04-05T09:32:43.999Z</time></trkpt><trkpt lat="44.90184783455556" lon="3.1780351699495504"><ele>1003.5</ele><time>2026-04-05T09:32:44.999Z</time></trkpt><trkpt lat="44.90183833956225" lon="3.1781508545292096"><ele>1003.6666666666667</ele><time>2026-04-05T09:32:45.999Z</time></trkpt><trkpt lat="44.90181701609991" lon="3.1782421263863516"><ele>1003.8333333333334</ele><time>2026-04-05T09:32:46.999Z</time></trkpt><trkpt lat="44.90182024438094" lon="3.178376167076574"><ele>1004.0</ele><time>2026-04-05T09:32:48.999Z</time></trkpt><trkpt lat="44.901812335051865" lon="3.1784675285676864"><ele>1003.8333333333334</ele><time>2026-04-05T09:32:49.999Z</time></trkpt><trkpt lat="44.90179951471791" lon="3.1785715540833483"><ele>1003.6666666666667</ele><time>2026-04-05T09:32:50.999Z</time></trkpt><trkpt lat="44.90178531764175" lon="3.178674974806564"><ele>1003.5</ele><time>2026-04-05T09:32:51.999Z</time></trkpt><trkpt lat="44.901764347962406" lon="3.1787910846414507"><ele>1003.3333333333333</ele><time>2026-04-05T09:32:53.999Z</time></trkpt><trkpt lat="44.90175551703091" lon="3.1788793261561286"><ele>1003.1666666666666</ele><time>2026-04-05T09:32:55.999Z</time></trkpt><trkpt lat="44.901750837313294" lon="3.178977290145952"><ele>1003.0</ele><time>2026-04-05T09:32:57.999Z</time></trkpt><trkpt lat="44.90180106380541" lon="3.179076794600906"><ele>1002.9999999999999</ele><time>2026-04-05T09:33:00.999Z</time></trkpt><trkpt lat="44.90187864507833" lon="3.1790821779746543"><ele>1003.0</ele><time>2026-04-05T09:33:02.999Z</time></trkpt><trkpt lat="44.90196587930091" lon="3.1790885543025578"><ele>1003.0</ele><time>2026-04-05T09:33:04.999Z</time></trkpt><trkpt lat="44.90200761787519" lon="3.1792696521367407"><ele>1003.0</ele><time>2026-04-05T09:33:06.999Z</time></trkpt><trkpt lat="44.902023379394166" lon="3.1793625014486744"><ele>1002.9999999999999</ele><time>2026-04-05T09:33:07.999Z</time></trkpt><trkpt lat="44.90203080391319" lon="3.179457909839959"><ele>1003.0</ele><time>2026-04-05T09:33:08.999Z</time></trkpt><trkpt lat="44.902031500071864" lon="3.179564051336231"><ele>1002.9999999999999</ele><time>2026-04-05T09:33:09.999Z</time></trkpt><trkpt lat="44.90202423889276" lon="3.1796767515007685"><ele>1003.0</ele><time>2026-04-05T09:33:10.999Z</time></trkpt><trkpt lat="44.90199806900579" lon="3.179779981988711"><ele>1003.0</ele><time>2026-04-05T09:33:11.999Z</time></trkpt><trkpt lat="44.901952428755976" lon="3.1798841155010407"><ele>1003.0</ele><time>2026-04-05T09:33:12.999Z</time></trkpt><trkpt lat="44.90190138835717" lon="3.1799573918545643"><ele>1002.9999999999999</ele><time>2026-04-05T09:33:13.999Z</time></trkpt><trkpt lat="44.90183880448245" lon="3.180030958070072"><ele>1003.0</ele><time>2026-04-05T09:33:14.999Z</time></trkpt><trkpt lat="44.901788146903726" lon="3.18009136891787"><ele>1002.5714285714286</ele><time>2026-04-05T09:33:15.999Z</time></trkpt><trkpt lat="44.90173772652784" lon="3.18016047803799"><ele>1002.1428571428571</ele><time>2026-04-05T09:33:16.999Z</time></trkpt><trkpt lat="44.90169094843641" lon="3.180227921266059"><ele>1001.7142857142857</ele><time>2026-04-05T09:33:17.999Z</time></trkpt><trkpt lat="44.90164469731904" lon="3.180297817469604"><ele>1001.2857142857142</ele><time>2026-04-05T09:33:18.999Z</time></trkpt><trkpt lat="44.90159921247189" lon="3.180369349968836"><ele>1000.8571428571429</ele><time>2026-04-05T09:33:19.999Z</time></trkpt><trkpt lat="44.90155147034826" lon="3.180436929526611"><ele>1000.4285714285713</ele><time>2026-04-05T09:33:20.999Z</time></trkpt><trkpt lat="44.901486581326495" lon="3.180477779306912"><ele>1000.0</ele><time>2026-04-05T09:33:21.999Z</time></trkpt><trkpt lat="44.90143397747389" lon="3.1805287849919233"><ele>999.9999999999999</ele><time>2026-04-05T09:33:22.999Z</time></trkpt><trkpt lat="44.90138620580868" lon="3.1805995443634556"><ele>1000.0</ele><time>2026-04-05T09:33:23.999Z</time></trkpt><trkpt lat="44.90127997687231" lon="3.1806962485004546"><ele>1000.0</ele><time>2026-04-05T09:33:25.999Z</time></trkpt><trkpt lat="44.90122081683362" lon="3.1807510111401607"><ele>1000.0</ele><time>2026-04-05T09:33:26.999Z</time></trkpt><trkpt lat="44.9011637334095" lon="3.180800134943949"><ele>999.9999999999999</ele><time>2026-04-05T09:33:27.999Z</time></trkpt><trkpt lat="44.90109313733058" lon="3.1808370961987866"><ele>1000.0</ele><time>2026-04-05T09:33:28.999Z</time></trkpt><trkpt lat="44.90103143070479" lon="3.1808895564966146"><ele>999.6666666666666</ele><time>2026-04-05T09:33:29.999Z</time></trkpt><trkpt lat="44.900967970649226" lon="3.180941478357932"><ele>999.3333333333333</ele><time>2026-04-05T09:33:30.999Z</time></trkpt><trkpt lat="44.90089819818031" lon="3.1809967549110607"><ele>999.0</ele><time>2026-04-05T09:33:31.999Z</time></trkpt><trkpt lat="44.900831783683174" lon="3.181049217030008"><ele>998.6666666666667</ele><time>2026-04-05T09:33:32.999Z</time></trkpt><trkpt lat="44.900763351117796" lon="3.181103273260391"><ele>998.3333333333334</ele><time>2026-04-05T09:33:33.999Z</time></trkpt><trkpt lat="44.90070587403967" lon="3.1811712370078937"><ele>998.0</ele><time>2026-04-05T09:33:34.999Z</time></trkpt><trkpt lat="44.900636935629514" lon="3.1812087831603257"><ele>997.8</ele><time>2026-04-05T09:33:35.999Z</time></trkpt><trkpt lat="44.90056100756474" lon="3.181243690121618"><ele>997.5999999999999</ele><time>2026-04-05T09:33:37Z</time></trkpt><trkpt lat="44.900501694918056" lon="3.1812940442492685"><ele>997.4000000000001</ele><time>2026-04-05T09:33:38Z</time></trkpt><trkpt lat="44.90044575038365" lon="3.181341770952339"><ele>997.2</ele><time>2026-04-05T09:33:39Z</time></trkpt><trkpt lat="44.900336616318995" lon="3.181441614676729"><ele>997.0</ele><time>2026-04-05T09:33:41Z</time></trkpt><trkpt lat="44.900245926074" lon="3.181545989159514"><ele>996.3333333333333</ele><time>2026-04-05T09:33:43Z</time></trkpt><trkpt lat="44.9001954967192" lon="3.181604313236646"><ele>995.6666666666666</ele><time>2026-04-05T09:33:44Z</time></trkpt><trkpt lat="44.90016516565319" lon="3.1816951372201987"><ele>995.0</ele><time>2026-04-05T09:33:46Z</time></trkpt><trkpt lat="44.900123271882975" lon="3.181802523950952"><ele>994.3333333333333</ele><time>2026-04-05T09:33:47.999Z</time></trkpt><trkpt lat="44.900075068546776" lon="3.1819216775821166"><ele>993.6666666666666</ele><time>2026-04-05T09:33:49.999Z</time></trkpt><trkpt lat="44.90003404509081" lon="3.182014468363487"><ele>993.0</ele><time>2026-04-05T09:33:51.999Z</time></trkpt><trkpt lat="44.89954641448639" lon="3.1818279384218067"><ele>993.0</ele><time>2026-04-05T09:33:52.999Z</time></trkpt><trkpt lat="44.89948155617709" lon="3.1818760515740587"><ele>993.0</ele><time>2026-04-05T09:33:53.999Z</time></trkpt><trkpt lat="44.89941386405629" lon="3.1819193935992"><ele>993.0</ele><time>2026-04-05T09:33:54.999Z</time></trkpt><trkpt lat="44.89933488166151" lon="3.1819642498766725"><ele>993.0</ele><time>2026-04-05T09:33:55.999Z</time></trkpt><trkpt lat="44.899245391300205" lon="3.182004770536892"><ele>993.0</ele><time>2026-04-05T09:33:56.999Z</time></trkpt><trkpt lat="44.89915909798773" lon="3.1820302352311107"><ele>993.0</ele><time>2026-04-05T09:33:57.999Z</time></trkpt><trkpt lat="44.899069924470936" lon="3.1820733211126546"><ele>994.8333333333334</ele><time>2026-04-05T09:33:58.999Z</time></trkpt><trkpt lat="44.898983783421684" lon="3.182110801126156"><ele>996.6666666666667</ele><time>2026-04-05T09:33:59.999Z</time></trkpt><trkpt lat="44.898902049393044" lon="3.182147808912172"><ele>998.5</ele><time>2026-04-05T09:34:00.999Z</time></trkpt><trkpt lat="44.89882091782178" lon="3.1821764643798125"><ele>1000.3333333333334</ele><time>2026-04-05T09:34:01.999Z</time></trkpt><trkpt lat="44.89873084557701" lon="3.1821748714877978"><ele>1002.1666666666667</ele><time>2026-04-05T09:34:02.999Z</time></trkpt><trkpt lat="44.89864316912189" lon="3.1821737086493465"><ele>1004.0</ele><time>2026-04-05T09:34:03.999Z</time></trkpt><trkpt lat="44.898567076557484" lon="3.1821708867219676"><ele>1004.0000000000001</ele><time>2026-04-05T09:34:04.999Z</time></trkpt><trkpt lat="44.89848864422853" lon="3.1821702364710998"><ele>1004.0</ele><time>2026-04-05T09:34:05.999Z</time></trkpt><trkpt lat="44.898415125994966" lon="3.1821573639849854"><ele>1004.0</ele><time>2026-04-05T09:34:06.999Z</time></trkpt><trkpt lat="44.898343115747295" lon="3.1821297562821975"><ele>1004.0</ele><time>2026-04-05T09:34:07.999Z</time></trkpt><trkpt lat="44.89826963462459" lon="3.182088675004043"><ele>1004.0000000000001</ele><time>2026-04-05T09:34:08.999Z</time></trkpt><trkpt lat="44.898192869747845" lon="3.182016930136395"><ele>1004.0</ele><time>2026-04-05T09:34:09.999Z</time></trkpt><trkpt lat="44.89811355103832" lon="3.181918955219591"><ele>1004.4000000000001</ele><time>2026-04-05T09:34:10.999Z</time></trkpt><trkpt lat="44.89803423283784" lon="3.181807504447256"><ele>1004.8000000000001</ele><time>2026-04-05T09:34:11.999Z</time></trkpt><trkpt lat="44.89796153474711" lon="3.181706602327604"><ele>1005.1999999999999</ele><time>2026-04-05T09:34:12.999Z</time></trkpt><trkpt lat="44.89788618293387" lon="3.1816430136231166"><ele>1005.5999999999999</ele><time>2026-04-05T09:34:13.999Z</time></trkpt><trkpt lat="44.89780081627348" lon="3.181609181014538"><ele>1006.0</ele><time>2026-04-05T09:34:14.999Z</time></trkpt><trkpt lat="44.89768951074641" lon="3.1816000662242465"><ele>1005.5</ele><time>2026-04-05T09:34:15.999Z</time></trkpt><trkpt lat="44.897572979681634" lon="3.1816017471959626"><ele>1005.0</ele><time>2026-04-05T09:34:16.999Z</time></trkpt><trkpt lat="44.897453085204084" lon="3.1815872106223133"><ele>1004.5</ele><time>2026-04-05T09:34:17.999Z</time></trkpt><trkpt lat="44.89733984131841" lon="3.1815688438353438"><ele>1004.0</ele><time>2026-04-05T09:34:18.999Z</time></trkpt><trkpt lat="44.89722327167837" lon="3.1815327881577278"><ele>1003.75</ele><time>2026-04-05T09:34:19.999Z</time></trkpt><trkpt lat="44.89709367015965" lon="3.181502082391875"><ele>1003.5</ele><time>2026-04-05T09:34:20.999Z</time></trkpt><trkpt lat="44.89696237804867" lon="3.181488075669886"><ele>1003.25</ele><time>2026-04-05T09:34:21.999Z</time></trkpt><trkpt lat="44.896823693569935" lon="3.181466504864366"><ele>1003.0</ele><time>2026-04-05T09:34:22.999Z</time></trkpt><trkpt lat="44.89670199905462" lon="3.181437731177325"><ele>1003.0</ele><time>2026-04-05T09:34:23.999Z</time></trkpt><trkpt lat="44.89658246082208" lon="3.1814211941189785"><ele>1003.0</ele><time>2026-04-05T09:34:24.999Z</time></trkpt><trkpt lat="44.89646435938711" lon="3.181427288886115"><ele>1003.0</ele><time>2026-04-05T09:34:26Z</time></trkpt><trkpt lat="44.89634018575976" lon="3.1814596808425266"><ele>1003.0</ele><time>2026-04-05T09:34:27Z</time></trkpt><trkpt lat="44.896205338254106" lon="3.1814992867521976"><ele>1003.25</ele><time>2026-04-05T09:34:28Z</time></trkpt><trkpt lat="44.8960672413428" lon="3.1815365344866646"><ele>1003.5</ele><time>2026-04-05T09:34:29Z</time></trkpt><trkpt lat="44.89592741500935" lon="3.1815700567743526"><ele>1003.75</ele><time>2026-04-05T09:34:30Z</time></trkpt><trkpt lat="44.89579117189675" lon="3.181603757973052"><ele>1004.0</ele><time>2026-04-05T09:34:31Z</time></trkpt><trkpt lat="44.89566832104496" lon="3.1816348506350196"><ele>1005.5</ele><time>2026-04-05T09:34:32Z</time></trkpt><trkpt lat="44.89555235002965" lon="3.1816730589118536"><ele>1007.0</ele><time>2026-04-05T09:34:33Z</time></trkpt><trkpt lat="44.89543996845779" lon="3.181708922131075"><ele>1008.5</ele><time>2026-04-05T09:34:34Z</time></trkpt><trkpt lat="44.895329452382164" lon="3.181744092684882"><ele>1010.0</ele><time>2026-04-05T09:34:35Z</time></trkpt><trkpt lat="44.89521679729757" lon="3.1817822267286786"><ele>1010.0</ele><time>2026-04-05T09:34:36Z</time></trkpt><trkpt lat="44.895121050989" lon="3.181840764921073"><ele>1010.0</ele><time>2026-04-05T09:34:37Z</time></trkpt><trkpt lat="44.89502602813534" lon="3.181931392914141"><ele>1010.0</ele><time>2026-04-05T09:34:38Z</time></trkpt><trkpt lat="44.89493126404587" lon="3.1820324445804826"><ele>1010.0</ele><time>2026-04-05T09:34:39Z</time></trkpt><trkpt lat="44.89484406751778" lon="3.182112678363014"><ele>1010.0</ele><time>2026-04-05T09:34:40Z</time></trkpt><trkpt lat="44.89475162097951" lon="3.1821896387220154"><ele>1010.1666666666667</ele><time>2026-04-05T09:34:41Z</time></trkpt><trkpt lat="44.89466340350667" lon="3.182242531837658"><ele>1010.3333333333334</ele><time>2026-04-05T09:34:42Z</time></trkpt><trkpt lat="44.89459254322799" lon="3.1822675835365057"><ele>1010.5</ele><time>2026-04-05T09:34:43Z</time></trkpt><trkpt lat="44.89451745171203" lon="3.1822816679068895"><ele>1010.6666666666667</ele><time>2026-04-05T09:34:44Z</time></trkpt><trkpt lat="44.8944392471905" lon="3.182332648045945"><ele>1010.8333333333334</ele><time>2026-04-05T09:34:45Z</time></trkpt><trkpt lat="44.89437940567572" lon="3.182413368445597"><ele>1011.0</ele><time>2026-04-05T09:34:46Z</time></trkpt><trkpt lat="44.89429953449853" lon="3.1825300817314526"><ele>1011.8</ele><time>2026-04-05T09:34:48Z</time></trkpt><trkpt lat="44.89421411520098" lon="3.1826492561143627"><ele>1012.5999999999999</ele><time>2026-04-05T09:34:50Z</time></trkpt><trkpt lat="44.89416277134332" lon="3.1827326357583288"><ele>1013.4</ele><time>2026-04-05T09:34:51Z</time></trkpt><trkpt lat="44.894104082900284" lon="3.1828119649500954"><ele>1014.2</ele><time>2026-04-05T09:34:52Z</time></trkpt><trkpt lat="44.894036788599536" lon="3.1828913738631726"><ele>1015.0</ele><time>2026-04-05T09:34:53Z</time></trkpt><trkpt lat="44.89396663939666" lon="3.1829847708723027"><ele>1014.9999999999999</ele><time>2026-04-05T09:34:54Z</time></trkpt><trkpt lat="44.893917492954266" lon="3.183047030494148"><ele>1015.0</ele><time>2026-04-05T09:34:55Z</time></trkpt><trkpt lat="44.893818694388024" lon="3.1830953402527506"><ele>1015.0</ele><time>2026-04-05T09:34:57Z</time></trkpt><trkpt lat="44.89374338426548" lon="3.1831041106375997"><ele>1015.0</ele><time>2026-04-05T09:34:58Z</time></trkpt><trkpt lat="44.89365890528532" lon="3.1831133657806836"><ele>1014.9999999999999</ele><time>2026-04-05T09:34:59Z</time></trkpt><trkpt lat="44.89355747317954" lon="3.18316632126462"><ele>1015.0</ele><time>2026-04-05T09:35:01Z</time></trkpt><trkpt lat="44.893526683006954" lon="3.1832549754183326"><ele>1015.4999999999999</ele><time>2026-04-05T09:35:02Z</time></trkpt><trkpt lat="44.89349603245206" lon="3.1833500198703346"><ele>1016.0</ele><time>2026-04-05T09:35:03Z</time></trkpt><trkpt lat="44.893461643792946" lon="3.1834467459745053"><ele>1016.5</ele><time>2026-04-05T09:35:04Z</time></trkpt><trkpt lat="44.893429406955555" lon="3.1835391780930062"><ele>1017.0</ele><time>2026-04-05T09:35:05Z</time></trkpt><trkpt lat="44.893391059362735" lon="3.1836372052114084"><ele>1017.4999999999999</ele><time>2026-04-05T09:35:06Z</time></trkpt><trkpt lat="44.89336287039466" lon="3.183746994564759"><ele>1018.0</ele><time>2026-04-05T09:35:07Z</time></trkpt><trkpt lat="44.893336144043076" lon="3.1838624696728175"><ele>1018.0</ele><time>2026-04-05T09:35:08Z</time></trkpt><trkpt lat="44.8933105476372" lon="3.1839745233365027"><ele>1018.0</ele><time>2026-04-05T09:35:09Z</time></trkpt><trkpt lat="44.89328887621872" lon="3.1841046050048227"><ele>1018.0</ele><time>2026-04-05T09:35:10Z</time></trkpt><trkpt lat="44.89326701642966" lon="3.1842331103490644"><ele>1018.0</ele><time>2026-04-05T09:35:11Z</time></trkpt><trkpt lat="44.89323725267097" lon="3.184350023998795"><ele>1018.0</ele><time>2026-04-05T09:35:12Z</time></trkpt><trkpt lat="44.89319781394058" lon="3.1844805625075714"><ele>1018.4</ele><time>2026-04-05T09:35:13Z</time></trkpt><trkpt lat="44.89317034848456" lon="3.1846032625259064"><ele>1018.8</ele><time>2026-04-05T09:35:14Z</time></trkpt><trkpt lat="44.893141845846735" lon="3.1847381668163512"><ele>1019.2</ele><time>2026-04-05T09:35:15Z</time></trkpt><trkpt lat="44.89310364043507" lon="3.1848607154928534"><ele>1019.6</ele><time>2026-04-05T09:35:16Z</time></trkpt><trkpt lat="44.89306143394164" lon="3.184954499612433"><ele>1020.0</ele><time>2026-04-05T09:35:17Z</time></trkpt><trkpt lat="44.893023698747605" lon="3.1850688985755116"><ele>1020.6</ele><time>2026-04-05T09:35:18Z</time></trkpt><trkpt lat="44.892979403076005" lon="3.1851878990247973"><ele>1021.2</ele><time>2026-04-05T09:35:19Z</time></trkpt><trkpt lat="44.8929474049105" lon="3.185330470697595"><ele>1021.8</ele><time>2026-04-05T09:35:20Z</time></trkpt><trkpt lat="44.892908456447344" lon="3.1854695475083323"><ele>1022.4</ele><time>2026-04-05T09:35:21Z</time></trkpt><trkpt lat="44.89286231652443" lon="3.185618973495309"><ele>1023.0</ele><time>2026-04-05T09:35:22Z</time></trkpt><trkpt lat="44.8928166189178" lon="3.1857677902954658"><ele>1023.5999999999999</ele><time>2026-04-05T09:35:23Z</time></trkpt><trkpt lat="44.892768772379334" lon="3.1859028655398767"><ele>1024.1999999999998</ele><time>2026-04-05T09:35:24Z</time></trkpt><trkpt lat="44.89272143021605" lon="3.186036768469633"><ele>1024.8</ele><time>2026-04-05T09:35:25Z</time></trkpt><trkpt lat="44.892671044183516" lon="3.186182728282356"><ele>1025.3999999999999</ele><time>2026-04-05T09:35:26Z</time></trkpt><trkpt lat="44.892616117925954" lon="3.1863271995337765"><ele>1026.0</ele><time>2026-04-05T09:35:27Z</time></trkpt><trkpt lat="44.89255753720002" lon="3.1864697741381516"><ele>1026.3999999999999</ele><time>2026-04-05T09:35:28Z</time></trkpt><trkpt lat="44.89249498543979" lon="3.1866176493005987"><ele>1026.8</ele><time>2026-04-05T09:35:29Z</time></trkpt><trkpt lat="44.89243756384536" lon="3.1867538903361425"><ele>1027.1999999999998</ele><time>2026-04-05T09:35:30Z</time></trkpt><trkpt lat="44.89236849584791" lon="3.186868824756015"><ele>1027.6</ele><time>2026-04-05T09:35:31Z</time></trkpt><trkpt lat="44.89227738512352" lon="3.1869514066554734"><ele>1028.0</ele><time>2026-04-05T09:35:32Z</time></trkpt><trkpt lat="44.892180165122255" lon="3.187023736876011"><ele>1028.0</ele><time>2026-04-05T09:35:33Z</time></trkpt><trkpt lat="44.89208603923685" lon="3.1871081771067806"><ele>1028.0</ele><time>2026-04-05T09:35:34Z</time></trkpt><trkpt lat="44.8920116396562" lon="3.187186255147419"><ele>1028.0</ele><time>2026-04-05T09:35:35Z</time></trkpt><trkpt lat="44.89194296677415" lon="3.187256645709119"><ele>1028.0</ele><time>2026-04-05T09:35:36Z</time></trkpt><trkpt lat="44.89188449970137" lon="3.1873117302600584"><ele>1028.0</ele><time>2026-04-05T09:35:37Z</time></trkpt><trkpt lat="44.891821363575055" lon="3.1874458380152597"><ele>1028.5</ele><time>2026-04-05T09:35:39Z</time></trkpt><trkpt lat="44.891826907694956" lon="3.1875348881369088"><ele>1029.0</ele><time>2026-04-05T09:35:40Z</time></trkpt><trkpt lat="44.89186097075785" lon="3.187631614890977"><ele>1029.5</ele><time>2026-04-05T09:35:41Z</time></trkpt><trkpt lat="44.89190559258106" lon="3.1877470869805298"><ele>1030.0</ele><time>2026-04-05T09:35:42Z</time></trkpt><trkpt lat="44.89194481517408" lon="3.187878671770699"><ele>1030.5</ele><time>2026-04-05T09:35:43Z</time></trkpt><trkpt lat="44.891985595366954" lon="3.188025599309611"><ele>1031.0</ele><time>2026-04-05T09:35:44Z</time></trkpt><trkpt lat="44.89203308632483" lon="3.188184881345605"><ele>1031.5</ele><time>2026-04-05T09:35:45Z</time></trkpt><trkpt lat="44.892088381230586" lon="3.1883534162239378"><ele>1032.0</ele><time>2026-04-05T09:35:46Z</time></trkpt><trkpt lat="44.89214635694103" lon="3.1885273227310713"><ele>1032.5</ele><time>2026-04-05T09:35:47Z</time></trkpt><trkpt lat="44.89220561026741" lon="3.188699015764141"><ele>1033.0</ele><time>2026-04-05T09:35:48Z</time></trkpt><trkpt lat="44.89225118856413" lon="3.188854802785548"><ele>1033.5</ele><time>2026-04-05T09:35:48.999Z</time></trkpt><trkpt lat="44.89228533963112" lon="3.189035012283389"><ele>1034.0</ele><time>2026-04-05T09:35:49.999Z</time></trkpt><trkpt lat="44.89230544602858" lon="3.18921810797273"><ele>1034.5</ele><time>2026-04-05T09:35:50.999Z</time></trkpt><trkpt lat="44.89232385340405" lon="3.1894108215982473"><ele>1035.0</ele><time>2026-04-05T09:35:51.999Z</time></trkpt><trkpt lat="44.892350176750696" lon="3.1895974255000783"><ele>1035.0</ele><time>2026-04-05T09:35:52.999Z</time></trkpt><trkpt lat="44.89237344867511" lon="3.189800710918467"><ele>1035.0</ele><time>2026-04-05T09:35:53.999Z</time></trkpt><trkpt lat="44.89239220625522" lon="3.1900034204044965"><ele>1035.0</ele><time>2026-04-05T09:35:54.999Z</time></trkpt><trkpt lat="44.892404975337556" lon="3.1902029851067284"><ele>1035.0</ele><time>2026-04-05T09:35:55.999Z</time></trkpt><trkpt lat="44.89240966610288" lon="3.1903986601736896"><ele>1035.5</ele><time>2026-04-05T09:35:56.999Z</time></trkpt><trkpt lat="44.892422196354694" lon="3.1905796423741415"><ele>1036.0</ele><time>2026-04-05T09:35:57.999Z</time></trkpt><trkpt lat="44.89245057252965" lon="3.190759788991804"><ele>1036.5</ele><time>2026-04-05T09:35:58.999Z</time></trkpt><trkpt lat="44.89246259463697" lon="3.1909209412120436"><ele>1037.0</ele><time>2026-04-05T09:35:59.999Z</time></trkpt><trkpt lat="44.89244244578784" lon="3.1910566057984076"><ele>1037.0</ele><time>2026-04-05T09:36:00.999Z</time></trkpt><trkpt lat="44.89240531890388" lon="3.191190564110661"><ele>1037.0</ele><time>2026-04-05T09:36:01.999Z</time></trkpt><trkpt lat="44.89236394063503" lon="3.191327942197955"><ele>1037.0</ele><time>2026-04-05T09:36:02.999Z</time></trkpt><trkpt lat="44.89230786107599" lon="3.19146572993152"><ele>1037.0</ele><time>2026-04-05T09:36:03.999Z</time></trkpt><trkpt lat="44.892239185364915" lon="3.191617777113464"><ele>1037.0</ele><time>2026-04-05T09:36:04.999Z</time></trkpt><trkpt lat="44.892163832113226" lon="3.191771673135865"><ele>1037.0</ele><time>2026-04-05T09:36:05.999Z</time></trkpt><trkpt lat="44.89210368433612" lon="3.1919249897294484"><ele>1037.0</ele><time>2026-04-05T09:36:06.999Z</time></trkpt><trkpt lat="44.89207135608304" lon="3.192091882320392"><ele>1037.0</ele><time>2026-04-05T09:36:07.999Z</time></trkpt><trkpt lat="44.89202778294809" lon="3.192267519220258"><ele>1037.0</ele><time>2026-04-05T09:36:08.999Z</time></trkpt><trkpt lat="44.89196664479836" lon="3.1924144372635146"><ele>1036.75</ele><time>2026-04-05T09:36:09.999Z</time></trkpt><trkpt lat="44.89188474615415" lon="3.1925314283882864"><ele>1036.5</ele><time>2026-04-05T09:36:10.999Z</time></trkpt><trkpt lat="44.89179538079567" lon="3.1926461170580294"><ele>1036.25</ele><time>2026-04-05T09:36:11.999Z</time></trkpt><trkpt lat="44.89170756616851" lon="3.1927753500121123"><ele>1036.0</ele><time>2026-04-05T09:36:12.999Z</time></trkpt><trkpt lat="44.89162737289825" lon="3.1929043984201195"><ele>1034.5</ele><time>2026-04-05T09:36:13.999Z</time></trkpt><trkpt lat="44.89155114798121" lon="3.193026970061944"><ele>1033.0</ele><time>2026-04-05T09:36:14.999Z</time></trkpt><trkpt lat="44.89146485812678" lon="3.193146465369767"><ele>1031.5</ele><time>2026-04-05T09:36:15.999Z</time></trkpt><trkpt lat="44.89137619271388" lon="3.193259311384737"><ele>1030.0</ele><time>2026-04-05T09:36:16.999Z</time></trkpt><trkpt lat="44.89128649082859" lon="3.193356254472931"><ele>1030.0</ele><time>2026-04-05T09:36:17.999Z</time></trkpt><trkpt lat="44.8911980026011" lon="3.1934341753883726"><ele>1030.0</ele><time>2026-04-05T09:36:18.999Z</time></trkpt><trkpt lat="44.89111643966383" lon="3.1934944718431795"><ele>1030.0</ele><time>2026-04-05T09:36:19.999Z</time></trkpt><trkpt lat="44.89104992020512" lon="3.193564623831482"><ele>1030.0</ele><time>2026-04-05T09:36:20.999Z</time></trkpt><trkpt lat="44.89100974554724" lon="3.1936746099575957"><ele>1030.0</ele><time>2026-04-05T09:36:21.999Z</time></trkpt><trkpt lat="44.8909993287115" lon="3.1937952267450425"><ele>1030.0</ele><time>2026-04-05T09:36:22.999Z</time></trkpt><trkpt lat="44.89100640785281" lon="3.1939080142135006"><ele>1030.0</ele><time>2026-04-05T09:36:23.999Z</time></trkpt><trkpt lat="44.89100648081827" lon="3.194047963672275"><ele>1030.0</ele><time>2026-04-05T09:36:24.999Z</time></trkpt><trkpt lat="44.89101003167641" lon="3.1941983483249325"><ele>1030.0</ele><time>2026-04-05T09:36:25.999Z</time></trkpt><trkpt lat="44.89100877219951" lon="3.1943716853477095"><ele>1030.0</ele><time>2026-04-05T09:36:26.999Z</time></trkpt><trkpt lat="44.89100131708366" lon="3.1945501971395824"><ele>1030.0</ele><time>2026-04-05T09:36:27.999Z</time></trkpt><trkpt lat="44.89099302923691" lon="3.194723983911422"><ele>1030.0</ele><time>2026-04-05T09:36:28.999Z</time></trkpt><trkpt lat="44.89098318931994" lon="3.1949020046252903"><ele>1030.0</ele><time>2026-04-05T09:36:29.999Z</time></trkpt><trkpt lat="44.89097048985932" lon="3.195067054977633"><ele>1030.0</ele><time>2026-04-05T09:36:30.999Z</time></trkpt><trkpt lat="44.89094184288103" lon="3.1952307192485194"><ele>1025.0</ele><time>2026-04-05T09:36:32Z</time></trkpt><trkpt lat="44.89090773051362" lon="3.1954063834492756"><ele>1020.0</ele><time>2026-04-05T09:36:33Z</time></trkpt><trkpt lat="44.8908662208053" lon="3.1955850275069637"><ele>1015.0</ele><time>2026-04-05T09:36:34Z</time></trkpt><trkpt lat="44.89082376126096" lon="3.195760358090341"><ele>1010.0</ele><time>2026-04-05T09:36:35Z</time></trkpt><trkpt lat="44.890803327418496" lon="3.195907638330694"><ele>1009.2</ele><time>2026-04-05T09:36:36Z</time></trkpt><trkpt lat="44.89081810570165" lon="3.1960390285411115"><ele>1008.4</ele><time>2026-04-05T09:36:37Z</time></trkpt><trkpt lat="44.89084564344404" lon="3.1961634573750364"><ele>1007.5999999999999</ele><time>2026-04-05T09:36:38Z</time></trkpt><trkpt lat="44.89086289132289" lon="3.19627235057385"><ele>1006.8</ele><time>2026-04-05T09:36:39Z</time></trkpt><trkpt lat="44.89088434263672" lon="3.196441874441518"><ele>1006.0</ele><time>2026-04-05T09:36:41Z</time></trkpt><trkpt lat="44.890898715928685" lon="3.1965602127418764"><ele>1005.1999999999999</ele><time>2026-04-05T09:36:43Z</time></trkpt><trkpt lat="44.8909195867401" lon="3.196656523561258"><ele>1004.3999999999999</ele><time>2026-04-05T09:36:48Z</time></trkpt><trkpt lat="44.890885577794194" lon="3.1967920150626177"><ele>1003.6</ele><time>2026-04-05T09:37:29Z</time></trkpt><trkpt lat="44.89076435689719" lon="3.1968429324208665"><ele>1002.8</ele><time>2026-04-05T09:37:31Z</time></trkpt><trkpt lat="44.89067434538325" lon="3.1968588129709614"><ele>1002.0</ele><time>2026-04-05T09:37:32Z</time></trkpt><trkpt lat="44.890558083014" lon="3.196899125814987"><ele>1002.0</ele><time>2026-04-05T09:37:33Z</time></trkpt><trkpt lat="44.89041379061585" lon="3.196930015636413"><ele>1002.0</ele><time>2026-04-05T09:37:34Z</time></trkpt><trkpt lat="44.89026823451825" lon="3.1969877190531744"><ele>1002.0</ele><time>2026-04-05T09:37:35Z</time></trkpt><trkpt lat="44.89013118178897" lon="3.197028250360516"><ele>1002.0</ele><time>2026-04-05T09:37:36Z</time></trkpt><trkpt lat="44.89001493532781" lon="3.197061410667145"><ele>1001.8</ele><time>2026-04-05T09:37:37Z</time></trkpt><trkpt lat="44.889906994324775" lon="3.197093043084159"><ele>1001.6</ele><time>2026-04-05T09:37:38Z</time></trkpt><trkpt lat="44.88980939384489" lon="3.1971540801437017"><ele>1001.3999999999999</ele><time>2026-04-05T09:37:39Z</time></trkpt><trkpt lat="44.889700784058334" lon="3.197193796239283"><ele>1001.1999999999999</ele><time>2026-04-05T09:37:40Z</time></trkpt><trkpt lat="44.889590287168794" lon="3.1972393046255743"><ele>1001.0</ele><time>2026-04-05T09:37:41Z</time></trkpt><trkpt lat="44.8894799458555" lon="3.1972886495637116"><ele>1001.0</ele><time>2026-04-05T09:37:42Z</time></trkpt><trkpt lat="44.88937667616345" lon="3.197359209819383"><ele>1000.9999999999999</ele><time>2026-04-05T09:37:43Z</time></trkpt><trkpt lat="44.889278341375984" lon="3.197398243415827"><ele>1000.9999999999999</ele><time>2026-04-05T09:37:44Z</time></trkpt><trkpt lat="44.88919702428963" lon="3.197446449825727"><ele>1001.0</ele><time>2026-04-05T09:37:45Z</time></trkpt><trkpt lat="44.889122625511014" lon="3.1974811677585993"><ele>1001.0</ele><time>2026-04-05T09:37:46Z</time></trkpt><trkpt lat="44.88904773070316" lon="3.197527793024461"><ele>1000.0000000000001</ele><time>2026-04-05T09:37:47Z</time></trkpt><trkpt lat="44.8889780410477" lon="3.197531658153687"><ele>999.0</ele><time>2026-04-05T09:37:48Z</time></trkpt><trkpt lat="44.88890241733474" lon="3.1975372120525996"><ele>998.0</ele><time>2026-04-05T09:37:49Z</time></trkpt><trkpt lat="44.88884064365939" lon="3.197505892096655"><ele>997.0</ele><time>2026-04-05T09:37:49.999Z</time></trkpt><trkpt lat="44.88875688987181" lon="3.1975046016371205"><ele>996.0000000000001</ele><time>2026-04-05T09:37:50.999Z</time></trkpt><trkpt lat="44.88866163940106" lon="3.1975040815334927"><ele>995.0</ele><time>2026-04-05T09:37:51.999Z</time></trkpt><trkpt lat="44.88856106240548" lon="3.1975052022810946"><ele>995.0000000000001</ele><time>2026-04-05T09:37:52.999Z</time></trkpt><trkpt lat="44.888469923508204" lon="3.197506217858269"><ele>995.0</ele><time>2026-04-05T09:37:53.999Z</time></trkpt><trkpt lat="44.888389155705404" lon="3.1975071178687444"><ele>995.0</ele><time>2026-04-05T09:37:54.999Z</time></trkpt><trkpt lat="44.888319492186916" lon="3.1975078941428325"><ele>995.0</ele><time>2026-04-05T09:37:55.999Z</time></trkpt><trkpt lat="44.88823981514509" lon="3.197508781998366"><ele>995.0000000000001</ele><time>2026-04-05T09:37:56.999Z</time></trkpt><trkpt lat="44.888167112638676" lon="3.1975120363550324"><ele>995.0</ele><time>2026-04-05T09:37:57.999Z</time></trkpt><trkpt lat="44.88805938493774" lon="3.1975237990916043"><ele>993.6</ele><time>2026-04-05T09:37:59.999Z</time></trkpt><trkpt lat="44.88799024397199" lon="3.197549188206566"><ele>992.2</ele><time>2026-04-05T09:38:01.999Z</time></trkpt><trkpt lat="44.88800351361894" lon="3.197806678229601"><ele>990.8</ele><time>2026-04-05T09:38:02.999Z</time></trkpt><trkpt lat="44.8880344333426" lon="3.1979250859136115"><ele>989.4</ele><time>2026-04-05T09:38:03.999Z</time></trkpt><trkpt lat="44.88807045048394" lon="3.1980529372610182"><ele>988.0</ele><time>2026-04-05T09:38:04.999Z</time></trkpt><trkpt lat="44.888100754912195" lon="3.1981899729966083"><ele>987.25</ele><time>2026-04-05T09:38:05.999Z</time></trkpt><trkpt lat="44.88814809987703" lon="3.1983321932890583"><ele>986.5</ele><time>2026-04-05T09:38:06.999Z</time></trkpt><trkpt lat="44.88819641096167" lon="3.198484291536881"><ele>985.75</ele><time>2026-04-05T09:38:07.999Z</time></trkpt><trkpt lat="44.88825927840888" lon="3.1986464556408194"><ele>985.0</ele><time>2026-04-05T09:38:08.999Z</time></trkpt><trkpt lat="44.88831712918654" lon="3.1988287935324142"><ele>983.75</ele><time>2026-04-05T09:38:09.999Z</time></trkpt><trkpt lat="44.88840780763216" lon="3.1990230371556656"><ele>982.5</ele><time>2026-04-05T09:38:10.999Z</time></trkpt><trkpt lat="44.888471611151935" lon="3.1992028627419624"><ele>981.25</ele><time>2026-04-05T09:38:11.999Z</time></trkpt><trkpt lat="44.88852815728001" lon="3.1993649905585766"><ele>980.0</ele><time>2026-04-05T09:38:12.999Z</time></trkpt><trkpt lat="44.88855934949115" lon="3.19953633931224"><ele>978.0</ele><time>2026-04-05T09:38:13.999Z</time></trkpt><trkpt lat="44.888522323964864" lon="3.199704398549018"><ele>976.0</ele><time>2026-04-05T09:38:14.999Z</time></trkpt><trkpt lat="44.88844886605354" lon="3.1998613487110075"><ele>974.0</ele><time>2026-04-05T09:38:15.999Z</time></trkpt><trkpt lat="44.88837324502483" lon="3.2000446243521976"><ele>972.0</ele><time>2026-04-05T09:38:16.999Z</time></trkpt><trkpt lat="44.888322509031305" lon="3.200211022193567"><ele>972.0</ele><time>2026-04-05T09:38:17.999Z</time></trkpt><trkpt lat="44.888303572747844" lon="3.200370667117136"><ele>972.0</ele><time>2026-04-05T09:38:18.999Z</time></trkpt><trkpt lat="44.88832520204815" lon="3.2005360025475444"><ele>972.0</ele><time>2026-04-05T09:38:19.999Z</time></trkpt><trkpt lat="44.888379446611204" lon="3.2006871149454406"><ele>972.0</ele><time>2026-04-05T09:38:20.999Z</time></trkpt><trkpt lat="44.888434119865" lon="3.200821463237561"><ele>971.6</ele><time>2026-04-05T09:38:21.999Z</time></trkpt><trkpt lat="44.88846699972413" lon="3.2009580480650404"><ele>971.2</ele><time>2026-04-05T09:38:22.999Z</time></trkpt><trkpt lat="44.8885005221949" lon="3.2010755037454497"><ele>970.8</ele><time>2026-04-05T09:38:23.999Z</time></trkpt><trkpt lat="44.888523967830416" lon="3.2011651687791827"><ele>970.4</ele><time>2026-04-05T09:38:24.999Z</time></trkpt><trkpt lat="44.88847089813212" lon="3.2010389312805567"><ele>970.0</ele><time>2026-04-05T09:38:29.999Z</time></trkpt><trkpt lat="44.8884139090516" lon="3.2009296666852256"><ele>970.0</ele><time>2026-04-05T09:38:30.999Z</time></trkpt><trkpt lat="44.888325090472485" lon="3.2008435514238585"><ele>970.0</ele><time>2026-04-05T09:38:31.999Z</time></trkpt><trkpt lat="44.888223806941284" lon="3.2007746340927854"><ele>970.0</ele><time>2026-04-05T09:38:32.999Z</time></trkpt><trkpt lat="44.88809697114577" lon="3.2007600238419887"><ele>970.0</ele><time>2026-04-05T09:38:33.999Z</time></trkpt><trkpt lat="44.88793935091839" lon="3.2007276608865483"><ele>970.0</ele><time>2026-04-05T09:38:34.999Z</time></trkpt><trkpt lat="44.88777680436535" lon="3.20067462277181"><ele>970.0</ele><time>2026-04-05T09:38:35.999Z</time></trkpt><trkpt lat="44.887603941318424" lon="3.200586159204644"><ele>970.0</ele><time>2026-04-05T09:38:36.999Z</time></trkpt><trkpt lat="44.88743270122562" lon="3.200552092155773"><ele>969.25</ele><time>2026-04-05T09:38:38Z</time></trkpt><trkpt lat="44.8873251351501" lon="3.2004254072489955"><ele>968.5</ele><time>2026-04-05T09:38:39Z</time></trkpt><trkpt lat="44.887248613476544" lon="3.20028972882132"><ele>967.75</ele><time>2026-04-05T09:38:40Z</time></trkpt><trkpt lat="44.88717984487218" lon="3.200106114143"><ele>967.0</ele><time>2026-04-05T09:38:41Z</time></trkpt><trkpt lat="44.88710396773169" lon="3.199911754295566"><ele>967.25</ele><time>2026-04-05T09:38:42Z</time></trkpt><trkpt lat="44.88699183024029" lon="3.199729823883582"><ele>967.5</ele><time>2026-04-05T09:38:43Z</time></trkpt><trkpt lat="44.88689785798852" lon="3.199574110810174"><ele>967.75</ele><time>2026-04-05T09:38:44Z</time></trkpt><trkpt lat="44.88680330973223" lon="3.1994483545790553"><ele>968.0</ele><time>2026-04-05T09:38:45Z</time></trkpt><trkpt lat="44.88669105030144" lon="3.199307704271737"><ele>968.3333333333334</ele><time>2026-04-05T09:38:46Z</time></trkpt><trkpt lat="44.88657505243067" lon="3.1991748531783797"><ele>968.6666666666667</ele><time>2026-04-05T09:38:47Z</time></trkpt><trkpt lat="44.886448215575825" lon="3.199043079376028"><ele>969.0</ele><time>2026-04-05T09:38:48Z</time></trkpt><trkpt lat="44.88633057819736" lon="3.1989239660169813"><ele>969.0</ele><time>2026-04-05T09:38:49Z</time></trkpt><trkpt lat="44.88621093636473" lon="3.1987912551897386"><ele>969.0</ele><time>2026-04-05T09:38:50Z</time></trkpt><trkpt lat="44.88611156811843" lon="3.1986702042657633"><ele>969.0</ele><time>2026-04-05T09:38:51Z</time></trkpt><trkpt lat="44.88601760872272" lon="3.198534711296209"><ele>969.0</ele><time>2026-04-05T09:38:52Z</time></trkpt><trkpt lat="44.88593890854796" lon="3.198362782102869"><ele>968.75</ele><time>2026-04-05T09:38:53Z</time></trkpt><trkpt lat="44.885829355790534" lon="3.198258488616881"><ele>968.5</ele><time>2026-04-05T09:38:54Z</time></trkpt><trkpt lat="44.88573152535237" lon="3.1981302787215964"><ele>968.25</ele><time>2026-04-05T09:38:55Z</time></trkpt><trkpt lat="44.88561969592369" lon="3.198024384082505"><ele>968.0</ele><time>2026-04-05T09:38:56Z</time></trkpt><trkpt lat="44.88550782776821" lon="3.1979338145038856"><ele>968.0</ele><time>2026-04-05T09:38:57Z</time></trkpt><trkpt lat="44.88540635845389" lon="3.1978331428319606"><ele>968.0</ele><time>2026-04-05T09:38:58Z</time></trkpt><trkpt lat="44.88532733442429" lon="3.197705302928344"><ele>968.0</ele><time>2026-04-05T09:38:59Z</time></trkpt><trkpt lat="44.88523502441674" lon="3.197602092091017"><ele>968.0</ele><time>2026-04-05T09:39:00Z</time></trkpt><trkpt lat="44.885167991297045" lon="3.1974927003214675"><ele>968.0</ele><time>2026-04-05T09:39:01Z</time></trkpt><trkpt lat="44.88511478867658" lon="3.1974139826585484"><ele>968.0</ele><time>2026-04-05T09:39:02Z</time></trkpt><trkpt lat="44.88506946514983" lon="3.1973326618118447"><ele>968.0</ele><time>2026-04-05T09:39:04Z</time></trkpt><trkpt lat="44.88494499983118" lon="3.197475731295824"><ele>968.0</ele><time>2026-04-05T09:39:16Z</time></trkpt><trkpt lat="44.88482672756521" lon="3.1975391977509435"><ele>968.0</ele><time>2026-04-05T09:39:18Z</time></trkpt><trkpt lat="44.88474106242949" lon="3.1975684139786744"><ele>969.75</ele><time>2026-04-05T09:39:19Z</time></trkpt><trkpt lat="44.884640645032285" lon="3.1975935013554873"><ele>971.5</ele><time>2026-04-05T09:39:20Z</time></trkpt><trkpt lat="44.884527890305314" lon="3.197626906423105"><ele>973.25</ele><time>2026-04-05T09:39:21Z</time></trkpt><trkpt lat="44.88440153205994" lon="3.197685745963789"><ele>975.0</ele><time>2026-04-05T09:39:22Z</time></trkpt><trkpt lat="44.88431283825836" lon="3.1977575944740395"><ele>977.2</ele><time>2026-04-05T09:39:23Z</time></trkpt><trkpt lat="44.884236206626625" lon="3.197848598021824"><ele>979.4</ele><time>2026-04-05T09:39:24Z</time></trkpt><trkpt lat="44.884170468644534" lon="3.1979425207682546"><ele>981.5999999999999</ele><time>2026-04-05T09:39:25Z</time></trkpt><trkpt lat="44.884087166490474" lon="3.1980211669834375"><ele>983.8</ele><time>2026-04-05T09:39:26Z</time></trkpt><trkpt lat="44.88401339053622" lon="3.198087081738747"><ele>986.0</ele><time>2026-04-05T09:39:27Z</time></trkpt><trkpt lat="44.88393236334072" lon="3.1981727015474886"><ele>988.5999999999999</ele><time>2026-04-05T09:39:28Z</time></trkpt><trkpt lat="44.88386696716239" lon="3.1982539743162954"><ele>991.1999999999999</ele><time>2026-04-05T09:39:29Z</time></trkpt><trkpt lat="44.883804708591946" lon="3.198345643796062"><ele>993.8000000000001</ele><time>2026-04-05T09:39:30Z</time></trkpt><trkpt lat="44.883744248127044" lon="3.1984473945343925"><ele>996.4000000000001</ele><time>2026-04-05T09:39:31Z</time></trkpt><trkpt lat="44.88367958005651" lon="3.19856379377283"><ele>999.0</ele><time>2026-04-05T09:39:32Z</time></trkpt><trkpt lat="44.88362086271087" lon="3.1986700387114158"><ele>999.0</ele><time>2026-04-05T09:39:33Z</time></trkpt><trkpt lat="44.883554203418235" lon="3.198771806000175"><ele>999.0000000000001</ele><time>2026-04-05T09:39:34Z</time></trkpt><trkpt lat="44.88348727883496" lon="3.1988653219349494"><ele>999.0000000000001</ele><time>2026-04-05T09:39:35Z</time></trkpt><trkpt lat="44.883410084512924" lon="3.1989533891368978"><ele>999.0</ele><time>2026-04-05T09:39:36Z</time></trkpt><trkpt lat="44.88331845375188" lon="3.199021862185184"><ele>999.0</ele><time>2026-04-05T09:39:37Z</time></trkpt><trkpt lat="44.883222176239116" lon="3.1990901286947397"><ele>1001.2</ele><time>2026-04-05T09:39:38Z</time></trkpt><trkpt lat="44.88313871470467" lon="3.1991697390328735"><ele>1003.4000000000001</ele><time>2026-04-05T09:39:39Z</time></trkpt><trkpt lat="44.883076334448354" lon="3.1992807338028313"><ele>1005.6</ele><time>2026-04-05T09:39:40Z</time></trkpt><trkpt lat="44.88303058070794" lon="3.1994234736848357"><ele>1007.8</ele><time>2026-04-05T09:39:41Z</time></trkpt><trkpt lat="44.882968161259626" lon="3.1995873997586077"><ele>1010.0</ele><time>2026-04-05T09:39:42Z</time></trkpt><trkpt lat="44.882892451332864" lon="3.1997195927094557"><ele>1011.5</ele><time>2026-04-05T09:39:43Z</time></trkpt><trkpt lat="44.88279678447496" lon="3.1998784444168167"><ele>1013.0</ele><time>2026-04-05T09:39:44Z</time></trkpt><trkpt lat="44.88270183075126" lon="3.2000489487445587"><ele>1014.5</ele><time>2026-04-05T09:39:45Z</time></trkpt><trkpt lat="44.882642998679934" lon="3.20016605026166"><ele>1016.0</ele><time>2026-04-05T09:39:46Z</time></trkpt><trkpt lat="44.8825650956083" lon="3.2003532327005004"><ele>1016.75</ele><time>2026-04-05T09:39:47Z</time></trkpt><trkpt lat="44.88250121208936" lon="3.2005413261176376"><ele>1017.5</ele><time>2026-04-05T09:39:48Z</time></trkpt><trkpt lat="44.88245521792898" lon="3.2006881346711995"><ele>1018.25</ele><time>2026-04-05T09:39:49Z</time></trkpt><trkpt lat="44.88240449198907" lon="3.2008266644459744"><ele>1019.0</ele><time>2026-04-05T09:39:50Z</time></trkpt><trkpt lat="44.88235222671047" lon="3.2009736749749242"><ele>1019.8000000000001</ele><time>2026-04-05T09:39:51Z</time></trkpt><trkpt lat="44.88229985646599" lon="3.2011036750121606"><ele>1020.6000000000001</ele><time>2026-04-05T09:39:51.999Z</time></trkpt><trkpt lat="44.88224494960712" lon="3.2012405234044863"><ele>1021.4</ele><time>2026-04-05T09:39:52.999Z</time></trkpt><trkpt lat="44.88218936287751" lon="3.2013719453002274"><ele>1022.2</ele><time>2026-04-05T09:39:53.999Z</time></trkpt><trkpt lat="44.8821337211229" lon="3.2015039354148205"><ele>1023.0</ele><time>2026-04-05T09:39:54.999Z</time></trkpt><trkpt lat="44.88207197084959" lon="3.2016411425607014"><ele>1023.25</ele><time>2026-04-05T09:39:55.999Z</time></trkpt><trkpt lat="44.88200942578341" lon="3.2017910061377504"><ele>1023.5</ele><time>2026-04-05T09:39:56.999Z</time></trkpt><trkpt lat="44.88196033424172" lon="3.201925628572766"><ele>1023.75</ele><time>2026-04-05T09:39:57.999Z</time></trkpt><trkpt lat="44.88191779265932" lon="3.202060605732687"><ele>1024.0</ele><time>2026-04-05T09:39:58.999Z</time></trkpt><trkpt lat="44.88186659646751" lon="3.2022073645888716"><ele>1021.5</ele><time>2026-04-05T09:39:59.999Z</time></trkpt><trkpt lat="44.881831181529236" lon="3.2023619603823645"><ele>1019.0</ele><time>2026-04-05T09:40:00.999Z</time></trkpt><trkpt lat="44.88182013358042" lon="3.202521331187658"><ele>1016.5</ele><time>2026-04-05T09:40:01.999Z</time></trkpt><trkpt lat="44.88184308737453" lon="3.20268370219692"><ele>1014.0</ele><time>2026-04-05T09:40:02.999Z</time></trkpt><trkpt lat="44.88188754533498" lon="3.202891856067284"><ele>1014.0</ele><time>2026-04-05T09:40:03.999Z</time></trkpt><trkpt lat="44.88190386844704" lon="3.203077135543083"><ele>1014.0000000000001</ele><time>2026-04-05T09:40:04.999Z</time></trkpt><trkpt lat="44.88190358147961" lon="3.2032159490866965"><ele>1014.0000000000001</ele><time>2026-04-05T09:40:05.999Z</time></trkpt><trkpt lat="44.881903455044394" lon="3.2033267534505603"><ele>1014.0</ele><time>2026-04-05T09:40:06.999Z</time></trkpt><trkpt lat="44.881891294811965" lon="3.2034218219841164"><ele>1014.0</ele><time>2026-04-05T09:40:07.999Z</time></trkpt><trkpt lat="44.881858611588726" lon="3.2035212061901825"><ele>1012.6</ele><time>2026-04-05T09:40:08.999Z</time></trkpt><trkpt lat="44.881804838202164" lon="3.203616953724621"><ele>1011.2</ele><time>2026-04-05T09:40:09.999Z</time></trkpt><trkpt lat="44.88174288151911" lon="3.203694532861811"><ele>1009.8000000000001</ele><time>2026-04-05T09:40:10.999Z</time></trkpt><trkpt lat="44.88165786340245" lon="3.203772309305289"><ele>1008.4000000000001</ele><time>2026-04-05T09:40:11.999Z</time></trkpt><trkpt lat="44.88157281316088" lon="3.2038122809777505"><ele>1007.0</ele><time>2026-04-05T09:40:12.999Z</time></trkpt><trkpt lat="44.88146261311258" lon="3.203842230261897"><ele>1007.6</ele><time>2026-04-05T09:40:13.999Z</time></trkpt><trkpt lat="44.88137783370449" lon="3.2039229532186444"><ele>1008.2</ele><time>2026-04-05T09:40:14.999Z</time></trkpt><trkpt lat="44.881306485382595" lon="3.2040719558618846"><ele>1008.8</ele><time>2026-04-05T09:40:15.999Z</time></trkpt><trkpt lat="44.88126469440571" lon="3.204197429628789"><ele>1009.4</ele><time>2026-04-05T09:40:16.999Z</time></trkpt><trkpt lat="44.881256488004716" lon="3.2043193462330706"><ele>1010.0</ele><time>2026-04-05T09:40:17.999Z</time></trkpt><trkpt lat="44.881255420029504" lon="3.204466183393634"><ele>1010.0000000000001</ele><time>2026-04-05T09:40:18.999Z</time></trkpt><trkpt lat="44.88125655079891" lon="3.2046123979759686"><ele>1010.0</ele><time>2026-04-05T09:40:19.999Z</time></trkpt><trkpt lat="44.88125032214212" lon="3.204742888217119"><ele>1010.0</ele><time>2026-04-05T09:40:20.999Z</time></trkpt><trkpt lat="44.88125704203654" lon="3.204849735526792"><ele>1010.0</ele><time>2026-04-05T09:40:21.999Z</time></trkpt><trkpt lat="44.881255676895535" lon="3.2049672144630033"><ele>1010.0000000000001</ele><time>2026-04-05T09:40:22.999Z</time></trkpt><trkpt lat="44.88125592981439" lon="3.20507822617705"><ele>1010.0</ele><time>2026-04-05T09:40:23.999Z</time></trkpt><trkpt lat="44.88125749063122" lon="3.2051787020256826"><ele>1008.3333333333334</ele><time>2026-04-05T09:40:24.999Z</time></trkpt><trkpt lat="44.881261696839445" lon="3.20527593776217"><ele>1006.6666666666667</ele><time>2026-04-05T09:40:25.999Z</time></trkpt><trkpt lat="44.881264379975924" lon="3.2053660286108725"><ele>1005.0</ele><time>2026-04-05T09:40:26.999Z</time></trkpt><trkpt lat="44.88127637212322" lon="3.2054820640199724"><ele>1003.3333333333333</ele><time>2026-04-05T09:40:28.999Z</time></trkpt><trkpt lat="44.88128444724964" lon="3.2055743242933636"><ele>1001.6666666666666</ele><time>2026-04-05T09:40:32.999Z</time></trkpt><trkpt lat="44.881309955932785" lon="3.2056832058808413"><ele>1000.0</ele><time>2026-04-05T09:41:12Z</time></trkpt><trkpt lat="44.88129108419382" lon="3.205820304960704"><ele>1000.0</ele><time>2026-04-05T09:41:14Z</time></trkpt><trkpt lat="44.88118143204108" lon="3.2059150997696144"><ele>1000.0</ele><time>2026-04-05T09:41:16Z</time></trkpt><trkpt lat="44.881113346455805" lon="3.2059659403102914"><ele>1000.0</ele><time>2026-04-05T09:41:17Z</time></trkpt><trkpt lat="44.88103192964642" lon="3.206006656019749"><ele>1000.0</ele><time>2026-04-05T09:41:18Z</time></trkpt><trkpt lat="44.88094034254746" lon="3.2059812331598496"><ele>1000.0</ele><time>2026-04-05T09:41:19Z</time></trkpt><trkpt lat="44.88085125117155" lon="3.2059464096753825"><ele>1001.5</ele><time>2026-04-05T09:41:20Z</time></trkpt><trkpt lat="44.88075472176847" lon="3.205892989332392"><ele>1003.0</ele><time>2026-04-05T09:41:21Z</time></trkpt><trkpt lat="44.88064080297475" lon="3.2058590239309073"><ele>1004.5</ele><time>2026-04-05T09:41:22Z</time></trkpt><trkpt lat="44.880513165974" lon="3.205907356692383"><ele>1006.0</ele><time>2026-04-05T09:41:23Z</time></trkpt><trkpt lat="44.88037340750206" lon="3.205950407300552"><ele>1006.0</ele><time>2026-04-05T09:41:24Z</time></trkpt><trkpt lat="44.88021540642854" lon="3.205983456313666"><ele>1006.0</ele><time>2026-04-05T09:41:25Z</time></trkpt><trkpt lat="44.88007940238968" lon="3.2060266444286563"><ele>1006.0</ele><time>2026-04-05T09:41:26Z</time></trkpt><trkpt lat="44.87998080111791" lon="3.206118449770763"><ele>1006.0</ele><time>2026-04-05T09:41:27Z</time></trkpt><trkpt lat="44.879838867836995" lon="3.2061438571655954"><ele>1006.5</ele><time>2026-04-05T09:41:28Z</time></trkpt><trkpt lat="44.87969925225922" lon="3.2061602889203704"><ele>1007.0</ele><time>2026-04-05T09:41:29Z</time></trkpt><trkpt lat="44.87958747176364" lon="3.2061430511134845"><ele>1007.5</ele><time>2026-04-05T09:41:30Z</time></trkpt><trkpt lat="44.87948913647535" lon="3.206145976421023"><ele>1008.0</ele><time>2026-04-05T09:41:31Z</time></trkpt><trkpt lat="44.879370466885774" lon="3.2061940088379903"><ele>1008.5</ele><time>2026-04-05T09:41:32Z</time></trkpt><trkpt lat="44.87926529599933" lon="3.2063062339099395"><ele>1009.0</ele><time>2026-04-05T09:41:33Z</time></trkpt><trkpt lat="44.879171794628355" lon="3.206418763758915"><ele>1009.5</ele><time>2026-04-05T09:41:34Z</time></trkpt><trkpt lat="44.87907225900471" lon="3.2065424561062303"><ele>1010.0</ele><time>2026-04-05T09:41:35Z</time></trkpt><trkpt lat="44.87899267638119" lon="3.206650480204973"><ele>1010.0</ele><time>2026-04-05T09:41:36Z</time></trkpt><trkpt lat="44.878924284793946" lon="3.206754174111456"><ele>1010.0</ele><time>2026-04-05T09:41:37Z</time></trkpt><trkpt lat="44.87887728320696" lon="3.206889885123103"><ele>1010.0</ele><time>2026-04-05T09:41:38Z</time></trkpt><trkpt lat="44.87882184998256" lon="3.207007718275315"><ele>1010.0</ele><time>2026-04-05T09:41:39Z</time></trkpt><trkpt lat="44.878777943945465" lon="3.2071363070901437"><ele>1010.0</ele><time>2026-04-05T09:41:40Z</time></trkpt><trkpt lat="44.87874691187644" lon="3.2072704249834048"><ele>1008.2</ele><time>2026-04-05T09:41:41Z</time></trkpt><trkpt lat="44.87873343675782" lon="3.2074094069654655"><ele>1006.4</ele><time>2026-04-05T09:41:42Z</time></trkpt><trkpt lat="44.878743369855584" lon="3.207537643664632"><ele>1004.5999999999999</ele><time>2026-04-05T09:41:43Z</time></trkpt><trkpt lat="44.87878047512808" lon="3.2076780990911833"><ele>1002.8</ele><time>2026-04-05T09:41:44Z</time></trkpt><trkpt lat="44.87881037073672" lon="3.207834214527617"><ele>1001.0</ele><time>2026-04-05T09:41:45Z</time></trkpt><trkpt lat="44.878822884440176" lon="3.20800182848845"><ele>1001.0</ele><time>2026-04-05T09:41:46Z</time></trkpt><trkpt lat="44.87881479391119" lon="3.208171812986133"><ele>1001.0</ele><time>2026-04-05T09:41:47Z</time></trkpt><trkpt lat="44.878781535737936" lon="3.208341418620127"><ele>1001.0</ele><time>2026-04-05T09:41:48Z</time></trkpt><trkpt lat="44.87873568518232" lon="3.2085149057519695"><ele>1001.0</ele><time>2026-04-05T09:41:49Z</time></trkpt><trkpt lat="44.87867792503274" lon="3.2086877875234054"><ele>1001.0</ele><time>2026-04-05T09:41:50Z</time></trkpt><trkpt lat="44.878610192757975" lon="3.2088662076664427"><ele>1001.0</ele><time>2026-04-05T09:41:50.999Z</time></trkpt><trkpt lat="44.87854150741319" lon="3.209032624459274"><ele>1001.0</ele><time>2026-04-05T09:41:51.999Z</time></trkpt><trkpt lat="44.87848036092078" lon="3.209185415184378"><ele>1001.0</ele><time>2026-04-05T09:41:52.999Z</time></trkpt><trkpt lat="44.87841228418595" lon="3.209323299440747"><ele>1003.4</ele><time>2026-04-05T09:41:53.999Z</time></trkpt><trkpt lat="44.8783377983334" lon="3.209414459145691"><ele>1005.8</ele><time>2026-04-05T09:41:54.999Z</time></trkpt><trkpt lat="44.878241311042416" lon="3.209470602349615"><ele>1008.1999999999999</ele><time>2026-04-05T09:41:55.999Z</time></trkpt><trkpt lat="44.87813747782893" lon="3.2095359244570503"><ele>1010.5999999999999</ele><time>2026-04-05T09:41:56.999Z</time></trkpt><trkpt lat="44.878024191343904" lon="3.209629929107453"><ele>1013.0</ele><time>2026-04-05T09:41:57.999Z</time></trkpt><trkpt lat="44.87792938771485" lon="3.209712508822717"><ele>1013.0</ele><time>2026-04-05T09:41:58.999Z</time></trkpt><trkpt lat="44.87785321104883" lon="3.2097729106360005"><ele>1013.0</ele><time>2026-04-05T09:41:59.999Z</time></trkpt><trkpt lat="44.87779454804956" lon="3.2098204339850795"><ele>1013.0</ele><time>2026-04-05T09:42:00.999Z</time></trkpt><trkpt lat="44.87772816456457" lon="3.2099292440480154"><ele>1013.0</ele><time>2026-04-05T09:42:02.999Z</time></trkpt><trkpt lat="44.87766575615279" lon="3.2100850310331976"><ele>1013.0</ele><time>2026-04-05T09:42:04.999Z</time></trkpt><trkpt lat="44.877617331622304" lon="3.2101820534217764"><ele>1014.0</ele><time>2026-04-05T09:42:05.999Z</time></trkpt><trkpt lat="44.877565570161785" lon="3.2102760693714223"><ele>1015.0</ele><time>2026-04-05T09:42:06.999Z</time></trkpt><trkpt lat="44.87752042418101" lon="3.210370141367178"><ele>1016.0</ele><time>2026-04-05T09:42:07.999Z</time></trkpt><trkpt lat="44.87745893909392" lon="3.210443318062267"><ele>1017.0</ele><time>2026-04-05T09:42:08.999Z</time></trkpt><trkpt lat="44.87751359761384" lon="3.2106622014327724"><ele>1018.0</ele><time>2026-04-05T09:42:09.999Z</time></trkpt><trkpt lat="44.87751295665944" lon="3.210846804582609"><ele>1018.2</ele><time>2026-04-05T09:42:10.999Z</time></trkpt><trkpt lat="44.87751797500264" lon="3.210973893685485"><ele>1018.4</ele><time>2026-04-05T09:42:11.999Z</time></trkpt><trkpt lat="44.87755494130293" lon="3.211070850361495"><ele>1018.6000000000001</ele><time>2026-04-05T09:42:12.999Z</time></trkpt><trkpt lat="44.8776089680428" lon="3.2112116420270684"><ele>1018.8000000000001</ele><time>2026-04-05T09:42:13.999Z</time></trkpt><trkpt lat="44.87767089288865" lon="3.2113536350143557"><ele>1019.0</ele><time>2026-04-05T09:42:14.999Z</time></trkpt><trkpt lat="44.877728699883015" lon="3.211497299050305"><ele>1017.5</ele><time>2026-04-05T09:42:15.999Z</time></trkpt><trkpt lat="44.877759396930266" lon="3.2116582212914233"><ele>1016.0</ele><time>2026-04-05T09:42:16.999Z</time></trkpt><trkpt lat="44.87778387820491" lon="3.211844782334918"><ele>1014.5</ele><time>2026-04-05T09:42:17.999Z</time></trkpt><trkpt lat="44.877816796520506" lon="3.2120634713839573"><ele>1013.0</ele><time>2026-04-05T09:42:18.999Z</time></trkpt><trkpt lat="44.87784946911532" lon="3.212281777129108"><ele>1012.0</ele><time>2026-04-05T09:42:19.999Z</time></trkpt><trkpt lat="44.877862067338945" lon="3.2124518001887687"><ele>1011.0</ele><time>2026-04-05T09:42:20.999Z</time></trkpt><trkpt lat="44.877837885133644" lon="3.212609147518258"><ele>1010.0</ele><time>2026-04-05T09:42:21.999Z</time></trkpt><trkpt lat="44.87779023565004" lon="3.2127910978725116"><ele>1009.0</ele><time>2026-04-05T09:42:22.999Z</time></trkpt><trkpt lat="44.877742454229505" lon="3.21300088360597"><ele>1007.6666666666666</ele><time>2026-04-05T09:42:23.999Z</time></trkpt><trkpt lat="44.877719150133075" lon="3.213199293603509"><ele>1006.3333333333333</ele><time>2026-04-05T09:42:24.999Z</time></trkpt><trkpt lat="44.877710335016005" lon="3.213399603096758"><ele>1005.0</ele><time>2026-04-05T09:42:25.999Z</time></trkpt><trkpt lat="44.877711712059" lon="3.2136449259426647"><ele>1005.0</ele><time>2026-04-05T09:42:26.999Z</time></trkpt><trkpt lat="44.87770981231433" lon="3.2138979732267354"><ele>1005.0</ele><time>2026-04-05T09:42:27.999Z</time></trkpt><trkpt lat="44.87770325035959" lon="3.2141241722979546"><ele>1005.0</ele><time>2026-04-05T09:42:28.999Z</time></trkpt><trkpt lat="44.87770270675986" lon="3.214308662825884"><ele>1004.3333333333334</ele><time>2026-04-05T09:42:29.999Z</time></trkpt><trkpt lat="44.87770370622842" lon="3.2144548630529077"><ele>1003.6666666666667</ele><time>2026-04-05T09:42:30.999Z</time></trkpt><trkpt lat="44.877706513148276" lon="3.214595307771095"><ele>1003.0</ele><time>2026-04-05T09:42:31.999Z</time></trkpt><trkpt lat="44.8777111983767" lon="3.2147030350951673"><ele>1002.3333333333334</ele><time>2026-04-05T09:42:32.999Z</time></trkpt><trkpt lat="44.87765604970867" lon="3.2148023838828186"><ele>1001.6666666666667</ele><time>2026-04-05T09:42:34.999Z</time></trkpt><trkpt lat="44.877587277534694" lon="3.2147887908174777"><ele>1001.0</ele><time>2026-04-05T09:42:35.999Z</time></trkpt><trkpt lat="44.87746171227557" lon="3.214771715102508"><ele>998.6666666666667</ele><time>2026-04-05T09:42:36.999Z</time></trkpt><trkpt lat="44.877293713566495" lon="3.2147694875133066"><ele>996.3333333333333</ele><time>2026-04-05T09:42:37.999Z</time></trkpt><trkpt lat="44.8771062128212" lon="3.2147865041862733"><ele>994.0</ele><time>2026-04-05T09:42:38.999Z</time></trkpt><trkpt lat="44.8769630557624" lon="3.2147928518138444"><ele>994.0</ele><time>2026-04-05T09:42:39.999Z</time></trkpt><trkpt lat="44.87684145905348" lon="3.214790590879536"><ele>994.0</ele><time>2026-04-05T09:42:40.999Z</time></trkpt><trkpt lat="44.876707441824045" lon="3.2147730523422178"><ele>994.0</ele><time>2026-04-05T09:42:41.999Z</time></trkpt><trkpt lat="44.876563629191374" lon="3.214730199754517"><ele>994.0</ele><time>2026-04-05T09:42:42.999Z</time></trkpt><trkpt lat="44.87644915273238" lon="3.214679677845758"><ele>993.1666666666666</ele><time>2026-04-05T09:42:43.999Z</time></trkpt><trkpt lat="44.876359514716654" lon="3.2146387956646283"><ele>992.3333333333333</ele><time>2026-04-05T09:42:44.999Z</time></trkpt><trkpt lat="44.876280527415005" lon="3.2145874907218075"><ele>991.5</ele><time>2026-04-05T09:42:45.999Z</time></trkpt><trkpt lat="44.876205154182635" lon="3.214503251867066"><ele>990.6666666666667</ele><time>2026-04-05T09:42:46.999Z</time></trkpt><trkpt lat="44.87613463019584" lon="3.2144188634718094"><ele>989.8333333333334</ele><time>2026-04-05T09:42:47.999Z</time></trkpt><trkpt lat="44.87607280488264" lon="3.2143617560635396"><ele>989.0</ele><time>2026-04-05T09:42:49Z</time></trkpt><trkpt lat="44.876009217638035" lon="3.214336135988133"><ele>988.0</ele><time>2026-04-05T09:42:50Z</time></trkpt><trkpt lat="44.87590825393288" lon="3.214430662403808"><ele>987.0</ele><time>2026-04-05T09:42:52Z</time></trkpt><trkpt lat="44.875847061238474" lon="3.2145388633424923"><ele>986.0</ele><time>2026-04-05T09:42:53Z</time></trkpt><trkpt lat="44.87575379041365" lon="3.2146242141547146"><ele>985.0</ele><time>2026-04-05T09:42:54Z</time></trkpt><trkpt lat="44.875633182094994" lon="3.2146559369766243"><ele>985.0</ele><time>2026-04-05T09:42:55Z</time></trkpt><trkpt lat="44.8755200656345" lon="3.2146547984821834"><ele>985.0</ele><time>2026-04-05T09:42:56Z</time></trkpt><trkpt lat="44.87541580860665" lon="3.214674353707281"><ele>985.0</ele><time>2026-04-05T09:42:57Z</time></trkpt><trkpt lat="44.875291450674546" lon="3.2147446146179712"><ele>985.0</ele><time>2026-04-05T09:42:58Z</time></trkpt><trkpt lat="44.875172075169004" lon="3.214864257473533"><ele>983.0</ele><time>2026-04-05T09:42:59Z</time></trkpt><trkpt lat="44.875085702977835" lon="3.2150163812702597"><ele>981.0</ele><time>2026-04-05T09:43:00Z</time></trkpt><trkpt lat="44.87497762688187" lon="3.2151887400346637"><ele>979.0</ele><time>2026-04-05T09:43:01Z</time></trkpt><trkpt lat="44.874876542581795" lon="3.215325951566581"><ele>977.0</ele><time>2026-04-05T09:43:02Z</time></trkpt><trkpt lat="44.87480911212039" lon="3.215428319839698"><ele>977.0</ele><time>2026-04-05T09:43:03Z</time></trkpt><trkpt lat="44.874741231747066" lon="3.215547322006293"><ele>977.0</ele><time>2026-04-05T09:43:04Z</time></trkpt><trkpt lat="44.87469218794397" lon="3.2156729041594043"><ele>977.0</ele><time>2026-04-05T09:43:05Z</time></trkpt><trkpt lat="44.87464158767481" lon="3.2158435489880133"><ele>977.0</ele><time>2026-04-05T09:43:06Z</time></trkpt><trkpt lat="44.87460001773801" lon="3.2160427800058375"><ele>977.0</ele><time>2026-04-05T09:43:07Z</time></trkpt><trkpt lat="44.87455653913681" lon="3.2162319307861154"><ele>977.0</ele><time>2026-04-05T09:43:08Z</time></trkpt><trkpt lat="44.8744947873689" lon="3.2164051302356085"><ele>977.0</ele><time>2026-04-05T09:43:09Z</time></trkpt><trkpt lat="44.874429156696344" lon="3.2165203676761562"><ele>977.0</ele><time>2026-04-05T09:43:10Z</time></trkpt><trkpt lat="44.8743822580446" lon="3.216604544718043"><ele>977.0000000000001</ele><time>2026-04-05T09:43:11Z</time></trkpt><trkpt lat="44.87437312972767" lon="3.21672147575768"><ele>977.0</ele><time>2026-04-05T09:43:12Z</time></trkpt><trkpt lat="44.87439817919223" lon="3.2168239715274707"><ele>977.0</ele><time>2026-04-05T09:43:13Z</time></trkpt><trkpt lat="44.8744577606653" lon="3.2168685414733766"><ele>977.0</ele><time>2026-04-05T09:43:14Z</time></trkpt><trkpt lat="44.87453173292596" lon="3.2169047807787425"><ele>977.0000000000001</ele><time>2026-04-05T09:43:15Z</time></trkpt><trkpt lat="44.874630378013656" lon="3.2170018249690004"><ele>977.0</ele><time>2026-04-05T09:43:16Z</time></trkpt><trkpt lat="44.874748436347915" lon="3.217138777490525"><ele>977.0</ele><time>2026-04-05T09:43:17Z</time></trkpt><trkpt lat="44.87482782455421" lon="3.217276312032127"><ele>977.0</ele><time>2026-04-05T09:43:18Z</time></trkpt><trkpt lat="44.87487616490991" lon="3.217424778601678"><ele>977.0</ele><time>2026-04-05T09:43:19Z</time></trkpt><trkpt lat="44.87492907022733" lon="3.217616348906856"><ele>977.0</ele><time>2026-04-05T09:43:20Z</time></trkpt><trkpt lat="44.87498474271597" lon="3.217782652103715"><ele>975.75</ele><time>2026-04-05T09:43:21Z</time></trkpt><trkpt lat="44.87505251902008" lon="3.2179462118953635"><ele>974.5</ele><time>2026-04-05T09:43:22Z</time></trkpt><trkpt lat="44.87512041956318" lon="3.2181108881881784"><ele>973.25</ele><time>2026-04-05T09:43:23Z</time></trkpt><trkpt lat="44.87520782842387" lon="3.2182411410794822"><ele>972.0</ele><time>2026-04-05T09:43:24Z</time></trkpt><trkpt lat="44.87532548618727" lon="3.218334987543359"><ele>974.75</ele><time>2026-04-05T09:43:25Z</time></trkpt><trkpt lat="44.875436957987155" lon="3.2183850155487335"><ele>977.5</ele><time>2026-04-05T09:43:26Z</time></trkpt><trkpt lat="44.875532184222024" lon="3.2184247447068097"><ele>980.25</ele><time>2026-04-05T09:43:27Z</time></trkpt><trkpt lat="44.87562907383008" lon="3.218495211787502"><ele>983.0</ele><time>2026-04-05T09:43:28Z</time></trkpt><trkpt lat="44.875732359441436" lon="3.218595691763531"><ele>983.0</ele><time>2026-04-05T09:43:29Z</time></trkpt><trkpt lat="44.87583174570928" lon="3.218700189114019"><ele>983.0</ele><time>2026-04-05T09:43:30Z</time></trkpt><trkpt lat="44.87591299166722" lon="3.2188078642894897"><ele>983.0</ele><time>2026-04-05T09:43:31Z</time></trkpt><trkpt lat="44.87598283116822" lon="3.21892308008926"><ele>983.0</ele><time>2026-04-05T09:43:32Z</time></trkpt><trkpt lat="44.876053387789156" lon="3.219052205015119"><ele>983.5999999999999</ele><time>2026-04-05T09:43:33Z</time></trkpt><trkpt lat="44.87611796141996" lon="3.2191794119630592"><ele>984.1999999999999</ele><time>2026-04-05T09:43:34Z</time></trkpt><trkpt lat="44.87617716264054" lon="3.2193089900567418"><ele>984.8</ele><time>2026-04-05T09:43:35Z</time></trkpt><trkpt lat="44.876214003941925" lon="3.2194317859878425"><ele>985.4</ele><time>2026-04-05T09:43:36Z</time></trkpt><trkpt lat="44.87623298829292" lon="3.219571669623419"><ele>986.0</ele><time>2026-04-05T09:43:37Z</time></trkpt><trkpt lat="44.87623157456333" lon="3.21970983947702"><ele>984.25</ele><time>2026-04-05T09:43:38Z</time></trkpt><trkpt lat="44.87621840816208" lon="3.2198713409029254"><ele>982.5</ele><time>2026-04-05T09:43:39Z</time></trkpt><trkpt lat="44.87617795207019" lon="3.220010662081656"><ele>980.75</ele><time>2026-04-05T09:43:40Z</time></trkpt><trkpt lat="44.87609299730675" lon="3.220137204403907"><ele>979.0</ele><time>2026-04-05T09:43:41Z</time></trkpt><trkpt lat="44.87598269106892" lon="3.220249274144353"><ele>982.25</ele><time>2026-04-05T09:43:42Z</time></trkpt><trkpt lat="44.87584495423472" lon="3.220360145569998"><ele>985.5</ele><time>2026-04-05T09:43:43Z</time></trkpt><trkpt lat="44.87571193159255" lon="3.220436915714937"><ele>988.75</ele><time>2026-04-05T09:43:44Z</time></trkpt><trkpt lat="44.87561807371882" lon="3.2204734849576515"><ele>992.0</ele><time>2026-04-05T09:43:45Z</time></trkpt><trkpt lat="44.87555598800252" lon="3.2205337820761124"><ele>992.0</ele><time>2026-04-05T09:43:46Z</time></trkpt><trkpt lat="44.87554487478334" lon="3.2206315537057826"><ele>992.0</ele><time>2026-04-05T09:43:47Z</time></trkpt><trkpt lat="44.87557336452754" lon="3.220792317048072"><ele>992.0</ele><time>2026-04-05T09:43:48Z</time></trkpt><trkpt lat="44.87564799733651" lon="3.2209838079179054"><ele>992.0</ele><time>2026-04-05T09:43:49Z</time></trkpt><trkpt lat="44.87575500490369" lon="3.221194629600422"><ele>988.25</ele><time>2026-04-05T09:43:50Z</time></trkpt><trkpt lat="44.875861330844245" lon="3.221369974580251"><ele>984.5</ele><time>2026-04-05T09:43:51Z</time></trkpt><trkpt lat="44.87589897936403" lon="3.22148470419899"><ele>980.75</ele><time>2026-04-05T09:43:52Z</time></trkpt><trkpt lat="44.87589294410737" lon="3.221641363746054"><ele>977.0</ele><time>2026-04-05T09:43:53Z</time></trkpt><trkpt lat="44.875874490549734" lon="3.22189813279918"><ele>977.6666666666667</ele><time>2026-04-05T09:43:53.999Z</time></trkpt><trkpt lat="44.87583746222813" lon="3.222173057073886"><ele>978.3333333333333</ele><time>2026-04-05T09:43:54.999Z</time></trkpt><trkpt lat="44.87579534107842" lon="3.2224144830239765"><ele>979.0</ele><time>2026-04-05T09:43:55.999Z</time></trkpt><trkpt lat="44.87579907685009" lon="3.2226192308091113"><ele>979.0</ele><time>2026-04-05T09:43:56.999Z</time></trkpt><trkpt lat="44.875815106991496" lon="3.2228616599480735"><ele>979.0</ele><time>2026-04-05T09:43:57.999Z</time></trkpt><trkpt lat="44.87578449169969" lon="3.2231266727922243"><ele>979.0</ele><time>2026-04-05T09:43:58.999Z</time></trkpt><trkpt lat="44.87576395903232" lon="3.223321176054375"><ele>978.8000000000001</ele><time>2026-04-05T09:43:59.999Z</time></trkpt><trkpt lat="44.87577725849764" lon="3.2234719028492056"><ele>978.6000000000001</ele><time>2026-04-05T09:44:00.999Z</time></trkpt><trkpt lat="44.87580805674424" lon="3.2236142317324057"><ele>978.4</ele><time>2026-04-05T09:44:01.999Z</time></trkpt><trkpt lat="44.875846167468616" lon="3.223804629948298"><ele>978.2</ele><time>2026-04-05T09:44:02.999Z</time></trkpt><trkpt lat="44.87586853836653" lon="3.22393203777912"><ele>978.0</ele><time>2026-04-05T09:44:03.999Z</time></trkpt><trkpt lat="44.87591639539145" lon="3.2240076830666475"><ele>977.0</ele><time>2026-04-05T09:44:04.999Z</time></trkpt><trkpt lat="44.875980595765206" lon="3.224132785925928"><ele>976.0</ele><time>2026-04-05T09:44:06.999Z</time></trkpt><trkpt lat="44.876033521789644" lon="3.22428834503993"><ele>975.0</ele><time>2026-04-05T09:44:08.999Z</time></trkpt><trkpt lat="44.87606770750207" lon="3.2244472963216255"><ele>974.0</ele><time>2026-04-05T09:44:10.999Z</time></trkpt><trkpt lat="44.876109205866044" lon="3.2245990811083023"><ele>974.0000000000001</ele><time>2026-04-05T09:44:12.999Z</time></trkpt><trkpt lat="44.876140039267256" lon="3.2247572307114116"><ele>974.0</ele><time>2026-04-05T09:44:14.999Z</time></trkpt><trkpt lat="44.87617228540746" lon="3.224907761606026"><ele>974.0</ele><time>2026-04-05T09:44:16.999Z</time></trkpt><trkpt lat="44.87619219289613" lon="3.2249939461216495"><ele>974.0</ele><time>2026-04-05T09:44:17.999Z</time></trkpt><trkpt lat="44.87620699001761" lon="3.225081244518152"><ele>974.0000000000001</ele><time>2026-04-05T09:44:18.999Z</time></trkpt><trkpt lat="44.87621976334341" lon="3.225168558245603"><ele>974.0</ele><time>2026-04-05T09:44:19.999Z</time></trkpt><trkpt lat="44.87622233833031" lon="3.2253078209792356"><ele>975.4000000000001</ele><time>2026-04-05T09:44:21.999Z</time></trkpt><trkpt lat="44.87620819977357" lon="3.225420727420823"><ele>976.8000000000001</ele><time>2026-04-05T09:44:23.999Z</time></trkpt><trkpt lat="44.87617442638174" lon="3.225557179019455"><ele>978.1999999999999</ele><time>2026-04-05T09:44:25.999Z</time></trkpt><trkpt lat="44.87618320019915" lon="3.2257117149515633"><ele>979.5999999999999</ele><time>2026-04-05T09:44:27.999Z</time></trkpt><trkpt lat="44.87624240217696" lon="3.2258363625095146"><ele>981.0</ele><time>2026-04-05T09:44:29.999Z</time></trkpt><trkpt lat="44.87627628301286" lon="3.2259849151188527"><ele>981.8333333333334</ele><time>2026-04-05T09:44:31.999Z</time></trkpt><trkpt lat="44.87627985489634" lon="3.2261387761667177"><ele>982.6666666666667</ele><time>2026-04-05T09:44:33.999Z</time></trkpt><trkpt lat="44.87622685772815" lon="3.2262037141822377"><ele>983.5</ele><time>2026-04-05T09:44:34.999Z</time></trkpt><trkpt lat="44.87624506042739" lon="3.226347795453449"><ele>984.3333333333334</ele><time>2026-04-05T09:44:36.999Z</time></trkpt><trkpt lat="44.876316785034845" lon="3.2264030112519198"><ele>985.1666666666667</ele><time>2026-04-05T09:44:37.999Z</time></trkpt><trkpt lat="44.87636531364917" lon="3.226475595627081"><ele>986.0</ele><time>2026-04-05T09:44:38.999Z</time></trkpt><trkpt lat="44.876379495653694" lon="3.2266242991262413"><ele>986.0</ele><time>2026-04-05T09:44:40.999Z</time></trkpt><trkpt lat="44.8762750956288" lon="3.2266970520140252"><ele>985.9999999999999</ele><time>2026-04-05T09:44:42.999Z</time></trkpt><trkpt lat="44.876237765562884" lon="3.2268169046830657"><ele>985.9999999999999</ele><time>2026-04-05T09:44:43.999Z</time></trkpt><trkpt lat="44.87617262922991" lon="3.2268758013573584"><ele>986.0</ele><time>2026-04-05T09:44:44.999Z</time></trkpt><trkpt lat="44.87607419334798" lon="3.2270253293793125"><ele>986.0</ele><time>2026-04-05T09:44:46.999Z</time></trkpt><trkpt lat="44.876014334460265" lon="3.227095642880747"><ele>986.0</ele><time>2026-04-05T09:44:47.999Z</time></trkpt><trkpt lat="44.87594146091064" lon="3.2271573521464556"><ele>985.9999999999999</ele><time>2026-04-05T09:44:48.999Z</time></trkpt><trkpt lat="44.87585991106345" lon="3.2272292742851065"><ele>985.9999999999999</ele><time>2026-04-05T09:44:49.999Z</time></trkpt><trkpt lat="44.87578454388295" lon="3.227312260436255"><ele>986.0</ele><time>2026-04-05T09:44:50.999Z</time></trkpt><trkpt lat="44.87570997668148" lon="3.227412297402217"><ele>986.0</ele><time>2026-04-05T09:44:51.999Z</time></trkpt><trkpt lat="44.875635187297874" lon="3.227502239700689"><ele>987.1999999999999</ele><time>2026-04-05T09:44:52.999Z</time></trkpt><trkpt lat="44.87556088183109" lon="3.2275851046614377"><ele>988.3999999999999</ele><time>2026-04-05T09:44:53.999Z</time></trkpt><trkpt lat="44.875486225732104" lon="3.2276691399211916"><ele>989.6</ele><time>2026-04-05T09:44:55Z</time></trkpt><trkpt lat="44.87540815641794" lon="3.227741682432189"><ele>990.8</ele><time>2026-04-05T09:44:56Z</time></trkpt><trkpt lat="44.875333307487594" lon="3.2278220300453992"><ele>992.0</ele><time>2026-04-05T09:44:57Z</time></trkpt><trkpt lat="44.87525993748819" lon="3.2278990379565253"><ele>992.0</ele><time>2026-04-05T09:44:58Z</time></trkpt><trkpt lat="44.875187610406755" lon="3.2279559364550323"><ele>992.0</ele><time>2026-04-05T09:44:59Z</time></trkpt><trkpt lat="44.87511404734596" lon="3.2279862943444235"><ele>992.0</ele><time>2026-04-05T09:45:00Z</time></trkpt><trkpt lat="44.874994416809336" lon="3.2278860461706977"><ele>992.0</ele><time>2026-04-05T09:45:02Z</time></trkpt><trkpt lat="44.874938383281716" lon="3.227743365943836"><ele>992.0</ele><time>2026-04-05T09:45:03Z</time></trkpt><trkpt lat="44.87487704633743" lon="3.227661128280432"><ele>996.3333333333334</ele><time>2026-04-05T09:45:04Z</time></trkpt><trkpt lat="44.874830010334584" lon="3.2275523510410133"><ele>1000.6666666666667</ele><time>2026-04-05T09:45:05Z</time></trkpt><trkpt lat="44.874707978434856" lon="3.2272650842761337"><ele>1005.0</ele><time>2026-04-05T09:45:06Z</time></trkpt><trkpt lat="44.87462664198828" lon="3.2270918310714336"><ele>1005.6</ele><time>2026-04-05T09:45:07Z</time></trkpt><trkpt lat="44.87454364663554" lon="3.2269622491712338"><ele>1006.2</ele><time>2026-04-05T09:45:08Z</time></trkpt><trkpt lat="44.87447720389583" lon="3.2268831432643403"><ele>1006.8</ele><time>2026-04-05T09:45:09Z</time></trkpt><trkpt lat="44.87440438054732" lon="3.2268237064270577"><ele>1007.4</ele><time>2026-04-05T09:45:10Z</time></trkpt><trkpt lat="44.87432605137315" lon="3.2267561532098568"><ele>1008.0</ele><time>2026-04-05T09:45:11Z</time></trkpt><trkpt lat="44.874285332742176" lon="3.2266784947331626"><ele>1009.25</ele><time>2026-04-05T09:45:12Z</time></trkpt><trkpt lat="44.874241879482526" lon="3.2265550806333967"><ele>1010.5</ele><time>2026-04-05T09:45:13Z</time></trkpt><trkpt lat="44.87421432843509" lon="3.226395678739325"><ele>1011.75</ele><time>2026-04-05T09:45:14Z</time></trkpt><trkpt lat="44.87421345621566" lon="3.2261860100995667"><ele>1013.0</ele><time>2026-04-05T09:45:15Z</time></trkpt><trkpt lat="44.874214363108074" lon="3.226005670949872"><ele>1014.5</ele><time>2026-04-05T09:45:16Z</time></trkpt><trkpt lat="44.87419987598329" lon="3.2258298784093684"><ele>1016.0</ele><time>2026-04-05T09:45:17Z</time></trkpt><trkpt lat="44.874167431961745" lon="3.2256553394933207"><ele>1017.5</ele><time>2026-04-05T09:45:18Z</time></trkpt><trkpt lat="44.87412223944229" lon="3.225487236105848"><ele>1019.0</ele><time>2026-04-05T09:45:19Z</time></trkpt><trkpt lat="44.87406732249859" lon="3.2253045169977743"><ele>1019.0</ele><time>2026-04-05T09:45:20Z</time></trkpt><trkpt lat="44.874028538760776" lon="3.225138536822649"><ele>1019.0000000000001</ele><time>2026-04-05T09:45:21Z</time></trkpt><trkpt lat="44.873998863472686" lon="3.2250161968707856"><ele>1019.0000000000001</ele><time>2026-04-05T09:45:22Z</time></trkpt><trkpt lat="44.87395512583611" lon="3.2249035303462166"><ele>1019.0</ele><time>2026-04-05T09:45:23Z</time></trkpt><trkpt lat="44.87388805283808" lon="3.2248043251621006"><ele>1019.0</ele><time>2026-04-05T09:45:24Z</time></trkpt><trkpt lat="44.87380879423161" lon="3.224693030743453"><ele>1018.8000000000001</ele><time>2026-04-05T09:45:25Z</time></trkpt><trkpt lat="44.87372347560685" lon="3.2245928150334158"><ele>1018.6000000000001</ele><time>2026-04-05T09:45:26Z</time></trkpt><trkpt lat="44.873633587678746" lon="3.224479115236219"><ele>1018.4</ele><time>2026-04-05T09:45:27Z</time></trkpt><trkpt lat="44.873558369969615" lon="3.224366508388608"><ele>1018.2</ele><time>2026-04-05T09:45:28Z</time></trkpt><trkpt lat="44.873503854703074" lon="3.2242852188296434"><ele>1018.0</ele><time>2026-04-05T09:45:29Z</time></trkpt><trkpt lat="44.873439025808295" lon="3.2241904375013632"><ele>1020.2</ele><time>2026-04-05T09:45:31Z</time></trkpt><trkpt lat="44.873363110108095" lon="3.2243480671897102"><ele>1022.4</ele><time>2026-04-05T09:45:34Z</time></trkpt><trkpt lat="44.87332420977075" lon="3.224444740604701"><ele>1024.6000000000001</ele><time>2026-04-05T09:45:35Z</time></trkpt><trkpt lat="44.87326324834425" lon="3.2245373011309115"><ele>1026.8</ele><time>2026-04-05T09:45:36Z</time></trkpt><trkpt lat="44.87320641137262" lon="3.224591918946631"><ele>1029.0</ele><time>2026-04-05T09:45:37Z</time></trkpt><trkpt lat="44.873137779583715" lon="3.2246533067250303"><ele>1029.0</ele><time>2026-04-05T09:45:38Z</time></trkpt><trkpt lat="44.87306947512989" lon="3.2247046740636964"><ele>1029.0</ele><time>2026-04-05T09:45:39Z</time></trkpt><trkpt lat="44.87299795717969" lon="3.2247536597943642"><ele>1029.0</ele><time>2026-04-05T09:45:40Z</time></trkpt><trkpt lat="44.87291250303658" lon="3.2247954905426566"><ele>1029.0</ele><time>2026-04-05T09:45:41Z</time></trkpt><trkpt lat="44.87284160604901" lon="3.2248115327946514"><ele>1029.0</ele><time>2026-04-05T09:45:42Z</time></trkpt><trkpt lat="44.87275797115709" lon="3.224802553764769"><ele>1029.0</ele><time>2026-04-05T09:45:43Z</time></trkpt><trkpt lat="44.87266737704765" lon="3.224819528768807"><ele>1026.2</ele><time>2026-04-05T09:45:44Z</time></trkpt><trkpt lat="44.872562930850826" lon="3.224839659706282"><ele>1023.4000000000001</ele><time>2026-04-05T09:45:45Z</time></trkpt><trkpt lat="44.87244910474224" lon="3.2248897750069334"><ele>1020.6</ele><time>2026-04-05T09:45:46Z</time></trkpt><trkpt lat="44.872344187897745" lon="3.2249510515708706"><ele>1017.8</ele><time>2026-04-05T09:45:47Z</time></trkpt><trkpt lat="44.872258416308014" lon="3.2250067574222223"><ele>1015.0</ele><time>2026-04-05T09:45:47.999Z</time></trkpt><trkpt lat="44.872176546582025" lon="3.2250654606237616"><ele>1014.9999999999999</ele><time>2026-04-05T09:45:48.999Z</time></trkpt><trkpt lat="44.87211060310387" lon="3.2251157317994235"><ele>1015.0</ele><time>2026-04-05T09:45:49.999Z</time></trkpt><trkpt lat="44.87204602229475" lon="3.2251459506041082"><ele>1015.0</ele><time>2026-04-05T09:45:50.999Z</time></trkpt><trkpt lat="44.871953869064434" lon="3.2251896585273174"><ele>1015.0</ele><time>2026-04-05T09:45:51.999Z</time></trkpt><trkpt lat="44.87188026512369" lon="3.2252545776541353"><ele>1014.9999999999999</ele><time>2026-04-05T09:45:52.999Z</time></trkpt><trkpt lat="44.871801048488685" lon="3.225340027871335"><ele>1015.0</ele><time>2026-04-05T09:45:53.999Z</time></trkpt><trkpt lat="44.871719702166985" lon="3.2253922315276857"><ele>1014.4</ele><time>2026-04-05T09:45:54.999Z</time></trkpt><trkpt lat="44.871664244824515" lon="3.225453851591482"><ele>1013.8</ele><time>2026-04-05T09:45:55.999Z</time></trkpt><trkpt lat="44.87162388291986" lon="3.2255729358067486"><ele>1013.2</ele><time>2026-04-05T09:45:56.999Z</time></trkpt><trkpt lat="44.87156968100277" lon="3.2257066168488744"><ele>1012.6</ele><time>2026-04-05T09:45:57.999Z</time></trkpt><trkpt lat="44.87149808989612" lon="3.2258108594517854"><ele>1012.0</ele><time>2026-04-05T09:45:58.999Z</time></trkpt><trkpt lat="44.87141572498433" lon="3.225901103101971"><ele>1009.6666666666666</ele><time>2026-04-05T09:45:59.999Z</time></trkpt><trkpt lat="44.87134034704018" lon="3.2259673661838777"><ele>1007.3333333333333</ele><time>2026-04-05T09:46:00.999Z</time></trkpt><trkpt lat="44.871273615836024" lon="3.2260303782425717"><ele>1005.0</ele><time>2026-04-05T09:46:01.999Z</time></trkpt><trkpt lat="44.87121982132104" lon="3.2261172841174743"><ele>1002.6666666666667</ele><time>2026-04-05T09:46:02.999Z</time></trkpt><trkpt lat="44.87115665167125" lon="3.226180019109578"><ele>1000.3333333333334</ele><time>2026-04-05T09:46:03.999Z</time></trkpt><trkpt lat="44.87105320296359" lon="3.22622640270621"><ele>998.0</ele><time>2026-04-05T09:46:04.999Z</time></trkpt><trkpt lat="44.870956473258374" lon="3.2262723032426517"><ele>998.6666666666667</ele><time>2026-04-05T09:46:05.999Z</time></trkpt><trkpt lat="44.870899550960154" lon="3.226330161725797"><ele>999.3333333333334</ele><time>2026-04-05T09:46:06.999Z</time></trkpt><trkpt lat="44.87087425555261" lon="3.22642294890147"><ele>1000.0</ele><time>2026-04-05T09:46:07.999Z</time></trkpt><trkpt lat="44.870862664997325" lon="3.2265402358326813"><ele>1000.6666666666667</ele><time>2026-04-05T09:46:08.999Z</time></trkpt><trkpt lat="44.87089542973823" lon="3.2266749515583193"><ele>1001.3333333333334</ele><time>2026-04-05T09:46:09.999Z</time></trkpt><trkpt lat="44.870963264158206" lon="3.2267935071053873"><ele>1002.0</ele><time>2026-04-05T09:46:10.999Z</time></trkpt><trkpt lat="44.87103880453607" lon="3.2269163466410427"><ele>999.5</ele><time>2026-04-05T09:46:11.999Z</time></trkpt><trkpt lat="44.8710986045035" lon="3.2269927144036545"><ele>997.0</ele><time>2026-04-05T09:46:12.999Z</time></trkpt><trkpt lat="44.87107081877809" lon="3.2271601033355806"><ele>994.5</ele><time>2026-04-05T09:46:14.999Z</time></trkpt><trkpt lat="44.8710005644582" lon="3.227296198103794"><ele>992.0</ele><time>2026-04-05T09:46:15.999Z</time></trkpt><trkpt lat="44.870918175850036" lon="3.2274562662138004"><ele>991.0</ele><time>2026-04-05T09:46:16.999Z</time></trkpt><trkpt lat="44.870847383884424" lon="3.2275831401813933"><ele>990.0</ele><time>2026-04-05T09:46:17.999Z</time></trkpt><trkpt lat="44.87078669416462" lon="3.2276788091996504"><ele>989.0</ele><time>2026-04-05T09:46:18.999Z</time></trkpt><trkpt lat="44.870749104486904" lon="3.2277883544881223"><ele>988.0</ele><time>2026-04-05T09:46:19.999Z</time></trkpt><trkpt lat="44.87073230289167" lon="3.2279301164804455"><ele>987.0</ele><time>2026-04-05T09:46:20.999Z</time></trkpt><trkpt lat="44.87073671069832" lon="3.2280196145589466"><ele>987.5</ele><time>2026-04-05T09:46:21.999Z</time></trkpt><trkpt lat="44.87071926538308" lon="3.228213128202977"><ele>988.0</ele><time>2026-04-05T09:46:23.999Z</time></trkpt><trkpt lat="44.870701354048094" lon="3.228331463604254"><ele>988.5</ele><time>2026-04-05T09:46:24.999Z</time></trkpt><trkpt lat="44.87068350514034" lon="3.22853714433219"><ele>989.0</ele><time>2026-04-05T09:46:26.999Z</time></trkpt><trkpt lat="44.87064945428387" lon="3.228695056659403"><ele>989.0</ele><time>2026-04-05T09:46:27.999Z</time></trkpt><trkpt lat="44.870601260328144" lon="3.2288120193443803"><ele>989.0000000000001</ele><time>2026-04-05T09:46:28.999Z</time></trkpt><trkpt lat="44.87054271993247" lon="3.228904350874376"><ele>989.0000000000001</ele><time>2026-04-05T09:46:29.999Z</time></trkpt><trkpt lat="44.87048240793118" lon="3.229001076542458"><ele>989.0</ele><time>2026-04-05T09:46:30.999Z</time></trkpt><trkpt lat="44.87040130674113" lon="3.229114924433328"><ele>989.0</ele><time>2026-04-05T09:46:31.999Z</time></trkpt><trkpt lat="44.87032129803876" lon="3.229219835721034"><ele>988.8333333333334</ele><time>2026-04-05T09:46:32.999Z</time></trkpt><trkpt lat="44.870244154367825" lon="3.2292888439832224"><ele>988.6666666666667</ele><time>2026-04-05T09:46:33.999Z</time></trkpt><trkpt lat="44.870167456247614" lon="3.229336278890738"><ele>988.5</ele><time>2026-04-05T09:46:34.999Z</time></trkpt><trkpt lat="44.87009148063727" lon="3.2293986780425614"><ele>988.3333333333333</ele><time>2026-04-05T09:46:35.999Z</time></trkpt><trkpt lat="44.87003415728694" lon="3.2294691551215613"><ele>988.1666666666666</ele><time>2026-04-05T09:46:36.999Z</time></trkpt><trkpt lat="44.870006710935854" lon="3.2295671127422625"><ele>988.0</ele><time>2026-04-05T09:46:37.999Z</time></trkpt><trkpt lat="44.86998946495713" lon="3.2296754941794963"><ele>991.75</ele><time>2026-04-05T09:46:38.999Z</time></trkpt><trkpt lat="44.86998829781617" lon="3.2298255186408666"><ele>995.5</ele><time>2026-04-05T09:46:39.999Z</time></trkpt><trkpt lat="44.86997584372897" lon="3.2300107729513465"><ele>999.25</ele><time>2026-04-05T09:46:40.999Z</time></trkpt><trkpt lat="44.86993022938242" lon="3.2301571778412708"><ele>1003.0</ele><time>2026-04-05T09:46:41.999Z</time></trkpt><trkpt lat="44.869839422794236" lon="3.2302799848786075"><ele>1003.0</ele><time>2026-04-05T09:46:42.999Z</time></trkpt><trkpt lat="44.869777226832674" lon="3.2303940370144932"><ele>1003.0</ele><time>2026-04-05T09:46:43.999Z</time></trkpt><trkpt lat="44.86976686507263" lon="3.2305233942038396"><ele>1003.0</ele><time>2026-04-05T09:46:44.999Z</time></trkpt><trkpt lat="44.86977788682286" lon="3.230678103817068"><ele>1003.0</ele><time>2026-04-05T09:46:45.999Z</time></trkpt><trkpt lat="44.86979326704822" lon="3.230818254261437"><ele>1003.0</ele><time>2026-04-05T09:46:46.999Z</time></trkpt><trkpt lat="44.869790440778985" lon="3.2309625311485894"><ele>1002.8333333333333</ele><time>2026-04-05T09:46:47.999Z</time></trkpt><trkpt lat="44.86978485858048" lon="3.2311152211784133"><ele>1002.6666666666666</ele><time>2026-04-05T09:46:48.999Z</time></trkpt><trkpt lat="44.86978540924948" lon="3.2312318074244564"><ele>1002.5</ele><time>2026-04-05T09:46:49.999Z</time></trkpt><trkpt lat="44.86978446263602" lon="3.2313455756745637"><ele>1002.3333333333333</ele><time>2026-04-05T09:46:50.999Z</time></trkpt><trkpt lat="44.86977865991198" lon="3.231469884993666"><ele>1002.1666666666666</ele><time>2026-04-05T09:46:51.999Z</time></trkpt><trkpt lat="44.869769392888905" lon="3.231591761124405"><ele>1002.0</ele><time>2026-04-05T09:46:52.999Z</time></trkpt><trkpt lat="44.8697546149524" lon="3.231722180317593"><ele>1003.2</ele><time>2026-04-05T09:46:53.999Z</time></trkpt><trkpt lat="44.86973514613522" lon="3.2318573251716574"><ele>1004.4000000000001</ele><time>2026-04-05T09:46:54.999Z</time></trkpt><trkpt lat="44.86971351795254" lon="3.2319803698832903"><ele>1005.5999999999999</ele><time>2026-04-05T09:46:55.999Z</time></trkpt><trkpt lat="44.86969386861315" lon="3.2320889171747"><ele>1006.8</ele><time>2026-04-05T09:46:56.999Z</time></trkpt><trkpt lat="44.869670892441604" lon="3.232204256514432"><ele>1008.0</ele><time>2026-04-05T09:46:57.998Z</time></trkpt><trkpt lat="44.86964842393126" lon="3.2323401516684016"><ele>1008.2</ele><time>2026-04-05T09:46:58.998Z</time></trkpt><trkpt lat="44.8696182058152" lon="3.232467060497797"><ele>1008.4</ele><time>2026-04-05T09:46:59.998Z</time></trkpt><trkpt lat="44.86959227322933" lon="3.23260168797442"><ele>1008.6000000000001</ele><time>2026-04-05T09:47:01Z</time></trkpt><trkpt lat="44.8695719057834" lon="3.2327302975123904"><ele>1008.8000000000001</ele><time>2026-04-05T09:47:02Z</time></trkpt><trkpt lat="44.86955958867896" lon="3.2328559380217436"><ele>1009.0</ele><time>2026-04-05T09:47:03Z</time></trkpt><trkpt lat="44.86953617192573" lon="3.232976630132562"><ele>1009.0</ele><time>2026-04-05T09:47:04Z</time></trkpt><trkpt lat="44.8695101176084" lon="3.233095402650011"><ele>1009.0000000000001</ele><time>2026-04-05T09:47:05Z</time></trkpt><trkpt lat="44.86948342506808" lon="3.233219815874161"><ele>1009.0000000000001</ele><time>2026-04-05T09:47:06Z</time></trkpt><trkpt lat="44.86945308715717" lon="3.2333411271496453"><ele>1009.0</ele><time>2026-04-05T09:47:07Z</time></trkpt><trkpt lat="44.86941769830451" lon="3.2334754790255382"><ele>1009.0</ele><time>2026-04-05T09:47:08Z</time></trkpt><trkpt lat="44.86938714900651" lon="3.2335905984707023"><ele>1008.0</ele><time>2026-04-05T09:47:09Z</time></trkpt><trkpt lat="44.86935043011225" lon="3.2337180748866414"><ele>1007.0000000000001</ele><time>2026-04-05T09:47:10Z</time></trkpt><trkpt lat="44.86931516736342" lon="3.233829846053666"><ele>1006.0000000000001</ele><time>2026-04-05T09:47:11Z</time></trkpt><trkpt lat="44.86927796338027" lon="3.2339305946314822"><ele>1005.0</ele><time>2026-04-05T09:47:12Z</time></trkpt><trkpt lat="44.8692246460897" lon="3.234030275816506"><ele>1004.0</ele><time>2026-04-05T09:47:13Z</time></trkpt><trkpt lat="44.86916035643958" lon="3.234137885248203"><ele>1004.0</ele><time>2026-04-05T09:47:14Z</time></trkpt><trkpt lat="44.869096602895716" lon="3.2342274205036845"><ele>1004.0000000000001</ele><time>2026-04-05T09:47:15Z</time></trkpt><trkpt lat="44.86902187298933" lon="3.234321543217468"><ele>1004.0000000000001</ele><time>2026-04-05T09:47:16Z</time></trkpt><trkpt lat="44.86893987040458" lon="3.23440123342927"><ele>1004.0</ele><time>2026-04-05T09:47:17Z</time></trkpt><trkpt lat="44.868832026605176" lon="3.2344546716176104"><ele>1004.0</ele><time>2026-04-05T09:47:18Z</time></trkpt><trkpt lat="44.86875524102854" lon="3.234546008578167"><ele>1004.0</ele><time>2026-04-05T09:47:19Z</time></trkpt><trkpt lat="44.868669584520866" lon="3.2346676720322125"><ele>1004.0000000000001</ele><time>2026-04-05T09:47:20Z</time></trkpt><trkpt lat="44.86860003908526" lon="3.234791220060234"><ele>1004.0000000000001</ele><time>2026-04-05T09:47:21Z</time></trkpt><trkpt lat="44.86855405335058" lon="3.2349093939581324"><ele>1004.0</ele><time>2026-04-05T09:47:22Z</time></trkpt><trkpt lat="44.86851190876409" lon="3.2350204312097337"><ele>1004.0</ele><time>2026-04-05T09:47:23Z</time></trkpt><trkpt lat="44.86847426985232" lon="3.2351339474465854"><ele>1003.8000000000001</ele><time>2026-04-05T09:47:24Z</time></trkpt><trkpt lat="44.86844191389471" lon="3.2352346829938594"><ele>1003.6000000000001</ele><time>2026-04-05T09:47:25Z</time></trkpt><trkpt lat="44.868391139314824" lon="3.235382306357105"><ele>1003.4</ele><time>2026-04-05T09:47:27Z</time></trkpt><trkpt lat="44.86835094155302" lon="3.235514557782213"><ele>1003.2</ele><time>2026-04-05T09:47:29Z</time></trkpt><trkpt lat="44.86828916235092" lon="3.235636448836629"><ele>1003.0</ele><time>2026-04-05T09:47:31Z</time></trkpt><trkpt lat="44.86823279917854" lon="3.235763175496746"><ele>1002.8</ele><time>2026-04-05T09:47:33Z</time></trkpt><trkpt lat="44.86816299123147" lon="3.2359060172712995"><ele>1002.5999999999999</ele><time>2026-04-05T09:47:35Z</time></trkpt><trkpt lat="44.86813966570412" lon="3.235998236440778"><ele>1002.4000000000001</ele><time>2026-04-05T09:47:36Z</time></trkpt><trkpt lat="44.8680619595257" lon="3.2361213593115203"><ele>1002.2</ele><time>2026-04-05T09:47:38Z</time></trkpt><trkpt lat="44.86801080135395" lon="3.2362696979716277"><ele>1002.0</ele><time>2026-04-05T09:47:40Z</time></trkpt><trkpt lat="44.86800389789342" lon="3.2363664596148594"><ele>1002.0</ele><time>2026-04-05T09:47:41Z</time></trkpt><trkpt lat="44.86799788503866" lon="3.2364668195075144"><ele>1002.0</ele><time>2026-04-05T09:47:42Z</time></trkpt><trkpt lat="44.86798671300937" lon="3.2365683477559006"><ele>1002.0</ele><time>2026-04-05T09:47:43Z</time></trkpt><trkpt lat="44.86798681695444" lon="3.236725322471571"><ele>1002.0</ele><time>2026-04-05T09:47:45Z</time></trkpt><trkpt lat="44.8680084028963" lon="3.236826221730985"><ele>1002.0</ele><time>2026-04-05T09:47:47Z</time></trkpt><trkpt lat="44.867986696182435" lon="3.2369174888776358"><ele>1002.0</ele><time>2026-04-05T09:47:49Z</time></trkpt><trkpt lat="44.86792060105896" lon="3.2369922536107567"><ele>1002.3333333333334</ele><time>2026-04-05T09:47:51Z</time></trkpt><trkpt lat="44.867894742126715" lon="3.2370857710809497"><ele>1002.6666666666667</ele><time>2026-04-05T09:47:52.999Z</time></trkpt><trkpt lat="44.867855779701316" lon="3.237187947326922"><ele>1003.0</ele><time>2026-04-05T09:47:56.999Z</time></trkpt><trkpt lat="44.86790723482902" lon="3.2371291592008586"><ele>1003.3333333333334</ele><time>2026-04-05T09:48:02.999Z</time></trkpt><trkpt lat="44.86793472966939" lon="3.2370101820706836"><ele>1003.6666666666667</ele><time>2026-04-05T09:48:04.999Z</time></trkpt><trkpt lat="44.867992218432114" lon="3.236896710391464"><ele>1004.0</ele><time>2026-04-05T09:48:06.999Z</time></trkpt><trkpt lat="44.86801080506698" lon="3.236782048250607"><ele>1004.0000000000001</ele><time>2026-04-05T09:48:08.999Z</time></trkpt><trkpt lat="44.8679839509102" lon="3.2366129791594775"><ele>1004.0</ele><time>2026-04-05T09:48:10.999Z</time></trkpt><trkpt lat="44.867994346144016" lon="3.236506478753049"><ele>1004.0</ele><time>2026-04-05T09:48:11.999Z</time></trkpt><trkpt lat="44.86801509529576" lon="3.236400820176025"><ele>1004.0</ele><time>2026-04-05T09:48:12.999Z</time></trkpt><trkpt lat="44.86803156718375" lon="3.2362870373314383"><ele>1004.0000000000001</ele><time>2026-04-05T09:48:13.999Z</time></trkpt><trkpt lat="44.868041912014235" lon="3.2361962457227658"><ele>1004.0</ele><time>2026-04-05T09:48:14.999Z</time></trkpt><trkpt lat="44.86793149920301" lon="3.2360575870152193"><ele>1003.8333333333334</ele><time>2026-04-05T09:48:16.999Z</time></trkpt><trkpt lat="44.867877537392786" lon="3.2359938571113513"><ele>1003.6666666666667</ele><time>2026-04-05T09:48:17.999Z</time></trkpt><trkpt lat="44.867828849718784" lon="3.235915944962601"><ele>1003.5</ele><time>2026-04-05T09:48:18.999Z</time></trkpt><trkpt lat="44.86775170890228" lon="3.2358897742548254"><ele>1003.3333333333333</ele><time>2026-04-05T09:48:19.999Z</time></trkpt><trkpt lat="44.867673239739915" lon="3.2358610364346996"><ele>1003.1666666666666</ele><time>2026-04-05T09:48:20.999Z</time></trkpt><trkpt lat="44.8675902711832" lon="3.235806650007076"><ele>1003.0</ele><time>2026-04-05T09:48:21.999Z</time></trkpt><trkpt lat="44.86750827404355" lon="3.2357767082730993"><ele>1002.9999999999999</ele><time>2026-04-05T09:48:22.999Z</time></trkpt><trkpt lat="44.86742514535148" lon="3.235738791421206"><ele>1003.0</ele><time>2026-04-05T09:48:23.999Z</time></trkpt><trkpt lat="44.867349643243074" lon="3.2357005659203995"><ele>1003.0</ele><time>2026-04-05T09:48:24.999Z</time></trkpt><trkpt lat="44.867272322048564" lon="3.235656845758629"><ele>1003.0</ele><time>2026-04-05T09:48:25.999Z</time></trkpt><trkpt lat="44.86720334088103" lon="3.2356118750502256"><ele>1002.9999999999999</ele><time>2026-04-05T09:48:26.999Z</time></trkpt><trkpt lat="44.86711344328331" lon="3.2355320426552074"><ele>1003.0</ele><time>2026-04-05T09:48:28.999Z</time></trkpt><trkpt lat="44.86705142990504" lon="3.2354856329445116"><ele>1003.0</ele><time>2026-04-05T09:48:31.999Z</time></trkpt><trkpt lat="44.866954949244686" lon="3.235690905335907"><ele>1003.0</ele><time>2026-04-05T09:48:57.999Z</time></trkpt><trkpt lat="44.866940432519634" lon="3.2358551751509017"><ele>1003.0</ele><time>2026-04-05T09:48:59.999Z</time></trkpt><trkpt lat="44.86693326643477" lon="3.236040210589468"><ele>1003.0</ele><time>2026-04-05T09:49:01.999Z</time></trkpt><trkpt lat="44.866933734878046" lon="3.236147429094042"><ele>1003.0</ele><time>2026-04-05T09:49:02.999Z</time></trkpt><trkpt lat="44.866936820808704" lon="3.2362690006811077"><ele>1003.0</ele><time>2026-04-05T09:49:03.998Z</time></trkpt><trkpt lat="44.866941280044415" lon="3.23639761249697"><ele>1003.0</ele><time>2026-04-05T09:49:04.998Z</time></trkpt><trkpt lat="44.86694905446107" lon="3.236535854540756"><ele>1003.0</ele><time>2026-04-05T09:49:05.998Z</time></trkpt><trkpt lat="44.86696019689385" lon="3.236674276653664"><ele>1003.0</ele><time>2026-04-05T09:49:07Z</time></trkpt><trkpt lat="44.86697522866905" lon="3.236818455013069"><ele>1002.0</ele><time>2026-04-05T09:49:08Z</time></trkpt><trkpt lat="44.86698717767427" lon="3.236968872697304"><ele>1001.0</ele><time>2026-04-05T09:49:09Z</time></trkpt><trkpt lat="44.86700157175628" lon="3.237119472340968"><ele>1000.0</ele><time>2026-04-05T09:49:10Z</time></trkpt><trkpt lat="44.86701134882172" lon="3.2372570302329406"><ele>999.0</ele><time>2026-04-05T09:49:11Z</time></trkpt><trkpt lat="44.867016197603625" lon="3.237385025331071"><ele>998.0</ele><time>2026-04-05T09:49:12Z</time></trkpt><trkpt lat="44.86701176483821" lon="3.23749215304741"><ele>997.2</ele><time>2026-04-05T09:49:13Z</time></trkpt><trkpt lat="44.8669973122116" lon="3.2375970814673933"><ele>996.4</ele><time>2026-04-05T09:49:14Z</time></trkpt><trkpt lat="44.86686564166817" lon="3.2376591211374177"><ele>995.6000000000001</ele><time>2026-04-05T09:49:15Z</time></trkpt><trkpt lat="44.86683524308098" lon="3.237753701510629"><ele>994.8000000000001</ele><time>2026-04-05T09:49:16Z</time></trkpt><trkpt lat="44.866735339829106" lon="3.237848400354759"><ele>994.0</ele><time>2026-04-05T09:49:18Z</time></trkpt><trkpt lat="44.86661555775304" lon="3.2378875235376325"><ele>995.3333333333333</ele><time>2026-04-05T09:49:20Z</time></trkpt><trkpt lat="44.866543169107565" lon="3.237901738129028"><ele>996.6666666666666</ele><time>2026-04-05T09:49:21Z</time></trkpt><trkpt lat="44.86646952095694" lon="3.237913202901731"><ele>998.0</ele><time>2026-04-05T09:49:22Z</time></trkpt><trkpt lat="44.86640502549967" lon="3.2379208878433667"><ele>999.3333333333333</ele><time>2026-04-05T09:49:23Z</time></trkpt><trkpt lat="44.86631564444962" lon="3.2379322161655084"><ele>1000.6666666666666</ele><time>2026-04-05T09:49:24Z</time></trkpt><trkpt lat="44.86621514356935" lon="3.23794768514664"><ele>1002.0</ele><time>2026-04-05T09:49:25Z</time></trkpt><trkpt lat="44.866121178416186" lon="3.2379607511794193"><ele>1002.0</ele><time>2026-04-05T09:49:26Z</time></trkpt><trkpt lat="44.866047215534124" lon="3.2379710358586906"><ele>1002.0</ele><time>2026-04-05T09:49:27Z</time></trkpt><trkpt lat="44.86595539755249" lon="3.2379854879765104"><ele>1002.0</ele><time>2026-04-05T09:49:28Z</time></trkpt><trkpt lat="44.865861302241825" lon="3.2380008039038173"><ele>1002.0</ele><time>2026-04-05T09:49:29Z</time></trkpt><trkpt lat="44.86576901139686" lon="3.238016358331161"><ele>1002.0</ele><time>2026-04-05T09:49:30Z</time></trkpt><trkpt lat="44.86568380964309" lon="3.2380319602047165"><ele>1002.0</ele><time>2026-04-05T09:49:31Z</time></trkpt><trkpt lat="44.86557526900713" lon="3.2380532714778885"><ele>1005.0</ele><time>2026-04-05T09:49:32Z</time></trkpt><trkpt lat="44.86547815919356" lon="3.2380812308935467"><ele>1008.0</ele><time>2026-04-05T09:49:33Z</time></trkpt><trkpt lat="44.86549159866008" lon="3.2386306125893327"><ele>1004.3333333333334</ele><time>2026-04-05T09:49:34Z</time></trkpt><trkpt lat="44.86542901245656" lon="3.2387520932851857"><ele>1000.6666666666667</ele><time>2026-04-05T09:49:35Z</time></trkpt><trkpt lat="44.86538069200771" lon="3.23885719919209"><ele>997.0</ele><time>2026-04-05T09:49:36Z</time></trkpt><trkpt lat="44.86532947148255" lon="3.2389610695030435"><ele>993.3333333333334</ele><time>2026-04-05T09:49:37Z</time></trkpt><trkpt lat="44.865270033313365" lon="3.239059299238239"><ele>989.6666666666667</ele><time>2026-04-05T09:49:38Z</time></trkpt><trkpt lat="44.86522284900723" lon="3.2391272526857593"><ele>986.0</ele><time>2026-04-05T09:49:39Z</time></trkpt><trkpt lat="44.86513459103076" lon="3.2392720572635576"><ele>985.3333333333334</ele><time>2026-04-05T09:49:41Z</time></trkpt><trkpt lat="44.86509615367318" lon="3.2393558050991382"><ele>984.6666666666667</ele><time>2026-04-05T09:49:42Z</time></trkpt><trkpt lat="44.86505775970106" lon="3.2394419143350603"><ele>984.0</ele><time>2026-04-05T09:49:43Z</time></trkpt><trkpt lat="44.86502244505626" lon="3.2395274391481226"><ele>983.3333333333333</ele><time>2026-04-05T09:49:44Z</time></trkpt><trkpt lat="44.86499441783254" lon="3.2396172393151734"><ele>982.6666666666666</ele><time>2026-04-05T09:49:45Z</time></trkpt><trkpt lat="44.86499823541232" lon="3.239743773202168"><ele>982.0</ele><time>2026-04-05T09:49:47Z</time></trkpt><trkpt lat="44.865034445675526" lon="3.239856816759731"><ele>982.0</ele><time>2026-04-05T09:49:49Z</time></trkpt><trkpt lat="44.8650694028567" lon="3.2399362794113364"><ele>982.0</ele><time>2026-04-05T09:49:50Z</time></trkpt><trkpt lat="44.86514485477615" lon="3.2400728016853764"><ele>982.0</ele><time>2026-04-05T09:49:51.999Z</time></trkpt><trkpt lat="44.8651998670424" lon="3.24022292344178"><ele>982.0</ele><time>2026-04-05T09:49:53.999Z</time></trkpt><trkpt lat="44.86522423959372" lon="3.2403210600386334"><ele>982.0</ele><time>2026-04-05T09:49:55.999Z</time></trkpt><trkpt lat="44.86530481188322" lon="3.2402810534973896"><ele>982.4999999999999</ele><time>2026-04-05T09:49:58.999Z</time></trkpt><trkpt lat="44.86529993509946" lon="3.2401288065704303"><ele>983.0</ele><time>2026-04-05T09:50:00.999Z</time></trkpt><trkpt lat="44.865291493394395" lon="3.2400217118274246"><ele>983.5</ele><time>2026-04-05T09:50:02.999Z</time></trkpt><trkpt lat="44.865305869095906" lon="3.239919227044023"><ele>984.0</ele><time>2026-04-05T09:50:06.999Z</time></trkpt><trkpt lat="44.865359294016905" lon="3.2400005227250817"><ele>984.4999999999999</ele><time>2026-04-05T09:50:09.999Z</time></trkpt><trkpt lat="44.865310803731305" lon="3.240060487876507"><ele>985.0</ele><time>2026-04-05T09:50:11.999Z</time></trkpt><trkpt lat="44.865293461653465" lon="3.2401861727443095"><ele>984.9999999999999</ele><time>2026-04-05T09:50:14.999Z</time></trkpt><trkpt lat="44.865293127660436" lon="3.2402821958585575"><ele>985.0</ele><time>2026-04-05T09:50:16.999Z</time></trkpt><trkpt lat="44.86526627615907" lon="3.240388209618176"><ele>985.0</ele><time>2026-04-05T09:50:19.999Z</time></trkpt><trkpt lat="44.86528573356634" lon="3.2404998133619833"><ele>985.0</ele><time>2026-04-05T09:50:23.999Z</time></trkpt><trkpt lat="44.86530444329927" lon="3.2405973191633746"><ele>984.9999999999999</ele><time>2026-04-05T09:50:25.999Z</time></trkpt><trkpt lat="44.86538077410222" lon="3.240652578987718"><ele>985.0</ele><time>2026-04-05T09:50:27.999Z</time></trkpt><trkpt lat="44.865447419631785" lon="3.2406807839034233"><ele>985.4</ele><time>2026-04-05T09:50:29.999Z</time></trkpt><trkpt lat="44.8655357884562" lon="3.240694611600606"><ele>985.8</ele><time>2026-04-05T09:50:31.999Z</time></trkpt><trkpt lat="44.86563094400124" lon="3.2407374108787512"><ele>986.2</ele><time>2026-04-05T09:50:33.999Z</time></trkpt><trkpt lat="44.86572325641472" lon="3.2408497881628486"><ele>986.6</ele><time>2026-04-05T09:50:35.999Z</time></trkpt><trkpt lat="44.86577456612478" lon="3.2410099097165186"><ele>987.0</ele><time>2026-04-05T09:50:37.999Z</time></trkpt><trkpt lat="44.865781186530796" lon="3.241107222567569"><ele>987.0</ele><time>2026-04-05T09:50:38.999Z</time></trkpt><trkpt lat="44.865799961417146" lon="3.24123819660887"><ele>987.0</ele><time>2026-04-05T09:50:39.999Z</time></trkpt><trkpt lat="44.8658495383373" lon="3.2413782382507232"><ele>987.0</ele><time>2026-04-05T09:50:40.999Z</time></trkpt><trkpt lat="44.86592845960186" lon="3.241508542450218"><ele>987.0</ele><time>2026-04-05T09:50:41.999Z</time></trkpt><trkpt lat="44.86603521640994" lon="3.2416241172120834"><ele>989.25</ele><time>2026-04-05T09:50:42.999Z</time></trkpt><trkpt lat="44.86612474848797" lon="3.241777120352889"><ele>991.5</ele><time>2026-04-05T09:50:43.999Z</time></trkpt><trkpt lat="44.866206836238746" lon="3.241913066394879"><ele>993.75</ele><time>2026-04-05T09:50:44.999Z</time></trkpt><trkpt lat="44.866303174333986" lon="3.242035542987974"><ele>996.0</ele><time>2026-04-05T09:50:45.999Z</time></trkpt><trkpt lat="44.86638707270385" lon="3.2421396670099423"><ele>996.0</ele><time>2026-04-05T09:50:46.999Z</time></trkpt><trkpt lat="44.86646646685877" lon="3.242262618773419"><ele>995.9999999999999</ele><time>2026-04-05T09:50:47.999Z</time></trkpt><trkpt lat="44.86651631787152" lon="3.2423937555684597"><ele>995.9999999999999</ele><time>2026-04-05T09:50:48.999Z</time></trkpt><trkpt lat="44.8665370226719" lon="3.2425330394120198"><ele>996.0</ele><time>2026-04-05T09:50:49.999Z</time></trkpt><trkpt lat="44.866534559529605" lon="3.242647463691497"><ele>996.0</ele><time>2026-04-05T09:50:50.999Z</time></trkpt><trkpt lat="44.866533404357114" lon="3.2427679504621736"><ele>998.5999999999999</ele><time>2026-04-05T09:50:51.999Z</time></trkpt><trkpt lat="44.86656770193296" lon="3.24284805163588"><ele>1001.1999999999999</ele><time>2026-04-05T09:50:53.999Z</time></trkpt><trkpt lat="44.86660668691335" lon="3.243033005190022"><ele>1003.8000000000001</ele><time>2026-04-05T09:51:13Z</time></trkpt><trkpt lat="44.86663893748247" lon="3.243132075749179"><ele>1006.4000000000001</ele><time>2026-04-05T09:51:14Z</time></trkpt><trkpt lat="44.86668581154712" lon="3.243267832543624"><ele>1009.0</ele><time>2026-04-05T09:51:15Z</time></trkpt><trkpt lat="44.86675540847754" lon="3.2434516578239045"><ele>1009.75</ele><time>2026-04-05T09:51:16Z</time></trkpt><trkpt lat="44.86682027680148" lon="3.2436361586913645"><ele>1010.5</ele><time>2026-04-05T09:51:17Z</time></trkpt><trkpt lat="44.8668859973997" lon="3.2438028277889512"><ele>1011.25</ele><time>2026-04-05T09:51:18Z</time></trkpt><trkpt lat="44.86694580625275" lon="3.243950306218508"><ele>1012.0</ele><time>2026-04-05T09:51:19Z</time></trkpt><trkpt lat="44.86700195279437" lon="3.2440692351741354"><ele>1014.5</ele><time>2026-04-05T09:51:20Z</time></trkpt><trkpt lat="44.8670605555979" lon="3.2441927162557973"><ele>1017.0</ele><time>2026-04-05T09:51:21Z</time></trkpt><trkpt lat="44.86712120507641" lon="3.24433233293325"><ele>1019.5</ele><time>2026-04-05T09:51:22Z</time></trkpt><trkpt lat="44.8671901217671" lon="3.244480164993649"><ele>1022.0</ele><time>2026-04-05T09:51:23Z</time></trkpt><trkpt lat="44.86727289911045" lon="3.244635012280167"><ele>1022.0</ele><time>2026-04-05T09:51:24Z</time></trkpt><trkpt lat="44.867351954871324" lon="3.244791688254344"><ele>1022.0</ele><time>2026-04-05T09:51:25Z</time></trkpt><trkpt lat="44.867426866575165" lon="3.244922735297965"><ele>1022.0</ele><time>2026-04-05T09:51:26Z</time></trkpt><trkpt lat="44.86748887366205" lon="3.245020334551508"><ele>1022.0</ele><time>2026-04-05T09:51:27Z</time></trkpt><trkpt lat="44.867558757697154" lon="3.245113777928037"><ele>1022.0</ele><time>2026-04-05T09:51:28Z</time></trkpt><trkpt lat="44.867663305347925" lon="3.2452626937856106"><ele>1025.2</ele><time>2026-04-05T09:51:29Z</time></trkpt><trkpt lat="44.86775113444923" lon="3.2453946741408783"><ele>1028.4</ele><time>2026-04-05T09:51:30Z</time></trkpt><trkpt lat="44.86781302469818" lon="3.245492330298735"><ele>1031.6</ele><time>2026-04-05T09:51:31Z</time></trkpt><trkpt lat="44.86787605927265" lon="3.2455890423211846"><ele>1034.8</ele><time>2026-04-05T09:51:32Z</time></trkpt><trkpt lat="44.86793173032613" lon="3.2456981235064135"><ele>1038.0</ele><time>2026-04-05T09:51:33Z</time></trkpt><trkpt lat="44.86798334555514" lon="3.2458020993944325"><ele>1039.6</ele><time>2026-04-05T09:51:34Z</time></trkpt><trkpt lat="44.868054998828406" lon="3.245905241792634"><ele>1041.1999999999998</ele><time>2026-04-05T09:51:35Z</time></trkpt><trkpt lat="44.868147738095644" lon="3.246004617188722"><ele>1042.8</ele><time>2026-04-05T09:51:36Z</time></trkpt><trkpt lat="44.868217170188615" lon="3.246096497910095"><ele>1044.3999999999999</ele><time>2026-04-05T09:51:37Z</time></trkpt><trkpt lat="44.86826774972014" lon="3.246164445241973"><ele>1046.0</ele><time>2026-04-05T09:51:38Z</time></trkpt><trkpt lat="44.86821478632399" lon="3.246249720643049"><ele>1046.0</ele><time>2026-04-05T09:51:40Z</time></trkpt><trkpt lat="44.86814168273447" lon="3.2463834023772824"><ele>1046.0</ele><time>2026-04-05T09:51:42Z</time></trkpt><trkpt lat="44.86812678116421" lon="3.246480925634172"><ele>1046.0</ele><time>2026-04-05T09:51:43Z</time></trkpt><trkpt lat="44.86814009772511" lon="3.246671837143438"><ele>1046.0</ele><time>2026-04-05T09:51:45Z</time></trkpt><trkpt lat="44.86815859438575" lon="3.246799189929994"><ele>1046.0</ele><time>2026-04-05T09:51:46Z</time></trkpt><trkpt lat="44.868162750199836" lon="3.246922540224795"><ele>1047.0</ele><time>2026-04-05T09:51:47Z</time></trkpt><trkpt lat="44.86812844200493" lon="3.2470197422868643"><ele>1048.0</ele><time>2026-04-05T09:51:48Z</time></trkpt><trkpt lat="44.86808063227786" lon="3.2470810593632256"><ele>1049.0</ele><time>2026-04-05T09:51:49Z</time></trkpt><trkpt lat="44.86808057846836" lon="3.247175351652603"><ele>1050.0</ele><time>2026-04-05T09:51:51Z</time></trkpt><trkpt lat="44.868180950013446" lon="3.2472500465695333"><ele>1051.0</ele><time>2026-04-05T09:51:52.999Z</time></trkpt><trkpt lat="44.868240527663765" lon="3.247359262443944"><ele>1052.0</ele><time>2026-04-05T09:51:54.999Z</time></trkpt><trkpt lat="44.86829716362923" lon="3.2472940946947606"><ele>1052.0</ele><time>2026-04-05T09:51:57.999Z</time></trkpt><trkpt lat="44.86831970613954" lon="3.24713541147846"><ele>1052.0</ele><time>2026-04-05T09:51:59.999Z</time></trkpt><trkpt lat="44.86835851721893" lon="3.246975515037333"><ele>1052.0</ele><time>2026-04-05T09:52:01.999Z</time></trkpt><trkpt lat="44.86844446506278" lon="3.2468524474080906"><ele>1052.0</ele><time>2026-04-05T09:52:03.999Z</time></trkpt><trkpt lat="44.868508321974645" lon="3.2467979852255295"><ele>1052.0</ele><time>2026-04-05T09:52:04.999Z</time></trkpt><trkpt lat="44.868572286982506" lon="3.2467338982444005"><ele>1053.0</ele><time>2026-04-05T09:52:05.999Z</time></trkpt><trkpt lat="44.86863914192338" lon="3.246644462250977"><ele>1054.0</ele><time>2026-04-05T09:52:06.999Z</time></trkpt><trkpt lat="44.86871328538417" lon="3.246494219419997"><ele>1055.0</ele><time>2026-04-05T09:52:07.999Z</time></trkpt><trkpt lat="44.86877553314201" lon="3.246376829941429"><ele>1056.0</ele><time>2026-04-05T09:52:08.999Z</time></trkpt><trkpt lat="44.86883309816393" lon="3.2463034238186634"><ele>1057.0</ele><time>2026-04-05T09:52:09.999Z</time></trkpt><trkpt lat="44.868945533193966" lon="3.2462723731051004"><ele>1057.0</ele><time>2026-04-05T09:52:10.999Z</time></trkpt><trkpt lat="44.86906839706069" lon="3.246238396984255"><ele>1057.0</ele><time>2026-04-05T09:52:11.999Z</time></trkpt><trkpt lat="44.869191896034074" lon="3.2462128029307142"><ele>1057.0</ele><time>2026-04-05T09:52:12.999Z</time></trkpt><trkpt lat="44.869321512778896" lon="3.2461925958795264"><ele>1057.0</ele><time>2026-04-05T09:52:13.999Z</time></trkpt><trkpt lat="44.86944931019099" lon="3.2461592219871456"><ele>1060.75</ele><time>2026-04-05T09:52:14.999Z</time></trkpt><trkpt lat="44.86957920900386" lon="3.2461004000292033"><ele>1064.5</ele><time>2026-04-05T09:52:15.999Z</time></trkpt><trkpt lat="44.86971409238269" lon="3.246035803278995"><ele>1068.25</ele><time>2026-04-05T09:52:16.999Z</time></trkpt><trkpt lat="44.86984798598547" lon="3.2459847677845057"><ele>1072.0</ele><time>2026-04-05T09:52:17.999Z</time></trkpt><trkpt lat="44.869970055286416" lon="3.2459298605950986"><ele>1072.0</ele><time>2026-04-05T09:52:18.999Z</time></trkpt><trkpt lat="44.870078575564996" lon="3.2458912718801862"><ele>1072.0</ele><time>2026-04-05T09:52:19.999Z</time></trkpt><trkpt lat="44.870175057742685" lon="3.2458571157662095"><ele>1072.0</ele><time>2026-04-05T09:52:20.999Z</time></trkpt><trkpt lat="44.870273138986825" lon="3.245830229081423"><ele>1072.0</ele><time>2026-04-05T09:52:21.999Z</time></trkpt><trkpt lat="44.870360078840044" lon="3.245786613234367"><ele>1072.0</ele><time>2026-04-05T09:52:22.999Z</time></trkpt><trkpt lat="44.8704272824222" lon="3.2457647796972156"><ele>1072.4</ele><time>2026-04-05T09:52:23.999Z</time></trkpt><trkpt lat="44.87055934097779" lon="3.245727964486786"><ele>1072.8000000000002</ele><time>2026-04-05T09:52:25.999Z</time></trkpt><trkpt lat="44.870650288617746" lon="3.2457262677913317"><ele>1073.2</ele><time>2026-04-05T09:52:26.999Z</time></trkpt><trkpt lat="44.87074030338556" lon="3.245762855297636"><ele>1073.6000000000001</ele><time>2026-04-05T09:52:27.999Z</time></trkpt><trkpt lat="44.87081758142032" lon="3.2458638942033313"><ele>1074.0</ele><time>2026-04-05T09:52:28.999Z</time></trkpt><trkpt lat="44.870913946151255" lon="3.2459506141926973"><ele>1073.75</ele><time>2026-04-05T09:52:29.999Z</time></trkpt><trkpt lat="44.87101973477382" lon="3.2460370021702114"><ele>1073.5</ele><time>2026-04-05T09:52:30.999Z</time></trkpt><trkpt lat="44.871133150679825" lon="3.2461315173859906"><ele>1073.25</ele><time>2026-04-05T09:52:31.999Z</time></trkpt><trkpt lat="44.87124136296435" lon="3.246235121765998"><ele>1073.0</ele><time>2026-04-05T09:52:32.999Z</time></trkpt><trkpt lat="44.87135504024629" lon="3.2463252281568122"><ele>1073.0</ele><time>2026-04-05T09:52:33.999Z</time></trkpt><trkpt lat="44.87145804769233" lon="3.2464233301123646"><ele>1073.0</ele><time>2026-04-05T09:52:34.999Z</time></trkpt><trkpt lat="44.87156131636116" lon="3.246494881727002"><ele>1073.0</ele><time>2026-04-05T09:52:35.999Z</time></trkpt><trkpt lat="44.871643492668426" lon="3.246564046050168"><ele>1073.0</ele><time>2026-04-05T09:52:36.999Z</time></trkpt><trkpt lat="44.871706070866054" lon="3.2466589517815394"><ele>1073.0</ele><time>2026-04-05T09:52:37.999Z</time></trkpt><trkpt lat="44.87176988668662" lon="3.246730523113471"><ele>1072.3333333333335</ele><time>2026-04-05T09:52:38.999Z</time></trkpt><trkpt lat="44.871835501551416" lon="3.24680727068103"><ele>1071.6666666666667</ele><time>2026-04-05T09:52:39.999Z</time></trkpt><trkpt lat="44.871887936210776" lon="3.2468717913175946"><ele>1071.0</ele><time>2026-04-05T09:52:40.999Z</time></trkpt><trkpt lat="44.87193636249725" lon="3.2469291613198425"><ele>1070.3333333333333</ele><time>2026-04-05T09:52:41.999Z</time></trkpt><trkpt lat="44.87197497488482" lon="3.2470013062697864"><ele>1069.6666666666665</ele><time>2026-04-05T09:52:42.999Z</time></trkpt><trkpt lat="44.87206659934872" lon="3.2470870796455285"><ele>1069.0</ele><time>2026-04-05T09:52:44.999Z</time></trkpt><trkpt lat="44.87213481950374" lon="3.247160330282472"><ele>1069.0</ele><time>2026-04-05T09:52:46.999Z</time></trkpt><trkpt lat="44.87218605104565" lon="3.2472122772334067"><ele>1069.0</ele><time>2026-04-05T09:52:49.999Z</time></trkpt><trkpt lat="44.87222954438535" lon="3.247292298346308"><ele>1069.0</ele><time>2026-04-05T09:54:01.999Z</time></trkpt><trkpt lat="44.87221400024775" lon="3.2473836977434716"><ele>1069.0</ele><time>2026-04-05T09:54:04.999Z</time></trkpt><trkpt lat="44.87231673585712" lon="3.2475101356503884"><ele>1069.0</ele><time>2026-04-05T09:54:07.999Z</time></trkpt><trkpt lat="44.872431693195296" lon="3.2475608832343035"><ele>1068.7142857142858</ele><time>2026-04-05T09:54:09.999Z</time></trkpt><trkpt lat="44.872498920674055" lon="3.2475702745375"><ele>1068.4285714285716</ele><time>2026-04-05T09:54:10.999Z</time></trkpt><trkpt lat="44.87257900524981" lon="3.247581017902732"><ele>1068.142857142857</ele><time>2026-04-05T09:54:11.999Z</time></trkpt><trkpt lat="44.87266150256088" lon="3.247607795590893"><ele>1067.857142857143</ele><time>2026-04-05T09:54:12.999Z</time></trkpt><trkpt lat="44.87272689910819" lon="3.247657076002784"><ele>1067.5714285714284</ele><time>2026-04-05T09:54:13.999Z</time></trkpt><trkpt lat="44.872768559016876" lon="3.2477338363668147"><ele>1067.2857142857142</ele><time>2026-04-05T09:54:14.999Z</time></trkpt><trkpt lat="44.8727724451825" lon="3.2478233859750514"><ele>1067.0</ele><time>2026-04-05T09:54:15.999Z</time></trkpt><trkpt lat="44.8727397997837" lon="3.2479736740145557"><ele>1067.0</ele><time>2026-04-05T09:54:17.999Z</time></trkpt><trkpt lat="44.872691417329214" lon="3.2480394501382626"><ele>1067.0</ele><time>2026-04-05T09:54:18.999Z</time></trkpt><trkpt lat="44.87266046097672" lon="3.2482018150740846"><ele>1067.0</ele><time>2026-04-05T09:54:20.999Z</time></trkpt><trkpt lat="44.87257372753136" lon="3.248295617869506"><ele>1067.0</ele><time>2026-04-05T09:54:22.999Z</time></trkpt><trkpt lat="44.872459179706894" lon="3.24835491343625"><ele>1067.0</ele><time>2026-04-05T09:54:24.999Z</time></trkpt><trkpt lat="44.8723478744791" lon="3.2484153728649994"><ele>1068.0</ele><time>2026-04-05T09:54:26.999Z</time></trkpt><trkpt lat="44.87225352126077" lon="3.2484600980024925"><ele>1069.0</ele><time>2026-04-05T09:54:28.999Z</time></trkpt><trkpt lat="44.87218684772674" lon="3.248470290036933"><ele>1070.0</ele><time>2026-04-05T09:54:32.999Z</time></trkpt><trkpt lat="44.872303710069495" lon="3.2484294022914564"><ele>1071.0</ele><time>2026-04-05T09:59:11.998Z</time></trkpt><trkpt lat="44.87219987644079" lon="3.24846647441853"><ele>1072.0</ele><time>2026-04-05T10:00:18.999Z</time></trkpt><trkpt lat="44.87231614732755" lon="3.2484284635881067"><ele>1072.0</ele><time>2026-04-05T10:01:19.999Z</time></trkpt><trkpt lat="44.87219443920604" lon="3.248477971275133"><ele>1072.0</ele><time>2026-04-05T10:01:54Z</time></trkpt><trkpt lat="44.87232035881705" lon="3.2484484912219416"><ele>1072.0</ele><time>2026-04-05T10:02:12Z</time></trkpt><trkpt lat="44.87218787257268" lon="3.2484821960269823"><ele>1072.0</ele><time>2026-04-05T10:04:03Z</time></trkpt><trkpt lat="44.872315123479396" lon="3.2484235948651623"><ele>1072.0</ele><time>2026-04-05T10:04:17Z</time></trkpt><trkpt lat="44.87218801425328" lon="3.2484794386581757"><ele>1072.0</ele><time>2026-04-05T10:04:25Z</time></trkpt><trkpt lat="44.87210513130274" lon="3.248501713696238"><ele>1072.0</ele><time>2026-04-05T10:04:29Z</time></trkpt><trkpt lat="44.87203985862068" lon="3.2484835384797033"><ele>1072.0</ele><time>2026-04-05T10:04:31Z</time></trkpt><trkpt lat="44.87205604516457" lon="3.248356742361345"><ele>1072.0</ele><time>2026-04-05T10:04:33Z</time></trkpt><trkpt lat="44.8721025940548" lon="3.2482731446261996"><ele>1072.0</ele><time>2026-04-05T10:04:36Z</time></trkpt><trkpt lat="44.87216561232701" lon="3.2482539367130925"><ele>1072.0</ele><time>2026-04-05T10:04:37Z</time></trkpt><trkpt lat="44.87226043696643" lon="3.248216348156642"><ele>1072.0</ele><time>2026-04-05T10:04:38Z</time></trkpt><trkpt lat="44.87234881778274" lon="3.248184721578131"><ele>1072.0</ele><time>2026-04-05T10:04:39Z</time></trkpt><trkpt lat="44.87243437174844" lon="3.2481616047268256"><ele>1072.0</ele><time>2026-04-05T10:04:40Z</time></trkpt><trkpt lat="44.87253603220414" lon="3.2481411463205827"><ele>1072.0</ele><time>2026-04-05T10:04:41Z</time></trkpt><trkpt lat="44.87261994491238" lon="3.2481094597368556"><ele>1072.2</ele><time>2026-04-05T10:04:42Z</time></trkpt><trkpt lat="44.87270395487574" lon="3.2479872456329804"><ele>1072.4</ele><time>2026-04-05T10:04:44Z</time></trkpt><trkpt lat="44.87272072928328" lon="3.2478527485109856"><ele>1072.6</ele><time>2026-04-05T10:04:46Z</time></trkpt><trkpt lat="44.87269918356133" lon="3.2477247532383258"><ele>1072.8</ele><time>2026-04-05T10:04:48Z</time></trkpt><trkpt lat="44.872635750316995" lon="3.247619497675889"><ele>1073.0</ele><time>2026-04-05T10:04:50Z</time></trkpt><trkpt lat="44.87252868250484" lon="3.247546059831538"><ele>1073.0</ele><time>2026-04-05T10:04:52Z</time></trkpt><trkpt lat="44.87245296615376" lon="3.247505189795558"><ele>1073.0</ele><time>2026-04-05T10:04:53Z</time></trkpt><trkpt lat="44.87235958109733" lon="3.247472074313165"><ele>1073.0</ele><time>2026-04-05T10:04:54Z</time></trkpt><trkpt lat="44.872279524050015" lon="3.24744242619231"><ele>1073.0</ele><time>2026-04-05T10:04:55Z</time></trkpt><trkpt lat="44.87220615328452" lon="3.2473591763842142"><ele>1073.0</ele><time>2026-04-05T10:04:57Z</time></trkpt><trkpt lat="44.872299126634076" lon="3.2472307936939204"><ele>1072.0</ele><time>2026-04-05T10:04:59Z</time></trkpt><trkpt lat="44.87239608302125" lon="3.247207276114551"><ele>1071.0</ele><time>2026-04-05T10:05:00Z</time></trkpt><trkpt lat="44.87252836248254" lon="3.2472310046992257"><ele>1070.0</ele><time>2026-04-05T10:05:01Z</time></trkpt><trkpt lat="44.872704323577544" lon="3.2472819747038306"><ele>1069.0</ele><time>2026-04-05T10:05:02Z</time></trkpt><trkpt lat="44.87287005891008" lon="3.2473608333138095"><ele>1068.5</ele><time>2026-04-05T10:05:02.999Z</time></trkpt><trkpt lat="44.87299292779396" lon="3.2474788107495"><ele>1068.0</ele><time>2026-04-05T10:05:03.999Z</time></trkpt><trkpt lat="44.87308561851088" lon="3.2475902204612215"><ele>1067.5</ele><time>2026-04-05T10:05:04.999Z</time></trkpt><trkpt lat="44.87318969931733" lon="3.247643865857444"><ele>1067.0</ele><time>2026-04-05T10:05:05.999Z</time></trkpt><trkpt lat="44.87330335578251" lon="3.2476263270122487"><ele>1067.0</ele><time>2026-04-05T10:05:06.999Z</time></trkpt><trkpt lat="44.87342420610794" lon="3.247563433483604"><ele>1067.0</ele><time>2026-04-05T10:05:07.999Z</time></trkpt><trkpt lat="44.873551432246096" lon="3.2474691210187134"><ele>1067.0</ele><time>2026-04-05T10:05:08.999Z</time></trkpt><trkpt lat="44.8736832262407" lon="3.247362410248957"><ele>1067.0</ele><time>2026-04-05T10:05:09.999Z</time></trkpt><trkpt lat="44.87380887659633" lon="3.247249458241885"><ele>1067.25</ele><time>2026-04-05T10:05:10.999Z</time></trkpt><trkpt lat="44.8739167841586" lon="3.247116264218471"><ele>1067.5</ele><time>2026-04-05T10:05:11.999Z</time></trkpt><trkpt lat="44.874015412386385" lon="3.246972366012039"><ele>1067.75</ele><time>2026-04-05T10:05:12.999Z</time></trkpt><trkpt lat="44.87411347734" lon="3.246859102720558"><ele>1068.0</ele><time>2026-04-05T10:05:13.999Z</time></trkpt><trkpt lat="44.8741849599198" lon="3.2467498698996464"><ele>1068.0</ele><time>2026-04-05T10:05:14.999Z</time></trkpt><trkpt lat="44.874273688648074" lon="3.2467053113649373"><ele>1068.0</ele><time>2026-04-05T10:05:15.999Z</time></trkpt><trkpt lat="44.87437558534394" lon="3.246686150126121"><ele>1068.0</ele><time>2026-04-05T10:05:16.999Z</time></trkpt><trkpt lat="44.87448765809689" lon="3.246673181972163"><ele>1068.0</ele><time>2026-04-05T10:05:17.999Z</time></trkpt><trkpt lat="44.874604550417" lon="3.246649256353034"><ele>1068.0</ele><time>2026-04-05T10:05:18.999Z</time></trkpt><trkpt lat="44.87473050900588" lon="3.246617323502022"><ele>1068.0</ele><time>2026-04-05T10:05:19.999Z</time></trkpt><trkpt lat="44.874866217489895" lon="3.246589704349855"><ele>1068.0</ele><time>2026-04-05T10:05:20.999Z</time></trkpt><trkpt lat="44.87500042037413" lon="3.246557549734608"><ele>1068.0</ele><time>2026-04-05T10:05:21.999Z</time></trkpt><trkpt lat="44.87512404378685" lon="3.2465298161382927"><ele>1068.0</ele><time>2026-04-05T10:05:22.999Z</time></trkpt><trkpt lat="44.87523462692231" lon="3.2464999987968084"><ele>1067.2</ele><time>2026-04-05T10:05:23.999Z</time></trkpt><trkpt lat="44.87534127164173" lon="3.246477160112981"><ele>1066.4</ele><time>2026-04-05T10:05:24.999Z</time></trkpt><trkpt lat="44.87544790415925" lon="3.2464648039235544"><ele>1065.6000000000001</ele><time>2026-04-05T10:05:25.999Z</time></trkpt><trkpt lat="44.875561445223575" lon="3.246460476686535"><ele>1064.8</ele><time>2026-04-05T10:05:26.999Z</time></trkpt><trkpt lat="44.87567652158422" lon="3.246480848918994"><ele>1064.0</ele><time>2026-04-05T10:05:27.999Z</time></trkpt><trkpt lat="44.87578099640172" lon="3.246519865254811"><ele>1064.0</ele><time>2026-04-05T10:05:28.999Z</time></trkpt><trkpt lat="44.87588347521887" lon="3.246574881125511"><ele>1064.0</ele><time>2026-04-05T10:05:29.999Z</time></trkpt><trkpt lat="44.875976960007705" lon="3.2466478933970366"><ele>1064.0</ele><time>2026-04-05T10:05:30.999Z</time></trkpt><trkpt lat="44.87604647574645" lon="3.2467636642790887"><ele>1064.0</ele><time>2026-04-05T10:05:31.999Z</time></trkpt><trkpt lat="44.87613043836863" lon="3.2468370703955753"><ele>1064.0</ele><time>2026-04-05T10:05:32.999Z</time></trkpt><trkpt lat="44.87620029289514" lon="3.246922842611597"><ele>1063.8333333333335</ele><time>2026-04-05T10:05:33.999Z</time></trkpt><trkpt lat="44.876273069147096" lon="3.2470103591518207"><ele>1063.6666666666667</ele><time>2026-04-05T10:05:34.999Z</time></trkpt><trkpt lat="44.87633088642352" lon="3.2470666751411676"><ele>1063.5</ele><time>2026-04-05T10:05:35.999Z</time></trkpt><trkpt lat="44.87640536129397" lon="3.247045092270793"><ele>1063.3333333333333</ele><time>2026-04-05T10:05:36.999Z</time></trkpt><trkpt lat="44.87647666546523" lon="3.246963464040299"><ele>1063.1666666666665</ele><time>2026-04-05T10:05:37.999Z</time></trkpt><trkpt lat="44.87654096732035" lon="3.246849300729375"><ele>1063.0</ele><time>2026-04-05T10:05:38.999Z</time></trkpt><trkpt lat="44.876616178148225" lon="3.2467369351454103"><ele>1063.0</ele><time>2026-04-05T10:05:39.999Z</time></trkpt><trkpt lat="44.876698300234416" lon="3.246647585278828"><ele>1063.0</ele><time>2026-04-05T10:05:40.999Z</time></trkpt><trkpt lat="44.87679465845267" lon="3.246572938986262"><ele>1063.0</ele><time>2026-04-05T10:05:41.999Z</time></trkpt><trkpt lat="44.876907728470734" lon="3.246546398745136"><ele>1063.0</ele><time>2026-04-05T10:05:42.999Z</time></trkpt><trkpt lat="44.877021825427796" lon="3.246559292960762"><ele>1063.0</ele><time>2026-04-05T10:05:43.999Z</time></trkpt><trkpt lat="44.877132411076865" lon="3.2465833515874043"><ele>1063.0</ele><time>2026-04-05T10:05:44.999Z</time></trkpt><trkpt lat="44.877240281295876" lon="3.246609234973312"><ele>1063.0</ele><time>2026-04-05T10:05:45.999Z</time></trkpt><trkpt lat="44.87735264271121" lon="3.2466382370439772"><ele>1063.0</ele><time>2026-04-05T10:05:46.999Z</time></trkpt><trkpt lat="44.8774632053112" lon="3.2466704310687757"><ele>1063.0</ele><time>2026-04-05T10:05:47.999Z</time></trkpt><trkpt lat="44.877572863912576" lon="3.246705465671875"><ele>1063.0</ele><time>2026-04-05T10:05:48.999Z</time></trkpt><trkpt lat="44.87768519016299" lon="3.2467415806215363"><ele>1063.0</ele><time>2026-04-05T10:05:49.999Z</time></trkpt><trkpt lat="44.87779913797232" lon="3.2467752128116447"><ele>1063.0</ele><time>2026-04-05T10:05:51Z</time></trkpt><trkpt lat="44.87791516755695" lon="3.246806450686391"><ele>1063.0</ele><time>2026-04-05T10:05:52Z</time></trkpt><trkpt lat="44.878018734784035" lon="3.2468402456095276"><ele>1063.0</ele><time>2026-04-05T10:05:53Z</time></trkpt><trkpt lat="44.8781071557846" lon="3.2468787705234727"><ele>1063.0</ele><time>2026-04-05T10:05:54Z</time></trkpt><trkpt lat="44.87818226229332" lon="3.246911175947116"><ele>1063.0</ele><time>2026-04-05T10:05:55Z</time></trkpt><trkpt lat="44.87825003433548" lon="3.246937735066181"><ele>1063.0</ele><time>2026-04-05T10:05:56Z</time></trkpt><trkpt lat="44.87831433148336" lon="3.2469604300624875"><ele>1063.0</ele><time>2026-04-05T10:05:57Z</time></trkpt><trkpt lat="44.8784289993657" lon="3.24700146098436"><ele>1063.0</ele><time>2026-04-05T10:05:59Z</time></trkpt><trkpt lat="44.8785263881908" lon="3.2470610857698277"><ele>1063.0</ele><time>2026-04-05T10:06:01Z</time></trkpt><trkpt lat="44.87860366518049" lon="3.2471680599976196"><ele>1063.0</ele><time>2026-04-05T10:06:03Z</time></trkpt><trkpt lat="44.87864227458808" lon="3.24728911456915"><ele>1063.0</ele><time>2026-04-05T10:06:05Z</time></trkpt><trkpt lat="44.878638584203884" lon="3.2474104415957368"><ele>1063.0</ele><time>2026-04-05T10:06:07Z</time></trkpt><trkpt lat="44.878529091678615" lon="3.2474469084361717"><ele>1063.0</ele><time>2026-04-05T10:06:09Z</time></trkpt><trkpt lat="44.87845122230906" lon="3.247465965124311"><ele>1063.0</ele><time>2026-04-05T10:06:10Z</time></trkpt><trkpt lat="44.87836893383558" lon="3.247498234690921"><ele>1063.0</ele><time>2026-04-05T10:06:11Z</time></trkpt><trkpt lat="44.87827709748727" lon="3.247533584872275"><ele>1063.0</ele><time>2026-04-05T10:06:12Z</time></trkpt><trkpt lat="44.87818181190905" lon="3.2475684436313275"><ele>1063.0</ele><time>2026-04-05T10:06:13Z</time></trkpt><trkpt lat="44.87808632559993" lon="3.24759900213845"><ele>1063.0</ele><time>2026-04-05T10:06:14Z</time></trkpt><trkpt lat="44.87799032063971" lon="3.247635197736419"><ele>1063.0</ele><time>2026-04-05T10:06:15Z</time></trkpt><trkpt lat="44.877899176971574" lon="3.247675397696368"><ele>1063.0</ele><time>2026-04-05T10:06:16Z</time></trkpt><trkpt lat="44.87782367417002" lon="3.2477059272320257"><ele>1063.0</ele><time>2026-04-05T10:06:17Z</time></trkpt><trkpt lat="44.877756313201445" lon="3.2477264421241934"><ele>1063.0</ele><time>2026-04-05T10:06:18Z</time></trkpt><trkpt lat="44.87769009999873" lon="3.247749317754341"><ele>1063.0</ele><time>2026-04-05T10:06:19Z</time></trkpt><trkpt lat="44.87762943743736" lon="3.247777094299563"><ele>1063.0</ele><time>2026-04-05T10:06:20Z</time></trkpt><trkpt lat="44.8775653124088" lon="3.2478092643763827"><ele>1063.0</ele><time>2026-04-05T10:06:21Z</time></trkpt><trkpt lat="44.87745544073573" lon="3.2478344858283767"><ele>1062.4</ele><time>2026-04-05T10:06:23Z</time></trkpt><trkpt lat="44.87736762370056" lon="3.247864123521864"><ele>1061.8</ele><time>2026-04-05T10:06:25Z</time></trkpt><trkpt lat="44.87732403099202" lon="3.247954489797022"><ele>1061.2</ele><time>2026-04-05T10:06:27Z</time></trkpt><trkpt lat="44.87736900801113" lon="3.247877048643333"><ele>1060.6</ele><time>2026-04-05T10:06:29Z</time></trkpt><trkpt lat="44.87732856354421" lon="3.2479691828499195"><ele>1060.0</ele><time>2026-04-05T10:06:31Z</time></trkpt><trkpt lat="44.877506210782286" lon="3.247862210818998"><ele>1060.6</ele><time>2026-04-05T10:06:32Z</time></trkpt><trkpt lat="44.87764752649814" lon="3.247819084243945"><ele>1061.2</ele><time>2026-04-05T10:06:34Z</time></trkpt><trkpt lat="44.8777342099665" lon="3.247786904311147"><ele>1061.8</ele><time>2026-04-05T10:06:35Z</time></trkpt><trkpt lat="44.877820706727356" lon="3.2477538857728443"><ele>1062.4</ele><time>2026-04-05T10:06:36Z</time></trkpt><trkpt lat="44.87788666851761" lon="3.247726203770059"><ele>1063.0</ele><time>2026-04-05T10:06:37Z</time></trkpt><trkpt lat="44.87797776551688" lon="3.24770765587402"><ele>1063.0</ele><time>2026-04-05T10:06:39Z</time></trkpt><trkpt lat="44.87801646198037" lon="3.24783038592509"><ele>1063.0</ele><time>2026-04-05T10:06:41Z</time></trkpt><trkpt lat="44.878017480555236" lon="3.2479257496442586"><ele>1063.0</ele><time>2026-04-05T10:06:42Z</time></trkpt><trkpt lat="44.87800630080117" lon="3.2480256096310107"><ele>1063.0</ele><time>2026-04-05T10:06:43Z</time></trkpt><trkpt lat="44.87797655531099" lon="3.2481140152543304"><ele>1063.0</ele><time>2026-04-05T10:06:44Z</time></trkpt><trkpt lat="44.87792879521141" lon="3.2481803523872044"><ele>1063.0</ele><time>2026-04-05T10:06:45Z</time></trkpt><trkpt lat="44.87783696851575" lon="3.2482940385145866"><ele>1062.6666666666665</ele><time>2026-04-05T10:06:47Z</time></trkpt><trkpt lat="44.87782511074427" lon="3.248387292733577"><ele>1062.3333333333333</ele><time>2026-04-05T10:06:48Z</time></trkpt><trkpt lat="44.87784216891846" lon="3.2485007218376167"><ele>1062.0</ele><time>2026-04-05T10:06:49Z</time></trkpt><trkpt lat="44.87787775335769" lon="3.2486272355343515"><ele>1061.6666666666667</ele><time>2026-04-05T10:06:50Z</time></trkpt><trkpt lat="44.877914100053" lon="3.2487434158187063"><ele>1061.3333333333335</ele><time>2026-04-05T10:06:51Z</time></trkpt><trkpt lat="44.87793839394282" lon="3.248853624885479"><ele>1061.0</ele><time>2026-04-05T10:06:52Z</time></trkpt><trkpt lat="44.877958363061815" lon="3.248958681936427"><ele>1060.5</ele><time>2026-04-05T10:06:53Z</time></trkpt><trkpt lat="44.8779751579342" lon="3.2490684641422773"><ele>1060.0</ele><time>2026-04-05T10:06:54Z</time></trkpt><trkpt lat="44.87798422159961" lon="3.249176460422121"><ele>1059.5</ele><time>2026-04-05T10:06:55Z</time></trkpt><trkpt lat="44.877995219716574" lon="3.2492837131590107"><ele>1059.0</ele><time>2026-04-05T10:06:56Z</time></trkpt><trkpt lat="44.87803276934317" lon="3.2493929538386994"><ele>1058.5</ele><time>2026-04-05T10:06:57Z</time></trkpt><trkpt lat="44.87809775130888" lon="3.2494963787773297"><ele>1058.0</ele><time>2026-04-05T10:06:58Z</time></trkpt><trkpt lat="44.8781410693391" lon="3.2496072151042688"><ele>1058.0</ele><time>2026-04-05T10:06:59Z</time></trkpt><trkpt lat="44.87815407167837" lon="3.249711428242342"><ele>1058.0</ele><time>2026-04-05T10:07:00Z</time></trkpt><trkpt lat="44.878169073927246" lon="3.249798364870239"><ele>1058.0</ele><time>2026-04-05T10:07:01Z</time></trkpt><trkpt lat="44.87819853390468" lon="3.249936981659437"><ele>1058.0</ele><time>2026-04-05T10:07:03Z</time></trkpt><trkpt lat="44.87822387063951" lon="3.2500497896889984"><ele>1058.0</ele><time>2026-04-05T10:07:04.999Z</time></trkpt><trkpt lat="44.878232728873044" lon="3.2501586548423296"><ele>1058.0</ele><time>2026-04-05T10:07:06.999Z</time></trkpt><trkpt lat="44.87827101179073" lon="3.2502439836993102"><ele>1058.0</ele><time>2026-04-05T10:07:10.999Z</time></trkpt><trkpt lat="44.87825520150368" lon="3.2501253048467404"><ele>1058.0</ele><time>2026-04-05T10:07:12.999Z</time></trkpt><trkpt lat="44.87824104840614" lon="3.2500328506292013"><ele>1058.0</ele><time>2026-04-05T10:07:14.999Z</time></trkpt><trkpt lat="44.878197528480676" lon="3.2498698169297535"><ele>1058.0</ele><time>2026-04-05T10:07:16.999Z</time></trkpt><trkpt lat="44.87817829279276" lon="3.249777949411682"><ele>1058.0</ele><time>2026-04-05T10:07:17.999Z</time></trkpt><trkpt lat="44.87815374483081" lon="3.2496116535984907"><ele>1058.0</ele><time>2026-04-05T10:07:19.999Z</time></trkpt><trkpt lat="44.878105794002764" lon="3.2494592669986733"><ele>1058.0</ele><time>2026-04-05T10:07:21.999Z</time></trkpt><trkpt lat="44.87808850601507" lon="3.2493581639666163"><ele>1058.0</ele><time>2026-04-05T10:07:22.999Z</time></trkpt><trkpt lat="44.878093338488505" lon="3.2492538044320325"><ele>1058.0</ele><time>2026-04-05T10:07:23.999Z</time></trkpt><trkpt lat="44.87807318704376" lon="3.249148787088283"><ele>1058.0</ele><time>2026-04-05T10:07:24.999Z</time></trkpt><trkpt lat="44.87801831131802" lon="3.2490562188397663"><ele>1058.0</ele><time>2026-04-05T10:07:25.999Z</time></trkpt><trkpt lat="44.87798653874613" lon="3.248962390362501"><ele>1058.6</ele><time>2026-04-05T10:07:26.999Z</time></trkpt><trkpt lat="44.87796417453782" lon="3.248868633127256"><ele>1059.1999999999998</ele><time>2026-04-05T10:07:27.999Z</time></trkpt><trkpt lat="44.87791239016805" lon="3.248720586225432"><ele>1059.8</ele><time>2026-04-05T10:07:29.999Z</time></trkpt><trkpt lat="44.87787761982623" lon="3.248547738608602"><ele>1060.3999999999999</ele><time>2026-04-05T10:07:31.999Z</time></trkpt><trkpt lat="44.877856996170365" lon="3.2484590648928835"><ele>1061.0</ele><time>2026-04-05T10:07:32.999Z</time></trkpt><trkpt lat="44.87785621426708" lon="3.2483301953551007"><ele>1061.0</ele><time>2026-04-05T10:07:34.999Z</time></trkpt><trkpt lat="44.87791408869562" lon="3.2482066323043033"><ele>1061.0</ele><time>2026-04-05T10:07:36.999Z</time></trkpt><trkpt lat="44.87797226405121" lon="3.2481506652075014"><ele>1061.0</ele><time>2026-04-05T10:07:37.999Z</time></trkpt><trkpt lat="44.878018036226656" lon="3.2480819825773284"><ele>1061.0</ele><time>2026-04-05T10:07:38.999Z</time></trkpt><trkpt lat="44.87803379168944" lon="3.247986055124247"><ele>1061.0</ele><time>2026-04-05T10:07:39.999Z</time></trkpt><trkpt lat="44.87802967323958" lon="3.2478846471499065"><ele>1061.0</ele><time>2026-04-05T10:07:40.999Z</time></trkpt><trkpt lat="44.878017027648376" lon="3.247750833061458"><ele>1061.1666666666667</ele><time>2026-04-05T10:07:42.999Z</time></trkpt><trkpt lat="44.87808278482434" lon="3.247647292553283"><ele>1061.3333333333335</ele><time>2026-04-05T10:07:45.999Z</time></trkpt><trkpt lat="44.878149810030976" lon="3.24761504563957"><ele>1061.5</ele><time>2026-04-05T10:07:46.999Z</time></trkpt><trkpt lat="44.878222635839414" lon="3.2475903226990845"><ele>1061.6666666666667</ele><time>2026-04-05T10:07:47.999Z</time></trkpt><trkpt lat="44.87830475972021" lon="3.247566398162839"><ele>1061.8333333333333</ele><time>2026-04-05T10:07:48.999Z</time></trkpt><trkpt lat="44.87838255748009" lon="3.2475427066211253"><ele>1062.0</ele><time>2026-04-05T10:07:49.999Z</time></trkpt><trkpt lat="44.87846454125968" lon="3.247513063821711"><ele>1062.0</ele><time>2026-04-05T10:07:50.999Z</time></trkpt><trkpt lat="44.87855589973757" lon="3.2474842070055043"><ele>1062.0</ele><time>2026-04-05T10:07:51.999Z</time></trkpt><trkpt lat="44.87865430375687" lon="3.247452889167421"><ele>1062.0</ele><time>2026-04-05T10:07:52.999Z</time></trkpt><trkpt lat="44.87875852907788" lon="3.247422255429435"><ele>1062.0</ele><time>2026-04-05T10:07:53.999Z</time></trkpt><trkpt lat="44.87885339785117" lon="3.2473989022353136"><ele>1062.0</ele><time>2026-04-05T10:07:54.999Z</time></trkpt><trkpt lat="44.87893480330693" lon="3.2473793949058285"><ele>1062.0</ele><time>2026-04-05T10:07:55.999Z</time></trkpt><trkpt lat="44.87901642387016" lon="3.2473573511076417"><ele>1062.0</ele><time>2026-04-05T10:07:57Z</time></trkpt><trkpt lat="44.879094384991895" lon="3.247338727062138"><ele>1062.0</ele><time>2026-04-05T10:07:58Z</time></trkpt><trkpt lat="44.87916786792798" lon="3.247322237432337"><ele>1062.0</ele><time>2026-04-05T10:07:59Z</time></trkpt><trkpt lat="44.879242480327385" lon="3.2473051985483816"><ele>1062.0</ele><time>2026-04-05T10:08:00Z</time></trkpt><trkpt lat="44.87932276983809" lon="3.2472860786258537"><ele>1062.0</ele><time>2026-04-05T10:08:01Z</time></trkpt><trkpt lat="44.8794097760465" lon="3.247269421700672"><ele>1059.6</ele><time>2026-04-05T10:08:02Z</time></trkpt><trkpt lat="44.87949885466268" lon="3.247245796351054"><ele>1057.2</ele><time>2026-04-05T10:08:03Z</time></trkpt><trkpt lat="44.87959082128133" lon="3.2472190000622527"><ele>1054.8</ele><time>2026-04-05T10:08:04Z</time></trkpt><trkpt lat="44.87968849532314" lon="3.2471928934348293"><ele>1052.4</ele><time>2026-04-05T10:08:05Z</time></trkpt><trkpt lat="44.87978291569052" lon="3.2471686739493393"><ele>1050.0</ele><time>2026-04-05T10:08:06Z</time></trkpt><trkpt lat="44.879873561094755" lon="3.2471476687642014"><ele>1050.0</ele><time>2026-04-05T10:08:07Z</time></trkpt><trkpt lat="44.87996490754428" lon="3.247124312133322"><ele>1050.0</ele><time>2026-04-05T10:08:08Z</time></trkpt><trkpt lat="44.88006184809843" lon="3.247100988292865"><ele>1050.0</ele><time>2026-04-05T10:08:09Z</time></trkpt><trkpt lat="44.88016096981245" lon="3.2470758722706754"><ele>1050.0</ele><time>2026-04-05T10:08:10Z</time></trkpt><trkpt lat="44.88025953513132" lon="3.2470466509966602"><ele>1050.0</ele><time>2026-04-05T10:08:11Z</time></trkpt><trkpt lat="44.88036319220002" lon="3.247017919421636"><ele>1049.0</ele><time>2026-04-05T10:08:12Z</time></trkpt><trkpt lat="44.88046315470883" lon="3.2469946322923247"><ele>1048.0</ele><time>2026-04-05T10:08:13Z</time></trkpt><trkpt lat="44.88056202153397" lon="3.246977606902757"><ele>1047.0</ele><time>2026-04-05T10:08:14Z</time></trkpt><trkpt lat="44.88065902393279" lon="3.2469560572814373"><ele>1046.0</ele><time>2026-04-05T10:08:15Z</time></trkpt><trkpt lat="44.88075474787817" lon="3.246933746732298"><ele>1045.0</ele><time>2026-04-05T10:08:16Z</time></trkpt><trkpt lat="44.88085413260273" lon="3.2469134019395374"><ele>1044.8333333333333</ele><time>2026-04-05T10:08:17Z</time></trkpt><trkpt lat="44.880952570528635" lon="3.2468865298693763"><ele>1044.6666666666665</ele><time>2026-04-05T10:08:18Z</time></trkpt><trkpt lat="44.88104260550643" lon="3.2468626807571828"><ele>1044.5</ele><time>2026-04-05T10:08:19Z</time></trkpt><trkpt lat="44.88112099482096" lon="3.246836078630224"><ele>1044.3333333333333</ele><time>2026-04-05T10:08:20Z</time></trkpt><trkpt lat="44.88119568844131" lon="3.246812568946122"><ele>1044.1666666666667</ele><time>2026-04-05T10:08:21Z</time></trkpt><trkpt lat="44.88127626644206" lon="3.2468439094083217"><ele>1044.0</ele><time>2026-04-05T10:08:23Z</time></trkpt><trkpt lat="44.881288774924506" lon="3.2470564864601537"><ele>1044.0</ele><time>2026-04-05T10:08:26Z</time></trkpt><trkpt lat="44.88130367437257" lon="3.2471638566965986"><ele>1044.0</ele><time>2026-04-05T10:08:27Z</time></trkpt><trkpt lat="44.88131973837193" lon="3.247278705131516"><ele>1044.0</ele><time>2026-04-05T10:08:28Z</time></trkpt><trkpt lat="44.88132675818977" lon="3.247386851560871"><ele>1044.0</ele><time>2026-04-05T10:08:29Z</time></trkpt><trkpt lat="44.881334195963696" lon="3.2474914633603333"><ele>1044.0</ele><time>2026-04-05T10:08:30Z</time></trkpt><trkpt lat="44.881341273566925" lon="3.2476070153721275"><ele>1044.0</ele><time>2026-04-05T10:08:31Z</time></trkpt><trkpt lat="44.881350848300094" lon="3.2477225042075113"><ele>1044.1666666666667</ele><time>2026-04-05T10:08:32Z</time></trkpt><trkpt lat="44.8813596398869" lon="3.24783272955141"><ele>1044.3333333333333</ele><time>2026-04-05T10:08:33Z</time></trkpt><trkpt lat="44.8813713242023" lon="3.247955112564729"><ele>1044.5</ele><time>2026-04-05T10:08:34Z</time></trkpt><trkpt lat="44.881388996220636" lon="3.248068041784774"><ele>1044.6666666666665</ele><time>2026-04-05T10:08:35Z</time></trkpt><trkpt lat="44.881415227472544" lon="3.2481811682699657"><ele>1044.8333333333333</ele><time>2026-04-05T10:08:36Z</time></trkpt><trkpt lat="44.88144441719637" lon="3.2482916930512022"><ele>1045.0</ele><time>2026-04-05T10:08:37Z</time></trkpt><trkpt lat="44.881486136906645" lon="3.248400367162459"><ele>1044.6</ele><time>2026-04-05T10:08:38Z</time></trkpt><trkpt lat="44.88155442215797" lon="3.2484738199686034"><ele>1044.2</ele><time>2026-04-05T10:08:39Z</time></trkpt><trkpt lat="44.88164776102741" lon="3.248517803993377"><ele>1043.8</ele><time>2026-04-05T10:08:40Z</time></trkpt><trkpt lat="44.88175086198885" lon="3.2485560709124393"><ele>1043.4</ele><time>2026-04-05T10:08:41Z</time></trkpt><trkpt lat="44.88185209552336" lon="3.248595871127982"><ele>1043.0</ele><time>2026-04-05T10:08:42Z</time></trkpt><trkpt lat="44.8819493027781" lon="3.2486712888228486"><ele>1042.2</ele><time>2026-04-05T10:08:43Z</time></trkpt><trkpt lat="44.88205524179919" lon="3.2487291358278134"><ele>1041.4</ele><time>2026-04-05T10:08:44Z</time></trkpt><trkpt lat="44.882154711321434" lon="3.2487852768672623"><ele>1040.6000000000001</ele><time>2026-04-05T10:08:45Z</time></trkpt><trkpt lat="44.88224552031178" lon="3.2488221835573907"><ele>1039.8</ele><time>2026-04-05T10:08:46Z</time></trkpt><trkpt lat="44.882321280023994" lon="3.2488865497892743"><ele>1039.0</ele><time>2026-04-05T10:08:47Z</time></trkpt><trkpt lat="44.88238924914302" lon="3.2489691097826023"><ele>1038.0</ele><time>2026-04-05T10:08:48Z</time></trkpt><trkpt lat="44.88244609568602" lon="3.2490733353393795"><ele>1037.0</ele><time>2026-04-05T10:08:49Z</time></trkpt><trkpt lat="44.882496064277824" lon="3.2491976402046943"><ele>1036.0</ele><time>2026-04-05T10:08:50Z</time></trkpt><trkpt lat="44.88253770049321" lon="3.249333716821874"><ele>1035.0</ele><time>2026-04-05T10:08:51Z</time></trkpt><trkpt lat="44.882571381333825" lon="3.249464383229577"><ele>1034.0</ele><time>2026-04-05T10:08:52Z</time></trkpt><trkpt lat="44.882597340560366" lon="3.249581793814975"><ele>1034.0</ele><time>2026-04-05T10:08:53Z</time></trkpt><trkpt lat="44.88258937048488" lon="3.249698751705788"><ele>1034.0</ele><time>2026-04-05T10:08:54Z</time></trkpt><trkpt lat="44.882591901246286" lon="3.2498078468545217"><ele>1034.0</ele><time>2026-04-05T10:08:55Z</time></trkpt><trkpt lat="44.88266098874243" lon="3.249896318928777"><ele>1034.0</ele><time>2026-04-05T10:08:56Z</time></trkpt><trkpt lat="44.88275255465589" lon="3.2499809434796063"><ele>1034.0</ele><time>2026-04-05T10:08:57Z</time></trkpt><trkpt lat="44.882851505747254" lon="3.250081693965772"><ele>1030.5</ele><time>2026-04-05T10:08:58Z</time></trkpt><trkpt lat="44.88294742036441" lon="3.250201157683282"><ele>1027.0</ele><time>2026-04-05T10:08:59Z</time></trkpt><trkpt lat="44.88300940017978" lon="3.250362092840538"><ele>1023.5</ele><time>2026-04-05T10:09:00Z</time></trkpt><trkpt lat="44.88308429244375" lon="3.2505238805703724"><ele>1020.0</ele><time>2026-04-05T10:09:01Z</time></trkpt><trkpt lat="44.883123633338336" lon="3.2507055472457624"><ele>1018.75</ele><time>2026-04-05T10:09:02Z</time></trkpt><trkpt lat="44.88315721803946" lon="3.250886968420178"><ele>1017.5</ele><time>2026-04-05T10:09:03Z</time></trkpt><trkpt lat="44.88320093010313" lon="3.2510787669447043"><ele>1016.25</ele><time>2026-04-05T10:09:04Z</time></trkpt><trkpt lat="44.88326140317075" lon="3.2512652371537025"><ele>1015.0</ele><time>2026-04-05T10:09:04.999Z</time></trkpt><trkpt lat="44.88334870427967" lon="3.251440900462109"><ele>1012.6666666666666</ele><time>2026-04-05T10:09:05.999Z</time></trkpt><trkpt lat="44.88345337881678" lon="3.2516109109054625"><ele>1010.3333333333333</ele><time>2026-04-05T10:09:06.999Z</time></trkpt><trkpt lat="44.88356493969823" lon="3.251763056234855"><ele>1008.0</ele><time>2026-04-05T10:09:07.999Z</time></trkpt><trkpt lat="44.88368370180618" lon="3.2519020740189664"><ele>1008.0</ele><time>2026-04-05T10:09:08.999Z</time></trkpt><trkpt lat="44.88380084395755" lon="3.2520311208926134"><ele>1008.0</ele><time>2026-04-05T10:09:09.999Z</time></trkpt><trkpt lat="44.883917338072166" lon="3.252158344122336"><ele>1008.0</ele><time>2026-04-05T10:09:10.999Z</time></trkpt><trkpt lat="44.884037846193" lon="3.2522903597701824"><ele>1008.0</ele><time>2026-04-05T10:09:11.999Z</time></trkpt><trkpt lat="44.884161433984886" lon="3.2524220543214155"><ele>1007.25</ele><time>2026-04-05T10:09:12.999Z</time></trkpt><trkpt lat="44.88428217834495" lon="3.2525455284655336"><ele>1006.5</ele><time>2026-04-05T10:09:13.999Z</time></trkpt><trkpt lat="44.88440276902908" lon="3.252668462328436"><ele>1005.75</ele><time>2026-04-05T10:09:14.999Z</time></trkpt><trkpt lat="44.88451879215159" lon="3.252792622930233"><ele>1005.0</ele><time>2026-04-05T10:09:15.999Z</time></trkpt><trkpt lat="44.884620077099775" lon="3.2529156504748546"><ele>1005.0</ele><time>2026-04-05T10:09:16.999Z</time></trkpt><trkpt lat="44.884692520818334" lon="3.2530597482298194"><ele>1005.0</ele><time>2026-04-05T10:09:17.999Z</time></trkpt><trkpt lat="44.8847595022668" lon="3.253185411965919"><ele>1005.0</ele><time>2026-04-05T10:09:18.999Z</time></trkpt><trkpt lat="44.88481653072543" lon="3.2533080582687632"><ele>1005.0</ele><time>2026-04-05T10:09:19.999Z</time></trkpt><trkpt lat="44.88487138106863" lon="3.2534330776718434"><ele>1005.0</ele><time>2026-04-05T10:09:20.999Z</time></trkpt><trkpt lat="44.88492516530483" lon="3.253562318202979"><ele>1005.4</ele><time>2026-04-05T10:09:21.999Z</time></trkpt><trkpt lat="44.88497563492943" lon="3.2536918021172703"><ele>1005.8</ele><time>2026-04-05T10:09:22.999Z</time></trkpt><trkpt lat="44.885038867547436" lon="3.2538174126208017"><ele>1006.2</ele><time>2026-04-05T10:09:23.999Z</time></trkpt><trkpt lat="44.88508814520956" lon="3.253964299443304"><ele>1006.6</ele><time>2026-04-05T10:09:24.999Z</time></trkpt><trkpt lat="44.885138615861386" lon="3.2541171843908154"><ele>1007.0</ele><time>2026-04-05T10:09:25.999Z</time></trkpt><trkpt lat="44.885204274984396" lon="3.2542761623168084"><ele>1004.6666666666667</ele><time>2026-04-05T10:09:26.999Z</time></trkpt><trkpt lat="44.88528501553768" lon="3.2544406314229284"><ele>1002.3333333333333</ele><time>2026-04-05T10:09:27.999Z</time></trkpt><trkpt lat="44.885372937991896" lon="3.254633426120706"><ele>1000.0</ele><time>2026-04-05T10:09:28.999Z</time></trkpt><trkpt lat="44.88545223311347" lon="3.254825991354884"><ele>1000.0</ele><time>2026-04-05T10:09:29.999Z</time></trkpt><trkpt lat="44.885506526125845" lon="3.2550040194559138"><ele>1000.0</ele><time>2026-04-05T10:09:30.999Z</time></trkpt><trkpt lat="44.88553760982897" lon="3.2551671928882366"><ele>1000.0</ele><time>2026-04-05T10:09:31.999Z</time></trkpt><trkpt lat="44.8855664989022" lon="3.2553357212163023"><ele>1000.0</ele><time>2026-04-05T10:09:32.999Z</time></trkpt><trkpt lat="44.88558916399001" lon="3.2554960526959613"><ele>999.8</ele><time>2026-04-05T10:09:33.999Z</time></trkpt><trkpt lat="44.88561097224442" lon="3.2556541410934985"><ele>999.6</ele><time>2026-04-05T10:09:34.999Z</time></trkpt><trkpt lat="44.885633672303776" lon="3.2558080441571304"><ele>999.4000000000001</ele><time>2026-04-05T10:09:35.999Z</time></trkpt><trkpt lat="44.885658498685004" lon="3.255955654732266"><ele>999.2</ele><time>2026-04-05T10:09:36.999Z</time></trkpt><trkpt lat="44.88566278720595" lon="3.2561012735414514"><ele>999.0</ele><time>2026-04-05T10:09:37.999Z</time></trkpt><trkpt lat="44.88568260001754" lon="3.2562427680096464"><ele>999.0</ele><time>2026-04-05T10:09:38.999Z</time></trkpt><trkpt lat="44.8857173371065" lon="3.2563758391683746"><ele>999.0000000000001</ele><time>2026-04-05T10:09:39.999Z</time></trkpt><trkpt lat="44.885733146409876" lon="3.2565118001185653"><ele>999.0000000000001</ele><time>2026-04-05T10:09:40.999Z</time></trkpt><trkpt lat="44.885738491747276" lon="3.256644670377534"><ele>999.0</ele><time>2026-04-05T10:09:41.999Z</time></trkpt><trkpt lat="44.885755473992305" lon="3.256771143207466"><ele>999.0</ele><time>2026-04-05T10:09:42.999Z</time></trkpt><trkpt lat="44.88577227410961" lon="3.2568962603625256"><ele>998.0</ele><time>2026-04-05T10:09:43.999Z</time></trkpt><trkpt lat="44.88579013847551" lon="3.2570185717279987"><ele>997.0000000000001</ele><time>2026-04-05T10:09:44.999Z</time></trkpt><trkpt lat="44.885829731499506" lon="3.2571545789037217"><ele>996.0000000000001</ele><time>2026-04-05T10:09:45.999Z</time></trkpt><trkpt lat="44.88586861587064" lon="3.2573048542331953"><ele>995.0</ele><time>2026-04-05T10:09:46.999Z</time></trkpt><trkpt lat="44.88591886441741" lon="3.257460084418924"><ele>994.0</ele><time>2026-04-05T10:09:47.999Z</time></trkpt><trkpt lat="44.885983237902565" lon="3.2576062561416803"><ele>990.25</ele><time>2026-04-05T10:09:48.999Z</time></trkpt><trkpt lat="44.886035369097286" lon="3.2577671757470483"><ele>986.5</ele><time>2026-04-05T10:09:49.999Z</time></trkpt><trkpt lat="44.8861119475173" lon="3.257912464815235"><ele>982.75</ele><time>2026-04-05T10:09:50.999Z</time></trkpt><trkpt lat="44.886208329547586" lon="3.258039229288745"><ele>979.0</ele><time>2026-04-05T10:09:51.999Z</time></trkpt><trkpt lat="44.886299808437826" lon="3.258175351179761"><ele>979.0</ele><time>2026-04-05T10:09:52.999Z</time></trkpt><trkpt lat="44.886394910872816" lon="3.258305688038701"><ele>979.0</ele><time>2026-04-05T10:09:53.999Z</time></trkpt><trkpt lat="44.88648987686793" lon="3.2584375016697487"><ele>979.0</ele><time>2026-04-05T10:09:54.999Z</time></trkpt><trkpt lat="44.88658200264685" lon="3.2585598141573815"><ele>979.0</ele><time>2026-04-05T10:09:55.999Z</time></trkpt><trkpt lat="44.88666632771664" lon="3.258670929692028"><ele>979.0</ele><time>2026-04-05T10:09:56.999Z</time></trkpt><trkpt lat="44.88674196345263" lon="3.258777199685471"><ele>979.0000000000001</ele><time>2026-04-05T10:09:57.999Z</time></trkpt><trkpt lat="44.88681411421229" lon="3.2588765448655557"><ele>979.0000000000001</ele><time>2026-04-05T10:09:58.999Z</time></trkpt><trkpt lat="44.88687720420428" lon="3.2589687587258824"><ele>979.0</ele><time>2026-04-05T10:09:59.999Z</time></trkpt><trkpt lat="44.88693355577274" lon="3.2590583668479027"><ele>979.0</ele><time>2026-04-05T10:10:00.999Z</time></trkpt><trkpt lat="44.88698562446078" lon="3.2591415135387187"><ele>978.6</ele><time>2026-04-05T10:10:01.999Z</time></trkpt><trkpt lat="44.887043454632895" lon="3.2592340737727885"><ele>978.2</ele><time>2026-04-05T10:10:03Z</time></trkpt><trkpt lat="44.88710590985995" lon="3.2593301052626513"><ele>977.8000000000001</ele><time>2026-04-05T10:10:04Z</time></trkpt><trkpt lat="44.88716006160123" lon="3.259448472974858"><ele>977.4000000000001</ele><time>2026-04-05T10:10:05Z</time></trkpt><trkpt lat="44.88724012869008" lon="3.2595438402757346"><ele>977.0</ele><time>2026-04-05T10:10:06Z</time></trkpt><trkpt lat="44.8873145970328" lon="3.259665234382998"><ele>976.75</ele><time>2026-04-05T10:10:07Z</time></trkpt><trkpt lat="44.887392757692325" lon="3.2597906638970953"><ele>976.5</ele><time>2026-04-05T10:10:08Z</time></trkpt><trkpt lat="44.887473750103815" lon="3.259919797560049"><ele>976.25</ele><time>2026-04-05T10:10:09Z</time></trkpt><trkpt lat="44.8875545125192" lon="3.260052920941622"><ele>976.0</ele><time>2026-04-05T10:10:10Z</time></trkpt><trkpt lat="44.887632381319655" lon="3.260182565235939"><ele>975.5999999999999</ele><time>2026-04-05T10:10:11Z</time></trkpt><trkpt lat="44.887705804486586" lon="3.260302932334412"><ele>975.1999999999999</ele><time>2026-04-05T10:10:12Z</time></trkpt><trkpt lat="44.887776541748046" lon="3.2604164416855106"><ele>974.8000000000001</ele><time>2026-04-05T10:10:13Z</time></trkpt><trkpt lat="44.887840975571656" lon="3.260525497190994"><ele>974.4000000000001</ele><time>2026-04-05T10:10:14Z</time></trkpt><trkpt lat="44.88790268724394" lon="3.2606320479051973"><ele>974.0</ele><time>2026-04-05T10:10:15Z</time></trkpt><trkpt lat="44.88796700858033" lon="3.2607367894993926"><ele>974.0</ele><time>2026-04-05T10:10:16Z</time></trkpt><trkpt lat="44.88803628445115" lon="3.2608466535436236"><ele>974.0000000000001</ele><time>2026-04-05T10:10:17Z</time></trkpt><trkpt lat="44.88810278743431" lon="3.2609576186099067"><ele>974.0000000000001</ele><time>2026-04-05T10:10:18Z</time></trkpt><trkpt lat="44.88816693234817" lon="3.261074861153693"><ele>974.0</ele><time>2026-04-05T10:10:19Z</time></trkpt><trkpt lat="44.888229385419194" lon="3.26119220396785"><ele>974.0</ele><time>2026-04-05T10:10:20Z</time></trkpt><trkpt lat="44.888293110203655" lon="3.261315117300987"><ele>974.0</ele><time>2026-04-05T10:10:21Z</time></trkpt><trkpt lat="44.88835922157331" lon="3.2614359186985857"><ele>974.0000000000001</ele><time>2026-04-05T10:10:22Z</time></trkpt><trkpt lat="44.88841668272078" lon="3.2615687232185424"><ele>974.0000000000001</ele><time>2026-04-05T10:10:23Z</time></trkpt><trkpt lat="44.888488943066704" lon="3.2616856131244045"><ele>974.0</ele><time>2026-04-05T10:10:24Z</time></trkpt><trkpt lat="44.888558266028326" lon="3.261802764983033"><ele>974.0</ele><time>2026-04-05T10:10:25Z</time></trkpt><trkpt lat="44.888633361510756" lon="3.2618990084283754"><ele>973.4000000000001</ele><time>2026-04-05T10:10:26Z</time></trkpt><trkpt lat="44.88869495198207" lon="3.2620066456471557"><ele>972.8000000000001</ele><time>2026-04-05T10:10:27Z</time></trkpt><trkpt lat="44.88875716483374" lon="3.2621111655942343"><ele>972.1999999999999</ele><time>2026-04-05T10:10:28Z</time></trkpt><trkpt lat="44.88882053383617" lon="3.2622095855553823"><ele>971.5999999999999</ele><time>2026-04-05T10:10:29Z</time></trkpt><trkpt lat="44.88888619548517" lon="3.2623049499749537"><ele>971.0</ele><time>2026-04-05T10:10:30Z</time></trkpt><trkpt lat="44.88895826986658" lon="3.262388429166945"><ele>969.8</ele><time>2026-04-05T10:10:31Z</time></trkpt><trkpt lat="44.8890850755481" lon="3.2624539650008737"><ele>968.5999999999999</ele><time>2026-04-05T10:10:33Z</time></trkpt><trkpt lat="44.889171856835006" lon="3.262482865041717"><ele>967.4</ele><time>2026-04-05T10:10:34Z</time></trkpt><trkpt lat="44.88926065644886" lon="3.2625089023742975"><ele>966.2</ele><time>2026-04-05T10:10:35Z</time></trkpt><trkpt lat="44.88934400337113" lon="3.2625375802848873"><ele>965.0</ele><time>2026-04-05T10:10:36Z</time></trkpt><trkpt lat="44.88941746149251" lon="3.262567973260541"><ele>965.0000000000001</ele><time>2026-04-05T10:10:37Z</time></trkpt><trkpt lat="44.88948653778361" lon="3.2626177752769125"><ele>965.0</ele><time>2026-04-05T10:10:38Z</time></trkpt><trkpt lat="44.889547126812175" lon="3.262678344394156"><ele>965.0</ele><time>2026-04-05T10:10:39Z</time></trkpt><trkpt lat="44.88960664119474" lon="3.262748070819932"><ele>965.0</ele><time>2026-04-05T10:10:40Z</time></trkpt><trkpt lat="44.889648160900514" lon="3.2628405245251964"><ele>965.0000000000001</ele><time>2026-04-05T10:10:41Z</time></trkpt><trkpt lat="44.889675795317594" lon="3.2629423735108927"><ele>965.0</ele><time>2026-04-05T10:10:42Z</time></trkpt><trkpt lat="44.8896957492966" lon="3.263049241150988"><ele>964.6666666666667</ele><time>2026-04-05T10:10:43Z</time></trkpt><trkpt lat="44.88971680894562" lon="3.2631644738056194"><ele>964.3333333333334</ele><time>2026-04-05T10:10:44Z</time></trkpt><trkpt lat="44.889737628891076" lon="3.263285800084854"><ele>964.0</ele><time>2026-04-05T10:10:45Z</time></trkpt><trkpt lat="44.88975347856819" lon="3.263394121568486"><ele>963.6666666666667</ele><time>2026-04-05T10:10:46Z</time></trkpt><trkpt lat="44.88976454149419" lon="3.2634964703358134"><ele>963.3333333333334</ele><time>2026-04-05T10:10:47Z</time></trkpt><trkpt lat="44.88977664186065" lon="3.2635916649226036"><ele>963.0</ele><time>2026-04-05T10:10:48Z</time></trkpt><trkpt lat="44.889824225029024" lon="3.263762442444788"><ele>963.0</ele><time>2026-04-05T10:10:50Z</time></trkpt><trkpt lat="44.889888974998726" lon="3.2638164345493252"><ele>963.0</ele><time>2026-04-05T10:10:51Z</time></trkpt><trkpt lat="44.88999746340609" lon="3.263868275868089"><ele>963.0</ele><time>2026-04-05T10:10:53Z</time></trkpt><trkpt lat="44.890063147417514" lon="3.263912162855275"><ele>963.0</ele><time>2026-04-05T10:10:55Z</time></trkpt><trkpt lat="44.8901285424604" lon="3.2639183692127793"><ele>963.0</ele><time>2026-04-05T10:10:57Z</time></trkpt><trkpt lat="44.89020957529747" lon="3.2639014277284444"><ele>963.0</ele><time>2026-04-05T10:10:59Z</time></trkpt><trkpt lat="44.89028858340445" lon="3.2638950933243263"><ele>962.0</ele><time>2026-04-05T10:11:01Z</time></trkpt><trkpt lat="44.890371260646795" lon="3.263794834347121"><ele>961.0</ele><time>2026-04-05T10:11:02Z</time></trkpt><trkpt lat="44.890404205923204" lon="3.2636893277460453"><ele>960.0</ele><time>2026-04-05T10:11:03Z</time></trkpt><trkpt lat="44.89053174306715" lon="3.2637835095640466"><ele>959.0</ele><time>2026-04-05T10:11:04.999Z</time></trkpt><trkpt lat="44.890625041471864" lon="3.263834819150712"><ele>958.0</ele><time>2026-04-05T10:11:05.999Z</time></trkpt><trkpt lat="44.890746879107084" lon="3.2638391234031903"><ele>958.0</ele><time>2026-04-05T10:11:06.999Z</time></trkpt><trkpt lat="44.89089190939951" lon="3.263821692257204"><ele>958.0</ele><time>2026-04-05T10:11:07.999Z</time></trkpt><trkpt lat="44.89102577685815" lon="3.2637722344520363"><ele>958.0</ele><time>2026-04-05T10:11:08.999Z</time></trkpt><trkpt lat="44.89114019012495" lon="3.2637733775042608"><ele>958.0</ele><time>2026-04-05T10:11:09.999Z</time></trkpt><trkpt lat="44.89126012499947" lon="3.2637845403554215"><ele>957.5</ele><time>2026-04-05T10:11:10.999Z</time></trkpt><trkpt lat="44.89139691658835" lon="3.26379960759313"><ele>957.0</ele><time>2026-04-05T10:11:11.999Z</time></trkpt><trkpt lat="44.89151579568532" lon="3.263790560249963"><ele>956.5</ele><time>2026-04-05T10:11:12.999Z</time></trkpt><trkpt lat="44.891622108691706" lon="3.2637860995835997"><ele>956.0</ele><time>2026-04-05T10:11:13.999Z</time></trkpt><trkpt lat="44.89173067164933" lon="3.2637514195037287"><ele>954.0</ele><time>2026-04-05T10:11:14.999Z</time></trkpt><trkpt lat="44.89184341553007" lon="3.26367630573787"><ele>952.0</ele><time>2026-04-05T10:11:15.999Z</time></trkpt><trkpt lat="44.89195663754646" lon="3.263581012319127"><ele>950.0</ele><time>2026-04-05T10:11:16.999Z</time></trkpt><trkpt lat="44.89207864054755" lon="3.263515418715608"><ele>948.0</ele><time>2026-04-05T10:11:17.999Z</time></trkpt><trkpt lat="44.89217531475326" lon="3.2633847214474088"><ele>948.0</ele><time>2026-04-05T10:11:18.999Z</time></trkpt><trkpt lat="44.89225949608459" lon="3.263267819439082"><ele>948.0</ele><time>2026-04-05T10:11:19.999Z</time></trkpt><trkpt lat="44.89231316596538" lon="3.263127582336293"><ele>948.0</ele><time>2026-04-05T10:11:20.999Z</time></trkpt><trkpt lat="44.89237959506969" lon="3.2630258883695697"><ele>948.0</ele><time>2026-04-05T10:11:21.999Z</time></trkpt><trkpt lat="44.89244720047899" lon="3.262939226019744"><ele>948.0</ele><time>2026-04-05T10:11:22.999Z</time></trkpt><trkpt lat="44.8925481777064" lon="3.2629375309642663"><ele>948.5999999999999</ele><time>2026-04-05T10:11:23.999Z</time></trkpt><trkpt lat="44.892655696046155" lon="3.2629571913596833"><ele>949.1999999999999</ele><time>2026-04-05T10:11:24.999Z</time></trkpt><trkpt lat="44.892770924306376" lon="3.2629682638242095"><ele>949.8</ele><time>2026-04-05T10:11:25.999Z</time></trkpt><trkpt lat="44.892875110983944" lon="3.2630192981816215"><ele>950.4</ele><time>2026-04-05T10:11:26.999Z</time></trkpt><trkpt lat="44.89296958946763" lon="3.263088584893185"><ele>951.0</ele><time>2026-04-05T10:11:27.999Z</time></trkpt><trkpt lat="44.893041598968956" lon="3.263201842942656"><ele>948.5999999999999</ele><time>2026-04-05T10:11:28.999Z</time></trkpt><trkpt lat="44.89310392811375" lon="3.263318700024383"><ele>946.1999999999999</ele><time>2026-04-05T10:11:29.999Z</time></trkpt><trkpt lat="44.893151563684405" lon="3.2634342984971205"><ele>943.8000000000001</ele><time>2026-04-05T10:11:30.999Z</time></trkpt><trkpt lat="44.893231186699666" lon="3.2634962707142803"><ele>941.4000000000001</ele><time>2026-04-05T10:11:31.999Z</time></trkpt><trkpt lat="44.89332541094064" lon="3.263557241024613"><ele>939.0</ele><time>2026-04-05T10:11:32.999Z</time></trkpt><trkpt lat="44.89344571065655" lon="3.2635029565392455"><ele>937.5</ele><time>2026-04-05T10:11:33.999Z</time></trkpt><trkpt lat="44.893566472944016" lon="3.2634243620345162"><ele>936.0</ele><time>2026-04-05T10:11:34.999Z</time></trkpt><trkpt lat="44.893687145936354" lon="3.263331097326901"><ele>934.5</ele><time>2026-04-05T10:11:35.999Z</time></trkpt><trkpt lat="44.89381841068395" lon="3.2632549202797865"><ele>933.0</ele><time>2026-04-05T10:11:36.999Z</time></trkpt><trkpt lat="44.89395600691228" lon="3.263213512601756"><ele>933.0</ele><time>2026-04-05T10:11:37.999Z</time></trkpt><trkpt lat="44.89407229268683" lon="3.2631507543532887"><ele>933.0</ele><time>2026-04-05T10:11:38.999Z</time></trkpt><trkpt lat="44.89422492472489" lon="3.26321914215208"><ele>933.0</ele><time>2026-04-05T10:11:39.999Z</time></trkpt><trkpt lat="44.89435626031729" lon="3.26324897803468"><ele>933.0</ele><time>2026-04-05T10:11:40.999Z</time></trkpt><trkpt lat="44.89448835495643" lon="3.2632598545633136"><ele>930.0</ele><time>2026-04-05T10:11:41.999Z</time></trkpt><trkpt lat="44.894632927956145" lon="3.2632514115126527"><ele>927.0</ele><time>2026-04-05T10:11:42.999Z</time></trkpt><trkpt lat="44.89477456548628" lon="3.2632278605282035"><ele>924.0</ele><time>2026-04-05T10:11:43.999Z</time></trkpt><trkpt lat="44.89491945873075" lon="3.2632018863448287"><ele>921.0</ele><time>2026-04-05T10:11:44.999Z</time></trkpt><trkpt lat="44.89505980414916" lon="3.263179481367753"><ele>921.0</ele><time>2026-04-05T10:11:45.999Z</time></trkpt><trkpt lat="44.89518127939143" lon="3.2631661442747735"><ele>921.0</ele><time>2026-04-05T10:11:46.999Z</time></trkpt><trkpt lat="44.895301437457725" lon="3.2631305450244468"><ele>921.0</ele><time>2026-04-05T10:11:47.999Z</time></trkpt><trkpt lat="44.89540769571454" lon="3.263067568784066"><ele>921.0</ele><time>2026-04-05T10:11:48.999Z</time></trkpt><trkpt lat="44.89549307677275" lon="3.2629798077973673"><ele>921.0</ele><time>2026-04-05T10:11:49.999Z</time></trkpt><trkpt lat="44.89557128968304" lon="3.2628691223604296"><ele>921.0</ele><time>2026-04-05T10:11:50.999Z</time></trkpt><trkpt lat="44.89564635710367" lon="3.262749331637843"><ele>921.0</ele><time>2026-04-05T10:11:51.999Z</time></trkpt><trkpt lat="44.89572429590729" lon="3.262624558970284"><ele>921.0</ele><time>2026-04-05T10:11:52.999Z</time></trkpt><trkpt lat="44.89581246034146" lon="3.2624914746261737"><ele>921.0</ele><time>2026-04-05T10:11:53.999Z</time></trkpt><trkpt lat="44.8958978985486" lon="3.2623597434026523"><ele>921.0</ele><time>2026-04-05T10:11:54.999Z</time></trkpt><trkpt lat="44.895988996073605" lon="3.262229914048814"><ele>921.0</ele><time>2026-04-05T10:11:55.999Z</time></trkpt><trkpt lat="44.89607966699121" lon="3.262087611362422"><ele>921.0</ele><time>2026-04-05T10:11:56.999Z</time></trkpt><trkpt lat="44.89618942073395" lon="3.2619525946996606"><ele>918.0</ele><time>2026-04-05T10:11:57.999Z</time></trkpt><trkpt lat="44.896308430276356" lon="3.2618341737865584"><ele>915.0</ele><time>2026-04-05T10:11:58.999Z</time></trkpt><trkpt lat="44.89643329378681" lon="3.2617335280592936"><ele>912.0</ele><time>2026-04-05T10:11:59.999Z</time></trkpt><trkpt lat="44.896529686165415" lon="3.2616144470591353"><ele>909.0</ele><time>2026-04-05T10:12:00.999Z</time></trkpt><trkpt lat="44.89661401840573" lon="3.2614868039113154"><ele>909.5</ele><time>2026-04-05T10:12:01.999Z</time></trkpt><trkpt lat="44.89668360997862" lon="3.261345758775523"><ele>910.0</ele><time>2026-04-05T10:12:02.999Z</time></trkpt><trkpt lat="44.89673849941031" lon="3.261207210527276"><ele>910.5</ele><time>2026-04-05T10:12:03.999Z</time></trkpt><trkpt lat="44.8967894954532" lon="3.2610750587393595"><ele>911.0</ele><time>2026-04-05T10:12:04.999Z</time></trkpt><trkpt lat="44.89684834549273" lon="3.260945532434212"><ele>906.5</ele><time>2026-04-05T10:12:05.999Z</time></trkpt><trkpt lat="44.896916415982375" lon="3.260794641590649"><ele>902.0</ele><time>2026-04-05T10:12:06.999Z</time></trkpt><trkpt lat="44.89699153685899" lon="3.260691195336011"><ele>897.5</ele><time>2026-04-05T10:12:08Z</time></trkpt><trkpt lat="44.897085059570706" lon="3.2606155318980647"><ele>893.0</ele><time>2026-04-05T10:12:09Z</time></trkpt><trkpt lat="44.897189850055454" lon="3.2605620559877018"><ele>888.5</ele><time>2026-04-05T10:12:10Z</time></trkpt><trkpt lat="44.89730044505867" lon="3.2605240367498687"><ele>884.0</ele><time>2026-04-05T10:12:11Z</time></trkpt><trkpt lat="44.89743307570516" lon="3.260493041762997"><ele>879.5</ele><time>2026-04-05T10:12:12Z</time></trkpt><trkpt lat="44.897581144351676" lon="3.260496543748685"><ele>875.0</ele><time>2026-04-05T10:12:13Z</time></trkpt><trkpt lat="44.8977331372288" lon="3.2605033734604367"><ele>874.75</ele><time>2026-04-05T10:12:14Z</time></trkpt><trkpt lat="44.897899091320255" lon="3.2604939465181477"><ele>874.5</ele><time>2026-04-05T10:12:15Z</time></trkpt><trkpt lat="44.89804958800465" lon="3.2604976652299325"><ele>874.25</ele><time>2026-04-05T10:12:16Z</time></trkpt><trkpt lat="44.89816931713043" lon="3.2605110026173607"><ele>874.0</ele><time>2026-04-05T10:12:17Z</time></trkpt><trkpt lat="44.898287240182356" lon="3.2605384438730214"><ele>874.0</ele><time>2026-04-05T10:12:18Z</time></trkpt><trkpt lat="44.8984120863686" lon="3.2605817897198044"><ele>874.0</ele><time>2026-04-05T10:12:19Z</time></trkpt><trkpt lat="44.89853632823972" lon="3.26062679760279"><ele>874.0</ele><time>2026-04-05T10:12:20Z</time></trkpt><trkpt lat="44.89867278753356" lon="3.2606717815564354"><ele>874.0</ele><time>2026-04-05T10:12:21Z</time></trkpt><trkpt lat="44.89879942224204" lon="3.2607017514352465"><ele>875.0</ele><time>2026-04-05T10:12:22Z</time></trkpt><trkpt lat="44.898916002981615" lon="3.260726519696533"><ele>876.0000000000001</ele><time>2026-04-05T10:12:23Z</time></trkpt><trkpt lat="44.899025643389535" lon="3.260749624451474"><ele>877.0000000000001</ele><time>2026-04-05T10:12:24Z</time></trkpt><trkpt lat="44.89913632917519" lon="3.260772941577843"><ele>878.0</ele><time>2026-04-05T10:12:25Z</time></trkpt><trkpt lat="44.899237452953514" lon="3.260819844977184"><ele>879.0</ele><time>2026-04-05T10:12:26Z</time></trkpt><trkpt lat="44.89933890553633" lon="3.2608900274415307"><ele>879.0</ele><time>2026-04-05T10:12:27Z</time></trkpt><trkpt lat="44.899448500638236" lon="3.260959927031818"><ele>879.0</ele><time>2026-04-05T10:12:28Z</time></trkpt><trkpt lat="44.899558704799794" lon="3.261045625261232"><ele>879.0</ele><time>2026-04-05T10:12:29Z</time></trkpt><trkpt lat="44.89967710356991" lon="3.2611348572040755"><ele>879.0</ele><time>2026-04-05T10:12:30Z</time></trkpt><trkpt lat="44.899818135614645" lon="3.2612032043773036"><ele>879.0</ele><time>2026-04-05T10:12:31Z</time></trkpt><trkpt lat="44.89997985682793" lon="3.2612523281801944"><ele>879.0</ele><time>2026-04-05T10:12:32Z</time></trkpt><trkpt lat="44.90014917457352" lon="3.2612796584438164"><ele>879.0</ele><time>2026-04-05T10:12:33Z</time></trkpt><trkpt lat="44.900330316059296" lon="3.2612921408144624"><ele>878.6666666666667</ele><time>2026-04-05T10:12:34Z</time></trkpt><trkpt lat="44.90051694017922" lon="3.261289933585627"><ele>878.3333333333334</ele><time>2026-04-05T10:12:35Z</time></trkpt><trkpt lat="44.90066640348134" lon="3.2612796452663995"><ele>878.0</ele><time>2026-04-05T10:12:36Z</time></trkpt><trkpt lat="44.90079559679011" lon="3.261257089614777"><ele>877.25</ele><time>2026-04-05T10:12:37Z</time></trkpt><trkpt lat="44.90093247175074" lon="3.261225456005823"><ele>876.5</ele><time>2026-04-05T10:12:38Z</time></trkpt><trkpt lat="44.901063735229954" lon="3.261196117007454"><ele>875.75</ele><time>2026-04-05T10:12:39Z</time></trkpt><trkpt lat="44.90119433607633" lon="3.261166006643009"><ele>875.0</ele><time>2026-04-05T10:12:40Z</time></trkpt><trkpt lat="44.901323911902935" lon="3.261112915973718"><ele>875.0</ele><time>2026-04-05T10:12:41Z</time></trkpt><trkpt lat="44.90145191489023" lon="3.2610572817879753"><ele>875.0</ele><time>2026-04-05T10:12:42Z</time></trkpt><trkpt lat="44.901576494497995" lon="3.2610023550417333"><ele>875.0</ele><time>2026-04-05T10:12:43Z</time></trkpt><trkpt lat="44.901708945154056" lon="3.2609494055136903"><ele>875.0</ele><time>2026-04-05T10:12:44Z</time></trkpt><trkpt lat="44.90183660511334" lon="3.2609014284389586"><ele>873.0</ele><time>2026-04-05T10:12:45Z</time></trkpt><trkpt lat="44.9019645223957" lon="3.2608613952955023"><ele>871.0</ele><time>2026-04-05T10:12:46Z</time></trkpt><trkpt lat="44.90209395328615" lon="3.2608202826325305"><ele>869.0</ele><time>2026-04-05T10:12:47Z</time></trkpt><trkpt lat="44.90222678206709" lon="3.260817353643077"><ele>867.0</ele><time>2026-04-05T10:12:48Z</time></trkpt><trkpt lat="44.902381423434015" lon="3.260838745365812"><ele>867.0</ele><time>2026-04-05T10:12:49Z</time></trkpt><trkpt lat="44.902526149959485" lon="3.260846772125287"><ele>867.0</ele><time>2026-04-05T10:12:50Z</time></trkpt><trkpt lat="44.90266767794396" lon="3.2608464672987556"><ele>867.0</ele><time>2026-04-05T10:12:51Z</time></trkpt><trkpt lat="44.90282249844205" lon="3.260849709501888"><ele>867.0</ele><time>2026-04-05T10:12:52Z</time></trkpt><trkpt lat="44.90296790839541" lon="3.260864652375222"><ele>862.75</ele><time>2026-04-05T10:12:53Z</time></trkpt><trkpt lat="44.903086415486676" lon="3.2608997143718645"><ele>858.5</ele><time>2026-04-05T10:12:54Z</time></trkpt><trkpt lat="44.903203301204" lon="3.260936226575476"><ele>854.25</ele><time>2026-04-05T10:12:55Z</time></trkpt><trkpt lat="44.90331981446811" lon="3.2609231330756017"><ele>850.0</ele><time>2026-04-05T10:12:56Z</time></trkpt><trkpt lat="44.90341512316949" lon="3.260891324500885"><ele>844.8</ele><time>2026-04-05T10:12:57Z</time></trkpt><trkpt lat="44.90351538863921" lon="3.2608577653317377"><ele>839.6</ele><time>2026-04-05T10:12:58Z</time></trkpt><trkpt lat="44.90361671728896" lon="3.260852451783259"><ele>834.4000000000001</ele><time>2026-04-05T10:12:59Z</time></trkpt><trkpt lat="44.903710184366915" lon="3.2608756333361515"><ele>829.2</ele><time>2026-04-05T10:13:00Z</time></trkpt><trkpt lat="44.9037774909513" lon="3.260930886374174"><ele>824.0</ele><time>2026-04-05T10:13:01Z</time></trkpt><trkpt lat="44.903856546545654" lon="3.2609672860196977"><ele>824.0</ele><time>2026-04-05T10:13:03Z</time></trkpt><trkpt lat="44.903902989965104" lon="3.260878517261323"><ele>824.0</ele><time>2026-04-05T10:13:04.999Z</time></trkpt><trkpt lat="44.90391229200007" lon="3.2607282560085213"><ele>824.0</ele><time>2026-04-05T10:13:06.999Z</time></trkpt><trkpt lat="44.9039279034351" lon="3.260578599993584"><ele>824.0</ele><time>2026-04-05T10:13:08.999Z</time></trkpt><trkpt lat="44.9039114525485" lon="3.2604246414768365"><ele>824.0</ele><time>2026-04-05T10:13:10.999Z</time></trkpt><trkpt lat="44.9038935603103" lon="3.260222289438799"><ele>822.1666666666667</ele><time>2026-04-05T10:13:12.999Z</time></trkpt><trkpt lat="44.9038797051066" lon="3.260102452058472"><ele>820.3333333333334</ele><time>2026-04-05T10:13:14.999Z</time></trkpt><trkpt lat="44.90380909621582" lon="3.2600395005752243"><ele>818.5</ele><time>2026-04-05T10:13:16.999Z</time></trkpt><trkpt lat="44.90373246154139" lon="3.2600023799607842"><ele>816.6666666666667</ele><time>2026-04-05T10:13:18.999Z</time></trkpt><trkpt lat="44.90363101574491" lon="3.259969205597458"><ele>814.8333333333334</ele><time>2026-04-05T10:13:20.999Z</time></trkpt><trkpt lat="44.90355064868776" lon="3.2599588055982585"><ele>813.0</ele><time>2026-04-05T10:13:22.999Z</time></trkpt><trkpt lat="44.903445220760204" lon="3.2599199147610536"><ele>811.8333333333334</ele><time>2026-04-05T10:13:24.999Z</time></trkpt><trkpt lat="44.90334044310564" lon="3.259851927526159"><ele>810.6666666666667</ele><time>2026-04-05T10:13:26.999Z</time></trkpt><trkpt lat="44.90327820986725" lon="3.2598077060827793"><ele>809.5</ele><time>2026-04-05T10:13:27.999Z</time></trkpt><trkpt lat="44.90320992145686" lon="3.2597863251808863"><ele>808.3333333333334</ele><time>2026-04-05T10:13:28.999Z</time></trkpt><trkpt lat="44.90311694357306" lon="3.2597445430908034"><ele>807.1666666666667</ele><time>2026-04-05T10:13:29.999Z</time></trkpt><trkpt lat="44.90304747417598" lon="3.259693251124089"><ele>806.0</ele><time>2026-04-05T10:13:30.999Z</time></trkpt><trkpt lat="44.90300146602389" lon="3.259630013365834"><ele>806.0000000000001</ele><time>2026-04-05T10:13:31.999Z</time></trkpt><trkpt lat="44.902950572839885" lon="3.259567087162583"><ele>806.0</ele><time>2026-04-05T10:13:32.999Z</time></trkpt><trkpt lat="44.90291446349407" lon="3.259463088091048"><ele>806.0</ele><time>2026-04-05T10:13:34.999Z</time></trkpt><trkpt lat="44.90286722690306" lon="3.2593714088547325"><ele>806.0</ele><time>2026-04-05T10:13:37.999Z</time></trkpt><trkpt lat="44.90280020919237" lon="3.2593160847223444"><ele>806.0000000000001</ele><time>2026-04-05T10:13:39.999Z</time></trkpt><trkpt lat="44.90277682779718" lon="3.2592162248082186"><ele>806.0</ele><time>2026-04-05T10:13:41.999Z</time></trkpt><trkpt lat="44.90286161526417" lon="3.2591425156884815"><ele>806.0</ele><time>2026-04-05T10:13:43.999Z</time></trkpt><trkpt lat="44.90304645961885" lon="3.2591185730357712"><ele>806.0</ele><time>2026-04-05T10:13:49.999Z</time></trkpt><trkpt lat="44.903186444720944" lon="3.25911390708899"><ele>806.0</ele><time>2026-04-05T10:13:55.999Z</time></trkpt><trkpt lat="44.903243561613856" lon="3.2590610910315396"><ele>806.0</ele><time>2026-04-05T10:13:59.999Z</time></trkpt><trkpt lat="44.903232264541025" lon="3.2589681223629987"><ele>808.0000000000001</ele><time>2026-04-05T10:19:31.999Z</time></trkpt><trkpt lat="44.9031780265564" lon="3.258919667969256"><ele>810.0</ele><time>2026-04-05T10:19:34.999Z</time></trkpt><trkpt lat="44.90311366375376" lon="3.2588369672410855"><ele>812.0</ele><time>2026-04-05T10:19:42.999Z</time></trkpt><trkpt lat="44.9030889698776" lon="3.2587322528643283"><ele>814.0</ele><time>2026-04-05T10:19:44.999Z</time></trkpt><trkpt lat="44.90317015222116" lon="3.2586291829033858"><ele>816.0000000000001</ele><time>2026-04-05T10:19:46.999Z</time></trkpt><trkpt lat="44.903216943922914" lon="3.2585582284946963"><ele>818.0</ele><time>2026-04-05T10:19:48.999Z</time></trkpt><trkpt lat="44.90326161313714" lon="3.2584950980833804"><ele>818.0000000000001</ele><time>2026-04-05T10:20:49Z</time></trkpt><trkpt lat="44.90331626193671" lon="3.2584319417635172"><ele>818.0</ele><time>2026-04-05T10:21:03Z</time></trkpt><trkpt lat="44.90337326624067" lon="3.25836632876811"><ele>818.0</ele><time>2026-04-05T10:21:06.999Z</time></trkpt><trkpt lat="44.90343320326089" lon="3.2583192574105757"><ele>818.0</ele><time>2026-04-05T10:21:21.999Z</time></trkpt><trkpt lat="44.90347811625712" lon="3.258251966385431"><ele>818.0000000000001</ele><time>2026-04-05T10:21:29.999Z</time></trkpt><trkpt lat="44.90355676749635" lon="3.258145179452717"><ele>818.0</ele><time>2026-04-05T10:22:45Z</time></trkpt><trkpt lat="44.90357134386946" lon="3.25803881122772"><ele>816.5714285714286</ele><time>2026-04-05T10:23:07.999Z</time></trkpt><trkpt lat="44.90355734646235" lon="3.2579391371342132"><ele>815.1428571428572</ele><time>2026-04-05T10:23:10.999Z</time></trkpt><trkpt lat="44.90363110920811" lon="3.257911345564851"><ele>813.7142857142858</ele><time>2026-04-05T10:30:56.999Z</time></trkpt><trkpt lat="44.903649294827815" lon="3.2579985617771237"><ele>812.2857142857142</ele><time>2026-04-05T10:31:00Z</time></trkpt><trkpt lat="44.90367029929844" lon="3.2581168312897724"><ele>810.8571428571429</ele><time>2026-04-05T10:31:05Z</time></trkpt><trkpt lat="44.903643466938945" lon="3.258198907715629"><ele>809.4285714285714</ele><time>2026-04-05T10:31:09Z</time></trkpt><trkpt lat="44.90359065481395" lon="3.258137351290117"><ele>808.0</ele><time>2026-04-05T10:31:40Z</time></trkpt><trkpt lat="44.9035792881793" lon="3.258022381142423"><ele>807.9999999999999</ele><time>2026-04-05T10:31:42Z</time></trkpt><trkpt lat="44.903515843325245" lon="3.2579476809098207"><ele>808.0</ele><time>2026-04-05T10:31:44Z</time></trkpt><trkpt lat="44.90346635087642" lon="3.257824410550764"><ele>808.0</ele><time>2026-04-05T10:31:46Z</time></trkpt><trkpt lat="44.90345781397647" lon="3.257921171381656"><ele>808.0</ele><time>2026-04-05T10:32:31.999Z</time></trkpt><trkpt lat="44.903525138334125" lon="3.257977015105166"><ele>807.9999999999999</ele><time>2026-04-05T10:32:35.999Z</time></trkpt><trkpt lat="44.903557146647465" lon="3.258076525721025"><ele>808.0</ele><time>2026-04-05T10:32:42.999Z</time></trkpt><trkpt lat="44.903589433338716" lon="3.2581945606316536"><ele>807.9999999999999</ele><time>2026-04-05T10:32:57.999Z</time></trkpt><trkpt lat="44.90361377964381" lon="3.258100041454657"><ele>808.0</ele><time>2026-04-05T10:33:06Z</time></trkpt><trkpt lat="44.90355389928173" lon="3.2579868512394716"><ele>808.0</ele><time>2026-04-05T10:33:09Z</time></trkpt><trkpt lat="44.90347367247424" lon="3.2579154074802363"><ele>808.0</ele><time>2026-04-05T10:33:11Z</time></trkpt><trkpt lat="44.90340889707063" lon="3.2578397311118765"><ele>807.9999999999999</ele><time>2026-04-05T10:33:13Z</time></trkpt><trkpt lat="44.90335793470249" lon="3.257747374726792"><ele>808.0</ele><time>2026-04-05T10:33:16Z</time></trkpt><trkpt lat="44.90331570871201" lon="3.2576787475498854"><ele>808.0</ele><time>2026-04-05T10:33:18Z</time></trkpt><trkpt lat="44.90327265001618" lon="3.257606996564585"><ele>808.0</ele><time>2026-04-05T10:35:31Z</time></trkpt><trkpt lat="44.90329470613042" lon="3.257695713004917"><ele>808.0</ele><time>2026-04-05T10:36:22.999Z</time></trkpt><trkpt lat="44.90335629055116" lon="3.2577382525257095"><ele>808.0</ele><time>2026-04-05T10:36:27.999Z</time></trkpt><trkpt lat="44.9034805915539" lon="3.2579404707817488"><ele>808.0</ele><time>2026-04-05T10:36:40.999Z</time></trkpt><trkpt lat="44.90354712461918" lon="3.2578943545034775"><ele>808.0</ele><time>2026-04-05T10:36:55.999Z</time></trkpt><trkpt lat="44.90356387873883" lon="3.2577464929174753"><ele>808.0</ele><time>2026-04-05T10:36:58.999Z</time></trkpt><trkpt lat="44.90358003358611" lon="3.257609872072"><ele>808.0</ele><time>2026-04-05T10:37:00.999Z</time></trkpt><trkpt lat="44.90361656994741" lon="3.257449028276026"><ele>808.0</ele><time>2026-04-05T10:37:02.999Z</time></trkpt><trkpt lat="44.90363201623441" lon="3.257347283791816"><ele>808.0</ele><time>2026-04-05T10:37:03.999Z</time></trkpt><trkpt lat="44.903636122040844" lon="3.2572505260511697"><ele>812.0</ele><time>2026-04-05T10:37:04.999Z</time></trkpt><trkpt lat="44.90364608850676" lon="3.257153447433748"><ele>816.0</ele><time>2026-04-05T10:37:05.999Z</time></trkpt><trkpt lat="44.90368119094845" lon="3.257058962985424"><ele>820.0</ele><time>2026-04-05T10:37:06.999Z</time></trkpt><trkpt lat="44.90370987393934" lon="3.2569634192370542"><ele>824.0</ele><time>2026-04-05T10:37:07.999Z</time></trkpt><trkpt lat="44.903729254867066" lon="3.2568708421405104"><ele>828.0</ele><time>2026-04-05T10:37:08.999Z</time></trkpt><trkpt lat="44.903744301461366" lon="3.2567678901902437"><ele>832.0</ele><time>2026-04-05T10:37:09.999Z</time></trkpt><trkpt lat="44.90376562900647" lon="3.2566676085568385"><ele>836.0</ele><time>2026-04-05T10:37:10.999Z</time></trkpt><trkpt lat="44.90378593024419" lon="3.2565777380174716"><ele>841.6666666666667</ele><time>2026-04-05T10:37:11.999Z</time></trkpt><trkpt lat="44.90383163175291" lon="3.2564058658377486"><ele>847.3333333333334</ele><time>2026-04-05T10:37:13.999Z</time></trkpt><trkpt lat="44.903871708127724" lon="3.2563189382587194"><ele>853.0</ele><time>2026-04-05T10:37:14.999Z</time></trkpt><trkpt lat="44.9039092534617" lon="3.256240540986202"><ele>858.6666666666667</ele><time>2026-04-05T10:37:17Z</time></trkpt><trkpt lat="44.903976460874475" lon="3.2561896306498093"><ele>864.3333333333334</ele><time>2026-04-05T10:41:39Z</time></trkpt><trkpt lat="44.90401707732508" lon="3.256098737826808"><ele>870.0</ele><time>2026-04-05T10:45:21.999Z</time></trkpt><trkpt lat="44.904076853353075" lon="3.2560382224272737"><ele>870.0</ele><time>2026-04-05T10:45:24.999Z</time></trkpt><trkpt lat="44.90418528160302" lon="3.2559825222406618"><ele>870.0</ele><time>2026-04-05T10:45:26.999Z</time></trkpt><trkpt lat="44.90429322050825" lon="3.2559562292555015"><ele>870.0</ele><time>2026-04-05T10:45:28.999Z</time></trkpt><trkpt lat="44.904420988386015" lon="3.255768281523379"><ele>870.0</ele><time>2026-04-05T10:45:34.998Z</time></trkpt><trkpt lat="44.90445811422399" lon="3.255651932497581"><ele>871.8571428571429</ele><time>2026-04-05T10:45:46Z</time></trkpt><trkpt lat="44.90449382548221" lon="3.2555785246525115"><ele>873.7142857142858</ele><time>2026-04-05T10:48:41.999Z</time></trkpt><trkpt lat="44.90449853918425" lon="3.2554717347413438"><ele>875.5714285714287</ele><time>2026-04-05T10:50:33.999Z</time></trkpt><trkpt lat="44.904543376551565" lon="3.255391906945966"><ele>877.4285714285714</ele><time>2026-04-05T10:54:00.998Z</time></trkpt><trkpt lat="44.90459959937269" lon="3.255316667075272"><ele>879.2857142857142</ele><time>2026-04-05T10:54:04Z</time></trkpt><trkpt lat="44.904646357372314" lon="3.2552442838828766"><ele>881.1428571428572</ele><time>2026-04-05T10:54:06Z</time></trkpt><trkpt lat="44.90468079607682" lon="3.255140074970991"><ele>883.0</ele><time>2026-04-05T10:54:08Z</time></trkpt><trkpt lat="44.90471160643231" lon="3.255021109701506"><ele>883.0</ele><time>2026-04-05T10:54:10Z</time></trkpt><trkpt lat="44.90475931528794" lon="3.2549024492589456"><ele>883.0</ele><time>2026-04-05T10:54:12Z</time></trkpt><trkpt lat="44.904852612619266" lon="3.2547626842381283"><ele>883.0</ele><time>2026-04-05T10:54:14Z</time></trkpt><trkpt lat="44.904906058901126" lon="3.2546928106954374"><ele>883.0</ele><time>2026-04-05T10:54:15Z</time></trkpt><trkpt lat="44.905003105595256" lon="3.2544681417970303"><ele>882.0</ele><time>2026-04-05T10:54:17Z</time></trkpt><trkpt lat="44.90506589971983" lon="3.254336434741639"><ele>881.0</ele><time>2026-04-05T10:54:19Z</time></trkpt><trkpt lat="44.905085832786895" lon="3.2542475655593854"><ele>880.0</ele><time>2026-04-05T10:54:20Z</time></trkpt><trkpt lat="44.905123661577754" lon="3.254124438068076"><ele>879.0</ele><time>2026-04-05T10:54:22Z</time></trkpt><trkpt lat="44.905170075213086" lon="3.253976975550071"><ele>878.0</ele><time>2026-04-05T10:54:23.999Z</time></trkpt><trkpt lat="44.9052145405137" lon="3.2538798353139082"><ele>882.3333333333334</ele><time>2026-04-05T10:54:24.999Z</time></trkpt><trkpt lat="44.90525377753046" lon="3.2537968879606796"><ele>886.6666666666667</ele><time>2026-04-05T10:54:25.999Z</time></trkpt><trkpt lat="44.90530929807589" lon="3.2536917408616106"><ele>891.0</ele><time>2026-04-05T10:54:27.999Z</time></trkpt><trkpt lat="44.90533802415125" lon="3.2535846792510035"><ele>895.3333333333333</ele><time>2026-04-05T10:54:29.999Z</time></trkpt><trkpt lat="44.90524313919241" lon="3.2536418413873913"><ele>899.6666666666666</ele><time>2026-04-05T10:54:32.999Z</time></trkpt><trkpt lat="44.905189389412435" lon="3.2536913752708236"><ele>904.0</ele><time>2026-04-05T10:54:33.999Z</time></trkpt><trkpt lat="44.90511018718154" lon="3.2537286556062504"><ele>904.25</ele><time>2026-04-05T10:54:34.999Z</time></trkpt><trkpt lat="44.905020264480825" lon="3.253787478573855"><ele>904.5</ele><time>2026-04-05T10:54:35.999Z</time></trkpt><trkpt lat="44.90490789436233" lon="3.253880168559124"><ele>904.75</ele><time>2026-04-05T10:54:36.999Z</time></trkpt><trkpt lat="44.90476983532252" lon="3.2540048269466473"><ele>905.0</ele><time>2026-04-05T10:54:37.999Z</time></trkpt><trkpt lat="44.90467166020672" lon="3.254094254373544"><ele>905.0000000000001</ele><time>2026-04-05T10:54:38.999Z</time></trkpt><trkpt lat="44.90459160932859" lon="3.254156222018556"><ele>905.0</ele><time>2026-04-05T10:54:40.999Z</time></trkpt><trkpt lat="44.90461422466462" lon="3.253968207526807"><ele>905.0</ele><time>2026-04-05T10:54:43.999Z</time></trkpt><trkpt lat="44.90467306599281" lon="3.253906869350912"><ele>905.0</ele><time>2026-04-05T10:54:44.999Z</time></trkpt><trkpt lat="44.90472799418602" lon="3.2538498230404764"><ele>905.0000000000001</ele><time>2026-04-05T10:54:45.999Z</time></trkpt><trkpt lat="44.9047705816127" lon="3.2537712200532565"><ele>905.0</ele><time>2026-04-05T10:54:46.999Z</time></trkpt><trkpt lat="44.90482678365342" lon="3.2536460519548926"><ele>904.75</ele><time>2026-04-05T10:54:47.999Z</time></trkpt><trkpt lat="44.904893637746724" lon="3.2534931900315276"><ele>904.5</ele><time>2026-04-05T10:54:48.999Z</time></trkpt><trkpt lat="44.90497585740767" lon="3.253316231367535"><ele>904.25</ele><time>2026-04-05T10:54:49.999Z</time></trkpt><trkpt lat="44.90505467780738" lon="3.2532166198454116"><ele>904.0</ele><time>2026-04-05T10:54:50.999Z</time></trkpt><trkpt lat="44.905109491572034" lon="3.253126044648934"><ele>908.6</ele><time>2026-04-05T10:54:51.999Z</time></trkpt><trkpt lat="44.90514155217906" lon="3.253027645397243"><ele>913.2</ele><time>2026-04-05T10:54:52.999Z</time></trkpt><trkpt lat="44.90515156400567" lon="3.252922078168733"><ele>917.8000000000001</ele><time>2026-04-05T10:54:53.999Z</time></trkpt><trkpt lat="44.905128049214866" lon="3.252771754254647"><ele>922.4000000000001</ele><time>2026-04-05T10:54:55.999Z</time></trkpt><trkpt lat="44.9051566586986" lon="3.252626598982493"><ele>927.0</ele><time>2026-04-05T10:54:57.999Z</time></trkpt><trkpt lat="44.905237962566986" lon="3.252528696445244"><ele>927.0</ele><time>2026-04-05T10:54:59.999Z</time></trkpt><trkpt lat="44.905351738185956" lon="3.2524857751346796"><ele>927.0</ele><time>2026-04-05T10:55:01.999Z</time></trkpt><trkpt lat="44.90541029726786" lon="3.2524323017590113"><ele>927.0</ele><time>2026-04-05T10:55:02.999Z</time></trkpt><trkpt lat="44.90544697709036" lon="3.252354558164889"><ele>927.0</ele><time>2026-04-05T10:55:03.999Z</time></trkpt><trkpt lat="44.905432706727474" lon="3.2521826904840228"><ele>927.0</ele><time>2026-04-05T10:55:05.999Z</time></trkpt><trkpt lat="44.90536522449751" lon="3.2521183858444287"><ele>931.0</ele><time>2026-04-05T10:55:06.999Z</time></trkpt><trkpt lat="44.905311138127736" lon="3.2520406788723917"><ele>935.0</ele><time>2026-04-05T10:55:07.999Z</time></trkpt><trkpt lat="44.90524753690524" lon="3.2519476846833517"><ele>939.0</ele><time>2026-04-05T10:55:08.999Z</time></trkpt><trkpt lat="44.90513966359174" lon="3.2518110231633286"><ele>943.0</ele><time>2026-04-05T10:55:09.999Z</time></trkpt><trkpt lat="44.90506297278662" lon="3.251644482767596"><ele>945.2</ele><time>2026-04-05T10:55:10.999Z</time></trkpt><trkpt lat="44.905005501473696" lon="3.2515031936364975"><ele>947.4</ele><time>2026-04-05T10:55:11.999Z</time></trkpt><trkpt lat="44.90497658122875" lon="3.25136499498767"><ele>949.6000000000001</ele><time>2026-04-05T10:55:12.999Z</time></trkpt><trkpt lat="44.90496653424449" lon="3.2512181589160276"><ele>951.8000000000001</ele><time>2026-04-05T10:55:13.999Z</time></trkpt><trkpt lat="44.90498355297987" lon="3.25107425336995"><ele>954.0</ele><time>2026-04-05T10:55:14.999Z</time></trkpt><trkpt lat="44.90499669403547" lon="3.250976598559584"><ele>954.0</ele><time>2026-04-05T10:55:15.999Z</time></trkpt><trkpt lat="44.90492340379867" lon="3.2508677258995906"><ele>954.0000000000001</ele><time>2026-04-05T10:55:17.999Z</time></trkpt><trkpt lat="44.90484992155013" lon="3.250841406328854"><ele>954.0000000000001</ele><time>2026-04-05T10:55:18.999Z</time></trkpt><trkpt lat="44.90475359924149" lon="3.250842044727899"><ele>954.0</ele><time>2026-04-05T10:55:19.999Z</time></trkpt><trkpt lat="44.90463576227785" lon="3.2508354897704135"><ele>954.0</ele><time>2026-04-05T10:55:20.999Z</time></trkpt><trkpt lat="44.9045113505775" lon="3.250794435521131"><ele>954.0</ele><time>2026-04-05T10:55:21.999Z</time></trkpt><trkpt lat="44.90439172835875" lon="3.250725239220391"><ele>954.0</ele><time>2026-04-05T10:55:22.999Z</time></trkpt><trkpt lat="44.90426452595331" lon="3.2506308085269477"><ele>954.0</ele><time>2026-04-05T10:55:23.999Z</time></trkpt><trkpt lat="44.904152954409426" lon="3.2505271040951946"><ele>954.0</ele><time>2026-04-05T10:55:24.999Z</time></trkpt><trkpt lat="44.90404144927988" lon="3.250433813751592"><ele>954.25</ele><time>2026-04-05T10:55:25.999Z</time></trkpt><trkpt lat="44.90394728874908" lon="3.2502934292284085"><ele>954.5</ele><time>2026-04-05T10:55:26.999Z</time></trkpt><trkpt lat="44.90387504835516" lon="3.2501186667853434"><ele>954.75</ele><time>2026-04-05T10:55:27.999Z</time></trkpt><trkpt lat="44.90382731676284" lon="3.2499288262966344"><ele>955.0</ele><time>2026-04-05T10:55:28.999Z</time></trkpt><trkpt lat="44.90379012296441" lon="3.2497682044527796"><ele>954.4</ele><time>2026-04-05T10:55:29.999Z</time></trkpt><trkpt lat="44.90375213058006" lon="3.249634666556123"><ele>953.8</ele><time>2026-04-05T10:55:30.999Z</time></trkpt><trkpt lat="44.9036987812353" lon="3.2495144394367816"><ele>953.2</ele><time>2026-04-05T10:55:31.999Z</time></trkpt><trkpt lat="44.90364512095801" lon="3.249424933190204"><ele>952.6</ele><time>2026-04-05T10:55:32.998Z</time></trkpt><trkpt lat="44.90359327739474" lon="3.2493617051519585"><ele>952.0</ele><time>2026-04-05T10:55:33.998Z</time></trkpt><trkpt lat="44.90347995425761" lon="3.2492097479083375"><ele>955.0</ele><time>2026-04-05T10:55:35.998Z</time></trkpt><trkpt lat="44.90338707908837" lon="3.2491023844675966"><ele>958.0</ele><time>2026-04-05T10:55:36.998Z</time></trkpt><trkpt lat="44.90329910057344" lon="3.2489762097337826"><ele>961.0</ele><time>2026-04-05T10:55:37.998Z</time></trkpt><trkpt lat="44.90325842387865" lon="3.248799169189419"><ele>964.0</ele><time>2026-04-05T10:55:38.998Z</time></trkpt><trkpt lat="44.90324201669227" lon="3.248610888755771"><ele>964.0</ele><time>2026-04-05T10:55:39.998Z</time></trkpt><trkpt lat="44.90326286257484" lon="3.248407879824369"><ele>964.0</ele><time>2026-04-05T10:55:40.998Z</time></trkpt><trkpt lat="44.90331206298555" lon="3.2482020029353724"><ele>964.0</ele><time>2026-04-05T10:55:41.998Z</time></trkpt><trkpt lat="44.90337513024154" lon="3.247971067513783"><ele>965.0</ele><time>2026-04-05T10:55:42.998Z</time></trkpt><trkpt lat="44.90339863894018" lon="3.2477802112339784"><ele>966.0000000000001</ele><time>2026-04-05T10:55:43.998Z</time></trkpt><trkpt lat="44.903402452294074" lon="3.247666563701385"><ele>967.0000000000001</ele><time>2026-04-05T10:55:44.998Z</time></trkpt><trkpt lat="44.90338576567894" lon="3.2475728342619568"><ele>968.0</ele><time>2026-04-05T10:55:45.998Z</time></trkpt><trkpt lat="44.9033349341715" lon="3.2474923949366286"><ele>969.0</ele><time>2026-04-05T10:55:46.998Z</time></trkpt><trkpt lat="44.90324227219292" lon="3.2474079774654023"><ele>969.0</ele><time>2026-04-05T10:55:47.998Z</time></trkpt><trkpt lat="44.90312273454309" lon="3.247312822499331"><ele>969.0</ele><time>2026-04-05T10:55:48.998Z</time></trkpt><trkpt lat="44.903001917816226" lon="3.2472292395164"><ele>969.0</ele><time>2026-04-05T10:55:49.998Z</time></trkpt><trkpt lat="44.90287583593388" lon="3.24712997775844"><ele>969.0</ele><time>2026-04-05T10:55:50.998Z</time></trkpt><trkpt lat="44.902751982778305" lon="3.2470293043692235"><ele>968.75</ele><time>2026-04-05T10:55:51.998Z</time></trkpt><trkpt lat="44.902636789068836" lon="3.246906474052842"><ele>968.5</ele><time>2026-04-05T10:55:52.998Z</time></trkpt><trkpt lat="44.902549815259285" lon="3.2467474197917565"><ele>968.25</ele><time>2026-04-05T10:55:53.998Z</time></trkpt><trkpt lat="44.90247493558439" lon="3.246552485638838"><ele>968.0</ele><time>2026-04-05T10:55:54.998Z</time></trkpt><trkpt lat="44.90240043443976" lon="3.246355737753168"><ele>970.3333333333334</ele><time>2026-04-05T10:55:55.998Z</time></trkpt><trkpt lat="44.90231236313073" lon="3.246160565804656"><ele>972.6666666666667</ele><time>2026-04-05T10:55:56.998Z</time></trkpt><trkpt lat="44.90220872792481" lon="3.2459881889324462"><ele>975.0</ele><time>2026-04-05T10:55:57.998Z</time></trkpt><trkpt lat="44.90210293834641" lon="3.245821638565383"><ele>975.0</ele><time>2026-04-05T10:55:58.998Z</time></trkpt><trkpt lat="44.901989887707316" lon="3.2456672879677755"><ele>975.0</ele><time>2026-04-05T10:55:59.998Z</time></trkpt><trkpt lat="44.90187184395903" lon="3.2455102386548083"><ele>975.0</ele><time>2026-04-05T10:56:00.998Z</time></trkpt><trkpt lat="44.90177293912375" lon="3.245360561704582"><ele>975.6</ele><time>2026-04-05T10:56:01.998Z</time></trkpt><trkpt lat="44.90169140350659" lon="3.2452133799262444"><ele>976.2</ele><time>2026-04-05T10:56:02.998Z</time></trkpt><trkpt lat="44.9016200131639" lon="3.2450949394297135"><ele>976.8</ele><time>2026-04-05T10:56:03.998Z</time></trkpt><trkpt lat="44.901549445059594" lon="3.2449953342466102"><ele>977.4</ele><time>2026-04-05T10:56:04.998Z</time></trkpt><trkpt lat="44.90148729284083" lon="3.2449215461579697"><ele>978.0</ele><time>2026-04-05T10:56:05.998Z</time></trkpt><trkpt lat="44.901435066172475" lon="3.2448579954828785"><ele>977.0</ele><time>2026-04-05T10:56:06.998Z</time></trkpt><trkpt lat="44.901380920212894" lon="3.244731690069142"><ele>976.0</ele><time>2026-04-05T10:56:09Z</time></trkpt><trkpt lat="44.901452715193635" lon="3.2446551927033247"><ele>975.0</ele><time>2026-04-05T10:56:11Z</time></trkpt><trkpt lat="44.90157760576009" lon="3.2446749382775977"><ele>974.0</ele><time>2026-04-05T10:56:13Z</time></trkpt><trkpt lat="44.901658473073496" lon="3.244697166581576"><ele>973.0</ele><time>2026-04-05T10:56:14Z</time></trkpt><trkpt lat="44.90174954523291" lon="3.244705857934557"><ele>972.8</ele><time>2026-04-05T10:56:15Z</time></trkpt><trkpt lat="44.90185190544945" lon="3.244714083172983"><ele>972.5999999999999</ele><time>2026-04-05T10:56:16Z</time></trkpt><trkpt lat="44.901959048406326" lon="3.244734249168873"><ele>972.4000000000001</ele><time>2026-04-05T10:56:17Z</time></trkpt><trkpt lat="44.90207303126354" lon="3.24476361567885"><ele>972.2</ele><time>2026-04-05T10:56:18Z</time></trkpt><trkpt lat="44.902191758287564" lon="3.2447927976305593"><ele>972.0</ele><time>2026-04-05T10:56:19Z</time></trkpt><trkpt lat="44.90231690722013" lon="3.2448193143905653"><ele>972.0</ele><time>2026-04-05T10:56:20Z</time></trkpt><trkpt lat="44.90244295603226" lon="3.244845234860595"><ele>972.0</ele><time>2026-04-05T10:56:21Z</time></trkpt><trkpt lat="44.90257135538114" lon="3.244871517782"><ele>972.0</ele><time>2026-04-05T10:56:22Z</time></trkpt><trkpt lat="44.902691439324784" lon="3.244893481138806"><ele>972.0</ele><time>2026-04-05T10:56:22.999Z</time></trkpt><trkpt lat="44.90280601628214" lon="3.2449025820932227"><ele>970.25</ele><time>2026-04-05T10:56:23.999Z</time></trkpt><trkpt lat="44.90291760386205" lon="3.2448939610220613"><ele>968.5</ele><time>2026-04-05T10:56:24.999Z</time></trkpt><trkpt lat="44.903038672935885" lon="3.244870231905523"><ele>966.75</ele><time>2026-04-05T10:56:25.999Z</time></trkpt><trkpt lat="44.90317199554837" lon="3.2448862695296308"><ele>965.0</ele><time>2026-04-05T10:56:26.999Z</time></trkpt><trkpt lat="44.903309139886865" lon="3.2448839196193138"><ele>962.75</ele><time>2026-04-05T10:56:27.999Z</time></trkpt><trkpt lat="44.90345258662479" lon="3.2448900585101814"><ele>960.5</ele><time>2026-04-05T10:56:28.999Z</time></trkpt><trkpt lat="44.90358875678934" lon="3.2448861769292963"><ele>958.25</ele><time>2026-04-05T10:56:29.999Z</time></trkpt><trkpt lat="44.903715552545606" lon="3.244911313185214"><ele>956.0</ele><time>2026-04-05T10:56:30.999Z</time></trkpt><trkpt lat="44.90383022982924" lon="3.2449321200707337"><ele>956.0</ele><time>2026-04-05T10:56:31.999Z</time></trkpt><trkpt lat="44.90394316064985" lon="3.2449389664217074"><ele>956.0</ele><time>2026-04-05T10:56:32.999Z</time></trkpt><trkpt lat="44.90405967336535" lon="3.244928681169713"><ele>956.0</ele><time>2026-04-05T10:56:33.999Z</time></trkpt><trkpt lat="44.90417869223362" lon="3.244899010730019"><ele>956.0</ele><time>2026-04-05T10:56:34.999Z</time></trkpt><trkpt lat="44.90431186482066" lon="3.244840939686428"><ele>955.0</ele><time>2026-04-05T10:56:35.999Z</time></trkpt><trkpt lat="44.90445603904672" lon="3.2447854145562105"><ele>954.0</ele><time>2026-04-05T10:56:36.999Z</time></trkpt><trkpt lat="44.904588700264924" lon="3.2447417320827743"><ele>953.0</ele><time>2026-04-05T10:56:37.999Z</time></trkpt><trkpt lat="44.904715947632674" lon="3.244736419673025"><ele>952.0</ele><time>2026-04-05T10:56:38.999Z</time></trkpt><trkpt lat="44.90483609981832" lon="3.244756302766548"><ele>952.0</ele><time>2026-04-05T10:56:39.999Z</time></trkpt><trkpt lat="44.90494387301794" lon="3.244772784843196"><ele>952.0</ele><time>2026-04-05T10:56:40.999Z</time></trkpt><trkpt lat="44.90505022352984" lon="3.2448687905447056"><ele>952.0</ele><time>2026-04-05T10:56:41.999Z</time></trkpt><trkpt lat="44.905164961396416" lon="3.2449560316863315"><ele>952.0</ele><time>2026-04-05T10:56:42.999Z</time></trkpt><trkpt lat="44.90528732416644" lon="3.245024218300693"><ele>948.8</ele><time>2026-04-05T10:56:43.999Z</time></trkpt><trkpt lat="44.90538964942055" lon="3.2451155430361576"><ele>945.6</ele><time>2026-04-05T10:56:44.999Z</time></trkpt><trkpt lat="44.9054948758942" lon="3.2451883921355154"><ele>942.3999999999999</ele><time>2026-04-05T10:56:45.999Z</time></trkpt><trkpt lat="44.9055861770151" lon="3.2452565123259656"><ele>939.1999999999999</ele><time>2026-04-05T10:56:46.999Z</time></trkpt><trkpt lat="44.90567009125328" lon="3.245349713459412"><ele>936.0</ele><time>2026-04-05T10:56:48Z</time></trkpt><trkpt lat="44.905744139757836" lon="3.2454414972776555"><ele>936.0</ele><time>2026-04-05T10:56:49Z</time></trkpt><trkpt lat="44.90575002842793" lon="3.245564853775585"><ele>935.9999999999999</ele><time>2026-04-05T10:56:50Z</time></trkpt><trkpt lat="44.905774337158995" lon="3.245696934998833"><ele>935.9999999999999</ele><time>2026-04-05T10:56:52Z</time></trkpt><trkpt lat="44.90587751073927" lon="3.2457324909460796"><ele>936.0</ele><time>2026-04-05T10:56:53Z</time></trkpt><trkpt lat="44.9059595399803" lon="3.245651571972427"><ele>936.0</ele><time>2026-04-05T10:56:54Z</time></trkpt><trkpt lat="44.90599197001779" lon="3.245515291946664"><ele>936.0</ele><time>2026-04-05T10:56:55Z</time></trkpt><trkpt lat="44.906061005680804" lon="3.245423412569715"><ele>935.9999999999999</ele><time>2026-04-05T10:56:56Z</time></trkpt><trkpt lat="44.906123495361776" lon="3.245291120668355"><ele>935.9999999999999</ele><time>2026-04-05T10:56:57Z</time></trkpt><trkpt lat="44.90620554743918" lon="3.245180704634266"><ele>936.0</ele><time>2026-04-05T10:56:58Z</time></trkpt><trkpt lat="44.90630514954067" lon="3.2451024110362954"><ele>936.0</ele><time>2026-04-05T10:56:59Z</time></trkpt><trkpt lat="44.906380254202226" lon="3.2450042580267575"><ele>936.0</ele><time>2026-04-05T10:57:00Z</time></trkpt><trkpt lat="44.90647983242137" lon="3.2449552887174424"><ele>936.0</ele><time>2026-04-05T10:57:01Z</time></trkpt><trkpt lat="44.90659169055541" lon="3.244920680157089"><ele>936.0</ele><time>2026-04-05T10:57:02Z</time></trkpt><trkpt lat="44.906702637832716" lon="3.2448655827791284"><ele>936.0</ele><time>2026-04-05T10:57:03Z</time></trkpt><trkpt lat="44.90681167682655" lon="3.2447730287296284"><ele>936.75</ele><time>2026-04-05T10:57:04Z</time></trkpt><trkpt lat="44.90691795908486" lon="3.244656125267706"><ele>937.5</ele><time>2026-04-05T10:57:05Z</time></trkpt><trkpt lat="44.90701253284413" lon="3.2445134215742923"><ele>938.25</ele><time>2026-04-05T10:57:06Z</time></trkpt><trkpt lat="44.90711219562632" lon="3.2443680547273024"><ele>939.0</ele><time>2026-04-05T10:57:07Z</time></trkpt><trkpt lat="44.9072271133805" lon="3.244259541170674"><ele>939.0</ele><time>2026-04-05T10:57:08Z</time></trkpt><trkpt lat="44.907348306559946" lon="3.244148724611001"><ele>939.0</ele><time>2026-04-05T10:57:09Z</time></trkpt><trkpt lat="44.907468461371074" lon="3.2440367362641753"><ele>939.0</ele><time>2026-04-05T10:57:10Z</time></trkpt><trkpt lat="44.90759312962431" lon="3.2439247784646237"><ele>939.0</ele><time>2026-04-05T10:57:11Z</time></trkpt><trkpt lat="44.90774007588551" lon="3.2438264727449426"><ele>941.0</ele><time>2026-04-05T10:57:12Z</time></trkpt><trkpt lat="44.90789925171564" lon="3.2437282938037124"><ele>943.0</ele><time>2026-04-05T10:57:13Z</time></trkpt><trkpt lat="44.90805259670995" lon="3.243616645163987"><ele>945.0</ele><time>2026-04-05T10:57:14Z</time></trkpt><trkpt lat="44.90820547089417" lon="3.2435097356430043"><ele>945.0</ele><time>2026-04-05T10:57:15Z</time></trkpt><trkpt lat="44.90837151741264" lon="3.2434355214023998"><ele>945.0</ele><time>2026-04-05T10:57:16Z</time></trkpt><trkpt lat="44.90852161630863" lon="3.243351232356036"><ele>945.0</ele><time>2026-04-05T10:57:17Z</time></trkpt><trkpt lat="44.90867392632393" lon="3.2432047162394224"><ele>946.6666666666667</ele><time>2026-04-05T10:57:18Z</time></trkpt><trkpt lat="44.90883186690494" lon="3.2430443862102902"><ele>948.3333333333334</ele><time>2026-04-05T10:57:19Z</time></trkpt><trkpt lat="44.908964065594475" lon="3.2429319600223203"><ele>950.0</ele><time>2026-04-05T10:57:20Z</time></trkpt><trkpt lat="44.909083663711904" lon="3.242870485256985"><ele>950.0</ele><time>2026-04-05T10:57:21Z</time></trkpt><trkpt lat="44.90918779164236" lon="3.2428751217643295"><ele>950.0</ele><time>2026-04-05T10:57:22Z</time></trkpt><trkpt lat="44.90928357544543" lon="3.242932685914921"><ele>950.0</ele><time>2026-04-05T10:57:23Z</time></trkpt><trkpt lat="44.90936395114827" lon="3.2430295111167458"><ele>950.0</ele><time>2026-04-05T10:57:24Z</time></trkpt><trkpt lat="44.90944502450011" lon="3.2431151817644857"><ele>950.0</ele><time>2026-04-05T10:57:25Z</time></trkpt><trkpt lat="44.909510621523076" lon="3.24316829561986"><ele>950.2</ele><time>2026-04-05T10:57:26Z</time></trkpt><trkpt lat="44.90960320099532" lon="3.2431600873789757"><ele>950.4</ele><time>2026-04-05T10:57:28Z</time></trkpt><trkpt lat="44.90961320112165" lon="3.243016655393454"><ele>950.5999999999999</ele><time>2026-04-05T10:57:29Z</time></trkpt><trkpt lat="44.90961859107785" lon="3.2429236085949857"><ele>950.8</ele><time>2026-04-05T10:57:31Z</time></trkpt><trkpt lat="44.90964028175307" lon="3.2427301938933346"><ele>951.0</ele><time>2026-04-05T10:58:01.999Z</time></trkpt><trkpt lat="44.90964431636663" lon="3.242622359553779"><ele>951.0</ele><time>2026-04-05T10:58:02.999Z</time></trkpt><trkpt lat="44.909639704511555" lon="3.2424924241127244"><ele>950.9999999999999</ele><time>2026-04-05T10:58:03.999Z</time></trkpt><trkpt lat="44.90960893312864" lon="3.2423623731444398"><ele>950.9999999999999</ele><time>2026-04-05T10:58:04.999Z</time></trkpt><trkpt lat="44.90956031159831" lon="3.242204396710514"><ele>951.0</ele><time>2026-04-05T10:58:05.999Z</time></trkpt><trkpt lat="44.909532241001905" lon="3.2420380428379034"><ele>951.0</ele><time>2026-04-05T10:58:06.999Z</time></trkpt><trkpt lat="44.909524213447526" lon="3.2418656220173836"><ele>952.0</ele><time>2026-04-05T10:58:07.999Z</time></trkpt><trkpt lat="44.90952006061908" lon="3.2416874106519606"><ele>953.0</ele><time>2026-04-05T10:58:08.999Z</time></trkpt><trkpt lat="44.90951354462066" lon="3.24150437154271"><ele>954.0</ele><time>2026-04-05T10:58:09.999Z</time></trkpt><trkpt lat="44.9095199892368" lon="3.2413535653980348"><ele>955.0</ele><time>2026-04-05T10:58:10.999Z</time></trkpt><trkpt lat="44.90954962251524" lon="3.2411951164641044"><ele>954.9999999999999</ele><time>2026-04-05T10:58:11.999Z</time></trkpt><trkpt lat="44.90959328409105" lon="3.241065788742537"><ele>955.0</ele><time>2026-04-05T10:58:12.999Z</time></trkpt><trkpt lat="44.9096253177139" lon="3.2409710459042493"><ele>955.0</ele><time>2026-04-05T10:58:14Z</time></trkpt><trkpt lat="44.90969092238702" lon="3.2408930434005994"><ele>955.0</ele><time>2026-04-05T10:58:16Z</time></trkpt><trkpt lat="44.90976289821391" lon="3.2409196440837182"><ele>954.9999999999999</ele><time>2026-04-05T10:58:17Z</time></trkpt><trkpt lat="44.90981761685512" lon="3.240985716754334"><ele>955.0</ele><time>2026-04-05T10:58:18Z</time></trkpt><trkpt lat="44.90993204383496" lon="3.2411053376979466"><ele>955.0</ele><time>2026-04-05T10:58:19Z</time></trkpt><trkpt lat="44.91005942192389" lon="3.241189714228382"><ele>955.0</ele><time>2026-04-05T10:58:20Z</time></trkpt><trkpt lat="44.91017176798414" lon="3.241222700277193"><ele>955.0</ele><time>2026-04-05T10:58:21Z</time></trkpt><trkpt lat="44.91031471456542" lon="3.2411734976579902"><ele>955.0</ele><time>2026-04-05T10:58:22Z</time></trkpt><trkpt lat="44.91048471322739" lon="3.2410784585167693"><ele>953.0</ele><time>2026-04-05T10:58:23Z</time></trkpt><trkpt lat="44.91064872291135" lon="3.2409690829834044"><ele>951.0</ele><time>2026-04-05T10:58:24Z</time></trkpt><trkpt lat="44.910806742712815" lon="3.240822458429757"><ele>949.0</ele><time>2026-04-05T10:58:25Z</time></trkpt><trkpt lat="44.9109632225936" lon="3.2406405716408284"><ele>942.6666666666666</ele><time>2026-04-05T10:58:26Z</time></trkpt><trkpt lat="44.911117523499534" lon="3.240466761907934"><ele>936.3333333333333</ele><time>2026-04-05T10:58:27Z</time></trkpt><trkpt lat="44.91122531115345" lon="3.2403235044391594"><ele>930.0</ele><time>2026-04-05T10:58:28Z</time></trkpt><trkpt lat="44.91131679387026" lon="3.2401894594733536"><ele>930.0</ele><time>2026-04-05T10:58:29Z</time></trkpt><trkpt lat="44.91137096790946" lon="3.240119169598807"><ele>930.0</ele><time>2026-04-05T10:58:30Z</time></trkpt><trkpt lat="44.9114217129678" lon="3.2400536734411842"><ele>930.0</ele><time>2026-04-05T10:58:31Z</time></trkpt><trkpt lat="44.91154288942026" lon="3.2400930237901107"><ele>930.0</ele><time>2026-04-05T10:58:33Z</time></trkpt><trkpt lat="44.9116251922294" lon="3.2401438658010546"><ele>930.0</ele><time>2026-04-05T10:58:34Z</time></trkpt><trkpt lat="44.91169852769874" lon="3.2402445698022206"><ele>930.6</ele><time>2026-04-05T10:58:35Z</time></trkpt><trkpt lat="44.91178045311999" lon="3.240334150001898"><ele>931.2</ele><time>2026-04-05T10:58:36Z</time></trkpt><trkpt lat="44.91186651713493" lon="3.240377967607133"><ele>931.8</ele><time>2026-04-05T10:58:37Z</time></trkpt><trkpt lat="44.9119670112043" lon="3.2403788366820567"><ele>932.4</ele><time>2026-04-05T10:58:38Z</time></trkpt><trkpt lat="44.9121184049358" lon="3.240368677960185"><ele>933.0</ele><time>2026-04-05T10:58:39Z</time></trkpt><trkpt lat="44.912260744306934" lon="3.240395812585736"><ele>933.0</ele><time>2026-04-05T10:58:40Z</time></trkpt><trkpt lat="44.91239795781011" lon="3.240460001773223"><ele>933.0</ele><time>2026-04-05T10:58:41Z</time></trkpt><trkpt lat="44.912465857469556" lon="3.2405729365007563"><ele>933.0</ele><time>2026-04-05T10:58:42Z</time></trkpt><trkpt lat="44.91252504685659" lon="3.240735325693251"><ele>933.0</ele><time>2026-04-05T10:58:43Z</time></trkpt><trkpt lat="44.91260113253785" lon="3.240870142073617"><ele>938.3333333333333</ele><time>2026-04-05T10:58:44Z</time></trkpt><trkpt lat="44.91269034985942" lon="3.2410038859907"><ele>943.6666666666666</ele><time>2026-04-05T10:58:45Z</time></trkpt><trkpt lat="44.91280285084485" lon="3.241189978742308"><ele>949.0</ele><time>2026-04-05T10:58:46Z</time></trkpt><trkpt lat="44.912896864208875" lon="3.2413777309209406"><ele>947.5</ele><time>2026-04-05T10:58:47Z</time></trkpt><trkpt lat="44.912975528710625" lon="3.2414931894113037"><ele>946.0</ele><time>2026-04-05T10:58:48Z</time></trkpt><trkpt lat="44.913110631157274" lon="3.2415645773056374"><ele>944.5</ele><time>2026-04-05T10:58:49Z</time></trkpt><trkpt lat="44.913238540931886" lon="3.2416458927025644"><ele>943.0</ele><time>2026-04-05T10:58:50Z</time></trkpt><trkpt lat="44.91339706872988" lon="3.241760780238598"><ele>948.3333333333333</ele><time>2026-04-05T10:58:51Z</time></trkpt><trkpt lat="44.91355208872483" lon="3.2419244609922453"><ele>953.6666666666667</ele><time>2026-04-05T10:58:52Z</time></trkpt><trkpt lat="44.91371273823046" lon="3.2420934484740647"><ele>959.0</ele><time>2026-04-05T10:58:53Z</time></trkpt><trkpt lat="44.91384193701252" lon="3.24222975359971"><ele>958.75</ele><time>2026-04-05T10:58:54Z</time></trkpt><trkpt lat="44.913955586981835" lon="3.242314452362984"><ele>958.5</ele><time>2026-04-05T10:58:55Z</time></trkpt><trkpt lat="44.91407128384662" lon="3.242402061228866"><ele>958.25</ele><time>2026-04-05T10:58:56Z</time></trkpt><trkpt lat="44.91420343433702" lon="3.242469274451512"><ele>958.0</ele><time>2026-04-05T10:58:57Z</time></trkpt><trkpt lat="44.9143195720266" lon="3.242497869984502"><ele>958.0</ele><time>2026-04-05T10:58:58Z</time></trkpt><trkpt lat="44.914450385333986" lon="3.242498270719818"><ele>958.0</ele><time>2026-04-05T10:58:59Z</time></trkpt><trkpt lat="44.91456465113637" lon="3.2425128364440403"><ele>958.0</ele><time>2026-04-05T10:59:00Z</time></trkpt><trkpt lat="44.91468151154916" lon="3.242523150620788"><ele>958.0</ele><time>2026-04-05T10:59:01Z</time></trkpt><trkpt lat="44.91479914188028" lon="3.2425252214202365"><ele>958.0</ele><time>2026-04-05T10:59:02Z</time></trkpt><trkpt lat="44.91492756544135" lon="3.242515127640476"><ele>958.0</ele><time>2026-04-05T10:59:03Z</time></trkpt><trkpt lat="44.9150303865353" lon="3.242474811603916"><ele>958.0</ele><time>2026-04-05T10:59:04Z</time></trkpt><trkpt lat="44.91515271469533" lon="3.2424234881069602"><ele>958.0</ele><time>2026-04-05T10:59:05Z</time></trkpt><trkpt lat="44.9152574720327" lon="3.24233197981224"><ele>956.5</ele><time>2026-04-05T10:59:06Z</time></trkpt><trkpt lat="44.91535993257559" lon="3.2422164760150958"><ele>955.0</ele><time>2026-04-05T10:59:07Z</time></trkpt><trkpt lat="44.91546442188686" lon="3.2421210001054415"><ele>953.5</ele><time>2026-04-05T10:59:08Z</time></trkpt><trkpt lat="44.915567809546836" lon="3.2420438264848994"><ele>952.0</ele><time>2026-04-05T10:59:09Z</time></trkpt><trkpt lat="44.915666407739195" lon="3.2419974392447326"><ele>952.0</ele><time>2026-04-05T10:59:10Z</time></trkpt><trkpt lat="44.91577497071787" lon="3.2419812886622292"><ele>952.0</ele><time>2026-04-05T10:59:11Z</time></trkpt><trkpt lat="44.915893560369945" lon="3.241962961873498"><ele>952.0</ele><time>2026-04-05T10:59:12Z</time></trkpt><trkpt lat="44.916026240994626" lon="3.2419410495832337"><ele>952.0</ele><time>2026-04-05T10:59:13Z</time></trkpt><trkpt lat="44.91616508391725" lon="3.241913962244001"><ele>949.75</ele><time>2026-04-05T10:59:14Z</time></trkpt><trkpt lat="44.91630252907891" lon="3.2418863060673004"><ele>947.5</ele><time>2026-04-05T10:59:15Z</time></trkpt><trkpt lat="44.9164229591571" lon="3.2418533652304435"><ele>945.25</ele><time>2026-04-05T10:59:16Z</time></trkpt><trkpt lat="44.91653683841522" lon="3.241814637410086"><ele>943.0</ele><time>2026-04-05T10:59:17Z</time></trkpt><trkpt lat="44.9166433540038" lon="3.241774772476441"><ele>940.4</ele><time>2026-04-05T10:59:18Z</time></trkpt><trkpt lat="44.91674940802502" lon="3.2417376020047066"><ele>937.8</ele><time>2026-04-05T10:59:19Z</time></trkpt><trkpt lat="44.91685492454604" lon="3.241709295843936"><ele>935.2</ele><time>2026-04-05T10:59:20Z</time></trkpt><trkpt lat="44.91696445787968" lon="3.2416839797801407"><ele>932.6</ele><time>2026-04-05T10:59:21Z</time></trkpt><trkpt lat="44.9170775438457" lon="3.2417018883891555"><ele>930.0</ele><time>2026-04-05T10:59:22Z</time></trkpt><trkpt lat="44.91718435964522" lon="3.2416821151984037"><ele>930.0</ele><time>2026-04-05T10:59:23Z</time></trkpt><trkpt lat="44.91728764742363" lon="3.2416413866004437"><ele>930.0</ele><time>2026-04-05T10:59:24Z</time></trkpt><trkpt lat="44.91739591110381" lon="3.2416424077676376"><ele>930.0</ele><time>2026-04-05T10:59:25Z</time></trkpt><trkpt lat="44.91750253834343" lon="3.241621553540825"><ele>930.0</ele><time>2026-04-05T10:59:26Z</time></trkpt><trkpt lat="44.91761280450006" lon="3.2416012396459823"><ele>930.0</ele><time>2026-04-05T10:59:27Z</time></trkpt><trkpt lat="44.91772126627176" lon="3.241600526349719"><ele>927.0</ele><time>2026-04-05T10:59:28Z</time></trkpt><trkpt lat="44.917836377081365" lon="3.2416216251548047"><ele>924.0</ele><time>2026-04-05T10:59:29Z</time></trkpt><trkpt lat="44.91795269352899" lon="3.2415820428470643"><ele>921.0</ele><time>2026-04-05T10:59:30Z</time></trkpt><trkpt lat="44.91807452291446" lon="3.2415644641252594"><ele>918.0</ele><time>2026-04-05T10:59:31Z</time></trkpt><trkpt lat="44.91818960579149" lon="3.241504470436456"><ele>917.0</ele><time>2026-04-05T10:59:31.999Z</time></trkpt><trkpt lat="44.918282462734425" lon="3.2413792020291186"><ele>916.0</ele><time>2026-04-05T10:59:32.999Z</time></trkpt><trkpt lat="44.9183684989986" lon="3.2413202184839953"><ele>915.0</ele><time>2026-04-05T10:59:33.999Z</time></trkpt><trkpt lat="44.9184333144871" lon="3.241267691572184"><ele>914.0</ele><time>2026-04-05T10:59:34.999Z</time></trkpt><trkpt lat="44.918433943173426" lon="3.24102865345169"><ele>914.2</ele><time>2026-04-05T10:59:36.999Z</time></trkpt><trkpt lat="44.9184358520822" lon="3.240912759006474"><ele>914.4000000000001</ele><time>2026-04-05T10:59:37.999Z</time></trkpt><trkpt lat="44.91844762429294" lon="3.240777844862095"><ele>914.6</ele><time>2026-04-05T10:59:38.999Z</time></trkpt><trkpt lat="44.9185049234215" lon="3.2406568115322107"><ele>914.8</ele><time>2026-04-05T10:59:39.999Z</time></trkpt><trkpt lat="44.91857194775404" lon="3.240560610334178"><ele>915.0</ele><time>2026-04-05T10:59:40.999Z</time></trkpt><trkpt lat="44.91865723231398" lon="3.2404755532427267"><ele>915.0</ele><time>2026-04-05T10:59:41.999Z</time></trkpt><trkpt lat="44.91876675849426" lon="3.2404288964748615"><ele>915.0</ele><time>2026-04-05T10:59:42.999Z</time></trkpt><trkpt lat="44.91889146000554" lon="3.240389004252527"><ele>915.0</ele><time>2026-04-05T10:59:43.999Z</time></trkpt><trkpt lat="44.91901790544982" lon="3.2403556744601953"><ele>915.0</ele><time>2026-04-05T10:59:44.999Z</time></trkpt><trkpt lat="44.919149513266795" lon="3.2403193450904912"><ele>912.75</ele><time>2026-04-05T10:59:45.999Z</time></trkpt><trkpt lat="44.919278337487526" lon="3.240254710983795"><ele>910.5</ele><time>2026-04-05T10:59:46.999Z</time></trkpt><trkpt lat="44.91941063940942" lon="3.240203743904649"><ele>908.25</ele><time>2026-04-05T10:59:47.999Z</time></trkpt><trkpt lat="44.919537335488755" lon="3.24013504457261"><ele>906.0</ele><time>2026-04-05T10:59:48.999Z</time></trkpt><trkpt lat="44.91966263580593" lon="3.240037672574847"><ele>906.0</ele><time>2026-04-05T10:59:49.999Z</time></trkpt><trkpt lat="44.91979132641097" lon="3.23992930295499"><ele>906.0</ele><time>2026-04-05T10:59:50.999Z</time></trkpt><trkpt lat="44.919923853250594" lon="3.239818468239484"><ele>906.0</ele><time>2026-04-05T10:59:51.999Z</time></trkpt><trkpt lat="44.92007191631121" lon="3.239734558348453"><ele>904.6666666666667</ele><time>2026-04-05T10:59:52.999Z</time></trkpt><trkpt lat="44.92021128361345" lon="3.2396532845665096"><ele>903.3333333333334</ele><time>2026-04-05T10:59:53.999Z</time></trkpt><trkpt lat="44.92034589336824" lon="3.2395649349640956"><ele>902.0</ele><time>2026-04-05T10:59:54.999Z</time></trkpt><trkpt lat="44.92046420379451" lon="3.239429595066814"><ele>902.0</ele><time>2026-04-05T10:59:55.999Z</time></trkpt><trkpt lat="44.920589604320156" lon="3.2392850884355364"><ele>902.0</ele><time>2026-04-05T10:59:56.999Z</time></trkpt><trkpt lat="44.92070636385765" lon="3.2391279602855003"><ele>902.0</ele><time>2026-04-05T10:59:57.999Z</time></trkpt><trkpt lat="44.92084031488476" lon="3.239011144541973"><ele>904.5</ele><time>2026-04-05T10:59:58.999Z</time></trkpt><trkpt lat="44.920985275415084" lon="3.2389302709171273"><ele>907.0</ele><time>2026-04-05T10:59:59.999Z</time></trkpt><trkpt lat="44.921130323021636" lon="3.238870065763222"><ele>909.5</ele><time>2026-04-05T11:00:00.999Z</time></trkpt><trkpt lat="44.921253618181154" lon="3.238819242775666"><ele>912.0</ele><time>2026-04-05T11:00:01.999Z</time></trkpt><trkpt lat="44.921368801136914" lon="3.238758549644414"><ele>912.0</ele><time>2026-04-05T11:00:02.999Z</time></trkpt><trkpt lat="44.921476086411516" lon="3.238666289933639"><ele>912.0</ele><time>2026-04-05T11:00:03.999Z</time></trkpt><trkpt lat="44.921592491716424" lon="3.238591848705067"><ele>912.0</ele><time>2026-04-05T11:00:04.999Z</time></trkpt><trkpt lat="44.9217060276881" lon="3.238495914853291"><ele>912.0</ele><time>2026-04-05T11:00:05.999Z</time></trkpt><trkpt lat="44.92183293308596" lon="3.238426381241441"><ele>912.5</ele><time>2026-04-05T11:00:06.999Z</time></trkpt><trkpt lat="44.92194523773906" lon="3.2383263146572188"><ele>913.0</ele><time>2026-04-05T11:00:07.999Z</time></trkpt><trkpt lat="44.92206679319765" lon="3.2382789684532525"><ele>913.5</ele><time>2026-04-05T11:00:08.999Z</time></trkpt><trkpt lat="44.92216827994899" lon="3.23819978939666"><ele>914.0</ele><time>2026-04-05T11:00:09.999Z</time></trkpt><trkpt lat="44.9222709746998" lon="3.2381456185999395"><ele>914.6</ele><time>2026-04-05T11:00:10.999Z</time></trkpt><trkpt lat="44.92237601052767" lon="3.2381013017021787"><ele>915.2</ele><time>2026-04-05T11:00:11.999Z</time></trkpt><trkpt lat="44.92246133925876" lon="3.2380130198988355"><ele>915.8000000000001</ele><time>2026-04-05T11:00:12.999Z</time></trkpt><trkpt lat="44.922546142283544" lon="3.2379274136985807"><ele>916.4000000000001</ele><time>2026-04-05T11:00:13.999Z</time></trkpt><trkpt lat="44.92262105607488" lon="3.2378186779501443"><ele>917.0</ele><time>2026-04-05T11:00:14.999Z</time></trkpt><trkpt lat="44.92267934282563" lon="3.2376754865837682"><ele>917.0</ele><time>2026-04-05T11:00:15.999Z</time></trkpt><trkpt lat="44.92272817518845" lon="3.2375156063883703"><ele>917.0</ele><time>2026-04-05T11:00:16.999Z</time></trkpt><trkpt lat="44.922775536114386" lon="3.2373496279795266"><ele>917.0</ele><time>2026-04-05T11:00:17.999Z</time></trkpt><trkpt lat="44.92282736914167" lon="3.237185192482746"><ele>917.0</ele><time>2026-04-05T11:00:18.999Z</time></trkpt><trkpt lat="44.92288334587876" lon="3.237019806626552"><ele>916.8</ele><time>2026-04-05T11:00:20Z</time></trkpt><trkpt lat="44.92293715579992" lon="3.23687392689224"><ele>916.6</ele><time>2026-04-05T11:00:21Z</time></trkpt><trkpt lat="44.92299709177326" lon="3.2367462079836726"><ele>916.3999999999999</ele><time>2026-04-05T11:00:22Z</time></trkpt><trkpt lat="44.92307687097556" lon="3.236649672208592"><ele>916.1999999999999</ele><time>2026-04-05T11:00:23Z</time></trkpt><trkpt lat="44.9231449028366" lon="3.236547605179614"><ele>916.0</ele><time>2026-04-05T11:00:24Z</time></trkpt><trkpt lat="44.923215655022084" lon="3.236446042726775"><ele>915.5999999999999</ele><time>2026-04-05T11:00:25Z</time></trkpt><trkpt lat="44.92328651182862" lon="3.2363489736288478"><ele>915.1999999999999</ele><time>2026-04-05T11:00:26Z</time></trkpt><trkpt lat="44.92334646549133" lon="3.23623809098803"><ele>914.8000000000001</ele><time>2026-04-05T11:00:27Z</time></trkpt><trkpt lat="44.923418793763155" lon="3.23615033045483"><ele>914.4000000000001</ele><time>2026-04-05T11:00:28Z</time></trkpt><trkpt lat="44.92349220115547" lon="3.2360642082539104"><ele>914.0</ele><time>2026-04-05T11:00:29Z</time></trkpt><trkpt lat="44.92355518919167" lon="3.235971289306503"><ele>914.0000000000001</ele><time>2026-04-05T11:00:30Z</time></trkpt><trkpt lat="44.9236218622442" lon="3.235887972561645"><ele>914.0</ele><time>2026-04-05T11:00:31Z</time></trkpt><trkpt lat="44.923686915221495" lon="3.235807801495639"><ele>914.0</ele><time>2026-04-05T11:00:32Z</time></trkpt><trkpt lat="44.92375172870726" lon="3.2357298166097577"><ele>914.0</ele><time>2026-04-05T11:00:33Z</time></trkpt><trkpt lat="44.92382327831572" lon="3.235665564606665"><ele>914.0000000000001</ele><time>2026-04-05T11:00:34Z</time></trkpt><trkpt lat="44.923864080460056" lon="3.2355484652423727"><ele>914.0</ele><time>2026-04-05T11:00:35Z</time></trkpt><trkpt lat="44.92390232881548" lon="3.23544658400819"><ele>914.0000000000001</ele><time>2026-04-05T11:00:36Z</time></trkpt><trkpt lat="44.92393447926154" lon="3.235345723360607"><ele>914.0</ele><time>2026-04-05T11:00:37Z</time></trkpt><trkpt lat="44.92395949892129" lon="3.235247622147061"><ele>914.0000000000001</ele><time>2026-04-05T11:00:38Z</time></trkpt><trkpt lat="44.92398317737694" lon="3.2351526154803105"><ele>914.0000000000001</ele><time>2026-04-05T11:00:39Z</time></trkpt><trkpt lat="44.92400480310478" lon="3.2350686239384188"><ele>914.0</ele><time>2026-04-05T11:00:40Z</time></trkpt><trkpt lat="44.924027615509566" lon="3.2349769663619035"><ele>914.0000000000001</ele><time>2026-04-05T11:00:41Z</time></trkpt><trkpt lat="44.924047407818065" lon="3.234887489843788"><ele>914.0000000000001</ele><time>2026-04-05T11:00:42Z</time></trkpt><trkpt lat="44.924068419330425" lon="3.234793532848193"><ele>914.0000000000001</ele><time>2026-04-05T11:00:43Z</time></trkpt><trkpt lat="44.924093876235645" lon="3.234696915353093"><ele>914.0</ele><time>2026-04-05T11:00:44Z</time></trkpt><trkpt lat="44.924119325506254" lon="3.234600464656817"><ele>914.0</ele><time>2026-04-05T11:00:45Z</time></trkpt><trkpt lat="44.92414359450183" lon="3.234497901526979"><ele>914.0</ele><time>2026-04-05T11:00:46Z</time></trkpt><trkpt lat="44.9241667405856" lon="3.234388906667196"><ele>914.0000000000001</ele><time>2026-04-05T11:00:47Z</time></trkpt><trkpt lat="44.924189725627826" lon="3.234284680759299"><ele>914.0</ele><time>2026-04-05T11:00:48Z</time></trkpt><trkpt lat="44.92421526770462" lon="3.23417014977253"><ele>913.0000000000001</ele><time>2026-04-05T11:00:49Z</time></trkpt><trkpt lat="44.92423922528584" lon="3.234057762900974"><ele>912.0</ele><time>2026-04-05T11:00:50Z</time></trkpt><trkpt lat="44.92428228463069" lon="3.2339456433732803"><ele>911.0</ele><time>2026-04-05T11:00:51Z</time></trkpt><trkpt lat="44.924308869874196" lon="3.233831619448868"><ele>910.0</ele><time>2026-04-05T11:00:52Z</time></trkpt><trkpt lat="44.92433496526748" lon="3.2337196964366863"><ele>909.0000000000001</ele><time>2026-04-05T11:00:53Z</time></trkpt><trkpt lat="44.92435846165131" lon="3.233618920545138"><ele>908.0</ele><time>2026-04-05T11:00:54Z</time></trkpt><trkpt lat="44.924367170561716" lon="3.2335184119775735"><ele>907.5999999999999</ele><time>2026-04-05T11:00:55Z</time></trkpt><trkpt lat="44.92441245795654" lon="3.2333889779034632"><ele>907.1999999999999</ele><time>2026-04-05T11:00:57Z</time></trkpt><trkpt lat="44.924509367819525" lon="3.23347159047814"><ele>906.8</ele><time>2026-04-05T11:01:00Z</time></trkpt><trkpt lat="44.924569246595986" lon="3.2335379889372216"><ele>906.4</ele><time>2026-04-05T11:01:01Z</time></trkpt><trkpt lat="44.92463997829691" lon="3.233616610169991"><ele>906.0</ele><time>2026-04-05T11:01:02Z</time></trkpt><trkpt lat="44.92472448843211" lon="3.2337011743929436"><ele>906.0</ele><time>2026-04-05T11:01:03Z</time></trkpt><trkpt lat="44.92481945772818" lon="3.2337742312334443"><ele>906.0</ele><time>2026-04-05T11:01:04Z</time></trkpt><trkpt lat="44.92491349466984" lon="3.2338718682389764"><ele>906.0</ele><time>2026-04-05T11:01:05Z</time></trkpt><trkpt lat="44.925017870153866" lon="3.2339617582022417"><ele>906.0</ele><time>2026-04-05T11:01:06Z</time></trkpt><trkpt lat="44.92513483209942" lon="3.23403601976893"><ele>905.5</ele><time>2026-04-05T11:01:07Z</time></trkpt><trkpt lat="44.92524381277804" lon="3.2341364025666786"><ele>905.0</ele><time>2026-04-05T11:01:08Z</time></trkpt><trkpt lat="44.92535531654759" lon="3.2342438786781873"><ele>904.5</ele><time>2026-04-05T11:01:09Z</time></trkpt><trkpt lat="44.925475586077326" lon="3.2343278538006834"><ele>904.0</ele><time>2026-04-05T11:01:10Z</time></trkpt><trkpt lat="44.92559474228511" lon="3.2344250625497977"><ele>904.0</ele><time>2026-04-05T11:01:11Z</time></trkpt><trkpt lat="44.92569972265052" lon="3.234557524438115"><ele>904.0</ele><time>2026-04-05T11:01:12Z</time></trkpt><trkpt lat="44.925826488529026" lon="3.2346518546290333"><ele>904.0</ele><time>2026-04-05T11:01:13Z</time></trkpt><trkpt lat="44.9259365279538" lon="3.23476838490934"><ele>904.0</ele><time>2026-04-05T11:01:14Z</time></trkpt><trkpt lat="44.926055927111534" lon="3.234888244680883"><ele>904.0</ele><time>2026-04-05T11:01:15Z</time></trkpt><trkpt lat="44.926177421254295" lon="3.234979185684219"><ele>904.0</ele><time>2026-04-05T11:01:16Z</time></trkpt><trkpt lat="44.92632181577261" lon="3.2350660060288177"><ele>904.0</ele><time>2026-04-05T11:01:17Z</time></trkpt><trkpt lat="44.926441904151595" lon="3.2351983643647633"><ele>904.0</ele><time>2026-04-05T11:01:18Z</time></trkpt><trkpt lat="44.92656368591242" lon="3.2353146919256366"><ele>904.0</ele><time>2026-04-05T11:01:19Z</time></trkpt><trkpt lat="44.926653127348196" lon="3.235484589960399"><ele>904.0</ele><time>2026-04-05T11:01:20Z</time></trkpt><trkpt lat="44.926746963036805" lon="3.235640800944566"><ele>904.0</ele><time>2026-04-05T11:01:21Z</time></trkpt><trkpt lat="44.92685195133878" lon="3.2357874799426907"><ele>904.0</ele><time>2026-04-05T11:01:22Z</time></trkpt><trkpt lat="44.92694323912723" lon="3.2359426453020146"><ele>904.0</ele><time>2026-04-05T11:01:23Z</time></trkpt><trkpt lat="44.927045845057606" lon="3.2360754264138434"><ele>904.0</ele><time>2026-04-05T11:01:24Z</time></trkpt><trkpt lat="44.927157065770444" lon="3.236200072159831"><ele>904.0</ele><time>2026-04-05T11:01:25Z</time></trkpt><trkpt lat="44.927270852869405" lon="3.236319972385843"><ele>904.0</ele><time>2026-04-05T11:01:26Z</time></trkpt><trkpt lat="44.927383714188004" lon="3.236450781464496"><ele>904.0</ele><time>2026-04-05T11:01:27Z</time></trkpt><trkpt lat="44.927493910685534" lon="3.236587364677736"><ele>904.0</ele><time>2026-04-05T11:01:28Z</time></trkpt><trkpt lat="44.927597581859445" lon="3.2367190612980496"><ele>904.0</ele><time>2026-04-05T11:01:29Z</time></trkpt><trkpt lat="44.92770696142807" lon="3.236857324347545"><ele>904.0</ele><time>2026-04-05T11:01:30Z</time></trkpt><trkpt lat="44.9278169549558" lon="3.236989154464959"><ele>904.0</ele><time>2026-04-05T11:01:31Z</time></trkpt><trkpt lat="44.92793712109906" lon="3.2371122783560042"><ele>904.0</ele><time>2026-04-05T11:01:32Z</time></trkpt><trkpt lat="44.928066225893076" lon="3.2372111166611672"><ele>904.0</ele><time>2026-04-05T11:01:33Z</time></trkpt><trkpt lat="44.92818768181999" lon="3.2373102838955985"><ele>904.0</ele><time>2026-04-05T11:01:34Z</time></trkpt><trkpt lat="44.92829180850322" lon="3.2374167359479675"><ele>902.5</ele><time>2026-04-05T11:01:34.999Z</time></trkpt><trkpt lat="44.92838925866234" lon="3.2375018829761952"><ele>901.0</ele><time>2026-04-05T11:01:35.999Z</time></trkpt><trkpt lat="44.928499069580646" lon="3.23755452845826"><ele>899.5</ele><time>2026-04-05T11:01:36.999Z</time></trkpt><trkpt lat="44.92862373763746" lon="3.2375769316682526"><ele>898.0</ele><time>2026-04-05T11:01:37.999Z</time></trkpt><trkpt lat="44.92875207734958" lon="3.2376001034970088"><ele>897.5</ele><time>2026-04-05T11:01:38.999Z</time></trkpt><trkpt lat="44.928880511998955" lon="3.237639506903482"><ele>897.0</ele><time>2026-04-05T11:01:39.999Z</time></trkpt><trkpt lat="44.929012779367305" lon="3.2376826624266095"><ele>896.5</ele><time>2026-04-05T11:01:40.999Z</time></trkpt><trkpt lat="44.92915795421315" lon="3.2377286583796545"><ele>896.0</ele><time>2026-04-05T11:01:41.999Z</time></trkpt><trkpt lat="44.929292054049576" lon="3.2378006219464965"><ele>894.5</ele><time>2026-04-05T11:01:42.999Z</time></trkpt><trkpt lat="44.92942970536723" lon="3.2378711060891954"><ele>893.0</ele><time>2026-04-05T11:01:43.999Z</time></trkpt><trkpt lat="44.92957371430787" lon="3.2379400875784623"><ele>891.5</ele><time>2026-04-05T11:01:44.999Z</time></trkpt><trkpt lat="44.92970988828391" lon="3.2380266929944623"><ele>890.0</ele><time>2026-04-05T11:01:45.999Z</time></trkpt><trkpt lat="44.92984760576457" lon="3.2381038408271285"><ele>890.25</ele><time>2026-04-05T11:01:46.999Z</time></trkpt><trkpt lat="44.92998185723452" lon="3.2381627654126537"><ele>890.5</ele><time>2026-04-05T11:01:47.999Z</time></trkpt><trkpt lat="44.93012455139904" lon="3.2382032755837784"><ele>890.75</ele><time>2026-04-05T11:01:48.999Z</time></trkpt><trkpt lat="44.93027297135532" lon="3.238226018041339"><ele>891.0</ele><time>2026-04-05T11:01:49.999Z</time></trkpt><trkpt lat="44.930420225212075" lon="3.23823591924297"><ele>889.5</ele><time>2026-04-05T11:01:50.999Z</time></trkpt><trkpt lat="44.93056477107707" lon="3.2382359068367457"><ele>888.0</ele><time>2026-04-05T11:01:51.999Z</time></trkpt><trkpt lat="44.93072013439682" lon="3.2382388632612757"><ele>886.5</ele><time>2026-04-05T11:01:52.999Z</time></trkpt><trkpt lat="44.930860530189854" lon="3.2382772971638274"><ele>885.0</ele><time>2026-04-05T11:01:53.999Z</time></trkpt><trkpt lat="44.93101001194815" lon="3.2382786356121427"><ele>884.0</ele><time>2026-04-05T11:01:54.999Z</time></trkpt><trkpt lat="44.93115611575215" lon="3.2383070971677794"><ele>883.0</ele><time>2026-04-05T11:01:55.999Z</time></trkpt><trkpt lat="44.93129675761372" lon="3.2383330540526476"><ele>882.0</ele><time>2026-04-05T11:01:56.999Z</time></trkpt><trkpt lat="44.93142630991206" lon="3.238398145931331"><ele>881.0</ele><time>2026-04-05T11:01:57.999Z</time></trkpt><trkpt lat="44.93153475962012" lon="3.238470021580825"><ele>881.0</ele><time>2026-04-05T11:01:58.999Z</time></trkpt><trkpt lat="44.931646993059644" lon="3.2385368990142984"><ele>881.0</ele><time>2026-04-05T11:01:59.999Z</time></trkpt><trkpt lat="44.931759041316546" lon="3.2385913496831926"><ele>881.0</ele><time>2026-04-05T11:02:00.999Z</time></trkpt><trkpt lat="44.931873642201104" lon="3.2385930433636503"><ele>881.0</ele><time>2026-04-05T11:02:01.999Z</time></trkpt><trkpt lat="44.931990268871196" lon="3.238598715982468"><ele>877.5</ele><time>2026-04-05T11:02:02.999Z</time></trkpt><trkpt lat="44.93210472480434" lon="3.2385959682421377"><ele>874.0</ele><time>2026-04-05T11:02:03.999Z</time></trkpt><trkpt lat="44.93220955874279" lon="3.238667074977689"><ele>870.5</ele><time>2026-04-05T11:02:04.999Z</time></trkpt><trkpt lat="44.93231424470137" lon="3.238755641510829"><ele>867.0</ele><time>2026-04-05T11:02:05.999Z</time></trkpt><trkpt lat="44.93244107309156" lon="3.238803557198218"><ele>867.0</ele><time>2026-04-05T11:02:06.999Z</time></trkpt><trkpt lat="44.932554141968204" lon="3.2388613496578578"><ele>867.0</ele><time>2026-04-05T11:02:07.999Z</time></trkpt><trkpt lat="44.93267812290336" lon="3.2389053574772215"><ele>867.0</ele><time>2026-04-05T11:02:08.999Z</time></trkpt><trkpt lat="44.93280439481278" lon="3.2389405091134225"><ele>867.0</ele><time>2026-04-05T11:02:09.999Z</time></trkpt><trkpt lat="44.93292901626048" lon="3.238962230011872"><ele>865.8</ele><time>2026-04-05T11:02:10.999Z</time></trkpt><trkpt lat="44.93304689568053" lon="3.238947738341324"><ele>864.6</ele><time>2026-04-05T11:02:11.999Z</time></trkpt><trkpt lat="44.93315276008505" lon="3.2389677044829597"><ele>863.3999999999999</ele><time>2026-04-05T11:02:12.999Z</time></trkpt><trkpt lat="44.93324710648355" lon="3.238991063943098"><ele>862.1999999999999</ele><time>2026-04-05T11:02:13.999Z</time></trkpt><trkpt lat="44.93334536458341" lon="3.2390381049987647"><ele>861.0</ele><time>2026-04-05T11:02:14.999Z</time></trkpt><trkpt lat="44.93345560257899" lon="3.2391107933252945"><ele>858.0</ele><time>2026-04-05T11:02:15.999Z</time></trkpt><trkpt lat="44.933579892071464" lon="3.2391630247103658"><ele>855.0</ele><time>2026-04-05T11:02:16.999Z</time></trkpt><trkpt lat="44.933680074039984" lon="3.2392243828014906"><ele>852.0</ele><time>2026-04-05T11:02:17.999Z</time></trkpt><trkpt lat="44.93379345776034" lon="3.239258636942497"><ele>849.0</ele><time>2026-04-05T11:02:18.999Z</time></trkpt><trkpt lat="44.93390762806447" lon="3.2392650380994183"><ele>849.0</ele><time>2026-04-05T11:02:19.999Z</time></trkpt><trkpt lat="44.934021086764865" lon="3.239248115846277"><ele>849.0</ele><time>2026-04-05T11:02:20.999Z</time></trkpt><trkpt lat="44.93413099056486" lon="3.23920989870438"><ele>849.0</ele><time>2026-04-05T11:02:21.999Z</time></trkpt><trkpt lat="44.93423355667545" lon="3.239151759867095"><ele>849.0</ele><time>2026-04-05T11:02:22.999Z</time></trkpt><trkpt lat="44.93432646122795" lon="3.239069629846907"><ele>849.0</ele><time>2026-04-05T11:02:23.999Z</time></trkpt><trkpt lat="44.934407339116774" lon="3.2389634930278173"><ele>845.2</ele><time>2026-04-05T11:02:24.999Z</time></trkpt><trkpt lat="44.934476886499816" lon="3.2388527912624303"><ele>841.4000000000001</ele><time>2026-04-05T11:02:26Z</time></trkpt><trkpt lat="44.93454120480668" lon="3.2387563971134923"><ele>837.6</ele><time>2026-04-05T11:02:27Z</time></trkpt><trkpt lat="44.93459697772966" lon="3.238680625973786"><ele>833.8</ele><time>2026-04-05T11:02:28Z</time></trkpt><trkpt lat="44.934696675942284" lon="3.2386566800103567"><ele>830.0</ele><time>2026-04-05T11:02:30Z</time></trkpt><trkpt lat="44.9347807820666" lon="3.2387982738968675"><ele>830.0000000000001</ele><time>2026-04-05T11:02:32Z</time></trkpt><trkpt lat="44.93482360195593" lon="3.238907607198558"><ele>830.0</ele><time>2026-04-05T11:02:33Z</time></trkpt><trkpt lat="44.934857412030084" lon="3.2390194984397125"><ele>830.0</ele><time>2026-04-05T11:02:34Z</time></trkpt><trkpt lat="44.93490603818164" lon="3.2390970851358705"><ele>830.0</ele><time>2026-04-05T11:02:35Z</time></trkpt><trkpt lat="44.93496349370668" lon="3.23919479907662"><ele>830.0000000000001</ele><time>2026-04-05T11:02:36Z</time></trkpt><trkpt lat="44.935014695739696" lon="3.2393183184758807"><ele>830.0</ele><time>2026-04-05T11:02:37Z</time></trkpt><trkpt lat="44.935073383155746" lon="3.2394204619139764"><ele>823.5</ele><time>2026-04-05T11:02:38Z</time></trkpt><trkpt lat="44.93514396632924" lon="3.239543309700373"><ele>817.0</ele><time>2026-04-05T11:02:39Z</time></trkpt><trkpt lat="44.93521005078743" lon="3.23966217054525"><ele>810.5</ele><time>2026-04-05T11:02:40Z</time></trkpt><trkpt lat="44.93527079015064" lon="3.2397994199576616"><ele>804.0</ele><time>2026-04-05T11:02:41Z</time></trkpt><trkpt lat="44.935328629198125" lon="3.2399577319153603"><ele>804.0</ele><time>2026-04-05T11:02:42Z</time></trkpt><trkpt lat="44.93538555376812" lon="3.2401160673206446"><ele>804.0</ele><time>2026-04-05T11:02:43Z</time></trkpt><trkpt lat="44.93543725924736" lon="3.2402695812800504"><ele>804.0</ele><time>2026-04-05T11:02:44Z</time></trkpt><trkpt lat="44.935501485971" lon="3.2404143262522247"><ele>804.0</ele><time>2026-04-05T11:02:45Z</time></trkpt><trkpt lat="44.935573759408115" lon="3.2405484605928025"><ele>804.25</ele><time>2026-04-05T11:02:46Z</time></trkpt><trkpt lat="44.93566111527436" lon="3.240679720897101"><ele>804.5</ele><time>2026-04-05T11:02:47Z</time></trkpt><trkpt lat="44.93573190095491" lon="3.2408270711761897"><ele>804.75</ele><time>2026-04-05T11:02:48Z</time></trkpt><trkpt lat="44.93580766371789" lon="3.2409587733072835"><ele>805.0</ele><time>2026-04-05T11:02:49Z</time></trkpt><trkpt lat="44.93587862272321" lon="3.2410836336875306"><ele>801.2</ele><time>2026-04-05T11:02:50Z</time></trkpt><trkpt lat="44.93593960030652" lon="3.241189175161134"><ele>797.4</ele><time>2026-04-05T11:02:51Z</time></trkpt><trkpt lat="44.93600132249251" lon="3.241258524836806"><ele>793.5999999999999</ele><time>2026-04-05T11:02:52Z</time></trkpt><trkpt lat="44.93606967943066" lon="3.2413698076808037"><ele>789.8</ele><time>2026-04-05T11:02:54Z</time></trkpt><trkpt lat="44.93616635538761" lon="3.24123381601743"><ele>786.0</ele><time>2026-04-05T11:02:57Z</time></trkpt><trkpt lat="44.93615138893196" lon="3.2411426775102306"><ele>786.0</ele><time>2026-04-05T11:02:58Z</time></trkpt><trkpt lat="44.936117398341956" lon="3.241044663722929"><ele>786.0</ele><time>2026-04-05T11:02:59Z</time></trkpt><trkpt lat="44.93610205643484" lon="3.240910512159845"><ele>786.0</ele><time>2026-04-05T11:03:00Z</time></trkpt><trkpt lat="44.93606704612601" lon="3.240764497886537"><ele>786.0</ele><time>2026-04-05T11:03:01Z</time></trkpt><trkpt lat="44.93603160186838" lon="3.240607443449362"><ele>786.0</ele><time>2026-04-05T11:03:02Z</time></trkpt><trkpt lat="44.936005307239284" lon="3.240427489617681"><ele>781.6666666666667</ele><time>2026-04-05T11:03:03Z</time></trkpt><trkpt lat="44.93599755631996" lon="3.240227364131242"><ele>777.3333333333334</ele><time>2026-04-05T11:03:04Z</time></trkpt><trkpt lat="44.93600366842241" lon="3.2400129073034822"><ele>773.0</ele><time>2026-04-05T11:03:05Z</time></trkpt><trkpt lat="44.93601961535308" lon="3.239779923461819"><ele>770.6666666666667</ele><time>2026-04-05T11:03:06Z</time></trkpt><trkpt lat="44.93604029887324" lon="3.239542244572897"><ele>768.3333333333334</ele><time>2026-04-05T11:03:07Z</time></trkpt><trkpt lat="44.93605954971031" lon="3.2392965186302116"><ele>766.0</ele><time>2026-04-05T11:03:08Z</time></trkpt><trkpt lat="44.936078656913345" lon="3.2390418679066335"><ele>766.0</ele><time>2026-04-05T11:03:09Z</time></trkpt><trkpt lat="44.936094985160544" lon="3.2388125265909693"><ele>766.0</ele><time>2026-04-05T11:03:10Z</time></trkpt><trkpt lat="44.93610962202722" lon="3.2385917779303384"><ele>766.0</ele><time>2026-04-05T11:03:11Z</time></trkpt><trkpt lat="44.9361181450496" lon="3.2383787422010726"><ele>766.0</ele><time>2026-04-05T11:03:12Z</time></trkpt><trkpt lat="44.93608593404401" lon="3.2381720752600445"><ele>766.0</ele><time>2026-04-05T11:03:13Z</time></trkpt><trkpt lat="44.93607406195772" lon="3.2379832393105503"><ele>766.0</ele><time>2026-04-05T11:03:14Z</time></trkpt><trkpt lat="44.936038824761255" lon="3.237801140345308"><ele>766.0</ele><time>2026-04-05T11:03:15Z</time></trkpt><trkpt lat="44.93601151523309" lon="3.2376139504237322"><ele>764.75</ele><time>2026-04-05T11:03:16Z</time></trkpt><trkpt lat="44.93599768474138" lon="3.23742105765832"><ele>763.5</ele><time>2026-04-05T11:03:17Z</time></trkpt><trkpt lat="44.93597406700468" lon="3.237246585119103"><ele>762.25</ele><time>2026-04-05T11:03:18Z</time></trkpt><trkpt lat="44.93596823079589" lon="3.2370943989639938"><ele>761.0</ele><time>2026-04-05T11:03:19Z</time></trkpt><trkpt lat="44.93595991659356" lon="3.2369654011624878"><ele>760.8333333333333</ele><time>2026-04-05T11:03:20Z</time></trkpt><trkpt lat="44.935952483613995" lon="3.236868188063502"><ele>760.6666666666666</ele><time>2026-04-05T11:03:21Z</time></trkpt><trkpt lat="44.93599735655832" lon="3.2367476141866187"><ele>760.5</ele><time>2026-04-05T11:03:23Z</time></trkpt><trkpt lat="44.936079594203505" lon="3.2367531109382983"><ele>760.3333333333334</ele><time>2026-04-05T11:03:24Z</time></trkpt><trkpt lat="44.93616467416867" lon="3.236730412660247"><ele>760.1666666666667</ele><time>2026-04-05T11:03:25Z</time></trkpt><trkpt lat="44.93625409755658" lon="3.2366975793158157"><ele>760.0</ele><time>2026-04-05T11:03:26Z</time></trkpt><trkpt lat="44.936348522410775" lon="3.236637734785895"><ele>760.0</ele><time>2026-04-05T11:03:27Z</time></trkpt><trkpt lat="44.93641547702571" lon="3.2365855108863713"><ele>760.0</ele><time>2026-04-05T11:03:28Z</time></trkpt><trkpt lat="44.93645985116933" lon="3.236515091754222"><ele>760.0</ele><time>2026-04-05T11:03:29Z</time></trkpt><trkpt lat="44.93647355757042" lon="3.2363874326778195"><ele>760.0</ele><time>2026-04-05T11:03:30Z</time></trkpt><trkpt lat="44.93647117130359" lon="3.2362508608064715"><ele>760.0</ele><time>2026-04-05T11:03:31Z</time></trkpt><trkpt lat="44.936457119401304" lon="3.2360984990484423"><ele>760.0</ele><time>2026-04-05T11:03:32Z</time></trkpt><trkpt lat="44.93645234609313" lon="3.236009282714081"><ele>760.8</ele><time>2026-04-05T11:03:33Z</time></trkpt><trkpt lat="44.936483346116255" lon="3.235896548078779"><ele>761.6</ele><time>2026-04-05T11:03:34.999Z</time></trkpt><trkpt lat="44.936568739965864" lon="3.2358021665844863"><ele>762.4000000000001</ele><time>2026-04-05T11:03:36.999Z</time></trkpt><trkpt lat="44.93664279370466" lon="3.235735142576027"><ele>763.2</ele><time>2026-04-05T11:03:37.999Z</time></trkpt><trkpt lat="44.93674076755083" lon="3.2356296334310026"><ele>764.0</ele><time>2026-04-05T11:03:38.999Z</time></trkpt><trkpt lat="44.93683853150079" lon="3.2354962368747526"><ele>759.6666666666666</ele><time>2026-04-05T11:03:39.999Z</time></trkpt><trkpt lat="44.93692667420257" lon="3.235350265915075"><ele>755.3333333333334</ele><time>2026-04-05T11:03:40.999Z</time></trkpt><trkpt lat="44.937034404212284" lon="3.2351739579877137"><ele>751.0</ele><time>2026-04-05T11:03:41.999Z</time></trkpt><trkpt lat="44.93714925313777" lon="3.2349812878715714"><ele>751.6666666666667</ele><time>2026-04-05T11:03:42.999Z</time></trkpt><trkpt lat="44.937270268684514" lon="3.2347792788121006"><ele>752.3333333333334</ele><time>2026-04-05T11:03:43.999Z</time></trkpt><trkpt lat="44.93739542944631" lon="3.23457412893801"><ele>753.0</ele><time>2026-04-05T11:03:44.999Z</time></trkpt><trkpt lat="44.93750721580679" lon="3.234387633956518"><ele>752.0</ele><time>2026-04-05T11:03:45.999Z</time></trkpt><trkpt lat="44.937597585302676" lon="3.2342173525830855"><ele>751.0</ele><time>2026-04-05T11:03:46.999Z</time></trkpt><trkpt lat="44.93766681579643" lon="3.234042185576519"><ele>750.0</ele><time>2026-04-05T11:03:47.999Z</time></trkpt><trkpt lat="44.93775432694263" lon="3.233911807251871"><ele>749.0</ele><time>2026-04-05T11:03:48.999Z</time></trkpt><trkpt lat="44.937829521927476" lon="3.233809060304734"><ele>749.0</ele><time>2026-04-05T11:03:49.999Z</time></trkpt><trkpt lat="44.93790368309052" lon="3.233712557851553"><ele>749.0</ele><time>2026-04-05T11:03:50.999Z</time></trkpt><trkpt lat="44.937976516057155" lon="3.233618956378519"><ele>749.0</ele><time>2026-04-05T11:03:51.999Z</time></trkpt><trkpt lat="44.93803155040438" lon="3.2335322766938086"><ele>749.0</ele><time>2026-04-05T11:03:52.999Z</time></trkpt><trkpt lat="44.938186460678516" lon="3.233459687244041"><ele>749.0</ele><time>2026-04-05T11:03:54.999Z</time></trkpt><trkpt lat="44.938287827946645" lon="3.2334190804573164"><ele>748.5</ele><time>2026-04-05T11:03:55.999Z</time></trkpt><trkpt lat="44.938388635145536" lon="3.2333730194488717"><ele>748.0</ele><time>2026-04-05T11:03:56.999Z</time></trkpt><trkpt lat="44.93846994660487" lon="3.233319808131213"><ele>747.5</ele><time>2026-04-05T11:03:57.999Z</time></trkpt><trkpt lat="44.938520151631515" lon="3.233245439812821"><ele>747.0</ele><time>2026-04-05T11:03:58.999Z</time></trkpt><trkpt lat="44.9385565313225" lon="3.2331465359076503"><ele>746.5</ele><time>2026-04-05T11:03:59.999Z</time></trkpt><trkpt lat="44.938602312946465" lon="3.2330433430109395"><ele>746.0</ele><time>2026-04-05T11:04:00.999Z</time></trkpt><trkpt lat="44.938640361250506" lon="3.2329229387814564"><ele>746.0</ele><time>2026-04-05T11:04:01.999Z</time></trkpt><trkpt lat="44.93866683271327" lon="3.232794691538806"><ele>746.0</ele><time>2026-04-05T11:04:02.999Z</time></trkpt><trkpt lat="44.93867224470746" lon="3.2326583379753053"><ele>746.0</ele><time>2026-04-05T11:04:03.999Z</time></trkpt><trkpt lat="44.938635255916616" lon="3.232544076367432"><ele>746.0</ele><time>2026-04-05T11:04:04.999Z</time></trkpt><trkpt lat="44.93857182105371" lon="3.2324599710678847"><ele>746.0</ele><time>2026-04-05T11:04:05.999Z</time></trkpt><trkpt lat="44.93851302318137" lon="3.232391445162043"><ele>746.0</ele><time>2026-04-05T11:04:06.999Z</time></trkpt><trkpt lat="44.93844874613704" lon="3.232322373786305"><ele>747.6666666666666</ele><time>2026-04-05T11:04:07.999Z</time></trkpt><trkpt lat="44.93840657392937" lon="3.2322441969009246"><ele>749.3333333333333</ele><time>2026-04-05T11:04:08.999Z</time></trkpt><trkpt lat="44.93836866156105" lon="3.2321362403946643"><ele>751.0</ele><time>2026-04-05T11:04:09.999Z</time></trkpt><trkpt lat="44.9383155892137" lon="3.2320356647492106"><ele>752.6666666666666</ele><time>2026-04-05T11:04:10.999Z</time></trkpt><trkpt lat="44.93825212833606" lon="3.231963349671146"><ele>754.3333333333334</ele><time>2026-04-05T11:04:11.999Z</time></trkpt><trkpt lat="44.93820569534648" lon="3.2318889220072164"><ele>756.0</ele><time>2026-04-05T11:04:13.999Z</time></trkpt><trkpt lat="44.93814692189588" lon="3.2318443181562957"><ele>757.5</ele><time>2026-04-05T11:04:14.999Z</time></trkpt><trkpt lat="44.93808446273074" lon="3.2317998082435824"><ele>759.0</ele><time>2026-04-05T11:04:15.999Z</time></trkpt><trkpt lat="44.93801480405863" lon="3.231746040108421"><ele>760.5</ele><time>2026-04-05T11:04:16.999Z</time></trkpt><trkpt lat="44.93793655622978" lon="3.231685642169709"><ele>762.0</ele><time>2026-04-05T11:04:17.999Z</time></trkpt><trkpt lat="44.93784959695841" lon="3.2316185200737504"><ele>763.5</ele><time>2026-04-05T11:04:18.999Z</time></trkpt><trkpt lat="44.93776183251934" lon="3.231552327170526"><ele>765.0</ele><time>2026-04-05T11:04:19.999Z</time></trkpt><trkpt lat="44.937687613650816" lon="3.2314964226758596"><ele>766.8571428571429</ele><time>2026-04-05T11:04:20.999Z</time></trkpt><trkpt lat="44.937626654486195" lon="3.231451632916798"><ele>768.7142857142858</ele><time>2026-04-05T11:04:21.999Z</time></trkpt><trkpt lat="44.93756007415996" lon="3.2314061323193384"><ele>770.5714285714287</ele><time>2026-04-05T11:04:22.999Z</time></trkpt><trkpt lat="44.937493623870914" lon="3.2313971601798017"><ele>772.4285714285714</ele><time>2026-04-05T11:04:23.999Z</time></trkpt><trkpt lat="44.93743711204233" lon="3.2313506753080095"><ele>774.2857142857142</ele><time>2026-04-05T11:04:24.999Z</time></trkpt><trkpt lat="44.93737768100753" lon="3.2313106429817267"><ele>776.1428571428572</ele><time>2026-04-05T11:04:25.999Z</time></trkpt><trkpt lat="44.93731564203802" lon="3.231265616435537"><ele>778.0</ele><time>2026-04-05T11:04:26.999Z</time></trkpt><trkpt lat="44.93725914869657" lon="3.2312089359157175"><ele>777.9999999999999</ele><time>2026-04-05T11:04:27.999Z</time></trkpt><trkpt lat="44.93717821125508" lon="3.231103349396227"><ele>778.0</ele><time>2026-04-05T11:04:29.999Z</time></trkpt><trkpt lat="44.937125396249066" lon="3.231017329347454"><ele>778.0</ele><time>2026-04-05T11:04:32Z</time></trkpt><trkpt lat="44.93708430069352" lon="3.23094191012661"><ele>778.0</ele><time>2026-04-05T11:04:34Z</time></trkpt><trkpt lat="44.93704641936047" lon="3.2308583270260156"><ele>777.9999999999999</ele><time>2026-04-05T11:04:36Z</time></trkpt><trkpt lat="44.936983016820115" lon="3.23079691807954"><ele>778.0</ele><time>2026-04-05T11:04:39Z</time></trkpt><trkpt lat="44.93671703999142" lon="3.2313671513887434"><ele>778.0</ele><time>2026-04-05T11:04:46Z</time></trkpt><trkpt lat="44.93676344948581" lon="3.2314760864660195"><ele>778.0</ele><time>2026-04-05T11:04:47Z</time></trkpt><trkpt lat="44.93680354438339" lon="3.2315790762926815"><ele>778.0</ele><time>2026-04-05T11:04:48Z</time></trkpt><trkpt lat="44.93683675454572" lon="3.2316626099122243"><ele>778.0</ele><time>2026-04-05T11:04:49Z</time></trkpt><trkpt lat="44.93691493786203" lon="3.231743899604688"><ele>778.0</ele><time>2026-04-05T11:04:52Z</time></trkpt><trkpt lat="44.93753680607806" lon="3.2314625058094846"><ele>778.0</ele><time>2026-04-05T11:04:58Z</time></trkpt><trkpt lat="44.937604524875155" lon="3.231485148855333"><ele>778.0</ele><time>2026-04-05T11:05:06Z</time></trkpt><trkpt lat="44.93758618620149" lon="3.231358067237198"><ele>778.0</ele><time>2026-04-05T11:05:10Z</time></trkpt><trkpt lat="44.9375154871094" lon="3.23132376795859"><ele>778.0</ele><time>2026-04-05T11:05:11Z</time></trkpt><trkpt lat="44.93746508218324" lon="3.2312655052017023"><ele>778.0</ele><time>2026-04-05T11:05:12Z</time></trkpt><trkpt lat="44.93741384495957" lon="3.231196380966982"><ele>778.0</ele><time>2026-04-05T11:05:13Z</time></trkpt><trkpt lat="44.937370783421116" lon="3.2311298077035904"><ele>778.0</ele><time>2026-04-05T11:05:14Z</time></trkpt><trkpt lat="44.93730551698413" lon="3.2310007666633425"><ele>777.9999999999999</ele><time>2026-04-05T11:05:16Z</time></trkpt><trkpt lat="44.937266585529855" lon="3.2309244219141497"><ele>778.0</ele><time>2026-04-05T11:05:17Z</time></trkpt><trkpt lat="44.93720057986714" lon="3.2307810323597517"><ele>778.0</ele><time>2026-04-05T11:05:19Z</time></trkpt><trkpt lat="44.93716695365747" lon="3.2307043671027738"><ele>778.0</ele><time>2026-04-05T11:05:20Z</time></trkpt><trkpt lat="44.93713138717168" lon="3.2306182322241472"><ele>777.9999999999999</ele><time>2026-04-05T11:05:21Z</time></trkpt><trkpt lat="44.937101321473655" lon="3.230528300795723"><ele>778.0</ele><time>2026-04-05T11:05:22Z</time></trkpt><trkpt lat="44.93707542833046" lon="3.2304313986425033"><ele>783.0</ele><time>2026-04-05T11:05:23Z</time></trkpt><trkpt lat="44.93705600546005" lon="3.2303291423983254"><ele>788.0</ele><time>2026-04-05T11:05:24Z</time></trkpt><trkpt lat="44.9370470102637" lon="3.2302178490331017"><ele>793.0</ele><time>2026-04-05T11:05:25Z</time></trkpt><trkpt lat="44.93703630331664" lon="3.230083628060765"><ele>798.0</ele><time>2026-04-05T11:05:26Z</time></trkpt><trkpt lat="44.93702323891026" lon="3.2299440401007176"><ele>803.0</ele><time>2026-04-05T11:05:27Z</time></trkpt><trkpt lat="44.9370180072096" lon="3.2298005895958695"><ele>807.5</ele><time>2026-04-05T11:05:28Z</time></trkpt><trkpt lat="44.93701077999343" lon="3.2296457154537404"><ele>812.0</ele><time>2026-04-05T11:05:29Z</time></trkpt><trkpt lat="44.93703336018481" lon="3.229473617488719"><ele>816.5</ele><time>2026-04-05T11:05:30Z</time></trkpt><trkpt lat="44.93701888110873" lon="3.229295339927522"><ele>821.0</ele><time>2026-04-05T11:05:31Z</time></trkpt><trkpt lat="44.93700493756368" lon="3.229114905559633"><ele>823.5</ele><time>2026-04-05T11:05:32Z</time></trkpt><trkpt lat="44.936991517325254" lon="3.2289224042375437"><ele>826.0</ele><time>2026-04-05T11:05:33Z</time></trkpt><trkpt lat="44.936978322842975" lon="3.228738263667953"><ele>828.5</ele><time>2026-04-05T11:05:34Z</time></trkpt><trkpt lat="44.936965321296135" lon="3.228553470751956"><ele>831.0</ele><time>2026-04-05T11:05:34.999Z</time></trkpt><trkpt lat="44.93695854519382" lon="3.2283864552051798"><ele>831.0</ele><time>2026-04-05T11:05:35.999Z</time></trkpt><trkpt lat="44.93694527607875" lon="3.228194370659194"><ele>831.0</ele><time>2026-04-05T11:05:36.999Z</time></trkpt><trkpt lat="44.9369236365158" lon="3.227987546262586"><ele>831.0</ele><time>2026-04-05T11:05:37.999Z</time></trkpt><trkpt lat="44.936924470038306" lon="3.2278098638572494"><ele>831.0</ele><time>2026-04-05T11:05:38.999Z</time></trkpt><trkpt lat="44.93694123802292" lon="3.2276796548172504"><ele>832.0</ele><time>2026-04-05T11:05:39.999Z</time></trkpt><trkpt lat="44.93697798565599" lon="3.2275907791438283"><ele>833.0</ele><time>2026-04-05T11:05:40.999Z</time></trkpt><trkpt lat="44.93701201259882" lon="3.227483841599931"><ele>834.0</ele><time>2026-04-05T11:05:41.999Z</time></trkpt><trkpt lat="44.937025377367334" lon="3.2273587910067176"><ele>835.0</ele><time>2026-04-05T11:05:42.999Z</time></trkpt><trkpt lat="44.936908034475145" lon="3.227253760521159"><ele>836.0</ele><time>2026-04-05T11:05:43.999Z</time></trkpt><trkpt lat="44.9368436501952" lon="3.227154094068882"><ele>839.25</ele><time>2026-04-05T11:05:44.999Z</time></trkpt><trkpt lat="44.936790519895126" lon="3.227035798902363"><ele>842.5</ele><time>2026-04-05T11:05:45.999Z</time></trkpt><trkpt lat="44.936795589854796" lon="3.226898418820368"><ele>845.75</ele><time>2026-04-05T11:05:46.999Z</time></trkpt><trkpt lat="44.936774117032954" lon="3.2267431676016263"><ele>849.0</ele><time>2026-04-05T11:05:47.999Z</time></trkpt><trkpt lat="44.936734780807996" lon="3.2265457933903376"><ele>841.0</ele><time>2026-04-05T11:05:48.999Z</time></trkpt><trkpt lat="44.93671093414783" lon="3.2263350973549563"><ele>833.0</ele><time>2026-04-05T11:05:49.999Z</time></trkpt><trkpt lat="44.93666420811703" lon="3.2261577587562997"><ele>825.0</ele><time>2026-04-05T11:05:50.999Z</time></trkpt><trkpt lat="44.93664050210442" lon="3.2259876289097598"><ele>817.0</ele><time>2026-04-05T11:05:51.999Z</time></trkpt><trkpt lat="44.936609573402365" lon="3.225807467578338"><ele>820.0</ele><time>2026-04-05T11:05:52.999Z</time></trkpt><trkpt lat="44.93658632783284" lon="3.225632654400901"><ele>823.0</ele><time>2026-04-05T11:05:53.999Z</time></trkpt><trkpt lat="44.93656188321781" lon="3.2254481245869955"><ele>826.0</ele><time>2026-04-05T11:05:54.999Z</time></trkpt><trkpt lat="44.93653931651022" lon="3.225269737224136"><ele>829.0</ele><time>2026-04-05T11:05:55.999Z</time></trkpt><trkpt lat="44.936531389665205" lon="3.2251028359529306"><ele>829.0</ele><time>2026-04-05T11:05:56.999Z</time></trkpt><trkpt lat="44.93652870883331" lon="3.2249661726082124"><ele>829.0</ele><time>2026-04-05T11:05:57.999Z</time></trkpt><trkpt lat="44.936556350148415" lon="3.224847270568058"><ele>829.0</ele><time>2026-04-05T11:05:58.999Z</time></trkpt><trkpt lat="44.93657875561504" lon="3.22469798341018"><ele>829.0</ele><time>2026-04-05T11:05:59.999Z</time></trkpt><trkpt lat="44.936554700839714" lon="3.224553554869221"><ele>829.0</ele><time>2026-04-05T11:06:00.999Z</time></trkpt><trkpt lat="44.9364816574441" lon="3.22449004320906"><ele>832.6</ele><time>2026-04-05T11:06:01.999Z</time></trkpt><trkpt lat="44.936376091294164" lon="3.2244412661048822"><ele>836.2</ele><time>2026-04-05T11:06:02.999Z</time></trkpt><trkpt lat="44.936275095040195" lon="3.224376830590374"><ele>839.8000000000001</ele><time>2026-04-05T11:06:03.999Z</time></trkpt><trkpt lat="44.936212570377016" lon="3.2242922106417775"><ele>843.4000000000001</ele><time>2026-04-05T11:06:04.999Z</time></trkpt><trkpt lat="44.93616664576947" lon="3.2241678940436587"><ele>847.0</ele><time>2026-04-05T11:06:05.999Z</time></trkpt><trkpt lat="44.936117532949446" lon="3.2240164426880806"><ele>852.25</ele><time>2026-04-05T11:06:06.999Z</time></trkpt><trkpt lat="44.93605981692314" lon="3.223850705437352"><ele>857.5</ele><time>2026-04-05T11:06:07.999Z</time></trkpt><trkpt lat="44.93600798518515" lon="3.223678827931622"><ele>862.75</ele><time>2026-04-05T11:06:08.999Z</time></trkpt><trkpt lat="44.93595768354451" lon="3.223516683061871"><ele>868.0</ele><time>2026-04-05T11:06:09.999Z</time></trkpt><trkpt lat="44.935935620122144" lon="3.223376835022239"><ele>867.9999999999999</ele><time>2026-04-05T11:06:10.999Z</time></trkpt><trkpt lat="44.93592921014819" lon="3.2232396013511173"><ele>868.0</ele><time>2026-04-05T11:06:11.999Z</time></trkpt><trkpt lat="44.93595821534193" lon="3.2231168189555994"><ele>868.0</ele><time>2026-04-05T11:06:12.999Z</time></trkpt><trkpt lat="44.93599570478998" lon="3.2229885653647528"><ele>868.0</ele><time>2026-04-05T11:06:13.999Z</time></trkpt><trkpt lat="44.9360215854563" lon="3.222871109399941"><ele>867.9999999999999</ele><time>2026-04-05T11:06:14.999Z</time></trkpt><trkpt lat="44.935982411181" lon="3.222791878523599"><ele>868.0</ele><time>2026-04-05T11:06:15.999Z</time></trkpt><trkpt lat="44.93589580793771" lon="3.222724598759755"><ele>864.75</ele><time>2026-04-05T11:06:16.999Z</time></trkpt><trkpt lat="44.93577451205596" lon="3.222668129785195"><ele>861.5</ele><time>2026-04-05T11:06:17.999Z</time></trkpt><trkpt lat="44.93567568207017" lon="3.2225868445499226"><ele>858.25</ele><time>2026-04-05T11:06:18.999Z</time></trkpt><trkpt lat="44.935615670227904" lon="3.2224650510174313"><ele>855.0</ele><time>2026-04-05T11:06:19.999Z</time></trkpt><trkpt lat="44.935567471994005" lon="3.2223170987050564"><ele>859.5</ele><time>2026-04-05T11:06:20.999Z</time></trkpt><trkpt lat="44.93552171292337" lon="3.2221438501943327"><ele>864.0</ele><time>2026-04-05T11:06:21.999Z</time></trkpt><trkpt lat="44.935473634723856" lon="3.2219784166552845"><ele>868.5</ele><time>2026-04-05T11:06:22.999Z</time></trkpt><trkpt lat="44.93543721183567" lon="3.2218198699908878"><ele>873.0</ele><time>2026-04-05T11:06:23.999Z</time></trkpt><trkpt lat="44.93538989144151" lon="3.221664343658394"><ele>873.0</ele><time>2026-04-05T11:06:24.999Z</time></trkpt><trkpt lat="44.93534845551349" lon="3.2214970382558565"><ele>873.0</ele><time>2026-04-05T11:06:25.999Z</time></trkpt><trkpt lat="44.935315245160695" lon="3.221342528901102"><ele>873.0</ele><time>2026-04-05T11:06:26.999Z</time></trkpt><trkpt lat="44.9353041188924" lon="3.2212164607567955"><ele>873.0</ele><time>2026-04-05T11:06:27.999Z</time></trkpt><trkpt lat="44.93529865761601" lon="3.221085490041805"><ele>873.0</ele><time>2026-04-05T11:06:28.999Z</time></trkpt><trkpt lat="44.9353156815068" lon="3.2209418710760844"><ele>875.0</ele><time>2026-04-05T11:06:29.999Z</time></trkpt><trkpt lat="44.93534888035794" lon="3.220791052933826"><ele>877.0</ele><time>2026-04-05T11:06:30.999Z</time></trkpt><trkpt lat="44.935387527790425" lon="3.220622611059728"><ele>879.0</ele><time>2026-04-05T11:06:31.999Z</time></trkpt><trkpt lat="44.935374413070306" lon="3.2204830433653324"><ele>881.0</ele><time>2026-04-05T11:06:32.999Z</time></trkpt><trkpt lat="44.935306388986255" lon="3.2203820358437736"><ele>883.0</ele><time>2026-04-05T11:06:33.999Z</time></trkpt><trkpt lat="44.935206738166855" lon="3.220291703188938"><ele>886.5</ele><time>2026-04-05T11:06:34.999Z</time></trkpt><trkpt lat="44.935095435505026" lon="3.2202064035917113"><ele>890.0</ele><time>2026-04-05T11:06:35.999Z</time></trkpt><trkpt lat="44.934962393930604" lon="3.220120575497443"><ele>893.5</ele><time>2026-04-05T11:06:37Z</time></trkpt><trkpt lat="44.934891758366824" lon="3.2200374170107864"><ele>897.0</ele><time>2026-04-05T11:06:38Z</time></trkpt><trkpt lat="44.93487246650995" lon="3.2198729727703777"><ele>892.5</ele><time>2026-04-05T11:06:39Z</time></trkpt><trkpt lat="44.93484670144144" lon="3.2196798978944625"><ele>888.0</ele><time>2026-04-05T11:06:40Z</time></trkpt><trkpt lat="44.93482307658134" lon="3.219474654591613"><ele>883.5</ele><time>2026-04-05T11:06:41Z</time></trkpt><trkpt lat="44.93479175472388" lon="3.219251610262314"><ele>879.0</ele><time>2026-04-05T11:06:42Z</time></trkpt><trkpt lat="44.93480238387977" lon="3.219081049676314"><ele>881.0</ele><time>2026-04-05T11:06:43Z</time></trkpt><trkpt lat="44.934823089249235" lon="3.218950627178494"><ele>883.0000000000001</ele><time>2026-04-05T11:06:44Z</time></trkpt><trkpt lat="44.93487534299557" lon="3.2188188935431303"><ele>885.0000000000001</ele><time>2026-04-05T11:06:45Z</time></trkpt><trkpt lat="44.93491750388174" lon="3.2186689442952443"><ele>887.0</ele><time>2026-04-05T11:06:46Z</time></trkpt><trkpt lat="44.93490998617359" lon="3.2185262759659046"><ele>889.0</ele><time>2026-04-05T11:06:47Z</time></trkpt><trkpt lat="44.93485114989623" lon="3.2183624682007665"><ele>889.0</ele><time>2026-04-05T11:06:48Z</time></trkpt><trkpt lat="44.934808029013155" lon="3.218192936569015"><ele>889.0</ele><time>2026-04-05T11:06:49Z</time></trkpt><trkpt lat="44.93479889526107" lon="3.218005548427994"><ele>889.0</ele><time>2026-04-05T11:06:50Z</time></trkpt><trkpt lat="44.93479494561324" lon="3.2178123835276704"><ele>889.0</ele><time>2026-04-05T11:06:51Z</time></trkpt><trkpt lat="44.93476477125601" lon="3.217592611432696"><ele>890.5</ele><time>2026-04-05T11:06:52Z</time></trkpt><trkpt lat="44.93473055965101" lon="3.2173823240794697"><ele>892.0</ele><time>2026-04-05T11:06:53Z</time></trkpt><trkpt lat="44.93472792220934" lon="3.217220619746225"><ele>893.5</ele><time>2026-04-05T11:06:54Z</time></trkpt><trkpt lat="44.93477380763073" lon="3.217097233659299"><ele>895.0</ele><time>2026-04-05T11:06:55Z</time></trkpt><trkpt lat="44.93482169775831" lon="3.216968295302418"><ele>895.0</ele><time>2026-04-05T11:06:56Z</time></trkpt><trkpt lat="44.93489332504487" lon="3.216850938699828"><ele>895.0</ele><time>2026-04-05T11:06:57Z</time></trkpt><trkpt lat="44.93495753512147" lon="3.2167347688649093"><ele>895.0</ele><time>2026-04-05T11:06:58Z</time></trkpt><trkpt lat="44.9350224584114" lon="3.2166441280042544"><ele>895.0</ele><time>2026-04-05T11:06:59Z</time></trkpt><trkpt lat="44.93508496568201" lon="3.2165560651937737"><ele>895.0</ele><time>2026-04-05T11:07:00Z</time></trkpt><trkpt lat="44.93513534445043" lon="3.2164527685314437"><ele>897.8571428571429</ele><time>2026-04-05T11:07:01Z</time></trkpt><trkpt lat="44.935203890951485" lon="3.2163761024001936"><ele>900.7142857142858</ele><time>2026-04-05T11:07:02Z</time></trkpt><trkpt lat="44.93525259161782" lon="3.2162972850571983"><ele>903.5714285714287</ele><time>2026-04-05T11:07:03Z</time></trkpt><trkpt lat="44.93529642964327" lon="3.216224535317037"><ele>906.4285714285714</ele><time>2026-04-05T11:07:04Z</time></trkpt><trkpt lat="44.93535434105232" lon="3.216169825432587"><ele>909.2857142857144</ele><time>2026-04-05T11:07:05Z</time></trkpt><trkpt lat="44.93540776268526" lon="3.2161014392526583"><ele>912.1428571428572</ele><time>2026-04-05T11:07:06Z</time></trkpt><trkpt lat="44.935434457983575" lon="3.216020759774381"><ele>915.0</ele><time>2026-04-05T11:07:07Z</time></trkpt><trkpt lat="44.935488251039416" lon="3.2159450272774466"><ele>915.0</ele><time>2026-04-05T11:07:08Z</time></trkpt><trkpt lat="44.9355362452741" lon="3.215885524514885"><ele>915.0</ele><time>2026-04-05T11:07:09Z</time></trkpt><trkpt lat="44.935604773696475" lon="3.215804138716083"><ele>915.0</ele><time>2026-04-05T11:07:10Z</time></trkpt><trkpt lat="44.935669198257045" lon="3.2157160658928663"><ele>915.0</ele><time>2026-04-05T11:07:11Z</time></trkpt><trkpt lat="44.93572448321549" lon="3.2156263279670907"><ele>915.0</ele><time>2026-04-05T11:07:12Z</time></trkpt><trkpt lat="44.93577758078176" lon="3.21551281319119"><ele>915.0</ele><time>2026-04-05T11:07:13Z</time></trkpt><trkpt lat="44.93582080520324" lon="3.215375494561403"><ele>915.0</ele><time>2026-04-05T11:07:14Z</time></trkpt><trkpt lat="44.93584760439667" lon="3.215223947852172"><ele>915.0</ele><time>2026-04-05T11:07:15Z</time></trkpt><trkpt lat="44.9358568334522" lon="3.2150649941238827"><ele>915.0</ele><time>2026-04-05T11:07:16Z</time></trkpt><trkpt lat="44.93585090408502" lon="3.214895062697153"><ele>915.0</ele><time>2026-04-05T11:07:17Z</time></trkpt><trkpt lat="44.93583531329651" lon="3.2147274305565534"><ele>916.0</ele><time>2026-04-05T11:07:18Z</time></trkpt><trkpt lat="44.93583512408549" lon="3.21455234037657"><ele>917.0</ele><time>2026-04-05T11:07:19Z</time></trkpt><trkpt lat="44.93582306795916" lon="3.214378732098265"><ele>918.0</ele><time>2026-04-05T11:07:20Z</time></trkpt><trkpt lat="44.93580080867598" lon="3.2142267500386184"><ele>919.0</ele><time>2026-04-05T11:07:21Z</time></trkpt><trkpt lat="44.93579681399963" lon="3.2140969280807656"><ele>920.0</ele><time>2026-04-05T11:07:22Z</time></trkpt><trkpt lat="44.93580667539403" lon="3.2140062766746516"><ele>921.0</ele><time>2026-04-05T11:07:23Z</time></trkpt><trkpt lat="44.93586994158986" lon="3.2139535257286846"><ele>922.0</ele><time>2026-04-05T11:07:25Z</time></trkpt><trkpt lat="44.93596163863394" lon="3.2140438661419966"><ele>923.0</ele><time>2026-04-05T11:07:27Z</time></trkpt><trkpt lat="44.93599115430392" lon="3.214142579084768"><ele>924.0</ele><time>2026-04-05T11:07:28Z</time></trkpt><trkpt lat="44.93603044179288" lon="3.214255168161093"><ele>925.0</ele><time>2026-04-05T11:07:29Z</time></trkpt><trkpt lat="44.936083732583285" lon="3.2144014706766018"><ele>926.4</ele><time>2026-04-05T11:07:30Z</time></trkpt><trkpt lat="44.9361781184902" lon="3.2145446062366654"><ele>927.8</ele><time>2026-04-05T11:07:31Z</time></trkpt><trkpt lat="44.936267275427035" lon="3.214673496727173"><ele>929.2</ele><time>2026-04-05T11:07:32Z</time></trkpt><trkpt lat="44.93634161234104" lon="3.2147495705649454"><ele>930.6</ele><time>2026-04-05T11:07:33Z</time></trkpt><trkpt lat="44.93642607590893" lon="3.2147657918143318"><ele>932.0</ele><time>2026-04-05T11:07:34Z</time></trkpt><trkpt lat="44.93649212167148" lon="3.2147076974977935"><ele>932.0</ele><time>2026-04-05T11:07:35Z</time></trkpt><trkpt lat="44.93654864491312" lon="3.214604009542021"><ele>932.0</ele><time>2026-04-05T11:07:36Z</time></trkpt><trkpt lat="44.9366160219828" lon="3.2146288609962275"><ele>932.0</ele><time>2026-04-05T11:07:36.999Z</time></trkpt><trkpt lat="44.936676828051745" lon="3.21448101744441"><ele>932.0</ele><time>2026-04-05T11:07:37.999Z</time></trkpt><trkpt lat="44.93675291721397" lon="3.21431962913829"><ele>932.0</ele><time>2026-04-05T11:07:38.999Z</time></trkpt><trkpt lat="44.93682385538981" lon="3.21421265781112"><ele>932.0000000000001</ele><time>2026-04-05T11:07:39.999Z</time></trkpt><trkpt lat="44.93688159815755" lon="3.214118183738645"><ele>932.0</ele><time>2026-04-05T11:07:40.999Z</time></trkpt><trkpt lat="44.936936343653315" lon="3.21402766646276"><ele>932.0</ele><time>2026-04-05T11:07:41.999Z</time></trkpt><trkpt lat="44.9369921169171" lon="3.2139446837903636"><ele>932.0</ele><time>2026-04-05T11:07:42.999Z</time></trkpt><trkpt lat="44.937041588726615" lon="3.2138523093879"><ele>932.0000000000001</ele><time>2026-04-05T11:07:43.999Z</time></trkpt><trkpt lat="44.937075174883844" lon="3.2137497478136248"><ele>932.0</ele><time>2026-04-05T11:07:45.999Z</time></trkpt><trkpt lat="44.93709315628298" lon="3.2136424118112474"><ele>932.1428571428571</ele><time>2026-04-05T11:07:49.999Z</time></trkpt><trkpt lat="44.937122823203175" lon="3.213559979575486"><ele>932.2857142857142</ele><time>2026-04-05T11:07:50.999Z</time></trkpt><trkpt lat="44.937151037761716" lon="3.2134566975839456"><ele>932.4285714285713</ele><time>2026-04-05T11:07:51.999Z</time></trkpt><trkpt lat="44.93715205179376" lon="3.2133472471286253"><ele>932.5714285714286</ele><time>2026-04-05T11:07:52.999Z</time></trkpt><trkpt lat="44.93714828480719" lon="3.2132368927069774"><ele>932.7142857142856</ele><time>2026-04-05T11:07:53.999Z</time></trkpt><trkpt lat="44.93714628643919" lon="3.2131477831857818"><ele>932.8571428571428</ele><time>2026-04-05T11:07:54.999Z</time></trkpt><trkpt lat="44.93715575846391" lon="3.2130387780080323"><ele>933.0</ele><time>2026-04-05T11:07:56.999Z</time></trkpt><trkpt lat="44.93713803942804" lon="3.212939895944342"><ele>932.6666666666666</ele><time>2026-04-05T11:07:59.999Z</time></trkpt><trkpt lat="44.93706761738918" lon="3.21290286142573"><ele>932.3333333333333</ele><time>2026-04-05T11:08:25.999Z</time></trkpt><trkpt lat="44.93696941157137" lon="3.212788843021445"><ele>932.0</ele><time>2026-04-05T11:08:27.999Z</time></trkpt><trkpt lat="44.93690525360596" lon="3.212726894532183"><ele>931.6666666666666</ele><time>2026-04-05T11:08:28.999Z</time></trkpt><trkpt lat="44.93683799935361" lon="3.212659198003941"><ele>931.3333333333333</ele><time>2026-04-05T11:08:29.999Z</time></trkpt><trkpt lat="44.93676844149879" lon="3.212601833326256"><ele>931.0</ele><time>2026-04-05T11:08:30.999Z</time></trkpt><trkpt lat="44.936695774798906" lon="3.212547359314189"><ele>931.0</ele><time>2026-04-05T11:08:31.999Z</time></trkpt><trkpt lat="44.93661852354883" lon="3.2124909627711156"><ele>930.9999999999999</ele><time>2026-04-05T11:08:32.999Z</time></trkpt><trkpt lat="44.936534834385654" lon="3.2124352756425765"><ele>930.9999999999999</ele><time>2026-04-05T11:08:33.999Z</time></trkpt><trkpt lat="44.93644794207692" lon="3.2123784496712786"><ele>931.0</ele><time>2026-04-05T11:08:34.999Z</time></trkpt><trkpt lat="44.93635764643977" lon="3.212314981598176"><ele>931.0</ele><time>2026-04-05T11:08:35.999Z</time></trkpt><trkpt lat="44.936267463164114" lon="3.212246708101612"><ele>930.5999999999999</ele><time>2026-04-05T11:08:36.999Z</time></trkpt><trkpt lat="44.93617605245752" lon="3.2121708323583626"><ele>930.1999999999999</ele><time>2026-04-05T11:08:37.999Z</time></trkpt><trkpt lat="44.93608579251605" lon="3.2120906790674817"><ele>929.8000000000001</ele><time>2026-04-05T11:08:38.999Z</time></trkpt><trkpt lat="44.935997881216664" lon="3.21199609125404"><ele>929.4000000000001</ele><time>2026-04-05T11:08:39.999Z</time></trkpt><trkpt lat="44.93591512914887" lon="3.2118897231897363"><ele>929.0</ele><time>2026-04-05T11:08:40.999Z</time></trkpt><trkpt lat="44.93583226686138" lon="3.2117753049999767"><ele>929.0</ele><time>2026-04-05T11:08:42Z</time></trkpt><trkpt lat="44.93575321719834" lon="3.2116557105536128"><ele>929.0</ele><time>2026-04-05T11:08:43Z</time></trkpt><trkpt lat="44.93567695978714" lon="3.2115262311979214"><ele>929.0</ele><time>2026-04-05T11:08:44Z</time></trkpt><trkpt lat="44.93562213758341" lon="3.2113677824037072"><ele>929.0</ele><time>2026-04-05T11:08:45Z</time></trkpt><trkpt lat="44.93554466071717" lon="3.2112199554570293"><ele>929.6</ele><time>2026-04-05T11:08:46Z</time></trkpt><trkpt lat="44.93548933174129" lon="3.211064684497554"><ele>930.2</ele><time>2026-04-05T11:08:47Z</time></trkpt><trkpt lat="44.93544485374969" lon="3.210929142604126"><ele>930.8000000000001</ele><time>2026-04-05T11:08:48Z</time></trkpt><trkpt lat="44.9354006824059" lon="3.210809986387582"><ele>931.4000000000001</ele><time>2026-04-05T11:08:49Z</time></trkpt><trkpt lat="44.93534994000273" lon="3.2107054800215153"><ele>932.0</ele><time>2026-04-05T11:08:50Z</time></trkpt><trkpt lat="44.93528268833816" lon="3.210622081982431"><ele>932.0</ele><time>2026-04-05T11:08:51Z</time></trkpt><trkpt lat="44.935195491513724" lon="3.2105538382433876"><ele>932.0</ele><time>2026-04-05T11:08:52Z</time></trkpt><trkpt lat="44.935099052735396" lon="3.2105128273380643"><ele>932.0</ele><time>2026-04-05T11:08:53Z</time></trkpt><trkpt lat="44.934994153056195" lon="3.210490305430494"><ele>932.0</ele><time>2026-04-05T11:08:54Z</time></trkpt><trkpt lat="44.93489856836751" lon="3.21046119951194"><ele>932.0</ele><time>2026-04-05T11:08:55Z</time></trkpt><trkpt lat="44.934809879814644" lon="3.210449400821482"><ele>932.0000000000001</ele><time>2026-04-05T11:08:56Z</time></trkpt><trkpt lat="44.93473482568996" lon="3.2104354814077767"><ele>932.0</ele><time>2026-04-05T11:08:57Z</time></trkpt><trkpt lat="44.9346612467067" lon="3.210434132173366"><ele>932.0</ele><time>2026-04-05T11:08:58Z</time></trkpt><trkpt lat="44.93461113184964" lon="3.2103754592582274"><ele>932.0</ele><time>2026-04-05T11:08:59Z</time></trkpt><trkpt lat="44.934581621966494" lon="3.210214472743001"><ele>932.0000000000001</ele><time>2026-04-05T11:09:01Z</time></trkpt><trkpt lat="44.934583345101146" lon="3.210118425199737"><ele>932.0</ele><time>2026-04-05T11:09:02Z</time></trkpt><trkpt lat="44.93456222629941" lon="3.210020728940842"><ele>932.0</ele><time>2026-04-05T11:09:03Z</time></trkpt><trkpt lat="44.934516649930295" lon="3.209922526545311"><ele>932.0</ele><time>2026-04-05T11:09:04Z</time></trkpt><trkpt lat="44.93446245616496" lon="3.20981334196199"><ele>932.0</ele><time>2026-04-05T11:09:05Z</time></trkpt><trkpt lat="44.93440750671579" lon="3.209693744854522"><ele>932.0</ele><time>2026-04-05T11:09:06Z</time></trkpt><trkpt lat="44.934337516407574" lon="3.2095769373927707"><ele>932.0</ele><time>2026-04-05T11:09:07Z</time></trkpt><trkpt lat="44.93426670414596" lon="3.2094506687964075"><ele>931.2</ele><time>2026-04-05T11:09:08Z</time></trkpt><trkpt lat="44.93420389808674" lon="3.209336161077193"><ele>930.4000000000001</ele><time>2026-04-05T11:09:09Z</time></trkpt><trkpt lat="44.934157244330216" lon="3.209243262279744"><ele>929.5999999999999</ele><time>2026-04-05T11:09:10Z</time></trkpt><trkpt lat="44.934141422384734" lon="3.2091468969155494"><ele>928.8</ele><time>2026-04-05T11:09:11Z</time></trkpt><trkpt lat="44.9341375592483" lon="3.208973604294364"><ele>928.0</ele><time>2026-04-05T11:09:13Z</time></trkpt><trkpt lat="44.934195979263215" lon="3.2088356118189827"><ele>928.0</ele><time>2026-04-05T11:09:15Z</time></trkpt><trkpt lat="44.93422423444139" lon="3.2087543760513726"><ele>928.0</ele><time>2026-04-05T11:09:16Z</time></trkpt><trkpt lat="44.93427473271135" lon="3.208670152751299"><ele>928.0</ele><time>2026-04-05T11:09:17Z</time></trkpt><trkpt lat="44.93425177403926" lon="3.2085262974132767"><ele>928.0</ele><time>2026-04-05T11:09:18Z</time></trkpt><trkpt lat="44.93423737789595" lon="3.208388312464619"><ele>928.0</ele><time>2026-04-05T11:09:19Z</time></trkpt><trkpt lat="44.934208653011225" lon="3.208244343542118"><ele>927.5</ele><time>2026-04-05T11:09:20Z</time></trkpt><trkpt lat="44.934171762371456" lon="3.2080955417820025"><ele>927.0</ele><time>2026-04-05T11:09:21Z</time></trkpt><trkpt lat="44.934161655593655" lon="3.207942077340017"><ele>926.5</ele><time>2026-04-05T11:09:22Z</time></trkpt><trkpt lat="44.93418016241751" lon="3.2077843677621733"><ele>926.0</ele><time>2026-04-05T11:09:23Z</time></trkpt><trkpt lat="44.9342443158544" lon="3.2076436647396123"><ele>928.25</ele><time>2026-04-05T11:09:24Z</time></trkpt><trkpt lat="44.934278118341794" lon="3.2074872444000504"><ele>930.5</ele><time>2026-04-05T11:09:25Z</time></trkpt><trkpt lat="44.934315242037044" lon="3.2073383983132717"><ele>932.75</ele><time>2026-04-05T11:09:26Z</time></trkpt><trkpt lat="44.934317143956385" lon="3.2071788697383843"><ele>935.0</ele><time>2026-04-05T11:09:27Z</time></trkpt><trkpt lat="44.93427035498573" lon="3.2070233401342305"><ele>934.25</ele><time>2026-04-05T11:09:28Z</time></trkpt><trkpt lat="44.934191309703735" lon="3.2068854293400397"><ele>933.5</ele><time>2026-04-05T11:09:29Z</time></trkpt><trkpt lat="44.934089401146515" lon="3.206765179941528"><ele>932.75</ele><time>2026-04-05T11:09:30Z</time></trkpt><trkpt lat="44.93397815951943" lon="3.2066507081876363"><ele>932.0</ele><time>2026-04-05T11:09:31Z</time></trkpt><trkpt lat="44.933870622037105" lon="3.2065415973128557"><ele>933.75</ele><time>2026-04-05T11:09:32Z</time></trkpt><trkpt lat="44.93376347328112" lon="3.206424347786949"><ele>935.5</ele><time>2026-04-05T11:09:33Z</time></trkpt><trkpt lat="44.93366561520655" lon="3.2062943404683626"><ele>937.25</ele><time>2026-04-05T11:09:33.999Z</time></trkpt><trkpt lat="44.933582989841476" lon="3.206162772797746"><ele>939.0</ele><time>2026-04-05T11:09:34.999Z</time></trkpt><trkpt lat="44.93351192092205" lon="3.2060468861336315"><ele>939.0</ele><time>2026-04-05T11:09:35.999Z</time></trkpt><trkpt lat="44.93343948778064" lon="3.2059592911396444"><ele>939.0000000000001</ele><time>2026-04-05T11:09:36.999Z</time></trkpt><trkpt lat="44.933351551567334" lon="3.2059049733626517"><ele>939.0000000000001</ele><time>2026-04-05T11:09:37.999Z</time></trkpt><trkpt lat="44.93324635182615" lon="3.205876678412621"><ele>939.0</ele><time>2026-04-05T11:09:38.999Z</time></trkpt><trkpt lat="44.93312161101478" lon="3.2058958870901315"><ele>939.0</ele><time>2026-04-05T11:09:39.999Z</time></trkpt><trkpt lat="44.93298483109377" lon="3.205919322660444"><ele>938.2</ele><time>2026-04-05T11:09:40.999Z</time></trkpt><trkpt lat="44.93286133284228" lon="3.205933687938697"><ele>937.4000000000001</ele><time>2026-04-05T11:09:41.999Z</time></trkpt><trkpt lat="44.93276404791752" lon="3.2059400669342315"><ele>936.6</ele><time>2026-04-05T11:09:42.999Z</time></trkpt><trkpt lat="44.932691804567426" lon="3.2059353755396223"><ele>935.8</ele><time>2026-04-05T11:09:43.999Z</time></trkpt><trkpt lat="44.932602776530615" lon="3.2059259092069876"><ele>935.0</ele><time>2026-04-05T11:09:45.999Z</time></trkpt><trkpt lat="44.93268644936242" lon="3.2057938209006047"><ele>935.0</ele><time>2026-04-05T11:09:50.999Z</time></trkpt><trkpt lat="44.932767663337316" lon="3.205742116027823"><ele>935.0</ele><time>2026-04-05T11:09:51.999Z</time></trkpt><trkpt lat="44.93286184104844" lon="3.205715580277794"><ele>935.0</ele><time>2026-04-05T11:09:52.999Z</time></trkpt><trkpt lat="44.932971615299614" lon="3.205679983205959"><ele>935.0</ele><time>2026-04-05T11:09:53.999Z</time></trkpt><trkpt lat="44.93309317883893" lon="3.2056376620078653"><ele>935.0</ele><time>2026-04-05T11:09:54.999Z</time></trkpt><trkpt lat="44.933220253496366" lon="3.2055874135503375"><ele>935.75</ele><time>2026-04-05T11:09:55.999Z</time></trkpt><trkpt lat="44.93336056195372" lon="3.2055268764665947"><ele>936.5</ele><time>2026-04-05T11:09:56.999Z</time></trkpt><trkpt lat="44.933501148949446" lon="3.2054680288974255"><ele>937.25</ele><time>2026-04-05T11:09:57.999Z</time></trkpt><trkpt lat="44.93363856331601" lon="3.205418972542462"><ele>938.0</ele><time>2026-04-05T11:09:58.999Z</time></trkpt><trkpt lat="44.93377377545902" lon="3.2053670816940794"><ele>939.5</ele><time>2026-04-05T11:09:59.999Z</time></trkpt><trkpt lat="44.933910962082365" lon="3.2053106870787555"><ele>941.0</ele><time>2026-04-05T11:10:00.999Z</time></trkpt><trkpt lat="44.93404881188433" lon="3.2052641153910075"><ele>942.5</ele><time>2026-04-05T11:10:01.999Z</time></trkpt><trkpt lat="44.93418946207525" lon="3.205228601497123"><ele>944.0</ele><time>2026-04-05T11:10:02.999Z</time></trkpt><trkpt lat="44.93431980544553" lon="3.2052188179493983"><ele>944.6</ele><time>2026-04-05T11:10:03.999Z</time></trkpt><trkpt lat="44.934428575937105" lon="3.205227446190117"><ele>945.2</ele><time>2026-04-05T11:10:04.999Z</time></trkpt><trkpt lat="44.934523005983856" lon="3.205232950649052"><ele>945.8000000000001</ele><time>2026-04-05T11:10:05.999Z</time></trkpt><trkpt lat="44.9346176411683" lon="3.2052302150814094"><ele>946.4000000000001</ele><time>2026-04-05T11:10:06.999Z</time></trkpt><trkpt lat="44.934712969891905" lon="3.205223778600589"><ele>947.0</ele><time>2026-04-05T11:10:07.999Z</time></trkpt><trkpt lat="44.93481411519746" lon="3.205211771808121"><ele>947.0</ele><time>2026-04-05T11:10:08.999Z</time></trkpt><trkpt lat="44.93491680189622" lon="3.2051913086626596"><ele>947.0</ele><time>2026-04-05T11:10:09.999Z</time></trkpt><trkpt lat="44.935022227333015" lon="3.2051636403741464"><ele>947.0</ele><time>2026-04-05T11:10:10.999Z</time></trkpt><trkpt lat="44.93512608410258" lon="3.2051205098424163"><ele>947.0</ele><time>2026-04-05T11:10:11.999Z</time></trkpt><trkpt lat="44.93523237445934" lon="3.205063586227421"><ele>947.0</ele><time>2026-04-05T11:10:12.999Z</time></trkpt><trkpt lat="44.93533861360354" lon="3.205002084392388"><ele>946.75</ele><time>2026-04-05T11:10:13.999Z</time></trkpt><trkpt lat="44.93544913406944" lon="3.204943636623391"><ele>946.5</ele><time>2026-04-05T11:10:14.999Z</time></trkpt><trkpt lat="44.93556641117095" lon="3.204883678869084"><ele>946.25</ele><time>2026-04-05T11:10:15.999Z</time></trkpt><trkpt lat="44.93568379606675" lon="3.2048226409194034"><ele>946.0</ele><time>2026-04-05T11:10:16.999Z</time></trkpt><trkpt lat="44.93580371908706" lon="3.2047624638289838"><ele>945.4</ele><time>2026-04-05T11:10:17.999Z</time></trkpt><trkpt lat="44.93592335476789" lon="3.2047074036115983"><ele>944.8</ele><time>2026-04-05T11:10:18.999Z</time></trkpt><trkpt lat="44.936031936147586" lon="3.204654263778559"><ele>944.1999999999999</ele><time>2026-04-05T11:10:19.999Z</time></trkpt><trkpt lat="44.936129880346016" lon="3.2046067917671675"><ele>943.5999999999999</ele><time>2026-04-05T11:10:20.999Z</time></trkpt><trkpt lat="44.936218588771595" lon="3.2045647685336243"><ele>943.0</ele><time>2026-04-05T11:10:21.999Z</time></trkpt><trkpt lat="44.93630029070334" lon="3.204527741550908"><ele>942.9999999999999</ele><time>2026-04-05T11:10:22.999Z</time></trkpt><trkpt lat="44.936376666980074" lon="3.2044901372056716"><ele>943.0</ele><time>2026-04-05T11:10:23.999Z</time></trkpt><trkpt lat="44.93645309092486" lon="3.2044505900404374"><ele>943.0</ele><time>2026-04-05T11:10:24.999Z</time></trkpt><trkpt lat="44.9365322314077" lon="3.2044122312146843"><ele>943.0</ele><time>2026-04-05T11:10:25.999Z</time></trkpt><trkpt lat="44.93661447535305" lon="3.2043713689503073"><ele>942.9999999999999</ele><time>2026-04-05T11:10:26.999Z</time></trkpt><trkpt lat="44.936700385475255" lon="3.204327277907275"><ele>943.0</ele><time>2026-04-05T11:10:27.999Z</time></trkpt><trkpt lat="44.9367831263852" lon="3.2042799760673226"><ele>942.8333333333333</ele><time>2026-04-05T11:10:28.999Z</time></trkpt><trkpt lat="44.936856700401606" lon="3.204239578446294"><ele>942.6666666666666</ele><time>2026-04-05T11:10:29.999Z</time></trkpt><trkpt lat="44.93692583571871" lon="3.204208883039416"><ele>942.5</ele><time>2026-04-05T11:10:30.999Z</time></trkpt><trkpt lat="44.93699234913244" lon="3.2041736311454145"><ele>942.3333333333333</ele><time>2026-04-05T11:10:31.999Z</time></trkpt><trkpt lat="44.93710643109811" lon="3.2041157580329522"><ele>942.1666666666666</ele><time>2026-04-05T11:10:33.999Z</time></trkpt><trkpt lat="44.937201966535454" lon="3.2040849419317126"><ele>942.0</ele><time>2026-04-05T11:10:35.999Z</time></trkpt><trkpt lat="44.93722331060741" lon="3.2038814725800053"><ele>942.0</ele><time>2026-04-05T11:10:38.999Z</time></trkpt><trkpt lat="44.9370233400054" lon="3.2039498664443102"><ele>942.0</ele><time>2026-04-05T11:10:44.998Z</time></trkpt><trkpt lat="44.93694375759964" lon="3.2039920597768257"><ele>942.0</ele><time>2026-04-05T11:10:48Z</time></trkpt><trkpt lat="44.936877277411426" lon="3.204043858524112"><ele>942.0</ele><time>2026-04-05T11:11:51.999Z</time></trkpt><trkpt lat="44.93685792322209" lon="3.203948673494441"><ele>942.0</ele><time>2026-04-05T11:13:55.999Z</time></trkpt><trkpt lat="44.936834848102805" lon="3.2038601588299724"><ele>942.0</ele><time>2026-04-05T11:14:02.999Z</time></trkpt><trkpt lat="44.93690196532577" lon="3.2038330301674"><ele>942.0</ele><time>2026-04-05T11:51:36.999Z</time></trkpt></trkseg><trkseg><trkpt lat="44.92124278071965" lon="3.17831978441906"><ele>879.0</ele><time>2026-04-05T14:27:09Z</time></trkpt><trkpt lat="44.921298625893186" lon="3.1783881492636668"><ele>879.0</ele><time>2026-04-05T14:27:16Z</time></trkpt><trkpt lat="44.921352856350104" lon="3.178460880136358"><ele>879.0</ele><time>2026-04-05T14:27:22Z</time></trkpt><trkpt lat="44.92139235141555" lon="3.1783493394514943"><ele>879.0</ele><time>2026-04-05T14:27:25Z</time></trkpt><trkpt lat="44.92136135833541" lon="3.178455762734329"><ele>879.0</ele><time>2026-04-05T14:27:35Z</time></trkpt><trkpt lat="44.921346859281925" lon="3.178568534044759"><ele>879.0</ele><time>2026-04-05T14:27:40Z</time></trkpt><trkpt lat="44.92132794813182" lon="3.1786817343101967"><ele>879.0</ele><time>2026-04-05T14:28:16.999Z</time></trkpt><trkpt lat="44.92138455087277" lon="3.178760116037725"><ele>879.0</ele><time>2026-04-05T14:28:19.999Z</time></trkpt><trkpt lat="44.92145975808257" lon="3.1788310971490907"><ele>879.0</ele><time>2026-04-05T14:28:23.999Z</time></trkpt><trkpt lat="44.921515472356745" lon="3.1789137803876244"><ele>879.0</ele><time>2026-04-05T14:28:26.999Z</time></trkpt><trkpt lat="44.92154932064318" lon="3.1789919669500137"><ele>879.0</ele><time>2026-04-05T14:28:29.999Z</time></trkpt><trkpt lat="44.92161907781642" lon="3.1790306865968057"><ele>879.0</ele><time>2026-04-05T14:28:33.999Z</time></trkpt><trkpt lat="44.921699817618084" lon="3.1790321089304023"><ele>882.0</ele><time>2026-04-05T14:29:52.999Z</time></trkpt><trkpt lat="44.92175761810368" lon="3.179086627277304"><ele>885.0000000000001</ele><time>2026-04-05T14:29:55.999Z</time></trkpt><trkpt lat="44.92180234473824" lon="3.179166567654676"><ele>888.0000000000001</ele><time>2026-04-05T14:29:57.999Z</time></trkpt><trkpt lat="44.921892883546626" lon="3.1792517088270627"><ele>891.0</ele><time>2026-04-05T14:30:52.999Z</time></trkpt><trkpt lat="44.92196492885763" lon="3.1793362333861213"><ele>894.0</ele><time>2026-04-05T14:30:54.998Z</time></trkpt><trkpt lat="44.922066158591534" lon="3.1794104126966882"><ele>894.0</ele><time>2026-04-05T14:30:56.998Z</time></trkpt><trkpt lat="44.92216556031451" lon="3.179462937341451"><ele>894.0</ele><time>2026-04-05T14:30:58.998Z</time></trkpt><trkpt lat="44.92227678343272" lon="3.1795344917582775"><ele>894.0</ele><time>2026-04-05T14:31:01Z</time></trkpt><trkpt lat="44.92237995684327" lon="3.179604893399094"><ele>894.0</ele><time>2026-04-05T14:31:03Z</time></trkpt><trkpt lat="44.92248295735456" lon="3.17965712072426"><ele>895.2</ele><time>2026-04-05T14:31:05Z</time></trkpt><trkpt lat="44.922565643852444" lon="3.1797546011877875"><ele>896.4000000000001</ele><time>2026-04-05T14:31:07Z</time></trkpt><trkpt lat="44.922649228598935" lon="3.179866145379554"><ele>897.6</ele><time>2026-04-05T14:31:09Z</time></trkpt><trkpt lat="44.922705266414496" lon="3.1799141080728415"><ele>898.8</ele><time>2026-04-05T14:31:10Z</time></trkpt><trkpt lat="44.92276032916132" lon="3.179962689734106"><ele>900.0</ele><time>2026-04-05T14:31:11Z</time></trkpt><trkpt lat="44.92286769747995" lon="3.1800771946369144"><ele>900.0</ele><time>2026-04-05T14:31:13Z</time></trkpt><trkpt lat="44.92296385298134" lon="3.1801558411681734"><ele>900.0</ele><time>2026-04-05T14:31:15Z</time></trkpt><trkpt lat="44.92302759441971" lon="3.180154384657673"><ele>900.0</ele><time>2026-04-05T14:31:16Z</time></trkpt><trkpt lat="44.92309664133211" lon="3.180127171407348"><ele>900.0</ele><time>2026-04-05T14:31:17Z</time></trkpt><trkpt lat="44.92317172960468" lon="3.1801426303198053"><ele>900.0</ele><time>2026-04-05T14:31:18Z</time></trkpt><trkpt lat="44.92323663903226" lon="3.180204193508296"><ele>900.0</ele><time>2026-04-05T14:31:19Z</time></trkpt><trkpt lat="44.92328912225422" lon="3.180287896817518"><ele>900.0</ele><time>2026-04-05T14:31:20Z</time></trkpt><trkpt lat="44.92335093729906" lon="3.1803912583662837"><ele>900.0</ele><time>2026-04-05T14:31:21Z</time></trkpt><trkpt lat="44.92339605933369" lon="3.1804687242188807"><ele>900.0</ele><time>2026-04-05T14:31:22Z</time></trkpt><trkpt lat="44.92347684235727" lon="3.180542477892378"><ele>900.0</ele><time>2026-04-05T14:31:24Z</time></trkpt><trkpt lat="44.92354127527621" lon="3.1805827793938284"><ele>900.0</ele><time>2026-04-05T14:31:25Z</time></trkpt><trkpt lat="44.923625942462536" lon="3.180610682041318"><ele>900.0</ele><time>2026-04-05T14:31:26Z</time></trkpt><trkpt lat="44.92372824236522" lon="3.180640392201785"><ele>903.6</ele><time>2026-04-05T14:31:27Z</time></trkpt><trkpt lat="44.923803593640834" lon="3.1806400737338327"><ele>907.2</ele><time>2026-04-05T14:31:28Z</time></trkpt><trkpt lat="44.9239145836656" lon="3.1806010725674865"><ele>910.8</ele><time>2026-04-05T14:31:30Z</time></trkpt><trkpt lat="44.92398274822543" lon="3.1805433883020644"><ele>914.4</ele><time>2026-04-05T14:31:31Z</time></trkpt><trkpt lat="44.924092655183905" lon="3.180448283112266"><ele>918.0</ele><time>2026-04-05T14:31:33Z</time></trkpt><trkpt lat="44.92416165417847" lon="3.1804061551268914"><ele>919.0</ele><time>2026-04-05T14:31:34Z</time></trkpt><trkpt lat="44.924267689120306" lon="3.1804016338993066"><ele>920.0</ele><time>2026-04-05T14:31:35.999Z</time></trkpt><trkpt lat="44.9243576563301" lon="3.1804249445658885"><ele>921.0</ele><time>2026-04-05T14:31:39.999Z</time></trkpt><trkpt lat="44.92444172720291" lon="3.180413115278332"><ele>922.0</ele><time>2026-04-05T14:31:41.999Z</time></trkpt><trkpt lat="44.92451484302208" lon="3.180415451240589"><ele>923.0</ele><time>2026-04-05T14:31:42.999Z</time></trkpt><trkpt lat="44.9245957052984" lon="3.180430626044424"><ele>924.0</ele><time>2026-04-05T14:31:43.999Z</time></trkpt><trkpt lat="44.9247085913303" lon="3.180479769155865"><ele>924.0</ele><time>2026-04-05T14:31:45.999Z</time></trkpt><trkpt lat="44.924805300820104" lon="3.1805110538482904"><ele>924.0</ele><time>2026-04-05T14:31:47.999Z</time></trkpt><trkpt lat="44.92490871532137" lon="3.1805053173538473"><ele>924.0</ele><time>2026-04-05T14:31:49.999Z</time></trkpt><trkpt lat="44.924976939034245" lon="3.1804573479108083"><ele>924.0</ele><time>2026-04-05T14:31:50.999Z</time></trkpt><trkpt lat="44.92504925400391" lon="3.180397630861369"><ele>924.0</ele><time>2026-04-05T14:31:51.999Z</time></trkpt><trkpt lat="44.9251210908357" lon="3.180346785318476"><ele>924.0</ele><time>2026-04-05T14:31:52.999Z</time></trkpt><trkpt lat="44.92520024964967" lon="3.1803011065998064"><ele>924.8333333333334</ele><time>2026-04-05T14:31:53.999Z</time></trkpt><trkpt lat="44.92527718367797" lon="3.1802515653247205"><ele>925.6666666666667</ele><time>2026-04-05T14:31:54.999Z</time></trkpt><trkpt lat="44.92535349171695" lon="3.180207259405016"><ele>926.5</ele><time>2026-04-05T14:31:55.999Z</time></trkpt><trkpt lat="44.92541982582452" lon="3.1801771708512874"><ele>927.3333333333334</ele><time>2026-04-05T14:31:56.999Z</time></trkpt><trkpt lat="44.925486529279695" lon="3.180169006612799"><ele>928.1666666666667</ele><time>2026-04-05T14:31:57.999Z</time></trkpt><trkpt lat="44.92560069548597" lon="3.180233375552496"><ele>929.0</ele><time>2026-04-05T14:31:59.999Z</time></trkpt><trkpt lat="44.92565329866263" lon="3.1802881143175603"><ele>929.0</ele><time>2026-04-05T14:32:00.999Z</time></trkpt><trkpt lat="44.92570706765019" lon="3.1803382590017844"><ele>929.0000000000001</ele><time>2026-04-05T14:32:01.999Z</time></trkpt><trkpt lat="44.9258067810318" lon="3.180442078642398"><ele>929.0000000000001</ele><time>2026-04-05T14:32:03.999Z</time></trkpt><trkpt lat="44.92589050596496" lon="3.1804972510817757"><ele>929.0</ele><time>2026-04-05T14:32:06.999Z</time></trkpt><trkpt lat="44.925972976310945" lon="3.180487974713163"><ele>929.0</ele><time>2026-04-05T14:32:09.999Z</time></trkpt><trkpt lat="44.92607255367002" lon="3.1804500727971687"><ele>929.0000000000001</ele><time>2026-04-05T14:33:52.999Z</time></trkpt><trkpt lat="44.92613520546958" lon="3.18041203069205"><ele>929.0</ele><time>2026-04-05T14:33:53.999Z</time></trkpt><trkpt lat="44.9261802141426" lon="3.180338653599094"><ele>929.0</ele><time>2026-04-05T14:33:55.999Z</time></trkpt><trkpt lat="44.9261412891751" lon="3.180192846789067"><ele>929.0</ele><time>2026-04-05T14:33:57.999Z</time></trkpt><trkpt lat="44.926151649194054" lon="3.1800993557827058"><ele>929.0000000000001</ele><time>2026-04-05T14:33:58.999Z</time></trkpt><trkpt lat="44.926179533070076" lon="3.1799897118227225"><ele>929.0</ele><time>2026-04-05T14:33:59.999Z</time></trkpt><trkpt lat="44.92621854755354" lon="3.1798803704440095"><ele>929.75</ele><time>2026-04-05T14:34:00.999Z</time></trkpt><trkpt lat="44.92626894978875" lon="3.179750958042357"><ele>930.5</ele><time>2026-04-05T14:34:01.999Z</time></trkpt><trkpt lat="44.92634148470879" lon="3.1796013868083848"><ele>931.25</ele><time>2026-04-05T14:34:02.999Z</time></trkpt><trkpt lat="44.92642857370726" lon="3.179464981630351"><ele>932.0</ele><time>2026-04-05T14:34:03.999Z</time></trkpt><trkpt lat="44.92653367278057" lon="3.179322715191808"><ele>932.0</ele><time>2026-04-05T14:34:04.999Z</time></trkpt><trkpt lat="44.926635875949785" lon="3.1791563293080305"><ele>932.0</ele><time>2026-04-05T14:34:05.999Z</time></trkpt><trkpt lat="44.92675595503085" lon="3.17900077151777"><ele>932.0</ele><time>2026-04-05T14:34:06.999Z</time></trkpt><trkpt lat="44.92685981291899" lon="3.1788386026314073"><ele>931.0</ele><time>2026-04-05T14:34:07.999Z</time></trkpt><trkpt lat="44.92695359306209" lon="3.178663881128065"><ele>930.0</ele><time>2026-04-05T14:34:08.999Z</time></trkpt><trkpt lat="44.92703024187681" lon="3.1784614568225202"><ele>929.0</ele><time>2026-04-05T14:34:09.999Z</time></trkpt><trkpt lat="44.92710973133482" lon="3.178215427102604"><ele>929.3333333333334</ele><time>2026-04-05T14:34:10.999Z</time></trkpt><trkpt lat="44.92718278332362" lon="3.1779560546074492"><ele>929.6666666666667</ele><time>2026-04-05T14:34:11.999Z</time></trkpt><trkpt lat="44.927271261157664" lon="3.1776683394105816"><ele>930.0</ele><time>2026-04-05T14:34:12.999Z</time></trkpt><trkpt lat="44.92733706783146" lon="3.17743254966551"><ele>929.75</ele><time>2026-04-05T14:34:13.999Z</time></trkpt><trkpt lat="44.927385705584214" lon="3.177231679735314"><ele>929.5</ele><time>2026-04-05T14:34:14.999Z</time></trkpt><trkpt lat="44.92741700306395" lon="3.1770413632431214"><ele>929.25</ele><time>2026-04-05T14:34:15.999Z</time></trkpt><trkpt lat="44.92742502331027" lon="3.1768432926001027"><ele>929.0</ele><time>2026-04-05T14:34:16.999Z</time></trkpt><trkpt lat="44.927423422752035" lon="3.1766186820452598"><ele>928.0</ele><time>2026-04-05T14:34:17.999Z</time></trkpt><trkpt lat="44.92741954626619" lon="3.1763700558493806"><ele>927.0</ele><time>2026-04-05T14:34:18.999Z</time></trkpt><trkpt lat="44.92743026932124" lon="3.1761070195348444"><ele>926.0</ele><time>2026-04-05T14:34:19.999Z</time></trkpt><trkpt lat="44.92740990967585" lon="3.1758670848278965"><ele>925.6666666666667</ele><time>2026-04-05T14:34:20.999Z</time></trkpt><trkpt lat="44.927349147443415" lon="3.1756596757659223"><ele>925.3333333333333</ele><time>2026-04-05T14:34:21.999Z</time></trkpt><trkpt lat="44.92728268981122" lon="3.17543365496789"><ele>925.0</ele><time>2026-04-05T14:34:22.999Z</time></trkpt><trkpt lat="44.927237361394106" lon="3.175225076634353"><ele>925.0</ele><time>2026-04-05T14:34:23.999Z</time></trkpt><trkpt lat="44.92721422976396" lon="3.1750546276489118"><ele>925.0</ele><time>2026-04-05T14:34:24.999Z</time></trkpt><trkpt lat="44.92723487949909" lon="3.1749035854175687"><ele>925.0</ele><time>2026-04-05T14:34:25.999Z</time></trkpt><trkpt lat="44.92726938073088" lon="3.1747091379980357"><ele>925.0</ele><time>2026-04-05T14:34:26.999Z</time></trkpt><trkpt lat="44.92730657411958" lon="3.17447950724814"><ele>926.0</ele><time>2026-04-05T14:34:27.999Z</time></trkpt><trkpt lat="44.92735277460024" lon="3.174235909092748"><ele>927.0</ele><time>2026-04-05T14:34:28.999Z</time></trkpt><trkpt lat="44.92739465045235" lon="3.17399217927494"><ele>928.0</ele><time>2026-04-05T14:34:29.999Z</time></trkpt><trkpt lat="44.92739752369836" lon="3.173776990784652"><ele>928.0</ele><time>2026-04-05T14:34:30.999Z</time></trkpt><trkpt lat="44.927406987386725" lon="3.173582165605052"><ele>928.0</ele><time>2026-04-05T14:34:31.999Z</time></trkpt><trkpt lat="44.9274254227306" lon="3.1734010339000323"><ele>928.0</ele><time>2026-04-05T14:34:32.999Z</time></trkpt><trkpt lat="44.92744368576271" lon="3.173250826026339"><ele>928.0</ele><time>2026-04-05T14:34:33.999Z</time></trkpt><trkpt lat="44.927472478730195" lon="3.1730967969983706"><ele>928.4</ele><time>2026-04-05T14:34:34.999Z</time></trkpt><trkpt lat="44.927515302480636" lon="3.1729395533068128"><ele>928.8</ele><time>2026-04-05T14:34:35.999Z</time></trkpt><trkpt lat="44.92755907162722" lon="3.1727855732904966"><ele>929.2</ele><time>2026-04-05T14:34:36.999Z</time></trkpt><trkpt lat="44.927593648072836" lon="3.172653035986094"><ele>929.6</ele><time>2026-04-05T14:34:37.999Z</time></trkpt><trkpt lat="44.92763042221757" lon="3.1725358664743215"><ele>930.0</ele><time>2026-04-05T14:34:38.999Z</time></trkpt><trkpt lat="44.92764775427876" lon="3.1724502052754286"><ele>929.3333333333333</ele><time>2026-04-05T14:34:39.999Z</time></trkpt><trkpt lat="44.92744737542292" lon="3.1723316401135264"><ele>928.6666666666666</ele><time>2026-04-05T14:34:42.999Z</time></trkpt><trkpt lat="44.92732690250983" lon="3.1723070107071365"><ele>928.0</ele><time>2026-04-05T14:34:43.999Z</time></trkpt><trkpt lat="44.92719398629696" lon="3.17226393926117"><ele>928.0</ele><time>2026-04-05T14:34:44.999Z</time></trkpt><trkpt lat="44.927055547184516" lon="3.1722347507093636"><ele>928.0</ele><time>2026-04-05T14:34:45.999Z</time></trkpt><trkpt lat="44.92692994278587" lon="3.172208414391396"><ele>928.0</ele><time>2026-04-05T14:34:46.999Z</time></trkpt><trkpt lat="44.92680372958656" lon="3.172169931738579"><ele>928.0</ele><time>2026-04-05T14:34:47.999Z</time></trkpt><trkpt lat="44.926680325304915" lon="3.1721329027406835"><ele>929.75</ele><time>2026-04-05T14:34:48.999Z</time></trkpt><trkpt lat="44.92655515007931" lon="3.172084166753123"><ele>931.5</ele><time>2026-04-05T14:34:49.999Z</time></trkpt><trkpt lat="44.926416972167004" lon="3.1720367607306996"><ele>933.25</ele><time>2026-04-05T14:34:50.999Z</time></trkpt><trkpt lat="44.92628411105512" lon="3.1719940714474806"><ele>935.0</ele><time>2026-04-05T14:34:51.999Z</time></trkpt><trkpt lat="44.926147919949315" lon="3.1719466800690603"><ele>935.0</ele><time>2026-04-05T14:34:52.999Z</time></trkpt><trkpt lat="44.9260041285183" lon="3.1718965490772986"><ele>935.0</ele><time>2026-04-05T14:34:53.999Z</time></trkpt><trkpt lat="44.92585544790707" lon="3.1718474360640765"><ele>935.0</ele><time>2026-04-05T14:34:54.999Z</time></trkpt><trkpt lat="44.92569738588982" lon="3.171792594169964"><ele>935.6666666666667</ele><time>2026-04-05T14:34:55.998Z</time></trkpt><trkpt lat="44.925540609577695" lon="3.1717382239016767"><ele>936.3333333333333</ele><time>2026-04-05T14:34:56.998Z</time></trkpt><trkpt lat="44.92539292934253" lon="3.1716349889013014"><ele>937.0</ele><time>2026-04-05T14:34:57.998Z</time></trkpt><trkpt lat="44.92523668443543" lon="3.1715625382031547"><ele>936.6666666666666</ele><time>2026-04-05T14:34:58.998Z</time></trkpt><trkpt lat="44.92507524271319" lon="3.171511322134759"><ele>936.3333333333333</ele><time>2026-04-05T14:34:59.998Z</time></trkpt><trkpt lat="44.92491683264693" lon="3.1714523067596097"><ele>936.0</ele><time>2026-04-05T14:35:00.998Z</time></trkpt><trkpt lat="44.92475049152576" lon="3.171397759054485"><ele>937.0</ele><time>2026-04-05T14:35:01.998Z</time></trkpt><trkpt lat="44.924598138398345" lon="3.1713519086101836"><ele>938.0</ele><time>2026-04-05T14:35:02.998Z</time></trkpt><trkpt lat="44.92442377752044" lon="3.171285268723926"><ele>939.0</ele><time>2026-04-05T14:35:03.998Z</time></trkpt><trkpt lat="44.924264223010304" lon="3.171230885583869"><ele>938.3333333333333</ele><time>2026-04-05T14:35:04.998Z</time></trkpt><trkpt lat="44.924112569269084" lon="3.1711710384437133"><ele>937.6666666666666</ele><time>2026-04-05T14:35:05.998Z</time></trkpt><trkpt lat="44.92396098715619" lon="3.171107733638438"><ele>937.0</ele><time>2026-04-05T14:35:06.998Z</time></trkpt><trkpt lat="44.92380633793433" lon="3.171046719886308"><ele>937.0</ele><time>2026-04-05T14:35:07.998Z</time></trkpt><trkpt lat="44.92365460083889" lon="3.1709909542090577"><ele>937.0</ele><time>2026-04-05T14:35:08.998Z</time></trkpt><trkpt lat="44.9234995474996" lon="3.170924006243692"><ele>937.0</ele><time>2026-04-05T14:35:09.998Z</time></trkpt><trkpt lat="44.92335949112298" lon="3.170839637047352"><ele>938.0</ele><time>2026-04-05T14:35:10.999Z</time></trkpt><trkpt lat="44.9232398892202" lon="3.170765805460176"><ele>939.0</ele><time>2026-04-05T14:35:11.999Z</time></trkpt><trkpt lat="44.92311362145976" lon="3.17070881375081"><ele>940.0</ele><time>2026-04-05T14:35:12.999Z</time></trkpt><trkpt lat="44.92300857516396" lon="3.1706679626044787"><ele>941.0</ele><time>2026-04-05T14:35:13.999Z</time></trkpt><trkpt lat="44.92290800367497" lon="3.170657874480973"><ele>939.4</ele><time>2026-04-05T14:35:14.999Z</time></trkpt><trkpt lat="44.922810039048784" lon="3.170678898752594"><ele>937.8</ele><time>2026-04-05T14:35:15.999Z</time></trkpt><trkpt lat="44.92268192576089" lon="3.170686866574153"><ele>936.1999999999999</ele><time>2026-04-05T14:35:16.999Z</time></trkpt><trkpt lat="44.92257980828663" lon="3.170682607131956"><ele>934.5999999999999</ele><time>2026-04-05T14:35:17.999Z</time></trkpt><trkpt lat="44.922492449926494" lon="3.1706341609984636"><ele>933.0</ele><time>2026-04-05T14:35:18.999Z</time></trkpt><trkpt lat="44.92241725798765" lon="3.1705248280844627"><ele>933.0</ele><time>2026-04-05T14:35:19.999Z</time></trkpt><trkpt lat="44.922311517630014" lon="3.1704403942522217"><ele>933.0</ele><time>2026-04-05T14:35:20.999Z</time></trkpt><trkpt lat="44.92223450352324" lon="3.1703701053366915"><ele>933.0</ele><time>2026-04-05T14:35:21.999Z</time></trkpt><trkpt lat="44.92214777439261" lon="3.170370899341617"><ele>933.0</ele><time>2026-04-05T14:35:22.999Z</time></trkpt><trkpt lat="44.922035321341234" lon="3.170403749499767"><ele>933.0</ele><time>2026-04-05T14:35:23.999Z</time></trkpt><trkpt lat="44.92191912140152" lon="3.1704699038414423"><ele>933.0</ele><time>2026-04-05T14:35:24.999Z</time></trkpt><trkpt lat="44.9217941197103" lon="3.1705278617628454"><ele>933.0</ele><time>2026-04-05T14:35:25.999Z</time></trkpt><trkpt lat="44.921673517440496" lon="3.170618178697221"><ele>933.0</ele><time>2026-04-05T14:35:26.999Z</time></trkpt><trkpt lat="44.92153383795188" lon="3.170670860947054"><ele>933.0</ele><time>2026-04-05T14:35:27.999Z</time></trkpt><trkpt lat="44.921395076563094" lon="3.1707475855272875"><ele>933.8</ele><time>2026-04-05T14:35:28.999Z</time></trkpt><trkpt lat="44.92128134451701" lon="3.170832866342224"><ele>934.5999999999999</ele><time>2026-04-05T14:35:29.999Z</time></trkpt><trkpt lat="44.92117770090136" lon="3.170883632546612"><ele>935.4000000000001</ele><time>2026-04-05T14:35:30.999Z</time></trkpt><trkpt lat="44.9211065792216" lon="3.170954246442935"><ele>936.2</ele><time>2026-04-05T14:35:31.999Z</time></trkpt><trkpt lat="44.92101822439804" lon="3.170997860886863"><ele>937.0</ele><time>2026-04-05T14:35:33.999Z</time></trkpt><trkpt lat="44.920987095578205" lon="3.1708763949733347"><ele>937.0</ele><time>2026-04-05T14:35:35.999Z</time></trkpt><trkpt lat="44.920952708989475" lon="3.170759196252277"><ele>937.0</ele><time>2026-04-05T14:35:36.999Z</time></trkpt><trkpt lat="44.92088795013339" lon="3.170602338395587"><ele>937.0</ele><time>2026-04-05T14:35:37.999Z</time></trkpt><trkpt lat="44.92082812201307" lon="3.1704213161209753"><ele>937.0</ele><time>2026-04-05T14:35:38.999Z</time></trkpt><trkpt lat="44.9207608400389" lon="3.1702167643786936"><ele>937.3333333333333</ele><time>2026-04-05T14:35:39.999Z</time></trkpt><trkpt lat="44.92068704284615" lon="3.1700055523439095"><ele>937.6666666666667</ele><time>2026-04-05T14:35:40.999Z</time></trkpt><trkpt lat="44.92060821675029" lon="3.1698090433094337"><ele>938.0</ele><time>2026-04-05T14:35:41.999Z</time></trkpt><trkpt lat="44.92052156209928" lon="3.169629333353906"><ele>938.0</ele><time>2026-04-05T14:35:42.999Z</time></trkpt><trkpt lat="44.92041639666324" lon="3.1694728206025577"><ele>938.0</ele><time>2026-04-05T14:35:43.999Z</time></trkpt><trkpt lat="44.92030016330417" lon="3.1693452143587164"><ele>938.0</ele><time>2026-04-05T14:35:44.999Z</time></trkpt><trkpt lat="44.92017649777183" lon="3.1692124130828594"><ele>938.0</ele><time>2026-04-05T14:35:45.999Z</time></trkpt><trkpt lat="44.920091129275335" lon="3.169046357327251"><ele>938.0</ele><time>2026-04-05T14:35:46.999Z</time></trkpt><trkpt lat="44.91999679895891" lon="3.1688716168618423"><ele>938.0</ele><time>2026-04-05T14:35:47.999Z</time></trkpt><trkpt lat="44.91990910413018" lon="3.168728747050382"><ele>938.0</ele><time>2026-04-05T14:35:48.999Z</time></trkpt><trkpt lat="44.91985150098042" lon="3.1686023377650017"><ele>939.6666666666667</ele><time>2026-04-05T14:35:49.999Z</time></trkpt><trkpt lat="44.91982649091935" lon="3.168504053251986"><ele>941.3333333333334</ele><time>2026-04-05T14:35:50.999Z</time></trkpt><trkpt lat="44.91976481852661" lon="3.168358969039592"><ele>943.0</ele><time>2026-04-05T14:35:52.999Z</time></trkpt><trkpt lat="44.919720033088595" lon="3.168273972301677"><ele>944.6666666666667</ele><time>2026-04-05T14:35:53.999Z</time></trkpt><trkpt lat="44.91968587696525" lon="3.1681805001219536"><ele>946.3333333333334</ele><time>2026-04-05T14:35:54.999Z</time></trkpt><trkpt lat="44.91963496824887" lon="3.1680646417916627"><ele>948.0</ele><time>2026-04-05T14:35:55.999Z</time></trkpt><trkpt lat="44.91957017653785" lon="3.1679348200358355"><ele>949.25</ele><time>2026-04-05T14:35:56.999Z</time></trkpt><trkpt lat="44.91949013008981" lon="3.1677844698587814"><ele>950.5</ele><time>2026-04-05T14:35:57.999Z</time></trkpt><trkpt lat="44.91940600143841" lon="3.1676409000368912"><ele>951.75</ele><time>2026-04-05T14:35:58.999Z</time></trkpt><trkpt lat="44.91931715699801" lon="3.167501887080364"><ele>953.0</ele><time>2026-04-05T14:35:59.999Z</time></trkpt><trkpt lat="44.91923566834725" lon="3.1673762324672627"><ele>952.6666666666667</ele><time>2026-04-05T14:36:00.999Z</time></trkpt><trkpt lat="44.919174860736355" lon="3.167286431802166"><ele>952.3333333333333</ele><time>2026-04-05T14:36:01.999Z</time></trkpt><trkpt lat="44.91912911057155" lon="3.1672189469168424"><ele>952.0</ele><time>2026-04-05T14:36:02.999Z</time></trkpt><trkpt lat="44.91876212622294" lon="3.167708301484887"><ele>951.75</ele><time>2026-04-05T14:36:04.999Z</time></trkpt><trkpt lat="44.91867025497325" lon="3.1678959562868796"><ele>951.5</ele><time>2026-04-05T14:36:05.999Z</time></trkpt><trkpt lat="44.9185854619847" lon="3.168077510621806"><ele>951.25</ele><time>2026-04-05T14:36:06.999Z</time></trkpt><trkpt lat="44.91853115850619" lon="3.168230813862469"><ele>951.0</ele><time>2026-04-05T14:36:07.999Z</time></trkpt><trkpt lat="44.918542684644606" lon="3.1683677837057336"><ele>950.1999999999999</ele><time>2026-04-05T14:36:08.999Z</time></trkpt><trkpt lat="44.918548741432836" lon="3.168544910720671"><ele>949.3999999999999</ele><time>2026-04-05T14:36:09.999Z</time></trkpt><trkpt lat="44.91853954100078" lon="3.168705802721098"><ele>948.6</ele><time>2026-04-05T14:36:10.999Z</time></trkpt><trkpt lat="44.91847203968425" lon="3.168824833158476"><ele>947.8</ele><time>2026-04-05T14:36:11.999Z</time></trkpt><trkpt lat="44.91841044504105" lon="3.1688977053223906"><ele>947.0</ele><time>2026-04-05T14:36:12.999Z</time></trkpt><trkpt lat="44.918336588873956" lon="3.1689210709330533"><ele>947.0</ele><time>2026-04-05T14:36:13.999Z</time></trkpt><trkpt lat="44.91824251376838" lon="3.1688876209947465"><ele>947.0</ele><time>2026-04-05T14:36:14.999Z</time></trkpt><trkpt lat="44.91813643827235" lon="3.168812176570051"><ele>947.0</ele><time>2026-04-05T14:36:15.999Z</time></trkpt><trkpt lat="44.91802192986008" lon="3.168715141567635"><ele>947.0</ele><time>2026-04-05T14:36:16.999Z</time></trkpt><trkpt lat="44.917928384075374" lon="3.1686614093908565"><ele>947.0000000000001</ele><time>2026-04-05T14:36:17.999Z</time></trkpt><trkpt lat="44.91785513951701" lon="3.1686502272933037"><ele>947.0</ele><time>2026-04-05T14:36:18.999Z</time></trkpt><trkpt lat="44.91776851991049" lon="3.1686296672456673"><ele>947.0</ele><time>2026-04-05T14:36:19.999Z</time></trkpt><trkpt lat="44.91766363525538" lon="3.168626504531699"><ele>947.0</ele><time>2026-04-05T14:36:20.999Z</time></trkpt><trkpt lat="44.91758357138479" lon="3.168654455822504"><ele>947.0000000000001</ele><time>2026-04-05T14:36:21.999Z</time></trkpt><trkpt lat="44.91748729931" lon="3.168686221258126"><ele>947.0</ele><time>2026-04-05T14:36:22.999Z</time></trkpt><trkpt lat="44.91736362248025" lon="3.1687045466953387"><ele>948.8</ele><time>2026-04-05T14:36:23.999Z</time></trkpt><trkpt lat="44.91725909545041" lon="3.1687070238044734"><ele>950.6</ele><time>2026-04-05T14:36:24.999Z</time></trkpt><trkpt lat="44.917164553359264" lon="3.1687236959705087"><ele>952.3999999999999</ele><time>2026-04-05T14:36:25.999Z</time></trkpt><trkpt lat="44.91708555800678" lon="3.1687312410834343"><ele>954.1999999999999</ele><time>2026-04-05T14:36:26.999Z</time></trkpt><trkpt lat="44.917011517825394" lon="3.168730345013664"><ele>956.0</ele><time>2026-04-05T14:36:27.999Z</time></trkpt><trkpt lat="44.91690801739003" lon="3.1686447135082974"><ele>956.0</ele><time>2026-04-05T14:36:29.999Z</time></trkpt><trkpt lat="44.91684250113102" lon="3.1685763426368636"><ele>955.9999999999999</ele><time>2026-04-05T14:36:30.999Z</time></trkpt><trkpt lat="44.916776801158036" lon="3.1685133418604283"><ele>955.9999999999999</ele><time>2026-04-05T14:36:31.999Z</time></trkpt><trkpt lat="44.91669642321353" lon="3.1684899613950837"><ele>956.0</ele><time>2026-04-05T14:36:32.999Z</time></trkpt><trkpt lat="44.91659955472938" lon="3.1684666560252075"><ele>956.0</ele><time>2026-04-05T14:36:33.999Z</time></trkpt><trkpt lat="44.916490337905124" lon="3.168410161210668"><ele>956.1666666666667</ele><time>2026-04-05T14:36:35.999Z</time></trkpt><trkpt lat="44.916422579609936" lon="3.1683868161259676"><ele>956.3333333333334</ele><time>2026-04-05T14:36:36.999Z</time></trkpt><trkpt lat="44.916352204670886" lon="3.1683726732205755"><ele>956.5</ele><time>2026-04-05T14:36:37.999Z</time></trkpt><trkpt lat="44.91622757863945" lon="3.1683494169348423"><ele>956.6666666666667</ele><time>2026-04-05T14:36:39.999Z</time></trkpt><trkpt lat="44.91614753803848" lon="3.168336493876136"><ele>956.8333333333334</ele><time>2026-04-05T14:36:40.999Z</time></trkpt><trkpt lat="44.91607471663085" lon="3.168307610992793"><ele>957.0</ele><time>2026-04-05T14:36:41.999Z</time></trkpt><trkpt lat="44.91600402089562" lon="3.1682925207986194"><ele>957.0</ele><time>2026-04-05T14:36:42.999Z</time></trkpt><trkpt lat="44.915922343072175" lon="3.168264076779821"><ele>957.0</ele><time>2026-04-05T14:36:43.999Z</time></trkpt><trkpt lat="44.915843141220925" lon="3.1682443303918917"><ele>957.0</ele><time>2026-04-05T14:36:44.999Z</time></trkpt><trkpt lat="44.915769871845114" lon="3.1682074076680937"><ele>957.0</ele><time>2026-04-05T14:36:45.999Z</time></trkpt><trkpt lat="44.91570409622737" lon="3.1681646582756455"><ele>957.0</ele><time>2026-04-05T14:36:46.999Z</time></trkpt><trkpt lat="44.91564423661092" lon="3.168107919256671"><ele>957.0</ele><time>2026-04-05T14:36:47.999Z</time></trkpt><trkpt lat="44.91557127087279" lon="3.1680741460982347"><ele>958.6</ele><time>2026-04-05T14:36:48.999Z</time></trkpt><trkpt lat="44.915481574072444" lon="3.1680506458007747"><ele>960.2</ele><time>2026-04-05T14:36:49.999Z</time></trkpt><trkpt lat="44.91539822653389" lon="3.1680259523597525"><ele>961.8</ele><time>2026-04-05T14:36:50.999Z</time></trkpt><trkpt lat="44.91529929847751" lon="3.1680159451667462"><ele>963.4</ele><time>2026-04-05T14:36:51.999Z</time></trkpt><trkpt lat="44.91519176208024" lon="3.168007621754591"><ele>965.0</ele><time>2026-04-05T14:36:52.999Z</time></trkpt><trkpt lat="44.91510779190068" lon="3.1679741280071796"><ele>966.0000000000001</ele><time>2026-04-05T14:36:53.999Z</time></trkpt><trkpt lat="44.91504775172913" lon="3.1679158350851835"><ele>967.0</ele><time>2026-04-05T14:36:54.999Z</time></trkpt><trkpt lat="44.91498636618646" lon="3.1678465129785045"><ele>968.0</ele><time>2026-04-05T14:36:55.999Z</time></trkpt><trkpt lat="44.91490987249238" lon="3.167823123835767"><ele>969.0</ele><time>2026-04-05T14:36:56.999Z</time></trkpt><trkpt lat="44.914846484372575" lon="3.1678199179419733"><ele>970.0000000000001</ele><time>2026-04-05T14:36:57.999Z</time></trkpt><trkpt lat="44.91475817188706" lon="3.1678145623368454"><ele>971.0</ele><time>2026-04-05T14:36:58.999Z</time></trkpt><trkpt lat="44.91467309235521" lon="3.1678046262862356"><ele>971.0000000000001</ele><time>2026-04-05T14:36:59.999Z</time></trkpt><trkpt lat="44.91460422263838" lon="3.167773987485706"><ele>971.0</ele><time>2026-04-05T14:37:00.999Z</time></trkpt><trkpt lat="44.91453080328428" lon="3.1677224228575405"><ele>971.0</ele><time>2026-04-05T14:37:01.999Z</time></trkpt><trkpt lat="44.91445064111175" lon="3.1676397904431854"><ele>971.0</ele><time>2026-04-05T14:37:02.999Z</time></trkpt><trkpt lat="44.914382493470214" lon="3.1675536634271313"><ele>971.0000000000001</ele><time>2026-04-05T14:37:03.999Z</time></trkpt><trkpt lat="44.91431615801997" lon="3.1674726280038903"><ele>971.0</ele><time>2026-04-05T14:37:04.999Z</time></trkpt><trkpt lat="44.91424292271807" lon="3.1674094738911203"><ele>971.5999999999999</ele><time>2026-04-05T14:37:05.999Z</time></trkpt><trkpt lat="44.914162066239655" lon="3.1673296057792717"><ele>972.1999999999999</ele><time>2026-04-05T14:37:06.998Z</time></trkpt><trkpt lat="44.91407073455772" lon="3.167288745274823"><ele>972.8000000000001</ele><time>2026-04-05T14:37:07.998Z</time></trkpt><trkpt lat="44.91398344240133" lon="3.1672680522713783"><ele>973.4000000000001</ele><time>2026-04-05T14:37:08.998Z</time></trkpt><trkpt lat="44.913893229371155" lon="3.167269919939552"><ele>974.0</ele><time>2026-04-05T14:37:09.998Z</time></trkpt><trkpt lat="44.91380428028598" lon="3.167273257745847"><ele>974.0000000000001</ele><time>2026-04-05T14:37:10.998Z</time></trkpt><trkpt lat="44.913731975849565" lon="3.1672493401819835"><ele>974.0</ele><time>2026-04-05T14:37:11.998Z</time></trkpt><trkpt lat="44.91366512491031" lon="3.167222102558698"><ele>974.0</ele><time>2026-04-05T14:37:12.998Z</time></trkpt><trkpt lat="44.9135725193147" lon="3.167187758999978"><ele>974.0</ele><time>2026-04-05T14:37:13.998Z</time></trkpt><trkpt lat="44.913477160769155" lon="3.16714511098533"><ele>974.0000000000001</ele><time>2026-04-05T14:37:14.998Z</time></trkpt><trkpt lat="44.9134092722931" lon="3.1670937693678707"><ele>974.0</ele><time>2026-04-05T14:37:15.998Z</time></trkpt><trkpt lat="44.91334408129155" lon="3.1670642603109003"><ele>974.0</ele><time>2026-04-05T14:37:17Z</time></trkpt><trkpt lat="44.91324298015514" lon="3.1670518918884634"><ele>974.0000000000001</ele><time>2026-04-05T14:37:19Z</time></trkpt><trkpt lat="44.913092657405514" lon="3.1669897665662967"><ele>974.0000000000001</ele><time>2026-04-05T14:37:21Z</time></trkpt><trkpt lat="44.913009580843905" lon="3.1669451394267516"><ele>974.0</ele><time>2026-04-05T14:37:22Z</time></trkpt><trkpt lat="44.91293491147432" lon="3.166892473729605"><ele>974.0</ele><time>2026-04-05T14:37:23Z</time></trkpt><trkpt lat="44.91284347510606" lon="3.16683501060309"><ele>974.0</ele><time>2026-04-05T14:37:24Z</time></trkpt><trkpt lat="44.91274895565838" lon="3.166809961551427"><ele>974.0000000000001</ele><time>2026-04-05T14:37:25Z</time></trkpt><trkpt lat="44.91266914086301" lon="3.166787303342491"><ele>974.0000000000001</ele><time>2026-04-05T14:37:26Z</time></trkpt><trkpt lat="44.912551788225485" lon="3.1667355240886184"><ele>974.0</ele><time>2026-04-05T14:37:28Z</time></trkpt><trkpt lat="44.912484364215004" lon="3.166713187140915"><ele>974.0</ele><time>2026-04-05T14:37:32Z</time></trkpt><trkpt lat="44.91240776203702" lon="3.166667935314238"><ele>973.8333333333334</ele><time>2026-04-05T14:37:35Z</time></trkpt><trkpt lat="44.91235409972266" lon="3.166615938760405"><ele>973.6666666666667</ele><time>2026-04-05T14:38:14.999Z</time></trkpt><trkpt lat="44.91232756904426" lon="3.1665267801144306"><ele>973.5</ele><time>2026-04-05T14:38:17.999Z</time></trkpt><trkpt lat="44.912396200154056" lon="3.1664771793589543"><ele>973.3333333333333</ele><time>2026-04-05T14:38:19.999Z</time></trkpt><trkpt lat="44.91248263394888" lon="3.1664472677504243"><ele>973.1666666666666</ele><time>2026-04-05T14:38:22.999Z</time></trkpt><trkpt lat="44.91250901198023" lon="3.1663548658846046"><ele>973.0</ele><time>2026-04-05T14:38:24.999Z</time></trkpt><trkpt lat="44.91257558331722" lon="3.166269853957086"><ele>972.9999999999999</ele><time>2026-04-05T14:38:26.999Z</time></trkpt><trkpt lat="44.91265739016768" lon="3.166205985670126"><ele>973.0</ele><time>2026-04-05T14:38:28.999Z</time></trkpt><trkpt lat="44.91273280988132" lon="3.1661566930143845"><ele>973.0</ele><time>2026-04-05T14:38:30.999Z</time></trkpt><trkpt lat="44.912810438940724" lon="3.1661312996813575"><ele>973.0</ele><time>2026-04-05T14:38:32.999Z</time></trkpt><trkpt lat="44.91287688182868" lon="3.166086736157568"><ele>972.9999999999999</ele><time>2026-04-05T14:38:34.999Z</time></trkpt><trkpt lat="44.912951070777744" lon="3.1660590702819142"><ele>973.0</ele><time>2026-04-05T14:38:36.999Z</time></trkpt><trkpt lat="44.91302190472545" lon="3.1660310731347328"><ele>973.0</ele><time>2026-04-05T14:38:39.999Z</time></trkpt><trkpt lat="44.91305558265591" lon="3.165939122240845"><ele>973.0</ele><time>2026-04-05T14:38:49.999Z</time></trkpt><trkpt lat="44.91306086120472" lon="3.165795147301351"><ele>973.0</ele><time>2026-04-05T14:38:53.999Z</time></trkpt><trkpt lat="44.913112488742634" lon="3.1657274940980877"><ele>973.0</ele><time>2026-04-05T14:38:55.999Z</time></trkpt><trkpt lat="44.91322129081154" lon="3.1656458061998616"><ele>973.0</ele><time>2026-04-05T14:38:57.999Z</time></trkpt><trkpt lat="44.91324902867228" lon="3.1655101768839495"><ele>971.8333333333333</ele><time>2026-04-05T14:38:59.999Z</time></trkpt><trkpt lat="44.91326529623272" lon="3.165423716628542"><ele>970.6666666666666</ele><time>2026-04-05T14:39:00.999Z</time></trkpt><trkpt lat="44.91328320227991" lon="3.165337964682919"><ele>969.5</ele><time>2026-04-05T14:39:01.999Z</time></trkpt><trkpt lat="44.91332071582077" lon="3.1651897705988827"><ele>968.3333333333333</ele><time>2026-04-05T14:39:03.999Z</time></trkpt><trkpt lat="44.91335638505252" lon="3.165085479601179"><ele>967.1666666666666</ele><time>2026-04-05T14:39:05.999Z</time></trkpt><trkpt lat="44.91341242285895" lon="3.1650116037030815"><ele>966.0</ele><time>2026-04-05T14:39:08.999Z</time></trkpt><trkpt lat="44.91341697956001" lon="3.1649061138103973"><ele>965.8</ele><time>2026-04-05T14:39:14.999Z</time></trkpt><trkpt lat="44.9133037022201" lon="3.16480557493991"><ele>965.5999999999999</ele><time>2026-04-05T14:39:16.999Z</time></trkpt><trkpt lat="44.91323137395081" lon="3.16473132030668"><ele>965.4</ele><time>2026-04-05T14:39:17.999Z</time></trkpt><trkpt lat="44.913146601191215" lon="3.1646415916787918"><ele>965.2</ele><time>2026-04-05T14:39:18.999Z</time></trkpt><trkpt lat="44.91305410434762" lon="3.1645349884761753"><ele>965.0</ele><time>2026-04-05T14:39:19.999Z</time></trkpt><trkpt lat="44.91295244052689" lon="3.164405274873305"><ele>965.0</ele><time>2026-04-05T14:39:20.999Z</time></trkpt><trkpt lat="44.912845782225425" lon="3.1642621901042762"><ele>965.0</ele><time>2026-04-05T14:39:21.999Z</time></trkpt><trkpt lat="44.91275217775074" lon="3.164091284794379"><ele>965.0</ele><time>2026-04-05T14:39:23Z</time></trkpt><trkpt lat="44.91263895444166" lon="3.163958633691654"><ele>965.0</ele><time>2026-04-05T14:39:24Z</time></trkpt><trkpt lat="44.91252271072309" lon="3.1638241083866885"><ele>966.5</ele><time>2026-04-05T14:39:25Z</time></trkpt><trkpt lat="44.912410693883075" lon="3.1636944756409697"><ele>968.0</ele><time>2026-04-05T14:39:26Z</time></trkpt><trkpt lat="44.91228215129182" lon="3.163589955521677"><ele>969.5</ele><time>2026-04-05T14:39:27Z</time></trkpt><trkpt lat="44.912169861630694" lon="3.163471856468229"><ele>971.0</ele><time>2026-04-05T14:39:28Z</time></trkpt><trkpt lat="44.91207298732638" lon="3.1633283974263424"><ele>971.5</ele><time>2026-04-05T14:39:29Z</time></trkpt><trkpt lat="44.911971164427236" lon="3.1631973422001627"><ele>972.0</ele><time>2026-04-05T14:39:30Z</time></trkpt><trkpt lat="44.911858514528866" lon="3.163077219360856"><ele>972.5</ele><time>2026-04-05T14:39:31Z</time></trkpt><trkpt lat="44.911755143331995" lon="3.162944448998247"><ele>973.0</ele><time>2026-04-05T14:39:32Z</time></trkpt><trkpt lat="44.911662639399154" lon="3.1627989591310888"><ele>974.0</ele><time>2026-04-05T14:39:33Z</time></trkpt><trkpt lat="44.91154151711293" lon="3.162672111753869"><ele>975.0</ele><time>2026-04-05T14:39:34Z</time></trkpt><trkpt lat="44.91140650088369" lon="3.162565654913879"><ele>976.0</ele><time>2026-04-05T14:39:35Z</time></trkpt><trkpt lat="44.91125432396108" lon="3.1624778250611536"><ele>976.0</ele><time>2026-04-05T14:39:36Z</time></trkpt><trkpt lat="44.9111041529228" lon="3.1623666911725374"><ele>976.0</ele><time>2026-04-05T14:39:37Z</time></trkpt><trkpt lat="44.91094457480854" lon="3.1622491243767463"><ele>976.0</ele><time>2026-04-05T14:39:38Z</time></trkpt><trkpt lat="44.910772894193116" lon="3.1621236121587435"><ele>977.0</ele><time>2026-04-05T14:39:39Z</time></trkpt><trkpt lat="44.91062798283057" lon="3.1619833573626357"><ele>978.0</ele><time>2026-04-05T14:39:40Z</time></trkpt><trkpt lat="44.91048096592939" lon="3.161863123777377"><ele>979.0</ele><time>2026-04-05T14:39:41Z</time></trkpt><trkpt lat="44.91033531241481" lon="3.161739660646391"><ele>979.0</ele><time>2026-04-05T14:39:42Z</time></trkpt><trkpt lat="44.910194596346855" lon="3.1616230958253415"><ele>979.0</ele><time>2026-04-05T14:39:43Z</time></trkpt><trkpt lat="44.910055622298785" lon="3.161516749933139"><ele>979.0</ele><time>2026-04-05T14:39:44Z</time></trkpt><trkpt lat="44.90990764511144" lon="3.161429900956753"><ele>980.0</ele><time>2026-04-05T14:39:45Z</time></trkpt><trkpt lat="44.90977115308577" lon="3.1613333396645915"><ele>981.0</ele><time>2026-04-05T14:39:46Z</time></trkpt><trkpt lat="44.90963343540476" lon="3.161241338231756"><ele>982.0</ele><time>2026-04-05T14:39:47Z</time></trkpt><trkpt lat="44.909489321416665" lon="3.161162193233576"><ele>982.0</ele><time>2026-04-05T14:39:48Z</time></trkpt><trkpt lat="44.909347427937455" lon="3.1610947183337035"><ele>982.0</ele><time>2026-04-05T14:39:49Z</time></trkpt><trkpt lat="44.90920730784318" lon="3.1610084757563977"><ele>982.0</ele><time>2026-04-05T14:39:50Z</time></trkpt><trkpt lat="44.90906127593738" lon="3.160950771674978"><ele>982.25</ele><time>2026-04-05T14:39:51Z</time></trkpt><trkpt lat="44.90891304463268" lon="3.1609112973889903"><ele>982.5</ele><time>2026-04-05T14:39:52Z</time></trkpt><trkpt lat="44.90877473606508" lon="3.160821988167419"><ele>982.75</ele><time>2026-04-05T14:39:53Z</time></trkpt><trkpt lat="44.90864277874118" lon="3.1607448247430323"><ele>983.0</ele><time>2026-04-05T14:39:54Z</time></trkpt><trkpt lat="44.90851833272163" lon="3.1606608212386993"><ele>983.2</ele><time>2026-04-05T14:39:55Z</time></trkpt><trkpt lat="44.90840324402588" lon="3.160577958077296"><ele>983.4</ele><time>2026-04-05T14:39:56Z</time></trkpt><trkpt lat="44.908300193370884" lon="3.1605246943921"><ele>983.6000000000001</ele><time>2026-04-05T14:39:57Z</time></trkpt><trkpt lat="44.908213116888696" lon="3.1604550502447135"><ele>983.8000000000001</ele><time>2026-04-05T14:39:58Z</time></trkpt><trkpt lat="44.90813758573807" lon="3.1603595761532337"><ele>984.0</ele><time>2026-04-05T14:39:59Z</time></trkpt><trkpt lat="44.90804537930913" lon="3.160290876279458"><ele>984.0</ele><time>2026-04-05T14:40:00Z</time></trkpt><trkpt lat="44.907977682748594" lon="3.160173684063945"><ele>984.0</ele><time>2026-04-05T14:40:01Z</time></trkpt><trkpt lat="44.907888955593535" lon="3.160076464518815"><ele>984.0</ele><time>2026-04-05T14:40:02Z</time></trkpt><trkpt lat="44.907815049344386" lon="3.1599441724026067"><ele>984.0</ele><time>2026-04-05T14:40:03Z</time></trkpt><trkpt lat="44.907747577327946" lon="3.1597901644167234"><ele>983.5</ele><time>2026-04-05T14:40:04Z</time></trkpt><trkpt lat="44.90768405335695" lon="3.1596256643331566"><ele>983.0</ele><time>2026-04-05T14:40:05Z</time></trkpt><trkpt lat="44.90762589488335" lon="3.15945448942319"><ele>982.5</ele><time>2026-04-05T14:40:06Z</time></trkpt><trkpt lat="44.90757115459173" lon="3.159278912165716"><ele>982.0</ele><time>2026-04-05T14:40:07Z</time></trkpt><trkpt lat="44.90751136851692" lon="3.159106090124124"><ele>983.0</ele><time>2026-04-05T14:40:08Z</time></trkpt><trkpt lat="44.90744891145275" lon="3.1589373208309053"><ele>984.0</ele><time>2026-04-05T14:40:09Z</time></trkpt><trkpt lat="44.9073903608739" lon="3.1587677637410176"><ele>985.0</ele><time>2026-04-05T14:40:10Z</time></trkpt><trkpt lat="44.907338749601564" lon="3.1586225897795015"><ele>986.0</ele><time>2026-04-05T14:40:11Z</time></trkpt><trkpt lat="44.90729091858202" lon="3.158490471620364"><ele>986.0</ele><time>2026-04-05T14:40:12Z</time></trkpt><trkpt lat="44.907249634181916" lon="3.1583720362723837"><ele>985.9999999999999</ele><time>2026-04-05T14:40:13Z</time></trkpt><trkpt lat="44.907212637243425" lon="3.1582634944012473"><ele>985.9999999999999</ele><time>2026-04-05T14:40:14Z</time></trkpt><trkpt lat="44.90717770861073" lon="3.1581679409166896"><ele>986.0</ele><time>2026-04-05T14:40:15Z</time></trkpt><trkpt lat="44.90715594496696" lon="3.158081621111145"><ele>986.0</ele><time>2026-04-05T14:40:17Z</time></trkpt><trkpt lat="44.90695470364469" lon="3.158210070900592"><ele>986.0</ele><time>2026-04-05T14:40:18.999Z</time></trkpt><trkpt lat="44.90686293027212" lon="3.1582454660390136"><ele>985.9999999999999</ele><time>2026-04-05T14:40:19.999Z</time></trkpt><trkpt lat="44.90675727895277" lon="3.1582717637840783"><ele>985.9999999999999</ele><time>2026-04-05T14:40:20.999Z</time></trkpt><trkpt lat="44.9066471234319" lon="3.1582956138381535"><ele>986.0</ele><time>2026-04-05T14:40:21.999Z</time></trkpt><trkpt lat="44.90653617955083" lon="3.158311073051466"><ele>986.0</ele><time>2026-04-05T14:40:22.999Z</time></trkpt><trkpt lat="44.906427605146426" lon="3.1583297545150675"><ele>985.75</ele><time>2026-04-05T14:40:23.999Z</time></trkpt><trkpt lat="44.90632337670166" lon="3.158363463570128"><ele>985.5</ele><time>2026-04-05T14:40:24.999Z</time></trkpt><trkpt lat="44.90622138928015" lon="3.1584278015906104"><ele>985.25</ele><time>2026-04-05T14:40:25.999Z</time></trkpt><trkpt lat="44.90612499459486" lon="3.1585257593736653"><ele>985.0</ele><time>2026-04-05T14:40:26.999Z</time></trkpt><trkpt lat="44.90602151203081" lon="3.1586422764136"><ele>985.0</ele><time>2026-04-05T14:40:27.999Z</time></trkpt><trkpt lat="44.90591644044467" lon="3.1587501121055137"><ele>985.0</ele><time>2026-04-05T14:40:28.999Z</time></trkpt><trkpt lat="44.905816699890444" lon="3.1588770178444814"><ele>985.0</ele><time>2026-04-05T14:40:29.999Z</time></trkpt><trkpt lat="44.905731007973664" lon="3.1590208587934794"><ele>985.0</ele><time>2026-04-05T14:40:30.999Z</time></trkpt><trkpt lat="44.90565498680668" lon="3.1591774816860445"><ele>983.25</ele><time>2026-04-05T14:40:31.999Z</time></trkpt><trkpt lat="44.90557131225366" lon="3.1593249327140223"><ele>981.5</ele><time>2026-04-05T14:40:32.999Z</time></trkpt><trkpt lat="44.905474644524645" lon="3.159461161059312"><ele>979.75</ele><time>2026-04-05T14:40:33.999Z</time></trkpt><trkpt lat="44.90540867486502" lon="3.159591262986633"><ele>978.0</ele><time>2026-04-05T14:40:34.999Z</time></trkpt><trkpt lat="44.905359985836064" lon="3.159763695138455"><ele>977.8</ele><time>2026-04-05T14:40:35.999Z</time></trkpt><trkpt lat="44.90531882824142" lon="3.159922880399024"><ele>977.5999999999999</ele><time>2026-04-05T14:40:36.999Z</time></trkpt><trkpt lat="44.905272973218025" lon="3.1600400626602054"><ele>977.4000000000001</ele><time>2026-04-05T14:40:37.999Z</time></trkpt><trkpt lat="44.90520092527295" lon="3.160127056318418"><ele>977.2</ele><time>2026-04-05T14:40:38.999Z</time></trkpt><trkpt lat="44.905118980800005" lon="3.1601958755761053"><ele>977.0</ele><time>2026-04-05T14:40:39.999Z</time></trkpt><trkpt lat="44.90503214183351" lon="3.160249893340749"><ele>978.2</ele><time>2026-04-05T14:40:40.999Z</time></trkpt><trkpt lat="44.90494570065451" lon="3.1602900358343757"><ele>979.4000000000001</ele><time>2026-04-05T14:40:41.999Z</time></trkpt><trkpt lat="44.9048467004979" lon="3.160314462180403"><ele>980.5999999999999</ele><time>2026-04-05T14:40:42.999Z</time></trkpt><trkpt lat="44.90475458522049" lon="3.160343148868899"><ele>981.8</ele><time>2026-04-05T14:40:43.999Z</time></trkpt><trkpt lat="44.90466781504732" lon="3.1603897616224144"><ele>983.0</ele><time>2026-04-05T14:40:44.999Z</time></trkpt><trkpt lat="44.90457052068204" lon="3.160451650539065"><ele>983.0</ele><time>2026-04-05T14:40:45.999Z</time></trkpt><trkpt lat="44.90447123773524" lon="3.160495531540529"><ele>983.0</ele><time>2026-04-05T14:40:46.999Z</time></trkpt><trkpt lat="44.904364738026835" lon="3.160523524708824"><ele>983.0</ele><time>2026-04-05T14:40:47.999Z</time></trkpt><trkpt lat="44.90425984241782" lon="3.160531439988755"><ele>983.0</ele><time>2026-04-05T14:40:48.999Z</time></trkpt><trkpt lat="44.90414794248343" lon="3.160545796457904"><ele>983.0</ele><time>2026-04-05T14:40:49.999Z</time></trkpt><trkpt lat="44.90403909669968" lon="3.160572639055653"><ele>983.5</ele><time>2026-04-05T14:40:50.999Z</time></trkpt><trkpt lat="44.90392380353696" lon="3.160600234059215"><ele>984.0</ele><time>2026-04-05T14:40:51.999Z</time></trkpt><trkpt lat="44.90382133783172" lon="3.1606358222851996"><ele>984.5</ele><time>2026-04-05T14:40:52.999Z</time></trkpt><trkpt lat="44.90371147129278" lon="3.160679058482693"><ele>985.0</ele><time>2026-04-05T14:40:53.999Z</time></trkpt><trkpt lat="44.90359551790904" lon="3.160730771432277"><ele>985.5</ele><time>2026-04-05T14:40:54.999Z</time></trkpt><trkpt lat="44.90348587308906" lon="3.1607828822537947"><ele>986.0</ele><time>2026-04-05T14:40:55.999Z</time></trkpt><trkpt lat="44.90337211947968" lon="3.160844035561692"><ele>986.5</ele><time>2026-04-05T14:40:56.999Z</time></trkpt><trkpt lat="44.90325643163719" lon="3.1609056806771934"><ele>987.0</ele><time>2026-04-05T14:40:57.999Z</time></trkpt><trkpt lat="44.903133790496625" lon="3.1609669775194718"><ele>988.0</ele><time>2026-04-05T14:40:58.999Z</time></trkpt><trkpt lat="44.90301942398955" lon="3.1610234786197497"><ele>989.0</ele><time>2026-04-05T14:40:59.999Z</time></trkpt><trkpt lat="44.902899119231265" lon="3.1610787327476615"><ele>990.0</ele><time>2026-04-05T14:41:00.999Z</time></trkpt><trkpt lat="44.902782429067" lon="3.161132167086684"><ele>991.0</ele><time>2026-04-05T14:41:01.999Z</time></trkpt><trkpt lat="44.90266196574183" lon="3.161184276285696"><ele>992.25</ele><time>2026-04-05T14:41:02.999Z</time></trkpt><trkpt lat="44.90254322233906" lon="3.1612321975781246"><ele>993.5</ele><time>2026-04-05T14:41:03.999Z</time></trkpt><trkpt lat="44.90242666238803" lon="3.1612795140586125"><ele>994.75</ele><time>2026-04-05T14:41:04.999Z</time></trkpt><trkpt lat="44.9023058616337" lon="3.161322929245512"><ele>996.0</ele><time>2026-04-05T14:41:05.999Z</time></trkpt><trkpt lat="44.902186891803" lon="3.16134554956528"><ele>996.0</ele><time>2026-04-05T14:41:06.999Z</time></trkpt><trkpt lat="44.90206835932062" lon="3.1613454905200693"><ele>996.0</ele><time>2026-04-05T14:41:07.999Z</time></trkpt><trkpt lat="44.90194765227851" lon="3.161343483680747"><ele>996.0</ele><time>2026-04-05T14:41:08.999Z</time></trkpt><trkpt lat="44.90183112723983" lon="3.1613353576862693"><ele>996.0</ele><time>2026-04-05T14:41:09.999Z</time></trkpt><trkpt lat="44.901719871198" lon="3.1613248743361795"><ele>996.5999999999999</ele><time>2026-04-05T14:41:10.999Z</time></trkpt><trkpt lat="44.901615659953826" lon="3.1613066200035105"><ele>997.1999999999999</ele><time>2026-04-05T14:41:11.999Z</time></trkpt><trkpt lat="44.90150936216984" lon="3.161287936043572"><ele>997.8000000000001</ele><time>2026-04-05T14:41:12.999Z</time></trkpt><trkpt lat="44.90139717823272" lon="3.1612789270547514"><ele>998.4000000000001</ele><time>2026-04-05T14:41:13.999Z</time></trkpt><trkpt lat="44.90128631003501" lon="3.1613105338106102"><ele>999.0</ele><time>2026-04-05T14:41:14.999Z</time></trkpt><trkpt lat="44.901173437275055" lon="3.1613540662672532"><ele>999.0</ele><time>2026-04-05T14:41:15.999Z</time></trkpt><trkpt lat="44.901059529916814" lon="3.1613972007024786"><ele>999.0</ele><time>2026-04-05T14:41:16.999Z</time></trkpt><trkpt lat="44.90094415467111" lon="3.161438799332198"><ele>999.0</ele><time>2026-04-05T14:41:17.999Z</time></trkpt><trkpt lat="44.90083118896809" lon="3.161485315549447"><ele>999.0</ele><time>2026-04-05T14:41:18.999Z</time></trkpt><trkpt lat="44.90072169600338" lon="3.1615117477438135"><ele>999.6</ele><time>2026-04-05T14:41:19.999Z</time></trkpt><trkpt lat="44.90061407400604" lon="3.161495176228286"><ele>1000.2</ele><time>2026-04-05T14:41:20.999Z</time></trkpt><trkpt lat="44.90052727355116" lon="3.1614601028468816"><ele>1000.8000000000001</ele><time>2026-04-05T14:41:21.999Z</time></trkpt><trkpt lat="44.90045536465104" lon="3.1614145847936164"><ele>1001.4000000000001</ele><time>2026-04-05T14:41:22.999Z</time></trkpt><trkpt lat="44.900391965958185" lon="3.1613724447151563"><ele>1002.0</ele><time>2026-04-05T14:41:23.999Z</time></trkpt><trkpt lat="44.900298795018685" lon="3.1613075290293504"><ele>1002.0</ele><time>2026-04-05T14:41:25.999Z</time></trkpt><trkpt lat="44.9002318449401" lon="3.1612517048411646"><ele>1002.0</ele><time>2026-04-05T14:41:55Z</time></trkpt><trkpt lat="44.90014742811901" lon="3.161194957251325"><ele>1002.0</ele><time>2026-04-05T14:41:57Z</time></trkpt><trkpt lat="44.9000428928062" lon="3.1610899854060337"><ele>1002.0</ele><time>2026-04-05T14:41:59Z</time></trkpt><trkpt lat="44.89997434789316" lon="3.1610179319795026"><ele>1002.0</ele><time>2026-04-05T14:42:00Z</time></trkpt><trkpt lat="44.89992344877133" lon="3.16093991523907"><ele>1002.6666666666666</ele><time>2026-04-05T14:42:01Z</time></trkpt><trkpt lat="44.89988922593658" lon="3.160843551698259"><ele>1003.3333333333333</ele><time>2026-04-05T14:42:02Z</time></trkpt><trkpt lat="44.89988163477412" lon="3.160750932917539"><ele>1004.0</ele><time>2026-04-05T14:42:03Z</time></trkpt><trkpt lat="44.89989219429487" lon="3.1606401876873997"><ele>1004.6666666666666</ele><time>2026-04-05T14:42:04Z</time></trkpt><trkpt lat="44.89990188615994" lon="3.1605213195406905"><ele>1005.3333333333333</ele><time>2026-04-05T14:42:05Z</time></trkpt><trkpt lat="44.89990435494004" lon="3.1603796222356073"><ele>1006.0</ele><time>2026-04-05T14:42:06Z</time></trkpt><trkpt lat="44.89988260770635" lon="3.160248610362159"><ele>1007.1999999999999</ele><time>2026-04-05T14:42:07Z</time></trkpt><trkpt lat="44.89985103302995" lon="3.160135582502715"><ele>1008.3999999999999</ele><time>2026-04-05T14:42:08Z</time></trkpt><trkpt lat="44.89976872161058" lon="3.1600867240814092"><ele>1009.6</ele><time>2026-04-05T14:42:09Z</time></trkpt><trkpt lat="44.89969642828898" lon="3.160033361952328"><ele>1010.8</ele><time>2026-04-05T14:42:10Z</time></trkpt><trkpt lat="44.89962468692337" lon="3.1599518780411686"><ele>1012.0</ele><time>2026-04-05T14:42:12Z</time></trkpt><trkpt lat="44.899507845371076" lon="3.1599232853551613"><ele>1011.9999999999999</ele><time>2026-04-05T14:42:14Z</time></trkpt><trkpt lat="44.89942562562275" lon="3.1599290451056943"><ele>1012.0</ele><time>2026-04-05T14:42:15Z</time></trkpt><trkpt lat="44.89941615465869" lon="3.1597798083646707"><ele>1012.0</ele><time>2026-04-05T14:42:16Z</time></trkpt><trkpt lat="44.89935476302457" lon="3.159737293837912"><ele>1012.0</ele><time>2026-04-05T14:42:17Z</time></trkpt><trkpt lat="44.89927734883746" lon="3.159685082787956"><ele>1011.9999999999999</ele><time>2026-04-05T14:42:18Z</time></trkpt><trkpt lat="44.899203514089336" lon="3.1596389280999566"><ele>1012.0</ele><time>2026-04-05T14:42:19Z</time></trkpt><trkpt lat="44.89896722980767" lon="3.1599381082015596"><ele>1011.6</ele><time>2026-04-05T14:42:20Z</time></trkpt><trkpt lat="44.89886683358564" lon="3.159931416579654"><ele>1011.2</ele><time>2026-04-05T14:42:21Z</time></trkpt><trkpt lat="44.8987827957597" lon="3.1599371965939143"><ele>1010.8</ele><time>2026-04-05T14:42:22Z</time></trkpt><trkpt lat="44.89868340639054" lon="3.1599469186118654"><ele>1010.4</ele><time>2026-04-05T14:42:23Z</time></trkpt><trkpt lat="44.898583731657354" lon="3.159934175278839"><ele>1010.0</ele><time>2026-04-05T14:42:24Z</time></trkpt><trkpt lat="44.89847766368724" lon="3.1599168632011847"><ele>1009.4</ele><time>2026-04-05T14:42:24.999Z</time></trkpt><trkpt lat="44.898372190491884" lon="3.1599011831619537"><ele>1008.8</ele><time>2026-04-05T14:42:25.999Z</time></trkpt><trkpt lat="44.89828284397909" lon="3.1598827083748104"><ele>1008.2</ele><time>2026-04-05T14:42:26.999Z</time></trkpt><trkpt lat="44.898203443599726" lon="3.1598756234955614"><ele>1007.6</ele><time>2026-04-05T14:42:27.999Z</time></trkpt><trkpt lat="44.89810606989395" lon="3.159869074775949"><ele>1007.0</ele><time>2026-04-05T14:42:28.999Z</time></trkpt><trkpt lat="44.89799881657617" lon="3.159851918246597"><ele>1007.0</ele><time>2026-04-05T14:42:29.999Z</time></trkpt><trkpt lat="44.8978727762672" lon="3.1598380170053475"><ele>1007.0</ele><time>2026-04-05T14:42:30.999Z</time></trkpt><trkpt lat="44.897756433742025" lon="3.1598185531492557"><ele>1007.0</ele><time>2026-04-05T14:42:31.999Z</time></trkpt><trkpt lat="44.89764326808172" lon="3.1598136271856783"><ele>1007.0</ele><time>2026-04-05T14:42:32.999Z</time></trkpt><trkpt lat="44.89753152268702" lon="3.1598319513719697"><ele>1004.0</ele><time>2026-04-05T14:42:33.999Z</time></trkpt><trkpt lat="44.89740694803424" lon="3.159857158292745"><ele>1001.0</ele><time>2026-04-05T14:42:34.999Z</time></trkpt><trkpt lat="44.89728375829371" lon="3.1598611423064416"><ele>998.0</ele><time>2026-04-05T14:42:35.999Z</time></trkpt><trkpt lat="44.89715911856927" lon="3.159840308665588"><ele>995.0</ele><time>2026-04-05T14:42:36.999Z</time></trkpt><trkpt lat="44.8970216933918" lon="3.1598015017459185"><ele>995.0</ele><time>2026-04-05T14:42:37.999Z</time></trkpt><trkpt lat="44.89690357111664" lon="3.1597312203033705"><ele>995.0</ele><time>2026-04-05T14:42:38.999Z</time></trkpt><trkpt lat="44.89680399863827" lon="3.159641390700272"><ele>995.0</ele><time>2026-04-05T14:42:39.999Z</time></trkpt><trkpt lat="44.89669709631253" lon="3.159545096221055"><ele>995.0</ele><time>2026-04-05T14:42:40.999Z</time></trkpt><trkpt lat="44.89661338425525" lon="3.1594521117943177"><ele>994.5000000000001</ele><time>2026-04-05T14:42:41.999Z</time></trkpt><trkpt lat="44.89653248677424" lon="3.159390262444828"><ele>994.0</ele><time>2026-04-05T14:42:42.999Z</time></trkpt><trkpt lat="44.89645293660521" lon="3.159341383148246"><ele>993.5</ele><time>2026-04-05T14:42:43.999Z</time></trkpt><trkpt lat="44.89637292447341" lon="3.1592808611377525"><ele>993.0</ele><time>2026-04-05T14:42:44.999Z</time></trkpt><trkpt lat="44.896305425909794" lon="3.1592180623393813"><ele>992.5000000000001</ele><time>2026-04-05T14:42:45.999Z</time></trkpt><trkpt lat="44.89623975594628" lon="3.159148842831101"><ele>992.0</ele><time>2026-04-05T14:42:46.999Z</time></trkpt><trkpt lat="44.896176340475634" lon="3.1590938366015093"><ele>992.0000000000001</ele><time>2026-04-05T14:42:47.999Z</time></trkpt><trkpt lat="44.89609770773998" lon="3.159055035116263"><ele>992.0</ele><time>2026-04-05T14:42:48.999Z</time></trkpt><trkpt lat="44.89601518091433" lon="3.1590251551798225"><ele>992.0</ele><time>2026-04-05T14:42:49.999Z</time></trkpt><trkpt lat="44.895927119701824" lon="3.159008612649139"><ele>992.0</ele><time>2026-04-05T14:42:50.999Z</time></trkpt><trkpt lat="44.89583809002427" lon="3.15900317345649"><ele>992.0000000000001</ele><time>2026-04-05T14:42:51.999Z</time></trkpt><trkpt lat="44.89576229754033" lon="3.1590121105107363"><ele>992.0</ele><time>2026-04-05T14:42:52.999Z</time></trkpt><trkpt lat="44.895648816373836" lon="3.159065942072027"><ele>992.2</ele><time>2026-04-05T14:42:54.999Z</time></trkpt><trkpt lat="44.895571173459956" lon="3.1591128847233425"><ele>992.4000000000001</ele><time>2026-04-05T14:42:55.999Z</time></trkpt><trkpt lat="44.89549380891615" lon="3.1591670646534165"><ele>992.5999999999999</ele><time>2026-04-05T14:42:56.999Z</time></trkpt><trkpt lat="44.89540818430128" lon="3.159238434610997"><ele>992.8</ele><time>2026-04-05T14:42:57.999Z</time></trkpt><trkpt lat="44.89531874164593" lon="3.1593202766735686"><ele>993.0</ele><time>2026-04-05T14:42:58.999Z</time></trkpt><trkpt lat="44.89524899196781" lon="3.159393972952337"><ele>993.0</ele><time>2026-04-05T14:42:59.999Z</time></trkpt><trkpt lat="44.89517714982741" lon="3.159473990021469"><ele>993.0</ele><time>2026-04-05T14:43:00.999Z</time></trkpt><trkpt lat="44.89510421471724" lon="3.1595823234508456"><ele>993.0</ele><time>2026-04-05T14:43:01.999Z</time></trkpt><trkpt lat="44.8950330568584" lon="3.1596902497907164"><ele>993.0</ele><time>2026-04-05T14:43:02.999Z</time></trkpt><trkpt lat="44.89496375625895" lon="3.1597832916992483"><ele>993.0</ele><time>2026-04-05T14:43:03.999Z</time></trkpt><trkpt lat="44.89489897759286" lon="3.1598624047925994"><ele>992.0</ele><time>2026-04-05T14:43:04.999Z</time></trkpt><trkpt lat="44.89482877805435" lon="3.1599495940888276"><ele>991.0</ele><time>2026-04-05T14:43:05.999Z</time></trkpt><trkpt lat="44.894749005831834" lon="3.1600414869789084"><ele>990.0</ele><time>2026-04-05T14:43:06.999Z</time></trkpt><trkpt lat="44.89467742885114" lon="3.160123791401754"><ele>989.0</ele><time>2026-04-05T14:43:07.999Z</time></trkpt><trkpt lat="44.89459727969665" lon="3.1602120378565117"><ele>988.0</ele><time>2026-04-05T14:43:08.999Z</time></trkpt><trkpt lat="44.89451888422816" lon="3.1603009273769356"><ele>987.9999999999999</ele><time>2026-04-05T14:43:09.999Z</time></trkpt><trkpt lat="44.894448886284934" lon="3.1603867630378946"><ele>988.0</ele><time>2026-04-05T14:43:10.999Z</time></trkpt><trkpt lat="44.8943870275849" lon="3.1604595351445175"><ele>988.0</ele><time>2026-04-05T14:43:11.999Z</time></trkpt><trkpt lat="44.89432445082722" lon="3.1605465999139595"><ele>988.0</ele><time>2026-04-05T14:43:12.999Z</time></trkpt><trkpt lat="44.8942863891573" lon="3.160638731045432"><ele>987.9999999999999</ele><time>2026-04-05T14:43:13.999Z</time></trkpt><trkpt lat="44.894255230856054" lon="3.1607387148669344"><ele>988.0</ele><time>2026-04-05T14:43:14.999Z</time></trkpt><trkpt lat="44.89422524927332" lon="3.160835555215772"><ele>987.6666666666666</ele><time>2026-04-05T14:43:15.999Z</time></trkpt><trkpt lat="44.8941823557783" lon="3.1609145452105936"><ele>987.3333333333333</ele><time>2026-04-05T14:43:16.999Z</time></trkpt><trkpt lat="44.89412200226292" lon="3.160949754428845"><ele>987.0</ele><time>2026-04-05T14:43:17.999Z</time></trkpt><trkpt lat="44.89405412026037" lon="3.1609675739333003"><ele>986.6666666666667</ele><time>2026-04-05T14:43:18.999Z</time></trkpt><trkpt lat="44.893973228801435" lon="3.161089309601376"><ele>986.3333333333334</ele><time>2026-04-05T14:43:20.999Z</time></trkpt><trkpt lat="44.893947852731756" lon="3.1612007921573957"><ele>986.0</ele><time>2026-04-05T14:43:21.999Z</time></trkpt><trkpt lat="44.89393191643676" lon="3.1613016189761227"><ele>986.0</ele><time>2026-04-05T14:43:22.999Z</time></trkpt><trkpt lat="44.893902728866735" lon="3.1613981498058035"><ele>985.9999999999999</ele><time>2026-04-05T14:43:23.999Z</time></trkpt><trkpt lat="44.89386016292339" lon="3.161501080333746"><ele>985.9999999999999</ele><time>2026-04-05T14:43:24.999Z</time></trkpt><trkpt lat="44.89381310087686" lon="3.1616130883964786"><ele>986.0</ele><time>2026-04-05T14:43:25.999Z</time></trkpt><trkpt lat="44.893762919835794" lon="3.1617370726106078"><ele>986.0</ele><time>2026-04-05T14:43:26.999Z</time></trkpt><trkpt lat="44.89370742843353" lon="3.161864458324725"><ele>986.5999999999999</ele><time>2026-04-05T14:43:27.999Z</time></trkpt><trkpt lat="44.8936445616533" lon="3.1619980672621977"><ele>987.1999999999999</ele><time>2026-04-05T14:43:28.999Z</time></trkpt><trkpt lat="44.89357284591911" lon="3.1621133220700557"><ele>987.8000000000001</ele><time>2026-04-05T14:43:29.999Z</time></trkpt><trkpt lat="44.893501671295226" lon="3.162216440691079"><ele>988.4000000000001</ele><time>2026-04-05T14:43:30.999Z</time></trkpt><trkpt lat="44.89343437855814" lon="3.1623127132261226"><ele>989.0</ele><time>2026-04-05T14:43:31.999Z</time></trkpt><trkpt lat="44.89336028288284" lon="3.162392017381334"><ele>990.6</ele><time>2026-04-05T14:43:32.999Z</time></trkpt><trkpt lat="44.893283239710854" lon="3.162453321433224"><ele>992.2</ele><time>2026-04-05T14:43:34Z</time></trkpt><trkpt lat="44.893198943583926" lon="3.162470802086992"><ele>993.8000000000001</ele><time>2026-04-05T14:43:35Z</time></trkpt><trkpt lat="44.893104303672644" lon="3.1624622525008346"><ele>995.4000000000001</ele><time>2026-04-05T14:43:36Z</time></trkpt><trkpt lat="44.89299430752197" lon="3.1624561755143845"><ele>997.0</ele><time>2026-04-05T14:43:37Z</time></trkpt><trkpt lat="44.89287190977934" lon="3.1624491291807817"><ele>997.0</ele><time>2026-04-05T14:43:38Z</time></trkpt><trkpt lat="44.892758680129454" lon="3.1624206578122114"><ele>997.0</ele><time>2026-04-05T14:43:39Z</time></trkpt><trkpt lat="44.892651071959776" lon="3.1624169814275684"><ele>997.0</ele><time>2026-04-05T14:43:40Z</time></trkpt><trkpt lat="44.892544429901996" lon="3.162417875319697"><ele>997.0</ele><time>2026-04-05T14:43:41Z</time></trkpt><trkpt lat="44.892437204265875" lon="3.1624541694994406"><ele>997.0</ele><time>2026-04-05T14:43:42Z</time></trkpt><trkpt lat="44.892329052959944" lon="3.162473450295707"><ele>998.75</ele><time>2026-04-05T14:43:43Z</time></trkpt><trkpt lat="44.892217334464284" lon="3.1624744419472224"><ele>1000.5</ele><time>2026-04-05T14:43:44Z</time></trkpt><trkpt lat="44.892106139281886" lon="3.1625058735008507"><ele>1002.25</ele><time>2026-04-05T14:43:45Z</time></trkpt><trkpt lat="44.89199704745073" lon="3.1625478024077753"><ele>1004.0</ele><time>2026-04-05T14:43:46Z</time></trkpt><trkpt lat="44.89188779071086" lon="3.162592892217656"><ele>1004.0</ele><time>2026-04-05T14:43:47Z</time></trkpt><trkpt lat="44.891777662129364" lon="3.1626267101985954"><ele>1004.0</ele><time>2026-04-05T14:43:48Z</time></trkpt><trkpt lat="44.89166473239563" lon="3.1626462792168915"><ele>1004.0</ele><time>2026-04-05T14:43:49Z</time></trkpt><trkpt lat="44.891548908569256" lon="3.1626747399225055"><ele>1004.0</ele><time>2026-04-05T14:43:50Z</time></trkpt><trkpt lat="44.89144015622873" lon="3.1627431562172608"><ele>1004.3333333333334</ele><time>2026-04-05T14:43:51Z</time></trkpt><trkpt lat="44.89133361423301" lon="3.1627725756981957"><ele>1004.6666666666667</ele><time>2026-04-05T14:43:52Z</time></trkpt><trkpt lat="44.891260385747415" lon="3.1628550511090174"><ele>1005.0</ele><time>2026-04-05T14:43:53Z</time></trkpt><trkpt lat="44.89118919501887" lon="3.162907436584353"><ele>1005.3333333333333</ele><time>2026-04-05T14:43:54Z</time></trkpt><trkpt lat="44.891149865350066" lon="3.162994169158558"><ele>1005.6666666666666</ele><time>2026-04-05T14:43:55Z</time></trkpt><trkpt lat="44.89111559689505" lon="3.1630754618188304"><ele>1006.0</ele><time>2026-04-05T14:43:56Z</time></trkpt><trkpt lat="44.891148061428" lon="3.1632120088004125"><ele>1006.0</ele><time>2026-04-05T14:43:57Z</time></trkpt><trkpt lat="44.891158900452474" lon="3.163339613279087"><ele>1005.9999999999999</ele><time>2026-04-05T14:43:58Z</time></trkpt><trkpt lat="44.8911720547364" lon="3.1634839087117546"><ele>1005.9999999999999</ele><time>2026-04-05T14:43:59Z</time></trkpt><trkpt lat="44.89118021661149" lon="3.163636838453345"><ele>1006.0</ele><time>2026-04-05T14:44:00Z</time></trkpt><trkpt lat="44.89118789271508" lon="3.163802778687485"><ele>1006.0</ele><time>2026-04-05T14:44:01Z</time></trkpt><trkpt lat="44.89118929083092" lon="3.163976151689071"><ele>1006.25</ele><time>2026-04-05T14:44:02Z</time></trkpt><trkpt lat="44.89116396469367" lon="3.1641440814953325"><ele>1006.5</ele><time>2026-04-05T14:44:03Z</time></trkpt><trkpt lat="44.89110564585261" lon="3.1643046243115176"><ele>1006.75</ele><time>2026-04-05T14:44:04Z</time></trkpt><trkpt lat="44.89105140689831" lon="3.164471999893705"><ele>1007.0</ele><time>2026-04-05T14:44:05Z</time></trkpt><trkpt lat="44.890987611459614" lon="3.164656602443431"><ele>1009.6666666666667</ele><time>2026-04-05T14:44:06Z</time></trkpt><trkpt lat="44.89092281360074" lon="3.1648479625101666"><ele>1012.3333333333333</ele><time>2026-04-05T14:44:07Z</time></trkpt><trkpt lat="44.89083683922796" lon="3.165042570143726"><ele>1015.0</ele><time>2026-04-05T14:44:08Z</time></trkpt><trkpt lat="44.89075517997449" lon="3.1652365573879804"><ele>1015.0</ele><time>2026-04-05T14:44:09Z</time></trkpt><trkpt lat="44.890665167755586" lon="3.165437312283694"><ele>1015.0</ele><time>2026-04-05T14:44:10Z</time></trkpt><trkpt lat="44.89058400373548" lon="3.1656130047395106"><ele>1015.0</ele><time>2026-04-05T14:44:11Z</time></trkpt><trkpt lat="44.89051468077748" lon="3.165812478509875"><ele>1015.0</ele><time>2026-04-05T14:44:12Z</time></trkpt><trkpt lat="44.89047162044372" lon="3.166044095480193"><ele>1015.0</ele><time>2026-04-05T14:44:13Z</time></trkpt><trkpt lat="44.8904420988214" lon="3.1662742361536376"><ele>1015.0</ele><time>2026-04-05T14:44:14Z</time></trkpt><trkpt lat="44.89042985300653" lon="3.1665159634607716"><ele>1014.5</ele><time>2026-04-05T14:44:15Z</time></trkpt><trkpt lat="44.89044252589632" lon="3.1667016861711677"><ele>1014.0</ele><time>2026-04-05T14:44:16Z</time></trkpt><trkpt lat="44.89048513488171" lon="3.166869188497393"><ele>1013.5</ele><time>2026-04-05T14:44:17Z</time></trkpt><trkpt lat="44.890606302397" lon="3.1670298565243105"><ele>1013.0</ele><time>2026-04-05T14:44:18Z</time></trkpt><trkpt lat="44.890647289901246" lon="3.1672345286627284"><ele>1014.0</ele><time>2026-04-05T14:44:19Z</time></trkpt><trkpt lat="44.890693196312036" lon="3.1674213004083436"><ele>1015.0</ele><time>2026-04-05T14:44:20Z</time></trkpt><trkpt lat="44.89070852842507" lon="3.167558152047073"><ele>1016.0</ele><time>2026-04-05T14:44:21Z</time></trkpt><trkpt lat="44.89071671117487" lon="3.1676973913875046"><ele>1017.0</ele><time>2026-04-05T14:44:21.999Z</time></trkpt><trkpt lat="44.89069184273952" lon="3.1678348892950465"><ele>1018.0</ele><time>2026-04-05T14:44:22.999Z</time></trkpt><trkpt lat="44.89064448293546" lon="3.1679538593490166"><ele>1017.9999999999999</ele><time>2026-04-05T14:44:23.999Z</time></trkpt><trkpt lat="44.89060350784932" lon="3.168031494996283"><ele>1018.0</ele><time>2026-04-05T14:44:24.999Z</time></trkpt><trkpt lat="44.89057407350055" lon="3.168113171354147"><ele>1018.0</ele><time>2026-04-05T14:44:26.999Z</time></trkpt><trkpt lat="44.89053789329736" lon="3.168187832851404"><ele>1018.0</ele><time>2026-04-05T14:45:03.999Z</time></trkpt><trkpt lat="44.89051930324807" lon="3.1682818776924875"><ele>1017.9999999999999</ele><time>2026-04-05T14:45:21.999Z</time></trkpt><trkpt lat="44.890517047437484" lon="3.168408835636283"><ele>1018.0</ele><time>2026-04-05T14:45:23.999Z</time></trkpt><trkpt lat="44.890552651186304" lon="3.1685358073204557"><ele>1020.0</ele><time>2026-04-05T14:45:25.999Z</time></trkpt><trkpt lat="44.89060149943033" lon="3.1687115710976226"><ele>1022.0</ele><time>2026-04-05T14:45:27.999Z</time></trkpt><trkpt lat="44.89063132257908" lon="3.168818269817307"><ele>1024.0</ele><time>2026-04-05T14:45:28.999Z</time></trkpt><trkpt lat="44.89065821291106" lon="3.1689489194732565"><ele>1026.0</ele><time>2026-04-05T14:45:29.999Z</time></trkpt><trkpt lat="44.890676565423696" lon="3.1690854527524337"><ele>1028.0</ele><time>2026-04-05T14:45:30.999Z</time></trkpt><trkpt lat="44.89069961855703" lon="3.1692183880039777"><ele>1028.0</ele><time>2026-04-05T14:45:31.999Z</time></trkpt><trkpt lat="44.890688985452186" lon="3.1693584390125396"><ele>1028.0</ele><time>2026-04-05T14:45:32.999Z</time></trkpt><trkpt lat="44.89067915834983" lon="3.1695088610109825"><ele>1028.0</ele><time>2026-04-05T14:45:33.999Z</time></trkpt><trkpt lat="44.89066765860581" lon="3.1696617799722846"><ele>1028.0</ele><time>2026-04-05T14:45:34.999Z</time></trkpt><trkpt lat="44.890665711142454" lon="3.1698223377750687"><ele>1028.0</ele><time>2026-04-05T14:45:35.999Z</time></trkpt><trkpt lat="44.89065176979647" lon="3.1699892122789564"><ele>1028.0</ele><time>2026-04-05T14:45:36.999Z</time></trkpt><trkpt lat="44.890618458449566" lon="3.170162934020496"><ele>1028.0</ele><time>2026-04-05T14:45:37.999Z</time></trkpt><trkpt lat="44.89061731126384" lon="3.1703360171406314"><ele>1028.0</ele><time>2026-04-05T14:45:38.999Z</time></trkpt><trkpt lat="44.89059440065838" lon="3.170515358623652"><ele>1028.0</ele><time>2026-04-05T14:45:40Z</time></trkpt><trkpt lat="44.8905815046588" lon="3.1706874643074934"><ele>1026.8</ele><time>2026-04-05T14:45:41Z</time></trkpt><trkpt lat="44.89056608802334" lon="3.1708591141710896"><ele>1025.6</ele><time>2026-04-05T14:45:42Z</time></trkpt><trkpt lat="44.89052597298002" lon="3.1710022287571693"><ele>1024.4</ele><time>2026-04-05T14:45:43Z</time></trkpt><trkpt lat="44.890492347663" lon="3.171125363925977"><ele>1023.2</ele><time>2026-04-05T14:45:44Z</time></trkpt><trkpt lat="44.89047516386847" lon="3.1712424840089755"><ele>1022.0</ele><time>2026-04-05T14:45:45Z</time></trkpt><trkpt lat="44.890437872436" lon="3.171331963247013"><ele>1022.0</ele><time>2026-04-05T14:45:46Z</time></trkpt><trkpt lat="44.89041570109297" lon="3.1714340811235715"><ele>1022.0</ele><time>2026-04-05T14:45:47Z</time></trkpt><trkpt lat="44.89035901653907" lon="3.1715354488525684"><ele>1022.0</ele><time>2026-04-05T14:45:48Z</time></trkpt><trkpt lat="44.890327469879345" lon="3.1716713909729592"><ele>1022.0</ele><time>2026-04-05T14:45:49Z</time></trkpt><trkpt lat="44.89030418112339" lon="3.171828319285045"><ele>1022.0</ele><time>2026-04-05T14:45:50Z</time></trkpt><trkpt lat="44.89027853965439" lon="3.1719967009987298"><ele>1023.6666666666667</ele><time>2026-04-05T14:45:51Z</time></trkpt><trkpt lat="44.890250612624705" lon="3.1721840066521207"><ele>1025.3333333333333</ele><time>2026-04-05T14:45:52Z</time></trkpt><trkpt lat="44.890226744071356" lon="3.17240027504329"><ele>1027.0</ele><time>2026-04-05T14:45:53Z</time></trkpt><trkpt lat="44.890205514784284" lon="3.172652191843767"><ele>1029.0</ele><time>2026-04-05T14:45:54Z</time></trkpt><trkpt lat="44.89018150204543" lon="3.172922208061743"><ele>1031.0</ele><time>2026-04-05T14:45:55Z</time></trkpt><trkpt lat="44.890148343023995" lon="3.1732325122637577"><ele>1033.0</ele><time>2026-04-05T14:45:56Z</time></trkpt><trkpt lat="44.890110444299644" lon="3.1735412741398403"><ele>1034.75</ele><time>2026-04-05T14:45:57Z</time></trkpt><trkpt lat="44.890081698612335" lon="3.173791348118385"><ele>1036.5</ele><time>2026-04-05T14:45:58Z</time></trkpt><trkpt lat="44.8900476349933" lon="3.1739925622622516"><ele>1038.25</ele><time>2026-04-05T14:45:59Z</time></trkpt><trkpt lat="44.89001312319201" lon="3.1741580262245415"><ele>1040.0</ele><time>2026-04-05T14:46:00Z</time></trkpt><trkpt lat="44.88998333206126" lon="3.174323757247779"><ele>1040.0</ele><time>2026-04-05T14:46:01Z</time></trkpt><trkpt lat="44.88995674270633" lon="3.1745097066872234"><ele>1040.0</ele><time>2026-04-05T14:46:02Z</time></trkpt><trkpt lat="44.8899340019149" lon="3.174712418175824"><ele>1040.0</ele><time>2026-04-05T14:46:03Z</time></trkpt><trkpt lat="44.88992837997498" lon="3.1749187642616343"><ele>1040.0</ele><time>2026-04-05T14:46:04Z</time></trkpt><trkpt lat="44.889924171509406" lon="3.1751324594590598"><ele>1040.0</ele><time>2026-04-05T14:46:05Z</time></trkpt><trkpt lat="44.889917128213895" lon="3.1753540016826154"><ele>1040.0</ele><time>2026-04-05T14:46:06Z</time></trkpt><trkpt lat="44.889908013795534" lon="3.1755521325296208"><ele>1040.0</ele><time>2026-04-05T14:46:07Z</time></trkpt><trkpt lat="44.88990290538592" lon="3.1757237997580727"><ele>1040.0</ele><time>2026-04-05T14:46:08Z</time></trkpt><trkpt lat="44.88989956932126" lon="3.175869182024382"><ele>1040.6</ele><time>2026-04-05T14:46:09Z</time></trkpt><trkpt lat="44.88989715919081" lon="3.1759999168946407"><ele>1041.2</ele><time>2026-04-05T14:46:10Z</time></trkpt><trkpt lat="44.88989220635983" lon="3.1761248432272313"><ele>1041.8</ele><time>2026-04-05T14:46:11Z</time></trkpt><trkpt lat="44.88989540492154" lon="3.1762557854903077"><ele>1042.4</ele><time>2026-04-05T14:46:12Z</time></trkpt><trkpt lat="44.88992088941685" lon="3.176387377159547"><ele>1043.0</ele><time>2026-04-05T14:46:13Z</time></trkpt><trkpt lat="44.88997020787289" lon="3.1765181569777146"><ele>1043.0</ele><time>2026-04-05T14:46:14Z</time></trkpt><trkpt lat="44.890038206289134" lon="3.1766446890454945"><ele>1043.0</ele><time>2026-04-05T14:46:15Z</time></trkpt><trkpt lat="44.89011505074659" lon="3.176754494141916"><ele>1043.0</ele><time>2026-04-05T14:46:16Z</time></trkpt><trkpt lat="44.89018856613909" lon="3.1768459569559147"><ele>1043.0</ele><time>2026-04-05T14:46:16.999Z</time></trkpt><trkpt lat="44.89025101788409" lon="3.176925949660455"><ele>1043.0</ele><time>2026-04-05T14:46:17.999Z</time></trkpt><trkpt lat="44.89031055160583" lon="3.1770024472539555"><ele>1042.6666666666667</ele><time>2026-04-05T14:46:18.999Z</time></trkpt><trkpt lat="44.89037536582923" lon="3.1770735648415753"><ele>1042.3333333333335</ele><time>2026-04-05T14:46:19.999Z</time></trkpt><trkpt lat="44.89044461283865" lon="3.1771517779978384"><ele>1042.0</ele><time>2026-04-05T14:46:20.999Z</time></trkpt><trkpt lat="44.890523079800765" lon="3.1772375355442732"><ele>1041.6666666666667</ele><time>2026-04-05T14:46:21.999Z</time></trkpt><trkpt lat="44.89059555018489" lon="3.1773199096125477"><ele>1041.3333333333333</ele><time>2026-04-05T14:46:22.999Z</time></trkpt><trkpt lat="44.89066539441032" lon="3.177390288065772"><ele>1041.0</ele><time>2026-04-05T14:46:23.999Z</time></trkpt><trkpt lat="44.8907239190817" lon="3.177458154975978"><ele>1041.8</ele><time>2026-04-05T14:46:24.999Z</time></trkpt><trkpt lat="44.89077081753139" lon="3.1775201886065654"><ele>1042.6</ele><time>2026-04-05T14:46:25.999Z</time></trkpt><trkpt lat="44.890699009795334" lon="3.177614302140583"><ele>1043.4</ele><time>2026-04-05T14:46:28.999Z</time></trkpt><trkpt lat="44.890627075175246" lon="3.1776641163075316"><ele>1044.2</ele><time>2026-04-05T14:46:29.999Z</time></trkpt><trkpt lat="44.89053813305012" lon="3.177751983060403"><ele>1045.0</ele><time>2026-04-05T14:46:30.999Z</time></trkpt><trkpt lat="44.89040852107265" lon="3.1778502507206334"><ele>1045.0</ele><time>2026-04-05T14:46:31.999Z</time></trkpt><trkpt lat="44.890270647136816" lon="3.178010051628059"><ele>1045.0</ele><time>2026-04-05T14:46:32.999Z</time></trkpt><trkpt lat="44.890114511151424" lon="3.1781228725218567"><ele>1045.0</ele><time>2026-04-05T14:46:33.999Z</time></trkpt><trkpt lat="44.889961862069164" lon="3.178244999307051"><ele>1046.0</ele><time>2026-04-05T14:46:34.999Z</time></trkpt><trkpt lat="44.889840571654716" lon="3.1783564697050064"><ele>1047.0</ele><time>2026-04-05T14:46:35.999Z</time></trkpt><trkpt lat="44.88973922013906" lon="3.1784557326756953"><ele>1048.0</ele><time>2026-04-05T14:46:36.999Z</time></trkpt><trkpt lat="44.88967253521681" lon="3.1785703915248624"><ele>1049.0</ele><time>2026-04-05T14:46:37.999Z</time></trkpt><trkpt lat="44.88964025423703" lon="3.178736535339756"><ele>1049.0</ele><time>2026-04-05T14:46:38.999Z</time></trkpt><trkpt lat="44.88964395073774" lon="3.178969814721886"><ele>1049.0</ele><time>2026-04-05T14:46:39.999Z</time></trkpt><trkpt lat="44.88966355146374" lon="3.17923203798182"><ele>1049.0</ele><time>2026-04-05T14:46:40.999Z</time></trkpt><trkpt lat="44.889683243702116" lon="3.179484776613179"><ele>1048.3333333333335</ele><time>2026-04-05T14:46:41.999Z</time></trkpt><trkpt lat="44.88969634316301" lon="3.1796925834764616"><ele>1047.6666666666667</ele><time>2026-04-05T14:46:42.999Z</time></trkpt><trkpt lat="44.88971249263533" lon="3.1799487748976962"><ele>1047.0</ele><time>2026-04-05T14:46:43.999Z</time></trkpt><trkpt lat="44.889722895935265" lon="3.1801755887839684"><ele>1046.0</ele><time>2026-04-05T14:46:44.999Z</time></trkpt><trkpt lat="44.889734167486" lon="3.1803833426641384"><ele>1045.0</ele><time>2026-04-05T14:46:45.999Z</time></trkpt><trkpt lat="44.889785081429665" lon="3.1805833011337388"><ele>1044.0</ele><time>2026-04-05T14:46:46.999Z</time></trkpt><trkpt lat="44.88980850410233" lon="3.180744599763766"><ele>1043.0</ele><time>2026-04-05T14:46:47.999Z</time></trkpt><trkpt lat="44.8898558179599" lon="3.180914481724639"><ele>1043.0</ele><time>2026-04-05T14:46:48.999Z</time></trkpt><trkpt lat="44.889926434098975" lon="3.181088340935376"><ele>1043.0</ele><time>2026-04-05T14:46:49.999Z</time></trkpt><trkpt lat="44.889993668113306" lon="3.1812764704269116"><ele>1043.0</ele><time>2026-04-05T14:46:50.999Z</time></trkpt><trkpt lat="44.89006317485123" lon="3.181479455630412"><ele>1043.0</ele><time>2026-04-05T14:46:51.999Z</time></trkpt><trkpt lat="44.8901338536459" lon="3.181682350076294"><ele>1043.0</ele><time>2026-04-05T14:46:52.999Z</time></trkpt><trkpt lat="44.890201143496085" lon="3.181859027174625"><ele>1043.0</ele><time>2026-04-05T14:46:53.999Z</time></trkpt><trkpt lat="44.890260124910824" lon="3.182023690006273"><ele>1043.0</ele><time>2026-04-05T14:46:55Z</time></trkpt><trkpt lat="44.89030964454204" lon="3.182204976997096"><ele>1041.75</ele><time>2026-04-05T14:46:56Z</time></trkpt><trkpt lat="44.89035251110916" lon="3.1824166358051507"><ele>1040.5</ele><time>2026-04-05T14:46:57Z</time></trkpt><trkpt lat="44.89038391795629" lon="3.1826051552409806"><ele>1039.25</ele><time>2026-04-05T14:46:58Z</time></trkpt><trkpt lat="44.89040794137084" lon="3.1827613042769998"><ele>1038.0</ele><time>2026-04-05T14:46:59Z</time></trkpt><trkpt lat="44.89042033937956" lon="3.1828802801230913"><ele>1038.0</ele><time>2026-04-05T14:47:00Z</time></trkpt><trkpt lat="44.890421528621935" lon="3.1830224633365267"><ele>1038.0</ele><time>2026-04-05T14:47:02Z</time></trkpt><trkpt lat="44.89035251155836" lon="3.1830465883538603"><ele>1038.0</ele><time>2026-04-05T14:47:03Z</time></trkpt><trkpt lat="44.89028394021871" lon="3.183030223720007"><ele>1038.0</ele><time>2026-04-05T14:47:04Z</time></trkpt><trkpt lat="44.89021242267061" lon="3.1830314724145308"><ele>1038.0</ele><time>2026-04-05T14:47:05Z</time></trkpt><trkpt lat="44.89010761438624" lon="3.183045498649766"><ele>1038.0</ele><time>2026-04-05T14:47:06Z</time></trkpt><trkpt lat="44.88997019610183" lon="3.1830671830087827"><ele>1039.6666666666667</ele><time>2026-04-05T14:47:07Z</time></trkpt><trkpt lat="44.88980177287083" lon="3.183092294832219"><ele>1041.3333333333335</ele><time>2026-04-05T14:47:08Z</time></trkpt><trkpt lat="44.8896293282103" lon="3.1831191497313585"><ele>1043.0</ele><time>2026-04-05T14:47:09Z</time></trkpt><trkpt lat="44.88950461772513" lon="3.183135210709327"><ele>1043.0</ele><time>2026-04-05T14:47:10Z</time></trkpt><trkpt lat="44.88941566272795" lon="3.1831198518014747"><ele>1043.0</ele><time>2026-04-05T14:47:11Z</time></trkpt><trkpt lat="44.889333932625995" lon="3.1830149227030464"><ele>1043.0</ele><time>2026-04-05T14:47:12Z</time></trkpt><trkpt lat="44.88928595512478" lon="3.1829087338010758"><ele>1043.0</ele><time>2026-04-05T14:47:13Z</time></trkpt><trkpt lat="44.88923015766902" lon="3.182848075752086"><ele>1043.0</ele><time>2026-04-05T14:47:14Z</time></trkpt><trkpt lat="44.88917596297903" lon="3.1828026174633792"><ele>1043.0</ele><time>2026-04-05T14:47:15Z</time></trkpt><trkpt lat="44.88907414612592" lon="3.182717856125841"><ele>1044.0</ele><time>2026-04-05T14:47:17Z</time></trkpt><trkpt lat="44.8890165452605" lon="3.182667014742057"><ele>1045.0</ele><time>2026-04-05T14:47:18Z</time></trkpt><trkpt lat="44.88890406178797" lon="3.182569484357752"><ele>1046.0</ele><time>2026-04-05T14:47:20Z</time></trkpt><trkpt lat="44.888842839219436" lon="3.1825363724131894"><ele>1047.0</ele><time>2026-04-05T14:47:21Z</time></trkpt><trkpt lat="44.88877631025059" lon="3.1824949513888914"><ele>1048.0</ele><time>2026-04-05T14:47:22Z</time></trkpt><trkpt lat="44.88870990084228" lon="3.182461329481696"><ele>1049.0</ele><time>2026-04-05T14:47:23Z</time></trkpt><trkpt lat="44.88863727994179" lon="3.182425989044962"><ele>1049.0</ele><time>2026-04-05T14:47:24Z</time></trkpt><trkpt lat="44.888555729511715" lon="3.182390433424036"><ele>1049.0</ele><time>2026-04-05T14:47:25Z</time></trkpt><trkpt lat="44.88847091826685" lon="3.1823365686670364"><ele>1049.0</ele><time>2026-04-05T14:47:26Z</time></trkpt><trkpt lat="44.888381339290106" lon="3.1823045255680062"><ele>1049.0</ele><time>2026-04-05T14:47:27Z</time></trkpt><trkpt lat="44.88829405738553" lon="3.182272073064249"><ele>1049.0</ele><time>2026-04-05T14:47:28Z</time></trkpt><trkpt lat="44.888208389640894" lon="3.182238838015683"><ele>1049.2</ele><time>2026-04-05T14:47:28.999Z</time></trkpt><trkpt lat="44.888120112338186" lon="3.18219690485471"><ele>1049.4</ele><time>2026-04-05T14:47:29.999Z</time></trkpt><trkpt lat="44.888032223351374" lon="3.182143557132196"><ele>1049.6</ele><time>2026-04-05T14:47:30.999Z</time></trkpt><trkpt lat="44.88795462420959" lon="3.1820669257523146"><ele>1049.8</ele><time>2026-04-05T14:47:31.999Z</time></trkpt><trkpt lat="44.88786862865801" lon="3.181980524529084"><ele>1050.0</ele><time>2026-04-05T14:47:32.999Z</time></trkpt><trkpt lat="44.887782743642674" lon="3.1818998686106816"><ele>1050.0</ele><time>2026-04-05T14:47:33.999Z</time></trkpt><trkpt lat="44.887723578483865" lon="3.1817718263474073"><ele>1050.0</ele><time>2026-04-05T14:47:34.999Z</time></trkpt><trkpt lat="44.887671835329975" lon="3.1816397511352226"><ele>1050.0</ele><time>2026-04-05T14:47:35.999Z</time></trkpt><trkpt lat="44.887619835799384" lon="3.1814882816511183"><ele>1050.0</ele><time>2026-04-05T14:47:36.999Z</time></trkpt><trkpt lat="44.88755390902019" lon="3.1813386677682765"><ele>1049.75</ele><time>2026-04-05T14:47:37.999Z</time></trkpt><trkpt lat="44.88744940684763" lon="3.1812335612385882"><ele>1049.5</ele><time>2026-04-05T14:47:38.999Z</time></trkpt><trkpt lat="44.887348542092845" lon="3.1811283757154123"><ele>1049.25</ele><time>2026-04-05T14:47:39.999Z</time></trkpt><trkpt lat="44.88723282163448" lon="3.181028726043583"><ele>1049.0</ele><time>2026-04-05T14:47:40.999Z</time></trkpt><trkpt lat="44.887120135968956" lon="3.1809204713194967"><ele>1049.0</ele><time>2026-04-05T14:47:41.999Z</time></trkpt><trkpt lat="44.88700874491224" lon="3.1808187189249986"><ele>1049.0</ele><time>2026-04-05T14:47:42.999Z</time></trkpt><trkpt lat="44.88689691765308" lon="3.180723752205163"><ele>1049.0</ele><time>2026-04-05T14:47:43.999Z</time></trkpt><trkpt lat="44.886788768299134" lon="3.180625485617882"><ele>1049.0</ele><time>2026-04-05T14:47:44.999Z</time></trkpt><trkpt lat="44.88667609059912" lon="3.1805290544633675"><ele>1050.0</ele><time>2026-04-05T14:47:46.001Z</time></trkpt><trkpt lat="44.88658564266669" lon="3.1804226262026574"><ele>1051.0</ele><time>2026-04-05T14:47:47.001Z</time></trkpt><trkpt lat="44.88650685361048" lon="3.1803509382843957"><ele>1052.0</ele><time>2026-04-05T14:47:48.001Z</time></trkpt><trkpt lat="44.886438010817905" lon="3.180287363960751"><ele>1053.0</ele><time>2026-04-05T14:47:49.001Z</time></trkpt><trkpt lat="44.88636350452402" lon="3.1802416822678263"><ele>1054.0</ele><time>2026-04-05T14:47:50.001Z</time></trkpt><trkpt lat="44.886298361532965" lon="3.1801758297145737"><ele>1054.0</ele><time>2026-04-05T14:47:51.001Z</time></trkpt><trkpt lat="44.88623338654144" lon="3.1801189919194464"><ele>1054.0</ele><time>2026-04-05T14:47:52.001Z</time></trkpt><trkpt lat="44.886165356539514" lon="3.180074027368192"><ele>1054.0</ele><time>2026-04-05T14:47:53.001Z</time></trkpt><trkpt lat="44.88609557292833" lon="3.180029029667546"><ele>1054.0</ele><time>2026-04-05T14:47:54.001Z</time></trkpt><trkpt lat="44.886001112325" lon="3.180055832840894"><ele>1054.0</ele><time>2026-04-05T14:47:55.001Z</time></trkpt><trkpt lat="44.88589506568451" lon="3.1800623862701323"><ele>1054.0</ele><time>2026-04-05T14:47:56.001Z</time></trkpt><trkpt lat="44.88578666761939" lon="3.1800921339283503"><ele>1054.75</ele><time>2026-04-05T14:47:57.001Z</time></trkpt><trkpt lat="44.885665106153816" lon="3.18010136107095"><ele>1055.5</ele><time>2026-04-05T14:47:58.001Z</time></trkpt><trkpt lat="44.88553545703994" lon="3.1801104071447175"><ele>1056.25</ele><time>2026-04-05T14:47:59.001Z</time></trkpt><trkpt lat="44.88539619346639" lon="3.180121004313499"><ele>1057.0</ele><time>2026-04-05T14:48:00.001Z</time></trkpt><trkpt lat="44.885255321968884" lon="3.180156967923557"><ele>1057.0</ele><time>2026-04-05T14:48:01.001Z</time></trkpt><trkpt lat="44.885116515172584" lon="3.1801742876157673"><ele>1057.0</ele><time>2026-04-05T14:48:02.001Z</time></trkpt><trkpt lat="44.88497017598116" lon="3.18021110809915"><ele>1057.0</ele><time>2026-04-05T14:48:03.001Z</time></trkpt><trkpt lat="44.88483009989768" lon="3.1802741778263033"><ele>1057.0</ele><time>2026-04-05T14:48:04.001Z</time></trkpt><trkpt lat="44.88468946439174" lon="3.18031506575585"><ele>1055.25</ele><time>2026-04-05T14:48:05.001Z</time></trkpt><trkpt lat="44.88455495245881" lon="3.1803505562130683"><ele>1053.5</ele><time>2026-04-05T14:48:06.001Z</time></trkpt><trkpt lat="44.88442046473528" lon="3.1803642162722987"><ele>1051.75</ele><time>2026-04-05T14:48:07.001Z</time></trkpt><trkpt lat="44.88429365701314" lon="3.180411463244412"><ele>1050.0</ele><time>2026-04-05T14:48:08.001Z</time></trkpt><trkpt lat="44.88417442527499" lon="3.180438302753176"><ele>1049.2</ele><time>2026-04-05T14:48:09.001Z</time></trkpt><trkpt lat="44.88406587405257" lon="3.180479946906152"><ele>1048.4</ele><time>2026-04-05T14:48:10.001Z</time></trkpt><trkpt lat="44.883974613378165" lon="3.180518425998236"><ele>1047.6</ele><time>2026-04-05T14:48:11.001Z</time></trkpt><trkpt lat="44.8838984638555" lon="3.1805514798491985"><ele>1046.8</ele><time>2026-04-05T14:48:12.001Z</time></trkpt><trkpt lat="44.883809983137226" lon="3.180601547628724"><ele>1046.0</ele><time>2026-04-05T14:48:14Z</time></trkpt><trkpt lat="44.88373423245452" lon="3.180620501241225"><ele>1046.0</ele><time>2026-04-05T14:50:17Z</time></trkpt><trkpt lat="44.883678523432806" lon="3.1804847215367613"><ele>1046.0</ele><time>2026-04-05T14:50:20Z</time></trkpt><trkpt lat="44.88364771964204" lon="3.180335828254917"><ele>1046.0</ele><time>2026-04-05T14:50:22Z</time></trkpt><trkpt lat="44.88364020266762" lon="3.1802307201739315"><ele>1046.0</ele><time>2026-04-05T14:50:23Z</time></trkpt><trkpt lat="44.883630460748236" lon="3.1801012627653367"><ele>1046.0</ele><time>2026-04-05T14:50:24Z</time></trkpt><trkpt lat="44.883624614790996" lon="3.179975812552341"><ele>1046.0</ele><time>2026-04-05T14:50:25Z</time></trkpt><trkpt lat="44.88362898640917" lon="3.1798642972383733"><ele>1046.0</ele><time>2026-04-05T14:50:26Z</time></trkpt><trkpt lat="44.88363876655719" lon="3.179769137029294"><ele>1046.0</ele><time>2026-04-05T14:50:27Z</time></trkpt><trkpt lat="44.883665547196095" lon="3.1796155254155236"><ele>1046.0</ele><time>2026-04-05T14:50:29Z</time></trkpt><trkpt lat="44.88347143579323" lon="3.1795748696488237"><ele>1045.8</ele><time>2026-04-05T14:50:32Z</time></trkpt><trkpt lat="44.88339668791854" lon="3.1796449466766057"><ele>1045.6</ele><time>2026-04-05T14:50:33Z</time></trkpt><trkpt lat="44.883314825250395" lon="3.179714040620413"><ele>1045.4</ele><time>2026-04-05T14:50:34Z</time></trkpt><trkpt lat="44.88321862253754" lon="3.1798023578621177"><ele>1045.2</ele><time>2026-04-05T14:50:35Z</time></trkpt><trkpt lat="44.88312068472394" lon="3.1798920208620314"><ele>1045.0</ele><time>2026-04-05T14:50:36Z</time></trkpt><trkpt lat="44.883021489682996" lon="3.1799873442349456"><ele>1045.0</ele><time>2026-04-05T14:50:37Z</time></trkpt><trkpt lat="44.8829185183711" lon="3.180086209964724"><ele>1045.0</ele><time>2026-04-05T14:50:38Z</time></trkpt><trkpt lat="44.88281142715405" lon="3.1801906058444724"><ele>1045.0</ele><time>2026-04-05T14:50:39Z</time></trkpt><trkpt lat="44.88270955726111" lon="3.1803017879601443"><ele>1045.0</ele><time>2026-04-05T14:50:40Z</time></trkpt><trkpt lat="44.88260570091782" lon="3.180418051509202"><ele>1044.75</ele><time>2026-04-05T14:50:41Z</time></trkpt><trkpt lat="44.88250030792007" lon="3.180529586103775"><ele>1044.5</ele><time>2026-04-05T14:50:42Z</time></trkpt><trkpt lat="44.88238825364094" lon="3.1806473665204553"><ele>1044.25</ele><time>2026-04-05T14:50:43Z</time></trkpt><trkpt lat="44.8822823556552" lon="3.180755388379123"><ele>1044.0</ele><time>2026-04-05T14:50:44Z</time></trkpt><trkpt lat="44.8821674622163" lon="3.1808658431598964"><ele>1044.0</ele><time>2026-04-05T14:50:45Z</time></trkpt><trkpt lat="44.88205435350949" lon="3.180978219784464"><ele>1044.0</ele><time>2026-04-05T14:50:46Z</time></trkpt><trkpt lat="44.88193596915341" lon="3.181089200501075"><ele>1044.0</ele><time>2026-04-05T14:50:47Z</time></trkpt><trkpt lat="44.881809140881735" lon="3.1811870669360003"><ele>1044.0</ele><time>2026-04-05T14:50:48Z</time></trkpt><trkpt lat="44.88167339783325" lon="3.18122714727253"><ele>1045.5</ele><time>2026-04-05T14:50:49Z</time></trkpt><trkpt lat="44.8815420436827" lon="3.1812726068591672"><ele>1047.0</ele><time>2026-04-05T14:50:50Z</time></trkpt><trkpt lat="44.881415617759636" lon="3.181326736935443"><ele>1048.5</ele><time>2026-04-05T14:50:51Z</time></trkpt><trkpt lat="44.88129188830149" lon="3.1813646403936273"><ele>1050.0</ele><time>2026-04-05T14:50:52Z</time></trkpt><trkpt lat="44.881189095025164" lon="3.1813969933143684"><ele>1050.0</ele><time>2026-04-05T14:50:53Z</time></trkpt><trkpt lat="44.88109404091623" lon="3.181419694662412"><ele>1050.0</ele><time>2026-04-05T14:50:54Z</time></trkpt><trkpt lat="44.880992318970144" lon="3.1814354941133316"><ele>1050.0</ele><time>2026-04-05T14:50:55Z</time></trkpt><trkpt lat="44.88089516173232" lon="3.181446458193787"><ele>1050.0</ele><time>2026-04-05T14:50:56Z</time></trkpt><trkpt lat="44.880812194479105" lon="3.181462597884551"><ele>1050.0</ele><time>2026-04-05T14:50:57Z</time></trkpt><trkpt lat="44.88074003406751" lon="3.1814492209126723"><ele>1049.5</ele><time>2026-04-05T14:50:58Z</time></trkpt><trkpt lat="44.880687779227095" lon="3.1816583892395442"><ele>1049.0</ele><time>2026-04-05T14:51:00Z</time></trkpt><trkpt lat="44.88067576222399" lon="3.1817951945876732"><ele>1048.5</ele><time>2026-04-05T14:51:01Z</time></trkpt><trkpt lat="44.880662228826424" lon="3.181967539982946"><ele>1048.0</ele><time>2026-04-05T14:51:02Z</time></trkpt><trkpt lat="44.880614729085764" lon="3.1821398513524786"><ele>1048.0</ele><time>2026-04-05T14:51:03Z</time></trkpt><trkpt lat="44.880556877557794" lon="3.1823139720544833"><ele>1048.0</ele><time>2026-04-05T14:51:04Z</time></trkpt><trkpt lat="44.88046977678168" lon="3.1824838690870703"><ele>1048.0</ele><time>2026-04-05T14:51:05Z</time></trkpt><trkpt lat="44.88041354782497" lon="3.18265893229413"><ele>1048.0</ele><time>2026-04-05T14:51:06Z</time></trkpt><trkpt lat="44.88037605701904" lon="3.1828286273949726"><ele>1047.0</ele><time>2026-04-05T14:51:07Z</time></trkpt><trkpt lat="44.88037537367972" lon="3.183032638964768"><ele>1046.0</ele><time>2026-04-05T14:51:08Z</time></trkpt><trkpt lat="44.88038524239449" lon="3.183245825173816"><ele>1045.0</ele><time>2026-04-05T14:51:09Z</time></trkpt><trkpt lat="44.88042391032227" lon="3.183448937647598"><ele>1044.0</ele><time>2026-04-05T14:51:10Z</time></trkpt><trkpt lat="44.8804711337887" lon="3.183675911457262"><ele>1044.0</ele><time>2026-04-05T14:51:11Z</time></trkpt><trkpt lat="44.88046355437511" lon="3.1838429377645583"><ele>1044.0</ele><time>2026-04-05T14:51:12Z</time></trkpt><trkpt lat="44.88044724357302" lon="3.183983008055521"><ele>1044.0</ele><time>2026-04-05T14:51:12.999Z</time></trkpt><trkpt lat="44.88041906110231" lon="3.1841111155332436"><ele>1044.0</ele><time>2026-04-05T14:51:13.999Z</time></trkpt><trkpt lat="44.8803740616634" lon="3.1842358832191135"><ele>1044.0</ele><time>2026-04-05T14:51:14.999Z</time></trkpt><trkpt lat="44.88031703668349" lon="3.1843494887484005"><ele>1045.0</ele><time>2026-04-05T14:51:15.999Z</time></trkpt><trkpt lat="44.880248754450456" lon="3.1844601010212146"><ele>1046.0</ele><time>2026-04-05T14:51:16.999Z</time></trkpt><trkpt lat="44.880166987579535" lon="3.1845860699017803"><ele>1047.0</ele><time>2026-04-05T14:51:17.999Z</time></trkpt><trkpt lat="44.88009124942591" lon="3.1847416472659575"><ele>1048.0</ele><time>2026-04-05T14:51:18.999Z</time></trkpt><trkpt lat="44.87998965875921" lon="3.1848784813024076"><ele>1050.5</ele><time>2026-04-05T14:51:19.999Z</time></trkpt><trkpt lat="44.87988771927164" lon="3.18501746639654"><ele>1053.0</ele><time>2026-04-05T14:51:20.999Z</time></trkpt><trkpt lat="44.87978319200698" lon="3.1851680364970973"><ele>1055.5</ele><time>2026-04-05T14:51:21.999Z</time></trkpt><trkpt lat="44.879699008177774" lon="3.1853119399470007"><ele>1058.0</ele><time>2026-04-05T14:51:22.999Z</time></trkpt><trkpt lat="44.879651777764046" lon="3.185458085005262"><ele>1058.0</ele><time>2026-04-05T14:51:23.999Z</time></trkpt><trkpt lat="44.87962745034727" lon="3.18561198679528"><ele>1058.0</ele><time>2026-04-05T14:51:24.999Z</time></trkpt><trkpt lat="44.87960584781677" lon="3.1857768828816844"><ele>1058.0</ele><time>2026-04-05T14:51:25.999Z</time></trkpt><trkpt lat="44.87956978191887" lon="3.185948866243342"><ele>1058.0</ele><time>2026-04-05T14:51:26.999Z</time></trkpt><trkpt lat="44.87953616744319" lon="3.186126248124391"><ele>1057.25</ele><time>2026-04-05T14:51:27.999Z</time></trkpt><trkpt lat="44.87950013263141" lon="3.186318711524688"><ele>1056.5</ele><time>2026-04-05T14:51:28.999Z</time></trkpt><trkpt lat="44.87945431664539" lon="3.186473468347257"><ele>1055.75</ele><time>2026-04-05T14:51:29.999Z</time></trkpt><trkpt lat="44.879400397963934" lon="3.186626705035321"><ele>1055.0</ele><time>2026-04-05T14:51:30.999Z</time></trkpt><trkpt lat="44.879365110884805" lon="3.186761281799749"><ele>1056.25</ele><time>2026-04-05T14:51:31.999Z</time></trkpt><trkpt lat="44.8793215099558" lon="3.1868727642329433"><ele>1057.5</ele><time>2026-04-05T14:51:32.999Z</time></trkpt><trkpt lat="44.87924571399984" lon="3.186979564121864"><ele>1058.75</ele><time>2026-04-05T14:51:33.999Z</time></trkpt><trkpt lat="44.87914351308211" lon="3.1870927492959815"><ele>1060.0</ele><time>2026-04-05T14:51:34.999Z</time></trkpt><trkpt lat="44.87901489465359" lon="3.187174753068239"><ele>1060.0</ele><time>2026-04-05T14:51:35.999Z</time></trkpt><trkpt lat="44.87890103802358" lon="3.1872978531531504"><ele>1060.0</ele><time>2026-04-05T14:51:36.999Z</time></trkpt><trkpt lat="44.87880851398116" lon="3.1874467878531934"><ele>1060.0</ele><time>2026-04-05T14:51:37.999Z</time></trkpt><trkpt lat="44.878714038041515" lon="3.1875873239265284"><ele>1060.0</ele><time>2026-04-05T14:51:38.999Z</time></trkpt><trkpt lat="44.87865301455735" lon="3.1877164342886344"><ele>1058.0</ele><time>2026-04-05T14:51:39.999Z</time></trkpt><trkpt lat="44.87861122505779" lon="3.1878499813973575"><ele>1056.0</ele><time>2026-04-05T14:51:40.999Z</time></trkpt><trkpt lat="44.87858720549605" lon="3.1879770847776028"><ele>1054.0</ele><time>2026-04-05T14:51:41.999Z</time></trkpt><trkpt lat="44.87857251858764" lon="3.18813599884416"><ele>1052.0</ele><time>2026-04-05T14:51:42.999Z</time></trkpt><trkpt lat="44.87857805153896" lon="3.188295062946428"><ele>1050.0</ele><time>2026-04-05T14:51:43.999Z</time></trkpt><trkpt lat="44.878587251164596" lon="3.1884637266909506"><ele>1050.5</ele><time>2026-04-05T14:51:44.999Z</time></trkpt><trkpt lat="44.87861186929135" lon="3.1885975234551265"><ele>1051.0</ele><time>2026-04-05T14:51:45.999Z</time></trkpt><trkpt lat="44.878622489635006" lon="3.188689730398868"><ele>1051.5</ele><time>2026-04-05T14:51:46.999Z</time></trkpt><trkpt lat="44.878554637154465" lon="3.1887622885361204"><ele>1052.0</ele><time>2026-04-05T14:51:47.999Z</time></trkpt><trkpt lat="44.87851509783426" lon="3.188872692135476"><ele>1052.5</ele><time>2026-04-05T14:51:48.999Z</time></trkpt><trkpt lat="44.87843926547656" lon="3.1889640255062424"><ele>1053.0</ele><time>2026-04-05T14:51:49.999Z</time></trkpt><trkpt lat="44.8783884418876" lon="3.1890861798821084"><ele>1053.0</ele><time>2026-04-05T14:51:50.999Z</time></trkpt><trkpt lat="44.87835036402495" lon="3.1892150704223976"><ele>1053.0</ele><time>2026-04-05T14:51:51.999Z</time></trkpt><trkpt lat="44.8783089877523" lon="3.189325504721426"><ele>1053.0</ele><time>2026-04-05T14:51:52.999Z</time></trkpt><trkpt lat="44.87826385435239" lon="3.1894256291441505"><ele>1053.0</ele><time>2026-04-05T14:51:53.999Z</time></trkpt><trkpt lat="44.87823024434074" lon="3.189518646818938"><ele>1053.0</ele><time>2026-04-05T14:51:54.999Z</time></trkpt><trkpt lat="44.87819931466775" lon="3.1896021006632376"><ele>1053.0</ele><time>2026-04-05T14:51:55.999Z</time></trkpt><trkpt lat="44.87816584862051" lon="3.189689231658535"><ele>1053.0</ele><time>2026-04-05T14:51:56.999Z</time></trkpt><trkpt lat="44.87812554812649" lon="3.189777897258586"><ele>1053.0</ele><time>2026-04-05T14:51:58Z</time></trkpt><trkpt lat="44.878072812570636" lon="3.1898560618850116"><ele>1053.0</ele><time>2026-04-05T14:51:59Z</time></trkpt><trkpt lat="44.87803489841812" lon="3.18994635743273"><ele>1053.0</ele><time>2026-04-05T14:52:00Z</time></trkpt><trkpt lat="44.87799622374934" lon="3.1900444310328155"><ele>1053.0</ele><time>2026-04-05T14:52:01Z</time></trkpt><trkpt lat="44.87796755225617" lon="3.190144705577968"><ele>1053.0</ele><time>2026-04-05T14:52:02Z</time></trkpt><trkpt lat="44.877925557431304" lon="3.190312060100235"><ele>1052.1666666666667</ele><time>2026-04-05T14:52:04Z</time></trkpt><trkpt lat="44.87795632030815" lon="3.190432493638406"><ele>1051.3333333333333</ele><time>2026-04-05T14:52:05Z</time></trkpt><trkpt lat="44.87793561635963" lon="3.190519531828968"><ele>1050.5</ele><time>2026-04-05T14:52:06Z</time></trkpt><trkpt lat="44.87791487066557" lon="3.1906069275685907"><ele>1049.6666666666665</ele><time>2026-04-05T14:52:07Z</time></trkpt><trkpt lat="44.877807553727855" lon="3.1906394127877906"><ele>1048.8333333333333</ele><time>2026-04-05T14:52:09Z</time></trkpt><trkpt lat="44.87774269867973" lon="3.190654773986016"><ele>1048.0</ele><time>2026-04-05T14:52:10Z</time></trkpt><trkpt lat="44.87767210474967" lon="3.1906431385389378"><ele>1048.0</ele><time>2026-04-05T14:52:11Z</time></trkpt><trkpt lat="44.87760454629908" lon="3.1906405560781654"><ele>1048.0</ele><time>2026-04-05T14:52:12Z</time></trkpt><trkpt lat="44.877528375837194" lon="3.1906376444204807"><ele>1048.0</ele><time>2026-04-05T14:52:13Z</time></trkpt><trkpt lat="44.87745359569283" lon="3.190634980623861"><ele>1048.0</ele><time>2026-04-05T14:52:14Z</time></trkpt><trkpt lat="44.87735552715986" lon="3.190633615046738"><ele>1048.0</ele><time>2026-04-05T14:52:16Z</time></trkpt><trkpt lat="44.87728518877092" lon="3.1906326356078702"><ele>1048.0</ele><time>2026-04-05T14:52:19Z</time></trkpt><trkpt lat="44.87729473570784" lon="3.1905163792720534"><ele>1049.3333333333333</ele><time>2026-04-05T14:52:20Z</time></trkpt><trkpt lat="44.87733907714381" lon="3.1904020573231935"><ele>1050.6666666666665</ele><time>2026-04-05T14:52:22Z</time></trkpt><trkpt lat="44.87738711405121" lon="3.190292929262898"><ele>1052.0</ele><time>2026-04-05T14:52:24Z</time></trkpt><trkpt lat="44.87729242878226" lon="3.1902424999426393"><ele>1053.3333333333333</ele><time>2026-04-05T14:52:28Z</time></trkpt><trkpt lat="44.87722886428301" lon="3.1902610420704325"><ele>1054.6666666666667</ele><time>2026-04-05T14:52:29Z</time></trkpt><trkpt lat="44.8771649924349" lon="3.190264813722489"><ele>1056.0</ele><time>2026-04-05T14:52:30Z</time></trkpt><trkpt lat="44.87710094821688" lon="3.1902415393343344"><ele>1056.0</ele><time>2026-04-05T14:52:31Z</time></trkpt><trkpt lat="44.877034418080186" lon="3.1901894050271125"><ele>1056.0</ele><time>2026-04-05T14:52:32Z</time></trkpt><trkpt lat="44.87696065611842" lon="3.1901131197913286"><ele>1056.0</ele><time>2026-04-05T14:52:33Z</time></trkpt><trkpt lat="44.87687936673768" lon="3.1900511679172023"><ele>1056.0</ele><time>2026-04-05T14:52:34Z</time></trkpt><trkpt lat="44.87678491339543" lon="3.1900253585896925"><ele>1056.0</ele><time>2026-04-05T14:52:35Z</time></trkpt><trkpt lat="44.87669149550511" lon="3.1900188514853673"><ele>1057.0</ele><time>2026-04-05T14:52:36Z</time></trkpt><trkpt lat="44.87658932470844" lon="3.190042736687895"><ele>1058.0</ele><time>2026-04-05T14:52:37Z</time></trkpt><trkpt lat="44.87648974489532" lon="3.1900841166341207"><ele>1059.0</ele><time>2026-04-05T14:52:38Z</time></trkpt><trkpt lat="44.876390593829996" lon="3.190138676870947"><ele>1060.0</ele><time>2026-04-05T14:52:39Z</time></trkpt><trkpt lat="44.87629292938737" lon="3.1901889003880455"><ele>1061.0</ele><time>2026-04-05T14:52:40Z</time></trkpt><trkpt lat="44.876189169456936" lon="3.190209646289582"><ele>1061.0</ele><time>2026-04-05T14:52:41Z</time></trkpt><trkpt lat="44.87607602317611" lon="3.1902037605156517"><ele>1061.0</ele><time>2026-04-05T14:52:42Z</time></trkpt><trkpt lat="44.87596357548369" lon="3.1901828880890872"><ele>1061.0</ele><time>2026-04-05T14:52:43Z</time></trkpt><trkpt lat="44.87585856287261" lon="3.1901640008960106"><ele>1061.0</ele><time>2026-04-05T14:52:44Z</time></trkpt><trkpt lat="44.87575101451887" lon="3.190148127017826"><ele>1061.0</ele><time>2026-04-05T14:52:45Z</time></trkpt><trkpt lat="44.875641013906524" lon="3.1901358444079064"><ele>1062.6</ele><time>2026-04-05T14:52:46Z</time></trkpt><trkpt lat="44.87553176417223" lon="3.1901057558392094"><ele>1064.1999999999998</ele><time>2026-04-05T14:52:47Z</time></trkpt><trkpt lat="44.87543084738502" lon="3.1900605847994035"><ele>1065.8000000000002</ele><time>2026-04-05T14:52:48Z</time></trkpt><trkpt lat="44.87534705581627" lon="3.1899783197515044"><ele>1067.4</ele><time>2026-04-05T14:52:49Z</time></trkpt><trkpt lat="44.875273947702894" lon="3.189869433362997"><ele>1069.0</ele><time>2026-04-05T14:52:50Z</time></trkpt><trkpt lat="44.875212572489836" lon="3.1897493270015462"><ele>1069.75</ele><time>2026-04-05T14:52:51Z</time></trkpt><trkpt lat="44.875147456753574" lon="3.1896236295288682"><ele>1070.5</ele><time>2026-04-05T14:52:52Z</time></trkpt><trkpt lat="44.875079078392275" lon="3.189492381846474"><ele>1071.25</ele><time>2026-04-05T14:52:53Z</time></trkpt><trkpt lat="44.87500975663096" lon="3.189358822841101"><ele>1072.0</ele><time>2026-04-05T14:52:54Z</time></trkpt><trkpt lat="44.874942036412506" lon="3.18922918435589"><ele>1072.2</ele><time>2026-04-05T14:52:55Z</time></trkpt><trkpt lat="44.874874807835695" lon="3.189101266068433"><ele>1072.4</ele><time>2026-04-05T14:52:56Z</time></trkpt><trkpt lat="44.874808463026" lon="3.188978165753581"><ele>1072.6</ele><time>2026-04-05T14:52:57Z</time></trkpt><trkpt lat="44.87474407853071" lon="3.1888579405443465"><ele>1072.8</ele><time>2026-04-05T14:52:58Z</time></trkpt><trkpt lat="44.874685107037216" lon="3.1887441885190357"><ele>1073.0</ele><time>2026-04-05T14:52:59Z</time></trkpt><trkpt lat="44.87462877778558" lon="3.1886338952776963"><ele>1073.2</ele><time>2026-04-05T14:53:00Z</time></trkpt><trkpt lat="44.874576911645" lon="3.1885212006780814"><ele>1073.4</ele><time>2026-04-05T14:53:01Z</time></trkpt><trkpt lat="44.874532096709025" lon="3.1884039878382247"><ele>1073.6000000000001</ele><time>2026-04-05T14:53:02Z</time></trkpt><trkpt lat="44.87449414521334" lon="3.1882779537432517"><ele>1073.8</ele><time>2026-04-05T14:53:03Z</time></trkpt><trkpt lat="44.87445777080998" lon="3.1881448862470743"><ele>1074.0</ele><time>2026-04-05T14:53:04Z</time></trkpt><trkpt lat="44.87442163503005" lon="3.188021235499592"><ele>1073.4</ele><time>2026-04-05T14:53:05Z</time></trkpt><trkpt lat="44.87438962479692" lon="3.1879106609194876"><ele>1072.8000000000002</ele><time>2026-04-05T14:53:06Z</time></trkpt><trkpt lat="44.8743585430696" lon="3.1878166251478546"><ele>1072.1999999999998</ele><time>2026-04-05T14:53:07Z</time></trkpt><trkpt lat="44.87429304454261" lon="3.1876812444937372"><ele>1071.6</ele><time>2026-04-05T14:53:09Z</time></trkpt><trkpt lat="44.874210216605434" lon="3.187596549823176"><ele>1071.0</ele><time>2026-04-05T14:53:10.999Z</time></trkpt><trkpt lat="44.87411785076912" lon="3.187550502658559"><ele>1071.0</ele><time>2026-04-05T14:53:12.999Z</time></trkpt><trkpt lat="44.87403790617248" lon="3.187727237959343"><ele>1071.0</ele><time>2026-04-05T14:53:13.999Z</time></trkpt><trkpt lat="44.87397202942217" lon="3.187854102357779"><ele>1071.0</ele><time>2026-04-05T14:53:14.999Z</time></trkpt><trkpt lat="44.873910280682885" lon="3.1879997259651423"><ele>1071.0</ele><time>2026-04-05T14:53:15.999Z</time></trkpt><trkpt lat="44.873849841831024" lon="3.188159840753682"><ele>1071.5</ele><time>2026-04-05T14:53:16.999Z</time></trkpt><trkpt lat="44.8737774590804" lon="3.1883187232102888"><ele>1072.0</ele><time>2026-04-05T14:53:17.999Z</time></trkpt><trkpt lat="44.873697503920404" lon="3.1884693371236503"><ele>1072.5</ele><time>2026-04-05T14:53:18.999Z</time></trkpt><trkpt lat="44.87360864649976" lon="3.1886140641392005"><ele>1073.0</ele><time>2026-04-05T14:53:19.999Z</time></trkpt><trkpt lat="44.873496387056186" lon="3.1887303443358173"><ele>1072.75</ele><time>2026-04-05T14:53:20.999Z</time></trkpt><trkpt lat="44.87338979971528" lon="3.1888695622824565"><ele>1072.5</ele><time>2026-04-05T14:53:21.999Z</time></trkpt><trkpt lat="44.873302982495375" lon="3.1890347414275615"><ele>1072.25</ele><time>2026-04-05T14:53:22.999Z</time></trkpt><trkpt lat="44.873203209181355" lon="3.189206652745858"><ele>1072.0</ele><time>2026-04-05T14:53:23.999Z</time></trkpt><trkpt lat="44.873127196372316" lon="3.1893894019104088"><ele>1072.0</ele><time>2026-04-05T14:53:24.999Z</time></trkpt><trkpt lat="44.87305366435134" lon="3.189578180649819"><ele>1072.0</ele><time>2026-04-05T14:53:25.999Z</time></trkpt><trkpt lat="44.87295901699125" lon="3.1897505206221304"><ele>1072.0</ele><time>2026-04-05T14:53:26.999Z</time></trkpt><trkpt lat="44.87289255890092" lon="3.1899410579556196"><ele>1071.75</ele><time>2026-04-05T14:53:27.999Z</time></trkpt><trkpt lat="44.87279932325787" lon="3.1901095040867222"><ele>1071.5</ele><time>2026-04-05T14:53:28.999Z</time></trkpt><trkpt lat="44.87269649793" lon="3.1902436237344274"><ele>1071.25</ele><time>2026-04-05T14:53:29.999Z</time></trkpt><trkpt lat="44.87258086387193" lon="3.190364017879023"><ele>1071.0</ele><time>2026-04-05T14:53:30.999Z</time></trkpt><trkpt lat="44.872460659527384" lon="3.1904506468903304"><ele>1072.0</ele><time>2026-04-05T14:53:31.999Z</time></trkpt><trkpt lat="44.87233760699738" lon="3.1905371732805072"><ele>1073.0</ele><time>2026-04-05T14:53:32.999Z</time></trkpt><trkpt lat="44.87222581144041" lon="3.19062177786884"><ele>1074.0</ele><time>2026-04-05T14:53:33.999Z</time></trkpt><trkpt lat="44.87211176690654" lon="3.19071510587865"><ele>1075.0</ele><time>2026-04-05T14:53:34.999Z</time></trkpt><trkpt lat="44.87200197604959" lon="3.1908122798703085"><ele>1076.0</ele><time>2026-04-05T14:53:35.999Z</time></trkpt><trkpt lat="44.87189151669405" lon="3.190911061093096"><ele>1077.0</ele><time>2026-04-05T14:53:36.999Z</time></trkpt><trkpt lat="44.87177493300424" lon="3.191003287317475"><ele>1078.0</ele><time>2026-04-05T14:53:37.999Z</time></trkpt><trkpt lat="44.871645341375995" lon="3.1910802386700445"><ele>1079.0</ele><time>2026-04-05T14:53:38.999Z</time></trkpt><trkpt lat="44.87151829713845" lon="3.1911465781696116"><ele>1080.0</ele><time>2026-04-05T14:53:39.999Z</time></trkpt><trkpt lat="44.871385930916674" lon="3.1912198390324793"><ele>1081.0</ele><time>2026-04-05T14:53:40.999Z</time></trkpt><trkpt lat="44.871250032867025" lon="3.1913127475220744"><ele>1082.0</ele><time>2026-04-05T14:53:41.999Z</time></trkpt><trkpt lat="44.871122729226904" lon="3.191419299090595"><ele>1083.0</ele><time>2026-04-05T14:53:42.999Z</time></trkpt><trkpt lat="44.87099188678605" lon="3.191540839347486"><ele>1083.6666666666667</ele><time>2026-04-05T14:53:43.999Z</time></trkpt><trkpt lat="44.87085701304675" lon="3.191667095738335"><ele>1084.3333333333335</ele><time>2026-04-05T14:53:44.999Z</time></trkpt><trkpt lat="44.87072196523525" lon="3.1917901229568226"><ele>1085.0</ele><time>2026-04-05T14:53:45.999Z</time></trkpt><trkpt lat="44.87058825208813" lon="3.1919038828946653"><ele>1085.0</ele><time>2026-04-05T14:53:46.999Z</time></trkpt><trkpt lat="44.870461787924086" lon="3.192002637434961"><ele>1085.0</ele><time>2026-04-05T14:53:47.999Z</time></trkpt><trkpt lat="44.87034513936899" lon="3.1920823117312405"><ele>1085.0</ele><time>2026-04-05T14:53:48.999Z</time></trkpt><trkpt lat="44.870233817499795" lon="3.192139294992727"><ele>1085.0</ele><time>2026-04-05T14:53:49.999Z</time></trkpt><trkpt lat="44.87012126503962" lon="3.192179564578685"><ele>1085.4</ele><time>2026-04-05T14:53:50.999Z</time></trkpt><trkpt lat="44.8700023426943" lon="3.192210102646333"><ele>1085.8</ele><time>2026-04-05T14:53:51.999Z</time></trkpt><trkpt lat="44.86989068093771" lon="3.1922379064030535"><ele>1086.2</ele><time>2026-04-05T14:53:52.999Z</time></trkpt><trkpt lat="44.869787758512295" lon="3.1922606813674945"><ele>1086.6</ele><time>2026-04-05T14:53:53.999Z</time></trkpt><trkpt lat="44.869695032490455" lon="3.192284556058044"><ele>1087.0</ele><time>2026-04-05T14:53:54.999Z</time></trkpt><trkpt lat="44.86959730835126" lon="3.1923106388032805"><ele>1087.0</ele><time>2026-04-05T14:53:55.999Z</time></trkpt><trkpt lat="44.86950531522379" lon="3.1923359761266386"><ele>1087.0</ele><time>2026-04-05T14:53:56.999Z</time></trkpt><trkpt lat="44.869428864509885" lon="3.1923455998785224"><ele>1087.0</ele><time>2026-04-05T14:53:57.999Z</time></trkpt><trkpt lat="44.86933993758177" lon="3.1922818618105957"><ele>1087.0</ele><time>2026-04-05T14:53:59.999Z</time></trkpt><trkpt lat="44.869286729888096" lon="3.192086324227752"><ele>1087.0</ele><time>2026-04-05T14:54:01.999Z</time></trkpt><trkpt lat="44.86925204981929" lon="3.1919422413312857"><ele>1087.0</ele><time>2026-04-05T14:54:02.999Z</time></trkpt><trkpt lat="44.86920610880733" lon="3.1917711659374333"><ele>1087.0</ele><time>2026-04-05T14:54:04Z</time></trkpt><trkpt lat="44.86916372510398" lon="3.1915735227661606"><ele>1087.0</ele><time>2026-04-05T14:54:05Z</time></trkpt><trkpt lat="44.86911124598071" lon="3.1913793549105702"><ele>1087.0</ele><time>2026-04-05T14:54:06Z</time></trkpt><trkpt lat="44.86905125322165" lon="3.1911793691520405"><ele>1087.5</ele><time>2026-04-05T14:54:07Z</time></trkpt><trkpt lat="44.868993621804734" lon="3.1909914500381644"><ele>1088.0</ele><time>2026-04-05T14:54:08Z</time></trkpt><trkpt lat="44.86893002853648" lon="3.190804324787679"><ele>1088.5</ele><time>2026-04-05T14:54:09Z</time></trkpt><trkpt lat="44.86886233687819" lon="3.190630855145974"><ele>1089.0</ele><time>2026-04-05T14:54:10Z</time></trkpt><trkpt lat="44.86877989745655" lon="3.190485902642091"><ele>1088.25</ele><time>2026-04-05T14:54:11Z</time></trkpt><trkpt lat="44.868692282262366" lon="3.1903635454777044"><ele>1087.5</ele><time>2026-04-05T14:54:12Z</time></trkpt><trkpt lat="44.86860196443327" lon="3.190234487212296"><ele>1086.75</ele><time>2026-04-05T14:54:13Z</time></trkpt><trkpt lat="44.868514827427724" lon="3.19009779789192"><ele>1086.0</ele><time>2026-04-05T14:54:14Z</time></trkpt><trkpt lat="44.86844103411064" lon="3.1899654186899045"><ele>1084.3999999999999</ele><time>2026-04-05T14:54:15Z</time></trkpt><trkpt lat="44.86837316071786" lon="3.1898203812196693"><ele>1082.8</ele><time>2026-04-05T14:54:16Z</time></trkpt><trkpt lat="44.8683081511292" lon="3.1896599243058357"><ele>1081.1999999999998</ele><time>2026-04-05T14:54:17Z</time></trkpt><trkpt lat="44.86826791672095" lon="3.1895367559548347"><ele>1079.6</ele><time>2026-04-05T14:54:18Z</time></trkpt><trkpt lat="44.868271572292606" lon="3.1894111180284597"><ele>1078.0</ele><time>2026-04-05T14:54:20Z</time></trkpt><trkpt lat="44.86824303173776" lon="3.1893087802404603"><ele>1078.0</ele><time>2026-04-05T14:54:22Z</time></trkpt><trkpt lat="44.86818476456731" lon="3.189152103227004"><ele>1078.0</ele><time>2026-04-05T14:54:24Z</time></trkpt><trkpt lat="44.86813626421826" lon="3.1890518278146494"><ele>1078.0</ele><time>2026-04-05T14:54:25Z</time></trkpt><trkpt lat="44.86808631510941" lon="3.1889426680970367"><ele>1078.0</ele><time>2026-04-05T14:54:26Z</time></trkpt><trkpt lat="44.86804121296913" lon="3.1888135262075457"><ele>1078.0</ele><time>2026-04-05T14:54:27Z</time></trkpt><trkpt lat="44.86800674366979" lon="3.1887137267683006"><ele>1077.0</ele><time>2026-04-05T14:54:28Z</time></trkpt><trkpt lat="44.867969222453155" lon="3.18862264097021"><ele>1076.0</ele><time>2026-04-05T14:54:29Z</time></trkpt><trkpt lat="44.867856898164675" lon="3.188494496173838"><ele>1075.0</ele><time>2026-04-05T14:54:31Z</time></trkpt><trkpt lat="44.86777139259229" lon="3.1884410861612844"><ele>1074.0</ele><time>2026-04-05T14:54:32Z</time></trkpt><trkpt lat="44.86769519011778" lon="3.1883854826619498"><ele>1073.0</ele><time>2026-04-05T14:54:33Z</time></trkpt><trkpt lat="44.867630702407766" lon="3.188305462614281"><ele>1071.6</ele><time>2026-04-05T14:54:34Z</time></trkpt><trkpt lat="44.8675764806819" lon="3.1881762030573353"><ele>1070.1999999999998</ele><time>2026-04-05T14:54:35Z</time></trkpt><trkpt lat="44.86755062662877" lon="3.1880694184003704"><ele>1068.8</ele><time>2026-04-05T14:54:36Z</time></trkpt><trkpt lat="44.867555837032086" lon="3.1879424994372094"><ele>1067.3999999999999</ele><time>2026-04-05T14:54:37Z</time></trkpt><trkpt lat="44.867549795453236" lon="3.187817931630583"><ele>1066.0</ele><time>2026-04-05T14:54:38Z</time></trkpt><trkpt lat="44.8675512789941" lon="3.1876930737667197"><ele>1066.0</ele><time>2026-04-05T14:54:39Z</time></trkpt><trkpt lat="44.86755785171556" lon="3.1875637656374156"><ele>1066.0</ele><time>2026-04-05T14:54:40Z</time></trkpt><trkpt lat="44.8675492522015" lon="3.187405781510508"><ele>1066.0</ele><time>2026-04-05T14:54:42Z</time></trkpt><trkpt lat="44.86744371872659" lon="3.1873288830056556"><ele>1066.0</ele><time>2026-04-05T14:54:44Z</time></trkpt><trkpt lat="44.86734087328345" lon="3.1873157431817694"><ele>1066.0</ele><time>2026-04-05T14:54:45Z</time></trkpt><trkpt lat="44.867228638960235" lon="3.187318797637612"><ele>1063.25</ele><time>2026-04-05T14:54:46Z</time></trkpt><trkpt lat="44.86715524279079" lon="3.187312244870219"><ele>1060.5</ele><time>2026-04-05T14:54:47Z</time></trkpt><trkpt lat="44.86703788754796" lon="3.1872887035628925"><ele>1057.75</ele><time>2026-04-05T14:54:49Z</time></trkpt><trkpt lat="44.86688619747072" lon="3.187263296493673"><ele>1055.0</ele><time>2026-04-05T14:54:51Z</time></trkpt><trkpt lat="44.8667848411586" lon="3.1872243499779755"><ele>1054.5</ele><time>2026-04-05T14:54:52Z</time></trkpt><trkpt lat="44.866704619386454" lon="3.1871717790316656"><ele>1054.0</ele><time>2026-04-05T14:54:53Z</time></trkpt><trkpt lat="44.86664632072087" lon="3.1871185443145404"><ele>1053.5</ele><time>2026-04-05T14:54:54Z</time></trkpt><trkpt lat="44.86657681859597" lon="3.187096076419907"><ele>1053.0</ele><time>2026-04-05T14:54:56Z</time></trkpt><trkpt lat="44.86653554561163" lon="3.1872073785911437"><ele>1052.5</ele><time>2026-04-05T14:54:58Z</time></trkpt><trkpt lat="44.86649345043779" lon="3.187346813536604"><ele>1052.0</ele><time>2026-04-05T14:54:59Z</time></trkpt><trkpt lat="44.8664332405872" lon="3.1874977187900067"><ele>1054.25</ele><time>2026-04-05T14:55:00Z</time></trkpt><trkpt lat="44.86636661337031" lon="3.187660854636732"><ele>1056.5</ele><time>2026-04-05T14:55:01Z</time></trkpt><trkpt lat="44.866304268475794" lon="3.187806540814735"><ele>1058.75</ele><time>2026-04-05T14:55:02Z</time></trkpt><trkpt lat="44.86624523504578" lon="3.187934082574647"><ele>1061.0</ele><time>2026-04-05T14:55:03Z</time></trkpt><trkpt lat="44.86618605720411" lon="3.188038114800483"><ele>1061.0</ele><time>2026-04-05T14:55:04Z</time></trkpt><trkpt lat="44.866112797018644" lon="3.188138271269247"><ele>1061.0</ele><time>2026-04-05T14:55:05Z</time></trkpt><trkpt lat="44.86606072653549" lon="3.188248381671495"><ele>1061.0</ele><time>2026-04-05T14:55:06Z</time></trkpt><trkpt lat="44.86602028122612" lon="3.188407861881317"><ele>1061.0</ele><time>2026-04-05T14:55:07Z</time></trkpt><trkpt lat="44.86598131466681" lon="3.188573469322946"><ele>1061.0</ele><time>2026-04-05T14:55:08Z</time></trkpt><trkpt lat="44.86596517298517" lon="3.188736076002724"><ele>1062.6</ele><time>2026-04-05T14:55:08.999Z</time></trkpt><trkpt lat="44.86597342024968" lon="3.1888751387684664"><ele>1064.1999999999998</ele><time>2026-04-05T14:55:09.999Z</time></trkpt><trkpt lat="44.865995371052314" lon="3.1890425506153894"><ele>1065.8000000000002</ele><time>2026-04-05T14:55:10.999Z</time></trkpt><trkpt lat="44.86600554746229" lon="3.1892309992067944"><ele>1067.4</ele><time>2026-04-05T14:55:11.999Z</time></trkpt><trkpt lat="44.86599408936957" lon="3.189351267356525"><ele>1069.0</ele><time>2026-04-05T14:55:12.999Z</time></trkpt><trkpt lat="44.865949418898744" lon="3.1894593912494726"><ele>1068.0</ele><time>2026-04-05T14:55:13.999Z</time></trkpt><trkpt lat="44.86588305606154" lon="3.1895539169729132"><ele>1067.0</ele><time>2026-04-05T14:55:14.999Z</time></trkpt><trkpt lat="44.86579414415683" lon="3.189643092033293"><ele>1066.0</ele><time>2026-04-05T14:55:15.999Z</time></trkpt><trkpt lat="44.865691547681116" lon="3.1897675379232098"><ele>1065.0</ele><time>2026-04-05T14:55:16.999Z</time></trkpt><trkpt lat="44.86560216726182" lon="3.1899526710152415"><ele>1067.25</ele><time>2026-04-05T14:55:17.999Z</time></trkpt><trkpt lat="44.86552869559157" lon="3.190151363384332"><ele>1069.5</ele><time>2026-04-05T14:55:18.999Z</time></trkpt><trkpt lat="44.865445595425975" lon="3.1902745819374534"><ele>1071.75</ele><time>2026-04-05T14:55:19.999Z</time></trkpt><trkpt lat="44.86534864125942" lon="3.1903438561187607"><ele>1074.0</ele><time>2026-04-05T14:55:20.999Z</time></trkpt><trkpt lat="44.86522395013557" lon="3.1904142627666463"><ele>1072.75</ele><time>2026-04-05T14:55:21.999Z</time></trkpt><trkpt lat="44.86507037598617" lon="3.190478643492634"><ele>1071.5</ele><time>2026-04-05T14:55:22.999Z</time></trkpt><trkpt lat="44.864926231384906" lon="3.1905357127272556"><ele>1070.25</ele><time>2026-04-05T14:55:23.999Z</time></trkpt><trkpt lat="44.86481049762945" lon="3.190587464840628"><ele>1069.0</ele><time>2026-04-05T14:55:24.999Z</time></trkpt><trkpt lat="44.864692282125375" lon="3.1906753439226487"><ele>1072.25</ele><time>2026-04-05T14:55:25.999Z</time></trkpt><trkpt lat="44.864600404357866" lon="3.1907719823023566"><ele>1075.5</ele><time>2026-04-05T14:55:26.999Z</time></trkpt><trkpt lat="44.86450583776654" lon="3.1908933112074402"><ele>1078.75</ele><time>2026-04-05T14:55:27.999Z</time></trkpt><trkpt lat="44.86442665278284" lon="3.191016032964957"><ele>1082.0</ele><time>2026-04-05T14:55:28.999Z</time></trkpt><trkpt lat="44.86435303906536" lon="3.1912010640045883"><ele>1082.0</ele><time>2026-04-05T14:55:29.999Z</time></trkpt><trkpt lat="44.86428719657963" lon="3.191393252245436"><ele>1082.0</ele><time>2026-04-05T14:55:30.999Z</time></trkpt><trkpt lat="44.86420850533812" lon="3.191586081395906"><ele>1082.0</ele><time>2026-04-05T14:55:31.999Z</time></trkpt><trkpt lat="44.86412023249807" lon="3.1917818992087774"><ele>1082.0</ele><time>2026-04-05T14:55:32.999Z</time></trkpt><trkpt lat="44.86405573894885" lon="3.191933113829808"><ele>1082.0</ele><time>2026-04-05T14:55:33.999Z</time></trkpt><trkpt lat="44.86401578708408" lon="3.192075668517317"><ele>1082.0</ele><time>2026-04-05T14:55:34.999Z</time></trkpt><trkpt lat="44.86396720188262" lon="3.192251497739182"><ele>1082.0</ele><time>2026-04-05T14:55:35.999Z</time></trkpt><trkpt lat="44.86390704747097" lon="3.192432598699461"><ele>1083.25</ele><time>2026-04-05T14:55:36.999Z</time></trkpt><trkpt lat="44.86385718664747" lon="3.192609301523218"><ele>1084.5</ele><time>2026-04-05T14:55:37.999Z</time></trkpt><trkpt lat="44.86382300924568" lon="3.1927798981873523"><ele>1085.75</ele><time>2026-04-05T14:55:38.999Z</time></trkpt><trkpt lat="44.86378447860697" lon="3.192957461123744"><ele>1087.0</ele><time>2026-04-05T14:55:39.999Z</time></trkpt><trkpt lat="44.8637162349557" lon="3.193129884130229"><ele>1088.0</ele><time>2026-04-05T14:55:40.999Z</time></trkpt><trkpt lat="44.86361632622971" lon="3.193388236392204"><ele>1089.0</ele><time>2026-04-05T14:55:41.999Z</time></trkpt><trkpt lat="44.86353209268305" lon="3.193575252748819"><ele>1090.0</ele><time>2026-04-05T14:55:42.999Z</time></trkpt><trkpt lat="44.86347062237554" lon="3.1937051250597714"><ele>1088.0</ele><time>2026-04-05T14:55:43.999Z</time></trkpt><trkpt lat="44.863410852309684" lon="3.1938362823352944"><ele>1086.0</ele><time>2026-04-05T14:55:44.999Z</time></trkpt><trkpt lat="44.863359819520376" lon="3.1939978935846076"><ele>1084.0</ele><time>2026-04-05T14:55:45.999Z</time></trkpt><trkpt lat="44.86332557705096" lon="3.1941495262127946"><ele>1082.0</ele><time>2026-04-05T14:55:46.999Z</time></trkpt><trkpt lat="44.863277849061554" lon="3.194292888023654"><ele>1082.0</ele><time>2026-04-05T14:55:47.999Z</time></trkpt><trkpt lat="44.86325131774382" lon="3.194452529241462"><ele>1082.0</ele><time>2026-04-05T14:55:48.999Z</time></trkpt><trkpt lat="44.863239481211764" lon="3.194637695801116"><ele>1082.0</ele><time>2026-04-05T14:55:49.999Z</time></trkpt><trkpt lat="44.86322621693384" lon="3.194815796439993"><ele>1082.0</ele><time>2026-04-05T14:55:50.999Z</time></trkpt><trkpt lat="44.86320853073006" lon="3.1949411460748083"><ele>1082.2</ele><time>2026-04-05T14:55:51.999Z</time></trkpt><trkpt lat="44.86319203594082" lon="3.1950406998851837"><ele>1082.4</ele><time>2026-04-05T14:55:52.999Z</time></trkpt><trkpt lat="44.863142994160974" lon="3.1951962297218577"><ele>1082.6</ele><time>2026-04-05T14:55:54.999Z</time></trkpt><trkpt lat="44.86308386653418" lon="3.1952537643433097"><ele>1082.8</ele><time>2026-04-05T14:55:55.999Z</time></trkpt><trkpt lat="44.862993347658154" lon="3.195299601132644"><ele>1083.0</ele><time>2026-04-05T14:55:56.999Z</time></trkpt><trkpt lat="44.86288286612916" lon="3.1953217477581584"><ele>1083.0</ele><time>2026-04-05T14:55:57.999Z</time></trkpt><trkpt lat="44.86276561775733" lon="3.195321364207601"><ele>1083.0</ele><time>2026-04-05T14:55:58.999Z</time></trkpt><trkpt lat="44.86264019782826" lon="3.195318508081114"><ele>1083.0</ele><time>2026-04-05T14:55:59.999Z</time></trkpt><trkpt lat="44.86251220820245" lon="3.195313414904363"><ele>1083.0</ele><time>2026-04-05T14:56:00.999Z</time></trkpt><trkpt lat="44.86240057044608" lon="3.1953057521293644"><ele>1081.25</ele><time>2026-04-05T14:56:01.999Z</time></trkpt><trkpt lat="44.862283820184906" lon="3.1953026842264527"><ele>1079.5</ele><time>2026-04-05T14:56:02.999Z</time></trkpt><trkpt lat="44.86215923267807" lon="3.1952989895403636"><ele>1077.75</ele><time>2026-04-05T14:56:03.999Z</time></trkpt><trkpt lat="44.86202904893805" lon="3.1952946289656"><ele>1076.0</ele><time>2026-04-05T14:56:04.999Z</time></trkpt><trkpt lat="44.86190538033146" lon="3.195293090204455"><ele>1076.0</ele><time>2026-04-05T14:56:05.999Z</time></trkpt><trkpt lat="44.86177576844964" lon="3.1952886460775405"><ele>1076.0</ele><time>2026-04-05T14:56:06.999Z</time></trkpt><trkpt lat="44.86165717469161" lon="3.1952845393452116"><ele>1076.0</ele><time>2026-04-05T14:56:07.999Z</time></trkpt><trkpt lat="44.861531263294296" lon="3.1952839499069015"><ele>1076.0</ele><time>2026-04-05T14:56:09Z</time></trkpt><trkpt lat="44.86140702730894" lon="3.195286778554919"><ele>1076.0</ele><time>2026-04-05T14:56:10Z</time></trkpt><trkpt lat="44.86128043061511" lon="3.195296013770451"><ele>1076.0</ele><time>2026-04-05T14:56:11Z</time></trkpt><trkpt lat="44.861152655789574" lon="3.195308058517342"><ele>1076.0</ele><time>2026-04-05T14:56:12Z</time></trkpt><trkpt lat="44.86102158068677" lon="3.1953205049091102"><ele>1076.0</ele><time>2026-04-05T14:56:13Z</time></trkpt><trkpt lat="44.86089647669022" lon="3.1953331871984463"><ele>1077.0</ele><time>2026-04-05T14:56:14Z</time></trkpt><trkpt lat="44.86076954560776" lon="3.195347291572469"><ele>1078.0</ele><time>2026-04-05T14:56:15Z</time></trkpt><trkpt lat="44.860650488117" lon="3.195361443811961"><ele>1079.0</ele><time>2026-04-05T14:56:16Z</time></trkpt><trkpt lat="44.860547735536784" lon="3.1953889590383233"><ele>1080.0</ele><time>2026-04-05T14:56:17Z</time></trkpt><trkpt lat="44.860448240311925" lon="3.1954360416588004"><ele>1080.0</ele><time>2026-04-05T14:56:18Z</time></trkpt><trkpt lat="44.86035872799395" lon="3.1955137669687894"><ele>1080.0</ele><time>2026-04-05T14:56:19Z</time></trkpt><trkpt lat="44.860268400365605" lon="3.1956082560202326"><ele>1080.0</ele><time>2026-04-05T14:56:20Z</time></trkpt><trkpt lat="44.86018100767103" lon="3.1957148993482187"><ele>1080.0</ele><time>2026-04-05T14:56:21Z</time></trkpt><trkpt lat="44.86010049236521" lon="3.195832843360683"><ele>1080.0</ele><time>2026-04-05T14:56:22Z</time></trkpt><trkpt lat="44.86001393753442" lon="3.195963804924001"><ele>1081.0</ele><time>2026-04-05T14:56:23Z</time></trkpt><trkpt lat="44.85993520925172" lon="3.1960934185108902"><ele>1082.0</ele><time>2026-04-05T14:56:24Z</time></trkpt><trkpt lat="44.859891332719236" lon="3.196225886575472"><ele>1083.0</ele><time>2026-04-05T14:56:25Z</time></trkpt><trkpt lat="44.85986555933715" lon="3.196342904421878"><ele>1084.0</ele><time>2026-04-05T14:56:26Z</time></trkpt><trkpt lat="44.85985631886631" lon="3.1964383641328173"><ele>1085.0</ele><time>2026-04-05T14:56:27Z</time></trkpt><trkpt lat="44.85948043717698" lon="3.1964064291922716"><ele>1085.0</ele><time>2026-04-05T14:56:28Z</time></trkpt><trkpt lat="44.85938106487408" lon="3.196495374371267"><ele>1085.0</ele><time>2026-04-05T14:56:29Z</time></trkpt><trkpt lat="44.85929742245198" lon="3.196586714057549"><ele>1085.0</ele><time>2026-04-05T14:56:30Z</time></trkpt><trkpt lat="44.859210268991816" lon="3.196684849574048"><ele>1085.0</ele><time>2026-04-05T14:56:31Z</time></trkpt><trkpt lat="44.85910514366177" lon="3.1967896034453505"><ele>1087.5</ele><time>2026-04-05T14:56:32Z</time></trkpt><trkpt lat="44.85897747424327" lon="3.1969189054705796"><ele>1090.0</ele><time>2026-04-05T14:56:33Z</time></trkpt><trkpt lat="44.85885261060997" lon="3.1970422392928186"><ele>1092.5</ele><time>2026-04-05T14:56:34Z</time></trkpt><trkpt lat="44.858757991805376" lon="3.1971452714237802"><ele>1095.0</ele><time>2026-04-05T14:56:35Z</time></trkpt><trkpt lat="44.858675919617966" lon="3.1972402485515525"><ele>1095.0</ele><time>2026-04-05T14:56:36Z</time></trkpt><trkpt lat="44.858590115804525" lon="3.1973149884458465"><ele>1095.0</ele><time>2026-04-05T14:56:37Z</time></trkpt><trkpt lat="44.85847609652793" lon="3.197343297138804"><ele>1095.0</ele><time>2026-04-05T14:56:38Z</time></trkpt><trkpt lat="44.85834548620207" lon="3.1973993365518267"><ele>1095.0</ele><time>2026-04-05T14:56:39Z</time></trkpt><trkpt lat="44.85821425412935" lon="3.197466727294928"><ele>1096.5</ele><time>2026-04-05T14:56:40Z</time></trkpt><trkpt lat="44.85806798368424" lon="3.1975569318994257"><ele>1098.0</ele><time>2026-04-05T14:56:41Z</time></trkpt><trkpt lat="44.85796300325972" lon="3.1976270152592745"><ele>1099.5</ele><time>2026-04-05T14:56:42Z</time></trkpt><trkpt lat="44.85787015507913" lon="3.1977071196177485"><ele>1101.0</ele><time>2026-04-05T14:56:43Z</time></trkpt><trkpt lat="44.857747197697265" lon="3.1978073586971774"><ele>1101.0</ele><time>2026-04-05T14:56:44Z</time></trkpt><trkpt lat="44.85762230721632" lon="3.197919618561302"><ele>1101.0</ele><time>2026-04-05T14:56:45Z</time></trkpt><trkpt lat="44.85751643174413" lon="3.198035579300412"><ele>1101.0</ele><time>2026-04-05T14:56:46Z</time></trkpt><trkpt lat="44.85742893451265" lon="3.19813822946445"><ele>1101.0</ele><time>2026-04-05T14:56:47Z</time></trkpt><trkpt lat="44.8573110999841" lon="3.1982221213703483"><ele>1103.6</ele><time>2026-04-05T14:56:48Z</time></trkpt><trkpt lat="44.857194521119666" lon="3.198326007745843"><ele>1106.1999999999998</ele><time>2026-04-05T14:56:49Z</time></trkpt><trkpt lat="44.85711508817232" lon="3.1983791609779764"><ele>1108.8000000000002</ele><time>2026-04-05T14:56:50Z</time></trkpt><trkpt lat="44.857044536730065" lon="3.1984485270739564"><ele>1111.4</ele><time>2026-04-05T14:56:51Z</time></trkpt><trkpt lat="44.8569658954464" lon="3.1985363365652617"><ele>1114.0</ele><time>2026-04-05T14:56:52Z</time></trkpt><trkpt lat="44.856885847452055" lon="3.1986273128321163"><ele>1114.0</ele><time>2026-04-05T14:56:53Z</time></trkpt><trkpt lat="44.85681492925102" lon="3.1986966765787357"><ele>1114.0</ele><time>2026-04-05T14:56:54Z</time></trkpt><trkpt lat="44.85674924455643" lon="3.1987525294010886"><ele>1114.0</ele><time>2026-04-05T14:56:55Z</time></trkpt><trkpt lat="44.85668269358746" lon="3.198805203869263"><ele>1114.0</ele><time>2026-04-05T14:56:56Z</time></trkpt><trkpt lat="44.85662399734062" lon="3.1988438149901044"><ele>1114.0</ele><time>2026-04-05T14:56:57Z</time></trkpt><trkpt lat="44.85654092208094" lon="3.1988994668016875"><ele>1114.0</ele><time>2026-04-05T14:56:59Z</time></trkpt><trkpt lat="44.85647636933625" lon="3.1988892615428477"><ele>1114.2</ele><time>2026-04-05T14:57:01Z</time></trkpt><trkpt lat="44.856399143754516" lon="3.198788797580413"><ele>1114.4</ele><time>2026-04-05T14:57:04Z</time></trkpt><trkpt lat="44.85627777482874" lon="3.198826219073692"><ele>1114.6</ele><time>2026-04-05T14:57:06Z</time></trkpt><trkpt lat="44.856222318824294" lon="3.1988788651969964"><ele>1114.8</ele><time>2026-04-05T14:57:07Z</time></trkpt><trkpt lat="44.856167731364664" lon="3.198930569269468"><ele>1115.0</ele><time>2026-04-05T14:57:08Z</time></trkpt><trkpt lat="44.85605970636669" lon="3.1990003384087573"><ele>1114.3333333333335</ele><time>2026-04-05T14:57:09.999Z</time></trkpt><trkpt lat="44.85599415070517" lon="3.199022552051619"><ele>1113.6666666666667</ele><time>2026-04-05T14:57:10.999Z</time></trkpt><trkpt lat="44.85591955595744" lon="3.199042464555327"><ele>1113.0</ele><time>2026-04-05T14:57:11.999Z</time></trkpt><trkpt lat="44.85582729715869" lon="3.1990670666846404"><ele>1112.3333333333333</ele><time>2026-04-05T14:57:12.999Z</time></trkpt><trkpt lat="44.85573278270688" lon="3.199096952333928"><ele>1111.6666666666665</ele><time>2026-04-05T14:57:13.999Z</time></trkpt><trkpt lat="44.85561897571175" lon="3.1991239022127007"><ele>1111.0</ele><time>2026-04-05T14:57:14.999Z</time></trkpt><trkpt lat="44.85549393616578" lon="3.1991554627127985"><ele>1113.5</ele><time>2026-04-05T14:57:15.999Z</time></trkpt><trkpt lat="44.855365894119515" lon="3.1991821894430865"><ele>1116.0</ele><time>2026-04-05T14:57:16.999Z</time></trkpt><trkpt lat="44.855254733117036" lon="3.1992152417356143"><ele>1118.5</ele><time>2026-04-05T14:57:17.999Z</time></trkpt><trkpt lat="44.855141330629145" lon="3.199240753720811"><ele>1121.0</ele><time>2026-04-05T14:57:18.999Z</time></trkpt><trkpt lat="44.8550437934547" lon="3.199257519624413"><ele>1122.8</ele><time>2026-04-05T14:57:19.999Z</time></trkpt><trkpt lat="44.854936718111325" lon="3.1992412038397307"><ele>1124.6</ele><time>2026-04-05T14:57:20.999Z</time></trkpt><trkpt lat="44.854827984822215" lon="3.1992222125576655"><ele>1126.4</ele><time>2026-04-05T14:57:21.999Z</time></trkpt><trkpt lat="44.85472920830119" lon="3.1991902087618187"><ele>1128.2</ele><time>2026-04-05T14:57:22.999Z</time></trkpt><trkpt lat="44.85462136559504" lon="3.1991618968320648"><ele>1130.0</ele><time>2026-04-05T14:57:23.999Z</time></trkpt><trkpt lat="44.85451128554985" lon="3.199145682398368"><ele>1130.0</ele><time>2026-04-05T14:57:24.999Z</time></trkpt><trkpt lat="44.85440898427775" lon="3.19914300234095"><ele>1130.0</ele><time>2026-04-05T14:57:25.999Z</time></trkpt><trkpt lat="44.85429719056222" lon="3.1991293232009217"><ele>1130.0</ele><time>2026-04-05T14:57:26.999Z</time></trkpt><trkpt lat="44.854183200531885" lon="3.199117840325384"><ele>1130.0</ele><time>2026-04-05T14:57:27.999Z</time></trkpt><trkpt lat="44.85406922669708" lon="3.199102458280389"><ele>1130.0</ele><time>2026-04-05T14:57:28.999Z</time></trkpt><trkpt lat="44.853941441507764" lon="3.1990732920267444"><ele>1130.0</ele><time>2026-04-05T14:57:29.999Z</time></trkpt><trkpt lat="44.853810673303116" lon="3.199022321402131"><ele>1130.0</ele><time>2026-04-05T14:57:30.999Z</time></trkpt><trkpt lat="44.85367322548822" lon="3.1989813460574457"><ele>1130.0</ele><time>2026-04-05T14:57:31.999Z</time></trkpt><trkpt lat="44.85353847885888" lon="3.1989409227986334"><ele>1130.0</ele><time>2026-04-05T14:57:32.999Z</time></trkpt><trkpt lat="44.85341575831862" lon="3.1989211576973466"><ele>1134.0</ele><time>2026-04-05T14:57:33.999Z</time></trkpt><trkpt lat="44.85329849153524" lon="3.1988840956464517"><ele>1138.0</ele><time>2026-04-05T14:57:34.999Z</time></trkpt><trkpt lat="44.85318873302263" lon="3.1988871989027357"><ele>1142.0</ele><time>2026-04-05T14:57:35.999Z</time></trkpt><trkpt lat="44.85305820222781" lon="3.1989098696918274"><ele>1146.0</ele><time>2026-04-05T14:57:36.999Z</time></trkpt><trkpt lat="44.85292116367803" lon="3.1989298042496457"><ele>1146.0</ele><time>2026-04-05T14:57:37.999Z</time></trkpt><trkpt lat="44.85281371033668" lon="3.198939593092635"><ele>1146.0</ele><time>2026-04-05T14:57:38.999Z</time></trkpt><trkpt lat="44.852723340069446" lon="3.198934748445038"><ele>1146.0</ele><time>2026-04-05T14:57:39.999Z</time></trkpt><trkpt lat="44.85261844209271" lon="3.198925380320341"><ele>1146.0</ele><time>2026-04-05T14:57:40.999Z</time></trkpt><trkpt lat="44.85251584679465" lon="3.198919359975025"><ele>1146.0</ele><time>2026-04-05T14:57:41.999Z</time></trkpt><trkpt lat="44.85244445829237" lon="3.1988783943008965"><ele>1146.3999999999999</ele><time>2026-04-05T14:57:42.999Z</time></trkpt><trkpt lat="44.85236405045408" lon="3.198798614910743"><ele>1146.8</ele><time>2026-04-05T14:57:43.999Z</time></trkpt><trkpt lat="44.85225123879766" lon="3.1987023607942278"><ele>1147.1999999999998</ele><time>2026-04-05T14:57:44.999Z</time></trkpt><trkpt lat="44.85217850435295" lon="3.1986769947179488"><ele>1147.6</ele><time>2026-04-05T14:57:45.999Z</time></trkpt><trkpt lat="44.85206267478298" lon="3.1986449598368467"><ele>1148.0</ele><time>2026-04-05T14:57:46.999Z</time></trkpt><trkpt lat="44.85195891441874" lon="3.1985995858918215"><ele>1148.0</ele><time>2026-04-05T14:57:47.999Z</time></trkpt><trkpt lat="44.85184179925341" lon="3.19855985668735"><ele>1148.0</ele><time>2026-04-05T14:57:48.999Z</time></trkpt><trkpt lat="44.85174381522864" lon="3.1985382211182922"><ele>1148.0</ele><time>2026-04-05T14:57:49.999Z</time></trkpt><trkpt lat="44.85164305933872" lon="3.1985416038969476"><ele>1148.0</ele><time>2026-04-05T14:57:50.999Z</time></trkpt><trkpt lat="44.85154736357924" lon="3.1985641028585876"><ele>1148.0</ele><time>2026-04-05T14:57:51.999Z</time></trkpt><trkpt lat="44.85143534607332" lon="3.198567214112843"><ele>1147.6</ele><time>2026-04-05T14:57:52.999Z</time></trkpt><trkpt lat="44.85132014807235" lon="3.1985851106255105"><ele>1147.1999999999998</ele><time>2026-04-05T14:57:53.999Z</time></trkpt><trkpt lat="44.851248316591075" lon="3.198598404850234"><ele>1146.8</ele><time>2026-04-05T14:57:54.999Z</time></trkpt><trkpt lat="44.85110218159104" lon="3.198579953472831"><ele>1146.3999999999999</ele><time>2026-04-05T14:57:56.999Z</time></trkpt><trkpt lat="44.851024076492564" lon="3.198542503256908"><ele>1146.0</ele><time>2026-04-05T14:57:57.999Z</time></trkpt><trkpt lat="44.85093819377367" lon="3.1984762087728167"><ele>1146.0</ele><time>2026-04-05T14:57:58.999Z</time></trkpt><trkpt lat="44.85085469479632" lon="3.198394120553252"><ele>1146.0</ele><time>2026-04-05T14:57:59.999Z</time></trkpt><trkpt lat="44.850786885965654" lon="3.198343086597843"><ele>1146.0</ele><time>2026-04-05T14:58:00.999Z</time></trkpt><trkpt lat="44.85073975388783" lon="3.1982814549288414"><ele>1146.0</ele><time>2026-04-05T14:58:01.999Z</time></trkpt><trkpt lat="44.85066493853048" lon="3.198182421378504"><ele>1146.0</ele><time>2026-04-05T14:58:02.999Z</time></trkpt><trkpt lat="44.85061414807335" lon="3.198084485970329"><ele>1146.0</ele><time>2026-04-05T14:58:03.999Z</time></trkpt><trkpt lat="44.85057721223672" lon="3.1980118381142386"><ele>1146.0</ele><time>2026-04-05T14:58:04.999Z</time></trkpt><trkpt lat="44.85051641215817" lon="3.1979864199146997"><ele>1146.0</ele><time>2026-04-05T14:58:05.999Z</time></trkpt><trkpt lat="44.850453004236776" lon="3.1981417546622404"><ele>1146.0</ele><time>2026-04-05T14:58:07.999Z</time></trkpt><trkpt lat="44.85041111640387" lon="3.198315714430584"><ele>1146.0</ele><time>2026-04-05T14:58:08.999Z</time></trkpt><trkpt lat="44.85037591947918" lon="3.198485255988392"><ele>1146.0</ele><time>2026-04-05T14:58:09.999Z</time></trkpt><trkpt lat="44.8503376549664" lon="3.1986463782749217"><ele>1145.75</ele><time>2026-04-05T14:58:10.999Z</time></trkpt><trkpt lat="44.85029511542604" lon="3.198814391053553"><ele>1145.5</ele><time>2026-04-05T14:58:11.999Z</time></trkpt><trkpt lat="44.85025520214992" lon="3.1989688981674216"><ele>1145.25</ele><time>2026-04-05T14:58:12.999Z</time></trkpt><trkpt lat="44.85021427696988" lon="3.199111038867913"><ele>1145.0</ele><time>2026-04-05T14:58:13.999Z</time></trkpt><trkpt lat="44.8501942246194" lon="3.199260231239357"><ele>1144.5</ele><time>2026-04-05T14:58:15Z</time></trkpt><trkpt lat="44.850163689699166" lon="3.199367413842725"><ele>1144.0</ele><time>2026-04-05T14:58:16Z</time></trkpt><trkpt lat="44.85012083870274" lon="3.199498369915652"><ele>1143.5</ele><time>2026-04-05T14:58:17Z</time></trkpt><trkpt lat="44.850077606593565" lon="3.1995884263018928"><ele>1143.0</ele><time>2026-04-05T14:58:18Z</time></trkpt><trkpt lat="44.85003563119521" lon="3.1996630693953665"><ele>1142.5</ele><time>2026-04-05T14:58:19Z</time></trkpt><trkpt lat="44.84996438046572" lon="3.199694753571607"><ele>1142.0</ele><time>2026-04-05T14:58:20Z</time></trkpt><trkpt lat="44.849855218886674" lon="3.1997082106120067"><ele>1141.4</ele><time>2026-04-05T14:58:21Z</time></trkpt><trkpt lat="44.84974240630815" lon="3.199696928522371"><ele>1140.8000000000002</ele><time>2026-04-05T14:58:22Z</time></trkpt><trkpt lat="44.84964649552888" lon="3.199643815659079"><ele>1140.2</ele><time>2026-04-05T14:58:23Z</time></trkpt><trkpt lat="44.84955113732179" lon="3.1995894551431476"><ele>1139.6000000000001</ele><time>2026-04-05T14:58:24Z</time></trkpt><trkpt lat="44.84945629032529" lon="3.1995357400714215"><ele>1139.0</ele><time>2026-04-05T14:58:25Z</time></trkpt><trkpt lat="44.84937017287667" lon="3.199521674172327"><ele>1139.3333333333335</ele><time>2026-04-05T14:58:26Z</time></trkpt><trkpt lat="44.849290242950076" lon="3.1995114615785822"><ele>1139.6666666666667</ele><time>2026-04-05T14:58:27Z</time></trkpt><trkpt lat="44.849210502815026" lon="3.1994911535299586"><ele>1140.0</ele><time>2026-04-05T14:58:28Z</time></trkpt><trkpt lat="44.84915494491576" lon="3.199549424635727"><ele>1140.3333333333333</ele><time>2026-04-05T14:58:30Z</time></trkpt><trkpt lat="44.84912886317956" lon="3.199664151748292"><ele>1140.6666666666665</ele><time>2026-04-05T14:58:31Z</time></trkpt><trkpt lat="44.849080002583634" lon="3.199817436839364"><ele>1141.0</ele><time>2026-04-05T14:58:32Z</time></trkpt><trkpt lat="44.84902501188405" lon="3.1999804611738663"><ele>1141.0</ele><time>2026-04-05T14:58:33Z</time></trkpt><trkpt lat="44.84901315270093" lon="3.2001211842905066"><ele>1141.0</ele><time>2026-04-05T14:58:34Z</time></trkpt><trkpt lat="44.84902543080424" lon="3.2002428265019343"><ele>1141.0</ele><time>2026-04-05T14:58:35Z</time></trkpt><trkpt lat="44.84904744423144" lon="3.2004051672091443"><ele>1141.0</ele><time>2026-04-05T14:58:36Z</time></trkpt><trkpt lat="44.849060578243524" lon="3.200576661079589"><ele>1141.0</ele><time>2026-04-05T14:58:37Z</time></trkpt><trkpt lat="44.84903990933478" lon="3.2007123323979347"><ele>1142.0</ele><time>2026-04-05T14:58:38Z</time></trkpt><trkpt lat="44.849033779086255" lon="3.2008965327794763"><ele>1143.0</ele><time>2026-04-05T14:58:39Z</time></trkpt><trkpt lat="44.84904667320165" lon="3.201052046450941"><ele>1144.0</ele><time>2026-04-05T14:58:40Z</time></trkpt><trkpt lat="44.849104157079715" lon="3.201217956075311"><ele>1145.0</ele><time>2026-04-05T14:58:42Z</time></trkpt><trkpt lat="44.84918498961214" lon="3.201341111472641"><ele>1144.75</ele><time>2026-04-05T14:58:43Z</time></trkpt><trkpt lat="44.849257368477296" lon="3.201507123202656"><ele>1144.5</ele><time>2026-04-05T14:58:44Z</time></trkpt><trkpt lat="44.84933236903188" lon="3.2016559460134846"><ele>1144.25</ele><time>2026-04-05T14:58:45Z</time></trkpt><trkpt lat="44.84941027038277" lon="3.201794377319507"><ele>1144.0</ele><time>2026-04-05T14:58:46Z</time></trkpt><trkpt lat="44.84944342171504" lon="3.2018996258765924"><ele>1144.0</ele><time>2026-04-05T14:58:47Z</time></trkpt><trkpt lat="44.84944280786987" lon="3.20203975560677"><ele>1144.0</ele><time>2026-04-05T14:58:48Z</time></trkpt><trkpt lat="44.849455721164155" lon="3.2022782388153423"><ele>1144.0</ele><time>2026-04-05T14:58:49Z</time></trkpt><trkpt lat="44.849505937615874" lon="3.202456490556995"><ele>1144.0</ele><time>2026-04-05T14:58:50Z</time></trkpt><trkpt lat="44.84954650793485" lon="3.2025466506796705"><ele>1143.8</ele><time>2026-04-05T14:58:51Z</time></trkpt><trkpt lat="44.84952840579274" lon="3.2026759824544397"><ele>1143.6000000000001</ele><time>2026-04-05T14:58:53Z</time></trkpt><trkpt lat="44.84946065892285" lon="3.202746787214478"><ele>1143.4</ele><time>2026-04-05T14:58:54Z</time></trkpt><trkpt lat="44.849372966439724" lon="3.2028045656096253"><ele>1143.2</ele><time>2026-04-05T14:58:55Z</time></trkpt><trkpt lat="44.84927343538182" lon="3.2028578976296957"><ele>1143.0</ele><time>2026-04-05T14:58:56Z</time></trkpt><trkpt lat="44.849177671740776" lon="3.2029103370548992"><ele>1143.0</ele><time>2026-04-05T14:58:57Z</time></trkpt><trkpt lat="44.84909809661319" lon="3.202946109484206"><ele>1143.0</ele><time>2026-04-05T14:58:58Z</time></trkpt><trkpt lat="44.84897961219372" lon="3.2029756403289817"><ele>1143.0</ele><time>2026-04-05T14:58:59Z</time></trkpt><trkpt lat="44.8488644801448" lon="3.2030512201770236"><ele>1143.0</ele><time>2026-04-05T14:59:00Z</time></trkpt><trkpt lat="44.8487877495631" lon="3.2031166961404645"><ele>1143.0</ele><time>2026-04-05T14:59:01Z</time></trkpt><trkpt lat="44.84870703160805" lon="3.2031702124649395"><ele>1141.8</ele><time>2026-04-05T14:59:02Z</time></trkpt><trkpt lat="44.84860947452707" lon="3.2032341579159587"><ele>1140.6</ele><time>2026-04-05T14:59:03Z</time></trkpt><trkpt lat="44.848503820125146" lon="3.2032653531590065"><ele>1139.4</ele><time>2026-04-05T14:59:04Z</time></trkpt><trkpt lat="44.848394885823865" lon="3.20329294241666"><ele>1138.2</ele><time>2026-04-05T14:59:05Z</time></trkpt><trkpt lat="44.84828402901201" lon="3.2033279043414185"><ele>1137.0</ele><time>2026-04-05T14:59:06Z</time></trkpt><trkpt lat="44.84818908845998" lon="3.2033850890658027"><ele>1136.5</ele><time>2026-04-05T14:59:07Z</time></trkpt><trkpt lat="44.84808240902682" lon="3.2034082875434393"><ele>1136.0</ele><time>2026-04-05T14:59:08Z</time></trkpt><trkpt lat="44.84797822065009" lon="3.2034396092856183"><ele>1135.5</ele><time>2026-04-05T14:59:08.999Z</time></trkpt><trkpt lat="44.84785689997138" lon="3.2034990821246208"><ele>1135.0</ele><time>2026-04-05T14:59:09.999Z</time></trkpt><trkpt lat="44.847733863465216" lon="3.20356704938115"><ele>1134.25</ele><time>2026-04-05T14:59:10.999Z</time></trkpt><trkpt lat="44.84760163884144" lon="3.2036309652015142"><ele>1133.5</ele><time>2026-04-05T14:59:11.999Z</time></trkpt><trkpt lat="44.84747816833917" lon="3.2036916272862883"><ele>1132.75</ele><time>2026-04-05T14:59:12.999Z</time></trkpt><trkpt lat="44.84737008394087" lon="3.2037531370923826"><ele>1132.0</ele><time>2026-04-05T14:59:13.999Z</time></trkpt><trkpt lat="44.84728494382706" lon="3.2037963512313827"><ele>1132.0</ele><time>2026-04-05T14:59:14.999Z</time></trkpt><trkpt lat="44.84720074112825" lon="3.2038432631170153"><ele>1132.0</ele><time>2026-04-05T14:59:15.999Z</time></trkpt><trkpt lat="44.84713775615691" lon="3.2038718495641123"><ele>1132.0</ele><time>2026-04-05T14:59:16.999Z</time></trkpt><trkpt lat="44.847068920590964" lon="3.2039041704412505"><ele>1132.0</ele><time>2026-04-05T14:59:17.999Z</time></trkpt><trkpt lat="44.84696177170855" lon="3.2039512624518314"><ele>1132.0</ele><time>2026-04-05T14:59:19.999Z</time></trkpt><trkpt lat="44.84687775288872" lon="3.203990217292055"><ele>1132.0</ele><time>2026-04-05T14:59:21.999Z</time></trkpt><trkpt lat="44.846798056705666" lon="3.2040141822775343"><ele>1131.6</ele><time>2026-04-05T14:59:23.999Z</time></trkpt><trkpt lat="44.84670339047646" lon="3.2040386307454813"><ele>1131.2</ele><time>2026-04-05T14:59:25.999Z</time></trkpt><trkpt lat="44.84659715734403" lon="3.2040797740904194"><ele>1130.8</ele><time>2026-04-05T14:59:27.999Z</time></trkpt><trkpt lat="44.846499538109704" lon="3.20413584017876"><ele>1130.4</ele><time>2026-04-05T14:59:29.999Z</time></trkpt><trkpt lat="44.84639246749617" lon="3.2041892834507593"><ele>1130.0</ele><time>2026-04-05T14:59:31.999Z</time></trkpt><trkpt lat="44.8462724216637" lon="3.2042088143367975"><ele>1130.0</ele><time>2026-04-05T14:59:33.999Z</time></trkpt><trkpt lat="44.84614852566547" lon="3.2042003894595905"><ele>1130.0</ele><time>2026-04-05T14:59:35.999Z</time></trkpt><trkpt lat="44.8460806575335" lon="3.2041847685245353"><ele>1130.0</ele><time>2026-04-05T14:59:36.999Z</time></trkpt><trkpt lat="44.846012881261565" lon="3.2041603855578464"><ele>1130.0</ele><time>2026-04-05T14:59:37.999Z</time></trkpt><trkpt lat="44.84594308655488" lon="3.2041404485179874"><ele>1130.0</ele><time>2026-04-05T14:59:38.999Z</time></trkpt><trkpt lat="44.845823759593834" lon="3.204092565126906"><ele>1128.6666666666667</ele><time>2026-04-05T14:59:40.999Z</time></trkpt><trkpt lat="44.84575599048189" lon="3.2040595317898797"><ele>1127.3333333333335</ele><time>2026-04-05T14:59:41.999Z</time></trkpt><trkpt lat="44.84567807304272" lon="3.204036088185584"><ele>1126.0</ele><time>2026-04-05T14:59:42.999Z</time></trkpt><trkpt lat="44.84559234323575" lon="3.2040060032765543"><ele>1124.6666666666667</ele><time>2026-04-05T14:59:43.999Z</time></trkpt><trkpt lat="44.84552545076029" lon="3.2039833191103186"><ele>1123.3333333333333</ele><time>2026-04-05T14:59:44.999Z</time></trkpt><trkpt lat="44.845467852065276" lon="3.2039448127081216"><ele>1122.0</ele><time>2026-04-05T14:59:45.999Z</time></trkpt><trkpt lat="44.845370561754926" lon="3.2039264537351753"><ele>1122.0</ele><time>2026-04-05T14:59:47.999Z</time></trkpt><trkpt lat="44.84526347332489" lon="3.2038956856733343"><ele>1122.0</ele><time>2026-04-05T14:59:50.999Z</time></trkpt><trkpt lat="44.84518422032516" lon="3.2040928374891084"><ele>1122.0</ele><time>2026-04-05T14:59:51.999Z</time></trkpt><trkpt lat="44.845122758804536" lon="3.2042190049295836"><ele>1122.0</ele><time>2026-04-05T14:59:52.999Z</time></trkpt><trkpt lat="44.84503126935566" lon="3.2043867285516985"><ele>1122.0</ele><time>2026-04-05T14:59:53.999Z</time></trkpt><trkpt lat="44.84492834418283" lon="3.2046043291889053"><ele>1122.0</ele><time>2026-04-05T14:59:54.999Z</time></trkpt><trkpt lat="44.844828651207145" lon="3.204816528716253"><ele>1122.0</ele><time>2026-04-05T14:59:55.999Z</time></trkpt><trkpt lat="44.84475008611171" lon="3.204978448193286"><ele>1122.0</ele><time>2026-04-05T14:59:56.999Z</time></trkpt><trkpt lat="44.84469390864535" lon="3.205093298213614"><ele>1122.0</ele><time>2026-04-05T14:59:57.999Z</time></trkpt><trkpt lat="44.84465685914236" lon="3.2051830787222806"><ele>1122.0</ele><time>2026-04-05T14:59:58.999Z</time></trkpt><trkpt lat="44.84457088482332" lon="3.2050877864346914"><ele>1122.0</ele><time>2026-04-05T15:00:01.999Z</time></trkpt><trkpt lat="44.844533995868716" lon="3.2049589197173063"><ele>1122.0</ele><time>2026-04-05T15:00:02.999Z</time></trkpt><trkpt lat="44.844497846228634" lon="3.2048251250650286"><ele>1121.75</ele><time>2026-04-05T15:00:03.999Z</time></trkpt><trkpt lat="44.844475984908776" lon="3.204726826513138"><ele>1121.5</ele><time>2026-04-05T15:00:04.999Z</time></trkpt><trkpt lat="44.844272412269824" lon="3.2047921556895913"><ele>1121.25</ele><time>2026-04-05T15:00:07.999Z</time></trkpt><trkpt lat="44.84420429999013" lon="3.2047928555626966"><ele>1121.0</ele><time>2026-04-05T15:00:11.999Z</time></trkpt><trkpt lat="44.84410161761771" lon="3.204841860543306"><ele>1121.6</ele><time>2026-04-05T15:00:14.999Z</time></trkpt><trkpt lat="44.84401401050098" lon="3.2048547604804063"><ele>1122.1999999999998</ele><time>2026-04-05T15:00:16.999Z</time></trkpt><trkpt lat="44.843929788904425" lon="3.2049076363808897"><ele>1122.8000000000002</ele><time>2026-04-05T15:00:18.998Z</time></trkpt><trkpt lat="44.84383292182287" lon="3.2049696972781496"><ele>1123.4</ele><time>2026-04-05T15:00:21Z</time></trkpt><trkpt lat="44.84376937825461" lon="3.205012501682868"><ele>1124.0</ele><time>2026-04-05T15:00:22Z</time></trkpt><trkpt lat="44.84364921290612" lon="3.2049956339671994"><ele>1124.0</ele><time>2026-04-05T15:00:24Z</time></trkpt><trkpt lat="44.843585026347014" lon="3.204979858644078"><ele>1124.0</ele><time>2026-04-05T15:00:25Z</time></trkpt><trkpt lat="44.84351608444598" lon="3.204947952583145"><ele>1124.0</ele><time>2026-04-05T15:00:27Z</time></trkpt><trkpt lat="44.843424601649616" lon="3.2049078807057403"><ele>1124.0</ele><time>2026-04-05T15:00:29Z</time></trkpt><trkpt lat="44.84334364246531" lon="3.2048990701868867"><ele>1124.0</ele><time>2026-04-05T15:00:30Z</time></trkpt><trkpt lat="44.84325197046204" lon="3.204907143924353"><ele>1124.0</ele><time>2026-04-05T15:00:31Z</time></trkpt><trkpt lat="44.843168358015895" lon="3.204932715339021"><ele>1124.4</ele><time>2026-04-05T15:00:32Z</time></trkpt><trkpt lat="44.843081052318446" lon="3.205018408437017"><ele>1124.8000000000002</ele><time>2026-04-05T15:00:34Z</time></trkpt><trkpt lat="44.843018136566364" lon="3.2050601361339517"><ele>1125.1999999999998</ele><time>2026-04-05T15:00:35Z</time></trkpt><trkpt lat="44.842959013778504" lon="3.2049166232311825"><ele>1125.6</ele><time>2026-04-05T15:00:37Z</time></trkpt><trkpt lat="44.84289127920622" lon="3.2048648201319216"><ele>1126.0</ele><time>2026-04-05T15:00:38Z</time></trkpt><trkpt lat="44.84279798978995" lon="3.204858725647864"><ele>1126.0</ele><time>2026-04-05T15:00:39Z</time></trkpt><trkpt lat="44.84268295388712" lon="3.204894099124835"><ele>1126.0</ele><time>2026-04-05T15:00:40Z</time></trkpt><trkpt lat="44.84259011866999" lon="3.2049446561755177"><ele>1126.0</ele><time>2026-04-05T15:00:41Z</time></trkpt><trkpt lat="44.84253808769868" lon="3.2049997218336492"><ele>1126.0</ele><time>2026-04-05T15:00:42Z</time></trkpt><trkpt lat="44.84241883043087" lon="3.2050945472819827"><ele>1126.0</ele><time>2026-04-05T15:00:44Z</time></trkpt><trkpt lat="44.84234771232618" lon="3.205164061775994"><ele>1128.2</ele><time>2026-04-05T15:00:45Z</time></trkpt><trkpt lat="44.842283816674986" lon="3.205267195101515"><ele>1130.3999999999999</ele><time>2026-04-05T15:00:46Z</time></trkpt><trkpt lat="44.84224509985956" lon="3.2053426769167723"><ele>1132.6</ele><time>2026-04-05T15:00:47Z</time></trkpt><trkpt lat="44.84212708791399" lon="3.2053530512485864"><ele>1134.8</ele><time>2026-04-05T15:00:49Z</time></trkpt><trkpt lat="44.84205330502211" lon="3.20525152326648"><ele>1137.0</ele><time>2026-04-05T15:00:51Z</time></trkpt><trkpt lat="44.84204202978996" lon="3.205154832204977"><ele>1137.0</ele><time>2026-04-05T15:00:52Z</time></trkpt><trkpt lat="44.84203076323574" lon="3.2050495629473543"><ele>1137.0</ele><time>2026-04-05T15:00:53Z</time></trkpt><trkpt lat="44.84198042594139" lon="3.2049403702472166"><ele>1137.0</ele><time>2026-04-05T15:00:54Z</time></trkpt><trkpt lat="44.84192549861322" lon="3.204814238470212"><ele>1137.0</ele><time>2026-04-05T15:00:55Z</time></trkpt><trkpt lat="44.841877955855196" lon="3.204726114640311"><ele>1137.0</ele><time>2026-04-05T15:00:56Z</time></trkpt><trkpt lat="44.84185941651491" lon="3.2046409735082015"><ele>1137.0</ele><time>2026-04-05T15:00:57Z</time></trkpt><trkpt lat="44.841895665432254" lon="3.2045441202516556"><ele>1137.4</ele><time>2026-04-05T15:00:58Z</time></trkpt><trkpt lat="44.84191839547843" lon="3.204444890716309"><ele>1137.8000000000002</ele><time>2026-04-05T15:00:59Z</time></trkpt><trkpt lat="44.84187662351027" lon="3.2042741121338043"><ele>1138.2</ele><time>2026-04-05T15:01:00Z</time></trkpt><trkpt lat="44.84183165742151" lon="3.2041484259525177"><ele>1138.6000000000001</ele><time>2026-04-05T15:01:01Z</time></trkpt><trkpt lat="44.841766240718606" lon="3.2040746831792344"><ele>1139.0</ele><time>2026-04-05T15:01:04Z</time></trkpt><trkpt lat="44.84169274274436" lon="3.2040510908037922"><ele>1141.0</ele><time>2026-04-05T15:01:06Z</time></trkpt><trkpt lat="44.84156956467251" lon="3.204017964717342"><ele>1143.0</ele><time>2026-04-05T15:01:08Z</time></trkpt><trkpt lat="44.8414976644176" lon="3.204016617281268"><ele>1145.0</ele><time>2026-04-05T15:01:09Z</time></trkpt><trkpt lat="44.84143269566421" lon="3.20402168750801"><ele>1147.0</ele><time>2026-04-05T15:01:09.999Z</time></trkpt><trkpt lat="44.84133458369957" lon="3.2039801335988494"><ele>1149.0</ele><time>2026-04-05T15:01:11.999Z</time></trkpt><trkpt lat="44.84123118158635" lon="3.203901337835356"><ele>1148.8333333333333</ele><time>2026-04-05T15:01:13.999Z</time></trkpt><trkpt lat="44.84115795148709" lon="3.2039086374621077"><ele>1148.6666666666667</ele><time>2026-04-05T15:01:14.999Z</time></trkpt><trkpt lat="44.84107699878944" lon="3.203917751745307"><ele>1148.5</ele><time>2026-04-05T15:01:15.999Z</time></trkpt><trkpt lat="44.84098651811065" lon="3.2039172944561236"><ele>1148.3333333333335</ele><time>2026-04-05T15:01:16.999Z</time></trkpt><trkpt lat="44.84089569517334" lon="3.2039292078134496"><ele>1148.1666666666667</ele><time>2026-04-05T15:01:17.999Z</time></trkpt><trkpt lat="44.84079971865313" lon="3.2039400970860865"><ele>1148.0</ele><time>2026-04-05T15:01:18.999Z</time></trkpt><trkpt lat="44.84069921950762" lon="3.203945154520666"><ele>1148.0</ele><time>2026-04-05T15:01:19.999Z</time></trkpt><trkpt lat="44.840595311685576" lon="3.203938930751378"><ele>1148.0</ele><time>2026-04-05T15:01:20.999Z</time></trkpt><trkpt lat="44.84050872240998" lon="3.203923119812415"><ele>1148.0</ele><time>2026-04-05T15:01:21.999Z</time></trkpt><trkpt lat="44.840431884623115" lon="3.20391254027239"><ele>1148.0</ele><time>2026-04-05T15:01:22.999Z</time></trkpt><trkpt lat="44.840354870922326" lon="3.2039103734994034"><ele>1148.0</ele><time>2026-04-05T15:01:23.999Z</time></trkpt><trkpt lat="44.84027446585828" lon="3.203910884665719"><ele>1148.0</ele><time>2026-04-05T15:01:24.999Z</time></trkpt><trkpt lat="44.8401938794854" lon="3.2039206335326362"><ele>1147.3333333333335</ele><time>2026-04-05T15:01:25.999Z</time></trkpt><trkpt lat="44.84012234529755" lon="3.203958999711605"><ele>1146.6666666666667</ele><time>2026-04-05T15:01:26.999Z</time></trkpt><trkpt lat="44.84005623586335" lon="3.2040210409481493"><ele>1146.0</ele><time>2026-04-05T15:01:27.999Z</time></trkpt><trkpt lat="44.839993389330814" lon="3.204060793193285"><ele>1145.3333333333333</ele><time>2026-04-05T15:01:28.999Z</time></trkpt><trkpt lat="44.83992592802196" lon="3.2041020007713885"><ele>1144.6666666666665</ele><time>2026-04-05T15:01:29.999Z</time></trkpt><trkpt lat="44.839856754212626" lon="3.2041285713055"><ele>1144.0</ele><time>2026-04-05T15:01:30.999Z</time></trkpt><trkpt lat="44.8397639742701" lon="3.204144538731299"><ele>1143.8</ele><time>2026-04-05T15:01:31.999Z</time></trkpt><trkpt lat="44.83965097834045" lon="3.204176420166389"><ele>1143.6000000000001</ele><time>2026-04-05T15:01:32.999Z</time></trkpt><trkpt lat="44.83954695286783" lon="3.2042176673775002"><ele>1143.4</ele><time>2026-04-05T15:01:33.999Z</time></trkpt><trkpt lat="44.83944148124442" lon="3.204257669460047"><ele>1143.2</ele><time>2026-04-05T15:01:34.999Z</time></trkpt><trkpt lat="44.839351202654726" lon="3.2043292338964666"><ele>1143.0</ele><time>2026-04-05T15:01:35.999Z</time></trkpt><trkpt lat="44.83926466941974" lon="3.2044066753824865"><ele>1141.6</ele><time>2026-04-05T15:01:36.999Z</time></trkpt><trkpt lat="44.83918019759187" lon="3.204487148700472"><ele>1140.1999999999998</ele><time>2026-04-05T15:01:37.999Z</time></trkpt><trkpt lat="44.83909235210649" lon="3.2045430559303187"><ele>1138.8</ele><time>2026-04-05T15:01:38.999Z</time></trkpt><trkpt lat="44.839003346004844" lon="3.204577682156314"><ele>1137.3999999999999</ele><time>2026-04-05T15:01:39.999Z</time></trkpt><trkpt lat="44.838920043372724" lon="3.2045684925088045"><ele>1136.0</ele><time>2026-04-05T15:01:40.999Z</time></trkpt><trkpt lat="44.838836329774104" lon="3.2045251731123403"><ele>1136.0</ele><time>2026-04-05T15:01:41.999Z</time></trkpt><trkpt lat="44.83872944640825" lon="3.2044695833117376"><ele>1136.0</ele><time>2026-04-05T15:01:42.999Z</time></trkpt><trkpt lat="44.83863309677866" lon="3.2044371599193333"><ele>1136.0</ele><time>2026-04-05T15:01:43.999Z</time></trkpt><trkpt lat="44.83852683906068" lon="3.2044537651901432"><ele>1136.0</ele><time>2026-04-05T15:01:44.999Z</time></trkpt><trkpt lat="44.838411114353285" lon="3.2044721777601146"><ele>1136.0</ele><time>2026-04-05T15:01:45.999Z</time></trkpt><trkpt lat="44.83829096431511" lon="3.2044922171032"><ele>1134.2</ele><time>2026-04-05T15:01:46.999Z</time></trkpt><trkpt lat="44.83819313110014" lon="3.204537343512787"><ele>1132.3999999999999</ele><time>2026-04-05T15:01:47.999Z</time></trkpt><trkpt lat="44.83810654963408" lon="3.2045688921454034"><ele>1130.6</ele><time>2026-04-05T15:01:48.999Z</time></trkpt><trkpt lat="44.838033267355584" lon="3.2045312380529354"><ele>1128.8</ele><time>2026-04-05T15:01:49.999Z</time></trkpt><trkpt lat="44.837941317603516" lon="3.204493342369669"><ele>1127.0</ele><time>2026-04-05T15:01:50.999Z</time></trkpt><trkpt lat="44.837840687199105" lon="3.204492932756271"><ele>1127.0</ele><time>2026-04-05T15:01:51.999Z</time></trkpt><trkpt lat="44.83774605154245" lon="3.204509996936238"><ele>1127.0</ele><time>2026-04-05T15:01:52.999Z</time></trkpt><trkpt lat="44.83763915342625" lon="3.2045387659014364"><ele>1127.0</ele><time>2026-04-05T15:01:53.999Z</time></trkpt><trkpt lat="44.83755679771717" lon="3.2045595180187747"><ele>1127.0</ele><time>2026-04-05T15:01:54.999Z</time></trkpt><trkpt lat="44.83745079869074" lon="3.204566933100684"><ele>1127.0</ele><time>2026-04-05T15:01:55.999Z</time></trkpt><trkpt lat="44.83732999886862" lon="3.204597640298656"><ele>1125.75</ele><time>2026-04-05T15:01:56.999Z</time></trkpt><trkpt lat="44.83721574404245" lon="3.2046317167711496"><ele>1124.5</ele><time>2026-04-05T15:01:57.999Z</time></trkpt><trkpt lat="44.83708862535471" lon="3.2046576799497606"><ele>1123.25</ele><time>2026-04-05T15:01:58.999Z</time></trkpt><trkpt lat="44.83697207762408" lon="3.2046959082685973"><ele>1122.0</ele><time>2026-04-05T15:01:59.999Z</time></trkpt><trkpt lat="44.83684933205672" lon="3.2047465368192416"><ele>1123.75</ele><time>2026-04-05T15:02:00.999Z</time></trkpt><trkpt lat="44.8367302294429" lon="3.204781237395185"><ele>1125.5</ele><time>2026-04-05T15:02:01.999Z</time></trkpt><trkpt lat="44.83660801501542" lon="3.2047944540706164"><ele>1127.25</ele><time>2026-04-05T15:02:02.999Z</time></trkpt><trkpt lat="44.83648021861509" lon="3.2048164981163945"><ele>1129.0</ele><time>2026-04-05T15:02:03.999Z</time></trkpt><trkpt lat="44.836367913360604" lon="3.20485933048854"><ele>1129.0</ele><time>2026-04-05T15:02:04.999Z</time></trkpt><trkpt lat="44.83625451612611" lon="3.204931269633332"><ele>1129.0</ele><time>2026-04-05T15:02:05.999Z</time></trkpt><trkpt lat="44.83613003148119" lon="3.205023757657862"><ele>1129.0</ele><time>2026-04-05T15:02:06.999Z</time></trkpt><trkpt lat="44.83600539996546" lon="3.205114991425505"><ele>1129.0</ele><time>2026-04-05T15:02:07.999Z</time></trkpt><trkpt lat="44.835897882722996" lon="3.2051645608887838"><ele>1127.0</ele><time>2026-04-05T15:02:08.999Z</time></trkpt><trkpt lat="44.835790963978766" lon="3.2051862629502827"><ele>1125.0</ele><time>2026-04-05T15:02:09.999Z</time></trkpt><trkpt lat="44.835676469452444" lon="3.2051647550540503"><ele>1123.0</ele><time>2026-04-05T15:02:10.999Z</time></trkpt><trkpt lat="44.83553135708839" lon="3.2051604620327527"><ele>1121.0</ele><time>2026-04-05T15:02:11.999Z</time></trkpt><trkpt lat="44.83540352472171" lon="3.20517769658935"><ele>1121.0</ele><time>2026-04-05T15:02:12.999Z</time></trkpt><trkpt lat="44.83528748394745" lon="3.2052382963734436"><ele>1121.0</ele><time>2026-04-05T15:02:13.999Z</time></trkpt><trkpt lat="44.835180554683994" lon="3.2052986591436987"><ele>1121.0</ele><time>2026-04-05T15:02:14.999Z</time></trkpt><trkpt lat="44.83508779585378" lon="3.2053618888499424"><ele>1121.0</ele><time>2026-04-05T15:02:15.999Z</time></trkpt><trkpt lat="44.83498412129889" lon="3.2053992343883606"><ele>1121.0</ele><time>2026-04-05T15:02:16.999Z</time></trkpt><trkpt lat="44.834898750330275" lon="3.2054386454699686"><ele>1120.1666666666667</ele><time>2026-04-05T15:02:17.999Z</time></trkpt><trkpt lat="44.83482661274269" lon="3.2055065222754267"><ele>1119.3333333333335</ele><time>2026-04-05T15:02:18.998Z</time></trkpt><trkpt lat="44.8347457311835" lon="3.205586865414093"><ele>1118.5</ele><time>2026-04-05T15:02:19.998Z</time></trkpt><trkpt lat="44.83467441658809" lon="3.2056558056839397"><ele>1117.6666666666667</ele><time>2026-04-05T15:02:20.998Z</time></trkpt><trkpt lat="44.83459811210707" lon="3.205715308481167"><ele>1116.8333333333333</ele><time>2026-04-05T15:02:21.998Z</time></trkpt><trkpt lat="44.83452861523467" lon="3.2057887416449695"><ele>1116.0</ele><time>2026-04-05T15:02:22.998Z</time></trkpt><trkpt lat="44.8344685047366" lon="3.2058745133628217"><ele>1116.0</ele><time>2026-04-05T15:02:23.998Z</time></trkpt><trkpt lat="44.83440958498536" lon="3.2059668571973963"><ele>1116.0</ele><time>2026-04-05T15:02:24.998Z</time></trkpt><trkpt lat="44.8343342421635" lon="3.206032129066951"><ele>1116.0</ele><time>2026-04-05T15:02:27Z</time></trkpt><trkpt lat="44.834328628612454" lon="3.205902926112384"><ele>1116.0</ele><time>2026-04-05T15:02:30Z</time></trkpt><trkpt lat="44.834361762249266" lon="3.2058041002475854"><ele>1116.0</ele><time>2026-04-05T15:02:31Z</time></trkpt><trkpt lat="44.834393089580864" lon="3.2057089022335616"><ele>1116.0</ele><time>2026-04-05T15:02:34Z</time></trkpt><trkpt lat="44.834461055993614" lon="3.205532766784111"><ele>1116.0</ele><time>2026-04-05T15:02:37Z</time></trkpt><trkpt lat="44.83453809028659" lon="3.20542445986343"><ele>1116.0</ele><time>2026-04-05T15:02:38Z</time></trkpt><trkpt lat="44.834618751170055" lon="3.205321623801263"><ele>1116.0</ele><time>2026-04-05T15:02:39Z</time></trkpt><trkpt lat="44.83466382279781" lon="3.2051643729034778"><ele>1116.0</ele><time>2026-04-05T15:02:40Z</time></trkpt><trkpt lat="44.834694813614476" lon="3.205023149724361"><ele>1116.0</ele><time>2026-04-05T15:02:41Z</time></trkpt><trkpt lat="44.83475308859547" lon="3.2049365405983252"><ele>1116.0</ele><time>2026-04-05T15:02:42Z</time></trkpt><trkpt lat="44.83483362736382" lon="3.2048551247446904"><ele>1116.0</ele><time>2026-04-05T15:02:43Z</time></trkpt><trkpt lat="44.834913561393165" lon="3.2048137819008615"><ele>1116.0</ele><time>2026-04-05T15:02:44Z</time></trkpt><trkpt lat="44.83500677075505" lon="3.2047659557117005"><ele>1116.0</ele><time>2026-04-05T15:02:45Z</time></trkpt><trkpt lat="44.83508555943163" lon="3.2046519579920982"><ele>1116.0</ele><time>2026-04-05T15:02:46Z</time></trkpt><trkpt lat="44.835180321342285" lon="3.2045540020442416"><ele>1114.0</ele><time>2026-04-05T15:02:47Z</time></trkpt><trkpt lat="44.835300475067704" lon="3.2044750221802447"><ele>1112.0</ele><time>2026-04-05T15:02:48Z</time></trkpt><trkpt lat="44.83538360778063" lon="3.2044069778738833"><ele>1110.0</ele><time>2026-04-05T15:02:49Z</time></trkpt><trkpt lat="44.83545909297977" lon="3.204358535129205"><ele>1108.0</ele><time>2026-04-05T15:02:50Z</time></trkpt><trkpt lat="44.83555739828467" lon="3.204300591659146"><ele>1106.0</ele><time>2026-04-05T15:02:51Z</time></trkpt><trkpt lat="44.835663819509314" lon="3.2042299293496272"><ele>1106.0</ele><time>2026-04-05T15:02:52Z</time></trkpt><trkpt lat="44.83575616093023" lon="3.204180609821152"><ele>1106.0</ele><time>2026-04-05T15:02:53Z</time></trkpt><trkpt lat="44.83583323706528" lon="3.204139941365433"><ele>1106.0</ele><time>2026-04-05T15:02:54Z</time></trkpt><trkpt lat="44.835910944162165" lon="3.204083507594405"><ele>1106.0</ele><time>2026-04-05T15:02:55Z</time></trkpt><trkpt lat="44.83597832740834" lon="3.204032309853777"><ele>1106.0</ele><time>2026-04-05T15:02:56Z</time></trkpt><trkpt lat="44.836058630799236" lon="3.203935736110701"><ele>1104.0</ele><time>2026-04-05T15:02:57Z</time></trkpt><trkpt lat="44.83615828774582" lon="3.203834044785354"><ele>1102.0</ele><time>2026-04-05T15:02:58Z</time></trkpt><trkpt lat="44.83624775859914" lon="3.203746408985584"><ele>1100.0</ele><time>2026-04-05T15:02:59Z</time></trkpt><trkpt lat="44.83633458519533" lon="3.2036587811964283"><ele>1098.0</ele><time>2026-04-05T15:03:00Z</time></trkpt><trkpt lat="44.8364070060561" lon="3.203579249849109"><ele>1096.0</ele><time>2026-04-05T15:03:01Z</time></trkpt><trkpt lat="44.836489996295555" lon="3.203510189023885"><ele>1096.0</ele><time>2026-04-05T15:03:02Z</time></trkpt><trkpt lat="44.83659807210894" lon="3.203463869274564"><ele>1096.0</ele><time>2026-04-05T15:03:03Z</time></trkpt><trkpt lat="44.836694773757124" lon="3.2034109366590617"><ele>1096.0</ele><time>2026-04-05T15:03:04Z</time></trkpt><trkpt lat="44.83675972937619" lon="3.2033313547389937"><ele>1096.0</ele><time>2026-04-05T15:03:05Z</time></trkpt><trkpt lat="44.83680856943584" lon="3.203209540895666"><ele>1096.0</ele><time>2026-04-05T15:03:06Z</time></trkpt><trkpt lat="44.83682096624373" lon="3.203117001790439"><ele>1096.2</ele><time>2026-04-05T15:03:07Z</time></trkpt><trkpt lat="44.83682968572435" lon="3.2029329467032968"><ele>1096.3999999999999</ele><time>2026-04-05T15:03:09Z</time></trkpt><trkpt lat="44.83682599344969" lon="3.202814300592461"><ele>1096.6</ele><time>2026-04-05T15:03:09.999Z</time></trkpt><trkpt lat="44.83683458985212" lon="3.2026973781247716"><ele>1096.8</ele><time>2026-04-05T15:03:10.999Z</time></trkpt><trkpt lat="44.836871414449995" lon="3.2025958107383166"><ele>1097.0</ele><time>2026-04-05T15:03:11.999Z</time></trkpt><trkpt lat="44.83694440505952" lon="3.202477602169694"><ele>1097.0</ele><time>2026-04-05T15:03:12.999Z</time></trkpt><trkpt lat="44.83702116480532" lon="3.2023574619648207"><ele>1097.0</ele><time>2026-04-05T15:03:13.999Z</time></trkpt><trkpt lat="44.837111673527176" lon="3.202312196037157"><ele>1097.0</ele><time>2026-04-05T15:03:14.999Z</time></trkpt><trkpt lat="44.837212456610864" lon="3.2022733926429012"><ele>1097.0</ele><time>2026-04-05T15:03:15.999Z</time></trkpt><trkpt lat="44.83730326587616" lon="3.202172999901311"><ele>1097.0</ele><time>2026-04-05T15:03:16.999Z</time></trkpt><trkpt lat="44.83733640821292" lon="3.2020899003083216"><ele>1095.5</ele><time>2026-04-05T15:03:17.999Z</time></trkpt><trkpt lat="44.83738490456266" lon="3.2020005014977997"><ele>1094.0</ele><time>2026-04-05T15:03:19.999Z</time></trkpt><trkpt lat="44.8372616150278" lon="3.201982640744513"><ele>1092.5</ele><time>2026-04-05T15:03:22.999Z</time></trkpt><trkpt lat="44.837158143703014" lon="3.2020100869809536"><ele>1091.0</ele><time>2026-04-05T15:03:23.999Z</time></trkpt><trkpt lat="44.83701831150337" lon="3.2020466526224354"><ele>1091.0</ele><time>2026-04-05T15:03:24.999Z</time></trkpt><trkpt lat="44.83684931219417" lon="3.2020841001530416"><ele>1091.0</ele><time>2026-04-05T15:03:25.999Z</time></trkpt><trkpt lat="44.836688209824686" lon="3.202107296640737"><ele>1091.0</ele><time>2026-04-05T15:03:26.999Z</time></trkpt><trkpt lat="44.83658834964972" lon="3.202158414441229"><ele>1091.0</ele><time>2026-04-05T15:03:27.999Z</time></trkpt><trkpt lat="44.83650553474224" lon="3.2022287635602393"><ele>1089.0</ele><time>2026-04-05T15:03:28.999Z</time></trkpt><trkpt lat="44.836413651255896" lon="3.202309418745107"><ele>1087.0</ele><time>2026-04-05T15:03:29.999Z</time></trkpt><trkpt lat="44.836306888164934" lon="3.202372256668402"><ele>1085.0</ele><time>2026-04-05T15:03:30.999Z</time></trkpt><trkpt lat="44.83618166876177" lon="3.202409756636363"><ele>1083.0</ele><time>2026-04-05T15:03:31.999Z</time></trkpt><trkpt lat="44.836047575857975" lon="3.2024248995627524"><ele>1081.0</ele><time>2026-04-05T15:03:32.999Z</time></trkpt><trkpt lat="44.83589414874858" lon="3.2024484117146472"><ele>1079.0</ele><time>2026-04-05T15:03:33.999Z</time></trkpt><trkpt lat="44.83574768807704" lon="3.2024262721023273"><ele>1077.0</ele><time>2026-04-05T15:03:34.999Z</time></trkpt><trkpt lat="44.835593986951686" lon="3.202347946231927"><ele>1077.0</ele><time>2026-04-05T15:03:35.999Z</time></trkpt><trkpt lat="44.8354786588759" lon="3.2023168802217783"><ele>1077.0</ele><time>2026-04-05T15:03:36.999Z</time></trkpt><trkpt lat="44.835369350814176" lon="3.2023604400033476"><ele>1077.0</ele><time>2026-04-05T15:03:37.999Z</time></trkpt><trkpt lat="44.835231547478216" lon="3.2024512718836604"><ele>1077.0</ele><time>2026-04-05T15:03:38.999Z</time></trkpt><trkpt lat="44.83507340973573" lon="3.202567124621476"><ele>1076.5</ele><time>2026-04-05T15:03:39.999Z</time></trkpt><trkpt lat="44.83495131667156" lon="3.2026720666160626"><ele>1076.0</ele><time>2026-04-05T15:03:40.999Z</time></trkpt><trkpt lat="44.834893841044654" lon="3.202759745903301"><ele>1075.5</ele><time>2026-04-05T15:03:41.999Z</time></trkpt><trkpt lat="44.83486172660878" lon="3.203002724745424"><ele>1075.0</ele><time>2026-04-05T15:03:43.999Z</time></trkpt><trkpt lat="44.83484287169668" lon="3.2031809932490733"><ele>1077.6</ele><time>2026-04-05T15:03:44.999Z</time></trkpt><trkpt lat="44.83479422298367" lon="3.203308284884872"><ele>1080.2</ele><time>2026-04-05T15:03:45.999Z</time></trkpt><trkpt lat="44.834713477961174" lon="3.2033943231770867"><ele>1082.8</ele><time>2026-04-05T15:03:46.999Z</time></trkpt><trkpt lat="44.834610182333336" lon="3.2034453394547224"><ele>1085.4</ele><time>2026-04-05T15:03:47.999Z</time></trkpt><trkpt lat="44.83448284197806" lon="3.2034801852278356"><ele>1088.0</ele><time>2026-04-05T15:03:48.999Z</time></trkpt><trkpt lat="44.83432606684655" lon="3.203484477282759"><ele>1085.75</ele><time>2026-04-05T15:03:49.999Z</time></trkpt><trkpt lat="44.83420750464019" lon="3.203478597510824"><ele>1083.5</ele><time>2026-04-05T15:03:50.999Z</time></trkpt><trkpt lat="44.83407505450328" lon="3.203432047068976"><ele>1081.25</ele><time>2026-04-05T15:03:51.999Z</time></trkpt><trkpt lat="44.83392347480092" lon="3.2033837807562815"><ele>1079.0</ele><time>2026-04-05T15:03:52.999Z</time></trkpt><trkpt lat="44.83380247419089" lon="3.2033522231329337"><ele>1079.0</ele><time>2026-04-05T15:03:53.999Z</time></trkpt><trkpt lat="44.8336854498373" lon="3.203328232503869"><ele>1079.0</ele><time>2026-04-05T15:03:54.999Z</time></trkpt><trkpt lat="44.83356516980999" lon="3.2032886442767605"><ele>1079.0</ele><time>2026-04-05T15:03:55.999Z</time></trkpt><trkpt lat="44.83346285406767" lon="3.2032446202774074"><ele>1079.0</ele><time>2026-04-05T15:03:56.999Z</time></trkpt><trkpt lat="44.83336740150983" lon="3.2032361119039474"><ele>1079.0</ele><time>2026-04-05T15:03:57.999Z</time></trkpt><trkpt lat="44.833260662428195" lon="3.2032666572891784"><ele>1077.5</ele><time>2026-04-05T15:03:58.999Z</time></trkpt><trkpt lat="44.833155035827076" lon="3.203325521578874"><ele>1076.0</ele><time>2026-04-05T15:03:59.999Z</time></trkpt><trkpt lat="44.833076528314606" lon="3.203394815815349"><ele>1074.5</ele><time>2026-04-05T15:04:00.999Z</time></trkpt><trkpt lat="44.83301356404085" lon="3.2034681383657566"><ele>1073.0</ele><time>2026-04-05T15:04:01.999Z</time></trkpt><trkpt lat="44.83295439145667" lon="3.203538180362363"><ele>1071.5</ele><time>2026-04-05T15:04:03.999Z</time></trkpt><trkpt lat="44.832906757502656" lon="3.2034522395428473"><ele>1070.0</ele><time>2026-04-05T15:04:05.999Z</time></trkpt><trkpt lat="44.83290880485713" lon="3.2033627247253946"><ele>1070.0</ele><time>2026-04-05T15:04:06.999Z</time></trkpt><trkpt lat="44.83292617992619" lon="3.203233344055803"><ele>1070.0</ele><time>2026-04-05T15:04:07.999Z</time></trkpt><trkpt lat="44.83295074087673" lon="3.2030827043243506"><ele>1070.0</ele><time>2026-04-05T15:04:08.999Z</time></trkpt><trkpt lat="44.83298298393581" lon="3.2029102462527064"><ele>1070.0</ele><time>2026-04-05T15:04:09.999Z</time></trkpt><trkpt lat="44.833020300613875" lon="3.2027232257462357"><ele>1068.0</ele><time>2026-04-05T15:04:10.999Z</time></trkpt><trkpt lat="44.8330484260086" lon="3.2025456206891394"><ele>1066.0</ele><time>2026-04-05T15:04:11.999Z</time></trkpt><trkpt lat="44.83306000428352" lon="3.2023932597179905"><ele>1064.0</ele><time>2026-04-05T15:04:12.999Z</time></trkpt><trkpt lat="44.83306219436997" lon="3.202244302846024"><ele>1062.0</ele><time>2026-04-05T15:04:13.999Z</time></trkpt><trkpt lat="44.83305462119301" lon="3.2020825636874246"><ele>1060.75</ele><time>2026-04-05T15:04:14.999Z</time></trkpt><trkpt lat="44.83303279155289" lon="3.2019141741736634"><ele>1059.5</ele><time>2026-04-05T15:04:15.999Z</time></trkpt><trkpt lat="44.83299003892054" lon="3.201741446092594"><ele>1058.25</ele><time>2026-04-05T15:04:16.999Z</time></trkpt><trkpt lat="44.832933351051736" lon="3.2015623540752056"><ele>1057.0</ele><time>2026-04-05T15:04:17.999Z</time></trkpt><trkpt lat="44.83286591119049" lon="3.2014000067586954"><ele>1056.6</ele><time>2026-04-05T15:04:18.999Z</time></trkpt><trkpt lat="44.83283443399306" lon="3.2012938840000644"><ele>1056.2</ele><time>2026-04-05T15:04:19.998Z</time></trkpt><trkpt lat="44.83283707274218" lon="3.2012040092120166"><ele>1055.8</ele><time>2026-04-05T15:04:20.998Z</time></trkpt><trkpt lat="44.83288116495185" lon="3.201095921931182"><ele>1055.4</ele><time>2026-04-05T15:04:21.998Z</time></trkpt><trkpt lat="44.832952259629906" lon="3.2009710725112623"><ele>1055.0</ele><time>2026-04-05T15:04:22.998Z</time></trkpt><trkpt lat="44.833024149683936" lon="3.2008025332875905"><ele>1056.3333333333335</ele><time>2026-04-05T15:04:23.998Z</time></trkpt><trkpt lat="44.83310725471304" lon="3.200625315718852"><ele>1057.6666666666667</ele><time>2026-04-05T15:04:24.998Z</time></trkpt><trkpt lat="44.83318668402463" lon="3.200417073295762"><ele>1059.0</ele><time>2026-04-05T15:04:25.998Z</time></trkpt><trkpt lat="44.83327877139851" lon="3.2001667286678503"><ele>1059.0</ele><time>2026-04-05T15:04:26.998Z</time></trkpt><trkpt lat="44.83336615979678" lon="3.199948248611927"><ele>1059.0</ele><time>2026-04-05T15:04:27.998Z</time></trkpt><trkpt lat="44.83345279986963" lon="3.199784353819449"><ele>1059.0</ele><time>2026-04-05T15:04:28.998Z</time></trkpt><trkpt lat="44.83356885037734" lon="3.1996182127202535"><ele>1060.6666666666667</ele><time>2026-04-05T15:04:29.998Z</time></trkpt><trkpt lat="44.83369459960174" lon="3.19944552667546"><ele>1062.3333333333335</ele><time>2026-04-05T15:04:30.998Z</time></trkpt><trkpt lat="44.83382578568049" lon="3.199281388163599"><ele>1064.0</ele><time>2026-04-05T15:04:31.998Z</time></trkpt><trkpt lat="44.833959587662044" lon="3.199159348451623"><ele>1064.0</ele><time>2026-04-05T15:04:33Z</time></trkpt><trkpt lat="44.834081892084946" lon="3.1990555136528527"><ele>1064.0</ele><time>2026-04-05T15:04:34Z</time></trkpt><trkpt lat="44.8341841085011" lon="3.198952839909285"><ele>1064.0</ele><time>2026-04-05T15:04:35Z</time></trkpt><trkpt lat="44.8343312409202" lon="3.1988045631829274"><ele>1064.0</ele><time>2026-04-05T15:04:36Z</time></trkpt><trkpt lat="44.83445551528877" lon="3.198665618043673"><ele>1065.75</ele><time>2026-04-05T15:04:37Z</time></trkpt><trkpt lat="44.83457583216899" lon="3.198530780687496"><ele>1067.5</ele><time>2026-04-05T15:04:38Z</time></trkpt><trkpt lat="44.83467916148462" lon="3.198393940201887"><ele>1069.25</ele><time>2026-04-05T15:04:39Z</time></trkpt><trkpt lat="44.83476710379364" lon="3.1982525501643497"><ele>1071.0</ele><time>2026-04-05T15:04:40Z</time></trkpt><trkpt lat="44.834863959546" lon="3.19811199963799"><ele>1073.3333333333333</ele><time>2026-04-05T15:04:41Z</time></trkpt><trkpt lat="44.83497460149463" lon="3.197957771196178"><ele>1075.6666666666665</ele><time>2026-04-05T15:04:42Z</time></trkpt><trkpt lat="44.83506645854411" lon="3.197780116813291"><ele>1078.0</ele><time>2026-04-05T15:04:43Z</time></trkpt><trkpt lat="44.835134961339676" lon="3.197602017249515"><ele>1078.75</ele><time>2026-04-05T15:04:44Z</time></trkpt><trkpt lat="44.83521623505998" lon="3.197445482866176"><ele>1079.5</ele><time>2026-04-05T15:04:45Z</time></trkpt><trkpt lat="44.83534198417882" lon="3.1973962385386847"><ele>1080.25</ele><time>2026-04-05T15:04:46Z</time></trkpt><trkpt lat="44.83548038755562" lon="3.1973429472423334"><ele>1081.0</ele><time>2026-04-05T15:04:47Z</time></trkpt><trkpt lat="44.83563235687109" lon="3.197215929875614"><ele>1081.0</ele><time>2026-04-05T15:04:48Z</time></trkpt><trkpt lat="44.835786128289875" lon="3.1970307867365224"><ele>1081.0</ele><time>2026-04-05T15:04:49Z</time></trkpt><trkpt lat="44.83595793676412" lon="3.1968523103169133"><ele>1081.0</ele><time>2026-04-05T15:04:50Z</time></trkpt><trkpt lat="44.8361374326685" lon="3.196702416543313"><ele>1081.0</ele><time>2026-04-05T15:04:51Z</time></trkpt><trkpt lat="44.83629934446994" lon="3.1965796004765306"><ele>1081.0</ele><time>2026-04-05T15:04:52Z</time></trkpt><trkpt lat="44.836478896879306" lon="3.1963883322126003"><ele>1081.0</ele><time>2026-04-05T15:04:53Z</time></trkpt><trkpt lat="44.836675001200256" lon="3.196186030429886"><ele>1081.0</ele><time>2026-04-05T15:04:54Z</time></trkpt><trkpt lat="44.8368478008853" lon="3.1959756458405226"><ele>1081.0</ele><time>2026-04-05T15:04:55Z</time></trkpt><trkpt lat="44.83698892183469" lon="3.195830402989737"><ele>1081.0</ele><time>2026-04-05T15:04:56Z</time></trkpt><trkpt lat="44.83705234908101" lon="3.195696540646911"><ele>1083.25</ele><time>2026-04-05T15:04:57Z</time></trkpt><trkpt lat="44.83709582723389" lon="3.195577735158622"><ele>1085.5</ele><time>2026-04-05T15:04:58Z</time></trkpt><trkpt lat="44.83711702134239" lon="3.195393098529595"><ele>1087.75</ele><time>2026-04-05T15:04:59Z</time></trkpt><trkpt lat="44.83710846282037" lon="3.195153368499524"><ele>1090.0</ele><time>2026-04-05T15:05:00Z</time></trkpt><trkpt lat="44.83712244493712" lon="3.1948915930658655"><ele>1092.0</ele><time>2026-04-05T15:05:01Z</time></trkpt><trkpt lat="44.8371616489061" lon="3.194679213881563"><ele>1094.0</ele><time>2026-04-05T15:05:02Z</time></trkpt><trkpt lat="44.837208933630386" lon="3.194482439184338"><ele>1096.0</ele><time>2026-04-05T15:05:03Z</time></trkpt><trkpt lat="44.837245384337535" lon="3.1942617976601198"><ele>1096.0</ele><time>2026-04-05T15:05:04Z</time></trkpt><trkpt lat="44.837267968837644" lon="3.1940766844810575"><ele>1096.0</ele><time>2026-04-05T15:05:05Z</time></trkpt><trkpt lat="44.83727470601467" lon="3.193868542294066"><ele>1096.0</ele><time>2026-04-05T15:05:06Z</time></trkpt><trkpt lat="44.837301145761046" lon="3.193638254175518"><ele>1096.0</ele><time>2026-04-05T15:05:07Z</time></trkpt><trkpt lat="44.8373452231578" lon="3.1934244818340565"><ele>1096.6</ele><time>2026-04-05T15:05:08Z</time></trkpt><trkpt lat="44.83735554886672" lon="3.1932761898768987"><ele>1097.1999999999998</ele><time>2026-04-05T15:05:09Z</time></trkpt><trkpt lat="44.837334728395064" lon="3.1931508278508964"><ele>1097.8000000000002</ele><time>2026-04-05T15:05:09.999Z</time></trkpt><trkpt lat="44.83728812130927" lon="3.1930329011061245"><ele>1098.4</ele><time>2026-04-05T15:05:10.999Z</time></trkpt><trkpt lat="44.83723022188407" lon="3.192899697905946"><ele>1099.0</ele><time>2026-04-05T15:05:11.999Z</time></trkpt><trkpt lat="44.83715784385605" lon="3.1927567305704114"><ele>1100.0</ele><time>2026-04-05T15:05:12.999Z</time></trkpt><trkpt lat="44.83712624526729" lon="3.19263725912086"><ele>1101.0</ele><time>2026-04-05T15:05:13.999Z</time></trkpt><trkpt lat="44.83715581991864" lon="3.192548713087186"><ele>1102.0</ele><time>2026-04-05T15:05:14.999Z</time></trkpt><trkpt lat="44.83722813581712" lon="3.1924704059626414"><ele>1103.0</ele><time>2026-04-05T15:05:15.999Z</time></trkpt><trkpt lat="44.837321303571244" lon="3.192404562933646"><ele>1104.0</ele><time>2026-04-05T15:05:16.999Z</time></trkpt><trkpt lat="44.83742411207724" lon="3.192326375515192"><ele>1104.25</ele><time>2026-04-05T15:05:17.999Z</time></trkpt><trkpt lat="44.83753872890649" lon="3.1922187621311107"><ele>1104.5</ele><time>2026-04-05T15:05:18.999Z</time></trkpt><trkpt lat="44.83763879018454" lon="3.19211457979736"><ele>1104.75</ele><time>2026-04-05T15:05:19.999Z</time></trkpt><trkpt lat="44.837723418033235" lon="3.1920275454478104"><ele>1105.0</ele><time>2026-04-05T15:05:20.999Z</time></trkpt><trkpt lat="44.83780566485676" lon="3.191925836321853"><ele>1106.0</ele><time>2026-04-05T15:05:21.999Z</time></trkpt><trkpt lat="44.837886648590136" lon="3.191819728025961"><ele>1107.0</ele><time>2026-04-05T15:05:22.999Z</time></trkpt><trkpt lat="44.83796966717114" lon="3.191714330482984"><ele>1108.0</ele><time>2026-04-05T15:05:23.999Z</time></trkpt><trkpt lat="44.838045318244546" lon="3.1916261744104926"><ele>1109.0</ele><time>2026-04-05T15:05:24.999Z</time></trkpt><trkpt lat="44.83809760038694" lon="3.191557566052944"><ele>1110.0</ele><time>2026-04-05T15:05:25.999Z</time></trkpt><trkpt lat="44.838204945163554" lon="3.191440234424602"><ele>1110.8</ele><time>2026-04-05T15:05:27.999Z</time></trkpt><trkpt lat="44.838260420127504" lon="3.1913684493979693"><ele>1111.6</ele><time>2026-04-05T15:05:28.999Z</time></trkpt><trkpt lat="44.83830730529102" lon="3.19130114813841"><ele>1112.4</ele><time>2026-04-05T15:05:29.999Z</time></trkpt><trkpt lat="44.8383798279458" lon="3.191225067712184"><ele>1113.2</ele><time>2026-04-05T15:05:30.999Z</time></trkpt><trkpt lat="44.83847022151178" lon="3.1911426924842337"><ele>1114.0</ele><time>2026-04-05T15:05:31.999Z</time></trkpt><trkpt lat="44.83857407220027" lon="3.191048935281824"><ele>1114.4</ele><time>2026-04-05T15:05:32.999Z</time></trkpt><trkpt lat="44.83867685009855" lon="3.190948426516007"><ele>1114.8000000000002</ele><time>2026-04-05T15:05:33.999Z</time></trkpt><trkpt lat="44.83876909452879" lon="3.190848692244849"><ele>1115.1999999999998</ele><time>2026-04-05T15:05:34.999Z</time></trkpt><trkpt lat="44.8388391141776" lon="3.1907814748293726"><ele>1115.6</ele><time>2026-04-05T15:05:35.999Z</time></trkpt><trkpt lat="44.83890095144826" lon="3.1907509068306097"><ele>1116.0</ele><time>2026-04-05T15:05:36.999Z</time></trkpt><trkpt lat="44.83897469312153" lon="3.190727219476631"><ele>1117.2</ele><time>2026-04-05T15:05:38.999Z</time></trkpt><trkpt lat="44.83906043312698" lon="3.1906362197341016"><ele>1118.3999999999999</ele><time>2026-04-05T15:05:40.999Z</time></trkpt><trkpt lat="44.83909407052456" lon="3.1905562322059247"><ele>1119.6</ele><time>2026-04-05T15:05:41.999Z</time></trkpt><trkpt lat="44.83911667315971" lon="3.190463159466907"><ele>1120.8</ele><time>2026-04-05T15:05:42.999Z</time></trkpt><trkpt lat="44.83918202386233" lon="3.190360217371959"><ele>1122.0</ele><time>2026-04-05T15:05:44.999Z</time></trkpt><trkpt lat="44.839069750732016" lon="3.1902331654326104"><ele>1122.0</ele><time>2026-04-05T15:05:45.999Z</time></trkpt><trkpt lat="44.83900366683571" lon="3.1900836627889975"><ele>1122.0</ele><time>2026-04-05T15:05:47.999Z</time></trkpt><trkpt lat="44.83897065667943" lon="3.1899895115038666"><ele>1122.0</ele><time>2026-04-05T15:05:48.999Z</time></trkpt><trkpt lat="44.8389272643359" lon="3.189923409340168"><ele>1122.0</ele><time>2026-04-05T15:05:49.999Z</time></trkpt><trkpt lat="44.83917010713516" lon="3.1898806715621904"><ele>1124.0</ele><time>2026-04-05T15:05:50.999Z</time></trkpt><trkpt lat="44.83902085653428" lon="3.189707375503313"><ele>1126.0</ele><time>2026-04-05T15:05:51.999Z</time></trkpt><trkpt lat="44.83909649279047" lon="3.1895736600825635"><ele>1128.0</ele><time>2026-04-05T15:05:53.999Z</time></trkpt><trkpt lat="44.839139113444354" lon="3.189466389910566"><ele>1130.0</ele><time>2026-04-05T15:05:55.999Z</time></trkpt><trkpt lat="44.83908350014248" lon="3.1893622990478963"><ele>1130.0</ele><time>2026-04-05T15:14:34.999Z</time></trkpt></trkseg></trk></gpx>